<?xml version='1.0' encoding='UTF-8'?><gpx version="1.1" creator="JPX - https://github.com/jenetics/jpx" xmlns="http://www.topografix.com/GPX/1/1"><trk><trkseg><trkpt lat="42.95839109068615" lon="11.231406112231575"><ele>116.0</ele><time>2026-04-26T08:46:56Z</time></trkpt><trkpt lat="42.9584167214755" lon="11.231158123142993"><ele>116.0</ele><time>2026-04-26T08:46:57Z</time></trkpt><trkpt lat="42.95846052324594" lon="11.230923520321234"><ele>116.0</ele><time>2026-04-26T08:46:58Z</time></trkpt><trkpt lat="42.95852633946226" lon="11.230673952880117"><ele>115.33333333333333</ele><time>2026-04-26T08:46:59Z</time></trkpt><trkpt lat="42.958598913877715" lon="11.230410804294893"><ele>114.66666666666666</ele><time>2026-04-26T08:47:00Z</time></trkpt><trkpt lat="42.958676411274965" lon="11.230119760992945"><ele>114.0</ele><time>2026-04-26T08:47:01Z</time></trkpt><trkpt lat="42.95875167649579" lon="11.229818568656288"><ele>113.66666666666666</ele><time>2026-04-26T08:47:01.999Z</time></trkpt><trkpt lat="42.958824045222165" lon="11.229531999284166"><ele>113.33333333333333</ele><time>2026-04-26T08:47:02.999Z</time></trkpt><trkpt lat="42.95889576538008" lon="11.22924666674968"><ele>113.0</ele><time>2026-04-26T08:47:03.999Z</time></trkpt><trkpt lat="42.9589652741303" lon="11.22897201924032"><ele>112.33333333333333</ele><time>2026-04-26T08:47:04.999Z</time></trkpt><trkpt lat="42.95902847076223" lon="11.228703206775872"><ele>111.66666666666666</ele><time>2026-04-26T08:47:05.999Z</time></trkpt><trkpt lat="42.95908934789768" lon="11.22843874272128"><ele>111.0</ele><time>2026-04-26T08:47:06.999Z</time></trkpt><trkpt lat="42.95915880880234" lon="11.228204080269123"><ele>115.33333333333334</ele><time>2026-04-26T08:47:07.999Z</time></trkpt><trkpt lat="42.95922425398288" lon="11.227930321237771"><ele>119.66666666666667</ele><time>2026-04-26T08:47:08.999Z</time></trkpt><trkpt lat="42.959279781096086" lon="11.227641025886577"><ele>124.0</ele><time>2026-04-26T08:47:09.999Z</time></trkpt><trkpt lat="42.95932595557579" lon="11.227343700719016"><ele>123.0</ele><time>2026-04-26T08:47:10.999Z</time></trkpt><trkpt lat="42.95936760855108" lon="11.22703068398476"><ele>122.0</ele><time>2026-04-26T08:47:11.999Z</time></trkpt><trkpt lat="42.95941663221569" lon="11.226728597887712"><ele>118.5</ele><time>2026-04-26T08:47:12.999Z</time></trkpt><trkpt lat="42.959461649209686" lon="11.226434076237643"><ele>115.0</ele><time>2026-04-26T08:47:13.999Z</time></trkpt><trkpt lat="42.959574205506385" lon="11.226127341743569"><ele>115.0</ele><time>2026-04-26T08:47:14.999Z</time></trkpt><trkpt lat="42.95963647662072" lon="11.225808572206494"><ele>115.0</ele><time>2026-04-26T08:47:15.999Z</time></trkpt><trkpt lat="42.95969821247516" lon="11.225492542792699"><ele>113.0</ele><time>2026-04-26T08:47:16.999Z</time></trkpt><trkpt lat="42.95976072775597" lon="11.22517252340767"><ele>111.0</ele><time>2026-04-26T08:47:17.999Z</time></trkpt><trkpt lat="42.95982341719863" lon="11.224851612393216"><ele>110.5</ele><time>2026-04-26T08:47:18.999Z</time></trkpt><trkpt lat="42.95988637595129" lon="11.224529322899688"><ele>110.0</ele><time>2026-04-26T08:47:19.999Z</time></trkpt><trkpt lat="42.959949923242654" lon="11.22420847854018"><ele>109.0</ele><time>2026-04-26T08:47:20.999Z</time></trkpt><trkpt lat="42.96001878348051" lon="11.223889847293604"><ele>108.0</ele><time>2026-04-26T08:47:21.999Z</time></trkpt><trkpt lat="42.960091334267155" lon="11.223572218791995"><ele>111.5</ele><time>2026-04-26T08:47:22.999Z</time></trkpt><trkpt lat="42.96016299874524" lon="11.223258317480798"><ele>115.0</ele><time>2026-04-26T08:47:23.999Z</time></trkpt><trkpt lat="42.96023291258008" lon="11.222951349060494"><ele>115.0</ele><time>2026-04-26T08:47:24.999Z</time></trkpt><trkpt lat="42.96030274018202" lon="11.222644759091793"><ele>115.0</ele><time>2026-04-26T08:47:25.999Z</time></trkpt><trkpt lat="42.960372322136536" lon="11.222339247890856"><ele>114.0</ele><time>2026-04-26T08:47:26.999Z</time></trkpt><trkpt lat="42.96044253182417" lon="11.222030980350711"><ele>113.0</ele><time>2026-04-26T08:47:27.999Z</time></trkpt><trkpt lat="42.96051206383449" lon="11.221725688334532"><ele>112.0</ele><time>2026-04-26T08:47:28.999Z</time></trkpt><trkpt lat="42.96058339970703" lon="11.221408191839902"><ele>111.0</ele><time>2026-04-26T08:47:29.999Z</time></trkpt><trkpt lat="42.96064691018156" lon="11.221079796314013"><ele>111.0</ele><time>2026-04-26T08:47:30.999Z</time></trkpt><trkpt lat="42.960697947710706" lon="11.22074746902329"><ele>111.0</ele><time>2026-04-26T08:47:31.999Z</time></trkpt><trkpt lat="42.96074315504176" lon="11.220411693265318"><ele>110.5</ele><time>2026-04-26T08:47:32.999Z</time></trkpt><trkpt lat="42.96078852502993" lon="11.220074094140873"><ele>110.0</ele><time>2026-04-26T08:47:33.999Z</time></trkpt><trkpt lat="42.96083417767555" lon="11.219732996941783"><ele>113.5</ele><time>2026-04-26T08:47:34.999Z</time></trkpt><trkpt lat="42.9608799114619" lon="11.219391293421834"><ele>117.0</ele><time>2026-04-26T08:47:35.999Z</time></trkpt><trkpt lat="42.96092560770001" lon="11.219049870362342"><ele>116.0</ele><time>2026-04-26T08:47:36.999Z</time></trkpt><trkpt lat="42.9609714175375" lon="11.21870759852455"><ele>115.0</ele><time>2026-04-26T08:47:37.999Z</time></trkpt><trkpt lat="42.96101914886527" lon="11.218365691920104"><ele>113.5</ele><time>2026-04-26T08:47:38.999Z</time></trkpt><trkpt lat="42.96106867026305" lon="11.21802521815394"><ele>112.0</ele><time>2026-04-26T08:47:39.999Z</time></trkpt><trkpt lat="42.96112104528859" lon="11.217686183802849"><ele>112.0</ele><time>2026-04-26T08:47:40.999Z</time></trkpt><trkpt lat="42.961174650136414" lon="11.21734640627232"><ele>112.0</ele><time>2026-04-26T08:47:41.999Z</time></trkpt><trkpt lat="42.96122865887113" lon="11.217004336421638"><ele>112.5</ele><time>2026-04-26T08:47:42.999Z</time></trkpt><trkpt lat="42.9612830854733" lon="11.2166615644703"><ele>113.0</ele><time>2026-04-26T08:47:43.999Z</time></trkpt><trkpt lat="42.96133730715746" lon="11.216316074400572"><ele>113.0</ele><time>2026-04-26T08:47:44.999Z</time></trkpt><trkpt lat="42.961391297652256" lon="11.215972671964906"><ele>113.0</ele><time>2026-04-26T08:47:45.999Z</time></trkpt><trkpt lat="42.96144647745259" lon="11.215626678216235"><ele>113.0</ele><time>2026-04-26T08:47:46.999Z</time></trkpt><trkpt lat="42.96147612417582" lon="11.215280299068443"><ele>113.0</ele><time>2026-04-26T08:47:47.999Z</time></trkpt><trkpt lat="42.96152989718624" lon="11.214938772010337"><ele>112.0</ele><time>2026-04-26T08:47:48.999Z</time></trkpt><trkpt lat="42.96158190161382" lon="11.214603889372281"><ele>111.0</ele><time>2026-04-26T08:47:49.999Z</time></trkpt><trkpt lat="42.96164988566067" lon="11.214283344226319"><ele>111.0</ele><time>2026-04-26T08:47:50.998Z</time></trkpt><trkpt lat="42.96168660260162" lon="11.213946171228493"><ele>111.0</ele><time>2026-04-26T08:47:51.998Z</time></trkpt><trkpt lat="42.96172081324636" lon="11.213615995342737"><ele>114.0</ele><time>2026-04-26T08:47:52.998Z</time></trkpt><trkpt lat="42.96175342408237" lon="11.21328772367997"><ele>117.0</ele><time>2026-04-26T08:47:53.998Z</time></trkpt><trkpt lat="42.96176395968472" lon="11.212976096514232"><ele>118.66666666666666</ele><time>2026-04-26T08:47:54.998Z</time></trkpt><trkpt lat="42.961745261599994" lon="11.21268235661404"><ele>120.33333333333333</ele><time>2026-04-26T08:47:55.998Z</time></trkpt><trkpt lat="42.9617366720158" lon="11.212406381330823"><ele>122.0</ele><time>2026-04-26T08:47:56.998Z</time></trkpt><trkpt lat="42.96169518836586" lon="11.21212585525182"><ele>119.33333333333333</ele><time>2026-04-26T08:47:57.998Z</time></trkpt><trkpt lat="42.961671555600475" lon="11.211844834729606"><ele>116.66666666666666</ele><time>2026-04-26T08:47:58.998Z</time></trkpt><trkpt lat="42.96160889964606" lon="11.211572471221206"><ele>114.0</ele><time>2026-04-26T08:47:59.998Z</time></trkpt><trkpt lat="42.96154377894651" lon="11.211287729463525"><ele>114.0</ele><time>2026-04-26T08:48:00.998Z</time></trkpt><trkpt lat="42.96146951552975" lon="11.21101219828455"><ele>114.0</ele><time>2026-04-26T08:48:01.998Z</time></trkpt><trkpt lat="42.96139241701884" lon="11.210730690205589"><ele>114.0</ele><time>2026-04-26T08:48:02.998Z</time></trkpt><trkpt lat="42.96131663824202" lon="11.210443413038007"><ele>115.66666666666666</ele><time>2026-04-26T08:48:03.998Z</time></trkpt><trkpt lat="42.96127109311707" lon="11.210149733646633"><ele>117.33333333333333</ele><time>2026-04-26T08:48:04.998Z</time></trkpt><trkpt lat="42.96119976684762" lon="11.209860061005509"><ele>119.0</ele><time>2026-04-26T08:48:05.998Z</time></trkpt><trkpt lat="42.961117612091755" lon="11.209572040467988"><ele>121.0</ele><time>2026-04-26T08:48:06.998Z</time></trkpt><trkpt lat="42.96104828550195" lon="11.209285195906444"><ele>123.0</ele><time>2026-04-26T08:48:07.998Z</time></trkpt><trkpt lat="42.96097773378702" lon="11.209002900614838"><ele>125.0</ele><time>2026-04-26T08:48:08.998Z</time></trkpt><trkpt lat="42.960908786769636" lon="11.208726785347134"><ele>123.66666666666666</ele><time>2026-04-26T08:48:09.998Z</time></trkpt><trkpt lat="42.96083697768975" lon="11.208455361594464"><ele>122.33333333333334</ele><time>2026-04-26T08:48:10.998Z</time></trkpt><trkpt lat="42.96075124413892" lon="11.208199536226802"><ele>121.0</ele><time>2026-04-26T08:48:11.998Z</time></trkpt><trkpt lat="42.960627927013775" lon="11.207968666933928"><ele>121.0</ele><time>2026-04-26T08:48:12.998Z</time></trkpt><trkpt lat="42.96049573824256" lon="11.2077569192157"><ele>121.0</ele><time>2026-04-26T08:48:13.998Z</time></trkpt><trkpt lat="42.960403073664054" lon="11.207526020961947"><ele>121.0</ele><time>2026-04-26T08:48:14.998Z</time></trkpt><trkpt lat="42.960359436429684" lon="11.20728426587537"><ele>123.33333333333334</ele><time>2026-04-26T08:48:15.998Z</time></trkpt><trkpt lat="42.960336665257444" lon="11.20704600444362"><ele>125.66666666666666</ele><time>2026-04-26T08:48:16.998Z</time></trkpt><trkpt lat="42.9603074619423" lon="11.206781266237956"><ele>128.0</ele><time>2026-04-26T08:48:17.998Z</time></trkpt><trkpt lat="42.96027419305521" lon="11.206480028070791"><ele>132.0</ele><time>2026-04-26T08:48:18.998Z</time></trkpt><trkpt lat="42.96023979121302" lon="11.206156880735955"><ele>136.0</ele><time>2026-04-26T08:48:19.998Z</time></trkpt><trkpt lat="42.9602089694462" lon="11.205856287352212"><ele>137.0</ele><time>2026-04-26T08:48:20.998Z</time></trkpt><trkpt lat="42.960168191729956" lon="11.205540710048496"><ele>138.0</ele><time>2026-04-26T08:48:21.998Z</time></trkpt><trkpt lat="42.960129954264154" lon="11.205225614775376"><ele>138.0</ele><time>2026-04-26T08:48:22.998Z</time></trkpt><trkpt lat="42.960088237708256" lon="11.2049129397546"><ele>138.0</ele><time>2026-04-26T08:48:23.998Z</time></trkpt><trkpt lat="42.960046124614315" lon="11.204624256234446"><ele>138.0</ele><time>2026-04-26T08:48:24.998Z</time></trkpt><trkpt lat="42.960012329496344" lon="11.204334471075535"><ele>128.5</ele><time>2026-04-26T08:48:25.998Z</time></trkpt><trkpt lat="42.96000332312937" lon="11.20402242589296"><ele>119.0</ele><time>2026-04-26T08:48:26.998Z</time></trkpt><trkpt lat="42.960018909951785" lon="11.203716364345292"><ele>120.5</ele><time>2026-04-26T08:48:27.998Z</time></trkpt><trkpt lat="42.9600528692581" lon="11.203403248568598"><ele>122.0</ele><time>2026-04-26T08:48:28.998Z</time></trkpt><trkpt lat="42.96007548721956" lon="11.203087255557"><ele>122.0</ele><time>2026-04-26T08:48:29.998Z</time></trkpt><trkpt lat="42.96010306735841" lon="11.202779923871386"><ele>122.0</ele><time>2026-04-26T08:48:30.998Z</time></trkpt><trkpt lat="42.9601667192891" lon="11.202478629942155"><ele>121.0</ele><time>2026-04-26T08:48:31.998Z</time></trkpt><trkpt lat="42.960241397311385" lon="11.202216745698188"><ele>120.0</ele><time>2026-04-26T08:48:32.998Z</time></trkpt><trkpt lat="42.96029723024251" lon="11.201954381592595"><ele>119.0</ele><time>2026-04-26T08:48:33.998Z</time></trkpt><trkpt lat="42.960312511788395" lon="11.20168922778934"><ele>122.33333333333333</ele><time>2026-04-26T08:48:34.998Z</time></trkpt><trkpt lat="42.96029882560794" lon="11.201423688208312"><ele>125.66666666666666</ele><time>2026-04-26T08:48:35.998Z</time></trkpt><trkpt lat="42.9602501006044" lon="11.201186233654916"><ele>129.0</ele><time>2026-04-26T08:48:36.998Z</time></trkpt><trkpt lat="42.9601548878189" lon="11.200973677581564"><ele>129.0</ele><time>2026-04-26T08:48:37.998Z</time></trkpt><trkpt lat="42.96008589590302" lon="11.200717690719923"><ele>129.0</ele><time>2026-04-26T08:48:38.998Z</time></trkpt><trkpt lat="42.95998500445833" lon="11.200449269704064"><ele>129.0</ele><time>2026-04-26T08:48:39.998Z</time></trkpt><trkpt lat="42.95994153417368" lon="11.200188039811136"><ele>129.0</ele><time>2026-04-26T08:48:40.998Z</time></trkpt><trkpt lat="42.959915977884066" lon="11.199913121333637"><ele>129.0</ele><time>2026-04-26T08:48:41.998Z</time></trkpt><trkpt lat="42.95986235406783" lon="11.199629483750435"><ele>129.0</ele><time>2026-04-26T08:48:42.999Z</time></trkpt><trkpt lat="42.95984124891255" lon="11.199309936650225"><ele>130.0</ele><time>2026-04-26T08:48:43.999Z</time></trkpt><trkpt lat="42.9598159520686" lon="11.198995157610016"><ele>131.0</ele><time>2026-04-26T08:48:44.999Z</time></trkpt><trkpt lat="42.9597765070968" lon="11.198683159978446"><ele>131.0</ele><time>2026-04-26T08:48:45.999Z</time></trkpt><trkpt lat="42.959740623721494" lon="11.198380889459953"><ele>131.0</ele><time>2026-04-26T08:48:46.999Z</time></trkpt><trkpt lat="42.9596962985106" lon="11.198092501186201"><ele>131.0</ele><time>2026-04-26T08:48:47.999Z</time></trkpt><trkpt lat="42.959649129928" lon="11.197817377797447"><ele>130.33333333333331</ele><time>2026-04-26T08:48:48.999Z</time></trkpt><trkpt lat="42.95957504066999" lon="11.197538318016713"><ele>129.66666666666666</ele><time>2026-04-26T08:48:49.999Z</time></trkpt><trkpt lat="42.95948102401068" lon="11.197313118067303"><ele>129.0</ele><time>2026-04-26T08:48:50.999Z</time></trkpt><trkpt lat="42.95937885007408" lon="11.1970385000912"><ele>129.0</ele><time>2026-04-26T08:48:52Z</time></trkpt><trkpt lat="42.95925840032566" lon="11.19677332897528"><ele>129.0</ele><time>2026-04-26T08:48:53Z</time></trkpt><trkpt lat="42.95918199150354" lon="11.196510929048683"><ele>129.0</ele><time>2026-04-26T08:48:54Z</time></trkpt><trkpt lat="42.959128739481635" lon="11.196231031886068"><ele>127.33333333333334</ele><time>2026-04-26T08:48:55Z</time></trkpt><trkpt lat="42.95907133208447" lon="11.195934128906119"><ele>125.66666666666667</ele><time>2026-04-26T08:48:56Z</time></trkpt><trkpt lat="42.95901148341969" lon="11.195641314141573"><ele>124.0</ele><time>2026-04-26T08:48:57Z</time></trkpt><trkpt lat="42.95895770169459" lon="11.195340366736117"><ele>124.0</ele><time>2026-04-26T08:48:58Z</time></trkpt><trkpt lat="42.95890160134729" lon="11.195070244871394"><ele>124.0</ele><time>2026-04-26T08:48:59Z</time></trkpt><trkpt lat="42.95884944479299" lon="11.194819041532963"><ele>124.0</ele><time>2026-04-26T08:49:00Z</time></trkpt><trkpt lat="42.958797731170904" lon="11.194561710848877"><ele>124.33333333333334</ele><time>2026-04-26T08:49:01Z</time></trkpt><trkpt lat="42.958763732975015" lon="11.1942945628462"><ele>124.66666666666666</ele><time>2026-04-26T08:49:02Z</time></trkpt><trkpt lat="42.95876779212754" lon="11.194020040241755"><ele>125.0</ele><time>2026-04-26T08:49:03Z</time></trkpt><trkpt lat="42.958796523221544" lon="11.193725780660642"><ele>125.0</ele><time>2026-04-26T08:49:04Z</time></trkpt><trkpt lat="42.95883759337249" lon="11.193436813956595"><ele>125.0</ele><time>2026-04-26T08:49:05Z</time></trkpt><trkpt lat="42.95884674191474" lon="11.193137543342665"><ele>125.0</ele><time>2026-04-26T08:49:06Z</time></trkpt><trkpt lat="42.95885393100451" lon="11.192855324091706"><ele>124.66666666666666</ele><time>2026-04-26T08:49:07Z</time></trkpt><trkpt lat="42.95887588862636" lon="11.192590781170523"><ele>124.33333333333334</ele><time>2026-04-26T08:49:08Z</time></trkpt><trkpt lat="42.95892360438831" lon="11.192360867227038"><ele>124.0</ele><time>2026-04-26T08:49:09Z</time></trkpt><trkpt lat="42.959022740076094" lon="11.192196668607952"><ele>124.0</ele><time>2026-04-26T08:49:10Z</time></trkpt><trkpt lat="42.959168296617015" lon="11.192034718056583"><ele>124.0</ele><time>2026-04-26T08:49:11Z</time></trkpt><trkpt lat="42.959340872874066" lon="11.1918975480006"><ele>124.0</ele><time>2026-04-26T08:49:11.999Z</time></trkpt><trkpt lat="42.95950767638345" lon="11.19185283617007"><ele>124.66666666666667</ele><time>2026-04-26T08:49:12.999Z</time></trkpt><trkpt lat="42.959673814619975" lon="11.191733236012706"><ele>125.33333333333334</ele><time>2026-04-26T08:49:13.999Z</time></trkpt><trkpt lat="42.9598491985698" lon="11.191601926118286"><ele>126.0</ele><time>2026-04-26T08:49:14.999Z</time></trkpt><trkpt lat="42.96002622024204" lon="11.191466204375846"><ele>128.0</ele><time>2026-04-26T08:49:15.999Z</time></trkpt><trkpt lat="42.96020509837534" lon="11.191330232055835"><ele>130.0</ele><time>2026-04-26T08:49:16.999Z</time></trkpt><trkpt lat="42.960386436546095" lon="11.191198762894759"><ele>132.0</ele><time>2026-04-26T08:49:17.999Z</time></trkpt><trkpt lat="42.96057167284203" lon="11.191060867864456"><ele>132.0</ele><time>2026-04-26T08:49:18.999Z</time></trkpt><trkpt lat="42.96075805071191" lon="11.19092099709016"><ele>132.0</ele><time>2026-04-26T08:49:19.999Z</time></trkpt><trkpt lat="42.96094475145066" lon="11.190779976978208"><ele>132.0</ele><time>2026-04-26T08:49:20.999Z</time></trkpt><trkpt lat="42.96113623770501" lon="11.190633161866861"><ele>133.33333333333334</ele><time>2026-04-26T08:49:21.999Z</time></trkpt><trkpt lat="42.961323340009635" lon="11.190486087881904"><ele>134.66666666666669</ele><time>2026-04-26T08:49:22.999Z</time></trkpt><trkpt lat="42.96151887919104" lon="11.1903370978881"><ele>136.0</ele><time>2026-04-26T08:49:23.999Z</time></trkpt><trkpt lat="42.96171781799229" lon="11.190184049655121"><ele>136.0</ele><time>2026-04-26T08:49:24.999Z</time></trkpt><trkpt lat="42.96192056522026" lon="11.190034869023556"><ele>136.0</ele><time>2026-04-26T08:49:25.999Z</time></trkpt><trkpt lat="42.962127549664075" lon="11.189879438873295"><ele>137.5</ele><time>2026-04-26T08:49:26.999Z</time></trkpt><trkpt lat="42.962334913700666" lon="11.189719042560023"><ele>139.0</ele><time>2026-04-26T08:49:27.999Z</time></trkpt><trkpt lat="42.962545394666584" lon="11.189557772785712"><ele>139.5</ele><time>2026-04-26T08:49:28.999Z</time></trkpt><trkpt lat="42.962755255477695" lon="11.18939263908316"><ele>140.0</ele><time>2026-04-26T08:49:29.999Z</time></trkpt><trkpt lat="42.962967170419006" lon="11.189228030345578"><ele>140.0</ele><time>2026-04-26T08:49:30.999Z</time></trkpt><trkpt lat="42.963178797242634" lon="11.18906100905611"><ele>140.0</ele><time>2026-04-26T08:49:31.999Z</time></trkpt><trkpt lat="42.963391053700406" lon="11.188891987574154"><ele>142.5</ele><time>2026-04-26T08:49:32.999Z</time></trkpt><trkpt lat="42.96360240654462" lon="11.188726187758602"><ele>145.0</ele><time>2026-04-26T08:49:33.999Z</time></trkpt><trkpt lat="42.9638145555838" lon="11.188560870842432"><ele>145.0</ele><time>2026-04-26T08:49:34.999Z</time></trkpt><trkpt lat="42.964025430023426" lon="11.188397781363037"><ele>145.0</ele><time>2026-04-26T08:49:35.999Z</time></trkpt><trkpt lat="42.96423421847684" lon="11.188237788596204"><ele>148.0</ele><time>2026-04-26T08:49:36.999Z</time></trkpt><trkpt lat="42.96444054543227" lon="11.188077373289202"><ele>151.0</ele><time>2026-04-26T08:49:37.999Z</time></trkpt><trkpt lat="42.9646457120207" lon="11.18791976923789"><ele>151.0</ele><time>2026-04-26T08:49:38.999Z</time></trkpt><trkpt lat="42.96484976256808" lon="11.187765773970861"><ele>151.0</ele><time>2026-04-26T08:49:39.999Z</time></trkpt><trkpt lat="42.96505971156784" lon="11.187645361667016"><ele>151.66666666666669</ele><time>2026-04-26T08:49:40.999Z</time></trkpt><trkpt lat="42.965263159826364" lon="11.187554315909686"><ele>152.33333333333334</ele><time>2026-04-26T08:49:41.999Z</time></trkpt><trkpt lat="42.96542381201636" lon="11.187437693951958"><ele>153.0</ele><time>2026-04-26T08:49:42.999Z</time></trkpt><trkpt lat="42.9655547187331" lon="11.187281849470107"><ele>155.0</ele><time>2026-04-26T08:49:43.999Z</time></trkpt><trkpt lat="42.96566734888401" lon="11.187066771808654"><ele>157.0</ele><time>2026-04-26T08:49:44.999Z</time></trkpt><trkpt lat="42.96573233850272" lon="11.186831606180075"><ele>159.0</ele><time>2026-04-26T08:49:45.999Z</time></trkpt><trkpt lat="42.96582637055234" lon="11.186612534003695"><ele>162.0</ele><time>2026-04-26T08:49:46.999Z</time></trkpt><trkpt lat="42.96595668305623" lon="11.186421159922345"><ele>165.0</ele><time>2026-04-26T08:49:47.999Z</time></trkpt><trkpt lat="42.96609954430048" lon="11.186256415717613"><ele>168.0</ele><time>2026-04-26T08:49:48.999Z</time></trkpt><trkpt lat="42.96622951525105" lon="11.18605936819226"><ele>168.0</ele><time>2026-04-26T08:49:49.999Z</time></trkpt><trkpt lat="42.9664097644822" lon="11.185891790779934"><ele>168.0</ele><time>2026-04-26T08:49:50.999Z</time></trkpt><trkpt lat="42.96658787588855" lon="11.18574509540506"><ele>168.0</ele><time>2026-04-26T08:49:51.999Z</time></trkpt><trkpt lat="42.966749166948375" lon="11.18558218112929"><ele>167.0</ele><time>2026-04-26T08:49:52.999Z</time></trkpt><trkpt lat="42.96692080842991" lon="11.185444713946277"><ele>166.0</ele><time>2026-04-26T08:49:53.999Z</time></trkpt><trkpt lat="42.96710895505478" lon="11.185372462767425"><ele>165.0</ele><time>2026-04-26T08:49:54.999Z</time></trkpt><trkpt lat="42.96730973403374" lon="11.185336440695503"><ele>165.0</ele><time>2026-04-26T08:49:55.999Z</time></trkpt><trkpt lat="42.967520545432734" lon="11.18533200198339"><ele>165.0</ele><time>2026-04-26T08:49:56.999Z</time></trkpt><trkpt lat="42.967728231169836" lon="11.185358173885053"><ele>165.0</ele><time>2026-04-26T08:49:57.999Z</time></trkpt><trkpt lat="42.96792234601785" lon="11.185425312046107"><ele>165.33333333333334</ele><time>2026-04-26T08:49:58.999Z</time></trkpt><trkpt lat="42.968106305571624" lon="11.185531751927936"><ele>165.66666666666669</ele><time>2026-04-26T08:49:59.999Z</time></trkpt><trkpt lat="42.96829227623119" lon="11.185662899518835"><ele>166.0</ele><time>2026-04-26T08:50:00.999Z</time></trkpt><trkpt lat="42.968474568142526" lon="11.185781172458132"><ele>168.33333333333334</ele><time>2026-04-26T08:50:01.999Z</time></trkpt><trkpt lat="42.96866211154171" lon="11.185913159209077"><ele>170.66666666666666</ele><time>2026-04-26T08:50:02.999Z</time></trkpt><trkpt lat="42.968850768151135" lon="11.186052651234661"><ele>173.0</ele><time>2026-04-26T08:50:03.999Z</time></trkpt><trkpt lat="42.969054361281444" lon="11.18616499475486"><ele>173.33333333333331</ele><time>2026-04-26T08:50:04.999Z</time></trkpt><trkpt lat="42.96925025434776" lon="11.18629232391647"><ele>173.66666666666666</ele><time>2026-04-26T08:50:05.999Z</time></trkpt><trkpt lat="42.96943870143412" lon="11.186415845961967"><ele>174.0</ele><time>2026-04-26T08:50:06.999Z</time></trkpt><trkpt lat="42.96962676848125" lon="11.186542478489764"><ele>176.66666666666666</ele><time>2026-04-26T08:50:07.999Z</time></trkpt><trkpt lat="42.96981502254504" lon="11.186677525669564"><ele>179.33333333333331</ele><time>2026-04-26T08:50:08.999Z</time></trkpt><trkpt lat="42.969998358977186" lon="11.186824415740336"><ele>182.0</ele><time>2026-04-26T08:50:09.999Z</time></trkpt><trkpt lat="42.970182081477404" lon="11.186962376088106"><ele>182.0</ele><time>2026-04-26T08:50:10.999Z</time></trkpt><trkpt lat="42.970373766852745" lon="11.187083031455062"><ele>182.0</ele><time>2026-04-26T08:50:11.999Z</time></trkpt><trkpt lat="42.970573404186126" lon="11.187175106415472"><ele>182.0</ele><time>2026-04-26T08:50:12.999Z</time></trkpt><trkpt lat="42.970778329209544" lon="11.187217607217296"><ele>185.0</ele><time>2026-04-26T08:50:13.998Z</time></trkpt><trkpt lat="42.97098344671407" lon="11.18721549056329"><ele>188.0</ele><time>2026-04-26T08:50:14.998Z</time></trkpt><trkpt lat="42.971181415955755" lon="11.187159963426696"><ele>191.0</ele><time>2026-04-26T08:50:15.998Z</time></trkpt><trkpt lat="42.97137357923072" lon="11.187047923618058"><ele>191.0</ele><time>2026-04-26T08:50:16.998Z</time></trkpt><trkpt lat="42.97154782135535" lon="11.18692326801423"><ele>191.0</ele><time>2026-04-26T08:50:17.998Z</time></trkpt><trkpt lat="42.9717365002538" lon="11.186819411211559"><ele>191.0</ele><time>2026-04-26T08:50:18.998Z</time></trkpt><trkpt lat="42.971923156875384" lon="11.186710659659608"><ele>193.66666666666666</ele><time>2026-04-26T08:50:19.998Z</time></trkpt><trkpt lat="42.97210126159061" lon="11.18657445907509"><ele>196.33333333333331</ele><time>2026-04-26T08:50:20.998Z</time></trkpt><trkpt lat="42.97225893266948" lon="11.186403708190873"><ele>199.0</ele><time>2026-04-26T08:50:21.998Z</time></trkpt><trkpt lat="42.97239268315778" lon="11.186206557830259"><ele>199.0</ele><time>2026-04-26T08:50:22.998Z</time></trkpt><trkpt lat="42.972501719405955" lon="11.18597113195091"><ele>199.0</ele><time>2026-04-26T08:50:23.998Z</time></trkpt><trkpt lat="42.97259044166197" lon="11.185715216162839"><ele>199.0</ele><time>2026-04-26T08:50:24.998Z</time></trkpt><trkpt lat="42.97265574572177" lon="11.185437633076805"><ele>203.66666666666666</ele><time>2026-04-26T08:50:25.998Z</time></trkpt><trkpt lat="42.972711485103396" lon="11.185152837423468"><ele>208.33333333333331</ele><time>2026-04-26T08:50:26.998Z</time></trkpt><trkpt lat="42.97277163619776" lon="11.184867680370044"><ele>213.0</ele><time>2026-04-26T08:50:27.998Z</time></trkpt><trkpt lat="42.97283935408861" lon="11.18458612854216"><ele>213.0</ele><time>2026-04-26T08:50:28.998Z</time></trkpt><trkpt lat="42.972907154934184" lon="11.184312636984863"><ele>213.0</ele><time>2026-04-26T08:50:29.998Z</time></trkpt><trkpt lat="42.972967279347635" lon="11.184043825211049"><ele>213.0</ele><time>2026-04-26T08:50:30.998Z</time></trkpt><trkpt lat="42.97303358068521" lon="11.18379544498085"><ele>213.0</ele><time>2026-04-26T08:50:31.998Z</time></trkpt><trkpt lat="42.97313105692966" lon="11.183560593735063"><ele>213.0</ele><time>2026-04-26T08:50:32.998Z</time></trkpt><trkpt lat="42.97325899831973" lon="11.183353115296116"><ele>213.0</ele><time>2026-04-26T08:50:33.998Z</time></trkpt><trkpt lat="42.97340597548404" lon="11.183180160060381"><ele>213.0</ele><time>2026-04-26T08:50:34.998Z</time></trkpt><trkpt lat="42.97357557495913" lon="11.18305206911229"><ele>213.0</ele><time>2026-04-26T08:50:35.998Z</time></trkpt><trkpt lat="42.97375847844334" lon="11.182973521907666"><ele>213.0</ele><time>2026-04-26T08:50:36.998Z</time></trkpt><trkpt lat="42.97395080870325" lon="11.182941143509618"><ele>213.0</ele><time>2026-04-26T08:50:37.998Z</time></trkpt><trkpt lat="42.97415088176143" lon="11.182951178792694"><ele>213.0</ele><time>2026-04-26T08:50:38.998Z</time></trkpt><trkpt lat="42.97434279947267" lon="11.182977949568736"><ele>213.0</ele><time>2026-04-26T08:50:39.998Z</time></trkpt><trkpt lat="42.97454453152403" lon="11.182991038300672"><ele>214.33333333333331</ele><time>2026-04-26T08:50:40.998Z</time></trkpt><trkpt lat="42.97475353540538" lon="11.182999072126467"><ele>215.66666666666666</ele><time>2026-04-26T08:50:41.998Z</time></trkpt><trkpt lat="42.974967390981476" lon="11.18300321775866"><ele>217.0</ele><time>2026-04-26T08:50:42.998Z</time></trkpt><trkpt lat="42.97518543121087" lon="11.183006654411253"><ele>214.0</ele><time>2026-04-26T08:50:43.998Z</time></trkpt><trkpt lat="42.9753969997616" lon="11.18301398399531"><ele>211.0</ele><time>2026-04-26T08:50:44.998Z</time></trkpt><trkpt lat="42.9756059111099" lon="11.183048042912004"><ele>208.0</ele><time>2026-04-26T08:50:45.998Z</time></trkpt><trkpt lat="42.975808491610564" lon="11.183079095816051"><ele>205.33333333333331</ele><time>2026-04-26T08:50:46.998Z</time></trkpt><trkpt lat="42.97600471072355" lon="11.183085008940528"><ele>202.66666666666669</ele><time>2026-04-26T08:50:47.998Z</time></trkpt><trkpt lat="42.976205749538785" lon="11.183082868984107"><ele>200.0</ele><time>2026-04-26T08:50:49Z</time></trkpt><trkpt lat="42.97640796691154" lon="11.183098358089502"><ele>200.0</ele><time>2026-04-26T08:50:50Z</time></trkpt><trkpt lat="42.9766043484864" lon="11.183110773788586"><ele>200.0</ele><time>2026-04-26T08:50:51Z</time></trkpt><trkpt lat="42.97679363558965" lon="11.18312134487043"><ele>200.0</ele><time>2026-04-26T08:50:52Z</time></trkpt><trkpt lat="42.97697471772128" lon="11.18313050005811"><ele>197.66666666666669</ele><time>2026-04-26T08:50:53Z</time></trkpt><trkpt lat="42.97714255140824" lon="11.183136502895678"><ele>195.33333333333331</ele><time>2026-04-26T08:50:54Z</time></trkpt><trkpt lat="42.97730107137222" lon="11.183136899375612"><ele>193.0</ele><time>2026-04-26T08:50:55Z</time></trkpt><trkpt lat="42.97746504516609" lon="11.183127404277325"><ele>194.0</ele><time>2026-04-26T08:50:56Z</time></trkpt><trkpt lat="42.9776369553594" lon="11.183113358884754"><ele>195.0</ele><time>2026-04-26T08:50:57Z</time></trkpt><trkpt lat="42.97781492976306" lon="11.183095213543112"><ele>196.0</ele><time>2026-04-26T08:50:58Z</time></trkpt><trkpt lat="42.97799768085372" lon="11.183071372782337"><ele>196.0</ele><time>2026-04-26T08:50:59Z</time></trkpt><trkpt lat="42.97818779804723" lon="11.183047356940746"><ele>196.0</ele><time>2026-04-26T08:51:00Z</time></trkpt><trkpt lat="42.97837974899675" lon="11.183026104097939"><ele>196.0</ele><time>2026-04-26T08:51:01Z</time></trkpt><trkpt lat="42.978574493674955" lon="11.183008768142797"><ele>197.66666666666666</ele><time>2026-04-26T08:51:02Z</time></trkpt><trkpt lat="42.97877366609312" lon="11.182993284161384"><ele>199.33333333333331</ele><time>2026-04-26T08:51:03Z</time></trkpt><trkpt lat="42.97897465856388" lon="11.182981176336948"><ele>201.0</ele><time>2026-04-26T08:51:04Z</time></trkpt><trkpt lat="42.97917480270316" lon="11.182969843303134"><ele>202.66666666666669</ele><time>2026-04-26T08:51:05Z</time></trkpt><trkpt lat="42.97938088498517" lon="11.182972712043917"><ele>204.33333333333334</ele><time>2026-04-26T08:51:06Z</time></trkpt><trkpt lat="42.979582734129416" lon="11.182999704584333"><ele>206.0</ele><time>2026-04-26T08:51:07Z</time></trkpt><trkpt lat="42.979781124619976" lon="11.183023561370304"><ele>206.0</ele><time>2026-04-26T08:51:08Z</time></trkpt><trkpt lat="42.97998054155283" lon="11.18303315460616"><ele>206.0</ele><time>2026-04-26T08:51:09Z</time></trkpt><trkpt lat="42.980186116168106" lon="11.183058439655097"><ele>206.0</ele><time>2026-04-26T08:51:10Z</time></trkpt><trkpt lat="42.98038970946269" lon="11.1830858251423"><ele>207.0</ele><time>2026-04-26T08:51:11Z</time></trkpt><trkpt lat="42.980592273738644" lon="11.18311619860019"><ele>208.0</ele><time>2026-04-26T08:51:12Z</time></trkpt><trkpt lat="42.980795758130476" lon="11.183137533999732"><ele>209.0</ele><time>2026-04-26T08:51:13Z</time></trkpt><trkpt lat="42.98099274040167" lon="11.183164636048838"><ele>211.66666666666669</ele><time>2026-04-26T08:51:14Z</time></trkpt><trkpt lat="42.98120531944098" lon="11.183185205883147"><ele>214.33333333333331</ele><time>2026-04-26T08:51:15Z</time></trkpt><trkpt lat="42.9814067521559" lon="11.183181225340753"><ele>217.0</ele><time>2026-04-26T08:51:16Z</time></trkpt><trkpt lat="42.981601327352735" lon="11.183135896196802"><ele>219.66666666666666</ele><time>2026-04-26T08:51:17Z</time></trkpt><trkpt lat="42.981786742515375" lon="11.183057427029773"><ele>222.33333333333331</ele><time>2026-04-26T08:51:18Z</time></trkpt><trkpt lat="42.9819679536785" lon="11.182951467292076"><ele>225.0</ele><time>2026-04-26T08:51:19Z</time></trkpt><trkpt lat="42.98214827008759" lon="11.182825306887603"><ele>225.0</ele><time>2026-04-26T08:51:20Z</time></trkpt><trkpt lat="42.982335501958325" lon="11.182719585484826"><ele>225.0</ele><time>2026-04-26T08:51:21Z</time></trkpt><trkpt lat="42.982527480859176" lon="11.182634739758324"><ele>225.0</ele><time>2026-04-26T08:51:22Z</time></trkpt><trkpt lat="42.98271072581617" lon="11.182581110295473"><ele>227.66666666666669</ele><time>2026-04-26T08:51:23Z</time></trkpt><trkpt lat="42.98288362667067" lon="11.182559646591743"><ele>230.33333333333334</ele><time>2026-04-26T08:51:24Z</time></trkpt><trkpt lat="42.983056419547445" lon="11.182595150973615"><ele>233.0</ele><time>2026-04-26T08:51:25Z</time></trkpt><trkpt lat="42.98319679103564" lon="11.18267738995604"><ele>233.0</ele><time>2026-04-26T08:51:26Z</time></trkpt><trkpt lat="42.98330805605014" lon="11.18277586916323"><ele>233.0</ele><time>2026-04-26T08:51:27Z</time></trkpt><trkpt lat="42.98345310323795" lon="11.182835410033075"><ele>233.0</ele><time>2026-04-26T08:51:28Z</time></trkpt><trkpt lat="42.983612677440185" lon="11.18284254745652"><ele>233.0</ele><time>2026-04-26T08:51:29Z</time></trkpt><trkpt lat="42.98377292415127" lon="11.182792706450083"><ele>233.33333333333334</ele><time>2026-04-26T08:51:30Z</time></trkpt><trkpt lat="42.983923309222305" lon="11.182679867030133"><ele>233.66666666666669</ele><time>2026-04-26T08:51:30.999Z</time></trkpt><trkpt lat="42.98406549896685" lon="11.182520011489327"><ele>234.0</ele><time>2026-04-26T08:51:31.999Z</time></trkpt><trkpt lat="42.98417766677413" lon="11.182311137177411"><ele>238.33333333333331</ele><time>2026-04-26T08:51:32.999Z</time></trkpt><trkpt lat="42.98422095475334" lon="11.1821444630057"><ele>242.66666666666666</ele><time>2026-04-26T08:51:33.999Z</time></trkpt><trkpt lat="42.984294257065" lon="11.181986618692175"><ele>247.0</ele><time>2026-04-26T08:51:34.999Z</time></trkpt><trkpt lat="42.98455407979845" lon="11.18252064265919"><ele>247.0</ele><time>2026-04-26T08:51:35.999Z</time></trkpt><trkpt lat="42.98466777511035" lon="11.182325504849855"><ele>247.0</ele><time>2026-04-26T08:51:36.999Z</time></trkpt><trkpt lat="42.98478840650167" lon="11.182138075495185"><ele>247.0</ele><time>2026-04-26T08:51:37.999Z</time></trkpt><trkpt lat="42.98492125925882" lon="11.1819512682267"><ele>251.0</ele><time>2026-04-26T08:51:38.999Z</time></trkpt><trkpt lat="42.98505849296489" lon="11.181767259564271"><ele>255.0</ele><time>2026-04-26T08:51:39.999Z</time></trkpt><trkpt lat="42.985200718754875" lon="11.181585963726015"><ele>259.0</ele><time>2026-04-26T08:51:40.999Z</time></trkpt><trkpt lat="42.98533529657207" lon="11.181396614892332"><ele>259.0</ele><time>2026-04-26T08:51:41.999Z</time></trkpt><trkpt lat="42.98545863987038" lon="11.181190520627027"><ele>259.0</ele><time>2026-04-26T08:51:42.999Z</time></trkpt><trkpt lat="42.985570293377506" lon="11.18096930853157"><ele>259.0</ele><time>2026-04-26T08:51:43.999Z</time></trkpt><trkpt lat="42.985688118965854" lon="11.180758183694474"><ele>257.66666666666663</ele><time>2026-04-26T08:51:44.999Z</time></trkpt><trkpt lat="42.985806098864735" lon="11.180554477278132"><ele>256.3333333333333</ele><time>2026-04-26T08:51:45.999Z</time></trkpt><trkpt lat="42.98591731059227" lon="11.180341101748162"><ele>255.0</ele><time>2026-04-26T08:51:46.999Z</time></trkpt><trkpt lat="42.986017272599014" lon="11.18011524721934"><ele>259.0</ele><time>2026-04-26T08:51:47.999Z</time></trkpt><trkpt lat="42.986105866757235" lon="11.179879712047919"><ele>263.0</ele><time>2026-04-26T08:51:48.999Z</time></trkpt><trkpt lat="42.98618563914061" lon="11.179638413879232"><ele>267.0</ele><time>2026-04-26T08:51:49.999Z</time></trkpt><trkpt lat="42.98626199216533" lon="11.17939360780325"><ele>267.0</ele><time>2026-04-26T08:51:50.999Z</time></trkpt><trkpt lat="42.98635202548382" lon="11.179154429198999"><ele>267.0</ele><time>2026-04-26T08:51:51.999Z</time></trkpt><trkpt lat="42.986453797654995" lon="11.178924905477789"><ele>267.0</ele><time>2026-04-26T08:51:52.999Z</time></trkpt><trkpt lat="42.98657919916347" lon="11.178721987883568"><ele>271.0</ele><time>2026-04-26T08:51:53.999Z</time></trkpt><trkpt lat="42.98669599597706" lon="11.178513250884084"><ele>275.0</ele><time>2026-04-26T08:51:54.999Z</time></trkpt><trkpt lat="42.986797039683616" lon="11.17829663828282"><ele>279.0</ele><time>2026-04-26T08:51:55.999Z</time></trkpt><trkpt lat="42.98687854958863" lon="11.178057896903276"><ele>279.0</ele><time>2026-04-26T08:51:56.999Z</time></trkpt><trkpt lat="42.986926532306" lon="11.177813854462464"><ele>279.0</ele><time>2026-04-26T08:51:57.999Z</time></trkpt><trkpt lat="42.98693597878407" lon="11.177581016858005"><ele>279.0</ele><time>2026-04-26T08:51:58.999Z</time></trkpt><trkpt lat="42.98696225551237" lon="11.177341964962304"><ele>278.0</ele><time>2026-04-26T08:51:59.999Z</time></trkpt><trkpt lat="42.98701308667259" lon="11.177112081532627"><ele>277.0</ele><time>2026-04-26T08:52:00.999Z</time></trkpt><trkpt lat="42.987097340772756" lon="11.176898303405558"><ele>276.0</ele><time>2026-04-26T08:52:01.999Z</time></trkpt><trkpt lat="42.98720787038112" lon="11.176700490734696"><ele>276.0</ele><time>2026-04-26T08:52:02.999Z</time></trkpt><trkpt lat="42.987349321708166" lon="11.176521142149172"><ele>276.0</ele><time>2026-04-26T08:52:03.999Z</time></trkpt><trkpt lat="42.98748908644429" lon="11.17635507529135"><ele>276.0</ele><time>2026-04-26T08:52:04.999Z</time></trkpt><trkpt lat="42.9876245728121" lon="11.176194943718967"><ele>278.0</ele><time>2026-04-26T08:52:05.999Z</time></trkpt><trkpt lat="42.98777050906702" lon="11.176018318379697"><ele>280.0</ele><time>2026-04-26T08:52:06.999Z</time></trkpt><trkpt lat="42.98791199502329" lon="11.175833363351789"><ele>282.0</ele><time>2026-04-26T08:52:07.999Z</time></trkpt><trkpt lat="42.988051755888" lon="11.175642371562269"><ele>282.3333333333333</ele><time>2026-04-26T08:52:08.999Z</time></trkpt><trkpt lat="42.98817532670071" lon="11.175441540790864"><ele>282.66666666666663</ele><time>2026-04-26T08:52:09.999Z</time></trkpt><trkpt lat="42.98827591832487" lon="11.175221188169019"><ele>283.0</ele><time>2026-04-26T08:52:10.999Z</time></trkpt><trkpt lat="42.988347727740724" lon="11.175008057611699"><ele>286.0</ele><time>2026-04-26T08:52:11.999Z</time></trkpt><trkpt lat="42.988391137864575" lon="11.174798612648743"><ele>289.0</ele><time>2026-04-26T08:52:12.999Z</time></trkpt><trkpt lat="42.98841094940068" lon="11.174586601643137"><ele>292.0</ele><time>2026-04-26T08:52:13.999Z</time></trkpt><trkpt lat="42.98840152548788" lon="11.174371075491296"><ele>292.0</ele><time>2026-04-26T08:52:14.999Z</time></trkpt><trkpt lat="42.9883813111992" lon="11.174162548774673"><ele>292.0</ele><time>2026-04-26T08:52:15.999Z</time></trkpt><trkpt lat="42.98838870946064" lon="11.173980355506645"><ele>292.0</ele><time>2026-04-26T08:52:16.999Z</time></trkpt><trkpt lat="42.988430912694135" lon="11.173826405885002"><ele>292.0</ele><time>2026-04-26T08:52:17.999Z</time></trkpt><trkpt lat="42.988523348981346" lon="11.173736961417216"><ele>290.66666666666663</ele><time>2026-04-26T08:52:18.999Z</time></trkpt><trkpt lat="42.98864598699419" lon="11.173696800192383"><ele>289.3333333333333</ele><time>2026-04-26T08:52:19.999Z</time></trkpt><trkpt lat="42.98881107325864" lon="11.17366905799652"><ele>288.0</ele><time>2026-04-26T08:52:20.999Z</time></trkpt><trkpt lat="42.98897274489251" lon="11.173621925218779"><ele>288.0</ele><time>2026-04-26T08:52:21.999Z</time></trkpt><trkpt lat="42.989121902045206" lon="11.173567580834012"><ele>288.0</ele><time>2026-04-26T08:52:22.999Z</time></trkpt><trkpt lat="42.989292398993264" lon="11.173506122311752"><ele>288.0</ele><time>2026-04-26T08:52:23.999Z</time></trkpt><trkpt lat="42.98945446929759" lon="11.17342759744102"><ele>292.3333333333333</ele><time>2026-04-26T08:52:24.999Z</time></trkpt><trkpt lat="42.9895857261448" lon="11.173284887713692"><ele>296.66666666666663</ele><time>2026-04-26T08:52:25.999Z</time></trkpt><trkpt lat="42.989665121616625" lon="11.173037820235656"><ele>301.0</ele><time>2026-04-26T08:52:26.999Z</time></trkpt><trkpt lat="42.98974547374711" lon="11.172838472398068"><ele>302.0</ele><time>2026-04-26T08:52:27.999Z</time></trkpt><trkpt lat="42.98978607555169" lon="11.172571671147276"><ele>303.0</ele><time>2026-04-26T08:52:28.999Z</time></trkpt><trkpt lat="42.98983474242602" lon="11.172348659264035"><ele>304.0</ele><time>2026-04-26T08:52:29.998Z</time></trkpt><trkpt lat="42.98988177165681" lon="11.172089031259079"><ele>304.0</ele><time>2026-04-26T08:52:30.998Z</time></trkpt><trkpt lat="42.98993811746602" lon="11.171837191916978"><ele>304.0</ele><time>2026-04-26T08:52:31.998Z</time></trkpt><trkpt lat="42.98997162078875" lon="11.171672625409043"><ele>304.0</ele><time>2026-04-26T08:52:32.998Z</time></trkpt><trkpt lat="42.990063044519104" lon="11.171497655273773"><ele>304.75</ele><time>2026-04-26T08:52:33.998Z</time></trkpt><trkpt lat="42.990171479870206" lon="11.171376335092532"><ele>305.5</ele><time>2026-04-26T08:52:34.998Z</time></trkpt><trkpt lat="42.99026637837284" lon="11.171218069468908"><ele>306.25</ele><time>2026-04-26T08:52:35.998Z</time></trkpt><trkpt lat="42.99039766347689" lon="11.171100148312116"><ele>307.0</ele><time>2026-04-26T08:52:36.998Z</time></trkpt><trkpt lat="42.99052110969966" lon="11.170987120684234"><ele>307.0</ele><time>2026-04-26T08:52:37.998Z</time></trkpt><trkpt lat="42.99068164112855" lon="11.170914040858737"><ele>307.0</ele><time>2026-04-26T08:52:38.998Z</time></trkpt><trkpt lat="42.99084579908763" lon="11.170872400154591"><ele>307.0</ele><time>2026-04-26T08:52:39.998Z</time></trkpt><trkpt lat="42.99099721326154" lon="11.170848230337267"><ele>304.75</ele><time>2026-04-26T08:52:40.998Z</time></trkpt><trkpt lat="42.99112699662154" lon="11.170838236654113"><ele>302.5</ele><time>2026-04-26T08:52:41.998Z</time></trkpt><trkpt lat="42.99123964786469" lon="11.170867962884564"><ele>300.25</ele><time>2026-04-26T08:52:42.998Z</time></trkpt><trkpt lat="42.991321610630166" lon="11.170988416410932"><ele>298.0</ele><time>2026-04-26T08:52:43.998Z</time></trkpt><trkpt lat="42.99133111708457" lon="11.171147337519935"><ele>298.0</ele><time>2026-04-26T08:52:44.998Z</time></trkpt><trkpt lat="42.99132879388258" lon="11.17130353759079"><ele>298.0</ele><time>2026-04-26T08:52:45.998Z</time></trkpt><trkpt lat="42.99132094471353" lon="11.171472872281885"><ele>298.0</ele><time>2026-04-26T08:52:46.998Z</time></trkpt><trkpt lat="42.99135038624064" lon="11.17164253511094"><ele>298.0</ele><time>2026-04-26T08:52:47.998Z</time></trkpt><trkpt lat="42.99139167592917" lon="11.17184249821472"><ele>300.66666666666663</ele><time>2026-04-26T08:52:48.998Z</time></trkpt><trkpt lat="42.99141674084692" lon="11.172101212983167"><ele>303.3333333333333</ele><time>2026-04-26T08:52:49.998Z</time></trkpt><trkpt lat="42.99142252546386" lon="11.1723495621795"><ele>306.0</ele><time>2026-04-26T08:52:50.998Z</time></trkpt><trkpt lat="42.99146137124798" lon="11.172574481261648"><ele>309.0</ele><time>2026-04-26T08:52:51.998Z</time></trkpt><trkpt lat="42.99155644741094" lon="11.172832989605086"><ele>312.0</ele><time>2026-04-26T08:52:52.998Z</time></trkpt><trkpt lat="42.9916709821961" lon="11.17302291055632"><ele>315.0</ele><time>2026-04-26T08:52:54Z</time></trkpt><trkpt lat="42.99175724454763" lon="11.173231530300601"><ele>315.3333333333333</ele><time>2026-04-26T08:52:55Z</time></trkpt><trkpt lat="42.99181934424231" lon="11.173441477294773"><ele>315.66666666666663</ele><time>2026-04-26T08:52:56Z</time></trkpt><trkpt lat="42.99189582091414" lon="11.173634774949253"><ele>316.0</ele><time>2026-04-26T08:52:57Z</time></trkpt><trkpt lat="42.99198583087978" lon="11.173809924033513"><ele>316.0</ele><time>2026-04-26T08:52:58Z</time></trkpt><trkpt lat="42.99212724344305" lon="11.173922806757407"><ele>316.0</ele><time>2026-04-26T08:52:59Z</time></trkpt><trkpt lat="42.99229519853914" lon="11.17396351279128"><ele>316.0</ele><time>2026-04-26T08:53:00Z</time></trkpt><trkpt lat="42.99246827129284" lon="11.173975291301671"><ele>317.66666666666663</ele><time>2026-04-26T08:53:01Z</time></trkpt><trkpt lat="42.992625054149144" lon="11.173996306374802"><ele>319.3333333333333</ele><time>2026-04-26T08:53:02Z</time></trkpt><trkpt lat="42.99278047413" lon="11.174018642269068"><ele>321.0</ele><time>2026-04-26T08:53:03Z</time></trkpt><trkpt lat="42.99292607471533" lon="11.174069005595861"><ele>325.5</ele><time>2026-04-26T08:53:04Z</time></trkpt><trkpt lat="42.99305006436015" lon="11.174166385089782"><ele>330.0</ele><time>2026-04-26T08:53:05Z</time></trkpt><trkpt lat="42.993154563459335" lon="11.174312691834922"><ele>334.5</ele><time>2026-04-26T08:53:06Z</time></trkpt><trkpt lat="42.993223668586594" lon="11.174438662266015"><ele>339.0</ele><time>2026-04-26T08:53:07Z</time></trkpt><trkpt lat="42.99331007624565" lon="11.174510162778063"><ele>338.1666666666667</ele><time>2026-04-26T08:53:08Z</time></trkpt><trkpt lat="42.993390250728446" lon="11.17450487188682"><ele>337.3333333333333</ele><time>2026-04-26T08:53:09Z</time></trkpt><trkpt lat="42.9934690107242" lon="11.174448588159803"><ele>336.5</ele><time>2026-04-26T08:53:10Z</time></trkpt><trkpt lat="42.993526709076534" lon="11.174337263662379"><ele>335.66666666666663</ele><time>2026-04-26T08:53:11Z</time></trkpt><trkpt lat="42.99356523911601" lon="11.174248708751266"><ele>334.8333333333333</ele><time>2026-04-26T08:53:12Z</time></trkpt><trkpt lat="42.99358702978773" lon="11.174119098523516"><ele>334.0</ele><time>2026-04-26T08:53:13Z</time></trkpt><trkpt lat="42.99362227489511" lon="11.173936347442517"><ele>334.0</ele><time>2026-04-26T08:53:14Z</time></trkpt><trkpt lat="42.993697429496706" lon="11.173786703148867"><ele>334.0</ele><time>2026-04-26T08:53:15Z</time></trkpt><trkpt lat="42.993749569684226" lon="11.173600371253315"><ele>334.0</ele><time>2026-04-26T08:53:16Z</time></trkpt><trkpt lat="42.99381722487095" lon="11.173469408124708"><ele>334.0</ele><time>2026-04-26T08:53:17Z</time></trkpt><trkpt lat="42.99393182382714" lon="11.173376372238456"><ele>334.0</ele><time>2026-04-26T08:53:18Z</time></trkpt><trkpt lat="42.99406726688289" lon="11.173424006103719"><ele>334.0</ele><time>2026-04-26T08:53:19Z</time></trkpt><trkpt lat="42.99419489106146" lon="11.173472306245108"><ele>334.0</ele><time>2026-04-26T08:53:20Z</time></trkpt><trkpt lat="42.99427738103386" lon="11.173626508022386"><ele>334.0</ele><time>2026-04-26T08:53:21Z</time></trkpt><trkpt lat="42.994389915276415" lon="11.173728904909613"><ele>337.75</ele><time>2026-04-26T08:53:22Z</time></trkpt><trkpt lat="42.99450355773154" lon="11.173784250974366"><ele>341.5</ele><time>2026-04-26T08:53:23Z</time></trkpt><trkpt lat="42.99463206620495" lon="11.173810536105139"><ele>345.25</ele><time>2026-04-26T08:53:24Z</time></trkpt><trkpt lat="42.99475254025746" lon="11.173803936308426"><ele>349.0</ele><time>2026-04-26T08:53:25Z</time></trkpt><trkpt lat="42.994876981734734" lon="11.173752508219943"><ele>359.0</ele><time>2026-04-26T08:53:26Z</time></trkpt><trkpt lat="42.99501859981256" lon="11.173656709977298"><ele>369.0</ele><time>2026-04-26T08:53:27Z</time></trkpt><trkpt lat="42.99514388527153" lon="11.173537778824606"><ele>379.0</ele><time>2026-04-26T08:53:28Z</time></trkpt><trkpt lat="42.995210645849646" lon="11.173348138839133"><ele>368.5</ele><time>2026-04-26T08:53:29Z</time></trkpt><trkpt lat="42.99531727095827" lon="11.173090730860107"><ele>358.0</ele><time>2026-04-26T08:53:30Z</time></trkpt><trkpt lat="42.995456586956294" lon="11.172821271216932"><ele>358.0</ele><time>2026-04-26T08:53:31Z</time></trkpt><trkpt lat="42.99557637672174" lon="11.172659354317183"><ele>358.0</ele><time>2026-04-26T08:53:32Z</time></trkpt><trkpt lat="42.99573515388073" lon="11.17251117068571"><ele>358.0</ele><time>2026-04-26T08:53:33Z</time></trkpt><trkpt lat="42.9958385996138" lon="11.172345871377763"><ele>355.0</ele><time>2026-04-26T08:53:34Z</time></trkpt><trkpt lat="42.99593710074029" lon="11.172163979505203"><ele>352.0</ele><time>2026-04-26T08:53:35Z</time></trkpt><trkpt lat="42.99604333331491" lon="11.172011786038365"><ele>349.0</ele><time>2026-04-26T08:53:36Z</time></trkpt><trkpt lat="42.996187312369365" lon="11.171929456012897"><ele>349.0</ele><time>2026-04-26T08:53:36.999Z</time></trkpt><trkpt lat="42.99632457111817" lon="11.171938703168761"><ele>349.0</ele><time>2026-04-26T08:53:37.999Z</time></trkpt><trkpt lat="42.996445150303444" lon="11.171984468859595"><ele>349.0</ele><time>2026-04-26T08:53:38.999Z</time></trkpt><trkpt lat="42.99654542837525" lon="11.172062824039568"><ele>349.0</ele><time>2026-04-26T08:53:39.999Z</time></trkpt><trkpt lat="42.99666290330478" lon="11.172196246646376"><ele>349.66666666666663</ele><time>2026-04-26T08:53:40.999Z</time></trkpt><trkpt lat="42.996819200314604" lon="11.17233769293015"><ele>350.3333333333333</ele><time>2026-04-26T08:53:41.999Z</time></trkpt><trkpt lat="42.99702468078436" lon="11.172445481516052"><ele>351.0</ele><time>2026-04-26T08:53:42.999Z</time></trkpt><trkpt lat="42.997268586702226" lon="11.1724536933713"><ele>353.5</ele><time>2026-04-26T08:53:43.999Z</time></trkpt><trkpt lat="42.997385817865144" lon="11.172426943787602"><ele>356.0</ele><time>2026-04-26T08:53:44.999Z</time></trkpt><trkpt lat="42.99752190499063" lon="11.172329225439695"><ele>358.5</ele><time>2026-04-26T08:53:45.999Z</time></trkpt><trkpt lat="42.997655993502995" lon="11.172209180302403"><ele>361.0</ele><time>2026-04-26T08:53:46.999Z</time></trkpt><trkpt lat="42.99778213612916" lon="11.172056247571682"><ele>361.0</ele><time>2026-04-26T08:53:47.999Z</time></trkpt><trkpt lat="42.99788846966548" lon="11.171983218152928"><ele>361.0</ele><time>2026-04-26T08:53:48.999Z</time></trkpt><trkpt lat="42.99802967410685" lon="11.171919738990743"><ele>361.0</ele><time>2026-04-26T08:53:49.999Z</time></trkpt><trkpt lat="42.99816877060207" lon="11.171824255063912"><ele>361.0</ele><time>2026-04-26T08:53:50.999Z</time></trkpt><trkpt lat="42.99833089609068" lon="11.171784855042212"><ele>360.3333333333333</ele><time>2026-04-26T08:53:51.999Z</time></trkpt><trkpt lat="42.99849796153584" lon="11.171827040486642"><ele>359.6666666666667</ele><time>2026-04-26T08:53:52.999Z</time></trkpt><trkpt lat="42.99865481416216" lon="11.171911130178596"><ele>359.0</ele><time>2026-04-26T08:53:53.999Z</time></trkpt><trkpt lat="42.998801824064735" lon="11.17201790441762"><ele>359.0</ele><time>2026-04-26T08:53:54.999Z</time></trkpt><trkpt lat="42.99897269272507" lon="11.172132262445785"><ele>359.0</ele><time>2026-04-26T08:53:55.999Z</time></trkpt><trkpt lat="42.999136117336356" lon="11.17219838727257"><ele>359.0</ele><time>2026-04-26T08:53:56.999Z</time></trkpt><trkpt lat="42.99930604126204" lon="11.172204985987594"><ele>360.33333333333337</ele><time>2026-04-26T08:53:57.999Z</time></trkpt><trkpt lat="42.99947661697274" lon="11.172190654397218"><ele>361.6666666666667</ele><time>2026-04-26T08:53:58.999Z</time></trkpt><trkpt lat="42.99966289993904" lon="11.172233611863703"><ele>363.0</ele><time>2026-04-26T08:53:59.999Z</time></trkpt><trkpt lat="42.999786595547306" lon="11.17230384785671"><ele>365.75</ele><time>2026-04-26T08:54:00.999Z</time></trkpt><trkpt lat="42.999887231029376" lon="11.172415136580305"><ele>368.5</ele><time>2026-04-26T08:54:01.999Z</time></trkpt><trkpt lat="42.99995388797147" lon="11.17251029324021"><ele>371.25</ele><time>2026-04-26T08:54:02.999Z</time></trkpt><trkpt lat="43.00002549497412" lon="11.172628777688253"><ele>374.0</ele><time>2026-04-26T08:54:03.999Z</time></trkpt><trkpt lat="43.00009784515857" lon="11.172763192793717"><ele>374.0</ele><time>2026-04-26T08:54:04.999Z</time></trkpt><trkpt lat="43.000242209661664" lon="11.173064880921164"><ele>374.0</ele><time>2026-04-26T08:54:05.999Z</time></trkpt><trkpt lat="43.000383382972785" lon="11.173252777899481"><ele>376.5</ele><time>2026-04-26T08:54:06.999Z</time></trkpt><trkpt lat="43.000497122072765" lon="11.173377568164101"><ele>379.0</ele><time>2026-04-26T08:54:07.999Z</time></trkpt><trkpt lat="43.00061066327456" lon="11.173504704791657"><ele>381.5</ele><time>2026-04-26T08:54:08.999Z</time></trkpt><trkpt lat="43.00073089519416" lon="11.173639333272959"><ele>384.0</ele><time>2026-04-26T08:54:09.999Z</time></trkpt><trkpt lat="43.00082479285986" lon="11.17374218158635"><ele>383.79999999999995</ele><time>2026-04-26T08:54:10.999Z</time></trkpt><trkpt lat="43.000913014189194" lon="11.173838538079133"><ele>383.59999999999997</ele><time>2026-04-26T08:54:11.999Z</time></trkpt><trkpt lat="43.00100242996481" lon="11.173931516827084"><ele>383.4</ele><time>2026-04-26T08:54:12.999Z</time></trkpt><trkpt lat="43.00109112291914" lon="11.174000733011523"><ele>383.2</ele><time>2026-04-26T08:54:13.999Z</time></trkpt><trkpt lat="43.00119512906889" lon="11.174042868762307"><ele>383.0</ele><time>2026-04-26T08:54:14.999Z</time></trkpt><trkpt lat="43.001291359797115" lon="11.17400054539651"><ele>383.0</ele><time>2026-04-26T08:54:15.999Z</time></trkpt><trkpt lat="43.00136806822374" lon="11.173978623272202"><ele>383.0</ele><time>2026-04-26T08:54:16.999Z</time></trkpt><trkpt lat="43.001426818281004" lon="11.173898352960407"><ele>383.0</ele><time>2026-04-26T08:54:17.999Z</time></trkpt><trkpt lat="43.00148801244099" lon="11.173784904554037"><ele>383.0</ele><time>2026-04-26T08:54:18.999Z</time></trkpt><trkpt lat="43.00154481591171" lon="11.17365236278822"><ele>383.0</ele><time>2026-04-26T08:54:19.999Z</time></trkpt><trkpt lat="43.001604267921664" lon="11.17352293220306"><ele>383.0</ele><time>2026-04-26T08:54:20.999Z</time></trkpt><trkpt lat="43.00166372075297" lon="11.173374212851536"><ele>383.0</ele><time>2026-04-26T08:54:21.999Z</time></trkpt><trkpt lat="43.001732734039955" lon="11.173201152845644"><ele>383.0</ele><time>2026-04-26T08:54:22.999Z</time></trkpt><trkpt lat="43.001796189060826" lon="11.173026169917922"><ele>383.0</ele><time>2026-04-26T08:54:23.999Z</time></trkpt><trkpt lat="43.00187790674912" lon="11.172859857350744"><ele>384.5</ele><time>2026-04-26T08:54:24.999Z</time></trkpt><trkpt lat="43.00198511043172" lon="11.172723068635468"><ele>386.0</ele><time>2026-04-26T08:54:25.999Z</time></trkpt><trkpt lat="43.00210659476085" lon="11.172605588436635"><ele>387.5</ele><time>2026-04-26T08:54:26.999Z</time></trkpt><trkpt lat="43.00223385317901" lon="11.172495036934125"><ele>389.0</ele><time>2026-04-26T08:54:27.999Z</time></trkpt><trkpt lat="43.00236310031117" lon="11.172373925389856"><ele>389.66666666666663</ele><time>2026-04-26T08:54:28.999Z</time></trkpt><trkpt lat="43.00250760618208" lon="11.172296330755124"><ele>390.33333333333337</ele><time>2026-04-26T08:54:29.999Z</time></trkpt><trkpt lat="43.00265319382504" lon="11.172230825240067"><ele>391.0</ele><time>2026-04-26T08:54:30.999Z</time></trkpt><trkpt lat="43.00280238187221" lon="11.172166868841584"><ele>391.0</ele><time>2026-04-26T08:54:31.999Z</time></trkpt><trkpt lat="43.002954285129334" lon="11.172108449380442"><ele>391.0</ele><time>2026-04-26T08:54:32.999Z</time></trkpt><trkpt lat="43.00309989219084" lon="11.172020262398247"><ele>391.0</ele><time>2026-04-26T08:54:33.998Z</time></trkpt><trkpt lat="43.003237911289624" lon="11.171891639047539"><ele>392.6666666666667</ele><time>2026-04-26T08:54:34.998Z</time></trkpt><trkpt lat="43.003366290596944" lon="11.171742366908873"><ele>394.33333333333337</ele><time>2026-04-26T08:54:35.998Z</time></trkpt><trkpt lat="43.00351206448097" lon="11.171640364884245"><ele>396.0</ele><time>2026-04-26T08:54:36.998Z</time></trkpt><trkpt lat="43.00365318003203" lon="11.17152329917303"><ele>396.0</ele><time>2026-04-26T08:54:37.998Z</time></trkpt><trkpt lat="43.00379487723502" lon="11.171449064320162"><ele>396.0</ele><time>2026-04-26T08:54:38.998Z</time></trkpt><trkpt lat="43.00393008067653" lon="11.171342902928675"><ele>396.0</ele><time>2026-04-26T08:54:39.998Z</time></trkpt><trkpt lat="43.00400582365122" lon="11.171174666208936"><ele>396.0</ele><time>2026-04-26T08:54:40.998Z</time></trkpt><trkpt lat="43.004022692549285" lon="11.170985695065795"><ele>396.0</ele><time>2026-04-26T08:54:41.998Z</time></trkpt><trkpt lat="43.004015895337595" lon="11.170790370506479"><ele>396.0</ele><time>2026-04-26T08:54:42.998Z</time></trkpt><trkpt lat="43.004054892174516" lon="11.170616557682651"><ele>396.0</ele><time>2026-04-26T08:54:43.998Z</time></trkpt><trkpt lat="43.00415188543172" lon="11.17048845821246"><ele>400.66666666666663</ele><time>2026-04-26T08:54:44.998Z</time></trkpt><trkpt lat="43.00428191333935" lon="11.17039846087448"><ele>405.3333333333333</ele><time>2026-04-26T08:54:45.998Z</time></trkpt><trkpt lat="43.0044278377305" lon="11.170312162208994"><ele>410.0</ele><time>2026-04-26T08:54:46.998Z</time></trkpt><trkpt lat="43.00456563701644" lon="11.17018295761799"><ele>410.0</ele><time>2026-04-26T08:54:47.998Z</time></trkpt><trkpt lat="43.00471233908597" lon="11.170044602450815"><ele>410.0</ele><time>2026-04-26T08:54:48.998Z</time></trkpt><trkpt lat="43.00484783093044" lon="11.169918661790366"><ele>410.0</ele><time>2026-04-26T08:54:49.998Z</time></trkpt><trkpt lat="43.00494220756537" lon="11.169766082137938"><ele>411.5</ele><time>2026-04-26T08:54:50.998Z</time></trkpt><trkpt lat="43.005010025933586" lon="11.16960537267063"><ele>413.0</ele><time>2026-04-26T08:54:51.998Z</time></trkpt><trkpt lat="43.005058760597635" lon="11.169442534698577"><ele>414.5</ele><time>2026-04-26T08:54:52.998Z</time></trkpt><trkpt lat="43.00512054164175" lon="11.169271781218978"><ele>416.0</ele><time>2026-04-26T08:54:53.998Z</time></trkpt><trkpt lat="43.00518689319237" lon="11.16910467315873"><ele>416.0</ele><time>2026-04-26T08:54:54.998Z</time></trkpt><trkpt lat="43.00525509624574" lon="11.168933479591148"><ele>416.0</ele><time>2026-04-26T08:54:55.998Z</time></trkpt><trkpt lat="43.00532440969464" lon="11.168763765605261"><ele>416.0</ele><time>2026-04-26T08:54:56.998Z</time></trkpt><trkpt lat="43.00539561815617" lon="11.168593235516813"><ele>416.0</ele><time>2026-04-26T08:54:57.998Z</time></trkpt><trkpt lat="43.00545068626633" lon="11.168413521290908"><ele>416.0</ele><time>2026-04-26T08:54:58.998Z</time></trkpt><trkpt lat="43.00547491996676" lon="11.168221718369473"><ele>416.0</ele><time>2026-04-26T08:55:00Z</time></trkpt><trkpt lat="43.00545350514618" lon="11.168021534248405"><ele>416.0</ele><time>2026-04-26T08:55:01Z</time></trkpt><trkpt lat="43.00541129784913" lon="11.16782987846751"><ele>416.0</ele><time>2026-04-26T08:55:02Z</time></trkpt><trkpt lat="43.005371273096436" lon="11.167656731063119"><ele>417.25</ele><time>2026-04-26T08:55:03Z</time></trkpt><trkpt lat="43.00535407781335" lon="11.167493400149828"><ele>418.5</ele><time>2026-04-26T08:55:04Z</time></trkpt><trkpt lat="43.0053632216293" lon="11.16733075474676"><ele>419.75</ele><time>2026-04-26T08:55:05Z</time></trkpt><trkpt lat="43.00543656066945" lon="11.167195269788598"><ele>421.0</ele><time>2026-04-26T08:55:06Z</time></trkpt><trkpt lat="43.00552911145406" lon="11.167098668769622"><ele>421.25</ele><time>2026-04-26T08:55:07Z</time></trkpt><trkpt lat="43.00564546346997" lon="11.167028670982667"><ele>421.5</ele><time>2026-04-26T08:55:08Z</time></trkpt><trkpt lat="43.00576602266526" lon="11.167071345378986"><ele>421.75</ele><time>2026-04-26T08:55:09Z</time></trkpt><trkpt lat="43.005885310620606" lon="11.167127282285465"><ele>422.0</ele><time>2026-04-26T08:55:10Z</time></trkpt><trkpt lat="43.006012043810024" lon="11.167186095934595"><ele>423.66666666666663</ele><time>2026-04-26T08:55:11Z</time></trkpt><trkpt lat="43.00615494839263" lon="11.167248526731555"><ele>425.33333333333337</ele><time>2026-04-26T08:55:12Z</time></trkpt><trkpt lat="43.00629530740075" lon="11.167307096072275"><ele>427.0</ele><time>2026-04-26T08:55:13Z</time></trkpt><trkpt lat="43.00644936785446" lon="11.167321387536148"><ele>427.0</ele><time>2026-04-26T08:55:14Z</time></trkpt><trkpt lat="43.00659729934739" lon="11.167253817818818"><ele>427.0</ele><time>2026-04-26T08:55:15Z</time></trkpt><trkpt lat="43.006725934148726" lon="11.167186936194074"><ele>427.0</ele><time>2026-04-26T08:55:16Z</time></trkpt><trkpt lat="43.00683455580498" lon="11.167137797941201"><ele>427.0</ele><time>2026-04-26T08:55:17Z</time></trkpt><trkpt lat="43.006924542984066" lon="11.167124855375272"><ele>427.33333333333337</ele><time>2026-04-26T08:55:18Z</time></trkpt><trkpt lat="43.00699424382839" lon="11.16717632853888"><ele>427.6666666666667</ele><time>2026-04-26T08:55:19Z</time></trkpt><trkpt lat="43.00701857480441" lon="11.167272559303798"><ele>428.0</ele><time>2026-04-26T08:55:20Z</time></trkpt><trkpt lat="43.00697479221036" lon="11.167382169629557"><ele>428.33333333333337</ele><time>2026-04-26T08:55:21Z</time></trkpt><trkpt lat="43.00689909433274" lon="11.167443144386306"><ele>428.6666666666667</ele><time>2026-04-26T08:55:22Z</time></trkpt><trkpt lat="43.00683425829424" lon="11.167542568483837"><ele>429.0</ele><time>2026-04-26T08:55:23Z</time></trkpt><trkpt lat="43.00676913910675" lon="11.16768748950611"><ele>429.75</ele><time>2026-04-26T08:55:24Z</time></trkpt><trkpt lat="43.00670429170013" lon="11.167818103570717"><ele>430.5</ele><time>2026-04-26T08:55:25Z</time></trkpt><trkpt lat="43.006662397428876" lon="11.167990951440132"><ele>431.25</ele><time>2026-04-26T08:55:26Z</time></trkpt><trkpt lat="43.006646146789045" lon="11.168188515962367"><ele>432.0</ele><time>2026-04-26T08:55:27Z</time></trkpt><trkpt lat="43.00664651797765" lon="11.168393477936025"><ele>432.0</ele><time>2026-04-26T08:55:28Z</time></trkpt><trkpt lat="43.00666033975195" lon="11.16860760234353"><ele>432.0</ele><time>2026-04-26T08:55:29Z</time></trkpt><trkpt lat="43.00670407045286" lon="11.168810332674555"><ele>432.0</ele><time>2026-04-26T08:55:30Z</time></trkpt><trkpt lat="43.0067338620264" lon="11.169015233752013"><ele>436.33333333333337</ele><time>2026-04-26T08:55:31Z</time></trkpt><trkpt lat="43.006784153044734" lon="11.169222940732151"><ele>440.6666666666667</ele><time>2026-04-26T08:55:32Z</time></trkpt><trkpt lat="43.00685448830429" lon="11.169409631276356"><ele>445.0</ele><time>2026-04-26T08:55:33Z</time></trkpt><trkpt lat="43.00691762871869" lon="11.169603066003681"><ele>445.0</ele><time>2026-04-26T08:55:34Z</time></trkpt><trkpt lat="43.007001028495026" lon="11.169779030153553"><ele>445.0</ele><time>2026-04-26T08:55:35Z</time></trkpt><trkpt lat="43.007093354911405" lon="11.16993815893214"><ele>445.0</ele><time>2026-04-26T08:55:36Z</time></trkpt><trkpt lat="43.0071988988347" lon="11.170077558276207"><ele>445.0</ele><time>2026-04-26T08:55:37Z</time></trkpt><trkpt lat="43.00732812682373" lon="11.170192252646661"><ele>444.6666666666667</ele><time>2026-04-26T08:55:38Z</time></trkpt><trkpt lat="43.00747265392799" lon="11.170271677941573"><ele>444.33333333333337</ele><time>2026-04-26T08:55:39Z</time></trkpt><trkpt lat="43.00761571426516" lon="11.170317444200037"><ele>444.0</ele><time>2026-04-26T08:55:40Z</time></trkpt><trkpt lat="43.00776561986786" lon="11.170333013841429"><ele>447.5</ele><time>2026-04-26T08:55:41Z</time></trkpt><trkpt lat="43.007903085353334" lon="11.170319536203422"><ele>451.0</ele><time>2026-04-26T08:55:42Z</time></trkpt><trkpt lat="43.008040004687395" lon="11.170266024911943"><ele>454.5</ele><time>2026-04-26T08:55:42.999Z</time></trkpt><trkpt lat="43.00817136153725" lon="11.170178672078224"><ele>458.0</ele><time>2026-04-26T08:55:43.999Z</time></trkpt><trkpt lat="43.008300667525695" lon="11.170083329894934"><ele>460.0</ele><time>2026-04-26T08:55:44.999Z</time></trkpt><trkpt lat="43.008432072151074" lon="11.169985657515257"><ele>462.0</ele><time>2026-04-26T08:55:45.999Z</time></trkpt><trkpt lat="43.00856156426624" lon="11.16988067178753"><ele>464.0</ele><time>2026-04-26T08:55:46.999Z</time></trkpt><trkpt lat="43.00868308285026" lon="11.16975511411624"><ele>469.0</ele><time>2026-04-26T08:55:47.999Z</time></trkpt><trkpt lat="43.00880026876493" lon="11.169622458724353"><ele>474.0</ele><time>2026-04-26T08:55:48.999Z</time></trkpt><trkpt lat="43.00891278517806" lon="11.16947656512303"><ele>479.0</ele><time>2026-04-26T08:55:49.999Z</time></trkpt><trkpt lat="43.009028570686006" lon="11.169334260665751"><ele>479.0</ele><time>2026-04-26T08:55:50.999Z</time></trkpt><trkpt lat="43.00914405572605" lon="11.169187114967642"><ele>479.0</ele><time>2026-04-26T08:55:51.999Z</time></trkpt><trkpt lat="43.0092561207268" lon="11.169040075889734"><ele>479.0</ele><time>2026-04-26T08:55:52.999Z</time></trkpt><trkpt lat="43.00937113521641" lon="11.168903065504587"><ele>480.75</ele><time>2026-04-26T08:55:53.999Z</time></trkpt><trkpt lat="43.009488804052104" lon="11.168779865664535"><ele>482.5</ele><time>2026-04-26T08:55:54.999Z</time></trkpt><trkpt lat="43.009612559151186" lon="11.168678444447108"><ele>484.25</ele><time>2026-04-26T08:55:55.999Z</time></trkpt><trkpt lat="43.009746633496334" lon="11.168636694617547"><ele>486.0</ele><time>2026-04-26T08:55:56.999Z</time></trkpt><trkpt lat="43.00987186788544" lon="11.168598726024685"><ele>483.5</ele><time>2026-04-26T08:55:57.999Z</time></trkpt><trkpt lat="43.009999142314044" lon="11.168583583260093"><ele>481.0</ele><time>2026-04-26T08:55:58.999Z</time></trkpt><trkpt lat="43.010133942111054" lon="11.168555195280362"><ele>478.5</ele><time>2026-04-26T08:55:59.999Z</time></trkpt><trkpt lat="43.010252703512556" lon="11.168566917815062"><ele>476.0</ele><time>2026-04-26T08:56:00.999Z</time></trkpt><trkpt lat="43.01035812885372" lon="11.16853084863887"><ele>475.99999999999994</ele><time>2026-04-26T08:56:01.999Z</time></trkpt><trkpt lat="43.01042919863276" lon="11.168425372538081"><ele>476.0</ele><time>2026-04-26T08:56:02.999Z</time></trkpt><trkpt lat="43.01049298235601" lon="11.168340951271373"><ele>476.0</ele><time>2026-04-26T08:56:03.999Z</time></trkpt><trkpt lat="43.010526537058965" lon="11.168238323679494"><ele>476.0</ele><time>2026-04-26T08:56:04.999Z</time></trkpt><trkpt lat="43.01052882114356" lon="11.168138378495534"><ele>475.99999999999994</ele><time>2026-04-26T08:56:05.999Z</time></trkpt><trkpt lat="43.010503592887815" lon="11.168043691320895"><ele>476.0</ele><time>2026-04-26T08:56:06.999Z</time></trkpt><trkpt lat="43.01050334455254" lon="11.167936537787389"><ele>475.8</ele><time>2026-04-26T08:56:07.999Z</time></trkpt><trkpt lat="43.01048252268237" lon="11.167852979470798"><ele>475.6</ele><time>2026-04-26T08:56:08.999Z</time></trkpt><trkpt lat="43.01054448902715" lon="11.167737812202718"><ele>475.4</ele><time>2026-04-26T08:56:09.999Z</time></trkpt><trkpt lat="43.010645050733565" lon="11.167678125898748"><ele>475.2</ele><time>2026-04-26T08:56:10.999Z</time></trkpt><trkpt lat="43.0107293224506" lon="11.167622868369765"><ele>475.0</ele><time>2026-04-26T08:56:11.999Z</time></trkpt><trkpt lat="43.01080985633119" lon="11.167553092780805"><ele>474.6</ele><time>2026-04-26T08:56:12.999Z</time></trkpt><trkpt lat="43.01089452401193" lon="11.167494784186582"><ele>474.2</ele><time>2026-04-26T08:56:13.999Z</time></trkpt><trkpt lat="43.01098116628161" lon="11.167432436292177"><ele>473.79999999999995</ele><time>2026-04-26T08:56:14.999Z</time></trkpt><trkpt lat="43.011069013761194" lon="11.167370632313094"><ele>473.4</ele><time>2026-04-26T08:56:15.999Z</time></trkpt><trkpt lat="43.0111554595357" lon="11.167319519143204"><ele>473.0</ele><time>2026-04-26T08:56:16.999Z</time></trkpt><trkpt lat="43.011238532248065" lon="11.167266672255082"><ele>473.0</ele><time>2026-04-26T08:56:17.999Z</time></trkpt><trkpt lat="43.01132067965244" lon="11.167209748059864"><ele>472.99999999999994</ele><time>2026-04-26T08:56:18.999Z</time></trkpt><trkpt lat="43.011405815875754" lon="11.167155855193375"><ele>472.99999999999994</ele><time>2026-04-26T08:56:19.999Z</time></trkpt><trkpt lat="43.0114940992876" lon="11.167100478038323"><ele>473.0</ele><time>2026-04-26T08:56:20.999Z</time></trkpt><trkpt lat="43.011582982990674" lon="11.167034510477043"><ele>473.0</ele><time>2026-04-26T08:56:21.999Z</time></trkpt><trkpt lat="43.01167781285236" lon="11.16697408767141"><ele>475.75</ele><time>2026-04-26T08:56:22.999Z</time></trkpt><trkpt lat="43.01177642405482" lon="11.16691317872981"><ele>478.5</ele><time>2026-04-26T08:56:23.999Z</time></trkpt><trkpt lat="43.01187972478743" lon="11.166851597945923"><ele>481.25</ele><time>2026-04-26T08:56:24.999Z</time></trkpt><trkpt lat="43.01198929769197" lon="11.166789209452668"><ele>484.0</ele><time>2026-04-26T08:56:25.999Z</time></trkpt><trkpt lat="43.012104643634046" lon="11.166734675741711"><ele>484.0</ele><time>2026-04-26T08:56:26.999Z</time></trkpt><trkpt lat="43.01222071047106" lon="11.166682427303686"><ele>484.0</ele><time>2026-04-26T08:56:27.999Z</time></trkpt><trkpt lat="43.012342131886435" lon="11.166639790139781"><ele>484.0</ele><time>2026-04-26T08:56:28.999Z</time></trkpt><trkpt lat="43.01246979988267" lon="11.166593144371078"><ele>484.0</ele><time>2026-04-26T08:56:29.999Z</time></trkpt><trkpt lat="43.01260204276778" lon="11.166544014459843"><ele>485.0</ele><time>2026-04-26T08:56:30.999Z</time></trkpt><trkpt lat="43.012735951529365" lon="11.166495472338804"><ele>486.0</ele><time>2026-04-26T08:56:31.999Z</time></trkpt><trkpt lat="43.012878426242786" lon="11.166443468085035"><ele>487.0</ele><time>2026-04-26T08:56:32.999Z</time></trkpt><trkpt lat="43.01302565297787" lon="11.166394979455891"><ele>488.0</ele><time>2026-04-26T08:56:33.999Z</time></trkpt><trkpt lat="43.01316762168255" lon="11.166346945787827"><ele>488.0</ele><time>2026-04-26T08:56:34.999Z</time></trkpt><trkpt lat="43.01330744847362" lon="11.16630367863209"><ele>488.0</ele><time>2026-04-26T08:56:35.999Z</time></trkpt><trkpt lat="43.013443831182244" lon="11.166261114539177"><ele>488.0</ele><time>2026-04-26T08:56:36.999Z</time></trkpt><trkpt lat="43.01357441022473" lon="11.166268490996755"><ele>488.0</ele><time>2026-04-26T08:56:37.999Z</time></trkpt><trkpt lat="43.01370377705092" lon="11.166268490994414"><ele>488.0</ele><time>2026-04-26T08:56:38.999Z</time></trkpt><trkpt lat="43.013834509609126" lon="11.166225916461254"><ele>488.0</ele><time>2026-04-26T08:56:39.998Z</time></trkpt><trkpt lat="43.01396474602931" lon="11.166233991559425"><ele>488.0</ele><time>2026-04-26T08:56:40.998Z</time></trkpt><trkpt lat="43.01409918515455" lon="11.166242615659277"><ele>488.0</ele><time>2026-04-26T08:56:41.998Z</time></trkpt><trkpt lat="43.01424051304773" lon="11.166259032660594"><ele>487.0</ele><time>2026-04-26T08:56:42.998Z</time></trkpt><trkpt lat="43.014383996136495" lon="11.1662993847634"><ele>486.0</ele><time>2026-04-26T08:56:43.998Z</time></trkpt><trkpt lat="43.01453572283712" lon="11.166310510433263"><ele>485.0</ele><time>2026-04-26T08:56:44.998Z</time></trkpt><trkpt lat="43.01468840192388" lon="11.16632170593835"><ele>485.0</ele><time>2026-04-26T08:56:45.998Z</time></trkpt><trkpt lat="43.01484526078263" lon="11.166333207935352"><ele>485.0</ele><time>2026-04-26T08:56:46.998Z</time></trkpt><trkpt lat="43.01500149265035" lon="11.166343427455686"><ele>485.0</ele><time>2026-04-26T08:56:47.998Z</time></trkpt><trkpt lat="43.015158271990124" lon="11.166354933879994"><ele>487.3333333333333</ele><time>2026-04-26T08:56:48.998Z</time></trkpt><trkpt lat="43.01531654921199" lon="11.166372454445616"><ele>489.66666666666663</ele><time>2026-04-26T08:56:49.998Z</time></trkpt><trkpt lat="43.015474279382516" lon="11.166425558168878"><ele>492.0</ele><time>2026-04-26T08:56:50.998Z</time></trkpt><trkpt lat="43.0156250267122" lon="11.166510081072598"><ele>489.66666666666663</ele><time>2026-04-26T08:56:51.998Z</time></trkpt><trkpt lat="43.015761135074" lon="11.166618606738496"><ele>487.3333333333333</ele><time>2026-04-26T08:56:52.998Z</time></trkpt><trkpt lat="43.01589030645032" lon="11.166726031824037"><ele>485.0</ele><time>2026-04-26T08:56:53.998Z</time></trkpt><trkpt lat="43.01603862511953" lon="11.16680167613918"><ele>485.0</ele><time>2026-04-26T08:56:54.998Z</time></trkpt><trkpt lat="43.01620907493948" lon="11.166838021834748"><ele>485.0</ele><time>2026-04-26T08:56:55.998Z</time></trkpt><trkpt lat="43.01637243787224" lon="11.16681652250534"><ele>485.0</ele><time>2026-04-26T08:56:56.998Z</time></trkpt><trkpt lat="43.01652750570721" lon="11.1667467278244"><ele>483.3333333333333</ele><time>2026-04-26T08:56:57.998Z</time></trkpt><trkpt lat="43.01666058336691" lon="11.166619600098336"><ele>481.66666666666663</ele><time>2026-04-26T08:56:58.998Z</time></trkpt><trkpt lat="43.01675959595121" lon="11.166445234968954"><ele>480.0</ele><time>2026-04-26T08:56:59.998Z</time></trkpt><trkpt lat="43.01683066204103" lon="11.166245776923262"><ele>483.66666666666663</ele><time>2026-04-26T08:57:00.998Z</time></trkpt><trkpt lat="43.01692879153095" lon="11.16606354960401"><ele>487.3333333333333</ele><time>2026-04-26T08:57:01.998Z</time></trkpt><trkpt lat="43.0170478635336" lon="11.165904755280522"><ele>491.0</ele><time>2026-04-26T08:57:02.998Z</time></trkpt><trkpt lat="43.017204117168994" lon="11.16580846457194"><ele>491.0</ele><time>2026-04-26T08:57:03.998Z</time></trkpt><trkpt lat="43.017376194533504" lon="11.165733570591842"><ele>491.0</ele><time>2026-04-26T08:57:04.998Z</time></trkpt><trkpt lat="43.017562094299244" lon="11.165683115794657"><ele>491.0</ele><time>2026-04-26T08:57:06Z</time></trkpt><trkpt lat="43.01774527844234" lon="11.165638969405197"><ele>491.66666666666663</ele><time>2026-04-26T08:57:07Z</time></trkpt><trkpt lat="43.01793422297676" lon="11.165598156316532"><ele>492.33333333333337</ele><time>2026-04-26T08:57:08Z</time></trkpt><trkpt lat="43.01812658526642" lon="11.165595692532179"><ele>493.0</ele><time>2026-04-26T08:57:09Z</time></trkpt><trkpt lat="43.018314834608724" lon="11.16562606099146"><ele>492.6666666666667</ele><time>2026-04-26T08:57:10Z</time></trkpt><trkpt lat="43.018501611971516" lon="11.165682751362889"><ele>492.33333333333337</ele><time>2026-04-26T08:57:11Z</time></trkpt><trkpt lat="43.01868944033994" lon="11.16575008302949"><ele>492.0</ele><time>2026-04-26T08:57:12Z</time></trkpt><trkpt lat="43.018880493551826" lon="11.165809787278643"><ele>489.66666666666663</ele><time>2026-04-26T08:57:13Z</time></trkpt><trkpt lat="43.019071159383216" lon="11.165874207550186"><ele>487.3333333333333</ele><time>2026-04-26T08:57:14Z</time></trkpt><trkpt lat="43.019267178464965" lon="11.165942405732519"><ele>485.0</ele><time>2026-04-26T08:57:15Z</time></trkpt><trkpt lat="43.01945766171094" lon="11.166011435493292"><ele>485.0</ele><time>2026-04-26T08:57:16Z</time></trkpt><trkpt lat="43.01964275320908" lon="11.166080114923572"><ele>485.0</ele><time>2026-04-26T08:57:17Z</time></trkpt><trkpt lat="43.01983232531473" lon="11.166125223263958"><ele>485.0</ele><time>2026-04-26T08:57:18Z</time></trkpt><trkpt lat="43.02003112624238" lon="11.166132923981303"><ele>486.3333333333333</ele><time>2026-04-26T08:57:19Z</time></trkpt><trkpt lat="43.020231238201504" lon="11.166112364629589"><ele>487.66666666666663</ele><time>2026-04-26T08:57:20Z</time></trkpt><trkpt lat="43.020430866051626" lon="11.166072785239406"><ele>489.0</ele><time>2026-04-26T08:57:21Z</time></trkpt><trkpt lat="43.020632833865236" lon="11.166028311993625"><ele>488.33333333333337</ele><time>2026-04-26T08:57:22Z</time></trkpt><trkpt lat="43.02083643034335" lon="11.16598978420903"><ele>487.6666666666667</ele><time>2026-04-26T08:57:23Z</time></trkpt><trkpt lat="43.02104220399888" lon="11.16595684751547"><ele>487.0</ele><time>2026-04-26T08:57:24Z</time></trkpt><trkpt lat="43.021246528178004" lon="11.165922897176902"><ele>487.0</ele><time>2026-04-26T08:57:25Z</time></trkpt><trkpt lat="43.02144508121367" lon="11.165881952001124"><ele>487.0</ele><time>2026-04-26T08:57:26Z</time></trkpt><trkpt lat="43.02163481887361" lon="11.165843841913357"><ele>487.0</ele><time>2026-04-26T08:57:27Z</time></trkpt><trkpt lat="43.02181675590728" lon="11.165810565746282"><ele>486.33333333333337</ele><time>2026-04-26T08:57:28Z</time></trkpt><trkpt lat="43.021988826177484" lon="11.1658039358009"><ele>485.66666666666663</ele><time>2026-04-26T08:57:29Z</time></trkpt><trkpt lat="43.0221529819966" lon="11.165858958128474"><ele>485.0</ele><time>2026-04-26T08:57:30Z</time></trkpt><trkpt lat="43.0223086925065" lon="11.16596369680082"><ele>485.0</ele><time>2026-04-26T08:57:31Z</time></trkpt><trkpt lat="43.02245625638303" lon="11.166110640610206"><ele>485.0</ele><time>2026-04-26T08:57:32Z</time></trkpt><trkpt lat="43.02259248079641" lon="11.166257685975562"><ele>485.0</ele><time>2026-04-26T08:57:33Z</time></trkpt><trkpt lat="43.02274937276237" lon="11.166356784080817"><ele>486.3333333333333</ele><time>2026-04-26T08:57:34Z</time></trkpt><trkpt lat="43.02292484229526" lon="11.166414868633403"><ele>487.66666666666663</ele><time>2026-04-26T08:57:35Z</time></trkpt><trkpt lat="43.023102437257926" lon="11.166442935288272"><ele>489.0</ele><time>2026-04-26T08:57:36Z</time></trkpt><trkpt lat="43.023282421710896" lon="11.166445077941471"><ele>490.33333333333337</ele><time>2026-04-26T08:57:37Z</time></trkpt><trkpt lat="43.02346512072274" lon="11.166451287202221"><ele>491.6666666666667</ele><time>2026-04-26T08:57:38Z</time></trkpt><trkpt lat="43.023642243727835" lon="11.166418444572235"><ele>493.0</ele><time>2026-04-26T08:57:39Z</time></trkpt><trkpt lat="43.0238167033751" lon="11.166333836726093"><ele>493.0</ele><time>2026-04-26T08:57:40Z</time></trkpt><trkpt lat="43.02398931868951" lon="11.166229761149863"><ele>493.0</ele><time>2026-04-26T08:57:41Z</time></trkpt><trkpt lat="43.024161389597374" lon="11.166135494945134"><ele>493.0</ele><time>2026-04-26T08:57:42Z</time></trkpt><trkpt lat="43.02433065535339" lon="11.166050407163638"><ele>493.6666666666667</ele><time>2026-04-26T08:57:43Z</time></trkpt><trkpt lat="43.024473124224635" lon="11.165963608905345"><ele>494.33333333333337</ele><time>2026-04-26T08:57:44Z</time></trkpt><trkpt lat="43.024594785116804" lon="11.165857904260331"><ele>495.0</ele><time>2026-04-26T08:57:45Z</time></trkpt><trkpt lat="43.024696683609285" lon="11.16570160657594"><ele>495.0</ele><time>2026-04-26T08:57:46Z</time></trkpt><trkpt lat="43.02476361325367" lon="11.16550472757798"><ele>495.0</ele><time>2026-04-26T08:57:47Z</time></trkpt><trkpt lat="43.0248039023324" lon="11.16528958319092"><ele>495.0</ele><time>2026-04-26T08:57:48Z</time></trkpt><trkpt lat="43.02485149374091" lon="11.165091071196192"><ele>495.0</ele><time>2026-04-26T08:57:49Z</time></trkpt><trkpt lat="43.02493029833468" lon="11.164919449199862"><ele>495.0</ele><time>2026-04-26T08:57:49.999Z</time></trkpt><trkpt lat="43.02504950915513" lon="11.164776048061393"><ele>495.0</ele><time>2026-04-26T08:57:50.999Z</time></trkpt><trkpt lat="43.02518731123901" lon="11.16465321577631"><ele>491.0</ele><time>2026-04-26T08:57:51.999Z</time></trkpt><trkpt lat="43.02533329843657" lon="11.16452958912608"><ele>487.0</ele><time>2026-04-26T08:57:52.999Z</time></trkpt><trkpt lat="43.02548025868906" lon="11.164437496660508"><ele>483.0</ele><time>2026-04-26T08:57:53.999Z</time></trkpt><trkpt lat="43.025629883881415" lon="11.164329410755343"><ele>483.0</ele><time>2026-04-26T08:57:54.999Z</time></trkpt><trkpt lat="43.025799928659744" lon="11.164279864877866"><ele>483.0</ele><time>2026-04-26T08:57:55.999Z</time></trkpt><trkpt lat="43.02597777239814" lon="11.164285932798684"><ele>483.0</ele><time>2026-04-26T08:57:56.999Z</time></trkpt><trkpt lat="43.0261663135429" lon="11.164308225687233"><ele>485.0</ele><time>2026-04-26T08:57:57.999Z</time></trkpt><trkpt lat="43.02635285013758" lon="11.164304563802618"><ele>487.0</ele><time>2026-04-26T08:57:58.999Z</time></trkpt><trkpt lat="43.0265413428129" lon="11.164281706918047"><ele>489.0</ele><time>2026-04-26T08:57:59.999Z</time></trkpt><trkpt lat="43.026724954489055" lon="11.164256679422596"><ele>489.33333333333337</ele><time>2026-04-26T08:58:00.999Z</time></trkpt><trkpt lat="43.0269039334115" lon="11.164215378804418"><ele>489.6666666666667</ele><time>2026-04-26T08:58:01.999Z</time></trkpt><trkpt lat="43.02708281502074" lon="11.164186024047519"><ele>490.0</ele><time>2026-04-26T08:58:02.999Z</time></trkpt><trkpt lat="43.027246346119256" lon="11.164129473160225"><ele>490.0</ele><time>2026-04-26T08:58:03.999Z</time></trkpt><trkpt lat="43.02739404119294" lon="11.164054525145401"><ele>490.0</ele><time>2026-04-26T08:58:04.999Z</time></trkpt><trkpt lat="43.02751721642702" lon="11.163966255929372"><ele>490.0</ele><time>2026-04-26T08:58:05.999Z</time></trkpt><trkpt lat="43.02760412587427" lon="11.163813014469449"><ele>490.0</ele><time>2026-04-26T08:58:06.999Z</time></trkpt><trkpt lat="43.02766032421415" lon="11.163611395083239"><ele>487.6666666666667</ele><time>2026-04-26T08:58:07.999Z</time></trkpt><trkpt lat="43.0276893656536" lon="11.163399356927533"><ele>485.33333333333337</ele><time>2026-04-26T08:58:08.999Z</time></trkpt><trkpt lat="43.02769316849219" lon="11.163133598049798"><ele>483.0</ele><time>2026-04-26T08:58:09.999Z</time></trkpt><trkpt lat="43.02772518114498" lon="11.162868413362546"><ele>479.66666666666663</ele><time>2026-04-26T08:58:10.999Z</time></trkpt><trkpt lat="43.02776393871221" lon="11.162617149635675"><ele>476.3333333333333</ele><time>2026-04-26T08:58:11.999Z</time></trkpt><trkpt lat="43.02783044028912" lon="11.162380549870518"><ele>473.0</ele><time>2026-04-26T08:58:12.999Z</time></trkpt><trkpt lat="43.02791416142901" lon="11.162161187582395"><ele>472.66666666666663</ele><time>2026-04-26T08:58:13.999Z</time></trkpt><trkpt lat="43.02802254928728" lon="11.161974929069828"><ele>472.33333333333337</ele><time>2026-04-26T08:58:14.999Z</time></trkpt><trkpt lat="43.02817451361007" lon="11.161782353816074"><ele>472.0</ele><time>2026-04-26T08:58:15.999Z</time></trkpt><trkpt lat="43.028347308812606" lon="11.161634000369963"><ele>472.0</ele><time>2026-04-26T08:58:16.999Z</time></trkpt><trkpt lat="43.02853531586621" lon="11.161585011764542"><ele>472.0</ele><time>2026-04-26T08:58:17.999Z</time></trkpt><trkpt lat="43.02870834703293" lon="11.161571817334025"><ele>472.0</ele><time>2026-04-26T08:58:18.999Z</time></trkpt><trkpt lat="43.028887261152924" lon="11.16160622622032"><ele>472.0</ele><time>2026-04-26T08:58:19.999Z</time></trkpt><trkpt lat="43.029060453470905" lon="11.161641418028688"><ele>472.0</ele><time>2026-04-26T08:58:20.999Z</time></trkpt><trkpt lat="43.02923836706803" lon="11.16167793979202"><ele>472.0</ele><time>2026-04-26T08:58:21.999Z</time></trkpt><trkpt lat="43.02942813808755" lon="11.161720101958368"><ele>471.0</ele><time>2026-04-26T08:58:22.999Z</time></trkpt><trkpt lat="43.0296398098322" lon="11.161753862606659"><ele>470.0</ele><time>2026-04-26T08:58:23.999Z</time></trkpt><trkpt lat="43.02983411544317" lon="11.161722169919802"><ele>469.0</ele><time>2026-04-26T08:58:24.999Z</time></trkpt><trkpt lat="43.02998130065797" lon="11.161606152226899"><ele>468.25</ele><time>2026-04-26T08:58:25.999Z</time></trkpt><trkpt lat="43.03006970403572" lon="11.161449741662969"><ele>467.5</ele><time>2026-04-26T08:58:26.999Z</time></trkpt><trkpt lat="43.03010290637204" lon="11.16127065370911"><ele>466.75</ele><time>2026-04-26T08:58:27.999Z</time></trkpt><trkpt lat="43.03011529036974" lon="11.161096072095074"><ele>466.0</ele><time>2026-04-26T08:58:28.999Z</time></trkpt><trkpt lat="43.030091163813" lon="11.160873492881185"><ele>463.0</ele><time>2026-04-26T08:58:29.999Z</time></trkpt><trkpt lat="43.030029156514495" lon="11.160651671509212"><ele>460.0</ele><time>2026-04-26T08:58:30.999Z</time></trkpt><trkpt lat="43.02998982283959" lon="11.160406531362593"><ele>457.0</ele><time>2026-04-26T08:58:31.999Z</time></trkpt><trkpt lat="43.02995309645431" lon="11.160139239750317"><ele>460.6666666666667</ele><time>2026-04-26T08:58:32.999Z</time></trkpt><trkpt lat="43.02991599657789" lon="11.159875577033906"><ele>464.33333333333337</ele><time>2026-04-26T08:58:33.999Z</time></trkpt><trkpt lat="43.029891114600616" lon="11.159605035192794"><ele>468.0</ele><time>2026-04-26T08:58:34.999Z</time></trkpt><trkpt lat="43.029880599612746" lon="11.159377535784534"><ele>468.0</ele><time>2026-04-26T08:58:35.999Z</time></trkpt><trkpt lat="43.029863178334004" lon="11.159145889170096"><ele>468.0</ele><time>2026-04-26T08:58:36.999Z</time></trkpt><trkpt lat="43.02981365461336" lon="11.15894181985973"><ele>468.0</ele><time>2026-04-26T08:58:37.999Z</time></trkpt><trkpt lat="43.02972832018326" lon="11.158748943158999"><ele>466.5</ele><time>2026-04-26T08:58:38.999Z</time></trkpt><trkpt lat="43.02963110855501" lon="11.158546210343104"><ele>465.0</ele><time>2026-04-26T08:58:39.999Z</time></trkpt><trkpt lat="43.02955717481055" lon="11.158386628390923"><ele>463.5</ele><time>2026-04-26T08:58:40.999Z</time></trkpt><trkpt lat="43.02951342043766" lon="11.158237301712855"><ele>462.0</ele><time>2026-04-26T08:58:41.999Z</time></trkpt><trkpt lat="43.02951638024309" lon="11.15803601456042"><ele>462.0</ele><time>2026-04-26T08:58:42.999Z</time></trkpt><trkpt lat="43.0295852537414" lon="11.157900434247296"><ele>462.0</ele><time>2026-04-26T08:58:43.999Z</time></trkpt><trkpt lat="43.02965340544387" lon="11.1577757235405"><ele>462.0</ele><time>2026-04-26T08:58:44.999Z</time></trkpt><trkpt lat="43.029725468739905" lon="11.157640415317186"><ele>462.0</ele><time>2026-04-26T08:58:45.999Z</time></trkpt><trkpt lat="43.02982158706514" lon="11.157506064359005"><ele>460.0</ele><time>2026-04-26T08:58:46.998Z</time></trkpt><trkpt lat="43.029872762174605" lon="11.157334640154797"><ele>458.0</ele><time>2026-04-26T08:58:47.998Z</time></trkpt><trkpt lat="43.02985351036078" lon="11.157166280261816"><ele>456.0</ele><time>2026-04-26T08:58:48.998Z</time></trkpt><trkpt lat="43.02982678140981" lon="11.156971091742422"><ele>454.0</ele><time>2026-04-26T08:58:49.998Z</time></trkpt><trkpt lat="43.02973509341904" lon="11.156787018048204"><ele>454.0</ele><time>2026-04-26T08:58:50.998Z</time></trkpt><trkpt lat="43.02962584193181" lon="11.15659099444397"><ele>454.0</ele><time>2026-04-26T08:58:51.998Z</time></trkpt><trkpt lat="43.0295165883266" lon="11.156395147866537"><ele>454.0</ele><time>2026-04-26T08:58:52.998Z</time></trkpt><trkpt lat="43.029404369785816" lon="11.156196286205374"><ele>451.33333333333337</ele><time>2026-04-26T08:58:53.998Z</time></trkpt><trkpt lat="43.02929351636012" lon="11.156001135028811"><ele>448.66666666666663</ele><time>2026-04-26T08:58:54.998Z</time></trkpt><trkpt lat="43.02917694645665" lon="11.155791430862855"><ele>446.0</ele><time>2026-04-26T08:58:55.998Z</time></trkpt><trkpt lat="43.02908549460972" lon="11.155557786712638"><ele>446.0</ele><time>2026-04-26T08:58:56.998Z</time></trkpt><trkpt lat="43.0290478655301" lon="11.155271992844092"><ele>446.0</ele><time>2026-04-26T08:58:57.998Z</time></trkpt><trkpt lat="43.029064515118435" lon="11.155067608751756"><ele>446.0</ele><time>2026-04-26T08:58:58.998Z</time></trkpt><trkpt lat="43.029097351450794" lon="11.154867944660815"><ele>440.66666666666663</ele><time>2026-04-26T08:58:59.998Z</time></trkpt><trkpt lat="43.02910400144022" lon="11.1546708572257"><ele>435.33333333333337</ele><time>2026-04-26T08:59:00.998Z</time></trkpt><trkpt lat="43.02913137424506" lon="11.154449387378468"><ele>430.0</ele><time>2026-04-26T08:59:01.998Z</time></trkpt><trkpt lat="43.02912987210752" lon="11.154237722330485"><ele>426.6666666666667</ele><time>2026-04-26T08:59:02.998Z</time></trkpt><trkpt lat="43.02916004589544" lon="11.154002966813461"><ele>423.33333333333337</ele><time>2026-04-26T08:59:03.998Z</time></trkpt><trkpt lat="43.029193452464334" lon="11.153774779425717"><ele>420.0</ele><time>2026-04-26T08:59:04.998Z</time></trkpt><trkpt lat="43.02923381780743" lon="11.153557154327805"><ele>420.0</ele><time>2026-04-26T08:59:05.998Z</time></trkpt><trkpt lat="43.029210376914264" lon="11.153394212112293"><ele>420.0</ele><time>2026-04-26T08:59:06.998Z</time></trkpt><trkpt lat="43.02918369790375" lon="11.153191045190539"><ele>420.0</ele><time>2026-04-26T08:59:07.998Z</time></trkpt><trkpt lat="43.02908988302075" lon="11.153026170537336"><ele>420.0</ele><time>2026-04-26T08:59:08.998Z</time></trkpt><trkpt lat="43.02897723083523" lon="11.152883697931978"><ele>417.33333333333337</ele><time>2026-04-26T08:59:09.998Z</time></trkpt><trkpt lat="43.028870102712936" lon="11.152711149256254"><ele>414.6666666666667</ele><time>2026-04-26T08:59:10.998Z</time></trkpt><trkpt lat="43.0288179848492" lon="11.152460849551485"><ele>412.0</ele><time>2026-04-26T08:59:12Z</time></trkpt><trkpt lat="43.02884574080963" lon="11.152259407198228"><ele>410.5</ele><time>2026-04-26T08:59:13Z</time></trkpt><trkpt lat="43.02884362795752" lon="11.152070970372247"><ele>409.0</ele><time>2026-04-26T08:59:14Z</time></trkpt><trkpt lat="43.028897989331654" lon="11.151917239968112"><ele>407.5</ele><time>2026-04-26T08:59:15Z</time></trkpt><trkpt lat="43.028942452786204" lon="11.151803789700775"><ele>406.0</ele><time>2026-04-26T08:59:16Z</time></trkpt><trkpt lat="43.028994765152405" lon="11.151694172406744"><ele>406.0</ele><time>2026-04-26T08:59:17Z</time></trkpt><trkpt lat="43.02906250496657" lon="11.1515893191334"><ele>406.0</ele><time>2026-04-26T08:59:18Z</time></trkpt><trkpt lat="43.02914278877845" lon="11.151539387060929"><ele>406.0</ele><time>2026-04-26T08:59:19Z</time></trkpt><trkpt lat="43.02926589800558" lon="11.151461661995132"><ele>406.0</ele><time>2026-04-26T08:59:20Z</time></trkpt><trkpt lat="43.02939158588569" lon="11.151382308894659"><ele>410.33333333333337</ele><time>2026-04-26T08:59:21Z</time></trkpt><trkpt lat="43.0295397675843" lon="11.151320720815278"><ele>414.66666666666663</ele><time>2026-04-26T08:59:22Z</time></trkpt><trkpt lat="43.02972458012218" lon="11.151293537184538"><ele>419.0</ele><time>2026-04-26T08:59:23Z</time></trkpt><trkpt lat="43.02988905043202" lon="11.151216580141968"><ele>420.0</ele><time>2026-04-26T08:59:24Z</time></trkpt><trkpt lat="43.030061873449135" lon="11.151150362365714"><ele>421.0</ele><time>2026-04-26T08:59:25Z</time></trkpt><trkpt lat="43.030245062670105" lon="11.151093040056782"><ele>422.0</ele><time>2026-04-26T08:59:26Z</time></trkpt><trkpt lat="43.030432984751755" lon="11.15103185739461"><ele>422.0</ele><time>2026-04-26T08:59:27Z</time></trkpt><trkpt lat="43.03061657897765" lon="11.1509779211669"><ele>422.0</ele><time>2026-04-26T08:59:28Z</time></trkpt><trkpt lat="43.03082217891595" lon="11.15092242795941"><ele>422.0</ele><time>2026-04-26T08:59:29Z</time></trkpt><trkpt lat="43.03101253961743" lon="11.150904239923685"><ele>420.66666666666663</ele><time>2026-04-26T08:59:30Z</time></trkpt><trkpt lat="43.03119684019842" lon="11.150868834565117"><ele>419.33333333333337</ele><time>2026-04-26T08:59:31Z</time></trkpt><trkpt lat="43.031388980335436" lon="11.150863311015668"><ele>418.0</ele><time>2026-04-26T08:59:32Z</time></trkpt><trkpt lat="43.03157011564081" lon="11.15085562734154"><ele>418.0</ele><time>2026-04-26T08:59:33Z</time></trkpt><trkpt lat="43.0317561698859" lon="11.150876813400814"><ele>418.0</ele><time>2026-04-26T08:59:34Z</time></trkpt><trkpt lat="43.03194502417629" lon="11.150905806780253"><ele>418.0</ele><time>2026-04-26T08:59:35Z</time></trkpt><trkpt lat="43.032136496589864" lon="11.150938825044113"><ele>418.0</ele><time>2026-04-26T08:59:36Z</time></trkpt><trkpt lat="43.032323213348256" lon="11.150987370671253"><ele>418.0</ele><time>2026-04-26T08:59:37Z</time></trkpt><trkpt lat="43.0325121545621" lon="11.15102543843854"><ele>418.0</ele><time>2026-04-26T08:59:38Z</time></trkpt><trkpt lat="43.032697233296325" lon="11.151100388169645"><ele>416.6666666666667</ele><time>2026-04-26T08:59:39Z</time></trkpt><trkpt lat="43.03289625920706" lon="11.15118488613328"><ele>415.33333333333337</ele><time>2026-04-26T08:59:40Z</time></trkpt><trkpt lat="43.03308808395466" lon="11.151274921747605"><ele>414.0</ele><time>2026-04-26T08:59:41Z</time></trkpt><trkpt lat="43.033285147220404" lon="11.151368982146755"><ele>413.66666666666663</ele><time>2026-04-26T08:59:42Z</time></trkpt><trkpt lat="43.03347852699772" lon="11.15149715592762"><ele>413.3333333333333</ele><time>2026-04-26T08:59:43Z</time></trkpt><trkpt lat="43.03368664483886" lon="11.151642671603735"><ele>413.0</ele><time>2026-04-26T08:59:44Z</time></trkpt><trkpt lat="43.03387986193416" lon="11.151749910945039"><ele>412.66666666666663</ele><time>2026-04-26T08:59:45Z</time></trkpt><trkpt lat="43.03407078844195" lon="11.151853171973313"><ele>412.33333333333337</ele><time>2026-04-26T08:59:46Z</time></trkpt><trkpt lat="43.03426069615482" lon="11.151954455222373"><ele>412.0</ele><time>2026-04-26T08:59:47Z</time></trkpt><trkpt lat="43.034443501760215" lon="11.152054977801528"><ele>412.0</ele><time>2026-04-26T08:59:48Z</time></trkpt><trkpt lat="43.034624075926104" lon="11.15216041799743"><ele>412.0</ele><time>2026-04-26T08:59:49Z</time></trkpt><trkpt lat="43.03479247653253" lon="11.152285834155935"><ele>412.0</ele><time>2026-04-26T08:59:50Z</time></trkpt><trkpt lat="43.034933952913164" lon="11.152437383076023"><ele>410.0</ele><time>2026-04-26T08:59:51Z</time></trkpt><trkpt lat="43.03504601006315" lon="11.152609200447317"><ele>408.0</ele><time>2026-04-26T08:59:52Z</time></trkpt><trkpt lat="43.03519190366422" lon="11.152810035993154"><ele>406.0</ele><time>2026-04-26T08:59:53Z</time></trkpt><trkpt lat="43.035328837452106" lon="11.153007918762148"><ele>405.33333333333337</ele><time>2026-04-26T08:59:54Z</time></trkpt><trkpt lat="43.03546178966802" lon="11.153218322046076"><ele>404.66666666666663</ele><time>2026-04-26T08:59:55Z</time></trkpt><trkpt lat="43.0355762927943" lon="11.153469280233084"><ele>404.0</ele><time>2026-04-26T08:59:55.999Z</time></trkpt><trkpt lat="43.03571484818745" lon="11.153696491138131"><ele>404.3333333333333</ele><time>2026-04-26T08:59:56.999Z</time></trkpt><trkpt lat="43.035845311574214" lon="11.153926605467875"><ele>404.66666666666663</ele><time>2026-04-26T08:59:57.999Z</time></trkpt><trkpt lat="43.0359890691091" lon="11.154158973409462"><ele>405.0</ele><time>2026-04-26T08:59:58.999Z</time></trkpt><trkpt lat="43.036111109823224" lon="11.154367224350231"><ele>404.0</ele><time>2026-04-26T08:59:59.999Z</time></trkpt><trkpt lat="43.0362311536033" lon="11.15459332146645"><ele>403.0</ele><time>2026-04-26T09:00:00.999Z</time></trkpt><trkpt lat="43.03634274531194" lon="11.15480783827326"><ele>402.0</ele><time>2026-04-26T09:00:01.999Z</time></trkpt><trkpt lat="43.03644840887074" lon="11.155038608032358"><ele>401.0</ele><time>2026-04-26T09:00:02.999Z</time></trkpt><trkpt lat="43.03654168462545" lon="11.155284641385652"><ele>400.0</ele><time>2026-04-26T09:00:03.999Z</time></trkpt><trkpt lat="43.036620825161584" lon="11.155543712365102"><ele>399.0</ele><time>2026-04-26T09:00:04.999Z</time></trkpt><trkpt lat="43.03669072429115" lon="11.155816896205808"><ele>399.0</ele><time>2026-04-26T09:00:05.999Z</time></trkpt><trkpt lat="43.0367375962865" lon="11.156102253423404"><ele>399.0</ele><time>2026-04-26T09:00:06.999Z</time></trkpt><trkpt lat="43.036773805431444" lon="11.156385981033278"><ele>399.0</ele><time>2026-04-26T09:00:07.999Z</time></trkpt><trkpt lat="43.03679747062078" lon="11.156672459831501"><ele>398.33333333333337</ele><time>2026-04-26T09:00:08.999Z</time></trkpt><trkpt lat="43.03681067306705" lon="11.156962063414783"><ele>397.6666666666667</ele><time>2026-04-26T09:00:09.999Z</time></trkpt><trkpt lat="43.036816384306874" lon="11.157247516028614"><ele>397.0</ele><time>2026-04-26T09:00:10.999Z</time></trkpt><trkpt lat="43.03683819867763" lon="11.157532920402364"><ele>396.33333333333337</ele><time>2026-04-26T09:00:11.999Z</time></trkpt><trkpt lat="43.03685962222836" lon="11.157817758354843"><ele>395.66666666666663</ele><time>2026-04-26T09:00:12.999Z</time></trkpt><trkpt lat="43.03689527507447" lon="11.158102354571787"><ele>395.0</ele><time>2026-04-26T09:00:13.999Z</time></trkpt><trkpt lat="43.036949330318336" lon="11.158385916991852"><ele>394.66666666666663</ele><time>2026-04-26T09:00:14.999Z</time></trkpt><trkpt lat="43.03700955024728" lon="11.158670069464439"><ele>394.33333333333337</ele><time>2026-04-26T09:00:15.999Z</time></trkpt><trkpt lat="43.03709087120041" lon="11.158948403844162"><ele>394.0</ele><time>2026-04-26T09:00:16.999Z</time></trkpt><trkpt lat="43.03717334948875" lon="11.159241781540153"><ele>393.0</ele><time>2026-04-26T09:00:17.999Z</time></trkpt><trkpt lat="43.03725088647609" lon="11.159518702162792"><ele>392.0</ele><time>2026-04-26T09:00:18.999Z</time></trkpt><trkpt lat="43.037330974720945" lon="11.159793960557014"><ele>391.0</ele><time>2026-04-26T09:00:19.999Z</time></trkpt><trkpt lat="43.03741982788253" lon="11.160065413559572"><ele>392.6666666666667</ele><time>2026-04-26T09:00:20.999Z</time></trkpt><trkpt lat="43.037501997950635" lon="11.160337647424887"><ele>394.33333333333337</ele><time>2026-04-26T09:00:21.999Z</time></trkpt><trkpt lat="43.037583897715706" lon="11.16059447617709"><ele>396.0</ele><time>2026-04-26T09:00:22.999Z</time></trkpt><trkpt lat="43.03766913522728" lon="11.160859701654525"><ele>396.0</ele><time>2026-04-26T09:00:23.999Z</time></trkpt><trkpt lat="43.037749037026465" lon="11.161115352394978"><ele>396.0</ele><time>2026-04-26T09:00:24.999Z</time></trkpt><trkpt lat="43.03783018927631" lon="11.161366659377089"><ele>396.0</ele><time>2026-04-26T09:00:25.999Z</time></trkpt><trkpt lat="43.03792113351588" lon="11.161621609483856"><ele>395.33333333333337</ele><time>2026-04-26T09:00:26.999Z</time></trkpt><trkpt lat="43.03801657666322" lon="11.161898118039373"><ele>394.6666666666667</ele><time>2026-04-26T09:00:27.999Z</time></trkpt><trkpt lat="43.038106248406955" lon="11.162173231123974"><ele>394.0</ele><time>2026-04-26T09:00:28.999Z</time></trkpt><trkpt lat="43.038196592141475" lon="11.162446737851095"><ele>394.0</ele><time>2026-04-26T09:00:29.999Z</time></trkpt><trkpt lat="43.03827886839041" lon="11.162725993474512"><ele>394.0</ele><time>2026-04-26T09:00:30.999Z</time></trkpt><trkpt lat="43.0383576608839" lon="11.162979306221176"><ele>394.0</ele><time>2026-04-26T09:00:31.999Z</time></trkpt><trkpt lat="43.038437487911025" lon="11.163209318255598"><ele>392.6666666666667</ele><time>2026-04-26T09:00:32.999Z</time></trkpt><trkpt lat="43.03851719957784" lon="11.1634448953814"><ele>391.33333333333337</ele><time>2026-04-26T09:00:33.999Z</time></trkpt><trkpt lat="43.03859367981033" lon="11.163669039204205"><ele>390.0</ele><time>2026-04-26T09:00:34.999Z</time></trkpt><trkpt lat="43.0386516653366" lon="11.1638888924229"><ele>390.0</ele><time>2026-04-26T09:00:35.999Z</time></trkpt><trkpt lat="43.03871749383318" lon="11.164093878173132"><ele>390.0</ele><time>2026-04-26T09:00:36.999Z</time></trkpt><trkpt lat="43.03876949104528" lon="11.164269642277553"><ele>390.0</ele><time>2026-04-26T09:00:37.999Z</time></trkpt><trkpt lat="43.03878984706984" lon="11.16439997237974"><ele>390.0</ele><time>2026-04-26T09:00:38.999Z</time></trkpt><trkpt lat="43.03881183538849" lon="11.164547972220891"><ele>390.0</ele><time>2026-04-26T09:00:39.999Z</time></trkpt><trkpt lat="43.03882382711381" lon="11.16468606735725"><ele>390.0</ele><time>2026-04-26T09:00:40.999Z</time></trkpt><trkpt lat="43.0388229205735" lon="11.164822533092442"><ele>390.0</ele><time>2026-04-26T09:00:41.999Z</time></trkpt><trkpt lat="43.03880212840777" lon="11.164950367517283"><ele>390.0</ele><time>2026-04-26T09:00:42.999Z</time></trkpt><trkpt lat="43.03876568981113" lon="11.165072201486952"><ele>390.0</ele><time>2026-04-26T09:00:43.999Z</time></trkpt><trkpt lat="43.03872243313103" lon="11.165181529893783"><ele>390.0</ele><time>2026-04-26T09:00:44.999Z</time></trkpt><trkpt lat="43.03867804173132" lon="11.1652875839715"><ele>390.0</ele><time>2026-04-26T09:00:45.999Z</time></trkpt><trkpt lat="43.03865149416184" lon="11.165386699249014"><ele>390.0</ele><time>2026-04-26T09:00:46.999Z</time></trkpt><trkpt lat="43.038638472302075" lon="11.165501117453642"><ele>390.0</ele><time>2026-04-26T09:00:47.999Z</time></trkpt><trkpt lat="43.03863731091067" lon="11.165624748789904"><ele>390.0</ele><time>2026-04-26T09:00:48.999Z</time></trkpt><trkpt lat="43.03863657390426" lon="11.165780648948429"><ele>390.5</ele><time>2026-04-26T09:00:49.999Z</time></trkpt><trkpt lat="43.03867527545973" lon="11.165915147781144"><ele>391.0</ele><time>2026-04-26T09:00:50.999Z</time></trkpt><trkpt lat="43.038741167490855" lon="11.16603073624775"><ele>391.5</ele><time>2026-04-26T09:00:51.999Z</time></trkpt><trkpt lat="43.03882899019953" lon="11.166140260232787"><ele>392.0</ele><time>2026-04-26T09:00:52.998Z</time></trkpt><trkpt lat="43.03892801349727" lon="11.1662758251461"><ele>392.0</ele><time>2026-04-26T09:00:53.998Z</time></trkpt><trkpt lat="43.03901215105097" lon="11.166440059606918"><ele>392.0</ele><time>2026-04-26T09:00:54.998Z</time></trkpt><trkpt lat="43.03908190988405" lon="11.166634398019001"><ele>392.0</ele><time>2026-04-26T09:00:55.998Z</time></trkpt><trkpt lat="43.039151130669346" lon="11.16682247821407"><ele>396.66666666666663</ele><time>2026-04-26T09:00:56.998Z</time></trkpt><trkpt lat="43.03923946220619" lon="11.167015561571073"><ele>401.33333333333337</ele><time>2026-04-26T09:00:57.998Z</time></trkpt><trkpt lat="43.039336875969475" lon="11.16719158524774"><ele>406.0</ele><time>2026-04-26T09:00:58.998Z</time></trkpt><trkpt lat="43.03945376535698" lon="11.167344127504974"><ele>405.33333333333337</ele><time>2026-04-26T09:00:59.998Z</time></trkpt><trkpt lat="43.03956319415033" lon="11.167503925538288"><ele>404.66666666666663</ele><time>2026-04-26T09:01:00.998Z</time></trkpt><trkpt lat="43.0396374394863" lon="11.167707825193048"><ele>404.0</ele><time>2026-04-26T09:01:01.998Z</time></trkpt><trkpt lat="43.039691693283565" lon="11.167917777429258"><ele>404.0</ele><time>2026-04-26T09:01:02.998Z</time></trkpt><trkpt lat="43.03973122295075" lon="11.168127670111273"><ele>404.0</ele><time>2026-04-26T09:01:03.998Z</time></trkpt><trkpt lat="43.039754824729144" lon="11.168379646768704"><ele>404.0</ele><time>2026-04-26T09:01:04.998Z</time></trkpt><trkpt lat="43.03980268568781" lon="11.168607851907023"><ele>405.66666666666663</ele><time>2026-04-26T09:01:05.998Z</time></trkpt><trkpt lat="43.03985905370296" lon="11.168826095325942"><ele>407.33333333333337</ele><time>2026-04-26T09:01:06.998Z</time></trkpt><trkpt lat="43.03992562510308" lon="11.169045722165283"><ele>409.0</ele><time>2026-04-26T09:01:07.998Z</time></trkpt><trkpt lat="43.03999964254574" lon="11.169262254505385"><ele>409.0</ele><time>2026-04-26T09:01:08.998Z</time></trkpt><trkpt lat="43.040107931770905" lon="11.16947083185874"><ele>409.0</ele><time>2026-04-26T09:01:09.998Z</time></trkpt><trkpt lat="43.040212521539274" lon="11.169659233594816"><ele>409.0</ele><time>2026-04-26T09:01:10.998Z</time></trkpt><trkpt lat="43.04033697390432" lon="11.169838029320818"><ele>405.0</ele><time>2026-04-26T09:01:11.998Z</time></trkpt><trkpt lat="43.04046877104396" lon="11.170009853497987"><ele>401.0</ele><time>2026-04-26T09:01:12.998Z</time></trkpt><trkpt lat="43.040602307818695" lon="11.170181770379205"><ele>397.0</ele><time>2026-04-26T09:01:13.998Z</time></trkpt><trkpt lat="43.04072912357377" lon="11.170362793629034"><ele>402.33333333333337</ele><time>2026-04-26T09:01:14.998Z</time></trkpt><trkpt lat="43.04083652971732" lon="11.170554531996899"><ele>407.66666666666663</ele><time>2026-04-26T09:01:15.998Z</time></trkpt><trkpt lat="43.0409007818308" lon="11.170758182358988"><ele>413.0</ele><time>2026-04-26T09:01:16.998Z</time></trkpt><trkpt lat="43.04094779818758" lon="11.170961324425162"><ele>413.0</ele><time>2026-04-26T09:01:18Z</time></trkpt><trkpt lat="43.04104327220874" lon="11.171134959181575"><ele>413.0</ele><time>2026-04-26T09:01:19Z</time></trkpt><trkpt lat="43.041165969279135" lon="11.171267617417431"><ele>413.0</ele><time>2026-04-26T09:01:20Z</time></trkpt><trkpt lat="43.04129779131425" lon="11.171373817474446"><ele>413.0</ele><time>2026-04-26T09:01:21Z</time></trkpt><trkpt lat="43.041443201053745" lon="11.171424946543537"><ele>413.0</ele><time>2026-04-26T09:01:22Z</time></trkpt><trkpt lat="43.04159313279746" lon="11.171429392285463"><ele>413.0</ele><time>2026-04-26T09:01:23Z</time></trkpt><trkpt lat="43.04174431763574" lon="11.171421504357463"><ele>414.3333333333333</ele><time>2026-04-26T09:01:24Z</time></trkpt><trkpt lat="43.041902592647865" lon="11.171443636782266"><ele>415.66666666666663</ele><time>2026-04-26T09:01:25Z</time></trkpt><trkpt lat="43.04206335939263" lon="11.171512460593675"><ele>417.0</ele><time>2026-04-26T09:01:26Z</time></trkpt><trkpt lat="43.04220909070174" lon="11.171620440240797"><ele>417.0</ele><time>2026-04-26T09:01:27Z</time></trkpt><trkpt lat="43.042357844510214" lon="11.171688323658879"><ele>417.0</ele><time>2026-04-26T09:01:28Z</time></trkpt><trkpt lat="43.04251458747029" lon="11.171722739971026"><ele>417.0</ele><time>2026-04-26T09:01:29Z</time></trkpt><trkpt lat="43.04268051130407" lon="11.171719731103712"><ele>419.33333333333337</ele><time>2026-04-26T09:01:30Z</time></trkpt><trkpt lat="43.042843192142556" lon="11.171693174506446"><ele>421.6666666666667</ele><time>2026-04-26T09:01:31Z</time></trkpt><trkpt lat="43.04301439931766" lon="11.171676413532426"><ele>424.0</ele><time>2026-04-26T09:01:32Z</time></trkpt><trkpt lat="43.043206874834986" lon="11.171699249060635"><ele>426.0</ele><time>2026-04-26T09:01:33Z</time></trkpt><trkpt lat="43.04338196660927" lon="11.171728106996463"><ele>428.0</ele><time>2026-04-26T09:01:34Z</time></trkpt><trkpt lat="43.04354809033924" lon="11.171759966014662"><ele>430.0</ele><time>2026-04-26T09:01:35Z</time></trkpt><trkpt lat="43.043710994038115" lon="11.17180391164678"><ele>430.0</ele><time>2026-04-26T09:01:36Z</time></trkpt><trkpt lat="43.04386474687974" lon="11.171836552990838"><ele>430.0</ele><time>2026-04-26T09:01:37Z</time></trkpt><trkpt lat="43.044015583095955" lon="11.171869593155"><ele>430.0</ele><time>2026-04-26T09:01:38Z</time></trkpt><trkpt lat="43.04416594223921" lon="11.171873893135086"><ele>431.25</ele><time>2026-04-26T09:01:39Z</time></trkpt><trkpt lat="43.04429264255796" lon="11.171805677586859"><ele>432.5</ele><time>2026-04-26T09:01:40Z</time></trkpt><trkpt lat="43.04440986604613" lon="11.171689583013112"><ele>433.75</ele><time>2026-04-26T09:01:41Z</time></trkpt><trkpt lat="43.04453530208354" lon="11.17158234309331"><ele>435.0</ele><time>2026-04-26T09:01:42Z</time></trkpt><trkpt lat="43.044673693870806" lon="11.1714947333504"><ele>438.66666666666663</ele><time>2026-04-26T09:01:43Z</time></trkpt><trkpt lat="43.04480417248668" lon="11.171384632011206"><ele>442.3333333333333</ele><time>2026-04-26T09:01:44Z</time></trkpt><trkpt lat="43.044927015400695" lon="11.171239542378059"><ele>446.0</ele><time>2026-04-26T09:01:45Z</time></trkpt><trkpt lat="43.04504419922962" lon="11.171093639564887"><ele>446.0</ele><time>2026-04-26T09:01:46Z</time></trkpt><trkpt lat="43.04517462549533" lon="11.170964755053584"><ele>446.0</ele><time>2026-04-26T09:01:47Z</time></trkpt><trkpt lat="43.045321173368585" lon="11.170848390547297"><ele>446.0</ele><time>2026-04-26T09:01:48Z</time></trkpt><trkpt lat="43.045475506830826" lon="11.170750895744888"><ele>450.66666666666663</ele><time>2026-04-26T09:01:49Z</time></trkpt><trkpt lat="43.04564501356217" lon="11.17067614542486"><ele>455.33333333333337</ele><time>2026-04-26T09:01:50Z</time></trkpt><trkpt lat="43.04581226928599" lon="11.170641948291705"><ele>460.0</ele><time>2026-04-26T09:01:51Z</time></trkpt><trkpt lat="43.04598888305556" lon="11.170596551135809"><ele>460.0</ele><time>2026-04-26T09:01:52Z</time></trkpt><trkpt lat="43.04614988102869" lon="11.170503858694218"><ele>460.0</ele><time>2026-04-26T09:01:53Z</time></trkpt><trkpt lat="43.046281280789074" lon="11.170374382270191"><ele>460.0</ele><time>2026-04-26T09:01:54Z</time></trkpt><trkpt lat="43.046413115097636" lon="11.170274116141677"><ele>460.0</ele><time>2026-04-26T09:01:55Z</time></trkpt><trkpt lat="43.04655656349338" lon="11.170232466448075"><ele>460.0</ele><time>2026-04-26T09:01:56Z</time></trkpt><trkpt lat="43.04668293468844" lon="11.17025934572802"><ele>460.0</ele><time>2026-04-26T09:01:57Z</time></trkpt><trkpt lat="43.04679195160724" lon="11.170312130095473"><ele>460.0</ele><time>2026-04-26T09:01:58Z</time></trkpt><trkpt lat="43.04691363175639" lon="11.170441673167202"><ele>458.33333333333337</ele><time>2026-04-26T09:01:59Z</time></trkpt><trkpt lat="43.04706883734818" lon="11.170531063031202"><ele>456.66666666666663</ele><time>2026-04-26T09:02:00Z</time></trkpt><trkpt lat="43.0472343211265" lon="11.170556387172056"><ele>455.0</ele><time>2026-04-26T09:02:01Z</time></trkpt><trkpt lat="43.04740247929576" lon="11.170641888652064"><ele>455.3333333333333</ele><time>2026-04-26T09:02:02Z</time></trkpt><trkpt lat="43.04758135942515" lon="11.170704026638198"><ele>455.66666666666663</ele><time>2026-04-26T09:02:03Z</time></trkpt><trkpt lat="43.04775943168395" lon="11.170672709316749"><ele>456.0</ele><time>2026-04-26T09:02:04Z</time></trkpt><trkpt lat="43.04794183385634" lon="11.170617268888467"><ele>456.0</ele><time>2026-04-26T09:02:04.999Z</time></trkpt><trkpt lat="43.048124626827764" lon="11.170545636333475"><ele>456.0</ele><time>2026-04-26T09:02:05.999Z</time></trkpt><trkpt lat="43.048295950846665" lon="11.170411627282256"><ele>456.0</ele><time>2026-04-26T09:02:06.999Z</time></trkpt><trkpt lat="43.048492727719506" lon="11.170298859003545"><ele>455.66666666666663</ele><time>2026-04-26T09:02:07.999Z</time></trkpt><trkpt lat="43.0486724540502" lon="11.170191607213868"><ele>455.3333333333333</ele><time>2026-04-26T09:02:08.999Z</time></trkpt><trkpt lat="43.04884377168431" lon="11.170066590617868"><ele>455.0</ele><time>2026-04-26T09:02:09.999Z</time></trkpt><trkpt lat="43.049009127860614" lon="11.169920796255255"><ele>457.66666666666663</ele><time>2026-04-26T09:02:10.999Z</time></trkpt><trkpt lat="43.049172223507185" lon="11.169781940040492"><ele>460.33333333333337</ele><time>2026-04-26T09:02:11.999Z</time></trkpt><trkpt lat="43.04934843655897" lon="11.169660964752287"><ele>463.0</ele><time>2026-04-26T09:02:12.999Z</time></trkpt><trkpt lat="43.04951999775855" lon="11.169544820478572"><ele>463.0</ele><time>2026-04-26T09:02:13.999Z</time></trkpt><trkpt lat="43.04967733277547" lon="11.169405796141444"><ele>463.0</ele><time>2026-04-26T09:02:14.999Z</time></trkpt><trkpt lat="43.04983125955029" lon="11.169275039031778"><ele>463.0</ele><time>2026-04-26T09:02:15.999Z</time></trkpt><trkpt lat="43.0499737241647" lon="11.169156573844122"><ele>464.0</ele><time>2026-04-26T09:02:16.999Z</time></trkpt><trkpt lat="43.050103538887306" lon="11.169032328550529"><ele>465.0</ele><time>2026-04-26T09:02:17.999Z</time></trkpt><trkpt lat="43.050210657262205" lon="11.168878697368038"><ele>466.0</ele><time>2026-04-26T09:02:18.999Z</time></trkpt><trkpt lat="43.05030741015724" lon="11.168682168480615"><ele>466.0</ele><time>2026-04-26T09:02:19.999Z</time></trkpt><trkpt lat="43.05038226894913" lon="11.16846460787328"><ele>466.0</ele><time>2026-04-26T09:02:20.999Z</time></trkpt><trkpt lat="43.0504575973696" lon="11.168234760759033"><ele>466.0</ele><time>2026-04-26T09:02:21.999Z</time></trkpt><trkpt lat="43.05055149293279" lon="11.16800570695601"><ele>462.6666666666667</ele><time>2026-04-26T09:02:22.999Z</time></trkpt><trkpt lat="43.050665541169096" lon="11.16780791340524"><ele>459.33333333333337</ele><time>2026-04-26T09:02:23.999Z</time></trkpt><trkpt lat="43.05074046142878" lon="11.167577823791916"><ele>456.0</ele><time>2026-04-26T09:02:24.999Z</time></trkpt><trkpt lat="43.05081045415936" lon="11.167325894422827"><ele>456.0</ele><time>2026-04-26T09:02:25.999Z</time></trkpt><trkpt lat="43.05087220597268" lon="11.167073559957098"><ele>456.0</ele><time>2026-04-26T09:02:26.999Z</time></trkpt><trkpt lat="43.05098423017509" lon="11.16683922200969"><ele>456.0</ele><time>2026-04-26T09:02:27.999Z</time></trkpt><trkpt lat="43.05110096002504" lon="11.166623578528126"><ele>459.0</ele><time>2026-04-26T09:02:28.999Z</time></trkpt><trkpt lat="43.05120109070333" lon="11.166435024669775"><ele>462.0</ele><time>2026-04-26T09:02:29.999Z</time></trkpt><trkpt lat="43.05131154302384" lon="11.166244655396712"><ele>465.0</ele><time>2026-04-26T09:02:30.999Z</time></trkpt><trkpt lat="43.05143916794022" lon="11.166049216624025"><ele>465.0</ele><time>2026-04-26T09:02:31.999Z</time></trkpt><trkpt lat="43.051579217354934" lon="11.16588485741914"><ele>465.0</ele><time>2026-04-26T09:02:32.999Z</time></trkpt><trkpt lat="43.05172808491493" lon="11.165740043748388"><ele>465.0</ele><time>2026-04-26T09:02:33.999Z</time></trkpt><trkpt lat="43.051878901180075" lon="11.165639054703327"><ele>464.33333333333337</ele><time>2026-04-26T09:02:34.999Z</time></trkpt><trkpt lat="43.052017932915874" lon="11.165582466858503"><ele>463.6666666666667</ele><time>2026-04-26T09:02:35.999Z</time></trkpt><trkpt lat="43.05216345419936" lon="11.165593782247235"><ele>463.0</ele><time>2026-04-26T09:02:36.999Z</time></trkpt><trkpt lat="43.05232224759795" lon="11.165634306897362"><ele>460.6666666666667</ele><time>2026-04-26T09:02:37.999Z</time></trkpt><trkpt lat="43.05248677554962" lon="11.165669919520779"><ele>458.33333333333337</ele><time>2026-04-26T09:02:38.999Z</time></trkpt><trkpt lat="43.05266325044519" lon="11.16566532212511"><ele>456.0</ele><time>2026-04-26T09:02:39.999Z</time></trkpt><trkpt lat="43.05285235194813" lon="11.165646551078389"><ele>456.0</ele><time>2026-04-26T09:02:40.999Z</time></trkpt><trkpt lat="43.05302334197248" lon="11.165607947112038"><ele>456.0</ele><time>2026-04-26T09:02:41.999Z</time></trkpt><trkpt lat="43.053161909536406" lon="11.165522580599927"><ele>456.0</ele><time>2026-04-26T09:02:42.999Z</time></trkpt><trkpt lat="43.053270109318774" lon="11.16538619291798"><ele>452.33333333333337</ele><time>2026-04-26T09:02:43.999Z</time></trkpt><trkpt lat="43.05339284014961" lon="11.165253173584157"><ele>448.6666666666667</ele><time>2026-04-26T09:02:44.999Z</time></trkpt><trkpt lat="43.05355819492944" lon="11.165134435698768"><ele>445.0</ele><time>2026-04-26T09:02:45.999Z</time></trkpt><trkpt lat="43.05370684460459" lon="11.164999896043062"><ele>445.0</ele><time>2026-04-26T09:02:46.999Z</time></trkpt><trkpt lat="43.053888388536116" lon="11.164907847677142"><ele>445.0</ele><time>2026-04-26T09:02:47.999Z</time></trkpt><trkpt lat="43.054041860642606" lon="11.164855332838169"><ele>445.0</ele><time>2026-04-26T09:02:48.999Z</time></trkpt><trkpt lat="43.05419599764432" lon="11.16483099714756"><ele>442.75</ele><time>2026-04-26T09:02:49.999Z</time></trkpt><trkpt lat="43.05432607565859" lon="11.164899179389808"><ele>440.5</ele><time>2026-04-26T09:02:50.999Z</time></trkpt><trkpt lat="43.05441442589855" lon="11.16501857355105"><ele>438.25</ele><time>2026-04-26T09:02:51.999Z</time></trkpt><trkpt lat="43.054469436779314" lon="11.165204998026827"><ele>436.0</ele><time>2026-04-26T09:02:52.999Z</time></trkpt><trkpt lat="43.05447205355928" lon="11.16540331797726"><ele>436.0</ele><time>2026-04-26T09:02:53.999Z</time></trkpt><trkpt lat="43.05453071041942" lon="11.165560730200523"><ele>436.0</ele><time>2026-04-26T09:02:54.999Z</time></trkpt><trkpt lat="43.05464424678108" lon="11.165656278859233"><ele>436.0</ele><time>2026-04-26T09:02:55.999Z</time></trkpt><trkpt lat="43.0547899895926" lon="11.16569223960868"><ele>436.0</ele><time>2026-04-26T09:02:56.999Z</time></trkpt><trkpt lat="43.054937218431874" lon="11.165680874839197"><ele>436.6666666666667</ele><time>2026-04-26T09:02:57.999Z</time></trkpt><trkpt lat="43.05508901723553" lon="11.165638046963968"><ele>437.33333333333337</ele><time>2026-04-26T09:02:58.999Z</time></trkpt><trkpt lat="43.05525408670868" lon="11.165564201515913"><ele>438.0</ele><time>2026-04-26T09:02:59.999Z</time></trkpt><trkpt lat="43.05542520321262" lon="11.165500243674646"><ele>438.0</ele><time>2026-04-26T09:03:00.999Z</time></trkpt><trkpt lat="43.055607890176" lon="11.165429537063892"><ele>438.0</ele><time>2026-04-26T09:03:01.999Z</time></trkpt><trkpt lat="43.05578721106304" lon="11.165342072302266"><ele>438.0</ele><time>2026-04-26T09:03:02.998Z</time></trkpt><trkpt lat="43.055965850402444" lon="11.165232185192101"><ele>438.0</ele><time>2026-04-26T09:03:03.998Z</time></trkpt><trkpt lat="43.05614212529482" lon="11.165108175587857"><ele>438.0</ele><time>2026-04-26T09:03:04.998Z</time></trkpt><trkpt lat="43.05631886099901" lon="11.164996529776136"><ele>438.0</ele><time>2026-04-26T09:03:05.998Z</time></trkpt><trkpt lat="43.05650560414602" lon="11.164899066762468"><ele>437.33333333333337</ele><time>2026-04-26T09:03:06.998Z</time></trkpt><trkpt lat="43.056699221526216" lon="11.164808144719814"><ele>436.6666666666667</ele><time>2026-04-26T09:03:07.998Z</time></trkpt><trkpt lat="43.0568973536575" lon="11.16472537678076"><ele>436.0</ele><time>2026-04-26T09:03:08.998Z</time></trkpt><trkpt lat="43.05709471977792" lon="11.164630541475033"><ele>436.0</ele><time>2026-04-26T09:03:09.998Z</time></trkpt><trkpt lat="43.05729534415783" lon="11.164540549193527"><ele>436.0</ele><time>2026-04-26T09:03:10.998Z</time></trkpt><trkpt lat="43.05749968725011" lon="11.164451135834122"><ele>436.0</ele><time>2026-04-26T09:03:11.998Z</time></trkpt><trkpt lat="43.05769828621004" lon="11.164366318422237"><ele>433.6666666666667</ele><time>2026-04-26T09:03:12.998Z</time></trkpt><trkpt lat="43.05789581778524" lon="11.164279927902186"><ele>431.33333333333337</ele><time>2026-04-26T09:03:13.998Z</time></trkpt><trkpt lat="43.05809572264735" lon="11.16418791335207"><ele>429.0</ele><time>2026-04-26T09:03:14.998Z</time></trkpt><trkpt lat="43.05830149154157" lon="11.164082895103196"><ele>430.33333333333337</ele><time>2026-04-26T09:03:15.998Z</time></trkpt><trkpt lat="43.05850611394807" lon="11.163984654845992"><ele>431.6666666666667</ele><time>2026-04-26T09:03:16.998Z</time></trkpt><trkpt lat="43.05869956195275" lon="11.163886870569186"><ele>433.0</ele><time>2026-04-26T09:03:17.998Z</time></trkpt><trkpt lat="43.05890481582661" lon="11.16379041500391"><ele>433.0</ele><time>2026-04-26T09:03:18.998Z</time></trkpt><trkpt lat="43.059110734508856" lon="11.163705012972759"><ele>433.0</ele><time>2026-04-26T09:03:19.998Z</time></trkpt><trkpt lat="43.059309686385284" lon="11.163605050316214"><ele>433.0</ele><time>2026-04-26T09:03:20.998Z</time></trkpt><trkpt lat="43.059512332369536" lon="11.163534879175774"><ele>431.0</ele><time>2026-04-26T09:03:21.998Z</time></trkpt><trkpt lat="43.05970179952343" lon="11.163463211093271"><ele>429.0</ele><time>2026-04-26T09:03:22.998Z</time></trkpt><trkpt lat="43.059886891143435" lon="11.163401720410324"><ele>427.0</ele><time>2026-04-26T09:03:24Z</time></trkpt><trkpt lat="43.06007209696208" lon="11.163378051834382"><ele>425.0</ele><time>2026-04-26T09:03:25Z</time></trkpt><trkpt lat="43.060259750212786" lon="11.16342794573909"><ele>423.0</ele><time>2026-04-26T09:03:26Z</time></trkpt><trkpt lat="43.06043063241557" lon="11.163520623039528"><ele>421.0</ele><time>2026-04-26T09:03:27Z</time></trkpt><trkpt lat="43.060604977501626" lon="11.163562916393985"><ele>421.0</ele><time>2026-04-26T09:03:28Z</time></trkpt><trkpt lat="43.06077089391672" lon="11.163548666505436"><ele>421.0</ele><time>2026-04-26T09:03:29Z</time></trkpt><trkpt lat="43.060905036031784" lon="11.163488329481114"><ele>421.0</ele><time>2026-04-26T09:03:30Z</time></trkpt><trkpt lat="43.06103678592085" lon="11.163362031397252"><ele>420.6666666666667</ele><time>2026-04-26T09:03:31Z</time></trkpt><trkpt lat="43.06115751599255" lon="11.163197997664014"><ele>420.33333333333337</ele><time>2026-04-26T09:03:32Z</time></trkpt><trkpt lat="43.06127078321444" lon="11.163043792598765"><ele>420.0</ele><time>2026-04-26T09:03:33Z</time></trkpt><trkpt lat="43.06139549091636" lon="11.162866823602224"><ele>420.0</ele><time>2026-04-26T09:03:34Z</time></trkpt><trkpt lat="43.06150973034719" lon="11.162695882650604"><ele>420.0</ele><time>2026-04-26T09:03:35Z</time></trkpt><trkpt lat="43.06158224922946" lon="11.162477215699264"><ele>420.0</ele><time>2026-04-26T09:03:36Z</time></trkpt><trkpt lat="43.06164151196053" lon="11.162251198307455"><ele>418.0</ele><time>2026-04-26T09:03:37Z</time></trkpt><trkpt lat="43.06165772710815" lon="11.162001141210826"><ele>416.0</ele><time>2026-04-26T09:03:38Z</time></trkpt><trkpt lat="43.0616651801698" lon="11.16174557634237"><ele>414.0</ele><time>2026-04-26T09:03:39Z</time></trkpt><trkpt lat="43.0617017046973" lon="11.161513255729197"><ele>414.0</ele><time>2026-04-26T09:03:40Z</time></trkpt><trkpt lat="43.061758540765254" lon="11.161269132527288"><ele>414.0</ele><time>2026-04-26T09:03:41Z</time></trkpt><trkpt lat="43.06184321962026" lon="11.161043563232669"><ele>414.0</ele><time>2026-04-26T09:03:42Z</time></trkpt><trkpt lat="43.06190926101432" lon="11.1608063001125"><ele>416.66666666666663</ele><time>2026-04-26T09:03:43Z</time></trkpt><trkpt lat="43.061970545764495" lon="11.160595981475097"><ele>419.3333333333333</ele><time>2026-04-26T09:03:44Z</time></trkpt><trkpt lat="43.06208227159733" lon="11.16043130824227"><ele>422.0</ele><time>2026-04-26T09:03:45Z</time></trkpt><trkpt lat="43.06220607141489" lon="11.160301510917762"><ele>422.0</ele><time>2026-04-26T09:03:46Z</time></trkpt><trkpt lat="43.06236688869417" lon="11.160244135504282"><ele>422.0</ele><time>2026-04-26T09:03:47Z</time></trkpt><trkpt lat="43.06251278657384" lon="11.16025921685433"><ele>422.0</ele><time>2026-04-26T09:03:48Z</time></trkpt><trkpt lat="43.06266551489045" lon="11.160327058875627"><ele>420.0</ele><time>2026-04-26T09:03:49Z</time></trkpt><trkpt lat="43.06283573110262" lon="11.160370749903883"><ele>418.0</ele><time>2026-04-26T09:03:50Z</time></trkpt><trkpt lat="43.063034441400994" lon="11.160395783442283"><ele>416.0</ele><time>2026-04-26T09:03:51Z</time></trkpt><trkpt lat="43.063233137472466" lon="11.16036025748358"><ele>415.66666666666663</ele><time>2026-04-26T09:03:52Z</time></trkpt><trkpt lat="43.06345231208094" lon="11.160353024202871"><ele>415.33333333333337</ele><time>2026-04-26T09:03:53Z</time></trkpt><trkpt lat="43.063655368197054" lon="11.160310823780797"><ele>415.0</ele><time>2026-04-26T09:03:54Z</time></trkpt><trkpt lat="43.06385315370688" lon="11.160273095975466"><ele>415.0</ele><time>2026-04-26T09:03:55Z</time></trkpt><trkpt lat="43.06404067107268" lon="11.160232608407185"><ele>415.0</ele><time>2026-04-26T09:03:56Z</time></trkpt><trkpt lat="43.06419114430429" lon="11.160175646036532"><ele>415.0</ele><time>2026-04-26T09:03:57Z</time></trkpt><trkpt lat="43.06432515692565" lon="11.160069117746952"><ele>415.25</ele><time>2026-04-26T09:03:58Z</time></trkpt><trkpt lat="43.06441786263042" lon="11.159917512869082"><ele>415.5</ele><time>2026-04-26T09:03:59Z</time></trkpt><trkpt lat="43.06447420748656" lon="11.159729410559853"><ele>415.75</ele><time>2026-04-26T09:04:00Z</time></trkpt><trkpt lat="43.06450177382942" lon="11.159527251631502"><ele>416.0</ele><time>2026-04-26T09:04:01Z</time></trkpt><trkpt lat="43.064527358233484" lon="11.15931327982391"><ele>416.0</ele><time>2026-04-26T09:04:02Z</time></trkpt><trkpt lat="43.06453191159156" lon="11.159089934576645"><ele>416.0</ele><time>2026-04-26T09:04:03Z</time></trkpt><trkpt lat="43.064561553715905" lon="11.158883058413172"><ele>416.0</ele><time>2026-04-26T09:04:04Z</time></trkpt><trkpt lat="43.064602828505755" lon="11.158717196994775"><ele>416.0</ele><time>2026-04-26T09:04:05Z</time></trkpt><trkpt lat="43.064683486474635" lon="11.158588599195802"><ele>416.75</ele><time>2026-04-26T09:04:06Z</time></trkpt><trkpt lat="43.06479771623004" lon="11.158515944771734"><ele>417.5</ele><time>2026-04-26T09:04:07Z</time></trkpt><trkpt lat="43.06491053897014" lon="11.158455716821212"><ele>418.25</ele><time>2026-04-26T09:04:08Z</time></trkpt><trkpt lat="43.065025861142885" lon="11.158370642894507"><ele>419.0</ele><time>2026-04-26T09:04:09Z</time></trkpt><trkpt lat="43.06513780828581" lon="11.158250559521322"><ele>419.0</ele><time>2026-04-26T09:04:10Z</time></trkpt><trkpt lat="43.065219173859994" lon="11.158116838545956"><ele>419.0</ele><time>2026-04-26T09:04:11Z</time></trkpt><trkpt lat="43.065271667214304" lon="11.157957438058935"><ele>419.0</ele><time>2026-04-26T09:04:12Z</time></trkpt><trkpt lat="43.065287655274965" lon="11.157774556208782"><ele>419.0</ele><time>2026-04-26T09:04:12.999Z</time></trkpt><trkpt lat="43.06525618924846" lon="11.157587074266738"><ele>419.0</ele><time>2026-04-26T09:04:13.999Z</time></trkpt><trkpt lat="43.06523076033569" lon="11.15738815178841"><ele>419.0</ele><time>2026-04-26T09:04:14.999Z</time></trkpt><trkpt lat="43.06519174951823" lon="11.157183562675854"><ele>419.0</ele><time>2026-04-26T09:04:15.999Z</time></trkpt><trkpt lat="43.06515391933115" lon="11.156976780257795"><ele>419.3333333333333</ele><time>2026-04-26T09:04:16.999Z</time></trkpt><trkpt lat="43.065114427075315" lon="11.156756452162291"><ele>419.66666666666663</ele><time>2026-04-26T09:04:17.999Z</time></trkpt><trkpt lat="43.06507543620583" lon="11.156528216618264"><ele>420.0</ele><time>2026-04-26T09:04:18.999Z</time></trkpt><trkpt lat="43.065034989877965" lon="11.156291461437297"><ele>420.0</ele><time>2026-04-26T09:04:19.999Z</time></trkpt><trkpt lat="43.06499243738024" lon="11.156049839256207"><ele>420.0</ele><time>2026-04-26T09:04:20.999Z</time></trkpt><trkpt lat="43.06494892943249" lon="11.155810940926571"><ele>420.0</ele><time>2026-04-26T09:04:21.999Z</time></trkpt><trkpt lat="43.06490335128842" lon="11.155578033259925"><ele>427.0</ele><time>2026-04-26T09:04:22.999Z</time></trkpt><trkpt lat="43.064829386991356" lon="11.155351564010934"><ele>434.0</ele><time>2026-04-26T09:04:23.999Z</time></trkpt><trkpt lat="43.064745708109264" lon="11.155146079328706"><ele>441.0</ele><time>2026-04-26T09:04:24.999Z</time></trkpt><trkpt lat="43.064663816731226" lon="11.154951186571521"><ele>442.75</ele><time>2026-04-26T09:04:25.999Z</time></trkpt><trkpt lat="43.064622255401716" lon="11.154762569642243"><ele>444.5</ele><time>2026-04-26T09:04:26.999Z</time></trkpt><trkpt lat="43.06461677240762" lon="11.154599634150678"><ele>446.25</ele><time>2026-04-26T09:04:27.999Z</time></trkpt><trkpt lat="43.06464988324582" lon="11.154467577165443"><ele>448.0</ele><time>2026-04-26T09:04:28.999Z</time></trkpt><trkpt lat="43.06473061289231" lon="11.15442390683693"><ele>448.0</ele><time>2026-04-26T09:04:29.999Z</time></trkpt><trkpt lat="43.06480298771997" lon="11.154372409752714"><ele>447.99999999999994</ele><time>2026-04-26T09:04:30.999Z</time></trkpt><trkpt lat="43.064889620732146" lon="11.154318623665842"><ele>447.99999999999994</ele><time>2026-04-26T09:04:31.999Z</time></trkpt><trkpt lat="43.06499550318982" lon="11.154261215975165"><ele>448.0</ele><time>2026-04-26T09:04:32.999Z</time></trkpt><trkpt lat="43.06512034555583" lon="11.154278964943625"><ele>448.0</ele><time>2026-04-26T09:04:33.999Z</time></trkpt><trkpt lat="43.065244922276534" lon="11.154354481944289"><ele>442.0</ele><time>2026-04-26T09:04:34.999Z</time></trkpt><trkpt lat="43.06536299860091" lon="11.154464619465907"><ele>436.0</ele><time>2026-04-26T09:04:35.999Z</time></trkpt><trkpt lat="43.065484863994435" lon="11.15455927131146"><ele>430.0</ele><time>2026-04-26T09:04:36.999Z</time></trkpt><trkpt lat="43.0656133382923" lon="11.154659769529246"><ele>424.0</ele><time>2026-04-26T09:04:37.999Z</time></trkpt><trkpt lat="43.06573948692486" lon="11.154757094465438"><ele>423.33333333333337</ele><time>2026-04-26T09:04:38.999Z</time></trkpt><trkpt lat="43.06590619729039" lon="11.154878510088997"><ele>422.66666666666663</ele><time>2026-04-26T09:04:39.999Z</time></trkpt><trkpt lat="43.06609634959136" lon="11.154953074756653"><ele>422.0</ele><time>2026-04-26T09:04:40.999Z</time></trkpt><trkpt lat="43.066276920933184" lon="11.154950924714202"><ele>422.0</ele><time>2026-04-26T09:04:41.999Z</time></trkpt><trkpt lat="43.06642028605046" lon="11.154895242276769"><ele>422.0</ele><time>2026-04-26T09:04:42.999Z</time></trkpt><trkpt lat="43.066519594578104" lon="11.154803527114083"><ele>422.0</ele><time>2026-04-26T09:04:43.999Z</time></trkpt><trkpt lat="43.06659378152375" lon="11.154667850372567"><ele>422.0</ele><time>2026-04-26T09:04:44.999Z</time></trkpt><trkpt lat="43.06665216152486" lon="11.154490771137782"><ele>426.3333333333333</ele><time>2026-04-26T09:04:45.999Z</time></trkpt><trkpt lat="43.06673440814792" lon="11.154343521410908"><ele>430.66666666666663</ele><time>2026-04-26T09:04:46.999Z</time></trkpt><trkpt lat="43.066847970343176" lon="11.15418948521258"><ele>435.0</ele><time>2026-04-26T09:04:47.999Z</time></trkpt><trkpt lat="43.066986650841756" lon="11.154085736714247"><ele>441.0</ele><time>2026-04-26T09:04:48.999Z</time></trkpt><trkpt lat="43.067123527932445" lon="11.154020468290438"><ele>447.0</ele><time>2026-04-26T09:04:49.999Z</time></trkpt><trkpt lat="43.06724034564165" lon="11.15389951368461"><ele>453.0</ele><time>2026-04-26T09:04:50.999Z</time></trkpt><trkpt lat="43.06738968384955" lon="11.153813256770428"><ele>448.0</ele><time>2026-04-26T09:04:51.999Z</time></trkpt><trkpt lat="43.06752823630168" lon="11.15371795968823"><ele>443.0</ele><time>2026-04-26T09:04:52.999Z</time></trkpt><trkpt lat="43.06764658445329" lon="11.153576251701253"><ele>438.0</ele><time>2026-04-26T09:04:53.999Z</time></trkpt><trkpt lat="43.06772753861559" lon="11.15341412937268"><ele>438.0</ele><time>2026-04-26T09:04:54.999Z</time></trkpt><trkpt lat="43.067758804871715" lon="11.153236446509947"><ele>437.99999999999994</ele><time>2026-04-26T09:04:55.999Z</time></trkpt><trkpt lat="43.06778902552649" lon="11.153102557102091"><ele>437.99999999999994</ele><time>2026-04-26T09:04:56.999Z</time></trkpt><trkpt lat="43.0678494319779" lon="11.152997067478154"><ele>438.0</ele><time>2026-04-26T09:04:57.999Z</time></trkpt><trkpt lat="43.067935964151644" lon="11.152985986680992"><ele>438.0</ele><time>2026-04-26T09:04:58.999Z</time></trkpt><trkpt lat="43.06802517208955" lon="11.153003032608227"><ele>439.5</ele><time>2026-04-26T09:04:59.999Z</time></trkpt><trkpt lat="43.06812249893998" lon="11.153032404342964"><ele>441.0</ele><time>2026-04-26T09:05:00.999Z</time></trkpt><trkpt lat="43.06824416650376" lon="11.153077620682316"><ele>442.5</ele><time>2026-04-26T09:05:01.999Z</time></trkpt><trkpt lat="43.06836410857078" lon="11.153124133327486"><ele>444.0</ele><time>2026-04-26T09:05:02.999Z</time></trkpt><trkpt lat="43.06848184172114" lon="11.153185114596905"><ele>439.75</ele><time>2026-04-26T09:05:03.999Z</time></trkpt><trkpt lat="43.06860290575212" lon="11.153270232124797"><ele>435.5</ele><time>2026-04-26T09:05:04.999Z</time></trkpt><trkpt lat="43.06871282238141" lon="11.153356887010842"><ele>431.25</ele><time>2026-04-26T09:05:05.999Z</time></trkpt><trkpt lat="43.068823169892354" lon="11.153446849035516"><ele>427.0</ele><time>2026-04-26T09:05:06.999Z</time></trkpt><trkpt lat="43.068995857409334" lon="11.153492959384819"><ele>426.6666666666667</ele><time>2026-04-26T09:05:07.999Z</time></trkpt><trkpt lat="43.06915960975608" lon="11.15340693216644"><ele>426.33333333333337</ele><time>2026-04-26T09:05:08.999Z</time></trkpt><trkpt lat="43.06926614050724" lon="11.153268933398685"><ele>426.0</ele><time>2026-04-26T09:05:09.998Z</time></trkpt><trkpt lat="43.069363970027695" lon="11.153099007598687"><ele>428.25</ele><time>2026-04-26T09:05:10.998Z</time></trkpt><trkpt lat="43.06943314793665" lon="11.152914850061096"><ele>430.5</ele><time>2026-04-26T09:05:11.998Z</time></trkpt><trkpt lat="43.069465815534656" lon="11.152712755376932"><ele>432.75</ele><time>2026-04-26T09:05:12.998Z</time></trkpt><trkpt lat="43.06947361807871" lon="11.152512920480326"><ele>435.0</ele><time>2026-04-26T09:05:13.998Z</time></trkpt><trkpt lat="43.0694823921144" lon="11.15232170366552"><ele>435.75</ele><time>2026-04-26T09:05:14.998Z</time></trkpt><trkpt lat="43.06951008050297" lon="11.152140346226172"><ele>436.5</ele><time>2026-04-26T09:05:15.998Z</time></trkpt><trkpt lat="43.06955833523385" lon="11.151963485489759"><ele>437.25</ele><time>2026-04-26T09:05:16.998Z</time></trkpt><trkpt lat="43.06963603621688" lon="11.15180755050849"><ele>438.0</ele><time>2026-04-26T09:05:17.998Z</time></trkpt><trkpt lat="43.06972907157989" lon="11.151682112943922"><ele>438.0</ele><time>2026-04-26T09:05:18.998Z</time></trkpt><trkpt lat="43.06985169656831" lon="11.151592933805514"><ele>438.0</ele><time>2026-04-26T09:05:19.998Z</time></trkpt><trkpt lat="43.069989768167794" lon="11.151554361327124"><ele>438.0</ele><time>2026-04-26T09:05:20.998Z</time></trkpt><trkpt lat="43.07014364440595" lon="11.151535039770415"><ele>438.0</ele><time>2026-04-26T09:05:21.998Z</time></trkpt><trkpt lat="43.070302058863284" lon="11.151518579213725"><ele>436.66666666666663</ele><time>2026-04-26T09:05:22.998Z</time></trkpt><trkpt lat="43.070464090383574" lon="11.151502725742006"><ele>435.3333333333333</ele><time>2026-04-26T09:05:23.998Z</time></trkpt><trkpt lat="43.07062495884488" lon="11.151489195170925"><ele>434.0</ele><time>2026-04-26T09:05:24.998Z</time></trkpt><trkpt lat="43.07077846981155" lon="11.151483071678767"><ele>433.3333333333333</ele><time>2026-04-26T09:05:25.998Z</time></trkpt><trkpt lat="43.07093344021556" lon="11.151479909813691"><ele>432.66666666666663</ele><time>2026-04-26T09:05:26.998Z</time></trkpt><trkpt lat="43.071088623078296" lon="11.15152314210476"><ele>432.0</ele><time>2026-04-26T09:05:27.998Z</time></trkpt><trkpt lat="43.07123740386703" lon="11.15159358032522"><ele>432.0</ele><time>2026-04-26T09:05:29Z</time></trkpt><trkpt lat="43.07137435788139" lon="11.151692395132804"><ele>432.0</ele><time>2026-04-26T09:05:30Z</time></trkpt><trkpt lat="43.071505721755265" lon="11.151810656758116"><ele>432.0</ele><time>2026-04-26T09:05:31Z</time></trkpt><trkpt lat="43.071630862173095" lon="11.151941807589886"><ele>432.0</ele><time>2026-04-26T09:05:32Z</time></trkpt><trkpt lat="43.07175914078743" lon="11.152075354880775"><ele>432.0</ele><time>2026-04-26T09:05:33Z</time></trkpt><trkpt lat="43.07188682386029" lon="11.152205858004251"><ele>432.0</ele><time>2026-04-26T09:05:34Z</time></trkpt><trkpt lat="43.072010193178905" lon="11.152336347724688"><ele>428.66666666666663</ele><time>2026-04-26T09:05:35Z</time></trkpt><trkpt lat="43.072132671038716" lon="11.15246741892699"><ele>425.3333333333333</ele><time>2026-04-26T09:05:36Z</time></trkpt><trkpt lat="43.07225223672521" lon="11.152600115219192"><ele>422.0</ele><time>2026-04-26T09:05:37Z</time></trkpt><trkpt lat="43.072372484463756" lon="11.15273340754136"><ele>424.3333333333333</ele><time>2026-04-26T09:05:38Z</time></trkpt><trkpt lat="43.07249591683768" lon="11.152862495339182"><ele>426.66666666666663</ele><time>2026-04-26T09:05:39Z</time></trkpt><trkpt lat="43.07261676501249" lon="11.152989625426638"><ele>429.0</ele><time>2026-04-26T09:05:40Z</time></trkpt><trkpt lat="43.07273468205734" lon="11.153115902358508"><ele>427.25</ele><time>2026-04-26T09:05:41Z</time></trkpt><trkpt lat="43.07285263381804" lon="11.153242228887258"><ele>425.5</ele><time>2026-04-26T09:05:42Z</time></trkpt><trkpt lat="43.07296903398664" lon="11.153367221392045"><ele>423.75</ele><time>2026-04-26T09:05:43Z</time></trkpt><trkpt lat="43.07307860458457" lon="11.153485415976917"><ele>422.0</ele><time>2026-04-26T09:05:44Z</time></trkpt><trkpt lat="43.07318983341691" lon="11.153591504349295"><ele>423.75</ele><time>2026-04-26T09:05:45Z</time></trkpt><trkpt lat="43.07329414102645" lon="11.153696964112491"><ele>425.5</ele><time>2026-04-26T09:05:46Z</time></trkpt><trkpt lat="43.073392899441274" lon="11.153798530149075"><ele>427.25</ele><time>2026-04-26T09:05:47Z</time></trkpt><trkpt lat="43.07349501826435" lon="11.153880543929905"><ele>429.0</ele><time>2026-04-26T09:05:48Z</time></trkpt><trkpt lat="43.07360122477606" lon="11.1539306908032"><ele>429.0</ele><time>2026-04-26T09:05:49Z</time></trkpt><trkpt lat="43.07369641352998" lon="11.153963440881746"><ele>429.0</ele><time>2026-04-26T09:05:50Z</time></trkpt><trkpt lat="43.07379117792395" lon="11.153988969816773"><ele>429.0</ele><time>2026-04-26T09:05:51Z</time></trkpt><trkpt lat="43.07388728149504" lon="11.153998641804312"><ele>429.0</ele><time>2026-04-26T09:05:52Z</time></trkpt><trkpt lat="43.073988434398274" lon="11.153999405443559"><ele>429.0</ele><time>2026-04-26T09:05:53Z</time></trkpt><trkpt lat="43.074098519886256" lon="11.153991324989645"><ele>429.5</ele><time>2026-04-26T09:05:54Z</time></trkpt><trkpt lat="43.074229677569605" lon="11.153941712809049"><ele>430.0</ele><time>2026-04-26T09:05:55Z</time></trkpt><trkpt lat="43.074346885440065" lon="11.153932416106452"><ele>430.5</ele><time>2026-04-26T09:05:56Z</time></trkpt><trkpt lat="43.07446002438951" lon="11.153934029442453"><ele>431.0</ele><time>2026-04-26T09:05:57Z</time></trkpt><trkpt lat="43.07456268179279" lon="11.153975827392422"><ele>429.6</ele><time>2026-04-26T09:05:58Z</time></trkpt><trkpt lat="43.07465877192118" lon="11.154046113209716"><ele>428.20000000000005</ele><time>2026-04-26T09:05:59Z</time></trkpt><trkpt lat="43.07473602180055" lon="11.154133307684548"><ele>426.79999999999995</ele><time>2026-04-26T09:06:00Z</time></trkpt><trkpt lat="43.074796779984794" lon="11.154250687866416"><ele>425.4</ele><time>2026-04-26T09:06:01Z</time></trkpt><trkpt lat="43.07482638125825" lon="11.154396398278314"><ele>424.0</ele><time>2026-04-26T09:06:02Z</time></trkpt><trkpt lat="43.07484138833415" lon="11.154548914249204"><ele>424.0</ele><time>2026-04-26T09:06:03Z</time></trkpt><trkpt lat="43.07483182230752" lon="11.15470577528261"><ele>424.0</ele><time>2026-04-26T09:06:04Z</time></trkpt><trkpt lat="43.07481636269621" lon="11.15485514369633"><ele>424.0</ele><time>2026-04-26T09:06:05Z</time></trkpt><trkpt lat="43.07482574284039" lon="11.155010015892094"><ele>424.0</ele><time>2026-04-26T09:06:06Z</time></trkpt><trkpt lat="43.07487339296121" lon="11.155153038168777"><ele>421.5</ele><time>2026-04-26T09:06:07Z</time></trkpt><trkpt lat="43.074953009345215" lon="11.15527049012963"><ele>419.0</ele><time>2026-04-26T09:06:08Z</time></trkpt><trkpt lat="43.07506500435754" lon="11.155346097072819"><ele>416.5</ele><time>2026-04-26T09:06:09Z</time></trkpt><trkpt lat="43.075192269090586" lon="11.155400717763166"><ele>414.0</ele><time>2026-04-26T09:06:10Z</time></trkpt><trkpt lat="43.07531343013953" lon="11.15543559903195"><ele>414.0</ele><time>2026-04-26T09:06:11Z</time></trkpt><trkpt lat="43.07543044755436" lon="11.155460141697482"><ele>414.0</ele><time>2026-04-26T09:06:12Z</time></trkpt><trkpt lat="43.075549464507986" lon="11.155448514603055"><ele>414.0</ele><time>2026-04-26T09:06:13Z</time></trkpt><trkpt lat="43.0756608613374" lon="11.155385906623062"><ele>414.0</ele><time>2026-04-26T09:06:14Z</time></trkpt><trkpt lat="43.07575477048857" lon="11.155284788217276"><ele>412.25</ele><time>2026-04-26T09:06:15Z</time></trkpt><trkpt lat="43.07581808345576" lon="11.155141437242445"><ele>410.5</ele><time>2026-04-26T09:06:16Z</time></trkpt><trkpt lat="43.075880215655744" lon="11.154978479122839"><ele>408.75</ele><time>2026-04-26T09:06:17Z</time></trkpt><trkpt lat="43.075934236998314" lon="11.15481755240714"><ele>407.0</ele><time>2026-04-26T09:06:18Z</time></trkpt><trkpt lat="43.07596903405525" lon="11.154644567274568"><ele>406.75</ele><time>2026-04-26T09:06:18.999Z</time></trkpt><trkpt lat="43.07595849324412" lon="11.15446685272185"><ele>406.5</ele><time>2026-04-26T09:06:19.999Z</time></trkpt><trkpt lat="43.075921657559284" lon="11.154284359351097"><ele>406.25</ele><time>2026-04-26T09:06:20.999Z</time></trkpt><trkpt lat="43.075903961310665" lon="11.154093554180685"><ele>406.0</ele><time>2026-04-26T09:06:21.999Z</time></trkpt><trkpt lat="43.07590947895086" lon="11.153897165007193"><ele>405.75</ele><time>2026-04-26T09:06:22.999Z</time></trkpt><trkpt lat="43.075935090422796" lon="11.153704296135878"><ele>405.5</ele><time>2026-04-26T09:06:23.999Z</time></trkpt><trkpt lat="43.07598020483002" lon="11.153521561386786"><ele>405.25</ele><time>2026-04-26T09:06:24.999Z</time></trkpt><trkpt lat="43.076029188387984" lon="11.153338626200739"><ele>405.0</ele><time>2026-04-26T09:06:25.999Z</time></trkpt><trkpt lat="43.076074805585485" lon="11.15315169405071"><ele>404.25</ele><time>2026-04-26T09:06:26.999Z</time></trkpt><trkpt lat="43.07611074885417" lon="11.152963636822593"><ele>403.5</ele><time>2026-04-26T09:06:27.999Z</time></trkpt><trkpt lat="43.07614397232608" lon="11.152777423915529"><ele>402.75</ele><time>2026-04-26T09:06:28.999Z</time></trkpt><trkpt lat="43.07615998071589" lon="11.15258071759328"><ele>402.0</ele><time>2026-04-26T09:06:29.999Z</time></trkpt><trkpt lat="43.076170177446095" lon="11.152384766528101"><ele>399.75</ele><time>2026-04-26T09:06:30.999Z</time></trkpt><trkpt lat="43.07617454812685" lon="11.152199406598003"><ele>397.5</ele><time>2026-04-26T09:06:31.999Z</time></trkpt><trkpt lat="43.07616197600777" lon="11.152020706511824"><ele>395.25</ele><time>2026-04-26T09:06:32.999Z</time></trkpt><trkpt lat="43.076115651267365" lon="11.151864482081024"><ele>393.0</ele><time>2026-04-26T09:06:33.999Z</time></trkpt><trkpt lat="43.076032684284534" lon="11.151741281255296"><ele>393.0</ele><time>2026-04-26T09:06:34.999Z</time></trkpt><trkpt lat="43.07593099555724" lon="11.151654032550468"><ele>393.0</ele><time>2026-04-26T09:06:35.999Z</time></trkpt><trkpt lat="43.07583788286023" lon="11.151559917183716"><ele>393.0</ele><time>2026-04-26T09:06:36.999Z</time></trkpt><trkpt lat="43.07578347633462" lon="11.1514202216456"><ele>393.0</ele><time>2026-04-26T09:06:37.999Z</time></trkpt><trkpt lat="43.07576572444758" lon="11.15126427780824"><ele>392.25</ele><time>2026-04-26T09:06:38.999Z</time></trkpt><trkpt lat="43.075818575048174" lon="11.151115485502128"><ele>391.5</ele><time>2026-04-26T09:06:39.999Z</time></trkpt><trkpt lat="43.07587672373722" lon="11.150941910358158"><ele>390.75</ele><time>2026-04-26T09:06:40.999Z</time></trkpt><trkpt lat="43.075940892633426" lon="11.150754448405738"><ele>390.0</ele><time>2026-04-26T09:06:41.999Z</time></trkpt><trkpt lat="43.0760090489215" lon="11.150552755422535"><ele>390.0</ele><time>2026-04-26T09:06:42.999Z</time></trkpt><trkpt lat="43.076071214741035" lon="11.15036310588967"><ele>390.0</ele><time>2026-04-26T09:06:43.999Z</time></trkpt><trkpt lat="43.07613745428876" lon="11.15016057732986"><ele>390.0</ele><time>2026-04-26T09:06:44.999Z</time></trkpt><trkpt lat="43.076198141711494" lon="11.149969569880561"><ele>391.0</ele><time>2026-04-26T09:06:45.999Z</time></trkpt><trkpt lat="43.07625305713236" lon="11.149787381765876"><ele>392.0</ele><time>2026-04-26T09:06:46.999Z</time></trkpt><trkpt lat="43.0763082977889" lon="11.149621671777709"><ele>393.0</ele><time>2026-04-26T09:06:47.999Z</time></trkpt><trkpt lat="43.07638404363543" lon="11.149501132545693"><ele>394.0</ele><time>2026-04-26T09:06:48.999Z</time></trkpt><trkpt lat="43.07647698286436" lon="11.149420136326363"><ele>394.0</ele><time>2026-04-26T09:06:49.999Z</time></trkpt><trkpt lat="43.07657665999092" lon="11.149373680046255"><ele>394.0</ele><time>2026-04-26T09:06:50.999Z</time></trkpt><trkpt lat="43.07667503549215" lon="11.149359309493859"><ele>394.0</ele><time>2026-04-26T09:06:51.999Z</time></trkpt><trkpt lat="43.076784254351686" lon="11.149376420088217"><ele>394.0</ele><time>2026-04-26T09:06:52.999Z</time></trkpt><trkpt lat="43.07689330905064" lon="11.149423920656067"><ele>394.0</ele><time>2026-04-26T09:06:53.999Z</time></trkpt><trkpt lat="43.07700884108985" lon="11.14949008469686"><ele>392.33333333333337</ele><time>2026-04-26T09:06:54.999Z</time></trkpt><trkpt lat="43.07712085040346" lon="11.149565074242247"><ele>390.66666666666663</ele><time>2026-04-26T09:06:55.999Z</time></trkpt><trkpt lat="43.07727165284292" lon="11.149655400768852"><ele>389.0</ele><time>2026-04-26T09:06:56.999Z</time></trkpt><trkpt lat="43.07745718181792" lon="11.149630954811059"><ele>385.5</ele><time>2026-04-26T09:06:57.999Z</time></trkpt><trkpt lat="43.07756944876551" lon="11.14948479687112"><ele>382.0</ele><time>2026-04-26T09:06:58.999Z</time></trkpt><trkpt lat="43.07753627614256" lon="11.149283913971102"><ele>378.5</ele><time>2026-04-26T09:06:59.999Z</time></trkpt><trkpt lat="43.07752243929294" lon="11.149176133367094"><ele>375.0</ele><time>2026-04-26T09:07:00.999Z</time></trkpt><trkpt lat="43.077491240200004" lon="11.149047442750069"><ele>372.5</ele><time>2026-04-26T09:07:01.999Z</time></trkpt><trkpt lat="43.077445705753824" lon="11.148914223220878"><ele>370.0</ele><time>2026-04-26T09:07:02.999Z</time></trkpt><trkpt lat="43.07738829112207" lon="11.148785637677996"><ele>367.5</ele><time>2026-04-26T09:07:03.999Z</time></trkpt><trkpt lat="43.07731003402487" lon="11.148644260442463"><ele>365.0</ele><time>2026-04-26T09:07:04.999Z</time></trkpt><trkpt lat="43.077218192677655" lon="11.148498948842752"><ele>370.0</ele><time>2026-04-26T09:07:05.999Z</time></trkpt><trkpt lat="43.077116258250726" lon="11.148323248642267"><ele>375.0</ele><time>2026-04-26T09:07:06.999Z</time></trkpt><trkpt lat="43.07704373293775" lon="11.148169568527624"><ele>380.0</ele><time>2026-04-26T09:07:07.999Z</time></trkpt><trkpt lat="43.0769342565205" lon="11.14799873140423"><ele>380.0</ele><time>2026-04-26T09:07:08.999Z</time></trkpt><trkpt lat="43.076877547984324" lon="11.14788150494187"><ele>380.0</ele><time>2026-04-26T09:07:09.999Z</time></trkpt><trkpt lat="43.07684114444726" lon="11.147792431129034"><ele>380.0</ele><time>2026-04-26T09:07:10.999Z</time></trkpt><trkpt lat="43.076780581363415" lon="11.147665882887464"><ele>380.0</ele><time>2026-04-26T09:07:11.999Z</time></trkpt><trkpt lat="43.07670798407561" lon="11.147521683562267"><ele>380.0</ele><time>2026-04-26T09:07:12.999Z</time></trkpt><trkpt lat="43.076676272746695" lon="11.14739021147151"><ele>380.8</ele><time>2026-04-26T09:07:13.999Z</time></trkpt><trkpt lat="43.07675281474661" lon="11.147292444437905"><ele>381.6</ele><time>2026-04-26T09:07:14.999Z</time></trkpt><trkpt lat="43.07684812272373" lon="11.147285023885065"><ele>382.4</ele><time>2026-04-26T09:07:15.998Z</time></trkpt><trkpt lat="43.07696542476489" lon="11.147242433637848"><ele>383.2</ele><time>2026-04-26T09:07:16.998Z</time></trkpt><trkpt lat="43.07707452750915" lon="11.147189215452604"><ele>384.0</ele><time>2026-04-26T09:07:17.998Z</time></trkpt><trkpt lat="43.077175363390076" lon="11.147117576121781"><ele>384.0</ele><time>2026-04-26T09:07:18.998Z</time></trkpt><trkpt lat="43.077280368659025" lon="11.146948859413081"><ele>384.0</ele><time>2026-04-26T09:07:19.998Z</time></trkpt><trkpt lat="43.07733094025342" lon="11.14679333630994"><ele>384.0</ele><time>2026-04-26T09:07:20.998Z</time></trkpt><trkpt lat="43.07735989611495" lon="11.146648195360445"><ele>384.0</ele><time>2026-04-26T09:07:21.998Z</time></trkpt><trkpt lat="43.07739626828344" lon="11.146516763854956"><ele>384.0</ele><time>2026-04-26T09:07:22.998Z</time></trkpt><trkpt lat="43.077451435405905" lon="11.146471099759873"><ele>384.0</ele><time>2026-04-26T09:07:23.998Z</time></trkpt><trkpt lat="43.07756125857835" lon="11.146483086570784"><ele>384.0</ele><time>2026-04-26T09:07:26.998Z</time></trkpt><trkpt lat="43.07766178171638" lon="11.1465354285614"><ele>384.0</ele><time>2026-04-26T09:07:27.998Z</time></trkpt><trkpt lat="43.07779221499874" lon="11.146602508349162"><ele>384.0</ele><time>2026-04-26T09:07:28.998Z</time></trkpt><trkpt lat="43.077925783565995" lon="11.14665411766325"><ele>377.0</ele><time>2026-04-26T09:07:29.998Z</time></trkpt><trkpt lat="43.07815673724277" lon="11.146686187837524"><ele>370.0</ele><time>2026-04-26T09:07:30.998Z</time></trkpt><trkpt lat="43.07829505206825" lon="11.146645835173755"><ele>363.0</ele><time>2026-04-26T09:07:31.998Z</time></trkpt><trkpt lat="43.078406334211046" lon="11.146605565201526"><ele>360.3333333333333</ele><time>2026-04-26T09:07:32.998Z</time></trkpt><trkpt lat="43.07854275026036" lon="11.146556199966769"><ele>357.66666666666663</ele><time>2026-04-26T09:07:33.998Z</time></trkpt><trkpt lat="43.07870105601813" lon="11.14649873058058"><ele>355.0</ele><time>2026-04-26T09:07:35Z</time></trkpt><trkpt lat="43.0789371093262" lon="11.14635454689224"><ele>354.75</ele><time>2026-04-26T09:07:36Z</time></trkpt><trkpt lat="43.0790474095186" lon="11.146073029657984"><ele>354.5</ele><time>2026-04-26T09:07:37Z</time></trkpt><trkpt lat="43.07906658514923" lon="11.145963859151625"><ele>354.25</ele><time>2026-04-26T09:07:38Z</time></trkpt><trkpt lat="43.07909485660283" lon="11.145870439974066"><ele>354.0</ele><time>2026-04-26T09:07:39Z</time></trkpt><trkpt lat="43.07915451999199" lon="11.145779606360692"><ele>354.0</ele><time>2026-04-26T09:07:40Z</time></trkpt><trkpt lat="43.07925271604153" lon="11.145718085068486"><ele>354.0</ele><time>2026-04-26T09:07:41Z</time></trkpt><trkpt lat="43.079396716457" lon="11.14573674844533"><ele>354.0</ele><time>2026-04-26T09:07:42Z</time></trkpt><trkpt lat="43.0795181181332" lon="11.14581428521875"><ele>354.0</ele><time>2026-04-26T09:07:43Z</time></trkpt><trkpt lat="43.07963664167662" lon="11.145867690726195"><ele>354.0</ele><time>2026-04-26T09:07:44Z</time></trkpt><trkpt lat="43.07977589468147" lon="11.145913554516182"><ele>354.0</ele><time>2026-04-26T09:07:45Z</time></trkpt><trkpt lat="43.07990284062152" lon="11.14593429298949"><ele>354.0</ele><time>2026-04-26T09:07:46Z</time></trkpt><trkpt lat="43.08001420357032" lon="11.145924358357435"><ele>354.0</ele><time>2026-04-26T09:07:47Z</time></trkpt><trkpt lat="43.08015698550792" lon="11.14587002072647"><ele>356.25</ele><time>2026-04-26T09:07:48Z</time></trkpt><trkpt lat="43.08026629612187" lon="11.145781072228527"><ele>358.5</ele><time>2026-04-26T09:07:49Z</time></trkpt><trkpt lat="43.08040011231417" lon="11.145701182196717"><ele>360.75</ele><time>2026-04-26T09:07:50Z</time></trkpt><trkpt lat="43.08053327774083" lon="11.145613379125637"><ele>363.0</ele><time>2026-04-26T09:07:51Z</time></trkpt><trkpt lat="43.0806749773873" lon="11.145490897295442"><ele>357.3333333333333</ele><time>2026-04-26T09:07:52Z</time></trkpt><trkpt lat="43.080837296114396" lon="11.145386225098026"><ele>351.66666666666663</ele><time>2026-04-26T09:07:53Z</time></trkpt><trkpt lat="43.080980304463644" lon="11.145292553245081"><ele>346.0</ele><time>2026-04-26T09:07:54Z</time></trkpt><trkpt lat="43.08112756273185" lon="11.145182834632712"><ele>346.0</ele><time>2026-04-26T09:07:55Z</time></trkpt><trkpt lat="43.081266753668274" lon="11.145059738375512"><ele>346.0</ele><time>2026-04-26T09:07:56Z</time></trkpt><trkpt lat="43.08139870949138" lon="11.144938418422566"><ele>346.0</ele><time>2026-04-26T09:07:57Z</time></trkpt><trkpt lat="43.0815353978234" lon="11.144798490401318"><ele>344.66666666666663</ele><time>2026-04-26T09:07:58Z</time></trkpt><trkpt lat="43.08166644350376" lon="11.144631677203861"><ele>343.3333333333333</ele><time>2026-04-26T09:07:59Z</time></trkpt><trkpt lat="43.08179422720835" lon="11.144445876028957"><ele>342.0</ele><time>2026-04-26T09:08:00Z</time></trkpt><trkpt lat="43.081926828087624" lon="11.144259513408125"><ele>342.0</ele><time>2026-04-26T09:08:01Z</time></trkpt><trkpt lat="43.082030047030955" lon="11.144064252881204"><ele>342.0</ele><time>2026-04-26T09:08:02Z</time></trkpt><trkpt lat="43.08212965713475" lon="11.143863037669163"><ele>342.0</ele><time>2026-04-26T09:08:03Z</time></trkpt><trkpt lat="43.082215494894584" lon="11.143643205902107"><ele>348.3333333333333</ele><time>2026-04-26T09:08:04Z</time></trkpt><trkpt lat="43.082290908898884" lon="11.143421621456762"><ele>354.66666666666663</ele><time>2026-04-26T09:08:05Z</time></trkpt><trkpt lat="43.08235277893233" lon="11.143160781233517"><ele>361.0</ele><time>2026-04-26T09:08:06Z</time></trkpt><trkpt lat="43.08242813633091" lon="11.14293096814208"><ele>354.3333333333333</ele><time>2026-04-26T09:08:07Z</time></trkpt><trkpt lat="43.0824848064208" lon="11.142691241864847"><ele>347.6666666666667</ele><time>2026-04-26T09:08:08Z</time></trkpt><trkpt lat="43.08252552456104" lon="11.142469336618442"><ele>341.0</ele><time>2026-04-26T09:08:09Z</time></trkpt><trkpt lat="43.082595756042124" lon="11.142262813756435"><ele>341.0</ele><time>2026-04-26T09:08:10Z</time></trkpt><trkpt lat="43.082649933656114" lon="11.142069497084332"><ele>341.0</ele><time>2026-04-26T09:08:11Z</time></trkpt><trkpt lat="43.08268446755437" lon="11.141911470800174"><ele>341.0</ele><time>2026-04-26T09:08:12Z</time></trkpt><trkpt lat="43.08274620366691" lon="11.14177369510271"><ele>341.0</ele><time>2026-04-26T09:08:13Z</time></trkpt><trkpt lat="43.08282809825517" lon="11.141639246690424"><ele>341.0</ele><time>2026-04-26T09:08:14Z</time></trkpt><trkpt lat="43.08293861104038" lon="11.141558900205636"><ele>341.0</ele><time>2026-04-26T09:08:15Z</time></trkpt><trkpt lat="43.08305132198632" lon="11.141650112926582"><ele>341.0</ele><time>2026-04-26T09:08:16Z</time></trkpt><trkpt lat="43.08310069841526" lon="11.14145214414369"><ele>341.0</ele><time>2026-04-26T09:08:17Z</time></trkpt><trkpt lat="43.08316965207152" lon="11.141433657705283"><ele>333.6666666666667</ele><time>2026-04-26T09:08:18Z</time></trkpt><trkpt lat="43.083322107098155" lon="11.14151147108448"><ele>326.3333333333333</ele><time>2026-04-26T09:08:20Z</time></trkpt><trkpt lat="43.083473050526436" lon="11.141819254897772"><ele>319.0</ele><time>2026-04-26T09:08:21Z</time></trkpt><trkpt lat="43.08358748796402" lon="11.141747055119476"><ele>319.0</ele><time>2026-04-26T09:08:22Z</time></trkpt><trkpt lat="43.083673495588" lon="11.141701859032674"><ele>319.0</ele><time>2026-04-26T09:08:23Z</time></trkpt><trkpt lat="43.08376700032459" lon="11.141559828621618"><ele>319.0</ele><time>2026-04-26T09:08:24Z</time></trkpt><trkpt lat="43.08393220274415" lon="11.141505599928555"><ele>319.0</ele><time>2026-04-26T09:08:25Z</time></trkpt><trkpt lat="43.08409543262663" lon="11.141518578998593"><ele>319.25</ele><time>2026-04-26T09:08:26Z</time></trkpt><trkpt lat="43.08418694750913" lon="11.141448009498898"><ele>319.5</ele><time>2026-04-26T09:08:27Z</time></trkpt><trkpt lat="43.08434429036502" lon="11.141416369916177"><ele>319.75</ele><time>2026-04-26T09:08:27.999Z</time></trkpt><trkpt lat="43.08447478525959" lon="11.141352907091987"><ele>320.0</ele><time>2026-04-26T09:08:28.999Z</time></trkpt><trkpt lat="43.08462744335525" lon="11.141279978669097"><ele>320.0</ele><time>2026-04-26T09:08:29.999Z</time></trkpt><trkpt lat="43.08477304068197" lon="11.141187625901546"><ele>320.0</ele><time>2026-04-26T09:08:30.999Z</time></trkpt><trkpt lat="43.08491634657081" lon="11.141066068980228"><ele>320.0</ele><time>2026-04-26T09:08:31.999Z</time></trkpt><trkpt lat="43.085041435691345" lon="11.140946815328503"><ele>320.6666666666667</ele><time>2026-04-26T09:08:32.999Z</time></trkpt><trkpt lat="43.085109609995044" lon="11.140791549639177"><ele>321.3333333333333</ele><time>2026-04-26T09:08:33.999Z</time></trkpt><trkpt lat="43.085182403694674" lon="11.14061785205139"><ele>322.0</ele><time>2026-04-26T09:08:34.999Z</time></trkpt><trkpt lat="43.085257792866955" lon="11.140371317010446"><ele>322.0</ele><time>2026-04-26T09:08:35.999Z</time></trkpt><trkpt lat="43.085308409383636" lon="11.140106433689443"><ele>322.0</ele><time>2026-04-26T09:08:36.999Z</time></trkpt><trkpt lat="43.08536802418208" lon="11.139846458949018"><ele>322.0</ele><time>2026-04-26T09:08:37.999Z</time></trkpt><trkpt lat="43.08543664119477" lon="11.13959627643401"><ele>321.0</ele><time>2026-04-26T09:08:38.999Z</time></trkpt><trkpt lat="43.08549677852467" lon="11.139344131892859"><ele>320.0</ele><time>2026-04-26T09:08:39.999Z</time></trkpt><trkpt lat="43.085575682444436" lon="11.13908162496576"><ele>319.0</ele><time>2026-04-26T09:08:40.999Z</time></trkpt><trkpt lat="43.085648770138036" lon="11.138831502600057"><ele>318.3333333333333</ele><time>2026-04-26T09:08:41.999Z</time></trkpt><trkpt lat="43.08572527763143" lon="11.13857543963855"><ele>317.6666666666667</ele><time>2026-04-26T09:08:42.999Z</time></trkpt><trkpt lat="43.085796293441675" lon="11.138337942987219"><ele>317.0</ele><time>2026-04-26T09:08:43.999Z</time></trkpt><trkpt lat="43.08586922058327" lon="11.138095657584481"><ele>319.33333333333337</ele><time>2026-04-26T09:08:44.999Z</time></trkpt><trkpt lat="43.08594500120393" lon="11.137850472940226"><ele>321.6666666666667</ele><time>2026-04-26T09:08:45.999Z</time></trkpt><trkpt lat="43.08602128740142" lon="11.137629856296972"><ele>324.0</ele><time>2026-04-26T09:08:46.999Z</time></trkpt><trkpt lat="43.0861122754655" lon="11.137415644592382"><ele>323.0</ele><time>2026-04-26T09:08:47.999Z</time></trkpt><trkpt lat="43.08622494440557" lon="11.137186519655662"><ele>322.0</ele><time>2026-04-26T09:08:48.999Z</time></trkpt><trkpt lat="43.08633513157312" lon="11.13694806776574"><ele>321.0</ele><time>2026-04-26T09:08:49.999Z</time></trkpt><trkpt lat="43.08642514848961" lon="11.136704837586333"><ele>320.0</ele><time>2026-04-26T09:08:50.999Z</time></trkpt><trkpt lat="43.08648162258491" lon="11.136462717253744"><ele>319.0</ele><time>2026-04-26T09:08:51.999Z</time></trkpt><trkpt lat="43.086500991775395" lon="11.136207624416834"><ele>318.0</ele><time>2026-04-26T09:08:52.999Z</time></trkpt><trkpt lat="43.08651654137861" lon="11.135956614748068"><ele>318.0</ele><time>2026-04-26T09:08:53.999Z</time></trkpt><trkpt lat="43.08654385045236" lon="11.135737931969873"><ele>318.0</ele><time>2026-04-26T09:08:54.999Z</time></trkpt><trkpt lat="43.086572609562694" lon="11.135520563524636"><ele>318.0</ele><time>2026-04-26T09:08:55.999Z</time></trkpt><trkpt lat="43.08660742714888" lon="11.135286817849172"><ele>323.3333333333333</ele><time>2026-04-26T09:08:56.999Z</time></trkpt><trkpt lat="43.08667221602159" lon="11.135047951958127"><ele>328.66666666666663</ele><time>2026-04-26T09:08:57.999Z</time></trkpt><trkpt lat="43.08674132580542" lon="11.134826775889158"><ele>334.0</ele><time>2026-04-26T09:08:58.999Z</time></trkpt><trkpt lat="43.08680698988864" lon="11.13459401673186"><ele>335.3333333333333</ele><time>2026-04-26T09:08:59.999Z</time></trkpt><trkpt lat="43.086855354660024" lon="11.13434270597534"><ele>336.6666666666667</ele><time>2026-04-26T09:09:00.999Z</time></trkpt><trkpt lat="43.08688053602281" lon="11.134070932934035"><ele>338.0</ele><time>2026-04-26T09:09:01.999Z</time></trkpt><trkpt lat="43.08684943305672" lon="11.133867846907322"><ele>338.6666666666667</ele><time>2026-04-26T09:09:02.999Z</time></trkpt><trkpt lat="43.0868312238855" lon="11.133672254586967"><ele>339.3333333333333</ele><time>2026-04-26T09:09:03.999Z</time></trkpt><trkpt lat="43.08681067751015" lon="11.133459107799402"><ele>340.0</ele><time>2026-04-26T09:09:04.999Z</time></trkpt><trkpt lat="43.08678913981294" lon="11.133217365391182"><ele>340.0</ele><time>2026-04-26T09:09:05.999Z</time></trkpt><trkpt lat="43.08677496323223" lon="11.132978774076273"><ele>340.0</ele><time>2026-04-26T09:09:06.999Z</time></trkpt><trkpt lat="43.08677992516546" lon="11.132732028837452"><ele>340.0</ele><time>2026-04-26T09:09:07.999Z</time></trkpt><trkpt lat="43.086831251594454" lon="11.1325041431503"><ele>338.75</ele><time>2026-04-26T09:09:08.999Z</time></trkpt><trkpt lat="43.086864156506245" lon="11.132308043922295"><ele>337.5</ele><time>2026-04-26T09:09:09.999Z</time></trkpt><trkpt lat="43.08693887940925" lon="11.132120733683143"><ele>336.25</ele><time>2026-04-26T09:09:10.999Z</time></trkpt><trkpt lat="43.0870047611271" lon="11.131955586326885"><ele>335.0</ele><time>2026-04-26T09:09:11.999Z</time></trkpt><trkpt lat="43.08707196641269" lon="11.131804382650126"><ele>335.0</ele><time>2026-04-26T09:09:12.999Z</time></trkpt><trkpt lat="43.087155556604046" lon="11.131663009381604"><ele>335.0</ele><time>2026-04-26T09:09:13.999Z</time></trkpt><trkpt lat="43.08727480905214" lon="11.131466284475911"><ele>335.0</ele><time>2026-04-26T09:09:14.999Z</time></trkpt><trkpt lat="43.08738612728412" lon="11.131293720039327"><ele>340.0</ele><time>2026-04-26T09:09:15.999Z</time></trkpt><trkpt lat="43.08751922537056" lon="11.131088222287882"><ele>345.0</ele><time>2026-04-26T09:09:16.999Z</time></trkpt><trkpt lat="43.087662702209116" lon="11.13092234294892"><ele>350.0</ele><time>2026-04-26T09:09:17.999Z</time></trkpt><trkpt lat="43.08780754483722" lon="11.130794735815403"><ele>350.0</ele><time>2026-04-26T09:09:18.999Z</time></trkpt><trkpt lat="43.08794102059282" lon="11.130725665740899"><ele>350.0</ele><time>2026-04-26T09:09:19.999Z</time></trkpt><trkpt lat="43.08810121532787" lon="11.130659206065868"><ele>350.0</ele><time>2026-04-26T09:09:20.999Z</time></trkpt><trkpt lat="43.08826958680033" lon="11.130585082914903"><ele>350.0</ele><time>2026-04-26T09:09:21.999Z</time></trkpt><trkpt lat="43.088436873048835" lon="11.130506481615155"><ele>350.0</ele><time>2026-04-26T09:09:22.999Z</time></trkpt><trkpt lat="43.088625847325495" lon="11.130395170861258"><ele>350.0</ele><time>2026-04-26T09:09:23.999Z</time></trkpt><trkpt lat="43.088793763893364" lon="11.130238105418934"><ele>350.0</ele><time>2026-04-26T09:09:24.998Z</time></trkpt><trkpt lat="43.088905666191785" lon="11.130070645613925"><ele>350.0</ele><time>2026-04-26T09:09:25.998Z</time></trkpt><trkpt lat="43.089029812975646" lon="11.129893863609073"><ele>350.0</ele><time>2026-04-26T09:09:26.998Z</time></trkpt><trkpt lat="43.089156995694694" lon="11.129806888506968"><ele>350.0</ele><time>2026-04-26T09:09:27.998Z</time></trkpt><trkpt lat="43.08929275130891" lon="11.129745196340629"><ele>350.0</ele><time>2026-04-26T09:09:28.998Z</time></trkpt><trkpt lat="43.089448716006835" lon="11.129669534694122"><ele>350.0</ele><time>2026-04-26T09:09:29.998Z</time></trkpt><trkpt lat="43.08959637426355" lon="11.12959286853193"><ele>350.0</ele><time>2026-04-26T09:09:30.998Z</time></trkpt><trkpt lat="43.08974911718338" lon="11.129512547179871"><ele>350.0</ele><time>2026-04-26T09:09:31.998Z</time></trkpt><trkpt lat="43.08990557291733" lon="11.129442300181005"><ele>350.0</ele><time>2026-04-26T09:09:32.998Z</time></trkpt><trkpt lat="43.090071858808855" lon="11.129394255775432"><ele>355.0</ele><time>2026-04-26T09:09:33.998Z</time></trkpt><trkpt lat="43.09024744773378" lon="11.129351576956783"><ele>360.0</ele><time>2026-04-26T09:09:34.998Z</time></trkpt><trkpt lat="43.09040760552986" lon="11.129278370251669"><ele>365.0</ele><time>2026-04-26T09:09:35.998Z</time></trkpt><trkpt lat="43.090552671450475" lon="11.129149086989747"><ele>364.0</ele><time>2026-04-26T09:09:36.998Z</time></trkpt><trkpt lat="43.09069964816917" lon="11.129029461192607"><ele>363.0</ele><time>2026-04-26T09:09:37.998Z</time></trkpt><trkpt lat="43.09084593874522" lon="11.12894306596588"><ele>362.0</ele><time>2026-04-26T09:09:38.998Z</time></trkpt><trkpt lat="43.09099561175402" lon="11.128920217730533"><ele>362.0</ele><time>2026-04-26T09:09:39.998Z</time></trkpt><trkpt lat="43.09115299420897" lon="11.128908777745256"><ele>362.0</ele><time>2026-04-26T09:09:41Z</time></trkpt><trkpt lat="43.09132554333583" lon="11.128897086053524"><ele>362.0</ele><time>2026-04-26T09:09:42Z</time></trkpt><trkpt lat="43.09150993432644" lon="11.128883262686594"><ele>364.33333333333337</ele><time>2026-04-26T09:09:43Z</time></trkpt><trkpt lat="43.09167601947383" lon="11.128868455646769"><ele>366.6666666666667</ele><time>2026-04-26T09:09:44Z</time></trkpt><trkpt lat="43.091839545299415" lon="11.128852770470731"><ele>369.0</ele><time>2026-04-26T09:09:45Z</time></trkpt><trkpt lat="43.092023512437805" lon="11.128833097452858"><ele>369.0</ele><time>2026-04-26T09:09:46Z</time></trkpt><trkpt lat="43.09220440194983" lon="11.128803315111403"><ele>369.0</ele><time>2026-04-26T09:09:47Z</time></trkpt><trkpt lat="43.09238026412705" lon="11.128759056951802"><ele>369.0</ele><time>2026-04-26T09:09:48Z</time></trkpt><trkpt lat="43.092533930845676" lon="11.128714170416677"><ele>371.6666666666667</ele><time>2026-04-26T09:09:49Z</time></trkpt><trkpt lat="43.09270865342963" lon="11.12864457239668"><ele>374.33333333333337</ele><time>2026-04-26T09:09:50Z</time></trkpt><trkpt lat="43.09286131156846" lon="11.128559510121603"><ele>377.0</ele><time>2026-04-26T09:09:51Z</time></trkpt><trkpt lat="43.09302534779114" lon="11.128531911377891"><ele>377.0</ele><time>2026-04-26T09:09:52Z</time></trkpt><trkpt lat="43.09317243811086" lon="11.128555365245347"><ele>377.0</ele><time>2026-04-26T09:09:53Z</time></trkpt><trkpt lat="43.09327003731819" lon="11.128665336224959"><ele>377.0</ele><time>2026-04-26T09:09:54Z</time></trkpt><trkpt lat="43.093354687439074" lon="11.128773152729782"><ele>377.0</ele><time>2026-04-26T09:09:55Z</time></trkpt><trkpt lat="43.093423882409866" lon="11.128883805391641"><ele>377.6666666666667</ele><time>2026-04-26T09:09:56Z</time></trkpt><trkpt lat="43.09352707805336" lon="11.129059058293954"><ele>378.3333333333333</ele><time>2026-04-26T09:09:57Z</time></trkpt><trkpt lat="43.093635448952256" lon="11.129238466696318"><ele>379.0</ele><time>2026-04-26T09:09:58Z</time></trkpt><trkpt lat="43.093711280820926" lon="11.12942499384884"><ele>383.0</ele><time>2026-04-26T09:09:59Z</time></trkpt><trkpt lat="43.093790251540476" lon="11.129649018031396"><ele>387.0</ele><time>2026-04-26T09:10:00Z</time></trkpt><trkpt lat="43.09388676752227" lon="11.129904981277855"><ele>391.0</ele><time>2026-04-26T09:10:01Z</time></trkpt><trkpt lat="43.094058069037196" lon="11.130148745022536"><ele>392.6666666666667</ele><time>2026-04-26T09:10:02Z</time></trkpt><trkpt lat="43.09421613083528" lon="11.130265249387246"><ele>394.33333333333337</ele><time>2026-04-26T09:10:03Z</time></trkpt><trkpt lat="43.094348280737776" lon="11.13034530647688"><ele>396.0</ele><time>2026-04-26T09:10:04Z</time></trkpt><trkpt lat="43.09447398857336" lon="11.130417167016477"><ele>396.0</ele><time>2026-04-26T09:10:05Z</time></trkpt><trkpt lat="43.09459839302591" lon="11.130462243831373"><ele>396.0</ele><time>2026-04-26T09:10:06Z</time></trkpt><trkpt lat="43.094715416478685" lon="11.130542618371031"><ele>396.0</ele><time>2026-04-26T09:10:07Z</time></trkpt><trkpt lat="43.09481241445679" lon="11.130577881156745"><ele>396.0</ele><time>2026-04-26T09:10:08Z</time></trkpt><trkpt lat="43.09491909312397" lon="11.130590293364213"><ele>394.0</ele><time>2026-04-26T09:10:09Z</time></trkpt><trkpt lat="43.09511140427441" lon="11.130619303446514"><ele>392.0</ele><time>2026-04-26T09:10:10Z</time></trkpt><trkpt lat="43.09530302976302" lon="11.130700233434599"><ele>390.0</ele><time>2026-04-26T09:10:11Z</time></trkpt><trkpt lat="43.09538468131757" lon="11.130963912635481"><ele>394.0</ele><time>2026-04-26T09:10:12Z</time></trkpt><trkpt lat="43.09552733679154" lon="11.131073388123603"><ele>398.0</ele><time>2026-04-26T09:10:13Z</time></trkpt><trkpt lat="43.09566910282357" lon="11.131217167301193"><ele>402.0</ele><time>2026-04-26T09:10:14Z</time></trkpt><trkpt lat="43.095813667935914" lon="11.131389560695716"><ele>405.0</ele><time>2026-04-26T09:10:15Z</time></trkpt><trkpt lat="43.09595287576146" lon="11.131580554347673"><ele>408.0</ele><time>2026-04-26T09:10:16Z</time></trkpt><trkpt lat="43.09607219159202" lon="11.131773261290524"><ele>411.0</ele><time>2026-04-26T09:10:17Z</time></trkpt><trkpt lat="43.09612971336915" lon="11.132004164332042"><ele>411.0</ele><time>2026-04-26T09:10:18Z</time></trkpt><trkpt lat="43.09618375494783" lon="11.132239777576691"><ele>411.0</ele><time>2026-04-26T09:10:19Z</time></trkpt><trkpt lat="43.096236207031254" lon="11.132466446271918"><ele>411.0</ele><time>2026-04-26T09:10:20Z</time></trkpt><trkpt lat="43.09629970350873" lon="11.132732531626896"><ele>411.33333333333337</ele><time>2026-04-26T09:10:21Z</time></trkpt><trkpt lat="43.096361291413324" lon="11.132991022819187"><ele>411.6666666666667</ele><time>2026-04-26T09:10:22Z</time></trkpt><trkpt lat="43.09642249156503" lon="11.13325344818296"><ele>412.0</ele><time>2026-04-26T09:10:23Z</time></trkpt><trkpt lat="43.09648755249218" lon="11.133526290278013"><ele>410.6666666666667</ele><time>2026-04-26T09:10:24Z</time></trkpt><trkpt lat="43.0965500491356" lon="11.13378653246883"><ele>409.33333333333337</ele><time>2026-04-26T09:10:25Z</time></trkpt><trkpt lat="43.096612329813254" lon="11.134048633461662"><ele>408.0</ele><time>2026-04-26T09:10:26Z</time></trkpt><trkpt lat="43.09667347228886" lon="11.13430594420965"><ele>407.33333333333337</ele><time>2026-04-26T09:10:27Z</time></trkpt><trkpt lat="43.09673597238511" lon="11.13456896872594"><ele>406.6666666666667</ele><time>2026-04-26T09:10:28Z</time></trkpt><trkpt lat="43.096798913841894" lon="11.13483385047374"><ele>406.0</ele><time>2026-04-26T09:10:29Z</time></trkpt><trkpt lat="43.096862310064424" lon="11.135100646093314"><ele>406.33333333333337</ele><time>2026-04-26T09:10:30Z</time></trkpt><trkpt lat="43.0969201818302" lon="11.135351574940309"><ele>406.66666666666663</ele><time>2026-04-26T09:10:31Z</time></trkpt><trkpt lat="43.09697548281402" lon="11.135591509818514"><ele>407.0</ele><time>2026-04-26T09:10:32Z</time></trkpt><trkpt lat="43.09704887904754" lon="11.135825465841117"><ele>407.0</ele><time>2026-04-26T09:10:33Z</time></trkpt><trkpt lat="43.09711881157193" lon="11.13604632774395"><ele>407.0</ele><time>2026-04-26T09:10:34Z</time></trkpt><trkpt lat="43.09721771824724" lon="11.136230131353711"><ele>407.0</ele><time>2026-04-26T09:10:35Z</time></trkpt><trkpt lat="43.097351882354126" lon="11.136368127023117"><ele>405.3333333333333</ele><time>2026-04-26T09:10:35.999Z</time></trkpt><trkpt lat="43.09747983726906" lon="11.136473887821204"><ele>403.66666666666663</ele><time>2026-04-26T09:10:36.999Z</time></trkpt><trkpt lat="43.09761058344545" lon="11.136602279077307"><ele>402.0</ele><time>2026-04-26T09:10:37.999Z</time></trkpt><trkpt lat="43.09779447144129" lon="11.136722561391075"><ele>403.0</ele><time>2026-04-26T09:10:38.999Z</time></trkpt><trkpt lat="43.097969582132535" lon="11.13679945353001"><ele>404.0</ele><time>2026-04-26T09:10:39.999Z</time></trkpt><trkpt lat="43.09814075168629" lon="11.13688855823863"><ele>405.0</ele><time>2026-04-26T09:10:40.999Z</time></trkpt><trkpt lat="43.09829310441749" lon="11.137017438780838"><ele>405.0</ele><time>2026-04-26T09:10:41.999Z</time></trkpt><trkpt lat="43.098432584602456" lon="11.137153693620439"><ele>405.0</ele><time>2026-04-26T09:10:42.999Z</time></trkpt><trkpt lat="43.09856743735005" lon="11.137299335562787"><ele>405.0</ele><time>2026-04-26T09:10:43.999Z</time></trkpt><trkpt lat="43.098702976949454" lon="11.13747470488866"><ele>408.33333333333337</ele><time>2026-04-26T09:10:44.999Z</time></trkpt><trkpt lat="43.09883096293116" lon="11.137657726194886"><ele>411.6666666666667</ele><time>2026-04-26T09:10:45.999Z</time></trkpt><trkpt lat="43.09891963411701" lon="11.137866348081612"><ele>415.0</ele><time>2026-04-26T09:10:46.999Z</time></trkpt><trkpt lat="43.098997383809355" lon="11.138078113251364"><ele>413.0</ele><time>2026-04-26T09:10:47.999Z</time></trkpt><trkpt lat="43.099068110860465" lon="11.138303288540268"><ele>411.0</ele><time>2026-04-26T09:10:48.999Z</time></trkpt><trkpt lat="43.09914437606488" lon="11.138570789238937"><ele>409.0</ele><time>2026-04-26T09:10:49.999Z</time></trkpt><trkpt lat="43.099214743068806" lon="11.138828288903426"><ele>411.0</ele><time>2026-04-26T09:10:50.999Z</time></trkpt><trkpt lat="43.09927877754765" lon="11.139064729053864"><ele>413.0</ele><time>2026-04-26T09:10:51.999Z</time></trkpt><trkpt lat="43.09934608005205" lon="11.139315181875137"><ele>415.0</ele><time>2026-04-26T09:10:52.999Z</time></trkpt><trkpt lat="43.0994169707919" lon="11.139572903270844"><ele>415.0</ele><time>2026-04-26T09:10:53.999Z</time></trkpt><trkpt lat="43.09945746754046" lon="11.139763496075297"><ele>415.0</ele><time>2026-04-26T09:10:54.999Z</time></trkpt><trkpt lat="43.09951391999988" lon="11.139968355538807"><ele>415.0</ele><time>2026-04-26T09:10:55.999Z</time></trkpt><trkpt lat="43.09958049672338" lon="11.140173309314292"><ele>414.75</ele><time>2026-04-26T09:10:56.999Z</time></trkpt><trkpt lat="43.09960939063539" lon="11.14037496216297"><ele>414.5</ele><time>2026-04-26T09:10:57.999Z</time></trkpt><trkpt lat="43.09959721509994" lon="11.140565511612404"><ele>414.25</ele><time>2026-04-26T09:10:58.999Z</time></trkpt><trkpt lat="43.0994988809371" lon="11.14070425006254"><ele>414.0</ele><time>2026-04-26T09:10:59.999Z</time></trkpt><trkpt lat="43.09945765474979" lon="11.14092923447804"><ele>413.66666666666663</ele><time>2026-04-26T09:11:00.999Z</time></trkpt><trkpt lat="43.099509414346365" lon="11.141196132679433"><ele>413.3333333333333</ele><time>2026-04-26T09:11:01.999Z</time></trkpt><trkpt lat="43.09963755585578" lon="11.141283384483394"><ele>413.0</ele><time>2026-04-26T09:11:02.999Z</time></trkpt><trkpt lat="43.09973157091314" lon="11.141353997032232"><ele>413.0</ele><time>2026-04-26T09:11:03.999Z</time></trkpt><trkpt lat="43.09956945502228" lon="11.141663350449377"><ele>413.0</ele><time>2026-04-26T09:11:04.999Z</time></trkpt><trkpt lat="43.09961927505164" lon="11.141823475262486"><ele>413.0</ele><time>2026-04-26T09:11:05.999Z</time></trkpt><trkpt lat="43.09966207816876" lon="11.141947281685258"><ele>413.0</ele><time>2026-04-26T09:11:06.999Z</time></trkpt><trkpt lat="43.09978875329156" lon="11.142043342402454"><ele>413.0</ele><time>2026-04-26T09:11:07.999Z</time></trkpt><trkpt lat="43.099946214095496" lon="11.142072776823639"><ele>413.0</ele><time>2026-04-26T09:11:08.999Z</time></trkpt><trkpt lat="43.100121178292966" lon="11.142152160451229"><ele>410.75</ele><time>2026-04-26T09:11:09.999Z</time></trkpt><trkpt lat="43.10028724457183" lon="11.142166751343131"><ele>408.5</ele><time>2026-04-26T09:11:10.999Z</time></trkpt><trkpt lat="43.100444725720266" lon="11.142172410421967"><ele>406.25</ele><time>2026-04-26T09:11:11.999Z</time></trkpt><trkpt lat="43.100525659342004" lon="11.142230891486799"><ele>404.0</ele><time>2026-04-26T09:11:12.999Z</time></trkpt><trkpt lat="43.10048425059874" lon="11.142359714615491"><ele>403.25</ele><time>2026-04-26T09:11:13.999Z</time></trkpt><trkpt lat="43.10042341042552" lon="11.142508815094125"><ele>402.5</ele><time>2026-04-26T09:11:14.999Z</time></trkpt><trkpt lat="43.10035559890865" lon="11.142661715854658"><ele>401.75</ele><time>2026-04-26T09:11:15.999Z</time></trkpt><trkpt lat="43.10030227848477" lon="11.142807051156302"><ele>401.0</ele><time>2026-04-26T09:11:16.999Z</time></trkpt><trkpt lat="43.10002555540224" lon="11.142802320853502"><ele>401.0</ele><time>2026-04-26T09:11:17.999Z</time></trkpt><trkpt lat="43.09997561737025" lon="11.143015592633532"><ele>401.0</ele><time>2026-04-26T09:11:18.999Z</time></trkpt><trkpt lat="43.0999377746865" lon="11.143180544753099"><ele>401.0</ele><time>2026-04-26T09:11:19.999Z</time></trkpt><trkpt lat="43.10008718467129" lon="11.143419014823339"><ele>400.0</ele><time>2026-04-26T09:11:20.999Z</time></trkpt><trkpt lat="43.10014285404535" lon="11.143505428705513"><ele>399.0</ele><time>2026-04-26T09:11:21.999Z</time></trkpt><trkpt lat="43.10001301704767" lon="11.143624121197814"><ele>398.0</ele><time>2026-04-26T09:11:22.999Z</time></trkpt><trkpt lat="43.09995023119197" lon="11.143661731750496"><ele>397.0</ele><time>2026-04-26T09:11:23.999Z</time></trkpt><trkpt lat="43.09987459919003" lon="11.143760832272745"><ele>396.0</ele><time>2026-04-26T09:11:25.999Z</time></trkpt><trkpt lat="43.10020257610962" lon="11.14371869447375"><ele>396.0</ele><time>2026-04-26T09:11:30.999Z</time></trkpt><trkpt lat="43.10029668059825" lon="11.143705057036193"><ele>396.0</ele><time>2026-04-26T09:11:31.999Z</time></trkpt><trkpt lat="43.10046806033758" lon="11.143597679169234"><ele>396.0</ele><time>2026-04-26T09:11:32.999Z</time></trkpt><trkpt lat="43.10069292534172" lon="11.143386543085908"><ele>397.33333333333337</ele><time>2026-04-26T09:11:33.998Z</time></trkpt><trkpt lat="43.100943357796496" lon="11.143332743849582"><ele>398.6666666666667</ele><time>2026-04-26T09:11:34.998Z</time></trkpt><trkpt lat="43.10109060013348" lon="11.143240533852312"><ele>400.0</ele><time>2026-04-26T09:11:35.998Z</time></trkpt><trkpt lat="43.101276528159396" lon="11.14313885672379"><ele>396.5</ele><time>2026-04-26T09:11:36.998Z</time></trkpt><trkpt lat="43.10146332080879" lon="11.143011016712016"><ele>393.0</ele><time>2026-04-26T09:11:37.998Z</time></trkpt><trkpt lat="43.10201213797527" lon="11.14276933986051"><ele>397.0</ele><time>2026-04-26T09:11:38.998Z</time></trkpt><trkpt lat="43.10264137653734" lon="11.142930257381794"><ele>397.0</ele><time>2026-04-26T09:11:40.998Z</time></trkpt><trkpt lat="43.102946044697966" lon="11.142990712287222"><ele>397.0</ele><time>2026-04-26T09:11:41.998Z</time></trkpt><trkpt lat="43.10314948212963" lon="11.142930284553238"><ele>397.5</ele><time>2026-04-26T09:11:42.998Z</time></trkpt><trkpt lat="43.103274142842096" lon="11.142815200340204"><ele>398.0</ele><time>2026-04-26T09:11:43.998Z</time></trkpt><trkpt lat="43.10337730096468" lon="11.142727019423589"><ele>398.5</ele><time>2026-04-26T09:11:44.998Z</time></trkpt><trkpt lat="43.103454336434034" lon="11.142708338761159"><ele>399.0</ele><time>2026-04-26T09:11:45.998Z</time></trkpt><trkpt lat="43.10371678917516" lon="11.142711989322947"><ele>399.0</ele><time>2026-04-26T09:11:47Z</time></trkpt><trkpt lat="43.10392250480641" lon="11.14273002092452"><ele>399.0</ele><time>2026-04-26T09:11:48Z</time></trkpt><trkpt lat="43.10413098378206" lon="11.14274995270679"><ele>399.0</ele><time>2026-04-26T09:11:49Z</time></trkpt><trkpt lat="43.10435165427593" lon="11.142765961825361"><ele>399.0</ele><time>2026-04-26T09:11:50Z</time></trkpt><trkpt lat="43.10454163536921" lon="11.142769012862688"><ele>399.0</ele><time>2026-04-26T09:11:51Z</time></trkpt><trkpt lat="43.104737327398816" lon="11.142787135753457"><ele>399.0</ele><time>2026-04-26T09:11:52Z</time></trkpt><trkpt lat="43.10488850761994" lon="11.142922667789655"><ele>397.33333333333337</ele><time>2026-04-26T09:11:53Z</time></trkpt><trkpt lat="43.10502450019477" lon="11.143062485427187"><ele>395.6666666666667</ele><time>2026-04-26T09:11:54Z</time></trkpt><trkpt lat="43.10511034074417" lon="11.143224420772883"><ele>394.0</ele><time>2026-04-26T09:11:55Z</time></trkpt><trkpt lat="43.10515751773643" lon="11.143407625258963"><ele>394.0</ele><time>2026-04-26T09:11:56Z</time></trkpt><trkpt lat="43.10515439294221" lon="11.143523251072898"><ele>394.0</ele><time>2026-04-26T09:11:57Z</time></trkpt><trkpt lat="43.10568104426055" lon="11.143454610253338"><ele>394.0</ele><time>2026-04-26T09:11:58Z</time></trkpt><trkpt lat="43.10571701581935" lon="11.143626452953471"><ele>394.0</ele><time>2026-04-26T09:11:59Z</time></trkpt><trkpt lat="43.105657502406196" lon="11.14380129428971"><ele>394.0</ele><time>2026-04-26T09:12:00Z</time></trkpt><trkpt lat="43.10565114569735" lon="11.143959982943475"><ele>394.0</ele><time>2026-04-26T09:12:01Z</time></trkpt><trkpt lat="43.105603750176314" lon="11.144140863200786"><ele>394.2</ele><time>2026-04-26T09:12:02Z</time></trkpt><trkpt lat="43.10555195214448" lon="11.144352092968454"><ele>394.4</ele><time>2026-04-26T09:12:03Z</time></trkpt><trkpt lat="43.10553175059255" lon="11.144499551405225"><ele>394.6</ele><time>2026-04-26T09:12:04Z</time></trkpt><trkpt lat="43.10551937746668" lon="11.14463985199235"><ele>394.8</ele><time>2026-04-26T09:12:05Z</time></trkpt><trkpt lat="43.10554560270849" lon="11.14473100574662"><ele>395.0</ele><time>2026-04-26T09:12:06Z</time></trkpt><trkpt lat="43.10553878835046" lon="11.144848980512215"><ele>396.0</ele><time>2026-04-26T09:12:07Z</time></trkpt><trkpt lat="43.10547666999399" lon="11.14499984878832"><ele>397.0</ele><time>2026-04-26T09:12:08Z</time></trkpt><trkpt lat="43.105562008966345" lon="11.14497747071723"><ele>398.0</ele><time>2026-04-26T09:12:12Z</time></trkpt><trkpt lat="43.105855508936195" lon="11.144902511579538"><ele>397.3333333333333</ele><time>2026-04-26T09:12:13Z</time></trkpt><trkpt lat="43.10597932260652" lon="11.144853601632992"><ele>396.66666666666663</ele><time>2026-04-26T09:12:14Z</time></trkpt><trkpt lat="43.10610364923488" lon="11.14483827963368"><ele>396.0</ele><time>2026-04-26T09:12:15Z</time></trkpt><trkpt lat="43.10633412072225" lon="11.144741192113951"><ele>396.0</ele><time>2026-04-26T09:12:16Z</time></trkpt><trkpt lat="43.10648620376979" lon="11.144714711114151"><ele>396.0</ele><time>2026-04-26T09:12:17Z</time></trkpt><trkpt lat="43.10660562220515" lon="11.144771053183277"><ele>396.0</ele><time>2026-04-26T09:12:18Z</time></trkpt><trkpt lat="43.1067402355842" lon="11.144782581119186"><ele>396.0</ele><time>2026-04-26T09:12:19Z</time></trkpt><trkpt lat="43.10688290114751" lon="11.144767807215654"><ele>397.0</ele><time>2026-04-26T09:12:20Z</time></trkpt><trkpt lat="43.10702837845932" lon="11.144710636572242"><ele>398.0</ele><time>2026-04-26T09:12:21Z</time></trkpt><trkpt lat="43.10720574114959" lon="11.144620216188168"><ele>399.0</ele><time>2026-04-26T09:12:22Z</time></trkpt><trkpt lat="43.107399423776705" lon="11.144514938620148"><ele>401.33333333333337</ele><time>2026-04-26T09:12:23Z</time></trkpt><trkpt lat="43.10756622338654" lon="11.144431290957478"><ele>403.6666666666667</ele><time>2026-04-26T09:12:24Z</time></trkpt><trkpt lat="43.10772119609855" lon="11.144380977496343"><ele>406.0</ele><time>2026-04-26T09:12:25Z</time></trkpt><trkpt lat="43.10787663461172" lon="11.14428413115442"><ele>406.0</ele><time>2026-04-26T09:12:26Z</time></trkpt><trkpt lat="43.10803846322693" lon="11.144249995479871"><ele>406.0</ele><time>2026-04-26T09:12:27Z</time></trkpt><trkpt lat="43.10815589581731" lon="11.144353678888942"><ele>406.0</ele><time>2026-04-26T09:12:28Z</time></trkpt><trkpt lat="43.108284230628385" lon="11.144455347418884"><ele>405.25</ele><time>2026-04-26T09:12:29Z</time></trkpt><trkpt lat="43.10837483087812" lon="11.144580360480862"><ele>404.5</ele><time>2026-04-26T09:12:30Z</time></trkpt><trkpt lat="43.1084129138511" lon="11.144715854498793"><ele>403.75</ele><time>2026-04-26T09:12:31Z</time></trkpt><trkpt lat="43.10840784629723" lon="11.144847038822357"><ele>403.0</ele><time>2026-04-26T09:12:32Z</time></trkpt><trkpt lat="43.108463435776784" lon="11.145075855031259"><ele>407.6666666666667</ele><time>2026-04-26T09:12:33Z</time></trkpt><trkpt lat="43.10852122139101" lon="11.14533475086301"><ele>412.33333333333337</ele><time>2026-04-26T09:12:34Z</time></trkpt><trkpt lat="43.108542323456255" lon="11.145499473294246"><ele>417.0</ele><time>2026-04-26T09:12:35Z</time></trkpt><trkpt lat="43.10852901519068" lon="11.145683546343916"><ele>419.66666666666663</ele><time>2026-04-26T09:12:36Z</time></trkpt><trkpt lat="43.10848131202598" lon="11.145900960543862"><ele>422.3333333333333</ele><time>2026-04-26T09:12:37Z</time></trkpt><trkpt lat="43.108432315526485" lon="11.146124907933002"><ele>425.0</ele><time>2026-04-26T09:12:38Z</time></trkpt><trkpt lat="43.108433318646256" lon="11.146369383442144"><ele>425.0</ele><time>2026-04-26T09:12:39Z</time></trkpt><trkpt lat="43.10851011399853" lon="11.146537139056317"><ele>425.0</ele><time>2026-04-26T09:12:40Z</time></trkpt><trkpt lat="43.10856389739588" lon="11.146635033895171"><ele>425.0</ele><time>2026-04-26T09:12:41Z</time></trkpt><trkpt lat="43.10866136370872" lon="11.146635417063312"><ele>425.0</ele><time>2026-04-26T09:12:41.999Z</time></trkpt><trkpt lat="43.108748628665104" lon="11.146703760004215"><ele>425.0</ele><time>2026-04-26T09:12:42.999Z</time></trkpt><trkpt lat="43.108901551841" lon="11.14683573466717"><ele>424.0</ele><time>2026-04-26T09:12:43.999Z</time></trkpt><trkpt lat="43.10903427953584" lon="11.146967303441214"><ele>423.0</ele><time>2026-04-26T09:12:44.999Z</time></trkpt><trkpt lat="43.10913051375171" lon="11.14706269435985"><ele>422.0</ele><time>2026-04-26T09:12:45.999Z</time></trkpt><trkpt lat="43.10925289689904" lon="11.147163055329088"><ele>421.0</ele><time>2026-04-26T09:12:46.999Z</time></trkpt><trkpt lat="43.109378085479854" lon="11.147201979478767"><ele>421.0</ele><time>2026-04-26T09:12:47.999Z</time></trkpt><trkpt lat="43.10952435133155" lon="11.147218757199692"><ele>421.0</ele><time>2026-04-26T09:12:48.999Z</time></trkpt><trkpt lat="43.109670036795364" lon="11.147210274141203"><ele>421.0</ele><time>2026-04-26T09:12:49.999Z</time></trkpt><trkpt lat="43.109801182665095" lon="11.147124043809534"><ele>421.0</ele><time>2026-04-26T09:12:50.999Z</time></trkpt><trkpt lat="43.109938037131975" lon="11.147061379873405"><ele>422.0</ele><time>2026-04-26T09:12:51.999Z</time></trkpt><trkpt lat="43.110111629554794" lon="11.147039649323562"><ele>423.0</ele><time>2026-04-26T09:12:52.999Z</time></trkpt><trkpt lat="43.110305490848454" lon="11.1470995790672"><ele>424.0</ele><time>2026-04-26T09:12:53.999Z</time></trkpt><trkpt lat="43.11056136634253" lon="11.147063174632622"><ele>426.5</ele><time>2026-04-26T09:12:54.999Z</time></trkpt><trkpt lat="43.11079153529575" lon="11.147014150701406"><ele>429.0</ele><time>2026-04-26T09:12:55.999Z</time></trkpt><trkpt lat="43.11100140069412" lon="11.146921023420902"><ele>429.0</ele><time>2026-04-26T09:12:56.999Z</time></trkpt><trkpt lat="43.11118576437953" lon="11.14684635564594"><ele>429.0</ele><time>2026-04-26T09:12:57.999Z</time></trkpt><trkpt lat="43.11139667411406" lon="11.146784681656671"><ele>429.0</ele><time>2026-04-26T09:12:58.999Z</time></trkpt><trkpt lat="43.11158544106513" lon="11.146731292737217"><ele>427.66666666666663</ele><time>2026-04-26T09:12:59.999Z</time></trkpt><trkpt lat="43.11174153671652" lon="11.14671976479336"><ele>426.3333333333333</ele><time>2026-04-26T09:13:00.999Z</time></trkpt><trkpt lat="43.11190167729808" lon="11.146736941704308"><ele>425.0</ele><time>2026-04-26T09:13:01.999Z</time></trkpt><trkpt lat="43.11204609513551" lon="11.146786761034875"><ele>425.0</ele><time>2026-04-26T09:13:02.999Z</time></trkpt><trkpt lat="43.11215326400464" lon="11.14683319692291"><ele>425.0</ele><time>2026-04-26T09:13:03.999Z</time></trkpt><trkpt lat="43.11225430254856" lon="11.14690152128411"><ele>425.0</ele><time>2026-04-26T09:13:04.999Z</time></trkpt><trkpt lat="43.11236849463911" lon="11.147008531246904"><ele>425.0</ele><time>2026-04-26T09:13:05.999Z</time></trkpt><trkpt lat="43.11246778144425" lon="11.147142931256502"><ele>420.0</ele><time>2026-04-26T09:13:06.999Z</time></trkpt><trkpt lat="43.11258265868518" lon="11.147265032443757"><ele>415.0</ele><time>2026-04-26T09:13:07.999Z</time></trkpt><trkpt lat="43.112707374233885" lon="11.147382070696018"><ele>410.0</ele><time>2026-04-26T09:13:08.999Z</time></trkpt><trkpt lat="43.11278990585007" lon="11.147592759377071"><ele>410.0</ele><time>2026-04-26T09:13:09.999Z</time></trkpt><trkpt lat="43.1128027970247" lon="11.14788896312738"><ele>410.0</ele><time>2026-04-26T09:13:10.999Z</time></trkpt><trkpt lat="43.11279748257303" lon="11.14815792521628"><ele>410.0</ele><time>2026-04-26T09:13:11.999Z</time></trkpt><trkpt lat="43.11280648095393" lon="11.148413410817472"><ele>408.0</ele><time>2026-04-26T09:13:12.999Z</time></trkpt><trkpt lat="43.112831363052045" lon="11.148766251438232"><ele>406.0</ele><time>2026-04-26T09:13:13.999Z</time></trkpt><trkpt lat="43.11282462863617" lon="11.14904612560646"><ele>403.0</ele><time>2026-04-26T09:13:14.999Z</time></trkpt><trkpt lat="43.11252385737931" lon="11.149343451523531"><ele>400.0</ele><time>2026-04-26T09:13:15.999Z</time></trkpt><trkpt lat="43.11246107415347" lon="11.14956928772962"><ele>405.33333333333337</ele><time>2026-04-26T09:13:16.999Z</time></trkpt><trkpt lat="43.11239978136519" lon="11.14984013598732"><ele>410.66666666666663</ele><time>2026-04-26T09:13:17.999Z</time></trkpt><trkpt lat="43.1123347585932" lon="11.15012470749084"><ele>416.0</ele><time>2026-04-26T09:13:18.999Z</time></trkpt><trkpt lat="43.112283494645766" lon="11.150440855281863"><ele>414.0</ele><time>2026-04-26T09:13:19.999Z</time></trkpt><trkpt lat="43.11216919330604" lon="11.150781100501405"><ele>412.0</ele><time>2026-04-26T09:13:20.999Z</time></trkpt><trkpt lat="43.112147025685914" lon="11.151053264968123"><ele>412.0</ele><time>2026-04-26T09:13:21.999Z</time></trkpt><trkpt lat="43.112124061202174" lon="11.151374662193588"><ele>412.0</ele><time>2026-04-26T09:13:22.999Z</time></trkpt><trkpt lat="43.11201805966224" lon="11.151726660734134"><ele>411.0</ele><time>2026-04-26T09:13:23.999Z</time></trkpt><trkpt lat="43.111943154002134" lon="11.152080101568865"><ele>410.0</ele><time>2026-04-26T09:13:24.999Z</time></trkpt><trkpt lat="43.11193514766782" lon="11.15235702051748"><ele>409.0</ele><time>2026-04-26T09:13:25.999Z</time></trkpt><trkpt lat="43.11182224745547" lon="11.152700454004163"><ele>408.0</ele><time>2026-04-26T09:13:26.999Z</time></trkpt><trkpt lat="43.11176246661364" lon="11.152996183820543"><ele>407.33333333333337</ele><time>2026-04-26T09:13:27.999Z</time></trkpt><trkpt lat="43.111757416478376" lon="11.153276346904644"><ele>406.6666666666667</ele><time>2026-04-26T09:13:28.999Z</time></trkpt><trkpt lat="43.11177426467107" lon="11.153561556357692"><ele>406.0</ele><time>2026-04-26T09:13:29.999Z</time></trkpt><trkpt lat="43.1118090333567" lon="11.153842914988921"><ele>403.6666666666667</ele><time>2026-04-26T09:13:30.999Z</time></trkpt><trkpt lat="43.11186281570922" lon="11.154128688494092"><ele>401.33333333333337</ele><time>2026-04-26T09:13:31.999Z</time></trkpt><trkpt lat="43.11195951977073" lon="11.15439993438438"><ele>399.0</ele><time>2026-04-26T09:13:32.999Z</time></trkpt><trkpt lat="43.112078944313794" lon="11.154638920636554"><ele>397.0</ele><time>2026-04-26T09:13:33.999Z</time></trkpt><trkpt lat="43.112197236387175" lon="11.15488093306711"><ele>395.0</ele><time>2026-04-26T09:13:34.999Z</time></trkpt><trkpt lat="43.1123000800216" lon="11.15511924192892"><ele>393.0</ele><time>2026-04-26T09:13:35.999Z</time></trkpt><trkpt lat="43.112382374195896" lon="11.155374969290536"><ele>393.0</ele><time>2026-04-26T09:13:36.999Z</time></trkpt><trkpt lat="43.112422454169874" lon="11.15559210424921"><ele>393.0</ele><time>2026-04-26T09:13:37.999Z</time></trkpt><trkpt lat="43.11242875242049" lon="11.155776227464425"><ele>393.0</ele><time>2026-04-26T09:13:38.999Z</time></trkpt><trkpt lat="43.11240824174026" lon="11.156011489924333"><ele>392.66666666666663</ele><time>2026-04-26T09:13:39.999Z</time></trkpt><trkpt lat="43.112342895618106" lon="11.156215537238841"><ele>392.3333333333333</ele><time>2026-04-26T09:13:40.998Z</time></trkpt><trkpt lat="43.11226403595242" lon="11.156443664715106"><ele>392.0</ele><time>2026-04-26T09:13:41.998Z</time></trkpt><trkpt lat="43.112191456405874" lon="11.15680125608856"><ele>390.66666666666663</ele><time>2026-04-26T09:13:42.998Z</time></trkpt><trkpt lat="43.11213032557467" lon="11.157005197859593"><ele>389.33333333333337</ele><time>2026-04-26T09:13:43.998Z</time></trkpt><trkpt lat="43.11207815426042" lon="11.157230425897874"><ele>388.0</ele><time>2026-04-26T09:13:44.998Z</time></trkpt><trkpt lat="43.11201904344271" lon="11.15749471037152"><ele>387.6666666666667</ele><time>2026-04-26T09:13:45.998Z</time></trkpt><trkpt lat="43.11196210516948" lon="11.157740954652786"><ele>387.33333333333337</ele><time>2026-04-26T09:13:46.998Z</time></trkpt><trkpt lat="43.111922900023764" lon="11.157931570505415"><ele>387.0</ele><time>2026-04-26T09:13:47.998Z</time></trkpt><trkpt lat="43.11189587432595" lon="11.15812134547546"><ele>386.25</ele><time>2026-04-26T09:13:48.998Z</time></trkpt><trkpt lat="43.111923077672735" lon="11.158305671698784"><ele>385.5</ele><time>2026-04-26T09:13:49.998Z</time></trkpt><trkpt lat="43.111989048773914" lon="11.158461913569328"><ele>384.75</ele><time>2026-04-26T09:13:50.998Z</time></trkpt><trkpt lat="43.11206626038589" lon="11.158571347207745"><ele>384.0</ele><time>2026-04-26T09:13:51.998Z</time></trkpt><trkpt lat="43.112184167968245" lon="11.158696019237006"><ele>384.0</ele><time>2026-04-26T09:13:53Z</time></trkpt><trkpt lat="43.11231872527018" lon="11.158824045528915"><ele>384.0</ele><time>2026-04-26T09:13:54Z</time></trkpt><trkpt lat="43.11245998695859" lon="11.158937255990109"><ele>384.0</ele><time>2026-04-26T09:13:55Z</time></trkpt><trkpt lat="43.11257789602181" lon="11.159015838045452"><ele>383.5</ele><time>2026-04-26T09:13:56Z</time></trkpt><trkpt lat="43.11271381851507" lon="11.159039494660298"><ele>383.0</ele><time>2026-04-26T09:13:57Z</time></trkpt><trkpt lat="43.11285045981341" lon="11.159084824452767"><ele>382.5</ele><time>2026-04-26T09:13:58Z</time></trkpt><trkpt lat="43.11292959067662" lon="11.159096168643659"><ele>382.0</ele><time>2026-04-26T09:13:59Z</time></trkpt><trkpt lat="43.1131189522778" lon="11.159079921688111"><ele>382.3333333333333</ele><time>2026-04-26T09:14:00Z</time></trkpt><trkpt lat="43.11330239822078" lon="11.159062102800334"><ele>382.6666666666667</ele><time>2026-04-26T09:14:01Z</time></trkpt><trkpt lat="43.11347761131674" lon="11.159050987171993"><ele>383.0</ele><time>2026-04-26T09:14:02Z</time></trkpt><trkpt lat="43.11365480792803" lon="11.159017261275707"><ele>386.33333333333337</ele><time>2026-04-26T09:14:03Z</time></trkpt><trkpt lat="43.11383249758614" lon="11.158968285205312"><ele>389.6666666666667</ele><time>2026-04-26T09:14:04Z</time></trkpt><trkpt lat="43.11404040324782" lon="11.158951042139797"><ele>393.0</ele><time>2026-04-26T09:14:05Z</time></trkpt><trkpt lat="43.1142247196323" lon="11.158948480406218"><ele>393.0</ele><time>2026-04-26T09:14:06Z</time></trkpt><trkpt lat="43.1144123407326" lon="11.158926906272667"><ele>393.0</ele><time>2026-04-26T09:14:07Z</time></trkpt><trkpt lat="43.11460052790197" lon="11.158888771624568"><ele>393.0</ele><time>2026-04-26T09:14:08Z</time></trkpt><trkpt lat="43.11482170919828" lon="11.15882556427718"><ele>392.0</ele><time>2026-04-26T09:14:09Z</time></trkpt><trkpt lat="43.115004719934" lon="11.158874357185352"><ele>391.0</ele><time>2026-04-26T09:14:10Z</time></trkpt><trkpt lat="43.1151403802359" lon="11.158882760665978"><ele>390.0</ele><time>2026-04-26T09:14:11Z</time></trkpt><trkpt lat="43.11529387715317" lon="11.158963898987848"><ele>387.0</ele><time>2026-04-26T09:14:12Z</time></trkpt><trkpt lat="43.115403331018285" lon="11.159057418053505"><ele>384.0</ele><time>2026-04-26T09:14:13Z</time></trkpt><trkpt lat="43.115583881290796" lon="11.159190328106744"><ele>381.0</ele><time>2026-04-26T09:14:14Z</time></trkpt><trkpt lat="43.115704437924016" lon="11.159354122196072"><ele>386.33333333333337</ele><time>2026-04-26T09:14:15Z</time></trkpt><trkpt lat="43.11583000903887" lon="11.159514885890303"><ele>391.6666666666667</ele><time>2026-04-26T09:14:16Z</time></trkpt><trkpt lat="43.11593113648106" lon="11.159677158151412"><ele>397.0</ele><time>2026-04-26T09:14:17Z</time></trkpt><trkpt lat="43.11604244084943" lon="11.159816004999008"><ele>394.25</ele><time>2026-04-26T09:14:18Z</time></trkpt><trkpt lat="43.11614783578568" lon="11.159969381587178"><ele>391.5</ele><time>2026-04-26T09:14:19Z</time></trkpt><trkpt lat="43.11623499034938" lon="11.160130154576358"><ele>388.75</ele><time>2026-04-26T09:14:20Z</time></trkpt><trkpt lat="43.116287608586255" lon="11.160302648010692"><ele>386.0</ele><time>2026-04-26T09:14:21Z</time></trkpt><trkpt lat="43.11635621914044" lon="11.160478280138323"><ele>386.0</ele><time>2026-04-26T09:14:22Z</time></trkpt><trkpt lat="43.11640431995274" lon="11.160688396057873"><ele>386.0</ele><time>2026-04-26T09:14:23Z</time></trkpt><trkpt lat="43.11642178810113" lon="11.16092414251281"><ele>386.0</ele><time>2026-04-26T09:14:24Z</time></trkpt><trkpt lat="43.11641023813857" lon="11.161173332030138"><ele>383.66666666666663</ele><time>2026-04-26T09:14:25Z</time></trkpt><trkpt lat="43.11640094884366" lon="11.161453348639188"><ele>381.3333333333333</ele><time>2026-04-26T09:14:26Z</time></trkpt><trkpt lat="43.1164182198747" lon="11.16171266243581"><ele>379.0</ele><time>2026-04-26T09:14:27Z</time></trkpt><trkpt lat="43.1164261870261" lon="11.161956171121888"><ele>377.66666666666663</ele><time>2026-04-26T09:14:28Z</time></trkpt><trkpt lat="43.11644049569707" lon="11.162209213248113"><ele>376.3333333333333</ele><time>2026-04-26T09:14:29Z</time></trkpt><trkpt lat="43.11645133963118" lon="11.162446110444074"><ele>375.0</ele><time>2026-04-26T09:14:30Z</time></trkpt><trkpt lat="43.11643902357608" lon="11.162642215029877"><ele>374.6666666666667</ele><time>2026-04-26T09:14:31Z</time></trkpt><trkpt lat="43.116386223570494" lon="11.162833259154848"><ele>374.33333333333337</ele><time>2026-04-26T09:14:32Z</time></trkpt><trkpt lat="43.116338980457265" lon="11.163009336081943"><ele>374.0</ele><time>2026-04-26T09:14:33Z</time></trkpt><trkpt lat="43.11628821683054" lon="11.163274845335144"><ele>375.0</ele><time>2026-04-26T09:14:34Z</time></trkpt><trkpt lat="43.11624996037022" lon="11.163519557642791"><ele>376.0</ele><time>2026-04-26T09:14:35Z</time></trkpt><trkpt lat="43.11619937796339" lon="11.163759891252537"><ele>377.0</ele><time>2026-04-26T09:14:36Z</time></trkpt><trkpt lat="43.116113077387325" lon="11.163941668872475"><ele>378.0</ele><time>2026-04-26T09:14:37Z</time></trkpt><trkpt lat="43.11603975056248" lon="11.164149607137075"><ele>379.0</ele><time>2026-04-26T09:14:38Z</time></trkpt><trkpt lat="43.11597629451544" lon="11.16439573911032"><ele>380.0</ele><time>2026-04-26T09:14:39Z</time></trkpt><trkpt lat="43.115908571675064" lon="11.164634202529712"><ele>382.6666666666667</ele><time>2026-04-26T09:14:40Z</time></trkpt><trkpt lat="43.115832952100064" lon="11.164863433123447"><ele>385.33333333333337</ele><time>2026-04-26T09:14:41Z</time></trkpt><trkpt lat="43.1157504377106" lon="11.165073415221398"><ele>388.0</ele><time>2026-04-26T09:14:42Z</time></trkpt><trkpt lat="43.11566381850165" lon="11.165271169660551"><ele>384.0</ele><time>2026-04-26T09:14:43Z</time></trkpt><trkpt lat="43.115574982684926" lon="11.165462958858024"><ele>380.0</ele><time>2026-04-26T09:14:44Z</time></trkpt><trkpt lat="43.115482044644075" lon="11.165634352240403"><ele>376.0</ele><time>2026-04-26T09:14:45Z</time></trkpt><trkpt lat="43.11538657701146" lon="11.165802431185204"><ele>376.0</ele><time>2026-04-26T09:14:46Z</time></trkpt><trkpt lat="43.11528926261016" lon="11.165982119248708"><ele>376.0</ele><time>2026-04-26T09:14:47Z</time></trkpt><trkpt lat="43.11522065424495" lon="11.166172869789762"><ele>376.0</ele><time>2026-04-26T09:14:47.999Z</time></trkpt><trkpt lat="43.115171781589574" lon="11.166380833741899"><ele>377.0</ele><time>2026-04-26T09:14:48.999Z</time></trkpt><trkpt lat="43.11514170877281" lon="11.166628560300968"><ele>378.0</ele><time>2026-04-26T09:14:49.999Z</time></trkpt><trkpt lat="43.11515060746325" lon="11.166885643672515"><ele>379.0</ele><time>2026-04-26T09:14:50.999Z</time></trkpt><trkpt lat="43.11517277443087" lon="11.167102174930358"><ele>379.0</ele><time>2026-04-26T09:14:51.999Z</time></trkpt><trkpt lat="43.11521653823175" lon="11.167286691060477"><ele>379.0</ele><time>2026-04-26T09:14:52.999Z</time></trkpt><trkpt lat="43.11525422880719" lon="11.167484472609926"><ele>379.0</ele><time>2026-04-26T09:14:53.999Z</time></trkpt><trkpt lat="43.115304530899415" lon="11.167659627260813"><ele>379.0</ele><time>2026-04-26T09:14:54.999Z</time></trkpt><trkpt lat="43.11539776059519" lon="11.16786155021822"><ele>378.0</ele><time>2026-04-26T09:14:55.999Z</time></trkpt><trkpt lat="43.11547921937734" lon="11.168065777683434"><ele>377.0</ele><time>2026-04-26T09:14:56.999Z</time></trkpt><trkpt lat="43.115541613614084" lon="11.168290417397975"><ele>376.0</ele><time>2026-04-26T09:14:57.999Z</time></trkpt><trkpt lat="43.11560868068738" lon="11.16851241490288"><ele>375.3333333333333</ele><time>2026-04-26T09:14:58.999Z</time></trkpt><trkpt lat="43.11568416910478" lon="11.168735613427723"><ele>374.6666666666667</ele><time>2026-04-26T09:14:59.999Z</time></trkpt><trkpt lat="43.1157529631564" lon="11.168949414281785"><ele>374.0</ele><time>2026-04-26T09:15:00.999Z</time></trkpt><trkpt lat="43.11584420359892" lon="11.169149980602919"><ele>375.33333333333337</ele><time>2026-04-26T09:15:01.999Z</time></trkpt><trkpt lat="43.11595369347038" lon="11.16935385546567"><ele>376.6666666666667</ele><time>2026-04-26T09:15:02.999Z</time></trkpt><trkpt lat="43.11609402961323" lon="11.169554124565975"><ele>378.0</ele><time>2026-04-26T09:15:03.999Z</time></trkpt><trkpt lat="43.11624304819727" lon="11.16972888683928"><ele>378.0</ele><time>2026-04-26T09:15:04.999Z</time></trkpt><trkpt lat="43.11640619740283" lon="11.169897017229221"><ele>378.0</ele><time>2026-04-26T09:15:05.999Z</time></trkpt><trkpt lat="43.11656706502885" lon="11.170052045333327"><ele>378.0</ele><time>2026-04-26T09:15:06.999Z</time></trkpt><trkpt lat="43.11671041512621" lon="11.170197371337709"><ele>378.0</ele><time>2026-04-26T09:15:07.999Z</time></trkpt><trkpt lat="43.11684456574134" lon="11.170322591422838"><ele>378.0</ele><time>2026-04-26T09:15:08.999Z</time></trkpt><trkpt lat="43.11699557612735" lon="11.17039507474423"><ele>378.0</ele><time>2026-04-26T09:15:09.999Z</time></trkpt><trkpt lat="43.11716470993552" lon="11.170378251316718"><ele>378.0</ele><time>2026-04-26T09:15:10.999Z</time></trkpt><trkpt lat="43.11732184120997" lon="11.170270361268429"><ele>378.0</ele><time>2026-04-26T09:15:11.999Z</time></trkpt><trkpt lat="43.117458666812375" lon="11.17013306549855"><ele>378.0</ele><time>2026-04-26T09:15:12.999Z</time></trkpt><trkpt lat="43.11760082877622" lon="11.169973300577238"><ele>379.0</ele><time>2026-04-26T09:15:13.999Z</time></trkpt><trkpt lat="43.11775107357735" lon="11.169850129636517"><ele>380.0</ele><time>2026-04-26T09:15:14.999Z</time></trkpt><trkpt lat="43.11792196987343" lon="11.16977209198811"><ele>381.0</ele><time>2026-04-26T09:15:15.999Z</time></trkpt><trkpt lat="43.118110365039286" lon="11.169753657149018"><ele>378.0</ele><time>2026-04-26T09:15:16.999Z</time></trkpt><trkpt lat="43.11828413588339" lon="11.16973350226303"><ele>375.0</ele><time>2026-04-26T09:15:17.999Z</time></trkpt><trkpt lat="43.11847067669418" lon="11.169708220394753"><ele>372.0</ele><time>2026-04-26T09:15:18.999Z</time></trkpt><trkpt lat="43.11866479094396" lon="11.169678598218846"><ele>372.0</ele><time>2026-04-26T09:15:19.999Z</time></trkpt><trkpt lat="43.11882080573755" lon="11.169572576834502"><ele>372.0</ele><time>2026-04-26T09:15:20.999Z</time></trkpt><trkpt lat="43.11899225098938" lon="11.169464436579984"><ele>372.0</ele><time>2026-04-26T09:15:21.999Z</time></trkpt><trkpt lat="43.11916878166296" lon="11.169375831758133"><ele>370.0</ele><time>2026-04-26T09:15:22.999Z</time></trkpt><trkpt lat="43.11939555192766" lon="11.169380179964334"><ele>368.0</ele><time>2026-04-26T09:15:23.999Z</time></trkpt><trkpt lat="43.1195614181188" lon="11.169480152543322"><ele>366.0</ele><time>2026-04-26T09:15:24.999Z</time></trkpt><trkpt lat="43.11968172059362" lon="11.169567857127147"><ele>366.0</ele><time>2026-04-26T09:15:25.999Z</time></trkpt><trkpt lat="43.1197200274208" lon="11.169646077767798"><ele>366.0</ele><time>2026-04-26T09:15:26.999Z</time></trkpt><trkpt lat="43.119752397479814" lon="11.169826286225142"><ele>366.0</ele><time>2026-04-26T09:15:28.999Z</time></trkpt><trkpt lat="43.119765980880594" lon="11.16995475523363"><ele>366.0</ele><time>2026-04-26T09:15:29.999Z</time></trkpt><trkpt lat="43.119809530496156" lon="11.170186870064757"><ele>364.75</ele><time>2026-04-26T09:15:31.999Z</time></trkpt><trkpt lat="43.11983952937758" lon="11.170374697604219"><ele>363.5</ele><time>2026-04-26T09:15:32.999Z</time></trkpt><trkpt lat="43.11982919796598" lon="11.170590990416036"><ele>362.25</ele><time>2026-04-26T09:15:34.038Z</time></trkpt><trkpt lat="43.119828281011216" lon="11.170770614072477"><ele>361.0</ele><time>2026-04-26T09:15:35.039Z</time></trkpt><trkpt lat="43.11985329322293" lon="11.171007205656661"><ele>360.5</ele><time>2026-04-26T09:15:36.036Z</time></trkpt><trkpt lat="43.119891783707274" lon="11.17122060604377"><ele>360.0</ele><time>2026-04-26T09:15:37.035Z</time></trkpt><trkpt lat="43.11997797872004" lon="11.171430954253609"><ele>359.5</ele><time>2026-04-26T09:15:38.034Z</time></trkpt><trkpt lat="43.1200631572049" lon="11.171532538172343"><ele>359.0</ele><time>2026-04-26T09:15:39.037Z</time></trkpt><trkpt lat="43.12152125446991" lon="11.17139181692492"><ele>359.75</ele><time>2026-04-26T09:15:43.999Z</time></trkpt><trkpt lat="43.12168715408971" lon="11.171447057686052"><ele>360.5</ele><time>2026-04-26T09:15:44.998Z</time></trkpt><trkpt lat="43.12166175353827" lon="11.171664228468808"><ele>361.25</ele><time>2026-04-26T09:15:45.998Z</time></trkpt><trkpt lat="43.1217193426252" lon="11.171742974971384"><ele>362.0</ele><time>2026-04-26T09:15:46.998Z</time></trkpt><trkpt lat="43.12188863597978" lon="11.17180187831185"><ele>362.0</ele><time>2026-04-26T09:15:47.998Z</time></trkpt><trkpt lat="43.122053835828766" lon="11.171908750905981"><ele>362.0</ele><time>2026-04-26T09:15:48.998Z</time></trkpt><trkpt lat="43.122150392235284" lon="11.172008119254844"><ele>362.0</ele><time>2026-04-26T09:15:49.998Z</time></trkpt><trkpt lat="43.122254918312144" lon="11.172187543854577"><ele>361.6666666666667</ele><time>2026-04-26T09:15:50.998Z</time></trkpt><trkpt lat="43.12232923520503" lon="11.17243110465242"><ele>361.3333333333333</ele><time>2026-04-26T09:15:51.998Z</time></trkpt><trkpt lat="43.12238577314212" lon="11.17263795177931"><ele>361.0</ele><time>2026-04-26T09:15:52.998Z</time></trkpt><trkpt lat="43.122478018756865" lon="11.17283927148183"><ele>363.0</ele><time>2026-04-26T09:15:53.998Z</time></trkpt><trkpt lat="43.12257688283609" lon="11.173060410131432"><ele>365.0</ele><time>2026-04-26T09:15:54.998Z</time></trkpt><trkpt lat="43.1226771921879" lon="11.173284768698853"><ele>367.0</ele><time>2026-04-26T09:15:55.998Z</time></trkpt><trkpt lat="43.122756913479584" lon="11.173501213192424"><ele>367.3333333333333</ele><time>2026-04-26T09:15:56.998Z</time></trkpt><trkpt lat="43.12283378623339" lon="11.173708952889962"><ele>367.6666666666667</ele><time>2026-04-26T09:15:57.998Z</time></trkpt><trkpt lat="43.12291388689292" lon="11.173917520900932"><ele>368.0</ele><time>2026-04-26T09:15:59Z</time></trkpt><trkpt lat="43.12302564294753" lon="11.174105699142698"><ele>367.33333333333337</ele><time>2026-04-26T09:16:00Z</time></trkpt><trkpt lat="43.123139791840764" lon="11.174309608773802"><ele>366.6666666666667</ele><time>2026-04-26T09:16:01Z</time></trkpt><trkpt lat="43.123249392759845" lon="11.17450194848059"><ele>366.0</ele><time>2026-04-26T09:16:02Z</time></trkpt><trkpt lat="43.12337349779896" lon="11.174677526009248"><ele>367.6666666666667</ele><time>2026-04-26T09:16:03Z</time></trkpt><trkpt lat="43.12349930072677" lon="11.174852215260765"><ele>369.33333333333337</ele><time>2026-04-26T09:16:04Z</time></trkpt><trkpt lat="43.12363900150527" lon="11.175019201403979"><ele>371.0</ele><time>2026-04-26T09:16:05Z</time></trkpt><trkpt lat="43.1237560309292" lon="11.175307303008763"><ele>371.0</ele><time>2026-04-26T09:16:06Z</time></trkpt><trkpt lat="43.12393033522623" lon="11.175359896310827"><ele>371.0</ele><time>2026-04-26T09:16:07Z</time></trkpt><trkpt lat="43.12380465587746" lon="11.175303282043233"><ele>371.0</ele><time>2026-04-26T09:16:08Z</time></trkpt><trkpt lat="43.123904127185426" lon="11.175353353747724"><ele>371.0</ele><time>2026-04-26T09:16:09Z</time></trkpt><trkpt lat="43.124064379484594" lon="11.175360072877004"><ele>371.6666666666667</ele><time>2026-04-26T09:16:10Z</time></trkpt><trkpt lat="43.12421871911375" lon="11.175325397842608"><ele>372.3333333333333</ele><time>2026-04-26T09:16:11Z</time></trkpt><trkpt lat="43.12437582298375" lon="11.17529870059932"><ele>373.0</ele><time>2026-04-26T09:16:12Z</time></trkpt><trkpt lat="43.12451115637818" lon="11.175208826720903"><ele>373.0</ele><time>2026-04-26T09:16:13Z</time></trkpt><trkpt lat="43.124619441044224" lon="11.175060266023575"><ele>373.0</ele><time>2026-04-26T09:16:14Z</time></trkpt><trkpt lat="43.1246847037489" lon="11.174907738621064"><ele>373.0</ele><time>2026-04-26T09:16:15Z</time></trkpt><trkpt lat="43.124776353205455" lon="11.174723079772933"><ele>373.0</ele><time>2026-04-26T09:16:16Z</time></trkpt><trkpt lat="43.12490992576526" lon="11.174478993664499"><ele>373.0</ele><time>2026-04-26T09:16:17Z</time></trkpt><trkpt lat="43.12504100702288" lon="11.174338667992458"><ele>373.0</ele><time>2026-04-26T09:16:18Z</time></trkpt><trkpt lat="43.12517360949057" lon="11.17419202509585"><ele>373.0</ele><time>2026-04-26T09:16:19Z</time></trkpt><trkpt lat="43.125316942585386" lon="11.174071652908909"><ele>373.3333333333333</ele><time>2026-04-26T09:16:20Z</time></trkpt><trkpt lat="43.125485447205115" lon="11.173983441212336"><ele>373.6666666666667</ele><time>2026-04-26T09:16:21Z</time></trkpt><trkpt lat="43.12566771123179" lon="11.173940883593188"><ele>374.0</ele><time>2026-04-26T09:16:22Z</time></trkpt><trkpt lat="43.1258405857399" lon="11.17386949013163"><ele>374.0</ele><time>2026-04-26T09:16:23Z</time></trkpt><trkpt lat="43.125962887536296" lon="11.173906571221876"><ele>374.0</ele><time>2026-04-26T09:16:24Z</time></trkpt><trkpt lat="43.12611009394472" lon="11.17393918507233"><ele>374.0</ele><time>2026-04-26T09:16:25Z</time></trkpt><trkpt lat="43.12632632717233" lon="11.174048254290271"><ele>373.0</ele><time>2026-04-26T09:16:26Z</time></trkpt><trkpt lat="43.126494471749766" lon="11.174164912841418"><ele>372.0</ele><time>2026-04-26T09:16:27Z</time></trkpt><trkpt lat="43.12664646096106" lon="11.174288160083401"><ele>371.0</ele><time>2026-04-26T09:16:28Z</time></trkpt><trkpt lat="43.126805507572115" lon="11.174420310565674"><ele>369.33333333333337</ele><time>2026-04-26T09:16:29Z</time></trkpt><trkpt lat="43.126954570717885" lon="11.174539930107999"><ele>367.6666666666667</ele><time>2026-04-26T09:16:30Z</time></trkpt><trkpt lat="43.12709531357051" lon="11.174614444156546"><ele>366.0</ele><time>2026-04-26T09:16:31Z</time></trkpt><trkpt lat="43.12722855889373" lon="11.174703855308062"><ele>366.0</ele><time>2026-04-26T09:16:32Z</time></trkpt><trkpt lat="43.127351593767735" lon="11.174680381841346"><ele>366.0</ele><time>2026-04-26T09:16:33Z</time></trkpt><trkpt lat="43.12747719962222" lon="11.174624496118508"><ele>366.0</ele><time>2026-04-26T09:16:34Z</time></trkpt><trkpt lat="43.12768130097917" lon="11.174613989038527"><ele>365.0</ele><time>2026-04-26T09:16:35Z</time></trkpt><trkpt lat="43.12784886235272" lon="11.174675933146759"><ele>364.0</ele><time>2026-04-26T09:16:36Z</time></trkpt><trkpt lat="43.12799903029574" lon="11.174727621675743"><ele>363.0</ele><time>2026-04-26T09:16:37Z</time></trkpt><trkpt lat="43.128139645030046" lon="11.174720321292423"><ele>363.2</ele><time>2026-04-26T09:16:38Z</time></trkpt><trkpt lat="43.12825441214879" lon="11.174683362898701"><ele>363.4</ele><time>2026-04-26T09:16:39Z</time></trkpt><trkpt lat="43.128332992467065" lon="11.17462684344782"><ele>363.59999999999997</ele><time>2026-04-26T09:16:40Z</time></trkpt><trkpt lat="43.12838015039411" lon="11.174544699864551"><ele>363.79999999999995</ele><time>2026-04-26T09:16:41Z</time></trkpt><trkpt lat="43.128432611799276" lon="11.174449931498526"><ele>364.0</ele><time>2026-04-26T09:16:42Z</time></trkpt><trkpt lat="43.12848160218474" lon="11.174329162651908"><ele>364.0</ele><time>2026-04-26T09:16:43Z</time></trkpt><trkpt lat="43.12851795399158" lon="11.174154905117952"><ele>364.0</ele><time>2026-04-26T09:16:44Z</time></trkpt><trkpt lat="43.12854256855895" lon="11.173960032171374"><ele>364.0</ele><time>2026-04-26T09:16:45Z</time></trkpt><trkpt lat="43.128591595447205" lon="11.173671115142602"><ele>363.0</ele><time>2026-04-26T09:16:46Z</time></trkpt><trkpt lat="43.128697831917464" lon="11.173419389313464"><ele>362.0</ele><time>2026-04-26T09:16:47Z</time></trkpt><trkpt lat="43.12883377156577" lon="11.17323673767901"><ele>361.0</ele><time>2026-04-26T09:16:48Z</time></trkpt><trkpt lat="43.12902323328763" lon="11.173111273059346"><ele>362.0</ele><time>2026-04-26T09:16:49Z</time></trkpt><trkpt lat="43.129192085291315" lon="11.173198954882276"><ele>363.0</ele><time>2026-04-26T09:16:50Z</time></trkpt><trkpt lat="43.129302576148426" lon="11.173165804225134"><ele>364.0</ele><time>2026-04-26T09:16:51Z</time></trkpt><trkpt lat="43.129464190538286" lon="11.173206849258177"><ele>364.0</ele><time>2026-04-26T09:16:52Z</time></trkpt><trkpt lat="43.129605881266734" lon="11.17321163855061"><ele>364.0</ele><time>2026-04-26T09:16:52.999Z</time></trkpt><trkpt lat="43.129711719234734" lon="11.173221476061395"><ele>364.0</ele><time>2026-04-26T09:16:53.999Z</time></trkpt><trkpt lat="43.129879807440304" lon="11.173238923725947"><ele>364.0</ele><time>2026-04-26T09:16:54.999Z</time></trkpt><trkpt lat="43.130058383501705" lon="11.173288723187103"><ele>363.66666666666663</ele><time>2026-04-26T09:16:55.999Z</time></trkpt><trkpt lat="43.13022455197419" lon="11.173326385112025"><ele>363.3333333333333</ele><time>2026-04-26T09:16:56.999Z</time></trkpt><trkpt lat="43.13039073268336" lon="11.173362258602006"><ele>363.0</ele><time>2026-04-26T09:16:57.999Z</time></trkpt><trkpt lat="43.13057598752302" lon="11.173421693555055"><ele>360.6666666666667</ele><time>2026-04-26T09:16:58.999Z</time></trkpt><trkpt lat="43.130754830516935" lon="11.173480283903036"><ele>358.33333333333337</ele><time>2026-04-26T09:16:59.999Z</time></trkpt><trkpt lat="43.13096810610015" lon="11.173553469743947"><ele>356.0</ele><time>2026-04-26T09:17:00.999Z</time></trkpt><trkpt lat="43.13116770818655" lon="11.173607527479541"><ele>356.0</ele><time>2026-04-26T09:17:01.999Z</time></trkpt><trkpt lat="43.13133602264229" lon="11.173690621281745"><ele>356.0</ele><time>2026-04-26T09:17:02.999Z</time></trkpt><trkpt lat="43.13153526196175" lon="11.173804829242815"><ele>356.0</ele><time>2026-04-26T09:17:03.999Z</time></trkpt><trkpt lat="43.13176071513494" lon="11.173913508547583"><ele>357.0</ele><time>2026-04-26T09:17:04.999Z</time></trkpt><trkpt lat="43.13199676020559" lon="11.174019205054178"><ele>358.0</ele><time>2026-04-26T09:17:05.999Z</time></trkpt><trkpt lat="43.1322254132737" lon="11.174114093984931"><ele>353.5</ele><time>2026-04-26T09:17:06.999Z</time></trkpt><trkpt lat="43.13244169992606" lon="11.174212932867226"><ele>349.0</ele><time>2026-04-26T09:17:07.999Z</time></trkpt><trkpt lat="43.13265617198264" lon="11.174324140313395"><ele>349.0</ele><time>2026-04-26T09:17:08.999Z</time></trkpt><trkpt lat="43.13284820565728" lon="11.17442428014253"><ele>349.0</ele><time>2026-04-26T09:17:09.999Z</time></trkpt><trkpt lat="43.13306356846245" lon="11.174537540636365"><ele>349.0</ele><time>2026-04-26T09:17:10.999Z</time></trkpt><trkpt lat="43.13326472131082" lon="11.17464643186829"><ele>348.66666666666663</ele><time>2026-04-26T09:17:11.999Z</time></trkpt><trkpt lat="43.13346655463615" lon="11.174769534808807"><ele>348.3333333333333</ele><time>2026-04-26T09:17:12.999Z</time></trkpt><trkpt lat="43.13364290613342" lon="11.174948799802852"><ele>348.0</ele><time>2026-04-26T09:17:13.999Z</time></trkpt><trkpt lat="43.133801545829236" lon="11.175137331863517"><ele>347.3333333333333</ele><time>2026-04-26T09:17:14.999Z</time></trkpt><trkpt lat="43.13396669841509" lon="11.175285130354744"><ele>346.66666666666663</ele><time>2026-04-26T09:17:15.999Z</time></trkpt><trkpt lat="43.13412033997618" lon="11.17540954265291"><ele>346.0</ele><time>2026-04-26T09:17:16.999Z</time></trkpt><trkpt lat="43.13424218738261" lon="11.175616331573796"><ele>345.3333333333333</ele><time>2026-04-26T09:17:17.999Z</time></trkpt><trkpt lat="43.13442073602888" lon="11.175826086612108"><ele>344.6666666666667</ele><time>2026-04-26T09:17:18.999Z</time></trkpt><trkpt lat="43.13458256769036" lon="11.176012204910458"><ele>344.0</ele><time>2026-04-26T09:17:19.999Z</time></trkpt><trkpt lat="43.13473716302799" lon="11.176171835274896"><ele>346.33333333333337</ele><time>2026-04-26T09:17:20.999Z</time></trkpt><trkpt lat="43.13489281444707" lon="11.176311953840235"><ele>348.6666666666667</ele><time>2026-04-26T09:17:21.999Z</time></trkpt><trkpt lat="43.13504132544792" lon="11.176421018134498"><ele>351.0</ele><time>2026-04-26T09:17:22.999Z</time></trkpt><trkpt lat="43.13519899342612" lon="11.176478152506599"><ele>351.0</ele><time>2026-04-26T09:17:23.999Z</time></trkpt><trkpt lat="43.13535789660525" lon="11.176458498208753"><ele>351.0</ele><time>2026-04-26T09:17:24.999Z</time></trkpt><trkpt lat="43.13549980974504" lon="11.176409526440466"><ele>351.0</ele><time>2026-04-26T09:17:25.999Z</time></trkpt><trkpt lat="43.13563928164825" lon="11.176354960966583"><ele>352.0</ele><time>2026-04-26T09:17:26.999Z</time></trkpt><trkpt lat="43.13579171658022" lon="11.176302234071091"><ele>353.0</ele><time>2026-04-26T09:17:27.999Z</time></trkpt><trkpt lat="43.13593121706588" lon="11.176268844901264"><ele>354.0</ele><time>2026-04-26T09:17:28.999Z</time></trkpt><trkpt lat="43.136097404643685" lon="11.176228759149295"><ele>354.0</ele><time>2026-04-26T09:17:29.999Z</time></trkpt><trkpt lat="43.13625967028053" lon="11.176209248222333"><ele>354.0</ele><time>2026-04-26T09:17:30.999Z</time></trkpt><trkpt lat="43.136402482917255" lon="11.176132815729055"><ele>354.0</ele><time>2026-04-26T09:17:31.999Z</time></trkpt><trkpt lat="43.13658333049053" lon="11.176100545205072"><ele>353.3333333333333</ele><time>2026-04-26T09:17:32.999Z</time></trkpt><trkpt lat="43.136732186840135" lon="11.176069213150239"><ele>352.66666666666663</ele><time>2026-04-26T09:17:33.999Z</time></trkpt><trkpt lat="43.13688970777012" lon="11.17609469580913"><ele>352.0</ele><time>2026-04-26T09:17:34.999Z</time></trkpt><trkpt lat="43.13704768479253" lon="11.176152269600967"><ele>352.0</ele><time>2026-04-26T09:17:35.999Z</time></trkpt><trkpt lat="43.13719370449139" lon="11.176185462106233"><ele>352.0</ele><time>2026-04-26T09:17:36.999Z</time></trkpt><trkpt lat="43.137325823197514" lon="11.176206475452751"><ele>352.0</ele><time>2026-04-26T09:17:37.999Z</time></trkpt><trkpt lat="43.13745326153369" lon="11.17623688565762"><ele>352.0</ele><time>2026-04-26T09:17:38.999Z</time></trkpt><trkpt lat="43.13758008819882" lon="11.176297188142161"><ele>352.25</ele><time>2026-04-26T09:17:39.999Z</time></trkpt><trkpt lat="43.13768347628381" lon="11.176372789458998"><ele>352.5</ele><time>2026-04-26T09:17:40.999Z</time></trkpt><trkpt lat="43.13780895346923" lon="11.176396344592863"><ele>352.75</ele><time>2026-04-26T09:17:41.999Z</time></trkpt><trkpt lat="43.137931009061106" lon="11.176384644968596"><ele>353.0</ele><time>2026-04-26T09:17:42.999Z</time></trkpt><trkpt lat="43.13804991460757" lon="11.176302001921732"><ele>353.0</ele><time>2026-04-26T09:17:43.999Z</time></trkpt><trkpt lat="43.1381654557533" lon="11.176209616692248"><ele>353.0</ele><time>2026-04-26T09:17:44.999Z</time></trkpt><trkpt lat="43.13827075701581" lon="11.17608238691934"><ele>353.0</ele><time>2026-04-26T09:17:45.999Z</time></trkpt><trkpt lat="43.13833361596298" lon="11.17590456985936"><ele>353.0</ele><time>2026-04-26T09:17:46.999Z</time></trkpt><trkpt lat="43.13842563110556" lon="11.175780621638806"><ele>353.33333333333337</ele><time>2026-04-26T09:17:47.999Z</time></trkpt><trkpt lat="43.13855047172864" lon="11.175712268416788"><ele>353.6666666666667</ele><time>2026-04-26T09:17:48.999Z</time></trkpt><trkpt lat="43.13871475956393" lon="11.175671221509416"><ele>354.0</ele><time>2026-04-26T09:17:49.998Z</time></trkpt><trkpt lat="43.138863581187806" lon="11.175707621741212"><ele>353.25</ele><time>2026-04-26T09:17:50.998Z</time></trkpt><trkpt lat="43.139010251008145" lon="11.175753675707325"><ele>352.5</ele><time>2026-04-26T09:17:51.998Z</time></trkpt><trkpt lat="43.13913624134779" lon="11.175843027286822"><ele>351.75</ele><time>2026-04-26T09:17:52.998Z</time></trkpt><trkpt lat="43.139238427123225" lon="11.175956125892315"><ele>351.0</ele><time>2026-04-26T09:17:53.998Z</time></trkpt><trkpt lat="43.139303188897195" lon="11.176083477631183"><ele>351.0</ele><time>2026-04-26T09:17:54.998Z</time></trkpt><trkpt lat="43.13935895512847" lon="11.176243691538673"><ele>351.0</ele><time>2026-04-26T09:17:55.998Z</time></trkpt><trkpt lat="43.13935695382328" lon="11.176403341197542"><ele>351.0</ele><time>2026-04-26T09:17:56.998Z</time></trkpt><trkpt lat="43.1393433087535" lon="11.176575182654991"><ele>351.0</ele><time>2026-04-26T09:17:57.998Z</time></trkpt><trkpt lat="43.13931983974693" lon="11.176737637608888"><ele>351.4</ele><time>2026-04-26T09:17:58.998Z</time></trkpt><trkpt lat="43.13929625871243" lon="11.176888729509509"><ele>351.8</ele><time>2026-04-26T09:17:59.998Z</time></trkpt><trkpt lat="43.13927414570583" lon="11.177030415235159"><ele>352.2</ele><time>2026-04-26T09:18:00.998Z</time></trkpt><trkpt lat="43.13925645195849" lon="11.17717039071748"><ele>352.59999999999997</ele><time>2026-04-26T09:18:01.998Z</time></trkpt><trkpt lat="43.13925038874407" lon="11.17728639308892"><ele>353.0</ele><time>2026-04-26T09:18:02.998Z</time></trkpt><trkpt lat="43.13925566063839" lon="11.177399061206097"><ele>353.33333333333337</ele><time>2026-04-26T09:18:04Z</time></trkpt><trkpt lat="43.13926952995882" lon="11.17749789300197"><ele>353.6666666666667</ele><time>2026-04-26T09:18:05Z</time></trkpt><trkpt lat="43.139313952872534" lon="11.177583746321195"><ele>354.0</ele><time>2026-04-26T09:18:06Z</time></trkpt><trkpt lat="43.13936446227034" lon="11.17771325855476"><ele>354.3333333333333</ele><time>2026-04-26T09:18:08Z</time></trkpt><trkpt lat="43.13942110830277" lon="11.177839337480046"><ele>354.66666666666663</ele><time>2026-04-26T09:18:10Z</time></trkpt><trkpt lat="43.139450968902146" lon="11.177921353931994"><ele>355.0</ele><time>2026-04-26T09:18:11Z</time></trkpt><trkpt lat="43.139491853589156" lon="11.178008848913192"><ele>355.0</ele><time>2026-04-26T09:18:12Z</time></trkpt><trkpt lat="43.1395330926329" lon="11.178106857552708"><ele>355.0</ele><time>2026-04-26T09:18:13Z</time></trkpt><trkpt lat="43.13957784134659" lon="11.178211771963877"><ele>355.0</ele><time>2026-04-26T09:18:14Z</time></trkpt><trkpt lat="43.13962073437576" lon="11.17832902274653"><ele>355.0</ele><time>2026-04-26T09:18:15Z</time></trkpt><trkpt lat="43.139664740851885" lon="11.178438753928463"><ele>355.0</ele><time>2026-04-26T09:18:16Z</time></trkpt><trkpt lat="43.13969330975648" lon="11.178566867050453"><ele>355.2</ele><time>2026-04-26T09:18:17Z</time></trkpt><trkpt lat="43.13972036749224" lon="11.178700176341613"><ele>355.4</ele><time>2026-04-26T09:18:18Z</time></trkpt><trkpt lat="43.13972758824791" lon="11.178843184979637"><ele>355.6</ele><time>2026-04-26T09:18:19Z</time></trkpt><trkpt lat="43.13969978271868" lon="11.178998286009138"><ele>355.8</ele><time>2026-04-26T09:18:20Z</time></trkpt><trkpt lat="43.13966052393956" lon="11.17911691959843"><ele>356.0</ele><time>2026-04-26T09:18:21Z</time></trkpt><trkpt lat="43.139616974060246" lon="11.17922371861145"><ele>357.33333333333337</ele><time>2026-04-26T09:18:22Z</time></trkpt><trkpt lat="43.13957827586761" lon="11.17932976171237"><ele>358.6666666666667</ele><time>2026-04-26T09:18:23Z</time></trkpt><trkpt lat="43.13954446339732" lon="11.179422416330134"><ele>360.0</ele><time>2026-04-26T09:18:24Z</time></trkpt><trkpt lat="43.1395098636793" lon="11.17951722806859"><ele>361.3333333333333</ele><time>2026-04-26T09:18:25Z</time></trkpt><trkpt lat="43.139475979224244" lon="11.179614526084453"><ele>362.66666666666663</ele><time>2026-04-26T09:18:26Z</time></trkpt><trkpt lat="43.139456344664666" lon="11.179704723752726"><ele>364.0</ele><time>2026-04-26T09:18:27Z</time></trkpt><trkpt lat="43.13940085813157" lon="11.179771513462354"><ele>364.66666666666663</ele><time>2026-04-26T09:18:28Z</time></trkpt><trkpt lat="43.13937619452138" lon="11.17985496299565"><ele>365.3333333333333</ele><time>2026-04-26T09:18:29Z</time></trkpt><trkpt lat="43.13937989764246" lon="11.179945697293933"><ele>366.0</ele><time>2026-04-26T09:18:30Z</time></trkpt><trkpt lat="43.13943509839762" lon="11.180009478871588"><ele>366.6666666666667</ele><time>2026-04-26T09:18:31Z</time></trkpt><trkpt lat="43.1395203100358" lon="11.180038297972027"><ele>367.33333333333337</ele><time>2026-04-26T09:18:32Z</time></trkpt><trkpt lat="43.13962293094888" lon="11.180051730929055"><ele>368.0</ele><time>2026-04-26T09:18:33Z</time></trkpt><trkpt lat="43.139716710443814" lon="11.180042441290963"><ele>368.0</ele><time>2026-04-26T09:18:34Z</time></trkpt><trkpt lat="43.139818668008" lon="11.18004275105508"><ele>368.0</ele><time>2026-04-26T09:18:35Z</time></trkpt><trkpt lat="43.13990285014831" lon="11.180032570790408"><ele>368.0</ele><time>2026-04-26T09:18:36Z</time></trkpt><trkpt lat="43.139999036030815" lon="11.180032190093094"><ele>368.0</ele><time>2026-04-26T09:18:37Z</time></trkpt><trkpt lat="43.14010507476292" lon="11.180023017894182"><ele>368.0</ele><time>2026-04-26T09:18:38Z</time></trkpt><trkpt lat="43.14020354871522" lon="11.180025890014331"><ele>367.79999999999995</ele><time>2026-04-26T09:18:39Z</time></trkpt><trkpt lat="43.140299318389964" lon="11.180020491250657"><ele>367.6</ele><time>2026-04-26T09:18:40Z</time></trkpt><trkpt lat="43.14039818515936" lon="11.18002070109184"><ele>367.4</ele><time>2026-04-26T09:18:41Z</time></trkpt><trkpt lat="43.14051202305235" lon="11.180023927187785"><ele>367.20000000000005</ele><time>2026-04-26T09:18:42Z</time></trkpt><trkpt lat="43.140628775152734" lon="11.180001476431418"><ele>367.0</ele><time>2026-04-26T09:18:43Z</time></trkpt><trkpt lat="43.14074303843183" lon="11.180012823742837"><ele>366.0</ele><time>2026-04-26T09:18:44Z</time></trkpt><trkpt lat="43.14086264624761" lon="11.180036291801159"><ele>365.0</ele><time>2026-04-26T09:18:45Z</time></trkpt><trkpt lat="43.14098538569584" lon="11.1800751667112"><ele>364.0</ele><time>2026-04-26T09:18:46Z</time></trkpt><trkpt lat="43.14110756647187" lon="11.180101721215411"><ele>363.0</ele><time>2026-04-26T09:18:47Z</time></trkpt><trkpt lat="43.14123979905203" lon="11.180117996493575"><ele>363.0</ele><time>2026-04-26T09:18:48Z</time></trkpt><trkpt lat="43.14140338527658" lon="11.180162279102516"><ele>363.0</ele><time>2026-04-26T09:18:49Z</time></trkpt><trkpt lat="43.14154553424979" lon="11.180187956564568"><ele>363.0</ele><time>2026-04-26T09:18:50Z</time></trkpt><trkpt lat="43.14167782796006" lon="11.180231469391257"><ele>363.0</ele><time>2026-04-26T09:18:51Z</time></trkpt><trkpt lat="43.14178598421054" lon="11.180300609737401"><ele>362.75</ele><time>2026-04-26T09:18:52Z</time></trkpt><trkpt lat="43.14186227070015" lon="11.180370966060737"><ele>362.5</ele><time>2026-04-26T09:18:53Z</time></trkpt><trkpt lat="43.14193933052409" lon="11.180402700572706"><ele>362.25</ele><time>2026-04-26T09:18:54Z</time></trkpt><trkpt lat="43.141930122259005" lon="11.180640143751056"><ele>362.0</ele><time>2026-04-26T09:18:55Z</time></trkpt><trkpt lat="43.14187557916896" lon="11.18078701747408"><ele>360.5</ele><time>2026-04-26T09:18:56Z</time></trkpt><trkpt lat="43.141826221774764" lon="11.180968825125138"><ele>359.0</ele><time>2026-04-26T09:18:57Z</time></trkpt><trkpt lat="43.141789187377626" lon="11.181168337011883"><ele>357.5</ele><time>2026-04-26T09:18:58Z</time></trkpt><trkpt lat="43.141784377927" lon="11.181377695564224"><ele>356.0</ele><time>2026-04-26T09:18:59Z</time></trkpt><trkpt lat="43.14182689646045" lon="11.18158400046143"><ele>355.75</ele><time>2026-04-26T09:19:00Z</time></trkpt><trkpt lat="43.1419145257077" lon="11.181749279606988"><ele>355.5</ele><time>2026-04-26T09:19:00.999Z</time></trkpt><trkpt lat="43.14199255539127" lon="11.181888019081335"><ele>355.25</ele><time>2026-04-26T09:19:01.999Z</time></trkpt><trkpt lat="43.142051651020665" lon="11.182018850095158"><ele>355.0</ele><time>2026-04-26T09:19:02.999Z</time></trkpt><trkpt lat="43.14213046130942" lon="11.182168804653879"><ele>355.0</ele><time>2026-04-26T09:19:03.999Z</time></trkpt><trkpt lat="43.14221411814608" lon="11.182316802425042"><ele>355.0</ele><time>2026-04-26T09:19:04.999Z</time></trkpt><trkpt lat="43.14230276708214" lon="11.18245962225581"><ele>355.0</ele><time>2026-04-26T09:19:05.999Z</time></trkpt><trkpt lat="43.14241719848916" lon="11.182593374870967"><ele>355.0</ele><time>2026-04-26T09:19:06.999Z</time></trkpt><trkpt lat="43.142547394188576" lon="11.182746517701638"><ele>355.3333333333333</ele><time>2026-04-26T09:19:07.999Z</time></trkpt><trkpt lat="43.142666021165915" lon="11.182894046607856"><ele>355.6666666666667</ele><time>2026-04-26T09:19:08.999Z</time></trkpt><trkpt lat="43.1427812182316" lon="11.183075897282267"><ele>356.0</ele><time>2026-04-26T09:19:09.999Z</time></trkpt><trkpt lat="43.142882414259326" lon="11.183273222736323"><ele>358.6666666666667</ele><time>2026-04-26T09:19:10.999Z</time></trkpt><trkpt lat="43.142963207947304" lon="11.183481592718241"><ele>361.3333333333333</ele><time>2026-04-26T09:19:11.999Z</time></trkpt><trkpt lat="43.143013401066796" lon="11.183692417281584"><ele>364.0</ele><time>2026-04-26T09:19:12.999Z</time></trkpt><trkpt lat="43.14303052681593" lon="11.183926957645957"><ele>364.3333333333333</ele><time>2026-04-26T09:19:13.999Z</time></trkpt><trkpt lat="43.143029001213655" lon="11.18416930480365"><ele>364.6666666666667</ele><time>2026-04-26T09:19:14.999Z</time></trkpt><trkpt lat="43.14301434612898" lon="11.184407899362547"><ele>365.0</ele><time>2026-04-26T09:19:15.999Z</time></trkpt><trkpt lat="43.14301207387476" lon="11.184642855257728"><ele>365.0</ele><time>2026-04-26T09:19:16.999Z</time></trkpt><trkpt lat="43.14303948978362" lon="11.184874384915684"><ele>365.0</ele><time>2026-04-26T09:19:17.999Z</time></trkpt><trkpt lat="43.14308360710057" lon="11.185092475868595"><ele>365.0</ele><time>2026-04-26T09:19:18.999Z</time></trkpt><trkpt lat="43.14315057480164" lon="11.185277752505057"><ele>360.33333333333337</ele><time>2026-04-26T09:19:19.999Z</time></trkpt><trkpt lat="43.14324363692552" lon="11.185448671252928"><ele>355.6666666666667</ele><time>2026-04-26T09:19:20.999Z</time></trkpt><trkpt lat="43.143359103003746" lon="11.185600547195472"><ele>351.0</ele><time>2026-04-26T09:19:21.999Z</time></trkpt><trkpt lat="43.14348742902198" lon="11.185729513312262"><ele>351.0</ele><time>2026-04-26T09:19:22.999Z</time></trkpt><trkpt lat="43.143636473547126" lon="11.18585116484918"><ele>351.0</ele><time>2026-04-26T09:19:23.999Z</time></trkpt><trkpt lat="43.14380828173061" lon="11.185869340916133"><ele>351.0</ele><time>2026-04-26T09:19:24.999Z</time></trkpt><trkpt lat="43.14397160600738" lon="11.18595613579072"><ele>347.6666666666667</ele><time>2026-04-26T09:19:25.999Z</time></trkpt><trkpt lat="43.144127078142844" lon="11.186038758954915"><ele>344.33333333333337</ele><time>2026-04-26T09:19:26.999Z</time></trkpt><trkpt lat="43.1442554829755" lon="11.186295892412085"><ele>341.0</ele><time>2026-04-26T09:19:27.999Z</time></trkpt><trkpt lat="43.14444684008601" lon="11.186299385059927"><ele>341.0</ele><time>2026-04-26T09:19:28.999Z</time></trkpt><trkpt lat="43.144613417485424" lon="11.186230701575996"><ele>341.0</ele><time>2026-04-26T09:19:29.999Z</time></trkpt><trkpt lat="43.14476428782934" lon="11.186121101077122"><ele>341.0</ele><time>2026-04-26T09:19:30.999Z</time></trkpt><trkpt lat="43.14493175641499" lon="11.186075081816783"><ele>338.5</ele><time>2026-04-26T09:19:31.999Z</time></trkpt><trkpt lat="43.14500792984968" lon="11.18577793194303"><ele>336.0</ele><time>2026-04-26T09:19:32.999Z</time></trkpt><trkpt lat="43.145211704517294" lon="11.185660886312558"><ele>336.0</ele><time>2026-04-26T09:19:33.999Z</time></trkpt><trkpt lat="43.14541717234679" lon="11.185623824165546"><ele>336.0</ele><time>2026-04-26T09:19:34.999Z</time></trkpt><trkpt lat="43.14562789105946" lon="11.185680239457543"><ele>336.0</ele><time>2026-04-26T09:19:35.999Z</time></trkpt><trkpt lat="43.14579291804598" lon="11.185782669953294"><ele>333.6666666666667</ele><time>2026-04-26T09:19:36.999Z</time></trkpt><trkpt lat="43.145951543312954" lon="11.185898478774973"><ele>331.33333333333337</ele><time>2026-04-26T09:19:37.999Z</time></trkpt><trkpt lat="43.146091395328426" lon="11.186003911279697"><ele>329.0</ele><time>2026-04-26T09:19:38.999Z</time></trkpt><trkpt lat="43.14626171246176" lon="11.186132310823197"><ele>329.0</ele><time>2026-04-26T09:19:39.999Z</time></trkpt><trkpt lat="43.146460243979796" lon="11.186281980932456"><ele>329.0</ele><time>2026-04-26T09:19:40.999Z</time></trkpt><trkpt lat="43.1466443828222" lon="11.186413843469438"><ele>329.0</ele><time>2026-04-26T09:19:41.999Z</time></trkpt><trkpt lat="43.146827004131076" lon="11.186558864592554"><ele>326.33333333333337</ele><time>2026-04-26T09:19:42.999Z</time></trkpt><trkpt lat="43.14700976022278" lon="11.18664901520051"><ele>323.6666666666667</ele><time>2026-04-26T09:19:43.999Z</time></trkpt><trkpt lat="43.147174259784926" lon="11.186779520074738"><ele>321.0</ele><time>2026-04-26T09:19:44.999Z</time></trkpt><trkpt lat="43.14732949461343" lon="11.186894200320667"><ele>320.5</ele><time>2026-04-26T09:19:45.999Z</time></trkpt><trkpt lat="43.147445844775504" lon="11.187044807010306"><ele>320.0</ele><time>2026-04-26T09:19:46.999Z</time></trkpt><trkpt lat="43.147551382464286" lon="11.187196546820918"><ele>319.5</ele><time>2026-04-26T09:19:47.999Z</time></trkpt><trkpt lat="43.14764021697331" lon="11.18733647067801"><ele>319.0</ele><time>2026-04-26T09:19:48.999Z</time></trkpt><trkpt lat="43.14776258503444" lon="11.187590186369237"><ele>318.5</ele><time>2026-04-26T09:19:49.999Z</time></trkpt><trkpt lat="43.14790638595671" lon="11.187820886685461"><ele>318.0</ele><time>2026-04-26T09:19:50.999Z</time></trkpt><trkpt lat="43.148085351426055" lon="11.188096878594981"><ele>316.0</ele><time>2026-04-26T09:19:51.999Z</time></trkpt><trkpt lat="43.14823859853719" lon="11.188343864216776"><ele>314.0</ele><time>2026-04-26T09:19:52.999Z</time></trkpt><trkpt lat="43.14838749991924" lon="11.188561656486867"><ele>314.0</ele><time>2026-04-26T09:19:53.999Z</time></trkpt><trkpt lat="43.14854466060572" lon="11.188776991888638"><ele>314.0</ele><time>2026-04-26T09:19:54.999Z</time></trkpt><trkpt lat="43.148703120506866" lon="11.188985618127802"><ele>314.0</ele><time>2026-04-26T09:19:55.999Z</time></trkpt><trkpt lat="43.148852174305354" lon="11.189225298916819"><ele>313.33333333333337</ele><time>2026-04-26T09:19:56.999Z</time></trkpt><trkpt lat="43.14900655838773" lon="11.189447535257065"><ele>312.6666666666667</ele><time>2026-04-26T09:19:57.998Z</time></trkpt><trkpt lat="43.14911892264919" lon="11.189658835805107"><ele>312.0</ele><time>2026-04-26T09:19:58.998Z</time></trkpt><trkpt lat="43.1492425760675" lon="11.189844865040293"><ele>309.3333333333333</ele><time>2026-04-26T09:19:59.998Z</time></trkpt><trkpt lat="43.14937130713924" lon="11.190023383386938"><ele>306.66666666666663</ele><time>2026-04-26T09:20:00.998Z</time></trkpt><trkpt lat="43.14947802009583" lon="11.190208829415592"><ele>304.0</ele><time>2026-04-26T09:20:01.998Z</time></trkpt><trkpt lat="43.14958032358378" lon="11.190385087704115"><ele>304.0</ele><time>2026-04-26T09:20:02.998Z</time></trkpt><trkpt lat="43.14967974346717" lon="11.190572289553424"><ele>304.0</ele><time>2026-04-26T09:20:03.998Z</time></trkpt><trkpt lat="43.149753918260124" lon="11.190800046626594"><ele>304.0</ele><time>2026-04-26T09:20:04.998Z</time></trkpt><trkpt lat="43.14979998191565" lon="11.191049180874137"><ele>302.0</ele><time>2026-04-26T09:20:05.998Z</time></trkpt><trkpt lat="43.149825921401565" lon="11.191316435758239"><ele>300.0</ele><time>2026-04-26T09:20:06.998Z</time></trkpt><trkpt lat="43.149840581777156" lon="11.191591979755428"><ele>298.0</ele><time>2026-04-26T09:20:07.998Z</time></trkpt><trkpt lat="43.14985776999659" lon="11.191859741123984"><ele>298.66666666666663</ele><time>2026-04-26T09:20:08.998Z</time></trkpt><trkpt lat="43.14988901372612" lon="11.192131188975678"><ele>299.3333333333333</ele><time>2026-04-26T09:20:10Z</time></trkpt><trkpt lat="43.149908118885904" lon="11.19239284279552"><ele>300.0</ele><time>2026-04-26T09:20:11Z</time></trkpt><trkpt lat="43.149909977071694" lon="11.192664422014895"><ele>300.0</ele><time>2026-04-26T09:20:12Z</time></trkpt><trkpt lat="43.14989001460249" lon="11.19294650017615"><ele>300.0</ele><time>2026-04-26T09:20:13Z</time></trkpt><trkpt lat="43.14986346759698" lon="11.193231750566298"><ele>300.0</ele><time>2026-04-26T09:20:14Z</time></trkpt><trkpt lat="43.149851040745396" lon="11.19352562972037"><ele>295.6666666666667</ele><time>2026-04-26T09:20:15Z</time></trkpt><trkpt lat="43.14984055440291" lon="11.193819166649758"><ele>291.33333333333337</ele><time>2026-04-26T09:20:16Z</time></trkpt><trkpt lat="43.149833926447286" lon="11.19410601318399"><ele>287.0</ele><time>2026-04-26T09:20:17Z</time></trkpt><trkpt lat="43.14975930588838" lon="11.194370465005113"><ele>286.0</ele><time>2026-04-26T09:20:18Z</time></trkpt><trkpt lat="43.149734262545735" lon="11.194643470980402"><ele>285.0</ele><time>2026-04-26T09:20:19Z</time></trkpt><trkpt lat="43.14971462695284" lon="11.19491428460087"><ele>284.0</ele><time>2026-04-26T09:20:20Z</time></trkpt><trkpt lat="43.14968727330108" lon="11.19517830413322"><ele>284.0</ele><time>2026-04-26T09:20:21Z</time></trkpt><trkpt lat="43.149647244103996" lon="11.19543202399786"><ele>284.0</ele><time>2026-04-26T09:20:22Z</time></trkpt><trkpt lat="43.14956645254637" lon="11.195661214470276"><ele>284.0</ele><time>2026-04-26T09:20:23Z</time></trkpt><trkpt lat="43.149443964536346" lon="11.195862239452728"><ele>283.6666666666667</ele><time>2026-04-26T09:20:24Z</time></trkpt><trkpt lat="43.14930227722726" lon="11.196018750133122"><ele>283.3333333333333</ele><time>2026-04-26T09:20:25Z</time></trkpt><trkpt lat="43.1491182196067" lon="11.196110090000314"><ele>283.0</ele><time>2026-04-26T09:20:26Z</time></trkpt><trkpt lat="43.14896326328861" lon="11.196221178716156"><ele>281.66666666666663</ele><time>2026-04-26T09:20:27Z</time></trkpt><trkpt lat="43.14876585408329" lon="11.196278230011677"><ele>280.3333333333333</ele><time>2026-04-26T09:20:28Z</time></trkpt><trkpt lat="43.14856637119962" lon="11.196215604745284"><ele>279.0</ele><time>2026-04-26T09:20:29Z</time></trkpt><trkpt lat="43.14834525677544" lon="11.19617048589626"><ele>278.0</ele><time>2026-04-26T09:20:30Z</time></trkpt><trkpt lat="43.14812237362251" lon="11.196126801932337"><ele>277.0</ele><time>2026-04-26T09:20:31Z</time></trkpt><trkpt lat="43.14791226574158" lon="11.19610535151476"><ele>276.0</ele><time>2026-04-26T09:20:32Z</time></trkpt><trkpt lat="43.147685188202914" lon="11.196062717230975"><ele>276.0</ele><time>2026-04-26T09:20:33Z</time></trkpt><trkpt lat="43.14746124290145" lon="11.19604165110215"><ele>276.0</ele><time>2026-04-26T09:20:34Z</time></trkpt><trkpt lat="43.147273487662964" lon="11.196075208305162"><ele>276.0</ele><time>2026-04-26T09:20:35Z</time></trkpt><trkpt lat="43.14709464160064" lon="11.196156800132636"><ele>276.0</ele><time>2026-04-26T09:20:36Z</time></trkpt><trkpt lat="43.14691722568696" lon="11.196249089683233"><ele>276.0</ele><time>2026-04-26T09:20:37Z</time></trkpt><trkpt lat="43.14672977179192" lon="11.196370288139853"><ele>276.0</ele><time>2026-04-26T09:20:38Z</time></trkpt><trkpt lat="43.14655850434904" lon="11.1965232651899"><ele>275.6666666666667</ele><time>2026-04-26T09:20:39Z</time></trkpt><trkpt lat="43.146394553725926" lon="11.196693777649292"><ele>275.33333333333337</ele><time>2026-04-26T09:20:40Z</time></trkpt><trkpt lat="43.14626002276064" lon="11.196858325801276"><ele>275.0</ele><time>2026-04-26T09:20:41Z</time></trkpt><trkpt lat="43.14612245085243" lon="11.19706102206516"><ele>275.0</ele><time>2026-04-26T09:20:42Z</time></trkpt><trkpt lat="43.14600826866751" lon="11.197276760810809"><ele>275.0</ele><time>2026-04-26T09:20:43Z</time></trkpt><trkpt lat="43.1458713965404" lon="11.1975649565822"><ele>275.0</ele><time>2026-04-26T09:20:44Z</time></trkpt><trkpt lat="43.14577718770916" lon="11.197821781301553"><ele>274.6666666666667</ele><time>2026-04-26T09:20:45Z</time></trkpt><trkpt lat="43.14566043429031" lon="11.198077693954524"><ele>274.3333333333333</ele><time>2026-04-26T09:20:46Z</time></trkpt><trkpt lat="43.145548872108975" lon="11.198323282592025"><ele>274.0</ele><time>2026-04-26T09:20:47Z</time></trkpt><trkpt lat="43.145438421233514" lon="11.198559047387779"><ele>274.0</ele><time>2026-04-26T09:20:48Z</time></trkpt><trkpt lat="43.14534306802346" lon="11.19879991976732"><ele>274.0</ele><time>2026-04-26T09:20:49Z</time></trkpt><trkpt lat="43.14527869721213" lon="11.199075089915553"><ele>274.0</ele><time>2026-04-26T09:20:50Z</time></trkpt><trkpt lat="43.145226280767034" lon="11.199377248891762"><ele>273.5</ele><time>2026-04-26T09:20:51Z</time></trkpt><trkpt lat="43.14516398513484" lon="11.19967427248753"><ele>273.0</ele><time>2026-04-26T09:20:52Z</time></trkpt><trkpt lat="43.145095664462445" lon="11.199978193188867"><ele>271.0</ele><time>2026-04-26T09:20:53Z</time></trkpt><trkpt lat="43.145035641884704" lon="11.200283835215057"><ele>269.0</ele><time>2026-04-26T09:20:54Z</time></trkpt><trkpt lat="43.1449792705302" lon="11.200578732444672"><ele>269.0</ele><time>2026-04-26T09:20:55Z</time></trkpt><trkpt lat="43.1449317116627" lon="11.20087508223732"><ele>269.0</ele><time>2026-04-26T09:20:56Z</time></trkpt><trkpt lat="43.1448797004106" lon="11.201164954143813"><ele>269.0</ele><time>2026-04-26T09:20:57Z</time></trkpt><trkpt lat="43.14482373579629" lon="11.201437708617483"><ele>269.0</ele><time>2026-04-26T09:20:58Z</time></trkpt><trkpt lat="43.14476093141866" lon="11.201690944126558"><ele>269.0</ele><time>2026-04-26T09:20:59Z</time></trkpt><trkpt lat="43.144678572535646" lon="11.201922512090634"><ele>269.0</ele><time>2026-04-26T09:21:00Z</time></trkpt><trkpt lat="43.14455310528665" lon="11.202105150764801"><ele>269.0</ele><time>2026-04-26T09:21:01Z</time></trkpt><trkpt lat="43.14444659961121" lon="11.202305420846315"><ele>269.0</ele><time>2026-04-26T09:21:02Z</time></trkpt><trkpt lat="43.14435785174696" lon="11.202515590264573"><ele>269.0</ele><time>2026-04-26T09:21:03Z</time></trkpt><trkpt lat="43.14432516258329" lon="11.202780019587136"><ele>269.33333333333337</ele><time>2026-04-26T09:21:04Z</time></trkpt><trkpt lat="43.144301104266795" lon="11.203055683499372"><ele>269.6666666666667</ele><time>2026-04-26T09:21:05Z</time></trkpt><trkpt lat="43.1442473289853" lon="11.20332756791988"><ele>270.0</ele><time>2026-04-26T09:21:06Z</time></trkpt><trkpt lat="43.14413450883127" lon="11.203569155700498"><ele>269.0</ele><time>2026-04-26T09:21:07Z</time></trkpt><trkpt lat="43.14401454073421" lon="11.203790412036613"><ele>268.0</ele><time>2026-04-26T09:21:07.999Z</time></trkpt><trkpt lat="43.14391585877266" lon="11.204028256270504"><ele>267.0</ele><time>2026-04-26T09:21:08.999Z</time></trkpt><trkpt lat="43.14386462488292" lon="11.204272529882358"><ele>267.0</ele><time>2026-04-26T09:21:09.999Z</time></trkpt><trkpt lat="43.14385986673783" lon="11.204511539704384"><ele>267.0</ele><time>2026-04-26T09:21:10.999Z</time></trkpt><trkpt lat="43.14390260484155" lon="11.204749978624378"><ele>267.0</ele><time>2026-04-26T09:21:11.999Z</time></trkpt><trkpt lat="43.143964074010555" lon="11.204981159500102"><ele>269.3333333333333</ele><time>2026-04-26T09:21:12.999Z</time></trkpt><trkpt lat="43.144049098401425" lon="11.205220390109202"><ele>271.66666666666663</ele><time>2026-04-26T09:21:13.999Z</time></trkpt><trkpt lat="43.14413488050047" lon="11.205468405393786"><ele>274.0</ele><time>2026-04-26T09:21:14.999Z</time></trkpt><trkpt lat="43.144224970047546" lon="11.205702761458324"><ele>274.0</ele><time>2026-04-26T09:21:15.999Z</time></trkpt><trkpt lat="43.1443084567697" lon="11.205955381856084"><ele>274.0</ele><time>2026-04-26T09:21:16.999Z</time></trkpt><trkpt lat="43.14438809997242" lon="11.206233683471991"><ele>274.0</ele><time>2026-04-26T09:21:17.999Z</time></trkpt><trkpt lat="43.14447038187453" lon="11.206497252336565"><ele>274.0</ele><time>2026-04-26T09:21:18.999Z</time></trkpt><trkpt lat="43.14456730786893" lon="11.206765874828246"><ele>274.0</ele><time>2026-04-26T09:21:19.999Z</time></trkpt><trkpt lat="43.14466842169852" lon="11.207018098336775"><ele>274.0</ele><time>2026-04-26T09:21:20.999Z</time></trkpt><trkpt lat="43.144773812282864" lon="11.207265317193023"><ele>273.0</ele><time>2026-04-26T09:21:21.999Z</time></trkpt><trkpt lat="43.14486891017462" lon="11.207514226489247"><ele>272.0</ele><time>2026-04-26T09:21:22.999Z</time></trkpt><trkpt lat="43.144946106840116" lon="11.207766454815923"><ele>271.0</ele><time>2026-04-26T09:21:23.999Z</time></trkpt><trkpt lat="43.14498415391163" lon="11.208012903119178"><ele>270.66666666666663</ele><time>2026-04-26T09:21:24.999Z</time></trkpt><trkpt lat="43.14499548708824" lon="11.208256041032353"><ele>270.3333333333333</ele><time>2026-04-26T09:21:25.999Z</time></trkpt><trkpt lat="43.14495330279966" lon="11.208481380560213"><ele>270.0</ele><time>2026-04-26T09:21:26.999Z</time></trkpt><trkpt lat="43.144873954184035" lon="11.208689759524415"><ele>269.0</ele><time>2026-04-26T09:21:27.999Z</time></trkpt><trkpt lat="43.144745588359726" lon="11.208871069474764"><ele>268.0</ele><time>2026-04-26T09:21:28.999Z</time></trkpt><trkpt lat="43.14459852082471" lon="11.209042235201105"><ele>267.0</ele><time>2026-04-26T09:21:29.999Z</time></trkpt><trkpt lat="43.1444611408171" lon="11.209239475828895"><ele>265.0</ele><time>2026-04-26T09:21:30.999Z</time></trkpt><trkpt lat="43.14434214376778" lon="11.209437703328184"><ele>263.0</ele><time>2026-04-26T09:21:31.999Z</time></trkpt><trkpt lat="43.14422695775914" lon="11.209622776186087"><ele>261.0</ele><time>2026-04-26T09:21:32.999Z</time></trkpt><trkpt lat="43.14412386965778" lon="11.20980911607353"><ele>262.0</ele><time>2026-04-26T09:21:33.999Z</time></trkpt><trkpt lat="43.14405510531047" lon="11.210034137512151"><ele>263.0</ele><time>2026-04-26T09:21:34.999Z</time></trkpt><trkpt lat="43.14402472178271" lon="11.210269689971115"><ele>264.0</ele><time>2026-04-26T09:21:35.999Z</time></trkpt><trkpt lat="43.14403053927411" lon="11.210516163864646"><ele>262.6666666666667</ele><time>2026-04-26T09:21:36.999Z</time></trkpt><trkpt lat="43.14402510761353" lon="11.210763944948537"><ele>261.33333333333337</ele><time>2026-04-26T09:21:37.999Z</time></trkpt><trkpt lat="43.14401151774574" lon="11.211012620992973"><ele>260.0</ele><time>2026-04-26T09:21:38.999Z</time></trkpt><trkpt lat="43.143970806207484" lon="11.211238442551618"><ele>260.0</ele><time>2026-04-26T09:21:39.999Z</time></trkpt><trkpt lat="43.143885122568165" lon="11.211423667914557"><ele>260.0</ele><time>2026-04-26T09:21:40.999Z</time></trkpt><trkpt lat="43.14376949937873" lon="11.211577900135914"><ele>260.0</ele><time>2026-04-26T09:21:41.999Z</time></trkpt><trkpt lat="43.143647655004166" lon="11.211707786553358"><ele>261.0</ele><time>2026-04-26T09:21:42.999Z</time></trkpt><trkpt lat="43.143503318554544" lon="11.211829111729417"><ele>262.0</ele><time>2026-04-26T09:21:43.999Z</time></trkpt><trkpt lat="43.14336379318528" lon="11.211936900106403"><ele>263.0</ele><time>2026-04-26T09:21:44.999Z</time></trkpt><trkpt lat="43.14322621870349" lon="11.212007674914483"><ele>263.6666666666667</ele><time>2026-04-26T09:21:45.999Z</time></trkpt><trkpt lat="43.14306305845763" lon="11.212027104072813"><ele>264.3333333333333</ele><time>2026-04-26T09:21:46.999Z</time></trkpt><trkpt lat="43.1428624712941" lon="11.212003869386916"><ele>265.0</ele><time>2026-04-26T09:21:47.999Z</time></trkpt><trkpt lat="43.14270134737067" lon="11.21196628885537"><ele>265.0</ele><time>2026-04-26T09:21:48.999Z</time></trkpt><trkpt lat="43.14256644461006" lon="11.211952609552172"><ele>265.0</ele><time>2026-04-26T09:21:49.999Z</time></trkpt><trkpt lat="43.14240245178108" lon="11.211966175924557"><ele>265.0</ele><time>2026-04-26T09:21:50.999Z</time></trkpt><trkpt lat="43.14225755223536" lon="11.211990364371523"><ele>265.0</ele><time>2026-04-26T09:21:51.999Z</time></trkpt><trkpt lat="43.14210457081122" lon="11.212030990315492"><ele>266.0</ele><time>2026-04-26T09:21:52.999Z</time></trkpt><trkpt lat="43.141944901799405" lon="11.212138547482361"><ele>267.0</ele><time>2026-04-26T09:21:53.999Z</time></trkpt><trkpt lat="43.14182451696139" lon="11.212266388236545"><ele>268.0</ele><time>2026-04-26T09:21:54.999Z</time></trkpt><trkpt lat="43.14169084147422" lon="11.212391353531599"><ele>268.5</ele><time>2026-04-26T09:21:55.999Z</time></trkpt><trkpt lat="43.141601260893715" lon="11.212503373332645"><ele>269.0</ele><time>2026-04-26T09:21:56.999Z</time></trkpt><trkpt lat="43.14149967808359" lon="11.212631923037932"><ele>269.5</ele><time>2026-04-26T09:21:57.999Z</time></trkpt><trkpt lat="43.14139700272592" lon="11.212768110168591"><ele>270.0</ele><time>2026-04-26T09:21:58.999Z</time></trkpt><trkpt lat="43.141314618916816" lon="11.21288837593745"><ele>270.0</ele><time>2026-04-26T09:21:59.999Z</time></trkpt><trkpt lat="43.141218454377146" lon="11.21305040214971"><ele>270.0</ele><time>2026-04-26T09:22:00.999Z</time></trkpt><trkpt lat="43.14114797904358" lon="11.213209810735426"><ele>270.0</ele><time>2026-04-26T09:22:01.999Z</time></trkpt><trkpt lat="43.141065238925385" lon="11.213329434800361"><ele>270.0</ele><time>2026-04-26T09:22:02.999Z</time></trkpt><trkpt lat="43.14097335721801" lon="11.213431594917102"><ele>273.0</ele><time>2026-04-26T09:22:03.999Z</time></trkpt><trkpt lat="43.14084674545751" lon="11.21355097441868"><ele>276.0</ele><time>2026-04-26T09:22:04.998Z</time></trkpt><trkpt lat="43.14071348483831" lon="11.213657450088913"><ele>279.0</ele><time>2026-04-26T09:22:05.998Z</time></trkpt><trkpt lat="43.140584484808244" lon="11.21375047476512"><ele>279.25</ele><time>2026-04-26T09:22:06.998Z</time></trkpt><trkpt lat="43.14046806884934" lon="11.213850627813041"><ele>279.5</ele><time>2026-04-26T09:22:07.998Z</time></trkpt><trkpt lat="43.1403570101331" lon="11.213959295729696"><ele>279.75</ele><time>2026-04-26T09:22:08.998Z</time></trkpt><trkpt lat="43.1402621589367" lon="11.214103480814078"><ele>280.0</ele><time>2026-04-26T09:22:09.998Z</time></trkpt><trkpt lat="43.140201811236274" lon="11.214276566948316"><ele>280.0</ele><time>2026-04-26T09:22:10.998Z</time></trkpt><trkpt lat="43.14019878746983" lon="11.214459088331424"><ele>280.0</ele><time>2026-04-26T09:22:11.998Z</time></trkpt><trkpt lat="43.140256476445096" lon="11.214627260256327"><ele>280.0</ele><time>2026-04-26T09:22:12.998Z</time></trkpt><trkpt lat="43.140328448121934" lon="11.214749111806075"><ele>280.0</ele><time>2026-04-26T09:22:13.998Z</time></trkpt><trkpt lat="43.14041128600662" lon="11.214866218948847"><ele>280.5</ele><time>2026-04-26T09:22:15Z</time></trkpt><trkpt lat="43.140488056910165" lon="11.214977612098243"><ele>281.0</ele><time>2026-04-26T09:22:16Z</time></trkpt><trkpt lat="43.14054597361526" lon="11.215117375871106"><ele>281.5</ele><time>2026-04-26T09:22:17Z</time></trkpt><trkpt lat="43.140575131382334" lon="11.215291179882964"><ele>282.0</ele><time>2026-04-26T09:22:18Z</time></trkpt><trkpt lat="43.140571418173074" lon="11.215474959683315"><ele>282.0</ele><time>2026-04-26T09:22:19Z</time></trkpt><trkpt lat="43.1405158358417" lon="11.215649291656051"><ele>282.0</ele><time>2026-04-26T09:22:20Z</time></trkpt><trkpt lat="43.14044393167449" lon="11.215783089091182"><ele>282.0</ele><time>2026-04-26T09:22:21Z</time></trkpt><trkpt lat="43.14038728854857" lon="11.215918332432821"><ele>282.0</ele><time>2026-04-26T09:22:22Z</time></trkpt><trkpt lat="43.140314008248346" lon="11.216067540043701"><ele>285.0</ele><time>2026-04-26T09:22:23Z</time></trkpt><trkpt lat="43.14026720454635" lon="11.216241501800008"><ele>288.0</ele><time>2026-04-26T09:22:24Z</time></trkpt><trkpt lat="43.140214476903374" lon="11.216399318159501"><ele>291.0</ele><time>2026-04-26T09:22:25Z</time></trkpt><trkpt lat="43.14014449673574" lon="11.216519218752264"><ele>294.0</ele><time>2026-04-26T09:22:26Z</time></trkpt><trkpt lat="43.14003725640373" lon="11.21656628377976"><ele>294.75</ele><time>2026-04-26T09:22:27Z</time></trkpt><trkpt lat="43.13993238760676" lon="11.216561320733602"><ele>295.5</ele><time>2026-04-26T09:22:28Z</time></trkpt><trkpt lat="43.13979416505271" lon="11.21652848005133"><ele>296.25</ele><time>2026-04-26T09:22:29Z</time></trkpt><trkpt lat="43.13968523311103" lon="11.216516851375241"><ele>297.0</ele><time>2026-04-26T09:22:30Z</time></trkpt><trkpt lat="43.139560277626494" lon="11.216553394534127"><ele>297.0</ele><time>2026-04-26T09:22:31Z</time></trkpt><trkpt lat="43.139432378517675" lon="11.2166601322147"><ele>297.0</ele><time>2026-04-26T09:22:32Z</time></trkpt><trkpt lat="43.139357716254416" lon="11.216825998128458"><ele>297.0</ele><time>2026-04-26T09:22:33Z</time></trkpt><trkpt lat="43.139282932271136" lon="11.217009391764666"><ele>297.0</ele><time>2026-04-26T09:22:34Z</time></trkpt><trkpt lat="43.1391880587286" lon="11.21720273289263"><ele>294.3333333333333</ele><time>2026-04-26T09:22:35Z</time></trkpt><trkpt lat="43.13910348187849" lon="11.21739650978196"><ele>291.66666666666663</ele><time>2026-04-26T09:22:36Z</time></trkpt><trkpt lat="43.13902447147735" lon="11.217598389923603"><ele>289.0</ele><time>2026-04-26T09:22:37Z</time></trkpt><trkpt lat="43.13897163022174" lon="11.217823461329623"><ele>289.0</ele><time>2026-04-26T09:22:38Z</time></trkpt><trkpt lat="43.13895793903752" lon="11.218063086586588"><ele>289.0</ele><time>2026-04-26T09:22:39Z</time></trkpt><trkpt lat="43.138977041063114" lon="11.218301564775551"><ele>289.0</ele><time>2026-04-26T09:22:40Z</time></trkpt><trkpt lat="43.13900301598159" lon="11.218535115209665"><ele>290.75</ele><time>2026-04-26T09:22:41Z</time></trkpt><trkpt lat="43.13903109834455" lon="11.218751360376306"><ele>292.5</ele><time>2026-04-26T09:22:42Z</time></trkpt><trkpt lat="43.139055039518595" lon="11.218947280442961"><ele>294.25</ele><time>2026-04-26T09:22:43Z</time></trkpt><trkpt lat="43.139069264028926" lon="11.219127050544794"><ele>296.0</ele><time>2026-04-26T09:22:44Z</time></trkpt><trkpt lat="43.1390597507293" lon="11.219285671764561"><ele>299.75</ele><time>2026-04-26T09:22:45Z</time></trkpt><trkpt lat="43.138992777095496" lon="11.219440807164895"><ele>303.5</ele><time>2026-04-26T09:22:46Z</time></trkpt><trkpt lat="43.13888452557468" lon="11.219570515039514"><ele>307.25</ele><time>2026-04-26T09:22:47Z</time></trkpt><trkpt lat="43.13877743989045" lon="11.219677072700383"><ele>311.0</ele><time>2026-04-26T09:22:48Z</time></trkpt><trkpt lat="43.13872057115984" lon="11.219796796421239"><ele>312.0</ele><time>2026-04-26T09:22:49Z</time></trkpt><trkpt lat="43.13868412583893" lon="11.219921156091866"><ele>313.0</ele><time>2026-04-26T09:22:50Z</time></trkpt><trkpt lat="43.13867449371227" lon="11.220032632032712"><ele>314.0</ele><time>2026-04-26T09:22:51Z</time></trkpt><trkpt lat="43.13872662239587" lon="11.22014687352682"><ele>315.0</ele><time>2026-04-26T09:22:52Z</time></trkpt><trkpt lat="43.138788982526776" lon="11.220240833336304"><ele>316.0</ele><time>2026-04-26T09:22:53Z</time></trkpt><trkpt lat="43.13889932620188" lon="11.220348496655156"><ele>316.0</ele><time>2026-04-26T09:22:54Z</time></trkpt><trkpt lat="43.13904627713816" lon="11.220405707845396"><ele>316.0</ele><time>2026-04-26T09:22:55Z</time></trkpt><trkpt lat="43.13912485418211" lon="11.22053328346965"><ele>316.0</ele><time>2026-04-26T09:22:56Z</time></trkpt><trkpt lat="43.139165415776006" lon="11.220680266983194"><ele>316.0</ele><time>2026-04-26T09:22:57Z</time></trkpt><trkpt lat="43.13916580298277" lon="11.220836674628961"><ele>316.40000000000003</ele><time>2026-04-26T09:22:58Z</time></trkpt><trkpt lat="43.13914641519727" lon="11.220940721876783"><ele>316.8</ele><time>2026-04-26T09:22:59Z</time></trkpt><trkpt lat="43.13909273756147" lon="11.221079167345199"><ele>317.20000000000005</ele><time>2026-04-26T09:23:00Z</time></trkpt><trkpt lat="43.1389891169126" lon="11.221235107446617"><ele>317.6</ele><time>2026-04-26T09:23:01Z</time></trkpt><trkpt lat="43.13898694269567" lon="11.221364325853878"><ele>318.0</ele><time>2026-04-26T09:23:02Z</time></trkpt><trkpt lat="43.138944263418175" lon="11.221560608620237"><ele>321.25</ele><time>2026-04-26T09:23:03Z</time></trkpt><trkpt lat="43.138949426117186" lon="11.221754992929059"><ele>324.5</ele><time>2026-04-26T09:23:04Z</time></trkpt><trkpt lat="43.138969476278845" lon="11.221930190666088"><ele>327.75</ele><time>2026-04-26T09:23:05Z</time></trkpt><trkpt lat="43.13899894659334" lon="11.222152821549242"><ele>331.0</ele><time>2026-04-26T09:23:06Z</time></trkpt><trkpt lat="43.13902593343913" lon="11.222357273169424"><ele>334.0</ele><time>2026-04-26T09:23:07Z</time></trkpt><trkpt lat="43.139018374097205" lon="11.222537532395366"><ele>337.0</ele><time>2026-04-26T09:23:08Z</time></trkpt><trkpt lat="43.138979398871314" lon="11.222697682331289"><ele>340.0</ele><time>2026-04-26T09:23:09Z</time></trkpt><trkpt lat="43.13890498169281" lon="11.222806241533084"><ele>343.0</ele><time>2026-04-26T09:23:10Z</time></trkpt><trkpt lat="43.138783548746545" lon="11.22288652053181"><ele>343.0</ele><time>2026-04-26T09:23:11Z</time></trkpt><trkpt lat="43.138678637011786" lon="11.222914196937342"><ele>343.0</ele><time>2026-04-26T09:23:12Z</time></trkpt><trkpt lat="43.138559800921335" lon="11.222917953920938"><ele>343.0</ele><time>2026-04-26T09:23:13Z</time></trkpt><trkpt lat="43.13845308756437" lon="11.22290478590905"><ele>343.0</ele><time>2026-04-26T09:23:14Z</time></trkpt><trkpt lat="43.13836960882475" lon="11.222899717595999"><ele>343.0</ele><time>2026-04-26T09:23:15Z</time></trkpt><trkpt lat="43.13825368384263" lon="11.222862122354966"><ele>345.0</ele><time>2026-04-26T09:23:16Z</time></trkpt><trkpt lat="43.1381528128881" lon="11.222848872290516"><ele>347.0</ele><time>2026-04-26T09:23:16.999Z</time></trkpt><trkpt lat="43.138081461300075" lon="11.222717769616635"><ele>349.0</ele><time>2026-04-26T09:23:17.999Z</time></trkpt><trkpt lat="43.138002398812304" lon="11.222562073906598"><ele>351.0</ele><time>2026-04-26T09:23:18.999Z</time></trkpt><trkpt lat="43.137879214986576" lon="11.22243804149094"><ele>351.0</ele><time>2026-04-26T09:23:19.999Z</time></trkpt><trkpt lat="43.137780418414025" lon="11.222345121960306"><ele>351.0</ele><time>2026-04-26T09:23:20.999Z</time></trkpt><trkpt lat="43.137663260171294" lon="11.222302345532336"><ele>351.0</ele><time>2026-04-26T09:23:21.999Z</time></trkpt><trkpt lat="43.13747225026168" lon="11.2222771746058"><ele>351.0</ele><time>2026-04-26T09:23:22.999Z</time></trkpt><trkpt lat="43.13729567608409" lon="11.222312098106215"><ele>346.6666666666667</ele><time>2026-04-26T09:23:23.999Z</time></trkpt><trkpt lat="43.1371318833074" lon="11.222264712410102"><ele>342.33333333333337</ele><time>2026-04-26T09:23:24.999Z</time></trkpt><trkpt lat="43.13696967925527" lon="11.222400129079642"><ele>338.0</ele><time>2026-04-26T09:23:25.999Z</time></trkpt><trkpt lat="43.13682877349332" lon="11.222596794951626"><ele>338.0</ele><time>2026-04-26T09:23:26.999Z</time></trkpt><trkpt lat="43.136661063274815" lon="11.222840034772139"><ele>338.0</ele><time>2026-04-26T09:23:27.999Z</time></trkpt><trkpt lat="43.136528630470615" lon="11.222999269779072"><ele>338.0</ele><time>2026-04-26T09:23:28.999Z</time></trkpt><trkpt lat="43.13652349541289" lon="11.223331121567412"><ele>332.5</ele><time>2026-04-26T09:23:29.999Z</time></trkpt><trkpt lat="43.13640715106998" lon="11.223496214218303"><ele>327.0</ele><time>2026-04-26T09:23:30.999Z</time></trkpt><trkpt lat="43.13667441762556" lon="11.22400877922819"><ele>337.3333333333333</ele><time>2026-04-26T09:23:31.999Z</time></trkpt><trkpt lat="43.136637292720195" lon="11.224285195485114"><ele>347.66666666666663</ele><time>2026-04-26T09:23:32.999Z</time></trkpt><trkpt lat="43.13660915113011" lon="11.224535436250948"><ele>358.0</ele><time>2026-04-26T09:23:33.999Z</time></trkpt><trkpt lat="43.13658179451098" lon="11.224778988267342"><ele>355.0</ele><time>2026-04-26T09:23:34.999Z</time></trkpt><trkpt lat="43.13651911914086" lon="11.22499976343105"><ele>352.0</ele><time>2026-04-26T09:23:35.999Z</time></trkpt><trkpt lat="43.136421450630536" lon="11.225215861451163"><ele>349.0</ele><time>2026-04-26T09:23:36.999Z</time></trkpt><trkpt lat="43.13632049497002" lon="11.225435450171297"><ele>353.0</ele><time>2026-04-26T09:23:37.999Z</time></trkpt><trkpt lat="43.1362262556436" lon="11.22565685624725"><ele>357.0</ele><time>2026-04-26T09:23:38.999Z</time></trkpt><trkpt lat="43.13615965600954" lon="11.22587798341678"><ele>361.0</ele><time>2026-04-26T09:23:39.999Z</time></trkpt><trkpt lat="43.13611242829118" lon="11.226095864583955"><ele>361.0</ele><time>2026-04-26T09:23:40.999Z</time></trkpt><trkpt lat="43.13607236718438" lon="11.226308474518415"><ele>361.0</ele><time>2026-04-26T09:23:41.999Z</time></trkpt><trkpt lat="43.13602780384892" lon="11.226506174142372"><ele>361.0</ele><time>2026-04-26T09:23:42.999Z</time></trkpt><trkpt lat="43.13595759079708" lon="11.226689500049577"><ele>361.66666666666663</ele><time>2026-04-26T09:23:43.999Z</time></trkpt><trkpt lat="43.135854328214" lon="11.22681127482223"><ele>362.3333333333333</ele><time>2026-04-26T09:23:44.999Z</time></trkpt><trkpt lat="43.135724072261546" lon="11.22692054997753"><ele>363.0</ele><time>2026-04-26T09:23:45.999Z</time></trkpt><trkpt lat="43.13557846758954" lon="11.227024407814575"><ele>363.0</ele><time>2026-04-26T09:23:46.999Z</time></trkpt><trkpt lat="43.13542632435864" lon="11.227102226866085"><ele>363.0</ele><time>2026-04-26T09:23:47.999Z</time></trkpt><trkpt lat="43.13527448483619" lon="11.227217965956397"><ele>363.0</ele><time>2026-04-26T09:23:48.999Z</time></trkpt><trkpt lat="43.135116332067994" lon="11.227364593806971"><ele>363.6666666666667</ele><time>2026-04-26T09:23:49.999Z</time></trkpt><trkpt lat="43.13495942976136" lon="11.227515670135944"><ele>364.33333333333337</ele><time>2026-04-26T09:23:50.999Z</time></trkpt><trkpt lat="43.134806818389684" lon="11.227633578036832"><ele>365.0</ele><time>2026-04-26T09:23:51.999Z</time></trkpt><trkpt lat="43.134672942837" lon="11.227791809071007"><ele>365.0</ele><time>2026-04-26T09:23:52.999Z</time></trkpt><trkpt lat="43.13452460784934" lon="11.227976255556602"><ele>365.0</ele><time>2026-04-26T09:23:53.999Z</time></trkpt><trkpt lat="43.13439605387988" lon="11.228180308643413"><ele>365.0</ele><time>2026-04-26T09:23:54.999Z</time></trkpt><trkpt lat="43.134261813597995" lon="11.228352684737478"><ele>363.0</ele><time>2026-04-26T09:23:55.999Z</time></trkpt><trkpt lat="43.13413672166848" lon="11.228547761959572"><ele>361.0</ele><time>2026-04-26T09:23:56.999Z</time></trkpt><trkpt lat="43.1340097208549" lon="11.228730060145486"><ele>359.0</ele><time>2026-04-26T09:23:57.999Z</time></trkpt><trkpt lat="43.13390029912682" lon="11.228903435153159"><ele>363.6666666666667</ele><time>2026-04-26T09:23:58.999Z</time></trkpt><trkpt lat="43.13382638543541" lon="11.229111490620554"><ele>368.3333333333333</ele><time>2026-04-26T09:23:59.999Z</time></trkpt><trkpt lat="43.13379839983583" lon="11.22933765171713"><ele>373.0</ele><time>2026-04-26T09:24:00.999Z</time></trkpt><trkpt lat="43.13379207382376" lon="11.229565292349582"><ele>373.0</ele><time>2026-04-26T09:24:01.999Z</time></trkpt><trkpt lat="43.13379460012757" lon="11.229775569045009"><ele>373.0</ele><time>2026-04-26T09:24:02.999Z</time></trkpt><trkpt lat="43.13377105834575" lon="11.229976088326058"><ele>373.0</ele><time>2026-04-26T09:24:03.999Z</time></trkpt><trkpt lat="43.13372523667959" lon="11.230188625354032"><ele>376.3333333333333</ele><time>2026-04-26T09:24:04.999Z</time></trkpt><trkpt lat="43.133661602333326" lon="11.230378276106153"><ele>379.6666666666667</ele><time>2026-04-26T09:24:05.999Z</time></trkpt><trkpt lat="43.133552656812924" lon="11.230561169134617"><ele>383.0</ele><time>2026-04-26T09:24:06.999Z</time></trkpt><trkpt lat="43.13346114807843" lon="11.23075327521437"><ele>386.33333333333337</ele><time>2026-04-26T09:24:07.999Z</time></trkpt><trkpt lat="43.13339252395018" lon="11.230946226474618"><ele>389.6666666666667</ele><time>2026-04-26T09:24:08.999Z</time></trkpt><trkpt lat="43.13331377970243" lon="11.231155172769112"><ele>393.0</ele><time>2026-04-26T09:24:09.999Z</time></trkpt><trkpt lat="43.13324489684966" lon="11.231372253414724"><ele>386.0</ele><time>2026-04-26T09:24:10.999Z</time></trkpt><trkpt lat="43.133185328568665" lon="11.231617757082862"><ele>379.0</ele><time>2026-04-26T09:24:11.999Z</time></trkpt><trkpt lat="43.13312949293731" lon="11.231848824742391"><ele>372.0</ele><time>2026-04-26T09:24:12.999Z</time></trkpt><trkpt lat="43.13311287329836" lon="11.232065522398491"><ele>372.0</ele><time>2026-04-26T09:24:13.998Z</time></trkpt><trkpt lat="43.133126368742616" lon="11.232297687494514"><ele>372.0</ele><time>2026-04-26T09:24:14.998Z</time></trkpt><trkpt lat="43.13314242889529" lon="11.23253566224171"><ele>372.0</ele><time>2026-04-26T09:24:15.998Z</time></trkpt><trkpt lat="43.13317870749037" lon="11.232760947158"><ele>376.0</ele><time>2026-04-26T09:24:16.998Z</time></trkpt><trkpt lat="43.13322527618493" lon="11.232949846820288"><ele>380.0</ele><time>2026-04-26T09:24:17.998Z</time></trkpt><trkpt lat="43.13330935900454" lon="11.23311724621917"><ele>384.0</ele><time>2026-04-26T09:24:18.998Z</time></trkpt><trkpt lat="43.13332551583205" lon="11.233305192185446"><ele>388.0</ele><time>2026-04-26T09:24:20Z</time></trkpt><trkpt lat="43.133469358686895" lon="11.233491367814782"><ele>388.0</ele><time>2026-04-26T09:24:21Z</time></trkpt><trkpt lat="43.133552626290694" lon="11.233636474565358"><ele>388.0</ele><time>2026-04-26T09:24:22Z</time></trkpt><trkpt lat="43.13365510661676" lon="11.233750577934737"><ele>388.0</ele><time>2026-04-26T09:24:23Z</time></trkpt><trkpt lat="43.13377352470436" lon="11.233864410261585"><ele>388.0</ele><time>2026-04-26T09:24:24Z</time></trkpt><trkpt lat="43.13386985787858" lon="11.233925695758009"><ele>386.33333333333337</ele><time>2026-04-26T09:24:25Z</time></trkpt><trkpt lat="43.13401940292828" lon="11.23403315578348"><ele>384.6666666666667</ele><time>2026-04-26T09:24:26Z</time></trkpt><trkpt lat="43.13417877021931" lon="11.234075856668188"><ele>383.0</ele><time>2026-04-26T09:24:27Z</time></trkpt><trkpt lat="43.13434031057678" lon="11.234130226753063"><ele>383.0</ele><time>2026-04-26T09:24:28Z</time></trkpt><trkpt lat="43.13441523841333" lon="11.234290187436665"><ele>383.0</ele><time>2026-04-26T09:24:29Z</time></trkpt><trkpt lat="43.13450552125609" lon="11.234445214458152"><ele>383.0</ele><time>2026-04-26T09:24:30Z</time></trkpt><trkpt lat="43.13464026350093" lon="11.234556448106817"><ele>383.0</ele><time>2026-04-26T09:24:31Z</time></trkpt><trkpt lat="43.13480178929591" lon="11.234638806614006"><ele>386.33333333333337</ele><time>2026-04-26T09:24:32Z</time></trkpt><trkpt lat="43.13498846837079" lon="11.234691090201055"><ele>389.6666666666667</ele><time>2026-04-26T09:24:33Z</time></trkpt><trkpt lat="43.13508960362269" lon="11.234843248895478"><ele>393.0</ele><time>2026-04-26T09:24:34Z</time></trkpt><trkpt lat="43.135338088786064" lon="11.234764057096747"><ele>399.0</ele><time>2026-04-26T09:24:35Z</time></trkpt><trkpt lat="43.13554105766582" lon="11.23478415945917"><ele>405.0</ele><time>2026-04-26T09:24:36Z</time></trkpt><trkpt lat="43.13572729125934" lon="11.234818810765367"><ele>411.0</ele><time>2026-04-26T09:24:37Z</time></trkpt><trkpt lat="43.13590572246673" lon="11.234888417783349"><ele>412.66666666666663</ele><time>2026-04-26T09:24:38Z</time></trkpt><trkpt lat="43.136072382856945" lon="11.234974120994574"><ele>414.3333333333333</ele><time>2026-04-26T09:24:39Z</time></trkpt><trkpt lat="43.136226834096924" lon="11.235068884040926"><ele>416.0</ele><time>2026-04-26T09:24:40Z</time></trkpt><trkpt lat="43.13636144073012" lon="11.235106768156573"><ele>416.0</ele><time>2026-04-26T09:24:41Z</time></trkpt><trkpt lat="43.136497929014475" lon="11.235140621169217"><ele>416.0</ele><time>2026-04-26T09:24:42Z</time></trkpt><trkpt lat="43.13660893911947" lon="11.235223545592723"><ele>416.0</ele><time>2026-04-26T09:24:43Z</time></trkpt><trkpt lat="43.13670818681746" lon="11.235308783331766"><ele>416.0</ele><time>2026-04-26T09:24:44Z</time></trkpt><trkpt lat="43.13676830860723" lon="11.235376673055692"><ele>414.5</ele><time>2026-04-26T09:24:45Z</time></trkpt><trkpt lat="43.136804670622425" lon="11.235502036284236"><ele>413.0</ele><time>2026-04-26T09:24:46Z</time></trkpt><trkpt lat="43.1367960698994" lon="11.235594376097676"><ele>411.5</ele><time>2026-04-26T09:24:47Z</time></trkpt><trkpt lat="43.13672757298046" lon="11.235697021488367"><ele>410.0</ele><time>2026-04-26T09:24:48Z</time></trkpt><trkpt lat="43.136552642972326" lon="11.23582180371864"><ele>410.0</ele><time>2026-04-26T09:24:49Z</time></trkpt><trkpt lat="43.13641837482076" lon="11.23594954783999"><ele>410.0</ele><time>2026-04-26T09:24:50Z</time></trkpt><trkpt lat="43.13636479850433" lon="11.236154455630247"><ele>410.0</ele><time>2026-04-26T09:24:51Z</time></trkpt><trkpt lat="43.13634072239716" lon="11.236361294421835"><ele>409.3333333333333</ele><time>2026-04-26T09:24:52Z</time></trkpt><trkpt lat="43.13634153040952" lon="11.236556612921033"><ele>408.66666666666663</ele><time>2026-04-26T09:24:53Z</time></trkpt><trkpt lat="43.136359696798735" lon="11.236762813339364"><ele>408.0</ele><time>2026-04-26T09:24:54Z</time></trkpt><trkpt lat="43.13643840828666" lon="11.236962380772303"><ele>408.0</ele><time>2026-04-26T09:24:55Z</time></trkpt><trkpt lat="43.13653225140117" lon="11.23716706611083"><ele>408.0</ele><time>2026-04-26T09:24:56Z</time></trkpt><trkpt lat="43.136611972314796" lon="11.237362755036381"><ele>408.0</ele><time>2026-04-26T09:24:57Z</time></trkpt><trkpt lat="43.13668695371529" lon="11.237573839930896"><ele>415.66666666666663</ele><time>2026-04-26T09:24:58Z</time></trkpt><trkpt lat="43.13676003682129" lon="11.237772854493764"><ele>423.3333333333333</ele><time>2026-04-26T09:24:59Z</time></trkpt><trkpt lat="43.136839462042104" lon="11.237955785952376"><ele>431.0</ele><time>2026-04-26T09:25:00Z</time></trkpt><trkpt lat="43.136942661578736" lon="11.238103647181616"><ele>432.0</ele><time>2026-04-26T09:25:01Z</time></trkpt><trkpt lat="43.13708533518872" lon="11.238192016994635"><ele>433.0</ele><time>2026-04-26T09:25:02Z</time></trkpt><trkpt lat="43.13725770203709" lon="11.238152785141505"><ele>434.0</ele><time>2026-04-26T09:25:03Z</time></trkpt><trkpt lat="43.13741142862514" lon="11.238145182503118"><ele>439.3333333333333</ele><time>2026-04-26T09:25:04Z</time></trkpt><trkpt lat="43.13759359161746" lon="11.238128514076877"><ele>444.66666666666663</ele><time>2026-04-26T09:25:05Z</time></trkpt><trkpt lat="43.137780591943596" lon="11.238124593024368"><ele>450.0</ele><time>2026-04-26T09:25:06Z</time></trkpt><trkpt lat="43.1379566842304" lon="11.238079734651164"><ele>450.0</ele><time>2026-04-26T09:25:07Z</time></trkpt><trkpt lat="43.13812687596799" lon="11.2380208005667"><ele>450.0</ele><time>2026-04-26T09:25:08Z</time></trkpt><trkpt lat="43.13829968007197" lon="11.237934587060034"><ele>450.0</ele><time>2026-04-26T09:25:09Z</time></trkpt><trkpt lat="43.1384635907428" lon="11.237827465202114"><ele>450.0</ele><time>2026-04-26T09:25:10Z</time></trkpt><trkpt lat="43.138621896819316" lon="11.237741408209832"><ele>450.0</ele><time>2026-04-26T09:25:11Z</time></trkpt><trkpt lat="43.138763227674275" lon="11.237664378598833"><ele>450.0</ele><time>2026-04-26T09:25:12Z</time></trkpt><trkpt lat="43.13888803939121" lon="11.23761891047667"><ele>450.0</ele><time>2026-04-26T09:25:13Z</time></trkpt><trkpt lat="43.13900667414739" lon="11.237641897928189"><ele>450.0</ele><time>2026-04-26T09:25:14Z</time></trkpt><trkpt lat="43.139088078293796" lon="11.237706764729792"><ele>450.0</ele><time>2026-04-26T09:25:15Z</time></trkpt><trkpt lat="43.1390939200113" lon="11.237821981330201"><ele>450.0</ele><time>2026-04-26T09:25:16Z</time></trkpt><trkpt lat="43.1390531487807" lon="11.237909567979075"><ele>450.0</ele><time>2026-04-26T09:25:17Z</time></trkpt><trkpt lat="43.1390046874755" lon="11.23800782253209"><ele>450.0</ele><time>2026-04-26T09:25:18Z</time></trkpt><trkpt lat="43.13893757157" lon="11.238088041471778"><ele>450.0</ele><time>2026-04-26T09:25:19Z</time></trkpt><trkpt lat="43.13888080065215" lon="11.238195265870967"><ele>450.0</ele><time>2026-04-26T09:25:20Z</time></trkpt><trkpt lat="43.13880940301841" lon="11.238312602064381"><ele>450.0</ele><time>2026-04-26T09:25:21Z</time></trkpt><trkpt lat="43.138664546808315" lon="11.238507678613022"><ele>447.75</ele><time>2026-04-26T09:25:22Z</time></trkpt><trkpt lat="43.138541387339245" lon="11.23864067602082"><ele>445.5</ele><time>2026-04-26T09:25:23Z</time></trkpt><trkpt lat="43.13841654450666" lon="11.238765917668612"><ele>443.25</ele><time>2026-04-26T09:25:24Z</time></trkpt><trkpt lat="43.138308561736594" lon="11.238873942361378"><ele>441.0</ele><time>2026-04-26T09:25:24.999Z</time></trkpt><trkpt lat="43.13819739773028" lon="11.239005015073483"><ele>438.75</ele><time>2026-04-26T09:25:25.999Z</time></trkpt><trkpt lat="43.13812509561701" lon="11.239167795292651"><ele>436.5</ele><time>2026-04-26T09:25:26.999Z</time></trkpt><trkpt lat="43.138132343032716" lon="11.23936009852368"><ele>434.25</ele><time>2026-04-26T09:25:27.999Z</time></trkpt><trkpt lat="43.138155475216024" lon="11.239573796859894"><ele>432.0</ele><time>2026-04-26T09:25:28.999Z</time></trkpt><trkpt lat="43.138151518416876" lon="11.23976710043885"><ele>434.5</ele><time>2026-04-26T09:25:29.999Z</time></trkpt><trkpt lat="43.13808854094056" lon="11.239920831331819"><ele>437.0</ele><time>2026-04-26T09:25:30.999Z</time></trkpt><trkpt lat="43.13801955341832" lon="11.240078039442713"><ele>439.5</ele><time>2026-04-26T09:25:31.999Z</time></trkpt><trkpt lat="43.137939205228896" lon="11.240247182965039"><ele>442.0</ele><time>2026-04-26T09:25:32.999Z</time></trkpt><trkpt lat="43.13784504389751" lon="11.240347659425144"><ele>442.0</ele><time>2026-04-26T09:25:33.999Z</time></trkpt><trkpt lat="43.13773514144004" lon="11.240403696213914"><ele>442.0</ele><time>2026-04-26T09:25:34.999Z</time></trkpt><trkpt lat="43.13759055143013" lon="11.24042681338774"><ele>442.0</ele><time>2026-04-26T09:25:35.999Z</time></trkpt><trkpt lat="43.13743809302011" lon="11.240468581799158"><ele>442.0</ele><time>2026-04-26T09:25:36.999Z</time></trkpt><trkpt lat="43.13727895683362" lon="11.24053712828846"><ele>442.6666666666667</ele><time>2026-04-26T09:25:37.999Z</time></trkpt><trkpt lat="43.13712482086354" lon="11.240648665752765"><ele>443.33333333333337</ele><time>2026-04-26T09:25:38.999Z</time></trkpt><trkpt lat="43.13697921392758" lon="11.240772618420023"><ele>444.0</ele><time>2026-04-26T09:25:39.999Z</time></trkpt><trkpt lat="43.136832569861156" lon="11.240924608934513"><ele>444.0</ele><time>2026-04-26T09:25:40.999Z</time></trkpt><trkpt lat="43.13672293360199" lon="11.241120916963911"><ele>444.0</ele><time>2026-04-26T09:25:41.999Z</time></trkpt><trkpt lat="43.13663408136791" lon="11.241326433325415"><ele>444.0</ele><time>2026-04-26T09:25:42.999Z</time></trkpt><trkpt lat="43.13653886173432" lon="11.241503336523492"><ele>443.0</ele><time>2026-04-26T09:25:43.999Z</time></trkpt><trkpt lat="43.13644365658788" lon="11.24171007391168"><ele>442.0</ele><time>2026-04-26T09:25:44.999Z</time></trkpt><trkpt lat="43.13633646914542" lon="11.241859467796424"><ele>441.0</ele><time>2026-04-26T09:25:45.999Z</time></trkpt><trkpt lat="43.1362000679994" lon="11.24195156835923"><ele>441.0</ele><time>2026-04-26T09:25:46.999Z</time></trkpt><trkpt lat="43.136062087627714" lon="11.242009460808331"><ele>441.0</ele><time>2026-04-26T09:25:47.999Z</time></trkpt><trkpt lat="43.1358918145366" lon="11.242086729070781"><ele>441.0</ele><time>2026-04-26T09:25:48.999Z</time></trkpt><trkpt lat="43.135724207567534" lon="11.242162787639264"><ele>441.0</ele><time>2026-04-26T09:25:49.999Z</time></trkpt><trkpt lat="43.135546612798386" lon="11.242243661267246"><ele>441.0</ele><time>2026-04-26T09:25:50.999Z</time></trkpt><trkpt lat="43.13535701728212" lon="11.242334637997915"><ele>441.0</ele><time>2026-04-26T09:25:51.999Z</time></trkpt><trkpt lat="43.1351788243701" lon="11.242471021962071"><ele>443.33333333333337</ele><time>2026-04-26T09:25:52.999Z</time></trkpt><trkpt lat="43.1350302376844" lon="11.242638191214805"><ele>445.6666666666667</ele><time>2026-04-26T09:25:53.999Z</time></trkpt><trkpt lat="43.13489759941395" lon="11.242791289234386"><ele>448.0</ele><time>2026-04-26T09:25:54.999Z</time></trkpt><trkpt lat="43.134754374864734" lon="11.242904463696853"><ele>448.0</ele><time>2026-04-26T09:25:55.999Z</time></trkpt><trkpt lat="43.13459905715404" lon="11.24295727795822"><ele>448.0</ele><time>2026-04-26T09:25:56.999Z</time></trkpt><trkpt lat="43.13445179495996" lon="11.242978063227598"><ele>448.0</ele><time>2026-04-26T09:25:57.999Z</time></trkpt><trkpt lat="43.134268981816035" lon="11.243000267938537"><ele>448.0</ele><time>2026-04-26T09:25:58.999Z</time></trkpt><trkpt lat="43.13407260361113" lon="11.243027963432278"><ele>448.0</ele><time>2026-04-26T09:25:59.999Z</time></trkpt><trkpt lat="43.1338858712845" lon="11.243080756502328"><ele>448.0</ele><time>2026-04-26T09:26:00.999Z</time></trkpt><trkpt lat="43.133707911613335" lon="11.243139361747302"><ele>449.0</ele><time>2026-04-26T09:26:01.999Z</time></trkpt><trkpt lat="43.13352898548042" lon="11.243222825629514"><ele>450.0</ele><time>2026-04-26T09:26:02.999Z</time></trkpt><trkpt lat="43.13338674735084" lon="11.24330273158716"><ele>451.0</ele><time>2026-04-26T09:26:03.999Z</time></trkpt><trkpt lat="43.13324922101938" lon="11.243393998684567"><ele>451.6666666666667</ele><time>2026-04-26T09:26:04.999Z</time></trkpt><trkpt lat="43.13311958577921" lon="11.24354791165254"><ele>452.33333333333337</ele><time>2026-04-26T09:26:05.999Z</time></trkpt><trkpt lat="43.13300886500661" lon="11.243734462212629"><ele>453.0</ele><time>2026-04-26T09:26:06.999Z</time></trkpt><trkpt lat="43.13294934107962" lon="11.243931898043313"><ele>452.66666666666663</ele><time>2026-04-26T09:26:07.999Z</time></trkpt><trkpt lat="43.132910417281096" lon="11.244134740819096"><ele>452.3333333333333</ele><time>2026-04-26T09:26:08.999Z</time></trkpt><trkpt lat="43.13291422579959" lon="11.244349259244604"><ele>452.0</ele><time>2026-04-26T09:26:09.999Z</time></trkpt><trkpt lat="43.132925401076456" lon="11.244572609441846"><ele>450.3333333333333</ele><time>2026-04-26T09:26:10.999Z</time></trkpt><trkpt lat="43.132905424974425" lon="11.244841868182828"><ele>448.66666666666663</ele><time>2026-04-26T09:26:11.999Z</time></trkpt><trkpt lat="43.13288970445509" lon="11.245110988422514"><ele>447.0</ele><time>2026-04-26T09:26:12.999Z</time></trkpt><trkpt lat="43.132861933575406" lon="11.24538179760265"><ele>446.0</ele><time>2026-04-26T09:26:13.999Z</time></trkpt><trkpt lat="43.13284249527211" lon="11.245658641490044"><ele>445.0</ele><time>2026-04-26T09:26:14.999Z</time></trkpt><trkpt lat="43.132799363937046" lon="11.245917675347327"><ele>444.0</ele><time>2026-04-26T09:26:15.999Z</time></trkpt><trkpt lat="43.132790663439415" lon="11.246214331695091"><ele>442.66666666666663</ele><time>2026-04-26T09:26:16.999Z</time></trkpt><trkpt lat="43.13276358130172" lon="11.246494020664867"><ele>441.3333333333333</ele><time>2026-04-26T09:26:17.999Z</time></trkpt><trkpt lat="43.13274506670678" lon="11.246795310990631"><ele>440.0</ele><time>2026-04-26T09:26:18.999Z</time></trkpt><trkpt lat="43.13271634169321" lon="11.247088001965002"><ele>439.3333333333333</ele><time>2026-04-26T09:26:19.999Z</time></trkpt><trkpt lat="43.132707250993576" lon="11.247384113631465"><ele>438.66666666666663</ele><time>2026-04-26T09:26:20.999Z</time></trkpt><trkpt lat="43.13268947961431" lon="11.247688534174284"><ele>438.0</ele><time>2026-04-26T09:26:21.998Z</time></trkpt><trkpt lat="43.13267079956066" lon="11.248015279420015"><ele>438.0</ele><time>2026-04-26T09:26:22.998Z</time></trkpt><trkpt lat="43.132652388114195" lon="11.248337326534148"><ele>438.0</ele><time>2026-04-26T09:26:23.998Z</time></trkpt><trkpt lat="43.132633522064374" lon="11.24865010998786"><ele>438.0</ele><time>2026-04-26T09:26:25Z</time></trkpt><trkpt lat="43.13261608215395" lon="11.24893865333704"><ele>438.0</ele><time>2026-04-26T09:26:26Z</time></trkpt><trkpt lat="43.13259669429495" lon="11.249245828560111"><ele>438.0</ele><time>2026-04-26T09:26:27Z</time></trkpt><trkpt lat="43.132596039357054" lon="11.24953375088762"><ele>435.0</ele><time>2026-04-26T09:26:28Z</time></trkpt><trkpt lat="43.132635416850135" lon="11.249836385125553"><ele>432.0</ele><time>2026-04-26T09:26:29Z</time></trkpt><trkpt lat="43.13271512142901" lon="11.250120474611139"><ele>429.0</ele><time>2026-04-26T09:26:30Z</time></trkpt><trkpt lat="43.13278019625342" lon="11.25038758877655"><ele>430.0</ele><time>2026-04-26T09:26:31Z</time></trkpt><trkpt lat="43.13283228947899" lon="11.250634036520148"><ele>431.0</ele><time>2026-04-26T09:26:32Z</time></trkpt><trkpt lat="43.132887768304236" lon="11.250864282504713"><ele>432.0</ele><time>2026-04-26T09:26:33Z</time></trkpt><trkpt lat="43.13314098837883" lon="11.250994359117541"><ele>431.0</ele><time>2026-04-26T09:26:34Z</time></trkpt><trkpt lat="43.1333016737204" lon="11.251152389563552"><ele>430.0</ele><time>2026-04-26T09:26:35Z</time></trkpt><trkpt lat="43.13348052081012" lon="11.251257174511721"><ele>429.0</ele><time>2026-04-26T09:26:36Z</time></trkpt><trkpt lat="43.133638389740426" lon="11.2513562171998"><ele>428.33333333333337</ele><time>2026-04-26T09:26:37Z</time></trkpt><trkpt lat="43.13377848858061" lon="11.251474678561753"><ele>427.6666666666667</ele><time>2026-04-26T09:26:38Z</time></trkpt><trkpt lat="43.13390108468868" lon="11.251640556638787"><ele>427.0</ele><time>2026-04-26T09:26:39Z</time></trkpt><trkpt lat="43.13399596792028" lon="11.25181889114417"><ele>424.6666666666667</ele><time>2026-04-26T09:26:40Z</time></trkpt><trkpt lat="43.13408561466499" lon="11.252014841534514"><ele>422.33333333333337</ele><time>2026-04-26T09:26:41Z</time></trkpt><trkpt lat="43.1342012833752" lon="11.252198688973468"><ele>420.0</ele><time>2026-04-26T09:26:42Z</time></trkpt><trkpt lat="43.13434540031681" lon="11.252381768348995"><ele>418.0</ele><time>2026-04-26T09:26:43Z</time></trkpt><trkpt lat="43.134472233638405" lon="11.25257155719094"><ele>416.0</ele><time>2026-04-26T09:26:44Z</time></trkpt><trkpt lat="43.134583496728716" lon="11.252771821550098"><ele>414.0</ele><time>2026-04-26T09:26:45Z</time></trkpt><trkpt lat="43.13467852953447" lon="11.252991624700146"><ele>413.0</ele><time>2026-04-26T09:26:46Z</time></trkpt><trkpt lat="43.134748527074606" lon="11.25323024806275"><ele>412.0</ele><time>2026-04-26T09:26:47Z</time></trkpt><trkpt lat="43.13479356921611" lon="11.253476154668974"><ele>411.0</ele><time>2026-04-26T09:26:48Z</time></trkpt><trkpt lat="43.134808216574605" lon="11.253711065470014"><ele>411.0</ele><time>2026-04-26T09:26:49Z</time></trkpt><trkpt lat="43.13484032913058" lon="11.25392518773389"><ele>411.0</ele><time>2026-04-26T09:26:50Z</time></trkpt><trkpt lat="43.13490248859756" lon="11.25410028251043"><ele>411.0</ele><time>2026-04-26T09:26:51Z</time></trkpt><trkpt lat="43.134987613549136" lon="11.254221830807316"><ele>411.0</ele><time>2026-04-26T09:26:52Z</time></trkpt><trkpt lat="43.135089082443606" lon="11.254280861598803"><ele>407.5</ele><time>2026-04-26T09:26:53Z</time></trkpt><trkpt lat="43.13521995191637" lon="11.254299915395439"><ele>404.0</ele><time>2026-04-26T09:26:54Z</time></trkpt><trkpt lat="43.13536049463622" lon="11.254278911558384"><ele>400.5</ele><time>2026-04-26T09:26:55Z</time></trkpt><trkpt lat="43.13550012707678" lon="11.254217437765744"><ele>397.0</ele><time>2026-04-26T09:26:56Z</time></trkpt><trkpt lat="43.13564852377513" lon="11.254167521971645"><ele>395.33333333333337</ele><time>2026-04-26T09:26:57Z</time></trkpt><trkpt lat="43.13580527274052" lon="11.254166156838524"><ele>393.66666666666663</ele><time>2026-04-26T09:26:58Z</time></trkpt><trkpt lat="43.13595558743077" lon="11.254218251998305"><ele>392.0</ele><time>2026-04-26T09:26:59Z</time></trkpt><trkpt lat="43.13609828315289" lon="11.254310484803586"><ele>392.0</ele><time>2026-04-26T09:27:00Z</time></trkpt><trkpt lat="43.136200460719834" lon="11.254468629391056"><ele>392.0</ele><time>2026-04-26T09:27:01Z</time></trkpt><trkpt lat="43.13627820733803" lon="11.254645169818529"><ele>392.0</ele><time>2026-04-26T09:27:02Z</time></trkpt><trkpt lat="43.136353502658814" lon="11.254822138612584"><ele>392.25</ele><time>2026-04-26T09:27:03Z</time></trkpt><trkpt lat="43.13644640072268" lon="11.254978541764377"><ele>392.5</ele><time>2026-04-26T09:27:04Z</time></trkpt><trkpt lat="43.136528400434756" lon="11.255147250865"><ele>392.75</ele><time>2026-04-26T09:27:05Z</time></trkpt><trkpt lat="43.13657520694499" lon="11.255331469173184"><ele>393.0</ele><time>2026-04-26T09:27:06Z</time></trkpt><trkpt lat="43.13659120325871" lon="11.255522629408738"><ele>393.5</ele><time>2026-04-26T09:27:07Z</time></trkpt><trkpt lat="43.13658846941005" lon="11.255718780063841"><ele>394.0</ele><time>2026-04-26T09:27:08Z</time></trkpt><trkpt lat="43.136552523206106" lon="11.255904775585671"><ele>394.5</ele><time>2026-04-26T09:27:09Z</time></trkpt><trkpt lat="43.13648337327879" lon="11.25609112614068"><ele>395.0</ele><time>2026-04-26T09:27:10Z</time></trkpt><trkpt lat="43.13640497352753" lon="11.256286245919533"><ele>395.66666666666663</ele><time>2026-04-26T09:27:11Z</time></trkpt><trkpt lat="43.13632355898321" lon="11.256497219480481"><ele>396.33333333333337</ele><time>2026-04-26T09:27:12Z</time></trkpt><trkpt lat="43.13625591502149" lon="11.256723048160072"><ele>397.0</ele><time>2026-04-26T09:27:13Z</time></trkpt><trkpt lat="43.1361883051922" lon="11.256941768405763"><ele>397.0</ele><time>2026-04-26T09:27:14Z</time></trkpt><trkpt lat="43.13613313723926" lon="11.257143738770655"><ele>397.0</ele><time>2026-04-26T09:27:15Z</time></trkpt><trkpt lat="43.1360908478965" lon="11.257331286459584"><ele>397.0</ele><time>2026-04-26T09:27:16Z</time></trkpt><trkpt lat="43.13609362581631" lon="11.257466822796616"><ele>397.0</ele><time>2026-04-26T09:27:17Z</time></trkpt><trkpt lat="43.13613328111094" lon="11.257576063751232"><ele>398.20000000000005</ele><time>2026-04-26T09:27:18Z</time></trkpt><trkpt lat="43.13619200152987" lon="11.257646192622415"><ele>399.4</ele><time>2026-04-26T09:27:19Z</time></trkpt><trkpt lat="43.13629083007221" lon="11.257664285852911"><ele>400.6</ele><time>2026-04-26T09:27:20Z</time></trkpt><trkpt lat="43.136385971696974" lon="11.257621697406508"><ele>401.79999999999995</ele><time>2026-04-26T09:27:21Z</time></trkpt><trkpt lat="43.13645415922256" lon="11.257528162062956"><ele>403.0</ele><time>2026-04-26T09:27:22Z</time></trkpt><trkpt lat="43.136495846210956" lon="11.257395812756284"><ele>401.5</ele><time>2026-04-26T09:27:23Z</time></trkpt><trkpt lat="43.13651938991088" lon="11.257242199829982"><ele>400.0</ele><time>2026-04-26T09:27:24Z</time></trkpt><trkpt lat="43.1365408366844" lon="11.257077871674532"><ele>398.5</ele><time>2026-04-26T09:27:25Z</time></trkpt><trkpt lat="43.13658722012058" lon="11.256904464671196"><ele>397.0</ele><time>2026-04-26T09:27:26Z</time></trkpt><trkpt lat="43.13665613291693" lon="11.256738120599541"><ele>392.0</ele><time>2026-04-26T09:27:27Z</time></trkpt><trkpt lat="43.136744702666874" lon="11.25658238590948"><ele>387.0</ele><time>2026-04-26T09:27:28Z</time></trkpt><trkpt lat="43.136859048047775" lon="11.256453932787984"><ele>382.0</ele><time>2026-04-26T09:27:29Z</time></trkpt><trkpt lat="43.136950668125365" lon="11.256306615164885"><ele>377.0</ele><time>2026-04-26T09:27:30Z</time></trkpt><trkpt lat="43.13700489635324" lon="11.256130371619209"><ele>377.0</ele><time>2026-04-26T09:27:31Z</time></trkpt><trkpt lat="43.13702189186082" lon="11.255949741982331"><ele>377.0</ele><time>2026-04-26T09:27:31.999Z</time></trkpt><trkpt lat="43.137032867533925" lon="11.255793171396373"><ele>377.0</ele><time>2026-04-26T09:27:32.999Z</time></trkpt><trkpt lat="43.137057184834056" lon="11.255629452128103"><ele>377.0</ele><time>2026-04-26T09:27:33.999Z</time></trkpt><trkpt lat="43.13709599104422" lon="11.255467958310009"><ele>377.33333333333337</ele><time>2026-04-26T09:27:34.999Z</time></trkpt><trkpt lat="43.137162826239276" lon="11.255349597012989"><ele>377.6666666666667</ele><time>2026-04-26T09:27:35.999Z</time></trkpt><trkpt lat="43.137246115774275" lon="11.255271029335345"><ele>378.0</ele><time>2026-04-26T09:27:36.999Z</time></trkpt><trkpt lat="43.13732904184802" lon="11.255270012456858"><ele>378.3333333333333</ele><time>2026-04-26T09:27:37.999Z</time></trkpt><trkpt lat="43.13739318704856" lon="11.255300441865101"><ele>378.66666666666663</ele><time>2026-04-26T09:27:38.999Z</time></trkpt><trkpt lat="43.13741835862533" lon="11.255381464327519"><ele>379.0</ele><time>2026-04-26T09:27:39.999Z</time></trkpt><trkpt lat="43.13741358660381" lon="11.255505176502085"><ele>378.5</ele><time>2026-04-26T09:27:40.999Z</time></trkpt><trkpt lat="43.137374772423456" lon="11.255642391850952"><ele>378.0</ele><time>2026-04-26T09:27:41.999Z</time></trkpt><trkpt lat="43.137340104084515" lon="11.255796100110746"><ele>377.5</ele><time>2026-04-26T09:27:42.999Z</time></trkpt><trkpt lat="43.13733035579149" lon="11.25595505555928"><ele>377.0</ele><time>2026-04-26T09:27:43.999Z</time></trkpt><trkpt lat="43.137336441129484" lon="11.256128855315005"><ele>377.0</ele><time>2026-04-26T09:27:44.999Z</time></trkpt><trkpt lat="43.13736462365284" lon="11.256262894233917"><ele>377.0</ele><time>2026-04-26T09:27:45.999Z</time></trkpt><trkpt lat="43.137446639937274" lon="11.256401531973975"><ele>377.0</ele><time>2026-04-26T09:27:46.999Z</time></trkpt><trkpt lat="43.13758593544208" lon="11.256552448032057"><ele>377.0</ele><time>2026-04-26T09:27:47.999Z</time></trkpt><trkpt lat="43.13766980935103" lon="11.256721354414454"><ele>368.6666666666667</ele><time>2026-04-26T09:27:48.999Z</time></trkpt><trkpt lat="43.137708928796386" lon="11.25690000789326"><ele>360.3333333333333</ele><time>2026-04-26T09:27:49.999Z</time></trkpt><trkpt lat="43.13773683095611" lon="11.257111325422969"><ele>352.0</ele><time>2026-04-26T09:27:50.999Z</time></trkpt><trkpt lat="43.137750122677204" lon="11.257364168277041"><ele>351.0</ele><time>2026-04-26T09:27:51.999Z</time></trkpt><trkpt lat="43.13776870638711" lon="11.257585231886441"><ele>350.0</ele><time>2026-04-26T09:27:52.999Z</time></trkpt><trkpt lat="43.137774471707566" lon="11.257830338560042"><ele>349.0</ele><time>2026-04-26T09:27:53.999Z</time></trkpt><trkpt lat="43.13778835422576" lon="11.258083470237416"><ele>348.3333333333333</ele><time>2026-04-26T09:27:54.999Z</time></trkpt><trkpt lat="43.13778858982055" lon="11.25832693647986"><ele>347.6666666666667</ele><time>2026-04-26T09:27:55.999Z</time></trkpt><trkpt lat="43.137785496342325" lon="11.258601762483192"><ele>347.0</ele><time>2026-04-26T09:27:56.999Z</time></trkpt><trkpt lat="43.137871718822296" lon="11.258772130852316"><ele>347.0</ele><time>2026-04-26T09:27:57.999Z</time></trkpt><trkpt lat="43.137989864380636" lon="11.258902163078105"><ele>347.0</ele><time>2026-04-26T09:27:58.999Z</time></trkpt><trkpt lat="43.13814849446442" lon="11.25898428711441"><ele>347.0</ele><time>2026-04-26T09:27:59.999Z</time></trkpt><trkpt lat="43.138319306465526" lon="11.259065045684268"><ele>341.33333333333337</ele><time>2026-04-26T09:28:00.999Z</time></trkpt><trkpt lat="43.13847840010889" lon="11.25915730428524"><ele>335.6666666666667</ele><time>2026-04-26T09:28:01.999Z</time></trkpt><trkpt lat="43.138616327723405" lon="11.259318258151039"><ele>330.0</ele><time>2026-04-26T09:28:02.999Z</time></trkpt><trkpt lat="43.1387481603737" lon="11.259453834869454"><ele>330.0</ele><time>2026-04-26T09:28:03.999Z</time></trkpt><trkpt lat="43.138866166620524" lon="11.259615535498382"><ele>330.0</ele><time>2026-04-26T09:28:04.999Z</time></trkpt><trkpt lat="43.138971981269414" lon="11.259806730322504"><ele>330.0</ele><time>2026-04-26T09:28:05.999Z</time></trkpt><trkpt lat="43.13906981456613" lon="11.25997989663748"><ele>328.0</ele><time>2026-04-26T09:28:06.999Z</time></trkpt><trkpt lat="43.1391891960504" lon="11.26012686770203"><ele>326.0</ele><time>2026-04-26T09:28:07.999Z</time></trkpt><trkpt lat="43.139340472333906" lon="11.260190281807263"><ele>324.0</ele><time>2026-04-26T09:28:08.999Z</time></trkpt><trkpt lat="43.13948826108809" lon="11.26023492693054"><ele>324.0</ele><time>2026-04-26T09:28:09.999Z</time></trkpt><trkpt lat="43.13964199626908" lon="11.260266079974597"><ele>324.0</ele><time>2026-04-26T09:28:10.999Z</time></trkpt><trkpt lat="43.139793501859856" lon="11.260335525426783"><ele>324.0</ele><time>2026-04-26T09:28:11.999Z</time></trkpt><trkpt lat="43.13992995993785" lon="11.26044141522148"><ele>327.0</ele><time>2026-04-26T09:28:12.999Z</time></trkpt><trkpt lat="43.14006202099122" lon="11.260546856877198"><ele>330.0</ele><time>2026-04-26T09:28:13.999Z</time></trkpt><trkpt lat="43.140218106924976" lon="11.260617785470535"><ele>333.0</ele><time>2026-04-26T09:28:14.999Z</time></trkpt><trkpt lat="43.14038234806471" lon="11.26068048975871"><ele>326.6666666666667</ele><time>2026-04-26T09:28:15.999Z</time></trkpt><trkpt lat="43.140531934345574" lon="11.26078301077705"><ele>320.33333333333337</ele><time>2026-04-26T09:28:16.999Z</time></trkpt><trkpt lat="43.140688192929126" lon="11.260912963511903"><ele>314.0</ele><time>2026-04-26T09:28:17.999Z</time></trkpt><trkpt lat="43.14082731227678" lon="11.261036299906374"><ele>314.0</ele><time>2026-04-26T09:28:18.999Z</time></trkpt><trkpt lat="43.14097880675382" lon="11.261126274369113"><ele>314.0</ele><time>2026-04-26T09:28:19.999Z</time></trkpt><trkpt lat="43.141108374470676" lon="11.261288814093254"><ele>314.0</ele><time>2026-04-26T09:28:20.999Z</time></trkpt><trkpt lat="43.14125446800586" lon="11.261393537483418"><ele>311.5</ele><time>2026-04-26T09:28:21.999Z</time></trkpt><trkpt lat="43.14138663039291" lon="11.26146882676643"><ele>309.0</ele><time>2026-04-26T09:28:22.999Z</time></trkpt><trkpt lat="43.1415303570989" lon="11.261464173703528"><ele>306.5</ele><time>2026-04-26T09:28:23.999Z</time></trkpt><trkpt lat="43.141595601597906" lon="11.26145978428781"><ele>304.0</ele><time>2026-04-26T09:28:24.999Z</time></trkpt><trkpt lat="43.14168621188122" lon="11.261374541654225"><ele>304.0</ele><time>2026-04-26T09:28:25.999Z</time></trkpt><trkpt lat="43.14174708081715" lon="11.261228629801826"><ele>304.0</ele><time>2026-04-26T09:28:26.999Z</time></trkpt><trkpt lat="43.14179482513367" lon="11.261055542091736"><ele>304.0</ele><time>2026-04-26T09:28:27.999Z</time></trkpt><trkpt lat="43.1418496449907" lon="11.260877454669371"><ele>304.0</ele><time>2026-04-26T09:28:28.998Z</time></trkpt><trkpt lat="43.14191323761244" lon="11.260690946552755"><ele>306.0</ele><time>2026-04-26T09:28:29.998Z</time></trkpt><trkpt lat="43.14196075951646" lon="11.26049501831437"><ele>308.0</ele><time>2026-04-26T09:28:31Z</time></trkpt><trkpt lat="43.14202094544175" lon="11.260318677717253"><ele>310.0</ele><time>2026-04-26T09:28:32.001Z</time></trkpt><trkpt lat="43.14206457615093" lon="11.26019059053795"><ele>312.0</ele><time>2026-04-26T09:28:33Z</time></trkpt><trkpt lat="43.142142630505326" lon="11.2600489485178"><ele>312.0</ele><time>2026-04-26T09:28:34Z</time></trkpt><trkpt lat="43.142249697259054" lon="11.259926727167425"><ele>312.0</ele><time>2026-04-26T09:28:35.001Z</time></trkpt><trkpt lat="43.142379421375715" lon="11.259774696856809"><ele>312.0</ele><time>2026-04-26T09:28:36Z</time></trkpt><trkpt lat="43.14247109387445" lon="11.259622662349344"><ele>308.75</ele><time>2026-04-26T09:28:37Z</time></trkpt><trkpt lat="43.14257470155283" lon="11.25949017523352"><ele>305.5</ele><time>2026-04-26T09:28:38Z</time></trkpt><trkpt lat="43.14270151782339" lon="11.259376010074309"><ele>302.25</ele><time>2026-04-26T09:28:39Z</time></trkpt><trkpt lat="43.14281063032565" lon="11.259263868267002"><ele>299.0</ele><time>2026-04-26T09:28:40Z</time></trkpt><trkpt lat="43.14287074352333" lon="11.259111260819308"><ele>301.5</ele><time>2026-04-26T09:28:41Z</time></trkpt><trkpt lat="43.142868563772986" lon="11.258911222034"><ele>304.0</ele><time>2026-04-26T09:28:42Z</time></trkpt><trkpt lat="43.14289674969831" lon="11.25875788156177"><ele>306.5</ele><time>2026-04-26T09:28:43Z</time></trkpt><trkpt lat="43.14292809032348" lon="11.258606574607565"><ele>309.0</ele><time>2026-04-26T09:28:44Z</time></trkpt><trkpt lat="43.143023046239485" lon="11.25851723825011"><ele>309.0</ele><time>2026-04-26T09:28:45Z</time></trkpt><trkpt lat="43.14308959211232" lon="11.25852902202195"><ele>309.0</ele><time>2026-04-26T09:28:46Z</time></trkpt><trkpt lat="43.14314013377068" lon="11.258612587401931"><ele>309.0</ele><time>2026-04-26T09:28:47Z</time></trkpt><trkpt lat="43.14318044734649" lon="11.258731734520603"><ele>309.0</ele><time>2026-04-26T09:28:48Z</time></trkpt><trkpt lat="43.14318937545227" lon="11.258890466454789"><ele>309.0</ele><time>2026-04-26T09:28:49Z</time></trkpt><trkpt lat="43.14317372905875" lon="11.259060069125104"><ele>306.5</ele><time>2026-04-26T09:28:50Z</time></trkpt><trkpt lat="43.14316401695883" lon="11.259210545346276"><ele>304.0</ele><time>2026-04-26T09:28:51Z</time></trkpt><trkpt lat="43.14315711693712" lon="11.259362276148378"><ele>301.5</ele><time>2026-04-26T09:28:52Z</time></trkpt><trkpt lat="43.143153663636745" lon="11.25956367809163"><ele>299.0</ele><time>2026-04-26T09:28:53Z</time></trkpt><trkpt lat="43.14307639960385" lon="11.259717251728858"><ele>296.25</ele><time>2026-04-26T09:28:54Z</time></trkpt><trkpt lat="43.14303115726599" lon="11.259939396878021"><ele>293.5</ele><time>2026-04-26T09:28:55Z</time></trkpt><trkpt lat="43.14298004214657" lon="11.260069650671266"><ele>290.75</ele><time>2026-04-26T09:28:56Z</time></trkpt><trkpt lat="43.14293685472236" lon="11.260241213880683"><ele>288.0</ele><time>2026-04-26T09:28:57Z</time></trkpt><trkpt lat="43.14289398868335" lon="11.260374446467278"><ele>288.0</ele><time>2026-04-26T09:28:58Z</time></trkpt><trkpt lat="43.14285959314876" lon="11.260527763152004"><ele>288.0</ele><time>2026-04-26T09:28:59Z</time></trkpt><trkpt lat="43.14279722108623" lon="11.26069479026241"><ele>288.0</ele><time>2026-04-26T09:29:00Z</time></trkpt><trkpt lat="43.1427867415002" lon="11.26086746141818"><ele>288.0</ele><time>2026-04-26T09:29:01Z</time></trkpt><trkpt lat="43.14279392510079" lon="11.260991204121732"><ele>286.4</ele><time>2026-04-26T09:29:02Z</time></trkpt><trkpt lat="43.142808995862865" lon="11.261156846494423"><ele>284.8</ele><time>2026-04-26T09:29:03Z</time></trkpt><trkpt lat="43.14281053586997" lon="11.261270089079199"><ele>283.2</ele><time>2026-04-26T09:29:04Z</time></trkpt><trkpt lat="43.142823675557196" lon="11.261377948304744"><ele>281.6</ele><time>2026-04-26T09:29:05.061Z</time></trkpt><trkpt lat="43.14285296453912" lon="11.26147749382813"><ele>280.0</ele><time>2026-04-26T09:29:06.028Z</time></trkpt><trkpt lat="43.145544614416835" lon="11.267789074466947"><ele>266.3333333333333</ele><time>2026-04-26T09:29:38Z</time></trkpt><trkpt lat="43.145498885399896" lon="11.267949043824267"><ele>252.66666666666669</ele><time>2026-04-26T09:29:39Z</time></trkpt><trkpt lat="43.145462018475534" lon="11.268186280265933"><ele>239.0</ele><time>2026-04-26T09:29:39.999Z</time></trkpt><trkpt lat="43.14537542894521" lon="11.268424298954354"><ele>239.0</ele><time>2026-04-26T09:29:40.999Z</time></trkpt><trkpt lat="43.14532557284352" lon="11.26867882144113"><ele>239.0</ele><time>2026-04-26T09:29:41.999Z</time></trkpt><trkpt lat="43.145227559212735" lon="11.268907885378173"><ele>239.0</ele><time>2026-04-26T09:29:42.999Z</time></trkpt><trkpt lat="43.14515511138307" lon="11.269133880131593"><ele>238.75</ele><time>2026-04-26T09:29:43.999Z</time></trkpt><trkpt lat="43.14514059380081" lon="11.269348714370071"><ele>238.5</ele><time>2026-04-26T09:29:44.999Z</time></trkpt><trkpt lat="43.1451728367499" lon="11.269564539031201"><ele>238.25</ele><time>2026-04-26T09:29:45.999Z</time></trkpt><trkpt lat="43.14520325062196" lon="11.269722839885507"><ele>238.0</ele><time>2026-04-26T09:29:46.999Z</time></trkpt><trkpt lat="43.14519528293788" lon="11.269912793810919"><ele>236.66666666666666</ele><time>2026-04-26T09:29:47.999Z</time></trkpt><trkpt lat="43.14515152047142" lon="11.270140171435035"><ele>235.33333333333331</ele><time>2026-04-26T09:29:48.999Z</time></trkpt><trkpt lat="43.14512400142067" lon="11.270393573675173"><ele>234.0</ele><time>2026-04-26T09:29:49.999Z</time></trkpt><trkpt lat="43.145120729548225" lon="11.270567086521922"><ele>232.0</ele><time>2026-04-26T09:29:50.999Z</time></trkpt><trkpt lat="43.14515445679297" lon="11.27075703929474"><ele>230.0</ele><time>2026-04-26T09:29:51.999Z</time></trkpt><trkpt lat="43.145229247882824" lon="11.270922853675458"><ele>228.0</ele><time>2026-04-26T09:29:52.999Z</time></trkpt><trkpt lat="43.14533329215834" lon="11.27105003708378"><ele>226.0</ele><time>2026-04-26T09:29:53.999Z</time></trkpt><trkpt lat="43.14546253428149" lon="11.271140541740694"><ele>226.0</ele><time>2026-04-26T09:29:54.999Z</time></trkpt><trkpt lat="43.14559658910621" lon="11.271208722957008"><ele>226.0</ele><time>2026-04-26T09:29:55.999Z</time></trkpt><trkpt lat="43.14573153895407" lon="11.271252382813314"><ele>226.0</ele><time>2026-04-26T09:29:56.999Z</time></trkpt><trkpt lat="43.1458637115664" lon="11.271236539457"><ele>226.0</ele><time>2026-04-26T09:29:57.999Z</time></trkpt><trkpt lat="43.14599545073113" lon="11.271258487808938"><ele>228.33333333333331</ele><time>2026-04-26T09:29:58.999Z</time></trkpt><trkpt lat="43.14610630248401" lon="11.271243357531437"><ele>230.66666666666666</ele><time>2026-04-26T09:29:59.999Z</time></trkpt><trkpt lat="43.14620692031906" lon="11.271200230521522"><ele>233.0</ele><time>2026-04-26T09:30:00.999Z</time></trkpt><trkpt lat="43.14628650697712" lon="11.271168054340164"><ele>235.33333333333331</ele><time>2026-04-26T09:30:01.999Z</time></trkpt><trkpt lat="43.14635548451595" lon="11.271147652018241"><ele>237.66666666666666</ele><time>2026-04-26T09:30:02.999Z</time></trkpt><trkpt lat="43.146424579707606" lon="11.271198053130837"><ele>240.0</ele><time>2026-04-26T09:30:03.999Z</time></trkpt><trkpt lat="43.14648016656916" lon="11.271241014529407"><ele>240.0</ele><time>2026-04-26T09:30:04.999Z</time></trkpt><trkpt lat="43.146543635068724" lon="11.271266114823723"><ele>240.0</ele><time>2026-04-26T09:30:05.999Z</time></trkpt><trkpt lat="43.14663472188105" lon="11.271218479139103"><ele>240.0</ele><time>2026-04-26T09:30:06.999Z</time></trkpt><trkpt lat="43.14672949912902" lon="11.271188159104394"><ele>240.0</ele><time>2026-04-26T09:30:07.999Z</time></trkpt><trkpt lat="43.146814812543" lon="11.27107052776201"><ele>240.0</ele><time>2026-04-26T09:30:08.999Z</time></trkpt><trkpt lat="43.14693363184468" lon="11.270884568841744"><ele>238.83333333333334</ele><time>2026-04-26T09:30:09.999Z</time></trkpt><trkpt lat="43.146981228289945" lon="11.270753079986724"><ele>237.66666666666669</ele><time>2026-04-26T09:30:10.999Z</time></trkpt><trkpt lat="43.14705096730892" lon="11.270737259444187"><ele>236.5</ele><time>2026-04-26T09:30:11.999Z</time></trkpt><trkpt lat="43.147111750829445" lon="11.270765949556079"><ele>235.33333333333334</ele><time>2026-04-26T09:30:12.999Z</time></trkpt><trkpt lat="43.14715891616944" lon="11.270886840326876"><ele>234.16666666666669</ele><time>2026-04-26T09:30:13.999Z</time></trkpt><trkpt lat="43.147214895954825" lon="11.271000224638886"><ele>233.0</ele><time>2026-04-26T09:30:14.999Z</time></trkpt><trkpt lat="43.14729551606774" lon="11.271114260993109"><ele>233.0</ele><time>2026-04-26T09:30:15.999Z</time></trkpt><trkpt lat="43.147374181540314" lon="11.271229591207799"><ele>233.0</ele><time>2026-04-26T09:30:16.999Z</time></trkpt><trkpt lat="43.147455531409285" lon="11.271343223114947"><ele>233.0</ele><time>2026-04-26T09:30:17.999Z</time></trkpt><trkpt lat="43.14754686705179" lon="11.2714462435847"><ele>233.0</ele><time>2026-04-26T09:30:18.999Z</time></trkpt><trkpt lat="43.147656079766314" lon="11.271506143091104"><ele>233.25</ele><time>2026-04-26T09:30:19.999Z</time></trkpt><trkpt lat="43.147784047816224" lon="11.271561165803838"><ele>233.5</ele><time>2026-04-26T09:30:20.999Z</time></trkpt><trkpt lat="43.14790645723241" lon="11.271618111282795"><ele>233.75</ele><time>2026-04-26T09:30:21.999Z</time></trkpt><trkpt lat="43.148013855669724" lon="11.271717576515247"><ele>234.0</ele><time>2026-04-26T09:30:22.999Z</time></trkpt><trkpt lat="43.14809075887016" lon="11.271860519828586"><ele>234.0</ele><time>2026-04-26T09:30:23.999Z</time></trkpt><trkpt lat="43.1481387373159" lon="11.272002200245721"><ele>234.0</ele><time>2026-04-26T09:30:24.999Z</time></trkpt><trkpt lat="43.14817422008077" lon="11.272161273374579"><ele>234.0</ele><time>2026-04-26T09:30:25.999Z</time></trkpt><trkpt lat="43.14822122213763" lon="11.272337741785245"><ele>234.0</ele><time>2026-04-26T09:30:26.999Z</time></trkpt><trkpt lat="43.14827990308063" lon="11.272519355822151"><ele>228.33333333333331</ele><time>2026-04-26T09:30:27.999Z</time></trkpt><trkpt lat="43.148342757856085" lon="11.272721458460767"><ele>222.66666666666666</ele><time>2026-04-26T09:30:28.999Z</time></trkpt><trkpt lat="43.148404100113396" lon="11.27291691288319"><ele>217.0</ele><time>2026-04-26T09:30:29.999Z</time></trkpt><trkpt lat="43.148464190878855" lon="11.273120984377206"><ele>217.0</ele><time>2026-04-26T09:30:30.999Z</time></trkpt><trkpt lat="43.14851888001874" lon="11.273319254114107"><ele>217.0</ele><time>2026-04-26T09:30:31.999Z</time></trkpt><trkpt lat="43.148543112931414" lon="11.273516381220942"><ele>217.0</ele><time>2026-04-26T09:30:32.999Z</time></trkpt><trkpt lat="43.1485294165297" lon="11.273703794714688"><ele>217.0</ele><time>2026-04-26T09:30:33.999Z</time></trkpt><trkpt lat="43.14847187350012" lon="11.273864264986594"><ele>214.25</ele><time>2026-04-26T09:30:34.999Z</time></trkpt><trkpt lat="43.14838265744187" lon="11.27398969928615"><ele>211.5</ele><time>2026-04-26T09:30:35.998Z</time></trkpt><trkpt lat="43.14828584725215" lon="11.27409091793409"><ele>208.75</ele><time>2026-04-26T09:30:37.001Z</time></trkpt><trkpt lat="43.14820960061986" lon="11.27421368710575"><ele>206.0</ele><time>2026-04-26T09:30:38.001Z</time></trkpt><trkpt lat="43.148168246224294" lon="11.274367997045188"><ele>206.0</ele><time>2026-04-26T09:30:39.001Z</time></trkpt><trkpt lat="43.14817336508054" lon="11.274522189547854"><ele>206.0</ele><time>2026-04-26T09:30:40.001Z</time></trkpt><trkpt lat="43.14821399971769" lon="11.274654638167105"><ele>206.0</ele><time>2026-04-26T09:30:41.001Z</time></trkpt><trkpt lat="43.1483057260668" lon="11.27476823137217"><ele>206.0</ele><time>2026-04-26T09:30:42.001Z</time></trkpt><trkpt lat="43.14841402647892" lon="11.274852064222568"><ele>203.33333333333334</ele><time>2026-04-26T09:30:43.001Z</time></trkpt><trkpt lat="43.14853870081405" lon="11.274970124962389"><ele>200.66666666666669</ele><time>2026-04-26T09:30:44.001Z</time></trkpt><trkpt lat="43.14865765075436" lon="11.275119115022246"><ele>198.0</ele><time>2026-04-26T09:30:45.001Z</time></trkpt><trkpt lat="43.14877431554243" lon="11.275281775112278"><ele>198.0</ele><time>2026-04-26T09:30:46.001Z</time></trkpt><trkpt lat="43.14889799427422" lon="11.275440777232085"><ele>198.0</ele><time>2026-04-26T09:30:47.001Z</time></trkpt><trkpt lat="43.14901245929873" lon="11.275607824199907"><ele>198.0</ele><time>2026-04-26T09:30:48.001Z</time></trkpt><trkpt lat="43.149109403091295" lon="11.275791055297988"><ele>196.33333333333331</ele><time>2026-04-26T09:30:49.001Z</time></trkpt><trkpt lat="43.14920550972211" lon="11.276004011582684"><ele>194.66666666666666</ele><time>2026-04-26T09:30:50.001Z</time></trkpt><trkpt lat="43.14930842836474" lon="11.276206781902388"><ele>193.0</ele><time>2026-04-26T09:30:51.001Z</time></trkpt><trkpt lat="43.14939766579862" lon="11.276418656219482"><ele>191.66666666666666</ele><time>2026-04-26T09:30:52Z</time></trkpt><trkpt lat="43.14947111079866" lon="11.276638083277241"><ele>190.33333333333331</ele><time>2026-04-26T09:30:53Z</time></trkpt><trkpt lat="43.14951608574949" lon="11.27687330748263"><ele>189.0</ele><time>2026-04-26T09:30:54Z</time></trkpt><trkpt lat="43.149540306884234" lon="11.277123289991035"><ele>187.33333333333334</ele><time>2026-04-26T09:30:55Z</time></trkpt><trkpt lat="43.14954763366923" lon="11.277373520837816"><ele>185.66666666666669</ele><time>2026-04-26T09:30:56Z</time></trkpt><trkpt lat="43.14953103230872" lon="11.27763380805735"><ele>184.0</ele><time>2026-04-26T09:30:57Z</time></trkpt><trkpt lat="43.14949368844814" lon="11.277939408592879"><ele>183.0</ele><time>2026-04-26T09:30:58Z</time></trkpt><trkpt lat="43.14950158481322" lon="11.2782400670087"><ele>182.0</ele><time>2026-04-26T09:30:59Z</time></trkpt><trkpt lat="43.14951242149231" lon="11.278551012789759"><ele>181.0</ele><time>2026-04-26T09:31:00Z</time></trkpt><trkpt lat="43.14953449140963" lon="11.278861674831896"><ele>180.0</ele><time>2026-04-26T09:31:01Z</time></trkpt><trkpt lat="43.1495530756393" lon="11.279198733600005"><ele>179.0</ele><time>2026-04-26T09:31:02Z</time></trkpt><trkpt lat="43.14957228716911" lon="11.279527877508366"><ele>178.0</ele><time>2026-04-26T09:31:03Z</time></trkpt><trkpt lat="43.149591711824435" lon="11.279854658165565"><ele>177.0</ele><time>2026-04-26T09:31:04Z</time></trkpt><trkpt lat="43.14961223942654" lon="11.280177054564026"><ele>177.0</ele><time>2026-04-26T09:31:05Z</time></trkpt><trkpt lat="43.149634390810746" lon="11.280496629943018"><ele>177.0</ele><time>2026-04-26T09:31:06Z</time></trkpt><trkpt lat="43.14965629048908" lon="11.280823984782803"><ele>176.5</ele><time>2026-04-26T09:31:07Z</time></trkpt><trkpt lat="43.14968001628742" lon="11.281148794253985"><ele>176.0</ele><time>2026-04-26T09:31:08Z</time></trkpt><trkpt lat="43.149711305773586" lon="11.281483502297583"><ele>175.0</ele><time>2026-04-26T09:31:09Z</time></trkpt><trkpt lat="43.14973463182169" lon="11.281815702780127"><ele>174.0</ele><time>2026-04-26T09:31:10Z</time></trkpt><trkpt lat="43.149764352470164" lon="11.282151772172435"><ele>173.5</ele><time>2026-04-26T09:31:11Z</time></trkpt><trkpt lat="43.149790675344846" lon="11.28248694053979"><ele>173.0</ele><time>2026-04-26T09:31:12Z</time></trkpt><trkpt lat="43.149814984368305" lon="11.28281926481779"><ele>172.0</ele><time>2026-04-26T09:31:13Z</time></trkpt><trkpt lat="43.149838286994154" lon="11.28314427574825"><ele>171.0</ele><time>2026-04-26T09:31:14Z</time></trkpt><trkpt lat="43.14986448546019" lon="11.283460724554018"><ele>171.33333333333334</ele><time>2026-04-26T09:31:15Z</time></trkpt><trkpt lat="43.14989036900945" lon="11.283769925027535"><ele>171.66666666666669</ele><time>2026-04-26T09:31:16Z</time></trkpt><trkpt lat="43.14991567449617" lon="11.28407109860319"><ele>172.0</ele><time>2026-04-26T09:31:17Z</time></trkpt><trkpt lat="43.14994547405353" lon="11.284369610680299"><ele>172.0</ele><time>2026-04-26T09:31:18Z</time></trkpt><trkpt lat="43.14997227202701" lon="11.284658096339454"><ele>172.0</ele><time>2026-04-26T09:31:19Z</time></trkpt><trkpt lat="43.14999445499235" lon="11.284931154033712"><ele>172.0</ele><time>2026-04-26T09:31:20Z</time></trkpt><trkpt lat="43.15000290616226" lon="11.285185133015961"><ele>171.25</ele><time>2026-04-26T09:31:21Z</time></trkpt><trkpt lat="43.149993029672736" lon="11.285411607394028"><ele>170.5</ele><time>2026-04-26T09:31:22Z</time></trkpt><trkpt lat="43.14996965108607" lon="11.285616170684845"><ele>169.75</ele><time>2026-04-26T09:31:23Z</time></trkpt><trkpt lat="43.14993891949608" lon="11.285793032646417"><ele>169.0</ele><time>2026-04-26T09:31:24Z</time></trkpt><trkpt lat="43.149913020510915" lon="11.285936504404889"><ele>168.5</ele><time>2026-04-26T09:31:25Z</time></trkpt><trkpt lat="43.149892820468054" lon="11.286059593067492"><ele>168.0</ele><time>2026-04-26T09:31:26Z</time></trkpt><trkpt lat="43.149867990859846" lon="11.286175416254755"><ele>167.5</ele><time>2026-04-26T09:31:27Z</time></trkpt><trkpt lat="43.1498346325731" lon="11.286263560164036"><ele>167.0</ele><time>2026-04-26T09:31:28Z</time></trkpt><trkpt lat="43.14972726013486" lon="11.286357014223208"><ele>166.5</ele><time>2026-04-26T09:31:30Z</time></trkpt><trkpt lat="43.14965860037215" lon="11.286365263733058"><ele>166.0</ele><time>2026-04-26T09:31:31Z</time></trkpt><trkpt lat="43.14954243290507" lon="11.286405963537444"><ele>165.83333333333334</ele><time>2026-04-26T09:31:33Z</time></trkpt><trkpt lat="43.149473876936305" lon="11.286460690813863"><ele>165.66666666666669</ele><time>2026-04-26T09:31:35Z</time></trkpt><trkpt lat="43.149430505744505" lon="11.286530174553292"><ele>165.5</ele><time>2026-04-26T09:31:38Z</time></trkpt><trkpt lat="43.14936826842411" lon="11.28659155957412"><ele>165.33333333333334</ele><time>2026-04-26T09:31:46.999Z</time></trkpt><trkpt lat="43.14936990518916" lon="11.286704066915638"><ele>165.16666666666666</ele><time>2026-04-26T09:32:25.999Z</time></trkpt><trkpt lat="43.14943099564997" lon="11.286774743704719"><ele>165.0</ele><time>2026-04-26T09:32:26.999Z</time></trkpt><trkpt lat="43.14951632127606" lon="11.286825703038534"><ele>165.0</ele><time>2026-04-26T09:32:27.999Z</time></trkpt><trkpt lat="43.14961612850308" lon="11.28689421600212"><ele>165.0</ele><time>2026-04-26T09:32:28.999Z</time></trkpt><trkpt lat="43.149729007303144" lon="11.286961184908176"><ele>165.0</ele><time>2026-04-26T09:32:29.999Z</time></trkpt><trkpt lat="43.14983933258249" lon="11.287022137940246"><ele>165.0</ele><time>2026-04-26T09:32:30.999Z</time></trkpt><trkpt lat="43.14996078730885" lon="11.287099394909179"><ele>163.66666666666666</ele><time>2026-04-26T09:32:31.999Z</time></trkpt><trkpt lat="43.15008941911527" lon="11.287180445286626"><ele>162.33333333333331</ele><time>2026-04-26T09:32:32.999Z</time></trkpt><trkpt lat="43.15023249027121" lon="11.287262410491595"><ele>161.0</ele><time>2026-04-26T09:32:33.999Z</time></trkpt><trkpt lat="43.15037860454429" lon="11.287345450866471"><ele>160.66666666666666</ele><time>2026-04-26T09:32:34.999Z</time></trkpt><trkpt lat="43.15051831531794" lon="11.28743889191602"><ele>160.33333333333334</ele><time>2026-04-26T09:32:35.999Z</time></trkpt><trkpt lat="43.150662056260586" lon="11.287525248468315"><ele>160.0</ele><time>2026-04-26T09:32:36.999Z</time></trkpt><trkpt lat="43.1508090304387" lon="11.287608135516345"><ele>160.0</ele><time>2026-04-26T09:32:37.999Z</time></trkpt><trkpt lat="43.150957023013646" lon="11.287698445150742"><ele>160.0</ele><time>2026-04-26T09:32:38.999Z</time></trkpt><trkpt lat="43.15110604772726" lon="11.287783963331373"><ele>160.0</ele><time>2026-04-26T09:32:39.999Z</time></trkpt><trkpt lat="43.15125520984727" lon="11.287876813073655"><ele>160.0</ele><time>2026-04-26T09:32:40.998Z</time></trkpt><trkpt lat="43.1514022637394" lon="11.287970918922884"><ele>160.0</ele><time>2026-04-26T09:32:42.001Z</time></trkpt><trkpt lat="43.15154973665047" lon="11.288061526477412"><ele>160.0</ele><time>2026-04-26T09:32:43.001Z</time></trkpt><trkpt lat="43.15168341380134" lon="11.288157294224474"><ele>161.66666666666669</ele><time>2026-04-26T09:32:44.001Z</time></trkpt><trkpt lat="43.15181398801897" lon="11.288260369536586"><ele>163.33333333333334</ele><time>2026-04-26T09:32:45.001Z</time></trkpt><trkpt lat="43.15194412756731" lon="11.288363549644414"><ele>165.0</ele><time>2026-04-26T09:32:46.001Z</time></trkpt><trkpt lat="43.15217133821802" lon="11.288426559565346"><ele>165.0</ele><time>2026-04-26T09:32:47.001Z</time></trkpt><trkpt lat="43.15232694876672" lon="11.28851817946386"><ele>165.0</ele><time>2026-04-26T09:32:48.001Z</time></trkpt><trkpt lat="43.152485772788246" lon="11.288611844602602"><ele>165.0</ele><time>2026-04-26T09:32:49.001Z</time></trkpt><trkpt lat="43.152644986108136" lon="11.288705924772804"><ele>164.33333333333334</ele><time>2026-04-26T09:32:50.001Z</time></trkpt><trkpt lat="43.15280613641571" lon="11.288808784791202"><ele>163.66666666666669</ele><time>2026-04-26T09:32:51.001Z</time></trkpt><trkpt lat="43.15296592854379" lon="11.288895274545911"><ele>163.0</ele><time>2026-04-26T09:32:52.001Z</time></trkpt><trkpt lat="43.15313602102461" lon="11.288994593939114"><ele>164.0</ele><time>2026-04-26T09:32:53.001Z</time></trkpt><trkpt lat="43.15330145589047" lon="11.289096596326727"><ele>165.0</ele><time>2026-04-26T09:32:54.001Z</time></trkpt><trkpt lat="43.153463261268485" lon="11.289197608856728"><ele>166.0</ele><time>2026-04-26T09:32:55.001Z</time></trkpt><trkpt lat="43.15362303416399" lon="11.289299777848614"><ele>166.0</ele><time>2026-04-26T09:32:56.001Z</time></trkpt><trkpt lat="43.15377721090204" lon="11.289399429726855"><ele>166.0</ele><time>2026-04-26T09:32:57Z</time></trkpt><trkpt lat="43.15392979239937" lon="11.289489956495492"><ele>166.0</ele><time>2026-04-26T09:32:58Z</time></trkpt><trkpt lat="43.15407681663731" lon="11.289577190278766"><ele>165.33333333333334</ele><time>2026-04-26T09:32:59Z</time></trkpt><trkpt lat="43.15422787967005" lon="11.289665985170936"><ele>164.66666666666666</ele><time>2026-04-26T09:33:00Z</time></trkpt><trkpt lat="43.15437971581937" lon="11.289751985854652"><ele>164.0</ele><time>2026-04-26T09:33:01Z</time></trkpt><trkpt lat="43.154534887676036" lon="11.289825974342666"><ele>165.66666666666666</ele><time>2026-04-26T09:33:02Z</time></trkpt><trkpt lat="43.154689836467924" lon="11.289894547322165"><ele>167.33333333333334</ele><time>2026-04-26T09:33:03Z</time></trkpt><trkpt lat="43.154847557021505" lon="11.289958963043357"><ele>169.0</ele><time>2026-04-26T09:33:04Z</time></trkpt><trkpt lat="43.15500299167593" lon="11.290025616605176"><ele>169.0</ele><time>2026-04-26T09:33:05Z</time></trkpt><trkpt lat="43.15515664738087" lon="11.290091608742296"><ele>169.0</ele><time>2026-04-26T09:33:06Z</time></trkpt><trkpt lat="43.15531248095542" lon="11.290152015921088"><ele>169.0</ele><time>2026-04-26T09:33:07Z</time></trkpt><trkpt lat="43.155462179498215" lon="11.290216774547934"><ele>169.0</ele><time>2026-04-26T09:33:08Z</time></trkpt><trkpt lat="43.155614063418035" lon="11.290281223991235"><ele>169.0</ele><time>2026-04-26T09:33:09Z</time></trkpt><trkpt lat="43.15576828852925" lon="11.290344900328448"><ele>169.0</ele><time>2026-04-26T09:33:10Z</time></trkpt><trkpt lat="43.15593205802035" lon="11.290404163898698"><ele>168.0</ele><time>2026-04-26T09:33:11Z</time></trkpt><trkpt lat="43.156097198660575" lon="11.290470722036662"><ele>167.0</ele><time>2026-04-26T09:33:12Z</time></trkpt><trkpt lat="43.15627344282841" lon="11.290539609231871"><ele>166.0</ele><time>2026-04-26T09:33:13Z</time></trkpt><trkpt lat="43.15644990319878" lon="11.29061892209157"><ele>167.0</ele><time>2026-04-26T09:33:14Z</time></trkpt><trkpt lat="43.1566301833711" lon="11.290694729843983"><ele>168.0</ele><time>2026-04-26T09:33:15Z</time></trkpt><trkpt lat="43.15680887197007" lon="11.29077106697713"><ele>169.0</ele><time>2026-04-26T09:33:16Z</time></trkpt><trkpt lat="43.15699007726405" lon="11.2908379172833"><ele>169.0</ele><time>2026-04-26T09:33:17Z</time></trkpt><trkpt lat="43.15716769257218" lon="11.290888109494082"><ele>169.0</ele><time>2026-04-26T09:33:18Z</time></trkpt><trkpt lat="43.157347828094665" lon="11.290923646311725"><ele>169.0</ele><time>2026-04-26T09:33:19Z</time></trkpt><trkpt lat="43.15753150970683" lon="11.290940413956422"><ele>168.66666666666669</ele><time>2026-04-26T09:33:20Z</time></trkpt><trkpt lat="43.157716223129974" lon="11.290942817257907"><ele>168.33333333333334</ele><time>2026-04-26T09:33:21Z</time></trkpt><trkpt lat="43.15789914902913" lon="11.290919547304442"><ele>168.0</ele><time>2026-04-26T09:33:22Z</time></trkpt><trkpt lat="43.15807908923367" lon="11.290884106886505"><ele>168.33333333333334</ele><time>2026-04-26T09:33:23Z</time></trkpt><trkpt lat="43.15826139726976" lon="11.290835863756156"><ele>168.66666666666669</ele><time>2026-04-26T09:33:24Z</time></trkpt><trkpt lat="43.158442051050265" lon="11.290775677712434"><ele>169.0</ele><time>2026-04-26T09:33:25Z</time></trkpt><trkpt lat="43.15861578786801" lon="11.290684497623392"><ele>168.66666666666669</ele><time>2026-04-26T09:33:26Z</time></trkpt><trkpt lat="43.15879069940559" lon="11.290584934424636"><ele>168.33333333333334</ele><time>2026-04-26T09:33:27Z</time></trkpt><trkpt lat="43.158963985999584" lon="11.290480724987763"><ele>168.0</ele><time>2026-04-26T09:33:28Z</time></trkpt><trkpt lat="43.15913645409064" lon="11.290368400518295"><ele>168.0</ele><time>2026-04-26T09:33:29Z</time></trkpt><trkpt lat="43.15930836146114" lon="11.290246949574174"><ele>168.0</ele><time>2026-04-26T09:33:30Z</time></trkpt><trkpt lat="43.15948005853845" lon="11.29013328003482"><ele>168.0</ele><time>2026-04-26T09:33:31Z</time></trkpt><trkpt lat="43.159646402853184" lon="11.290026949151788"><ele>168.0</ele><time>2026-04-26T09:33:32Z</time></trkpt><trkpt lat="43.15981446587818" lon="11.2899135120098"><ele>168.0</ele><time>2026-04-26T09:33:33Z</time></trkpt><trkpt lat="43.159983204569826" lon="11.289800054022805"><ele>168.0</ele><time>2026-04-26T09:33:34Z</time></trkpt><trkpt lat="43.16015059527341" lon="11.28968560862307"><ele>168.0</ele><time>2026-04-26T09:33:35Z</time></trkpt><trkpt lat="43.160317900332075" lon="11.289574720821797"><ele>168.0</ele><time>2026-04-26T09:33:36Z</time></trkpt><trkpt lat="43.160486477444465" lon="11.289464469253538"><ele>168.0</ele><time>2026-04-26T09:33:37Z</time></trkpt><trkpt lat="43.16065487760697" lon="11.289353139850128"><ele>168.33333333333334</ele><time>2026-04-26T09:33:38Z</time></trkpt><trkpt lat="43.160821797327486" lon="11.289242892719582"><ele>168.66666666666669</ele><time>2026-04-26T09:33:39Z</time></trkpt><trkpt lat="43.16098963160545" lon="11.289135516845738"><ele>169.0</ele><time>2026-04-26T09:33:40Z</time></trkpt><trkpt lat="43.161154827408154" lon="11.289027145184804"><ele>168.66666666666669</ele><time>2026-04-26T09:33:41Z</time></trkpt><trkpt lat="43.16131192109736" lon="11.288921443606643"><ele>168.33333333333334</ele><time>2026-04-26T09:33:42Z</time></trkpt><trkpt lat="43.16146472957177" lon="11.288820190555956"><ele>168.0</ele><time>2026-04-26T09:33:43Z</time></trkpt><trkpt lat="43.161613183825686" lon="11.288725204800006"><ele>169.0</ele><time>2026-04-26T09:33:44Z</time></trkpt><trkpt lat="43.16175792504543" lon="11.28863308795018"><ele>170.0</ele><time>2026-04-26T09:33:45Z</time></trkpt><trkpt lat="43.16190155206216" lon="11.288537411926374"><ele>171.0</ele><time>2026-04-26T09:33:46Z</time></trkpt><trkpt lat="43.16204698103686" lon="11.28843985231302"><ele>171.0</ele><time>2026-04-26T09:33:47Z</time></trkpt><trkpt lat="43.162193985538806" lon="11.288343989384707"><ele>171.0</ele><time>2026-04-26T09:33:48Z</time></trkpt><trkpt lat="43.162340063951056" lon="11.288252231873965"><ele>171.0</ele><time>2026-04-26T09:33:48.999Z</time></trkpt><trkpt lat="43.16248673568447" lon="11.2881667043329"><ele>171.0</ele><time>2026-04-26T09:33:49.999Z</time></trkpt><trkpt lat="43.1626401892155" lon="11.288089053314218"><ele>171.0</ele><time>2026-04-26T09:33:50.999Z</time></trkpt><trkpt lat="43.162796882883434" lon="11.288020973194921"><ele>171.0</ele><time>2026-04-26T09:33:51.999Z</time></trkpt><trkpt lat="43.162956541800575" lon="11.287962308525362"><ele>171.0</ele><time>2026-04-26T09:33:52.999Z</time></trkpt><trkpt lat="43.1631178066949" lon="11.287911615016656"><ele>171.0</ele><time>2026-04-26T09:33:53.999Z</time></trkpt><trkpt lat="43.16328140968277" lon="11.287865943565432"><ele>171.0</ele><time>2026-04-26T09:33:54.999Z</time></trkpt><trkpt lat="43.163449612219885" lon="11.287825095252913"><ele>172.0</ele><time>2026-04-26T09:33:55.999Z</time></trkpt><trkpt lat="43.1636158538277" lon="11.287782217411305"><ele>173.0</ele><time>2026-04-26T09:33:56.999Z</time></trkpt><trkpt lat="43.163783903598244" lon="11.287734271052486"><ele>174.0</ele><time>2026-04-26T09:33:57.999Z</time></trkpt><trkpt lat="43.163950431152585" lon="11.28768784424677"><ele>174.0</ele><time>2026-04-26T09:33:58.999Z</time></trkpt><trkpt lat="43.164117550124615" lon="11.287641908684472"><ele>174.0</ele><time>2026-04-26T09:33:59.999Z</time></trkpt><trkpt lat="43.164280854978934" lon="11.287597260428873"><ele>174.0</ele><time>2026-04-26T09:34:00.999Z</time></trkpt><trkpt lat="43.16444361660369" lon="11.287550993977879"><ele>174.0</ele><time>2026-04-26T09:34:01.999Z</time></trkpt><trkpt lat="43.1646070292197" lon="11.287504316248762"><ele>174.0</ele><time>2026-04-26T09:34:02.999Z</time></trkpt><trkpt lat="43.16477068993761" lon="11.287458659723736"><ele>174.0</ele><time>2026-04-26T09:34:03.999Z</time></trkpt><trkpt lat="43.16493396002345" lon="11.287414072191169"><ele>173.66666666666666</ele><time>2026-04-26T09:34:04.999Z</time></trkpt><trkpt lat="43.165094113835046" lon="11.287371467302158"><ele>173.33333333333331</ele><time>2026-04-26T09:34:05.999Z</time></trkpt><trkpt lat="43.165247296441834" lon="11.287328562688506"><ele>173.0</ele><time>2026-04-26T09:34:06.999Z</time></trkpt><trkpt lat="43.16539463909575" lon="11.287286088748415"><ele>172.66666666666666</ele><time>2026-04-26T09:34:07.999Z</time></trkpt><trkpt lat="43.1655479066221" lon="11.28724991251067"><ele>172.33333333333334</ele><time>2026-04-26T09:34:08.999Z</time></trkpt><trkpt lat="43.165696007927146" lon="11.28720930970554"><ele>172.0</ele><time>2026-04-26T09:34:09.999Z</time></trkpt><trkpt lat="43.16583550011978" lon="11.287165499981512"><ele>172.0</ele><time>2026-04-26T09:34:10.999Z</time></trkpt><trkpt lat="43.16597245898093" lon="11.287137065243684"><ele>172.0</ele><time>2026-04-26T09:34:11.999Z</time></trkpt><trkpt lat="43.16609935505242" lon="11.287133039052005"><ele>172.0</ele><time>2026-04-26T09:34:12.999Z</time></trkpt><trkpt lat="43.16620673571213" lon="11.28717377652948"><ele>172.0</ele><time>2026-04-26T09:34:13.999Z</time></trkpt><trkpt lat="43.166303710198" lon="11.287257091063076"><ele>172.5</ele><time>2026-04-26T09:34:14.999Z</time></trkpt><trkpt lat="43.166386593598574" lon="11.287370450626812"><ele>173.0</ele><time>2026-04-26T09:34:15.999Z</time></trkpt><trkpt lat="43.16644766519679" lon="11.287524227611573"><ele>173.5</ele><time>2026-04-26T09:34:16.999Z</time></trkpt><trkpt lat="43.16647440497855" lon="11.287703252150187"><ele>174.0</ele><time>2026-04-26T09:34:17.999Z</time></trkpt><trkpt lat="43.166529261479" lon="11.287878771402609"><ele>175.0</ele><time>2026-04-26T09:34:18.999Z</time></trkpt><trkpt lat="43.166588921230066" lon="11.288061705763633"><ele>176.0</ele><time>2026-04-26T09:34:19.999Z</time></trkpt><trkpt lat="43.16665676777872" lon="11.288252098851716"><ele>177.0</ele><time>2026-04-26T09:34:20.999Z</time></trkpt><trkpt lat="43.16672205969099" lon="11.288447035497128"><ele>177.33333333333334</ele><time>2026-04-26T09:34:21.999Z</time></trkpt><trkpt lat="43.166789778061066" lon="11.288646953305486"><ele>177.66666666666669</ele><time>2026-04-26T09:34:22.999Z</time></trkpt><trkpt lat="43.166855794763954" lon="11.288850538392307"><ele>178.0</ele><time>2026-04-26T09:34:23.999Z</time></trkpt><trkpt lat="43.16691450907626" lon="11.289067514987051"><ele>178.66666666666669</ele><time>2026-04-26T09:34:24.999Z</time></trkpt><trkpt lat="43.16693434446582" lon="11.289297753668624"><ele>179.33333333333334</ele><time>2026-04-26T09:34:25.999Z</time></trkpt><trkpt lat="43.16693320061434" lon="11.289543117250389"><ele>180.0</ele><time>2026-04-26T09:34:26.999Z</time></trkpt><trkpt lat="43.16691414975508" lon="11.289797837307646"><ele>181.0</ele><time>2026-04-26T09:34:27.999Z</time></trkpt><trkpt lat="43.16689684682259" lon="11.290066810388499"><ele>182.0</ele><time>2026-04-26T09:34:28.999Z</time></trkpt><trkpt lat="43.166870405753755" lon="11.29030904183683"><ele>183.0</ele><time>2026-04-26T09:34:29.999Z</time></trkpt><trkpt lat="43.16685010076744" lon="11.290571166706489"><ele>183.66666666666666</ele><time>2026-04-26T09:34:30.999Z</time></trkpt><trkpt lat="43.1668341889904" lon="11.290841407275858"><ele>184.33333333333331</ele><time>2026-04-26T09:34:31.999Z</time></trkpt><trkpt lat="43.16681716834698" lon="11.291117039115075"><ele>185.0</ele><time>2026-04-26T09:34:32.999Z</time></trkpt><trkpt lat="43.16679673726124" lon="11.291391423157519"><ele>185.0</ele><time>2026-04-26T09:34:33.999Z</time></trkpt><trkpt lat="43.16677769462134" lon="11.291669756528858"><ele>185.0</ele><time>2026-04-26T09:34:34.999Z</time></trkpt><trkpt lat="43.166748796051245" lon="11.291949187220345"><ele>185.0</ele><time>2026-04-26T09:34:35.999Z</time></trkpt><trkpt lat="43.16672462736201" lon="11.292231221101364"><ele>186.33333333333331</ele><time>2026-04-26T09:34:36.999Z</time></trkpt><trkpt lat="43.16670335877192" lon="11.292514520713276"><ele>187.66666666666666</ele><time>2026-04-26T09:34:37.999Z</time></trkpt><trkpt lat="43.16668740036873" lon="11.292794782292262"><ele>189.0</ele><time>2026-04-26T09:34:38.999Z</time></trkpt><trkpt lat="43.16666622543383" lon="11.293078903514111"><ele>189.33333333333334</ele><time>2026-04-26T09:34:39.999Z</time></trkpt><trkpt lat="43.16664716100668" lon="11.29335723203145"><ele>189.66666666666669</ele><time>2026-04-26T09:34:40.999Z</time></trkpt><trkpt lat="43.166641419268274" lon="11.293624270022653"><ele>190.0</ele><time>2026-04-26T09:34:41.999Z</time></trkpt><trkpt lat="43.166664105890874" lon="11.293887457588307"><ele>191.0</ele><time>2026-04-26T09:34:42.999Z</time></trkpt><trkpt lat="43.16672704447253" lon="11.294133454069819"><ele>192.0</ele><time>2026-04-26T09:34:43.998Z</time></trkpt><trkpt lat="43.16681855194328" lon="11.294382505777353"><ele>193.0</ele><time>2026-04-26T09:34:44.998Z</time></trkpt><trkpt lat="43.166930567473834" lon="11.294608404354227"><ele>193.66666666666666</ele><time>2026-04-26T09:34:45.998Z</time></trkpt><trkpt lat="43.16705636153518" lon="11.294806214976244"><ele>194.33333333333331</ele><time>2026-04-26T09:34:46.998Z</time></trkpt><trkpt lat="43.16721354236946" lon="11.294984905117069"><ele>195.0</ele><time>2026-04-26T09:34:48Z</time></trkpt><trkpt lat="43.16736678434631" lon="11.295167203355318"><ele>195.0</ele><time>2026-04-26T09:34:49.001Z</time></trkpt><trkpt lat="43.16749463003615" lon="11.295335187203532"><ele>195.0</ele><time>2026-04-26T09:34:50Z</time></trkpt><trkpt lat="43.167625118565354" lon="11.295464421986482"><ele>195.0</ele><time>2026-04-26T09:34:51Z</time></trkpt><trkpt lat="43.16778205077756" lon="11.2955960155338"><ele>195.33333333333331</ele><time>2026-04-26T09:34:52.001Z</time></trkpt><trkpt lat="43.167959930790325" lon="11.29574693518933"><ele>195.66666666666666</ele><time>2026-04-26T09:34:53Z</time></trkpt><trkpt lat="43.16813149072268" lon="11.295914031704163"><ele>196.0</ele><time>2026-04-26T09:34:54.001Z</time></trkpt><trkpt lat="43.16827272953388" lon="11.29603838724074"><ele>197.25</ele><time>2026-04-26T09:34:55.001Z</time></trkpt><trkpt lat="43.1683524192752" lon="11.296212433680072"><ele>198.5</ele><time>2026-04-26T09:34:56.001Z</time></trkpt><trkpt lat="43.16837726301711" lon="11.296398091366271"><ele>199.75</ele><time>2026-04-26T09:34:57.001Z</time></trkpt><trkpt lat="43.16835935316575" lon="11.296581176863723"><ele>201.0</ele><time>2026-04-26T09:34:58.001Z</time></trkpt><trkpt lat="43.16829592036084" lon="11.296715958122242"><ele>200.75</ele><time>2026-04-26T09:34:59.001Z</time></trkpt><trkpt lat="43.16820185695101" lon="11.296849475295502"><ele>200.5</ele><time>2026-04-26T09:35:00.001Z</time></trkpt><trkpt lat="43.16809569157055" lon="11.296979442410683"><ele>200.25</ele><time>2026-04-26T09:35:01.001Z</time></trkpt><trkpt lat="43.16798068168847" lon="11.29710514449378"><ele>200.0</ele><time>2026-04-26T09:35:02Z</time></trkpt><trkpt lat="43.167881927582656" lon="11.297237374234578"><ele>201.0</ele><time>2026-04-26T09:35:03Z</time></trkpt><trkpt lat="43.167789859357356" lon="11.29744569360303"><ele>202.0</ele><time>2026-04-26T09:35:04Z</time></trkpt><trkpt lat="43.16776951837669" lon="11.297662482948796"><ele>203.0</ele><time>2026-04-26T09:35:05Z</time></trkpt><trkpt lat="43.16780738525153" lon="11.297850584161957"><ele>203.0</ele><time>2026-04-26T09:35:06Z</time></trkpt><trkpt lat="43.16789820458448" lon="11.29802504066613"><ele>203.0</ele><time>2026-04-26T09:35:07Z</time></trkpt><trkpt lat="43.16802463553203" lon="11.29810650760449"><ele>203.0</ele><time>2026-04-26T09:35:08Z</time></trkpt><trkpt lat="43.16814080803413" lon="11.29819394243136"><ele>203.0</ele><time>2026-04-26T09:35:09Z</time></trkpt><trkpt lat="43.16822146127453" lon="11.298286593753492"><ele>207.66666666666669</ele><time>2026-04-26T09:35:10Z</time></trkpt><trkpt lat="43.16833179525661" lon="11.298353336697645"><ele>212.33333333333331</ele><time>2026-04-26T09:35:11Z</time></trkpt><trkpt lat="43.168511777595754" lon="11.298442922693443"><ele>217.0</ele><time>2026-04-26T09:35:12Z</time></trkpt><trkpt lat="43.168683867931655" lon="11.298484445970363"><ele>217.0</ele><time>2026-04-26T09:35:13Z</time></trkpt><trkpt lat="43.16882237597748" lon="11.29859570061673"><ele>217.0</ele><time>2026-04-26T09:35:14Z</time></trkpt><trkpt lat="43.16890803986161" lon="11.298722192480898"><ele>217.0</ele><time>2026-04-26T09:35:15Z</time></trkpt><trkpt lat="43.16893921650742" lon="11.298874390684208"><ele>217.0</ele><time>2026-04-26T09:35:16Z</time></trkpt><trkpt lat="43.16894882642205" lon="11.299043254666412"><ele>216.66666666666666</ele><time>2026-04-26T09:35:18Z</time></trkpt><trkpt lat="43.16886767072776" lon="11.29936308952611"><ele>216.33333333333331</ele><time>2026-04-26T09:35:20Z</time></trkpt><trkpt lat="43.1688014854553" lon="11.299586641779614"><ele>216.0</ele><time>2026-04-26T09:35:21Z</time></trkpt><trkpt lat="43.16870558119937" lon="11.299914463886296"><ele>217.66666666666669</ele><time>2026-04-26T09:35:22Z</time></trkpt><trkpt lat="43.16862939465762" lon="11.300195398501872"><ele>219.33333333333334</ele><time>2026-04-26T09:35:23Z</time></trkpt><trkpt lat="43.16857042448419" lon="11.30046967041999"><ele>221.0</ele><time>2026-04-26T09:35:24Z</time></trkpt><trkpt lat="43.1685919579627" lon="11.300642300386647"><ele>221.0</ele><time>2026-04-26T09:35:25Z</time></trkpt><trkpt lat="43.168682313376415" lon="11.300795923388069"><ele>221.0</ele><time>2026-04-26T09:35:26Z</time></trkpt><trkpt lat="43.16880863917625" lon="11.3008907906681"><ele>221.0</ele><time>2026-04-26T09:35:27Z</time></trkpt><trkpt lat="43.16897616006587" lon="11.30098276797184"><ele>226.0</ele><time>2026-04-26T09:35:28Z</time></trkpt><trkpt lat="43.169154849404016" lon="11.300967220816576"><ele>231.0</ele><time>2026-04-26T09:35:29Z</time></trkpt><trkpt lat="43.16931075722354" lon="11.30098195585206"><ele>236.0</ele><time>2026-04-26T09:35:30Z</time></trkpt><trkpt lat="43.169462407074576" lon="11.301043969340713"><ele>236.0</ele><time>2026-04-26T09:35:31Z</time></trkpt><trkpt lat="43.16957953685523" lon="11.301161952506837"><ele>236.0</ele><time>2026-04-26T09:35:32Z</time></trkpt><trkpt lat="43.16972159139986" lon="11.301282248370901"><ele>236.0</ele><time>2026-04-26T09:35:33Z</time></trkpt><trkpt lat="43.16986734301884" lon="11.301399788338545"><ele>239.0</ele><time>2026-04-26T09:35:34Z</time></trkpt><trkpt lat="43.17001575761242" lon="11.301476599151098"><ele>242.0</ele><time>2026-04-26T09:35:35Z</time></trkpt><trkpt lat="43.17017266893982" lon="11.301512325502182"><ele>245.0</ele><time>2026-04-26T09:35:36Z</time></trkpt><trkpt lat="43.170333371140984" lon="11.30153012954563"><ele>245.0</ele><time>2026-04-26T09:35:37Z</time></trkpt><trkpt lat="43.1704865633696" lon="11.301536212313781"><ele>245.0</ele><time>2026-04-26T09:35:38Z</time></trkpt><trkpt lat="43.17063095598986" lon="11.301520883070468"><ele>245.0</ele><time>2026-04-26T09:35:39Z</time></trkpt><trkpt lat="43.17080306225361" lon="11.30159788151959"><ele>249.66666666666669</ele><time>2026-04-26T09:35:40Z</time></trkpt><trkpt lat="43.17091523668359" lon="11.301752022883917"><ele>254.33333333333331</ele><time>2026-04-26T09:35:41Z</time></trkpt><trkpt lat="43.17101707300583" lon="11.301918866469888"><ele>259.0</ele><time>2026-04-26T09:35:42Z</time></trkpt><trkpt lat="43.17107906111311" lon="11.30214017386916"><ele>257.66666666666663</ele><time>2026-04-26T09:35:43Z</time></trkpt><trkpt lat="43.17111166328176" lon="11.302364848294076"><ele>256.3333333333333</ele><time>2026-04-26T09:35:44Z</time></trkpt><trkpt lat="43.17113055188874" lon="11.30258200433851"><ele>255.0</ele><time>2026-04-26T09:35:45Z</time></trkpt><trkpt lat="43.17113570202177" lon="11.302751492375398"><ele>255.0</ele><time>2026-04-26T09:35:46Z</time></trkpt><trkpt lat="43.171158884478366" lon="11.302931062587533"><ele>255.0</ele><time>2026-04-26T09:35:47Z</time></trkpt><trkpt lat="43.17122084421427" lon="11.30317108532609"><ele>255.0</ele><time>2026-04-26T09:35:48Z</time></trkpt><trkpt lat="43.17130335113519" lon="11.303372567328594"><ele>253.66666666666669</ele><time>2026-04-26T09:35:49Z</time></trkpt><trkpt lat="43.171429701748664" lon="11.303538865514572"><ele>252.33333333333334</ele><time>2026-04-26T09:35:50Z</time></trkpt><trkpt lat="43.171584146901765" lon="11.303670873087437"><ele>251.0</ele><time>2026-04-26T09:35:51Z</time></trkpt><trkpt lat="43.17173662522534" lon="11.303728227631801"><ele>255.33333333333334</ele><time>2026-04-26T09:35:52Z</time></trkpt><trkpt lat="43.171910009476896" lon="11.303770880905114"><ele>259.6666666666667</ele><time>2026-04-26T09:35:53Z</time></trkpt><trkpt lat="43.17206640842759" lon="11.303848664463773"><ele>264.0</ele><time>2026-04-26T09:35:54Z</time></trkpt><trkpt lat="43.17217562660838" lon="11.303970671918275"><ele>264.0</ele><time>2026-04-26T09:35:55Z</time></trkpt><trkpt lat="43.17224717488755" lon="11.304138930986099"><ele>264.0</ele><time>2026-04-26T09:35:56Z</time></trkpt><trkpt lat="43.17227885211492" lon="11.304320024522184"><ele>264.0</ele><time>2026-04-26T09:35:56.999Z</time></trkpt><trkpt lat="43.172265108416404" lon="11.304518640787434"><ele>264.0</ele><time>2026-04-26T09:35:57.999Z</time></trkpt><trkpt lat="43.17224789295525" lon="11.30473531659269"><ele>264.6666666666667</ele><time>2026-04-26T09:35:58.998Z</time></trkpt><trkpt lat="43.172203093498275" lon="11.304949198343637"><ele>265.33333333333337</ele><time>2026-04-26T09:35:59.998Z</time></trkpt><trkpt lat="43.17218112924222" lon="11.305153231776595"><ele>266.0</ele><time>2026-04-26T09:36:00.998Z</time></trkpt><trkpt lat="43.17216663123814" lon="11.305384970814016"><ele>267.6666666666667</ele><time>2026-04-26T09:36:01.998Z</time></trkpt><trkpt lat="43.172194168674565" lon="11.305604694434923"><ele>269.3333333333333</ele><time>2026-04-26T09:36:02.998Z</time></trkpt><trkpt lat="43.172258836899594" lon="11.305823505043707"><ele>271.0</ele><time>2026-04-26T09:36:03.998Z</time></trkpt><trkpt lat="43.172384648462625" lon="11.306023329719839"><ele>278.0</ele><time>2026-04-26T09:36:04.998Z</time></trkpt><trkpt lat="43.17247374891775" lon="11.306215881576339"><ele>285.0</ele><time>2026-04-26T09:36:05.998Z</time></trkpt><trkpt lat="43.172522286832205" lon="11.306424586484455"><ele>292.0</ele><time>2026-04-26T09:36:06.998Z</time></trkpt><trkpt lat="43.17255629227101" lon="11.306652179618913"><ele>291.75</ele><time>2026-04-26T09:36:07.998Z</time></trkpt><trkpt lat="43.17255269748264" lon="11.306876363772272"><ele>291.5</ele><time>2026-04-26T09:36:08.998Z</time></trkpt><trkpt lat="43.17253204939572" lon="11.30706730172026"><ele>291.25</ele><time>2026-04-26T09:36:09.998Z</time></trkpt><trkpt lat="43.17253749157798" lon="11.30723112095951"><ele>291.0</ele><time>2026-04-26T09:36:10.998Z</time></trkpt><trkpt lat="43.17259760397683" lon="11.307390545934826"><ele>291.0</ele><time>2026-04-26T09:36:11.998Z</time></trkpt><trkpt lat="43.172723900282385" lon="11.307542849662948"><ele>291.0</ele><time>2026-04-26T09:36:12.998Z</time></trkpt><trkpt lat="43.17288625088423" lon="11.307637137384566"><ele>291.0</ele><time>2026-04-26T09:36:13.998Z</time></trkpt><trkpt lat="43.173045003403665" lon="11.307686116307876"><ele>291.0</ele><time>2026-04-26T09:36:14.998Z</time></trkpt><trkpt lat="43.17318369159864" lon="11.307773344043373"><ele>291.0</ele><time>2026-04-26T09:36:15.998Z</time></trkpt><trkpt lat="43.17327347226617" lon="11.307914998026817"><ele>291.0</ele><time>2026-04-26T09:36:16.998Z</time></trkpt><trkpt lat="43.17335093868129" lon="11.308023585415683"><ele>291.0</ele><time>2026-04-26T09:36:17.998Z</time></trkpt><trkpt lat="43.173324438046464" lon="11.30818841723889"><ele>297.6666666666667</ele><time>2026-04-26T09:36:18.998Z</time></trkpt><trkpt lat="43.17329506618831" lon="11.308347169404724"><ele>304.33333333333337</ele><time>2026-04-26T09:36:19.998Z</time></trkpt><trkpt lat="43.173262217850834" lon="11.308546968887027"><ele>311.0</ele><time>2026-04-26T09:36:20.998Z</time></trkpt><trkpt lat="43.173215407778684" lon="11.308787035259163"><ele>311.75</ele><time>2026-04-26T09:36:21.998Z</time></trkpt><trkpt lat="43.17320353677127" lon="11.308963103518293"><ele>312.5</ele><time>2026-04-26T09:36:22.998Z</time></trkpt><trkpt lat="43.17321463959076" lon="11.309122265971972"><ele>313.25</ele><time>2026-04-26T09:36:23.998Z</time></trkpt><trkpt lat="43.17329141999638" lon="11.309332656315505"><ele>314.0</ele><time>2026-04-26T09:36:24.998Z</time></trkpt><trkpt lat="43.17338436617932" lon="11.309482420235062"><ele>314.0</ele><time>2026-04-26T09:36:25.998Z</time></trkpt><trkpt lat="43.17345144607329" lon="11.309638459398245"><ele>314.0</ele><time>2026-04-26T09:36:26.998Z</time></trkpt><trkpt lat="43.17348343492648" lon="11.309808627865534"><ele>314.0</ele><time>2026-04-26T09:36:27.998Z</time></trkpt><trkpt lat="43.173469868335076" lon="11.309984961016351"><ele>314.0</ele><time>2026-04-26T09:36:28.998Z</time></trkpt><trkpt lat="43.17342479664338" lon="11.31017655944881"><ele>314.33333333333337</ele><time>2026-04-26T09:36:29.998Z</time></trkpt><trkpt lat="43.17337190526813" lon="11.310387930183865"><ele>314.6666666666667</ele><time>2026-04-26T09:36:30.998Z</time></trkpt><trkpt lat="43.17332135058994" lon="11.310592510626535"><ele>315.0</ele><time>2026-04-26T09:36:31.998Z</time></trkpt><trkpt lat="43.173268609561724" lon="11.310806584298001"><ele>313.3333333333333</ele><time>2026-04-26T09:36:32.998Z</time></trkpt><trkpt lat="43.17321819274647" lon="11.311014552631068"><ele>311.66666666666663</ele><time>2026-04-26T09:36:33.998Z</time></trkpt><trkpt lat="43.173162760260126" lon="11.311213727246061"><ele>310.0</ele><time>2026-04-26T09:36:34.998Z</time></trkpt><trkpt lat="43.173095066726454" lon="11.311439535350582"><ele>310.0</ele><time>2026-04-26T09:36:35.998Z</time></trkpt><trkpt lat="43.17303074546279" lon="11.31166735622058"><ele>310.0</ele><time>2026-04-26T09:36:36.998Z</time></trkpt><trkpt lat="43.172951523817" lon="11.311867235328629"><ele>310.0</ele><time>2026-04-26T09:36:37.998Z</time></trkpt><trkpt lat="43.17288000345668" lon="11.312074499544275"><ele>313.3333333333333</ele><time>2026-04-26T09:36:38.998Z</time></trkpt><trkpt lat="43.17282958554387" lon="11.312296851753079"><ele>316.6666666666667</ele><time>2026-04-26T09:36:39.998Z</time></trkpt><trkpt lat="43.17281667462855" lon="11.312536038405215"><ele>320.0</ele><time>2026-04-26T09:36:40.998Z</time></trkpt><trkpt lat="43.172845288979424" lon="11.312769419960105"><ele>320.0</ele><time>2026-04-26T09:36:41.998Z</time></trkpt><trkpt lat="43.17287180400029" lon="11.31301696367038"><ele>320.0</ele><time>2026-04-26T09:36:42.998Z</time></trkpt><trkpt lat="43.172851628564594" lon="11.313255586309634"><ele>320.0</ele><time>2026-04-26T09:36:43.998Z</time></trkpt><trkpt lat="43.172821887451136" lon="11.313467540837424"><ele>321.33333333333337</ele><time>2026-04-26T09:36:44.998Z</time></trkpt><trkpt lat="43.17275938002985" lon="11.313682064445562"><ele>322.6666666666667</ele><time>2026-04-26T09:36:45.998Z</time></trkpt><trkpt lat="43.17269223856449" lon="11.313886004922804"><ele>324.0</ele><time>2026-04-26T09:36:46.998Z</time></trkpt><trkpt lat="43.17265838566578" lon="11.314088095141715"><ele>326.6666666666667</ele><time>2026-04-26T09:36:47.998Z</time></trkpt><trkpt lat="43.17266251310188" lon="11.314301003303664"><ele>329.33333333333337</ele><time>2026-04-26T09:36:48.998Z</time></trkpt><trkpt lat="43.17271068225551" lon="11.314536283484976"><ele>332.0</ele><time>2026-04-26T09:36:49.998Z</time></trkpt><trkpt lat="43.17276547085044" lon="11.314762902572538"><ele>333.0</ele><time>2026-04-26T09:36:50.998Z</time></trkpt><trkpt lat="43.17278898089563" lon="11.314987946245788"><ele>334.0</ele><time>2026-04-26T09:36:51.998Z</time></trkpt><trkpt lat="43.17282530972444" lon="11.315206639561229"><ele>335.0</ele><time>2026-04-26T09:36:52.998Z</time></trkpt><trkpt lat="43.17287262983813" lon="11.315436792372903"><ele>337.0</ele><time>2026-04-26T09:36:54Z</time></trkpt><trkpt lat="43.17287791969419" lon="11.315661292254182"><ele>339.0</ele><time>2026-04-26T09:36:55Z</time></trkpt><trkpt lat="43.17284847933308" lon="11.31588679225444"><ele>341.0</ele><time>2026-04-26T09:36:56Z</time></trkpt><trkpt lat="43.172789831855745" lon="11.316105992415007"><ele>341.0</ele><time>2026-04-26T09:36:57Z</time></trkpt><trkpt lat="43.17267393032679" lon="11.31626307809364"><ele>341.0</ele><time>2026-04-26T09:36:58Z</time></trkpt><trkpt lat="43.172570097009036" lon="11.316442105591234"><ele>341.0</ele><time>2026-04-26T09:36:59Z</time></trkpt><trkpt lat="43.1724237716305" lon="11.316574225329845"><ele>343.0</ele><time>2026-04-26T09:37:00Z</time></trkpt><trkpt lat="43.17228583393385" lon="11.316712573502338"><ele>345.0</ele><time>2026-04-26T09:37:01Z</time></trkpt><trkpt lat="43.17216029363299" lon="11.316877664202172"><ele>347.0</ele><time>2026-04-26T09:37:02Z</time></trkpt><trkpt lat="43.172025915321186" lon="11.31701154018291"><ele>347.0</ele><time>2026-04-26T09:37:03Z</time></trkpt><trkpt lat="43.171894863768976" lon="11.317173478662829"><ele>347.0</ele><time>2026-04-26T09:37:04Z</time></trkpt><trkpt lat="43.17176101656886" lon="11.317339565882184"><ele>347.0</ele><time>2026-04-26T09:37:05Z</time></trkpt><trkpt lat="43.171657464869455" lon="11.317546867185362"><ele>346.6666666666667</ele><time>2026-04-26T09:37:06Z</time></trkpt><trkpt lat="43.171554804770295" lon="11.317752921676616"><ele>346.3333333333333</ele><time>2026-04-26T09:37:07Z</time></trkpt><trkpt lat="43.171470290118016" lon="11.317971303728351"><ele>346.0</ele><time>2026-04-26T09:37:08Z</time></trkpt><trkpt lat="43.17138249606819" lon="11.318190681351927"><ele>350.0</ele><time>2026-04-26T09:37:09Z</time></trkpt><trkpt lat="43.17129011937818" lon="11.318408169007506"><ele>354.0</ele><time>2026-04-26T09:37:10Z</time></trkpt><trkpt lat="43.17119480529461" lon="11.31862502048661"><ele>358.0</ele><time>2026-04-26T09:37:10.999Z</time></trkpt><trkpt lat="43.17110439552614" lon="11.318851048659551"><ele>361.0</ele><time>2026-04-26T09:37:11.999Z</time></trkpt><trkpt lat="43.17101748248388" lon="11.319076378531761"><ele>364.0</ele><time>2026-04-26T09:37:12.999Z</time></trkpt><trkpt lat="43.170927823366924" lon="11.319299063701152"><ele>367.0</ele><time>2026-04-26T09:37:13.999Z</time></trkpt><trkpt lat="43.17083599625757" lon="11.319530312515806"><ele>368.0</ele><time>2026-04-26T09:37:14.999Z</time></trkpt><trkpt lat="43.17074426426177" lon="11.319756477949044"><ele>369.0</ele><time>2026-04-26T09:37:15.999Z</time></trkpt><trkpt lat="43.17065102771336" lon="11.319986457069744"><ele>370.0</ele><time>2026-04-26T09:37:16.999Z</time></trkpt><trkpt lat="43.17055597256902" lon="11.320213624324264"><ele>370.0</ele><time>2026-04-26T09:37:17.999Z</time></trkpt><trkpt lat="43.17046208135576" lon="11.320444972115602"><ele>370.0</ele><time>2026-04-26T09:37:18.999Z</time></trkpt><trkpt lat="43.170367411141676" lon="11.320667756277734"><ele>370.0</ele><time>2026-04-26T09:37:19.999Z</time></trkpt><trkpt lat="43.170267043321346" lon="11.320889761704146"><ele>373.3333333333333</ele><time>2026-04-26T09:37:20.999Z</time></trkpt><trkpt lat="43.17013708407654" lon="11.321087506010516"><ele>376.6666666666667</ele><time>2026-04-26T09:37:21.999Z</time></trkpt><trkpt lat="43.16999032537611" lon="11.321260382527514"><ele>380.0</ele><time>2026-04-26T09:37:22.999Z</time></trkpt><trkpt lat="43.16983447080793" lon="11.321403694115183"><ele>383.0</ele><time>2026-04-26T09:37:23.999Z</time></trkpt><trkpt lat="43.169668978483756" lon="11.321505171806962"><ele>386.0</ele><time>2026-04-26T09:37:24.999Z</time></trkpt><trkpt lat="43.1695121529401" lon="11.321602350342225"><ele>389.0</ele><time>2026-04-26T09:37:25.999Z</time></trkpt><trkpt lat="43.16935944024586" lon="11.321696980308348"><ele>389.0</ele><time>2026-04-26T09:37:26.999Z</time></trkpt><trkpt lat="43.16918637034648" lon="11.321806178643534"><ele>389.0</ele><time>2026-04-26T09:37:27.999Z</time></trkpt><trkpt lat="43.16901010787034" lon="11.321916191574784"><ele>389.0</ele><time>2026-04-26T09:37:28.999Z</time></trkpt><trkpt lat="43.16883344739892" lon="11.322026442026027"><ele>388.66666666666663</ele><time>2026-04-26T09:37:29.999Z</time></trkpt><trkpt lat="43.16866227794401" lon="11.322135745431336"><ele>388.33333333333337</ele><time>2026-04-26T09:37:30.999Z</time></trkpt><trkpt lat="43.1684928983572" lon="11.322256274566051"><ele>388.0</ele><time>2026-04-26T09:37:31.999Z</time></trkpt><trkpt lat="43.168323112399754" lon="11.322365342938413"><ele>391.0</ele><time>2026-04-26T09:37:32.999Z</time></trkpt><trkpt lat="43.168151103847634" lon="11.322472785922184"><ele>394.0</ele><time>2026-04-26T09:37:33.999Z</time></trkpt><trkpt lat="43.16797888607159" lon="11.32256890935949"><ele>397.0</ele><time>2026-04-26T09:37:34.999Z</time></trkpt><trkpt lat="43.167814543612195" lon="11.322662027218941"><ele>397.0</ele><time>2026-04-26T09:37:35.999Z</time></trkpt><trkpt lat="43.16767156825807" lon="11.322781728230368"><ele>397.0</ele><time>2026-04-26T09:37:36.999Z</time></trkpt><trkpt lat="43.167546910138185" lon="11.322932924915792"><ele>397.0</ele><time>2026-04-26T09:37:37.999Z</time></trkpt><trkpt lat="43.16745961509575" lon="11.32312131010242"><ele>400.0</ele><time>2026-04-26T09:37:38.999Z</time></trkpt><trkpt lat="43.16741917817944" lon="11.32333496103788"><ele>403.0</ele><time>2026-04-26T09:37:39.999Z</time></trkpt><trkpt lat="43.16741563218332" lon="11.323549929912408"><ele>406.0</ele><time>2026-04-26T09:37:40.999Z</time></trkpt><trkpt lat="43.167464238882" lon="11.323744075596439"><ele>406.0</ele><time>2026-04-26T09:37:41.999Z</time></trkpt><trkpt lat="43.167502930172425" lon="11.323894103913785"><ele>406.0</ele><time>2026-04-26T09:37:42.999Z</time></trkpt><trkpt lat="43.167553670922274" lon="11.323975474319585"><ele>406.0</ele><time>2026-04-26T09:37:43.999Z</time></trkpt><trkpt lat="43.16761324687808" lon="11.324043931607559"><ele>406.0</ele><time>2026-04-26T09:37:44.999Z</time></trkpt><trkpt lat="43.16767796858134" lon="11.32409964033775"><ele>406.0</ele><time>2026-04-26T09:37:45.999Z</time></trkpt><trkpt lat="43.167773006294254" lon="11.324178810127263"><ele>407.20000000000005</ele><time>2026-04-26T09:37:47.999Z</time></trkpt><trkpt lat="43.1678506157916" lon="11.324223823593499"><ele>408.40000000000003</ele><time>2026-04-26T09:37:50.999Z</time></trkpt><trkpt lat="43.16791143945253" lon="11.324274066825879"><ele>409.6</ele><time>2026-04-26T09:37:52.999Z</time></trkpt><trkpt lat="43.16800911586435" lon="11.324283481338165"><ele>410.8</ele><time>2026-04-26T09:37:54.999Z</time></trkpt><trkpt lat="43.1681104565875" lon="11.3242538259205"><ele>412.0</ele><time>2026-04-26T09:37:56.999Z</time></trkpt><trkpt lat="43.168208008776126" lon="11.32422084387273"><ele>412.0</ele><time>2026-04-26T09:37:58.999Z</time></trkpt><trkpt lat="43.168296298330155" lon="11.32420626941548"><ele>412.0</ele><time>2026-04-26T09:38:00.999Z</time></trkpt><trkpt lat="43.16837970397166" lon="11.324187338166926"><ele>412.0</ele><time>2026-04-26T09:38:02.999Z</time></trkpt><trkpt lat="43.168462043779094" lon="11.324162708438923"><ele>412.0</ele><time>2026-04-26T09:38:04.999Z</time></trkpt><trkpt lat="43.1685469000846" lon="11.32414498965438"><ele>412.0</ele><time>2026-04-26T09:38:06.998Z</time></trkpt><trkpt lat="43.16865930379007" lon="11.324111141882595"><ele>412.00000000000006</ele><time>2026-04-26T09:38:08.998Z</time></trkpt><trkpt lat="43.168727088158406" lon="11.324099922577142"><ele>412.0</ele><time>2026-04-26T09:38:09.998Z</time></trkpt><trkpt lat="43.168790000931075" lon="11.32409128185426"><ele>412.0</ele><time>2026-04-26T09:38:10.998Z</time></trkpt><trkpt lat="43.16885919592562" lon="11.32407851944801"><ele>412.0</ele><time>2026-04-26T09:38:11.998Z</time></trkpt><trkpt lat="43.16893846643012" lon="11.324073166759938"><ele>412.00000000000006</ele><time>2026-04-26T09:38:12.998Z</time></trkpt><trkpt lat="43.169035597202644" lon="11.324062519996264"><ele>412.0</ele><time>2026-04-26T09:38:13.998Z</time></trkpt><trkpt lat="43.169139833087804" lon="11.324052310110954"><ele>413.0</ele><time>2026-04-26T09:38:14.998Z</time></trkpt><trkpt lat="43.169246223119025" lon="11.324035955521369"><ele>414.0</ele><time>2026-04-26T09:38:15.998Z</time></trkpt><trkpt lat="43.16936836315692" lon="11.324024751393456"><ele>415.0</ele><time>2026-04-26T09:38:16.998Z</time></trkpt><trkpt lat="43.169497189778745" lon="11.324036858004764"><ele>416.0</ele><time>2026-04-26T09:38:17.998Z</time></trkpt><trkpt lat="43.169626459959886" lon="11.32401109795078"><ele>416.0</ele><time>2026-04-26T09:38:18.998Z</time></trkpt><trkpt lat="43.16975405956929" lon="11.32400156273082"><ele>416.0</ele><time>2026-04-26T09:38:19.998Z</time></trkpt><trkpt lat="43.169875962745564" lon="11.323996179892065"><ele>416.0</ele><time>2026-04-26T09:38:20.998Z</time></trkpt><trkpt lat="43.16998807590377" lon="11.323992698275951"><ele>416.0</ele><time>2026-04-26T09:38:21.998Z</time></trkpt><trkpt lat="43.17008901209422" lon="11.323984458358613"><ele>415.75</ele><time>2026-04-26T09:38:22.998Z</time></trkpt><trkpt lat="43.17019239313735" lon="11.323980705343196"><ele>415.5</ele><time>2026-04-26T09:38:23.998Z</time></trkpt><trkpt lat="43.17030640940675" lon="11.32396700878017"><ele>415.25</ele><time>2026-04-26T09:38:24.998Z</time></trkpt><trkpt lat="43.170422858813055" lon="11.323952284356006"><ele>415.0</ele><time>2026-04-26T09:38:25.998Z</time></trkpt><trkpt lat="43.170548011131864" lon="11.323928065437126"><ele>415.0</ele><time>2026-04-26T09:38:26.998Z</time></trkpt><trkpt lat="43.170674788216274" lon="11.323906665100685"><ele>415.0</ele><time>2026-04-26T09:38:27.998Z</time></trkpt><trkpt lat="43.17080324885477" lon="11.323879009943603"><ele>415.0</ele><time>2026-04-26T09:38:28.998Z</time></trkpt><trkpt lat="43.17093838976659" lon="11.323848160372725"><ele>415.0</ele><time>2026-04-26T09:38:29.998Z</time></trkpt><trkpt lat="43.17108408009954" lon="11.323791978406414"><ele>414.0</ele><time>2026-04-26T09:38:30.998Z</time></trkpt><trkpt lat="43.17123368942332" lon="11.32373850299488"><ele>413.0</ele><time>2026-04-26T09:38:31.998Z</time></trkpt><trkpt lat="43.17138923333234" lon="11.323678548184011"><ele>412.0</ele><time>2026-04-26T09:38:32.998Z</time></trkpt><trkpt lat="43.17154697230562" lon="11.323617453476015"><ele>414.0</ele><time>2026-04-26T09:38:33.998Z</time></trkpt><trkpt lat="43.17170347783793" lon="11.323557650433802"><ele>416.0</ele><time>2026-04-26T09:38:34.998Z</time></trkpt><trkpt lat="43.171860453939" lon="11.323499733253474"><ele>418.0</ele><time>2026-04-26T09:38:35.998Z</time></trkpt><trkpt lat="43.17201581702497" lon="11.323433738124406"><ele>418.0</ele><time>2026-04-26T09:38:36.998Z</time></trkpt><trkpt lat="43.17217311492671" lon="11.323370833563464"><ele>418.0</ele><time>2026-04-26T09:38:37.998Z</time></trkpt><trkpt lat="43.172330093314635" lon="11.323310005237758"><ele>418.0</ele><time>2026-04-26T09:38:38.998Z</time></trkpt><trkpt lat="43.17248892826858" lon="11.323254297582622"><ele>421.33333333333337</ele><time>2026-04-26T09:38:39.998Z</time></trkpt><trkpt lat="43.172648281083866" lon="11.323226723360703"><ele>424.66666666666663</ele><time>2026-04-26T09:38:40.998Z</time></trkpt><trkpt lat="43.17280771862218" lon="11.323258981993613"><ele>428.0</ele><time>2026-04-26T09:38:41.998Z</time></trkpt><trkpt lat="43.17297560586784" lon="11.323310878013409"><ele>428.0</ele><time>2026-04-26T09:38:42.998Z</time></trkpt><trkpt lat="43.17313505858805" lon="11.32340436047353"><ele>428.0</ele><time>2026-04-26T09:38:43.998Z</time></trkpt><trkpt lat="43.1732846235842" lon="11.32350135715039"><ele>428.0</ele><time>2026-04-26T09:38:44.998Z</time></trkpt><trkpt lat="43.17343749963725" lon="11.32359101776895"><ele>429.0</ele><time>2026-04-26T09:38:45.998Z</time></trkpt><trkpt lat="43.173604313015375" lon="11.323650379308724"><ele>430.0</ele><time>2026-04-26T09:38:46.998Z</time></trkpt><trkpt lat="43.17377814718688" lon="11.323663151217396"><ele>431.0</ele><time>2026-04-26T09:38:47.998Z</time></trkpt><trkpt lat="43.17393938248062" lon="11.323681789809912"><ele>431.3333333333333</ele><time>2026-04-26T09:38:48.998Z</time></trkpt><trkpt lat="43.174094216501274" lon="11.323723004731256"><ele>431.66666666666663</ele><time>2026-04-26T09:38:49.998Z</time></trkpt><trkpt lat="43.17424932973255" lon="11.323782717512684"><ele>432.0</ele><time>2026-04-26T09:38:50.998Z</time></trkpt><trkpt lat="43.17438708539991" lon="11.323882402028055"><ele>435.33333333333337</ele><time>2026-04-26T09:38:51.998Z</time></trkpt><trkpt lat="43.174492214941736" lon="11.324039793177844"><ele>438.6666666666667</ele><time>2026-04-26T09:38:52.998Z</time></trkpt><trkpt lat="43.17456530644845" lon="11.324230294025824"><ele>442.0</ele><time>2026-04-26T09:38:53.998Z</time></trkpt><trkpt lat="43.17464480392738" lon="11.324430643239586"><ele>442.0</ele><time>2026-04-26T09:38:54.998Z</time></trkpt><trkpt lat="43.17472109715206" lon="11.324652712131572"><ele>442.0</ele><time>2026-04-26T09:38:55.998Z</time></trkpt><trkpt lat="43.17480718282305" lon="11.324872023418191"><ele>442.0</ele><time>2026-04-26T09:38:56.998Z</time></trkpt><trkpt lat="43.174887014581564" lon="11.325101600139208"><ele>441.33333333333337</ele><time>2026-04-26T09:38:57.998Z</time></trkpt><trkpt lat="43.17496117562197" lon="11.32532983266794"><ele>440.66666666666663</ele><time>2026-04-26T09:38:58.998Z</time></trkpt><trkpt lat="43.17503931944755" lon="11.32556460607194"><ele>440.0</ele><time>2026-04-26T09:39:00Z</time></trkpt><trkpt lat="43.17511915053478" lon="11.325794889350869"><ele>442.0</ele><time>2026-04-26T09:39:01Z</time></trkpt><trkpt lat="43.17521056786023" lon="11.326014100944073"><ele>444.0</ele><time>2026-04-26T09:39:02Z</time></trkpt><trkpt lat="43.1753217951728" lon="11.326186428995403"><ele>446.0</ele><time>2026-04-26T09:39:03Z</time></trkpt><trkpt lat="43.175467910160584" lon="11.326303289133058"><ele>446.0</ele><time>2026-04-26T09:39:04Z</time></trkpt><trkpt lat="43.17565201338568" lon="11.326352494971001"><ele>446.0</ele><time>2026-04-26T09:39:05Z</time></trkpt><trkpt lat="43.17583751364998" lon="11.32635433479054"><ele>446.0</ele><time>2026-04-26T09:39:06Z</time></trkpt><trkpt lat="43.176019325920485" lon="11.326290482880713"><ele>442.66666666666663</ele><time>2026-04-26T09:39:07Z</time></trkpt><trkpt lat="43.176129851787074" lon="11.326304367319498"><ele>439.33333333333337</ele><time>2026-04-26T09:39:08Z</time></trkpt><trkpt lat="43.176317271706104" lon="11.326213600631528"><ele>436.0</ele><time>2026-04-26T09:39:09Z</time></trkpt><trkpt lat="43.176508546628824" lon="11.326096258649601"><ele>437.33333333333337</ele><time>2026-04-26T09:39:10Z</time></trkpt><trkpt lat="43.17669747270775" lon="11.325987863850942"><ele>438.66666666666663</ele><time>2026-04-26T09:39:11Z</time></trkpt><trkpt lat="43.176898922819404" lon="11.32588223579575"><ele>440.0</ele><time>2026-04-26T09:39:12Z</time></trkpt><trkpt lat="43.1771044596116" lon="11.325766530409911"><ele>440.0</ele><time>2026-04-26T09:39:13Z</time></trkpt><trkpt lat="43.177299074054694" lon="11.325664712892113"><ele>440.0</ele><time>2026-04-26T09:39:14Z</time></trkpt><trkpt lat="43.17748776284274" lon="11.325578576237053"><ele>440.0</ele><time>2026-04-26T09:39:15Z</time></trkpt><trkpt lat="43.177667017207895" lon="11.325486609341235"><ele>440.0</ele><time>2026-04-26T09:39:16Z</time></trkpt><trkpt lat="43.17783047089718" lon="11.325407010862456"><ele>440.0</ele><time>2026-04-26T09:39:16.999Z</time></trkpt><trkpt lat="43.17797228437966" lon="11.325336131301155"><ele>440.0</ele><time>2026-04-26T09:39:17.999Z</time></trkpt><trkpt lat="43.178108764817004" lon="11.325295560827112"><ele>440.0</ele><time>2026-04-26T09:39:18.999Z</time></trkpt><trkpt lat="43.178228271066374" lon="11.3253022974811"><ele>440.0</ele><time>2026-04-26T09:39:19.999Z</time></trkpt><trkpt lat="43.178351639105465" lon="11.32523166112985"><ele>440.0</ele><time>2026-04-26T09:39:20.999Z</time></trkpt><trkpt lat="43.178482023515315" lon="11.325169610184886"><ele>440.0</ele><time>2026-04-26T09:39:21.999Z</time></trkpt><trkpt lat="43.17842132830037" lon="11.325673886757745"><ele>441.0</ele><time>2026-04-26T09:39:22.999Z</time></trkpt><trkpt lat="43.17841049763575" lon="11.325833066803797"><ele>442.0</ele><time>2026-04-26T09:39:23.999Z</time></trkpt><trkpt lat="43.17840544986536" lon="11.325965004932065"><ele>443.0</ele><time>2026-04-26T09:39:24.999Z</time></trkpt><trkpt lat="43.17835364310433" lon="11.3261583752952"><ele>444.0</ele><time>2026-04-26T09:39:25.999Z</time></trkpt><trkpt lat="43.17827085782231" lon="11.326280778546165"><ele>444.33333333333337</ele><time>2026-04-26T09:39:26.999Z</time></trkpt><trkpt lat="43.17818565691898" lon="11.326453413201392"><ele>444.6666666666667</ele><time>2026-04-26T09:39:27.999Z</time></trkpt><trkpt lat="43.178104027892104" lon="11.326656787923072"><ele>445.0</ele><time>2026-04-26T09:39:28.999Z</time></trkpt><trkpt lat="43.17803745291646" lon="11.326840016453852"><ele>447.6666666666667</ele><time>2026-04-26T09:39:29.999Z</time></trkpt><trkpt lat="43.17795785042444" lon="11.327068587170487"><ele>450.33333333333337</ele><time>2026-04-26T09:39:30.999Z</time></trkpt><trkpt lat="43.17790061020969" lon="11.32723911050693"><ele>453.0</ele><time>2026-04-26T09:39:31.999Z</time></trkpt><trkpt lat="43.1778412678059" lon="11.327421177492473"><ele>454.66666666666663</ele><time>2026-04-26T09:39:32.999Z</time></trkpt><trkpt lat="43.177787014765876" lon="11.327627874777898"><ele>456.3333333333333</ele><time>2026-04-26T09:39:33.999Z</time></trkpt><trkpt lat="43.17775249134039" lon="11.32785407031769"><ele>458.0</ele><time>2026-04-26T09:39:34.999Z</time></trkpt><trkpt lat="43.17772088813646" lon="11.328100080681006"><ele>459.3333333333333</ele><time>2026-04-26T09:39:35.999Z</time></trkpt><trkpt lat="43.17769671219527" lon="11.328364224042817"><ele>460.66666666666663</ele><time>2026-04-26T09:39:36.999Z</time></trkpt><trkpt lat="43.17768642173909" lon="11.328647654456326"><ele>462.0</ele><time>2026-04-26T09:39:37.999Z</time></trkpt><trkpt lat="43.17768113997917" lon="11.328924343937215"><ele>463.66666666666663</ele><time>2026-04-26T09:39:38.999Z</time></trkpt><trkpt lat="43.17767623606016" lon="11.329181240133973"><ele>465.3333333333333</ele><time>2026-04-26T09:39:39.999Z</time></trkpt><trkpt lat="43.17767002254637" lon="11.329446217607623"><ele>467.0</ele><time>2026-04-26T09:39:40.999Z</time></trkpt><trkpt lat="43.177659484919644" lon="11.3297143870415"><ele>469.0</ele><time>2026-04-26T09:39:41.999Z</time></trkpt><trkpt lat="43.17764718847005" lon="11.329976986507617"><ele>471.0</ele><time>2026-04-26T09:39:42.999Z</time></trkpt><trkpt lat="43.177634771342795" lon="11.330236122817782"><ele>473.0</ele><time>2026-04-26T09:39:43.999Z</time></trkpt><trkpt lat="43.177652369168584" lon="11.330477828418363"><ele>474.0</ele><time>2026-04-26T09:39:44.999Z</time></trkpt><trkpt lat="43.17767471368302" lon="11.330744824339984"><ele>475.0</ele><time>2026-04-26T09:39:45.999Z</time></trkpt><trkpt lat="43.177731725486424" lon="11.330989395723043"><ele>476.0</ele><time>2026-04-26T09:39:46.999Z</time></trkpt><trkpt lat="43.17779289788586" lon="11.331235732083668"><ele>476.0</ele><time>2026-04-26T09:39:47.999Z</time></trkpt><trkpt lat="43.177902104184184" lon="11.331437758261439"><ele>476.0</ele><time>2026-04-26T09:39:48.999Z</time></trkpt><trkpt lat="43.17801066534591" lon="11.331664501965664"><ele>476.0</ele><time>2026-04-26T09:39:49.999Z</time></trkpt><trkpt lat="43.17811420365706" lon="11.331886010780178"><ele>474.3333333333333</ele><time>2026-04-26T09:39:50.999Z</time></trkpt><trkpt lat="43.17823687654716" lon="11.332118118993177"><ele>472.66666666666663</ele><time>2026-04-26T09:39:51.999Z</time></trkpt><trkpt lat="43.178369878221105" lon="11.332332710950869"><ele>471.0</ele><time>2026-04-26T09:39:52.999Z</time></trkpt><trkpt lat="43.17847416255904" lon="11.33256062016632"><ele>471.0</ele><time>2026-04-26T09:39:53.999Z</time></trkpt><trkpt lat="43.178572778884096" lon="11.332771090165862"><ele>471.0</ele><time>2026-04-26T09:39:54.999Z</time></trkpt><trkpt lat="43.17868443650484" lon="11.332959980651783"><ele>471.0</ele><time>2026-04-26T09:39:55.999Z</time></trkpt><trkpt lat="43.1787981562788" lon="11.333150990330719"><ele>472.66666666666663</ele><time>2026-04-26T09:39:56.999Z</time></trkpt><trkpt lat="43.17892858812579" lon="11.33330125006999"><ele>474.3333333333333</ele><time>2026-04-26T09:39:57.999Z</time></trkpt><trkpt lat="43.179108009755" lon="11.333354697365534"><ele>476.0</ele><time>2026-04-26T09:39:58.999Z</time></trkpt><trkpt lat="43.17926584881362" lon="11.333333090890811"><ele>476.3333333333333</ele><time>2026-04-26T09:39:59.999Z</time></trkpt><trkpt lat="43.17943294962205" lon="11.333317306718943"><ele>476.66666666666663</ele><time>2026-04-26T09:40:00.999Z</time></trkpt><trkpt lat="43.179616379410234" lon="11.333312971846738"><ele>477.0</ele><time>2026-04-26T09:40:01.999Z</time></trkpt><trkpt lat="43.17977869655018" lon="11.333336714238241"><ele>473.66666666666663</ele><time>2026-04-26T09:40:02.998Z</time></trkpt><trkpt lat="43.17993969593968" lon="11.33342342038578"><ele>470.3333333333333</ele><time>2026-04-26T09:40:03.998Z</time></trkpt><trkpt lat="43.18004878583647" lon="11.333570110989122"><ele>467.0</ele><time>2026-04-26T09:40:04.998Z</time></trkpt><trkpt lat="43.18010801088116" lon="11.333723764979965"><ele>468.66666666666663</ele><time>2026-04-26T09:40:05.998Z</time></trkpt><trkpt lat="43.180142961577474" lon="11.33392290665456"><ele>470.33333333333337</ele><time>2026-04-26T09:40:06.998Z</time></trkpt><trkpt lat="43.18013103427027" lon="11.334167111287645"><ele>472.0</ele><time>2026-04-26T09:40:07.998Z</time></trkpt><trkpt lat="43.180074046473806" lon="11.334370679765989"><ele>472.0</ele><time>2026-04-26T09:40:08.998Z</time></trkpt><trkpt lat="43.17998319315065" lon="11.334584925189983"><ele>472.0</ele><time>2026-04-26T09:40:09.998Z</time></trkpt><trkpt lat="43.17988857460919" lon="11.334804685767388"><ele>472.0</ele><time>2026-04-26T09:40:10.998Z</time></trkpt><trkpt lat="43.17981046089063" lon="11.33500951155633"><ele>472.33333333333337</ele><time>2026-04-26T09:40:11.998Z</time></trkpt><trkpt lat="43.17975917656959" lon="11.335218239858978"><ele>472.66666666666663</ele><time>2026-04-26T09:40:12.998Z</time></trkpt><trkpt lat="43.17975829720277" lon="11.335442581362043"><ele>473.0</ele><time>2026-04-26T09:40:13.998Z</time></trkpt><trkpt lat="43.17973933882498" lon="11.335650981347243"><ele>473.0</ele><time>2026-04-26T09:40:14.998Z</time></trkpt><trkpt lat="43.179790479072906" lon="11.335880847894732"><ele>473.0</ele><time>2026-04-26T09:40:15.998Z</time></trkpt><trkpt lat="43.17988033576254" lon="11.336121724053381"><ele>473.0</ele><time>2026-04-26T09:40:16.998Z</time></trkpt><trkpt lat="43.17992832838975" lon="11.33637612410958"><ele>467.3333333333333</ele><time>2026-04-26T09:40:17.998Z</time></trkpt><trkpt lat="43.17998193535352" lon="11.336632144737704"><ele>461.66666666666663</ele><time>2026-04-26T09:40:18.998Z</time></trkpt><trkpt lat="43.180044963889685" lon="11.336879992590832"><ele>456.0</ele><time>2026-04-26T09:40:19.998Z</time></trkpt><trkpt lat="43.180058050104016" lon="11.33713257758487"><ele>455.0</ele><time>2026-04-26T09:40:20.998Z</time></trkpt><trkpt lat="43.18006640368928" lon="11.337381548867924"><ele>454.0</ele><time>2026-04-26T09:40:21.998Z</time></trkpt><trkpt lat="43.18006886476647" lon="11.33764563817327"><ele>453.0</ele><time>2026-04-26T09:40:22.998Z</time></trkpt><trkpt lat="43.1800713620685" lon="11.337911983515852"><ele>451.33333333333337</ele><time>2026-04-26T09:40:23.998Z</time></trkpt><trkpt lat="43.180090847794204" lon="11.338194698976128"><ele>449.6666666666667</ele><time>2026-04-26T09:40:24.998Z</time></trkpt><trkpt lat="43.180091963356794" lon="11.338468931941504"><ele>448.0</ele><time>2026-04-26T09:40:25.998Z</time></trkpt><trkpt lat="43.1800952650421" lon="11.338753435970721"><ele>446.6666666666667</ele><time>2026-04-26T09:40:26.998Z</time></trkpt><trkpt lat="43.18009837111877" lon="11.33903953968541"><ele>445.33333333333337</ele><time>2026-04-26T09:40:27.998Z</time></trkpt><trkpt lat="43.180085641515454" lon="11.339322167582578"><ele>444.0</ele><time>2026-04-26T09:40:28.998Z</time></trkpt><trkpt lat="43.180088555016454" lon="11.339602823937446"><ele>441.33333333333337</ele><time>2026-04-26T09:40:29.998Z</time></trkpt><trkpt lat="43.18009004846583" lon="11.339882415142956"><ele>438.6666666666667</ele><time>2026-04-26T09:40:30.998Z</time></trkpt><trkpt lat="43.18007293459094" lon="11.340169651830942"><ele>436.0</ele><time>2026-04-26T09:40:31.998Z</time></trkpt><trkpt lat="43.18004138328238" lon="11.340474075786123"><ele>435.0</ele><time>2026-04-26T09:40:32.998Z</time></trkpt><trkpt lat="43.18001272128488" lon="11.340771653036828"><ele>434.0</ele><time>2026-04-26T09:40:33.998Z</time></trkpt><trkpt lat="43.17998543680509" lon="11.341055114010164"><ele>433.0</ele><time>2026-04-26T09:40:34.998Z</time></trkpt><trkpt lat="43.179958389875694" lon="11.341321476515594"><ele>431.6666666666667</ele><time>2026-04-26T09:40:35.998Z</time></trkpt><trkpt lat="43.17993022666392" lon="11.341598685082122"><ele>430.33333333333337</ele><time>2026-04-26T09:40:36.998Z</time></trkpt><trkpt lat="43.17991472517273" lon="11.341878202700933"><ele>429.0</ele><time>2026-04-26T09:40:37.998Z</time></trkpt><trkpt lat="43.17989484397862" lon="11.34213728942849"><ele>427.0</ele><time>2026-04-26T09:40:38.998Z</time></trkpt><trkpt lat="43.17988826509641" lon="11.34240001398252"><ele>425.0</ele><time>2026-04-26T09:40:39.998Z</time></trkpt><trkpt lat="43.17992889419827" lon="11.342654700588676"><ele>423.0</ele><time>2026-04-26T09:40:40.998Z</time></trkpt><trkpt lat="43.17999017274697" lon="11.342885542968189"><ele>420.0</ele><time>2026-04-26T09:40:41.998Z</time></trkpt><trkpt lat="43.17999396047188" lon="11.343139557687664"><ele>417.0</ele><time>2026-04-26T09:40:42.998Z</time></trkpt><trkpt lat="43.17999448409439" lon="11.343421004919568"><ele>414.0</ele><time>2026-04-26T09:40:43.998Z</time></trkpt><trkpt lat="43.179992711094954" lon="11.343689885128862"><ele>411.0</ele><time>2026-04-26T09:40:44.998Z</time></trkpt><trkpt lat="43.179997913799184" lon="11.343961058089949"><ele>408.0</ele><time>2026-04-26T09:40:45.998Z</time></trkpt><trkpt lat="43.18004049944014" lon="11.344228564775173"><ele>405.0</ele><time>2026-04-26T09:40:46.998Z</time></trkpt><trkpt lat="43.1800985439403" lon="11.344440138706881"><ele>405.0</ele><time>2026-04-26T09:40:47.998Z</time></trkpt><trkpt lat="43.18020262117054" lon="11.344612354668918"><ele>405.0</ele><time>2026-04-26T09:40:48.998Z</time></trkpt><trkpt lat="43.1803172257061" lon="11.344768946575652"><ele>405.0</ele><time>2026-04-26T09:40:49.998Z</time></trkpt><trkpt lat="43.18047188691643" lon="11.34490607358949"><ele>402.66666666666663</ele><time>2026-04-26T09:40:50.998Z</time></trkpt><trkpt lat="43.18064175364307" lon="11.345004829775831"><ele>400.3333333333333</ele><time>2026-04-26T09:40:51.998Z</time></trkpt><trkpt lat="43.180819395603145" lon="11.345079048523642"><ele>398.0</ele><time>2026-04-26T09:40:52.998Z</time></trkpt><trkpt lat="43.180994554578405" lon="11.345170241755714"><ele>398.0</ele><time>2026-04-26T09:40:53.998Z</time></trkpt><trkpt lat="43.181194090690035" lon="11.345304443596438"><ele>398.0</ele><time>2026-04-26T09:40:54.998Z</time></trkpt><trkpt lat="43.18137579676889" lon="11.345366884376665"><ele>398.0</ele><time>2026-04-26T09:40:55.998Z</time></trkpt><trkpt lat="43.181571036060916" lon="11.345534326114102"><ele>394.0</ele><time>2026-04-26T09:40:56.997Z</time></trkpt><trkpt lat="43.18172843586188" lon="11.345641541921315"><ele>390.0</ele><time>2026-04-26T09:40:57.997Z</time></trkpt><trkpt lat="43.18185516989426" lon="11.345745961589056"><ele>386.0</ele><time>2026-04-26T09:40:58.997Z</time></trkpt><trkpt lat="43.181944231625664" lon="11.345941947381576"><ele>386.0</ele><time>2026-04-26T09:40:59.997Z</time></trkpt><trkpt lat="43.18202280146396" lon="11.346158492719224"><ele>386.0</ele><time>2026-04-26T09:41:00.997Z</time></trkpt><trkpt lat="43.18209101389424" lon="11.346393536324946"><ele>386.0</ele><time>2026-04-26T09:41:01.997Z</time></trkpt><trkpt lat="43.18215777150008" lon="11.346622126775559"><ele>384.3333333333333</ele><time>2026-04-26T09:41:02.997Z</time></trkpt><trkpt lat="43.18221683088974" lon="11.346847448179767"><ele>382.66666666666663</ele><time>2026-04-26T09:41:03.997Z</time></trkpt><trkpt lat="43.18226486630644" lon="11.347099566220953"><ele>381.0</ele><time>2026-04-26T09:41:04.997Z</time></trkpt><trkpt lat="43.18229386651998" lon="11.34734259591359"><ele>379.0</ele><time>2026-04-26T09:41:05.999Z</time></trkpt><trkpt lat="43.18232034274511" lon="11.347618933915284"><ele>377.0</ele><time>2026-04-26T09:41:06.999Z</time></trkpt><trkpt lat="43.18234963894213" lon="11.347908055725528"><ele>375.0</ele><time>2026-04-26T09:41:07.999Z</time></trkpt><trkpt lat="43.18237960816513" lon="11.348195382362695"><ele>372.3333333333333</ele><time>2026-04-26T09:41:08.999Z</time></trkpt><trkpt lat="43.182408532423814" lon="11.348473168502148"><ele>369.66666666666663</ele><time>2026-04-26T09:41:09.999Z</time></trkpt><trkpt lat="43.182436059026884" lon="11.348737532001063"><ele>367.0</ele><time>2026-04-26T09:41:10.999Z</time></trkpt><trkpt lat="43.18246327378985" lon="11.349005363599622"><ele>365.66666666666663</ele><time>2026-04-26T09:41:11.999Z</time></trkpt><trkpt lat="43.18248707365059" lon="11.349263064056721"><ele>364.3333333333333</ele><time>2026-04-26T09:41:12.999Z</time></trkpt><trkpt lat="43.182530951739544" lon="11.349517925192735"><ele>363.0</ele><time>2026-04-26T09:41:13.999Z</time></trkpt><trkpt lat="43.18252417462391" lon="11.349780908448244"><ele>362.3333333333333</ele><time>2026-04-26T09:41:14.999Z</time></trkpt><trkpt lat="43.18248017570168" lon="11.350047983317625"><ele>361.66666666666663</ele><time>2026-04-26T09:41:15.999Z</time></trkpt><trkpt lat="43.18242075733088" lon="11.350322845674063"><ele>361.0</ele><time>2026-04-26T09:41:16.999Z</time></trkpt><trkpt lat="43.182254101191376" lon="11.350554083821184"><ele>356.66666666666663</ele><time>2026-04-26T09:41:17.999Z</time></trkpt><trkpt lat="43.182170348641584" lon="11.350779153720683"><ele>352.3333333333333</ele><time>2026-04-26T09:41:19Z</time></trkpt><trkpt lat="43.18206076042434" lon="11.351083448571885"><ele>348.0</ele><time>2026-04-26T09:41:19.999Z</time></trkpt><trkpt lat="43.1819981836795" lon="11.351350925879284"><ele>346.3333333333333</ele><time>2026-04-26T09:41:20.999Z</time></trkpt><trkpt lat="43.18196843813628" lon="11.351643534036699"><ele>344.66666666666663</ele><time>2026-04-26T09:41:21.999Z</time></trkpt><trkpt lat="43.181997026977214" lon="11.35190291433931"><ele>343.0</ele><time>2026-04-26T09:41:22.999Z</time></trkpt><trkpt lat="43.18205041871092" lon="11.352160945098118"><ele>339.66666666666663</ele><time>2026-04-26T09:41:23.999Z</time></trkpt><trkpt lat="43.1821312672696" lon="11.352404873650618"><ele>336.3333333333333</ele><time>2026-04-26T09:41:24.999Z</time></trkpt><trkpt lat="43.18219508092104" lon="11.352654040699836"><ele>333.0</ele><time>2026-04-26T09:41:25.999Z</time></trkpt><trkpt lat="43.18227588546651" lon="11.352922304806778"><ele>336.3333333333333</ele><time>2026-04-26T09:41:26.999Z</time></trkpt><trkpt lat="43.182352466880324" lon="11.353175752162684"><ele>339.66666666666663</ele><time>2026-04-26T09:41:27.999Z</time></trkpt><trkpt lat="43.18242469455244" lon="11.353414791002814"><ele>343.0</ele><time>2026-04-26T09:41:28.999Z</time></trkpt><trkpt lat="43.18251131444734" lon="11.353644914742196"><ele>339.0</ele><time>2026-04-26T09:41:29.999Z</time></trkpt><trkpt lat="43.18258975548306" lon="11.3538812204485"><ele>335.0</ele><time>2026-04-26T09:41:30.999Z</time></trkpt><trkpt lat="43.18269293326195" lon="11.354104899794004"><ele>331.0</ele><time>2026-04-26T09:41:31.999Z</time></trkpt><trkpt lat="43.18282001101031" lon="11.354315919807775"><ele>331.0</ele><time>2026-04-26T09:41:32.999Z</time></trkpt><trkpt lat="43.18294961075686" lon="11.354456903766796"><ele>331.0</ele><time>2026-04-26T09:41:33.999Z</time></trkpt><trkpt lat="43.18310127382002" lon="11.354591887223599"><ele>331.0</ele><time>2026-04-26T09:41:34.999Z</time></trkpt><trkpt lat="43.18325686682495" lon="11.354713983887816"><ele>329.3333333333333</ele><time>2026-04-26T09:41:35.999Z</time></trkpt><trkpt lat="43.18342165514778" lon="11.354866444168351"><ele>327.6666666666667</ele><time>2026-04-26T09:41:36.999Z</time></trkpt><trkpt lat="43.18358252309812" lon="11.355019530437808"><ele>326.0</ele><time>2026-04-26T09:41:37.999Z</time></trkpt><trkpt lat="43.18374495017081" lon="11.355178243201692"><ele>326.0</ele><time>2026-04-26T09:41:38.999Z</time></trkpt><trkpt lat="43.18390737633598" lon="11.355343588902898"><ele>326.0</ele><time>2026-04-26T09:41:39.999Z</time></trkpt><trkpt lat="43.184046738893876" lon="11.355503921060182"><ele>326.0</ele><time>2026-04-26T09:41:40.999Z</time></trkpt><trkpt lat="43.184159436469365" lon="11.355689378231624"><ele>326.0</ele><time>2026-04-26T09:41:41.999Z</time></trkpt><trkpt lat="43.184245253731724" lon="11.355916361822604"><ele>326.0</ele><time>2026-04-26T09:41:42.999Z</time></trkpt><trkpt lat="43.184344955855224" lon="11.356154928032986"><ele>326.0</ele><time>2026-04-26T09:41:43.999Z</time></trkpt><trkpt lat="43.18444631620977" lon="11.35640598837606"><ele>326.0</ele><time>2026-04-26T09:41:44.999Z</time></trkpt><trkpt lat="43.184553401519885" lon="11.356635924544769"><ele>326.0</ele><time>2026-04-26T09:41:45.999Z</time></trkpt><trkpt lat="43.18465416849995" lon="11.356871629311852"><ele>326.0</ele><time>2026-04-26T09:41:46.999Z</time></trkpt><trkpt lat="43.18475425927351" lon="11.35711351148615"><ele>319.33333333333337</ele><time>2026-04-26T09:41:47.999Z</time></trkpt><trkpt lat="43.18485129600668" lon="11.357350440960222"><ele>312.6666666666667</ele><time>2026-04-26T09:41:48.999Z</time></trkpt><trkpt lat="43.184960969455034" lon="11.357581503426019"><ele>306.0</ele><time>2026-04-26T09:41:49.999Z</time></trkpt><trkpt lat="43.185049882573736" lon="11.35780971534086"><ele>307.6666666666667</ele><time>2026-04-26T09:41:50.999Z</time></trkpt><trkpt lat="43.185135421706185" lon="11.358069458773453"><ele>309.33333333333337</ele><time>2026-04-26T09:41:51.999Z</time></trkpt><trkpt lat="43.18517501803465" lon="11.358338636318903"><ele>311.0</ele><time>2026-04-26T09:41:52.999Z</time></trkpt><trkpt lat="43.18523939576742" lon="11.358613401916244"><ele>312.33333333333337</ele><time>2026-04-26T09:41:53.999Z</time></trkpt><trkpt lat="43.185285352781015" lon="11.358892157231088"><ele>313.6666666666667</ele><time>2026-04-26T09:41:54.999Z</time></trkpt><trkpt lat="43.1853381677516" lon="11.359177608823407"><ele>315.0</ele><time>2026-04-26T09:41:55.999Z</time></trkpt><trkpt lat="43.18539336186382" lon="11.359470949447044"><ele>316.0</ele><time>2026-04-26T09:41:56.999Z</time></trkpt><trkpt lat="43.18543752052131" lon="11.359763218407968"><ele>317.0</ele><time>2026-04-26T09:41:57.999Z</time></trkpt><trkpt lat="43.185485035431945" lon="11.360050161849399"><ele>318.0</ele><time>2026-04-26T09:41:58.999Z</time></trkpt><trkpt lat="43.185529747983246" lon="11.360330249991996"><ele>320.3333333333333</ele><time>2026-04-26T09:41:59.999Z</time></trkpt><trkpt lat="43.18557746348148" lon="11.360601574310216"><ele>322.66666666666663</ele><time>2026-04-26T09:42:00.999Z</time></trkpt><trkpt lat="43.18562787366097" lon="11.36085360167692"><ele>325.0</ele><time>2026-04-26T09:42:01.999Z</time></trkpt><trkpt lat="43.18567189234551" lon="11.361099328157584"><ele>314.3333333333333</ele><time>2026-04-26T09:42:02.999Z</time></trkpt><trkpt lat="43.185706360855136" lon="11.36134302135107"><ele>303.6666666666667</ele><time>2026-04-26T09:42:03.999Z</time></trkpt><trkpt lat="43.18571574871469" lon="11.361584524468139"><ele>293.0</ele><time>2026-04-26T09:42:04.999Z</time></trkpt><trkpt lat="43.18569982730194" lon="11.36181325226543"><ele>295.6666666666667</ele><time>2026-04-26T09:42:05.999Z</time></trkpt><trkpt lat="43.185645584667576" lon="11.362028860205916"><ele>298.3333333333333</ele><time>2026-04-26T09:42:06.999Z</time></trkpt><trkpt lat="43.18555519961268" lon="11.362232095102385"><ele>301.0</ele><time>2026-04-26T09:42:07.999Z</time></trkpt><trkpt lat="43.18544487368137" lon="11.36240848757445"><ele>301.0</ele><time>2026-04-26T09:42:08.999Z</time></trkpt><trkpt lat="43.185372528836496" lon="11.362589539636803"><ele>301.0</ele><time>2026-04-26T09:42:09.999Z</time></trkpt><trkpt lat="43.18535190772611" lon="11.362788234442577"><ele>301.0</ele><time>2026-04-26T09:42:10.999Z</time></trkpt><trkpt lat="43.185377016886406" lon="11.362986719195474"><ele>301.0</ele><time>2026-04-26T09:42:11.999Z</time></trkpt><trkpt lat="43.18544281513661" lon="11.36316730530187"><ele>297.75</ele><time>2026-04-26T09:42:12.999Z</time></trkpt><trkpt lat="43.18547534495546" lon="11.36333188294182"><ele>294.5</ele><time>2026-04-26T09:42:13.999Z</time></trkpt><trkpt lat="43.18546994596818" lon="11.363503765356928"><ele>291.25</ele><time>2026-04-26T09:42:14.999Z</time></trkpt><trkpt lat="43.185437793508136" lon="11.363677790639423"><ele>288.0</ele><time>2026-04-26T09:42:15.999Z</time></trkpt><trkpt lat="43.18535432151482" lon="11.363840796535662"><ele>289.25</ele><time>2026-04-26T09:42:16.999Z</time></trkpt><trkpt lat="43.185265369459955" lon="11.363986552973666"><ele>290.5</ele><time>2026-04-26T09:42:17.998Z</time></trkpt><trkpt lat="43.185181301080405" lon="11.364142581833391"><ele>291.75</ele><time>2026-04-26T09:42:18.998Z</time></trkpt><trkpt lat="43.1851030839448" lon="11.364311173706618"><ele>293.0</ele><time>2026-04-26T09:42:19.998Z</time></trkpt><trkpt lat="43.18502801549067" lon="11.364471414187111"><ele>293.0</ele><time>2026-04-26T09:42:20.998Z</time></trkpt><trkpt lat="43.18492566225861" lon="11.364627576680704"><ele>293.0</ele><time>2026-04-26T09:42:21.998Z</time></trkpt><trkpt lat="43.18482505989687" lon="11.364790677715982"><ele>293.0</ele><time>2026-04-26T09:42:22.998Z</time></trkpt><trkpt lat="43.18472604791905" lon="11.364965732508272"><ele>291.25</ele><time>2026-04-26T09:42:23.998Z</time></trkpt><trkpt lat="43.18467882699829" lon="11.365165566762668"><ele>289.5</ele><time>2026-04-26T09:42:24.998Z</time></trkpt><trkpt lat="43.18468281145965" lon="11.36538055063922"><ele>287.75</ele><time>2026-04-26T09:42:25.998Z</time></trkpt><trkpt lat="43.184723724507926" lon="11.365562339699382"><ele>286.0</ele><time>2026-04-26T09:42:26.998Z</time></trkpt><trkpt lat="43.18478672532308" lon="11.365736235680986"><ele>284.66666666666663</ele><time>2026-04-26T09:42:27.998Z</time></trkpt><trkpt lat="43.184842027363686" lon="11.36593434766205"><ele>283.3333333333333</ele><time>2026-04-26T09:42:28.998Z</time></trkpt><trkpt lat="43.18484295584538" lon="11.366148118976625"><ele>282.0</ele><time>2026-04-26T09:42:29.998Z</time></trkpt><trkpt lat="43.18480113387343" lon="11.366351580494975"><ele>283.3333333333333</ele><time>2026-04-26T09:42:30.998Z</time></trkpt><trkpt lat="43.184699080063474" lon="11.366507130840054"><ele>284.66666666666663</ele><time>2026-04-26T09:42:31.998Z</time></trkpt><trkpt lat="43.18457897060517" lon="11.366649489221913"><ele>286.0</ele><time>2026-04-26T09:42:32.998Z</time></trkpt><trkpt lat="43.184453391662665" lon="11.366771717933728"><ele>286.0</ele><time>2026-04-26T09:42:33.998Z</time></trkpt><trkpt lat="43.184314096193205" lon="11.366902916714897"><ele>286.0</ele><time>2026-04-26T09:42:34.998Z</time></trkpt><trkpt lat="43.184180301585535" lon="11.367040895031021"><ele>286.0</ele><time>2026-04-26T09:42:35.998Z</time></trkpt><trkpt lat="43.184039437502626" lon="11.367186113022736"><ele>285.0</ele><time>2026-04-26T09:42:36.998Z</time></trkpt><trkpt lat="43.183898472493716" lon="11.367320219175996"><ele>284.0</ele><time>2026-04-26T09:42:37.998Z</time></trkpt><trkpt lat="43.1837671635639" lon="11.36744559080143"><ele>283.0</ele><time>2026-04-26T09:42:38.998Z</time></trkpt><trkpt lat="43.18365879328566" lon="11.367572460199618"><ele>283.0</ele><time>2026-04-26T09:42:39.998Z</time></trkpt><trkpt lat="43.1835697430509" lon="11.367719028600682"><ele>283.0</ele><time>2026-04-26T09:42:40.998Z</time></trkpt><trkpt lat="43.18351553629402" lon="11.367896440577338"><ele>283.0</ele><time>2026-04-26T09:42:41.998Z</time></trkpt><trkpt lat="43.18350343265817" lon="11.36812255742536"><ele>283.0</ele><time>2026-04-26T09:42:42.998Z</time></trkpt><trkpt lat="43.1835439807434" lon="11.36831407386944"><ele>283.0</ele><time>2026-04-26T09:42:43.998Z</time></trkpt><trkpt lat="43.18361594247477" lon="11.368502277485954"><ele>283.0</ele><time>2026-04-26T09:42:44.998Z</time></trkpt><trkpt lat="43.18370413883414" lon="11.368683581750087"><ele>283.0</ele><time>2026-04-26T09:42:45.998Z</time></trkpt><trkpt lat="43.18373696332214" lon="11.368893170455863"><ele>282.0</ele><time>2026-04-26T09:42:46.998Z</time></trkpt><trkpt lat="43.18375371958985" lon="11.369114137761345"><ele>281.0</ele><time>2026-04-26T09:42:47.998Z</time></trkpt><trkpt lat="43.183752150039105" lon="11.369336025989325"><ele>280.0</ele><time>2026-04-26T09:42:48.998Z</time></trkpt><trkpt lat="43.18375935458439" lon="11.36957386039555"><ele>281.0</ele><time>2026-04-26T09:42:49.998Z</time></trkpt><trkpt lat="43.18377178110968" lon="11.369814985107999"><ele>282.0</ele><time>2026-04-26T09:42:50.998Z</time></trkpt><trkpt lat="43.183781292961726" lon="11.37005576580449"><ele>283.0</ele><time>2026-04-26T09:42:51.998Z</time></trkpt><trkpt lat="43.18378295788957" lon="11.370311332642066"><ele>285.66666666666663</ele><time>2026-04-26T09:42:52.998Z</time></trkpt><trkpt lat="43.18378940447629" lon="11.370562168555796"><ele>288.3333333333333</ele><time>2026-04-26T09:42:53.998Z</time></trkpt><trkpt lat="43.18379929738729" lon="11.370818452615659"><ele>291.0</ele><time>2026-04-26T09:42:54.998Z</time></trkpt><trkpt lat="43.18380480229013" lon="11.371077253854523"><ele>291.0</ele><time>2026-04-26T09:42:55.998Z</time></trkpt><trkpt lat="43.18381549607012" lon="11.371343985886732"><ele>291.0</ele><time>2026-04-26T09:42:56.998Z</time></trkpt><trkpt lat="43.18382708575942" lon="11.371615543127858"><ele>291.0</ele><time>2026-04-26T09:42:57.998Z</time></trkpt><trkpt lat="43.18383556702362" lon="11.371891756733792"><ele>291.0</ele><time>2026-04-26T09:42:58.998Z</time></trkpt><trkpt lat="43.18384155023631" lon="11.372169505360144"><ele>291.0</ele><time>2026-04-26T09:42:59.998Z</time></trkpt><trkpt lat="43.183849168781094" lon="11.372449979805477"><ele>291.0</ele><time>2026-04-26T09:43:00.998Z</time></trkpt><trkpt lat="43.18385710768697" lon="11.372733374437356"><ele>290.3333333333333</ele><time>2026-04-26T09:43:01.998Z</time></trkpt><trkpt lat="43.18386886386275" lon="11.373015539818075"><ele>289.66666666666663</ele><time>2026-04-26T09:43:02.998Z</time></trkpt><trkpt lat="43.18387755547836" lon="11.373294034325633"><ele>289.0</ele><time>2026-04-26T09:43:03.998Z</time></trkpt><trkpt lat="43.183881946937895" lon="11.373560133880835"><ele>291.0</ele><time>2026-04-26T09:43:04.998Z</time></trkpt><trkpt lat="43.18387193548208" lon="11.3738166755039"><ele>293.0</ele><time>2026-04-26T09:43:05.998Z</time></trkpt><trkpt lat="43.1838332720956" lon="11.374068667671024"><ele>295.0</ele><time>2026-04-26T09:43:06.998Z</time></trkpt><trkpt lat="43.18376669385596" lon="11.374305549175629"><ele>295.66666666666663</ele><time>2026-04-26T09:43:07.998Z</time></trkpt><trkpt lat="43.1836662805859" lon="11.374504665383634"><ele>296.3333333333333</ele><time>2026-04-26T09:43:08.998Z</time></trkpt><trkpt lat="43.18353254156167" lon="11.374691034753008"><ele>297.0</ele><time>2026-04-26T09:43:09.998Z</time></trkpt><trkpt lat="43.18338179048429" lon="11.374836712185168"><ele>294.3333333333333</ele><time>2026-04-26T09:43:10.998Z</time></trkpt><trkpt lat="43.18323625769484" lon="11.37497644264158"><ele>291.66666666666663</ele><time>2026-04-26T09:43:12Z</time></trkpt><trkpt lat="43.18306834874272" lon="11.375118361929225"><ele>289.0</ele><time>2026-04-26T09:43:13Z</time></trkpt><trkpt lat="43.18289726842642" lon="11.37525780239937"><ele>286.66666666666663</ele><time>2026-04-26T09:43:14Z</time></trkpt><trkpt lat="43.182730782776254" lon="11.37540310828495"><ele>284.3333333333333</ele><time>2026-04-26T09:43:15Z</time></trkpt><trkpt lat="43.182572484160644" lon="11.375559681843685"><ele>282.0</ele><time>2026-04-26T09:43:16Z</time></trkpt><trkpt lat="43.18243663154539" lon="11.3757510887997"><ele>282.0</ele><time>2026-04-26T09:43:17Z</time></trkpt><trkpt lat="43.182348122350305" lon="11.37595885937223"><ele>282.0</ele><time>2026-04-26T09:43:18Z</time></trkpt><trkpt lat="43.1822840239606" lon="11.376201754125981"><ele>282.0</ele><time>2026-04-26T09:43:19Z</time></trkpt><trkpt lat="43.18225761003876" lon="11.376462339545652"><ele>282.0</ele><time>2026-04-26T09:43:20Z</time></trkpt><trkpt lat="43.18223911444382" lon="11.376729489406658"><ele>282.0</ele><time>2026-04-26T09:43:21Z</time></trkpt><trkpt lat="43.18222165484991" lon="11.377007025403643"><ele>282.0</ele><time>2026-04-26T09:43:22Z</time></trkpt><trkpt lat="43.182197520860264" lon="11.377279750358637"><ele>279.6666666666667</ele><time>2026-04-26T09:43:23Z</time></trkpt><trkpt lat="43.182171674262754" lon="11.377557813723948"><ele>277.33333333333337</ele><time>2026-04-26T09:43:24Z</time></trkpt><trkpt lat="43.182149353801506" lon="11.377828973614916"><ele>275.0</ele><time>2026-04-26T09:43:25Z</time></trkpt><trkpt lat="43.182127158973806" lon="11.378084589104578"><ele>272.6666666666667</ele><time>2026-04-26T09:43:26Z</time></trkpt><trkpt lat="43.18210484699754" lon="11.378339495691648"><ele>270.3333333333333</ele><time>2026-04-26T09:43:27Z</time></trkpt><trkpt lat="43.18208573282359" lon="11.378589468557095"><ele>268.0</ele><time>2026-04-26T09:43:28Z</time></trkpt><trkpt lat="43.18207426218335" lon="11.37884004951805"><ele>269.3333333333333</ele><time>2026-04-26T09:43:29Z</time></trkpt><trkpt lat="43.18204199918421" lon="11.379085450717241"><ele>270.6666666666667</ele><time>2026-04-26T09:43:29.999Z</time></trkpt><trkpt lat="43.18197728018645" lon="11.379328764998485"><ele>272.0</ele><time>2026-04-26T09:43:30.999Z</time></trkpt><trkpt lat="43.18190829240056" lon="11.379566274744736"><ele>271.0</ele><time>2026-04-26T09:43:31.999Z</time></trkpt><trkpt lat="43.18184083653914" lon="11.37981257361886"><ele>270.0</ele><time>2026-04-26T09:43:32.999Z</time></trkpt><trkpt lat="43.1817790895252" lon="11.380060028013206"><ele>269.0</ele><time>2026-04-26T09:43:33.999Z</time></trkpt><trkpt lat="43.18172789639096" lon="11.380305229160385"><ele>268.33333333333337</ele><time>2026-04-26T09:43:34.999Z</time></trkpt><trkpt lat="43.18168764803386" lon="11.380563631816583"><ele>267.6666666666667</ele><time>2026-04-26T09:43:35.999Z</time></trkpt><trkpt lat="43.18165335391041" lon="11.380831475675272"><ele>267.0</ele><time>2026-04-26T09:43:36.999Z</time></trkpt><trkpt lat="43.181626516964656" lon="11.381100477524292"><ele>268.3333333333333</ele><time>2026-04-26T09:43:37.999Z</time></trkpt><trkpt lat="43.181594940397844" lon="11.381368492445613"><ele>269.66666666666663</ele><time>2026-04-26T09:43:38.999Z</time></trkpt><trkpt lat="43.181548732482774" lon="11.3816271182704"><ele>271.0</ele><time>2026-04-26T09:43:39.999Z</time></trkpt><trkpt lat="43.181475920559386" lon="11.38186971982087"><ele>269.3333333333333</ele><time>2026-04-26T09:43:40.999Z</time></trkpt><trkpt lat="43.18137654112678" lon="11.382094088382154"><ele>267.6666666666667</ele><time>2026-04-26T09:43:41.999Z</time></trkpt><trkpt lat="43.18125197114067" lon="11.382285452540511"><ele>266.0</ele><time>2026-04-26T09:43:42.999Z</time></trkpt><trkpt lat="43.18110871156426" lon="11.382449236063165"><ele>266.0</ele><time>2026-04-26T09:43:43.999Z</time></trkpt><trkpt lat="43.180948764867836" lon="11.38258979650085"><ele>266.0</ele><time>2026-04-26T09:43:44.999Z</time></trkpt><trkpt lat="43.18078735845535" lon="11.382738557465373"><ele>266.0</ele><time>2026-04-26T09:43:45.999Z</time></trkpt><trkpt lat="43.18062760901946" lon="11.382906009507323"><ele>266.0</ele><time>2026-04-26T09:43:46.999Z</time></trkpt><trkpt lat="43.18045974032842" lon="11.38306277541571"><ele>266.0</ele><time>2026-04-26T09:43:47.999Z</time></trkpt><trkpt lat="43.18029780783582" lon="11.383209099578416"><ele>266.0</ele><time>2026-04-26T09:43:48.999Z</time></trkpt><trkpt lat="43.18012962857145" lon="11.383346220139764"><ele>266.0</ele><time>2026-04-26T09:43:49.999Z</time></trkpt><trkpt lat="43.179942304550906" lon="11.383475134744002"><ele>266.0</ele><time>2026-04-26T09:43:50.999Z</time></trkpt><trkpt lat="43.1797597742452" lon="11.383584743250811"><ele>266.0</ele><time>2026-04-26T09:43:51.999Z</time></trkpt><trkpt lat="43.17957217865675" lon="11.383676376949696"><ele>265.0</ele><time>2026-04-26T09:43:52.999Z</time></trkpt><trkpt lat="43.17938650517911" lon="11.383766227249428"><ele>264.0</ele><time>2026-04-26T09:43:53.999Z</time></trkpt><trkpt lat="43.1792001287095" lon="11.383863582777193"><ele>263.0</ele><time>2026-04-26T09:43:54.999Z</time></trkpt><trkpt lat="43.1790149996029" lon="11.383965295283478"><ele>265.0</ele><time>2026-04-26T09:43:55.999Z</time></trkpt><trkpt lat="43.17884170347656" lon="11.384086443855214"><ele>267.0</ele><time>2026-04-26T09:43:56.999Z</time></trkpt><trkpt lat="43.178676038331105" lon="11.38423134751975"><ele>269.0</ele><time>2026-04-26T09:43:57.999Z</time></trkpt><trkpt lat="43.17852539122404" lon="11.384406931312354"><ele>269.0</ele><time>2026-04-26T09:43:58.999Z</time></trkpt><trkpt lat="43.1783718813384" lon="11.38458792837091"><ele>269.0</ele><time>2026-04-26T09:43:59.999Z</time></trkpt><trkpt lat="43.17822196215027" lon="11.384761046722447"><ele>269.0</ele><time>2026-04-26T09:44:00.999Z</time></trkpt><trkpt lat="43.17805498159933" lon="11.384932714387373"><ele>269.0</ele><time>2026-04-26T09:44:01.999Z</time></trkpt><trkpt lat="43.17789662124224" lon="11.38506869801253"><ele>269.0</ele><time>2026-04-26T09:44:02.999Z</time></trkpt><trkpt lat="43.17771646593793" lon="11.38519941137444"><ele>269.0</ele><time>2026-04-26T09:44:03.999Z</time></trkpt><trkpt lat="43.17754881931976" lon="11.385344874186538"><ele>269.0</ele><time>2026-04-26T09:44:04.999Z</time></trkpt><trkpt lat="43.17739378882916" lon="11.385509953908624"><ele>269.0</ele><time>2026-04-26T09:44:05.999Z</time></trkpt><trkpt lat="43.177259615237205" lon="11.385702950500676"><ele>269.0</ele><time>2026-04-26T09:44:06.999Z</time></trkpt><trkpt lat="43.177148587293125" lon="11.385930426493347"><ele>270.0</ele><time>2026-04-26T09:44:07.999Z</time></trkpt><trkpt lat="43.17705106091678" lon="11.386175530015787"><ele>271.0</ele><time>2026-04-26T09:44:08.999Z</time></trkpt><trkpt lat="43.17695370743913" lon="11.38642842876001"><ele>272.0</ele><time>2026-04-26T09:44:09.999Z</time></trkpt><trkpt lat="43.17685143670847" lon="11.386681579540168"><ele>272.0</ele><time>2026-04-26T09:44:10.999Z</time></trkpt><trkpt lat="43.176741855258946" lon="11.386931446617456"><ele>272.0</ele><time>2026-04-26T09:44:11.999Z</time></trkpt><trkpt lat="43.17664174987079" lon="11.387182586984409"><ele>272.0</ele><time>2026-04-26T09:44:12.999Z</time></trkpt><trkpt lat="43.17654448938278" lon="11.387433926709946"><ele>272.6666666666667</ele><time>2026-04-26T09:44:13.999Z</time></trkpt><trkpt lat="43.17643257031761" lon="11.387670020144311"><ele>273.3333333333333</ele><time>2026-04-26T09:44:14.999Z</time></trkpt><trkpt lat="43.17630540079535" lon="11.387889251114602"><ele>274.0</ele><time>2026-04-26T09:44:15.999Z</time></trkpt><trkpt lat="43.17615302619695" lon="11.388080807717778"><ele>274.0</ele><time>2026-04-26T09:44:16.999Z</time></trkpt><trkpt lat="43.175982117204434" lon="11.388237064374223"><ele>274.0</ele><time>2026-04-26T09:44:17.999Z</time></trkpt><trkpt lat="43.17579576776336" lon="11.388359747979072"><ele>274.0</ele><time>2026-04-26T09:44:18.999Z</time></trkpt><trkpt lat="43.1755968895933" lon="11.388450508847557"><ele>273.66666666666663</ele><time>2026-04-26T09:44:19.999Z</time></trkpt><trkpt lat="43.17540126566279" lon="11.388532237373886"><ele>273.3333333333333</ele><time>2026-04-26T09:44:20.999Z</time></trkpt><trkpt lat="43.175205190104926" lon="11.388621715778976"><ele>273.0</ele><time>2026-04-26T09:44:21.999Z</time></trkpt><trkpt lat="43.1750152157388" lon="11.388717207840456"><ele>272.6666666666667</ele><time>2026-04-26T09:44:22.999Z</time></trkpt><trkpt lat="43.1748227353624" lon="11.388798546031124"><ele>272.33333333333337</ele><time>2026-04-26T09:44:23.999Z</time></trkpt><trkpt lat="43.174638953060764" lon="11.388888446856896"><ele>272.0</ele><time>2026-04-26T09:44:24.998Z</time></trkpt><trkpt lat="43.174450436543246" lon="11.388972043922873"><ele>274.33333333333337</ele><time>2026-04-26T09:44:25.998Z</time></trkpt><trkpt lat="43.17427097234452" lon="11.389049712255728"><ele>276.6666666666667</ele><time>2026-04-26T09:44:26.998Z</time></trkpt><trkpt lat="43.174098560283795" lon="11.38913729588943"><ele>279.0</ele><time>2026-04-26T09:44:27.998Z</time></trkpt><trkpt lat="43.173946516751435" lon="11.389247254422857"><ele>283.0</ele><time>2026-04-26T09:44:28.998Z</time></trkpt><trkpt lat="43.17381309461036" lon="11.389381215772314"><ele>287.0</ele><time>2026-04-26T09:44:29.998Z</time></trkpt><trkpt lat="43.1737077510406" lon="11.389523124640363"><ele>291.0</ele><time>2026-04-26T09:44:30.998Z</time></trkpt><trkpt lat="43.173621417022844" lon="11.389670421601796"><ele>289.75</ele><time>2026-04-26T09:44:31.998Z</time></trkpt><trkpt lat="43.17353964330135" lon="11.389804735646482"><ele>288.5</ele><time>2026-04-26T09:44:32.998Z</time></trkpt><trkpt lat="43.17345261835204" lon="11.38993343799013"><ele>287.25</ele><time>2026-04-26T09:44:33.998Z</time></trkpt><trkpt lat="43.17336736770434" lon="11.390071222684364"><ele>286.0</ele><time>2026-04-26T09:44:34.998Z</time></trkpt><trkpt lat="43.17329043107084" lon="11.390209333578094"><ele>286.0</ele><time>2026-04-26T09:44:35.998Z</time></trkpt><trkpt lat="43.173225180862204" lon="11.390323302089765"><ele>286.0</ele><time>2026-04-26T09:44:36.998Z</time></trkpt><trkpt lat="43.17316952681212" lon="11.39041117752907"><ele>286.0</ele><time>2026-04-26T09:44:37.998Z</time></trkpt><trkpt lat="43.17311864769356" lon="11.390487093544799"><ele>286.0</ele><time>2026-04-26T09:44:38.998Z</time></trkpt><trkpt lat="43.17300358651653" lon="11.390585196020556"><ele>286.0</ele><time>2026-04-26T09:44:40.998Z</time></trkpt><trkpt lat="43.17293338222374" lon="11.390647961902603"><ele>288.40000000000003</ele><time>2026-04-26T09:44:41.998Z</time></trkpt><trkpt lat="43.172857802075065" lon="11.390715930700333"><ele>290.8</ele><time>2026-04-26T09:44:42.998Z</time></trkpt><trkpt lat="43.172769785481194" lon="11.390776295567163"><ele>293.20000000000005</ele><time>2026-04-26T09:44:43.998Z</time></trkpt><trkpt lat="43.17267076543392" lon="11.390823591935964"><ele>295.6</ele><time>2026-04-26T09:44:44.998Z</time></trkpt><trkpt lat="43.17256206976673" lon="11.390867910368502"><ele>298.0</ele><time>2026-04-26T09:44:45.998Z</time></trkpt><trkpt lat="43.172453217716914" lon="11.390917047907031"><ele>299.75</ele><time>2026-04-26T09:44:46.998Z</time></trkpt><trkpt lat="43.172343989091154" lon="11.3909758445041"><ele>301.5</ele><time>2026-04-26T09:44:47.998Z</time></trkpt><trkpt lat="43.172236212119444" lon="11.391037083349294"><ele>303.25</ele><time>2026-04-26T09:44:48.998Z</time></trkpt><trkpt lat="43.172130801780604" lon="11.391091110382469"><ele>305.0</ele><time>2026-04-26T09:44:49.998Z</time></trkpt><trkpt lat="43.172024150788275" lon="11.391141982997237"><ele>305.0</ele><time>2026-04-26T09:44:50.998Z</time></trkpt><trkpt lat="43.17192056818115" lon="11.391191749156743"><ele>305.0</ele><time>2026-04-26T09:44:51.998Z</time></trkpt><trkpt lat="43.17181852051614" lon="11.39123961514524"><ele>305.0</ele><time>2026-04-26T09:44:52.998Z</time></trkpt><trkpt lat="43.17171494001019" lon="11.391276838362383"><ele>305.0</ele><time>2026-04-26T09:44:53.998Z</time></trkpt><trkpt lat="43.17161723119545" lon="11.391307822853442"><ele>305.0</ele><time>2026-04-26T09:44:54.998Z</time></trkpt><trkpt lat="43.17152486689825" lon="11.391303959413543"><ele>304.4</ele><time>2026-04-26T09:44:55.998Z</time></trkpt><trkpt lat="43.17143834184396" lon="11.391310567739996"><ele>303.8</ele><time>2026-04-26T09:44:56.998Z</time></trkpt><trkpt lat="43.171349519973" lon="11.391313674196322"><ele>303.2</ele><time>2026-04-26T09:44:57.998Z</time></trkpt><trkpt lat="43.17125120033029" lon="11.391302923476696"><ele>302.6</ele><time>2026-04-26T09:44:58.998Z</time></trkpt><trkpt lat="43.17116219533245" lon="11.391279058544326"><ele>302.0</ele><time>2026-04-26T09:44:59.998Z</time></trkpt><trkpt lat="43.171072529818666" lon="11.391230556213863"><ele>302.0</ele><time>2026-04-26T09:45:00.998Z</time></trkpt><trkpt lat="43.17097473889683" lon="11.391174730548519"><ele>302.0</ele><time>2026-04-26T09:45:01.998Z</time></trkpt><trkpt lat="43.17088901732291" lon="11.391126335443765"><ele>302.0</ele><time>2026-04-26T09:45:02.998Z</time></trkpt><trkpt lat="43.17079583164104" lon="11.39107544846952"><ele>302.0</ele><time>2026-04-26T09:45:03.998Z</time></trkpt><trkpt lat="43.17069903098136" lon="11.391021860533792"><ele>302.0</ele><time>2026-04-26T09:45:04.998Z</time></trkpt><trkpt lat="43.1706058986538" lon="11.390969984729999"><ele>302.0</ele><time>2026-04-26T09:45:05.998Z</time></trkpt><trkpt lat="43.170512363984464" lon="11.390916334529413"><ele>302.0</ele><time>2026-04-26T09:45:06.998Z</time></trkpt><trkpt lat="43.17042563106993" lon="11.39086256224232"><ele>302.0</ele><time>2026-04-26T09:45:07.998Z</time></trkpt><trkpt lat="43.17034896016138" lon="11.39080381398555"><ele>302.0</ele><time>2026-04-26T09:45:08.998Z</time></trkpt><trkpt lat="43.17027153838041" lon="11.390741919856564"><ele>302.0</ele><time>2026-04-26T09:45:09.998Z</time></trkpt><trkpt lat="43.1701794168042" lon="11.390666829774123"><ele>302.0</ele><time>2026-04-26T09:45:10.998Z</time></trkpt><trkpt lat="43.17007444163381" lon="11.390579512029044"><ele>302.0</ele><time>2026-04-26T09:45:11.998Z</time></trkpt><trkpt lat="43.169965461702866" lon="11.390486980825026"><ele>302.0</ele><time>2026-04-26T09:45:12.998Z</time></trkpt><trkpt lat="43.169855933038725" lon="11.390395112548207"><ele>302.0</ele><time>2026-04-26T09:45:13.998Z</time></trkpt><trkpt lat="43.169746687426645" lon="11.390307210706053"><ele>299.0</ele><time>2026-04-26T09:45:14.998Z</time></trkpt><trkpt lat="43.16962618480786" lon="11.390223447956101"><ele>296.0</ele><time>2026-04-26T09:45:15.998Z</time></trkpt><trkpt lat="43.16950787617275" lon="11.390150635444302"><ele>293.0</ele><time>2026-04-26T09:45:16.998Z</time></trkpt><trkpt lat="43.16938761317362" lon="11.390099738569042"><ele>290.0</ele><time>2026-04-26T09:45:18Z</time></trkpt><trkpt lat="43.16925870226257" lon="11.390055472836085"><ele>290.0</ele><time>2026-04-26T09:45:19Z</time></trkpt><trkpt lat="43.16914295926999" lon="11.390026727578038"><ele>290.0</ele><time>2026-04-26T09:45:20Z</time></trkpt><trkpt lat="43.1690291446576" lon="11.3900050586046"><ele>290.0</ele><time>2026-04-26T09:45:21Z</time></trkpt><trkpt lat="43.1689200399263" lon="11.389986902638826"><ele>290.0</ele><time>2026-04-26T09:45:22Z</time></trkpt><trkpt lat="43.168811926173305" lon="11.389977466758298"><ele>287.25</ele><time>2026-04-26T09:45:23Z</time></trkpt><trkpt lat="43.16869595705937" lon="11.38996804567237"><ele>284.5</ele><time>2026-04-26T09:45:24Z</time></trkpt><trkpt lat="43.16857671224661" lon="11.389962705512774"><ele>281.75</ele><time>2026-04-26T09:45:25Z</time></trkpt><trkpt lat="43.16844577260541" lon="11.389954054733119"><ele>279.0</ele><time>2026-04-26T09:45:26Z</time></trkpt><trkpt lat="43.16830919697788" lon="11.389939374651997"><ele>277.5</ele><time>2026-04-26T09:45:27Z</time></trkpt><trkpt lat="43.168172224428865" lon="11.389927959907357"><ele>276.0</ele><time>2026-04-26T09:45:28Z</time></trkpt><trkpt lat="43.1680328573211" lon="11.3899192295196"><ele>274.5</ele><time>2026-04-26T09:45:29Z</time></trkpt><trkpt lat="43.1678881523876" lon="11.38990860941395"><ele>273.0</ele><time>2026-04-26T09:45:30Z</time></trkpt><trkpt lat="43.167740700064236" lon="11.38989296982953"><ele>273.0</ele><time>2026-04-26T09:45:31Z</time></trkpt><trkpt lat="43.1675917090673" lon="11.389879645547103"><ele>273.0</ele><time>2026-04-26T09:45:32Z</time></trkpt><trkpt lat="43.16744536291049" lon="11.38986900083658"><ele>273.0</ele><time>2026-04-26T09:45:33Z</time></trkpt><trkpt lat="43.16729921140836" lon="11.389856637405572"><ele>273.0</ele><time>2026-04-26T09:45:34Z</time></trkpt><trkpt lat="43.167150558995736" lon="11.389848254803656"><ele>273.25</ele><time>2026-04-26T09:45:34.999Z</time></trkpt><trkpt lat="43.167001530899604" lon="11.389855740149502"><ele>273.5</ele><time>2026-04-26T09:45:35.999Z</time></trkpt><trkpt lat="43.166858134503485" lon="11.389888282551228"><ele>273.75</ele><time>2026-04-26T09:45:36.999Z</time></trkpt><trkpt lat="43.16672083732991" lon="11.389947863955003"><ele>274.0</ele><time>2026-04-26T09:45:37.999Z</time></trkpt><trkpt lat="43.166594281643256" lon="11.390035644387934"><ele>274.75</ele><time>2026-04-26T09:45:38.999Z</time></trkpt><trkpt lat="43.16647390289714" lon="11.390146154911399"><ele>275.5</ele><time>2026-04-26T09:45:39.999Z</time></trkpt><trkpt lat="43.16637477754706" lon="11.390268035382004"><ele>276.25</ele><time>2026-04-26T09:45:40.999Z</time></trkpt><trkpt lat="43.166299211135595" lon="11.390382658923834"><ele>277.0</ele><time>2026-04-26T09:45:41.999Z</time></trkpt><trkpt lat="43.16624301318939" lon="11.390474855125923"><ele>276.0</ele><time>2026-04-26T09:45:42.999Z</time></trkpt><trkpt lat="43.1661921376724" lon="11.390547289237405"><ele>275.0</ele><time>2026-04-26T09:45:43.999Z</time></trkpt><trkpt lat="43.166127386741124" lon="11.390596717176328"><ele>274.0</ele><time>2026-04-26T09:45:44.999Z</time></trkpt><trkpt lat="43.16609140468303" lon="11.390674181784691"><ele>273.0</ele><time>2026-04-26T09:45:45.999Z</time></trkpt><trkpt lat="43.16599618424525" lon="11.390691186631951"><ele>272.0</ele><time>2026-04-26T09:45:46.999Z</time></trkpt><trkpt lat="43.1659186701073" lon="11.390745130534034"><ele>271.0</ele><time>2026-04-26T09:45:47.999Z</time></trkpt><trkpt lat="43.16583692663302" lon="11.390794262593312"><ele>271.0</ele><time>2026-04-26T09:45:48.999Z</time></trkpt><trkpt lat="43.16574331967658" lon="11.390818729115919"><ele>271.0</ele><time>2026-04-26T09:45:49.999Z</time></trkpt><trkpt lat="43.165628282372644" lon="11.390852855222612"><ele>271.0</ele><time>2026-04-26T09:45:50.999Z</time></trkpt><trkpt lat="43.16550274855208" lon="11.390894047154589"><ele>271.0</ele><time>2026-04-26T09:45:51.999Z</time></trkpt><trkpt lat="43.16537759491105" lon="11.390932782279759"><ele>272.0</ele><time>2026-04-26T09:45:52.999Z</time></trkpt><trkpt lat="43.16522376436266" lon="11.390987079424537"><ele>273.0</ele><time>2026-04-26T09:45:53.999Z</time></trkpt><trkpt lat="43.165069986955075" lon="11.391031335000628"><ele>274.0</ele><time>2026-04-26T09:45:54.999Z</time></trkpt><trkpt lat="43.16490914602916" lon="11.391081440289819"><ele>274.3333333333333</ele><time>2026-04-26T09:45:55.999Z</time></trkpt><trkpt lat="43.16473008012257" lon="11.39113843103148"><ele>274.6666666666667</ele><time>2026-04-26T09:45:56.999Z</time></trkpt><trkpt lat="43.16454885687789" lon="11.391185875908818"><ele>275.0</ele><time>2026-04-26T09:45:57.999Z</time></trkpt><trkpt lat="43.1643593500284" lon="11.391232595560727"><ele>275.0</ele><time>2026-04-26T09:45:58.999Z</time></trkpt><trkpt lat="43.16416321136955" lon="11.39127929818231"><ele>275.0</ele><time>2026-04-26T09:45:59.999Z</time></trkpt><trkpt lat="43.16396207190112" lon="11.391329202624956"><ele>275.0</ele><time>2026-04-26T09:46:00.999Z</time></trkpt><trkpt lat="43.16376463153944" lon="11.391381568322641"><ele>275.6666666666667</ele><time>2026-04-26T09:46:01.999Z</time></trkpt><trkpt lat="43.16356600330683" lon="11.391431551671095"><ele>276.3333333333333</ele><time>2026-04-26T09:46:02.999Z</time></trkpt><trkpt lat="43.163359741343875" lon="11.39147204681604"><ele>277.0</ele><time>2026-04-26T09:46:03.999Z</time></trkpt><trkpt lat="43.16315775831698" lon="11.391504891259743"><ele>278.66666666666663</ele><time>2026-04-26T09:46:04.999Z</time></trkpt><trkpt lat="43.16295961824027" lon="11.391540170267008"><ele>280.3333333333333</ele><time>2026-04-26T09:46:05.999Z</time></trkpt><trkpt lat="43.162764824671484" lon="11.391578539706797"><ele>282.0</ele><time>2026-04-26T09:46:06.999Z</time></trkpt><trkpt lat="43.16257389632861" lon="11.39160924131242"><ele>282.0</ele><time>2026-04-26T09:46:07.999Z</time></trkpt><trkpt lat="43.16239308848451" lon="11.39163226529398"><ele>282.0</ele><time>2026-04-26T09:46:08.999Z</time></trkpt><trkpt lat="43.16221956786556" lon="11.391652982956968"><ele>282.0</ele><time>2026-04-26T09:46:09.999Z</time></trkpt><trkpt lat="43.162055563041946" lon="11.391683377138586"><ele>282.0</ele><time>2026-04-26T09:46:10.999Z</time></trkpt><trkpt lat="43.16190482104277" lon="11.391743956816493"><ele>282.0</ele><time>2026-04-26T09:46:11.999Z</time></trkpt><trkpt lat="43.16178775030244" lon="11.39185034690581"><ele>282.0</ele><time>2026-04-26T09:46:12.999Z</time></trkpt><trkpt lat="43.16170010376977" lon="11.39201296179976"><ele>282.0</ele><time>2026-04-26T09:46:13.999Z</time></trkpt><trkpt lat="43.16163347936249" lon="11.392209449366312"><ele>282.0</ele><time>2026-04-26T09:46:14.999Z</time></trkpt><trkpt lat="43.16157071119278" lon="11.392423188252975"><ele>282.0</ele><time>2026-04-26T09:46:15.999Z</time></trkpt><trkpt lat="43.16151178133558" lon="11.392624326207295"><ele>282.0</ele><time>2026-04-26T09:46:16.999Z</time></trkpt><trkpt lat="43.16142666800253" lon="11.392811133655266"><ele>281.0</ele><time>2026-04-26T09:46:17.999Z</time></trkpt><trkpt lat="43.161303363666406" lon="11.39296237997383"><ele>280.0</ele><time>2026-04-26T09:46:18.999Z</time></trkpt><trkpt lat="43.16115260588772" lon="11.393073544738845"><ele>279.0</ele><time>2026-04-26T09:46:19.999Z</time></trkpt><trkpt lat="43.16097399450983" lon="11.39315428758838"><ele>279.0</ele><time>2026-04-26T09:46:20.999Z</time></trkpt><trkpt lat="43.1607861847926" lon="11.393223517936576"><ele>279.0</ele><time>2026-04-26T09:46:21.999Z</time></trkpt><trkpt lat="43.16059294210646" lon="11.39330649971382"><ele>279.0</ele><time>2026-04-26T09:46:22.999Z</time></trkpt><trkpt lat="43.16039742770015" lon="11.393397793022176"><ele>278.3333333333333</ele><time>2026-04-26T09:46:23.999Z</time></trkpt><trkpt lat="43.16020085782178" lon="11.3934892191683"><ele>277.66666666666663</ele><time>2026-04-26T09:46:24.999Z</time></trkpt><trkpt lat="43.16000780305853" lon="11.393578790714072"><ele>277.0</ele><time>2026-04-26T09:46:25.999Z</time></trkpt><trkpt lat="43.159820238672275" lon="11.393681727998443"><ele>276.66666666666663</ele><time>2026-04-26T09:46:26.999Z</time></trkpt><trkpt lat="43.15964214962493" lon="11.393799596734159"><ele>276.3333333333333</ele><time>2026-04-26T09:46:27.999Z</time></trkpt><trkpt lat="43.15947493390856" lon="11.39393641568225"><ele>276.0</ele><time>2026-04-26T09:46:28.999Z</time></trkpt><trkpt lat="43.15931452214141" lon="11.394093455745168"><ele>276.0</ele><time>2026-04-26T09:46:29.999Z</time></trkpt><trkpt lat="43.1591554726487" lon="11.394263811943116"><ele>276.0</ele><time>2026-04-26T09:46:30.999Z</time></trkpt><trkpt lat="43.15900588170639" lon="11.394458189856799"><ele>276.0</ele><time>2026-04-26T09:46:31.999Z</time></trkpt><trkpt lat="43.1588629361525" lon="11.39466471556703"><ele>277.0</ele><time>2026-04-26T09:46:32.998Z</time></trkpt><trkpt lat="43.158751908236155" lon="11.394884192188352"><ele>278.0</ele><time>2026-04-26T09:46:33.998Z</time></trkpt><trkpt lat="43.15868216782914" lon="11.395119224676185"><ele>279.0</ele><time>2026-04-26T09:46:34.998Z</time></trkpt><trkpt lat="43.15863612202391" lon="11.395366692266581"><ele>279.0</ele><time>2026-04-26T09:46:35.998Z</time></trkpt><trkpt lat="43.15861367188492" lon="11.39562996859197"><ele>279.0</ele><time>2026-04-26T09:46:36.998Z</time></trkpt><trkpt lat="43.1586038851493" lon="11.395911669204677"><ele>279.0</ele><time>2026-04-26T09:46:37.998Z</time></trkpt><trkpt lat="43.15859587590129" lon="11.396188966968907"><ele>279.3333333333333</ele><time>2026-04-26T09:46:38.998Z</time></trkpt><trkpt lat="43.15859248453766" lon="11.396466851740797"><ele>279.66666666666663</ele><time>2026-04-26T09:46:39.998Z</time></trkpt><trkpt lat="43.158589563421316" lon="11.396722528604867"><ele>280.0</ele><time>2026-04-26T09:46:40.998Z</time></trkpt><trkpt lat="43.158588595953034" lon="11.396971677579904"><ele>280.0</ele><time>2026-04-26T09:46:41.998Z</time></trkpt><trkpt lat="43.15858317565173" lon="11.397207859369663"><ele>280.0</ele><time>2026-04-26T09:46:42.998Z</time></trkpt><trkpt lat="43.15858433642407" lon="11.39743053330624"><ele>280.0</ele><time>2026-04-26T09:46:43.998Z</time></trkpt><trkpt lat="43.15859118485221" lon="11.397642113119051"><ele>280.0</ele><time>2026-04-26T09:46:44.998Z</time></trkpt><trkpt lat="43.15860805398801" lon="11.397861045761283"><ele>280.0</ele><time>2026-04-26T09:46:45.998Z</time></trkpt><trkpt lat="43.158637507519096" lon="11.398080569245455"><ele>280.0</ele><time>2026-04-26T09:46:46.998Z</time></trkpt><trkpt lat="43.15869743087652" lon="11.398290701405182"><ele>280.66666666666663</ele><time>2026-04-26T09:46:47.998Z</time></trkpt><trkpt lat="43.15873497715121" lon="11.398512904584573"><ele>281.3333333333333</ele><time>2026-04-26T09:46:48.998Z</time></trkpt><trkpt lat="43.158799770730134" lon="11.398717990995323"><ele>282.0</ele><time>2026-04-26T09:46:49.998Z</time></trkpt><trkpt lat="43.15884113904789" lon="11.398934863411016"><ele>282.5</ele><time>2026-04-26T09:46:50.998Z</time></trkpt><trkpt lat="43.15885476798409" lon="11.399150676495456"><ele>283.0</ele><time>2026-04-26T09:46:51.998Z</time></trkpt><trkpt lat="43.15884001388059" lon="11.399336273614672"><ele>283.5</ele><time>2026-04-26T09:46:52.998Z</time></trkpt><trkpt lat="43.158824624391855" lon="11.3994970973882"><ele>284.0</ele><time>2026-04-26T09:46:53.998Z</time></trkpt><trkpt lat="43.158756191327846" lon="11.399602137747353"><ele>284.0</ele><time>2026-04-26T09:46:54.998Z</time></trkpt><trkpt lat="43.158688106741394" lon="11.399659743304232"><ele>284.0</ele><time>2026-04-26T09:46:55.998Z</time></trkpt><trkpt lat="43.158608119384645" lon="11.399648209773913"><ele>284.0</ele><time>2026-04-26T09:46:56.998Z</time></trkpt><trkpt lat="43.15849259795389" lon="11.39962413781242"><ele>284.0</ele><time>2026-04-26T09:46:57.998Z</time></trkpt><trkpt lat="43.158339847148326" lon="11.399607493053546"><ele>284.0</ele><time>2026-04-26T09:46:58.998Z</time></trkpt><trkpt lat="43.15818700587673" lon="11.399611371911822"><ele>285.5</ele><time>2026-04-26T09:46:59.998Z</time></trkpt><trkpt lat="43.15803985412574" lon="11.399644459182051"><ele>287.0</ele><time>2026-04-26T09:47:00.998Z</time></trkpt><trkpt lat="43.15791330071657" lon="11.399705138028635"><ele>288.5</ele><time>2026-04-26T09:47:01.998Z</time></trkpt><trkpt lat="43.15779626017244" lon="11.39981358665084"><ele>290.0</ele><time>2026-04-26T09:47:02.998Z</time></trkpt><trkpt lat="43.15769132673418" lon="11.399929136247758"><ele>290.0</ele><time>2026-04-26T09:47:03.998Z</time></trkpt><trkpt lat="43.15758043835454" lon="11.400020847282889"><ele>290.0</ele><time>2026-04-26T09:47:04.998Z</time></trkpt><trkpt lat="43.157454783623024" lon="11.400105661918339"><ele>290.0</ele><time>2026-04-26T09:47:05.998Z</time></trkpt><trkpt lat="43.15731753744625" lon="11.400169472919671"><ele>290.0</ele><time>2026-04-26T09:47:06.998Z</time></trkpt><trkpt lat="43.157157754137565" lon="11.400174664295855"><ele>291.33333333333337</ele><time>2026-04-26T09:47:07.998Z</time></trkpt><trkpt lat="43.15700396481788" lon="11.400135662092017"><ele>292.6666666666667</ele><time>2026-04-26T09:47:08.998Z</time></trkpt><trkpt lat="43.15685435472931" lon="11.40008765872218"><ele>294.0</ele><time>2026-04-26T09:47:09.998Z</time></trkpt><trkpt lat="43.156717471119904" lon="11.40003836705186"><ele>294.0</ele><time>2026-04-26T09:47:10.998Z</time></trkpt><trkpt lat="43.15658958085585" lon="11.400010427421677"><ele>294.0</ele><time>2026-04-26T09:47:11.998Z</time></trkpt><trkpt lat="43.156466284898514" lon="11.399985521396946"><ele>294.0</ele><time>2026-04-26T09:47:12.998Z</time></trkpt><trkpt lat="43.15636008481038" lon="11.400057760708695"><ele>294.0</ele><time>2026-04-26T09:47:13.998Z</time></trkpt><trkpt lat="43.156288307715734" lon="11.400147633412827"><ele>296.59999999999997</ele><time>2026-04-26T09:47:14.998Z</time></trkpt><trkpt lat="43.156242239688225" lon="11.400286041466455"><ele>299.2</ele><time>2026-04-26T09:47:15.998Z</time></trkpt><trkpt lat="43.1562315453316" lon="11.400426006507177"><ele>301.79999999999995</ele><time>2026-04-26T09:47:16.998Z</time></trkpt><trkpt lat="43.156244855012986" lon="11.400566762004026"><ele>304.4</ele><time>2026-04-26T09:47:17.998Z</time></trkpt><trkpt lat="43.15630670441143" lon="11.400692133177854"><ele>307.0</ele><time>2026-04-26T09:47:18.998Z</time></trkpt><trkpt lat="43.156373502051345" lon="11.400845314827333"><ele>307.25</ele><time>2026-04-26T09:47:19.998Z</time></trkpt><trkpt lat="43.156435664674106" lon="11.400983543037839"><ele>307.5</ele><time>2026-04-26T09:47:20.998Z</time></trkpt><trkpt lat="43.15650977219087" lon="11.401151268486986"><ele>307.75</ele><time>2026-04-26T09:47:21.998Z</time></trkpt><trkpt lat="43.156575518594224" lon="11.40132174112047"><ele>308.0</ele><time>2026-04-26T09:47:22.998Z</time></trkpt><trkpt lat="43.15663506418861" lon="11.401543854894246"><ele>300.33333333333337</ele><time>2026-04-26T09:47:24Z</time></trkpt><trkpt lat="43.15662268784274" lon="11.401832645082647"><ele>292.6666666666667</ele><time>2026-04-26T09:47:25Z</time></trkpt><trkpt lat="43.15658403487146" lon="11.402068111923299"><ele>285.0</ele><time>2026-04-26T09:47:26Z</time></trkpt><trkpt lat="43.15654137439521" lon="11.40231483161494"><ele>289.3333333333333</ele><time>2026-04-26T09:47:27Z</time></trkpt><trkpt lat="43.156490417630415" lon="11.402609531447206"><ele>293.66666666666663</ele><time>2026-04-26T09:47:28Z</time></trkpt><trkpt lat="43.15644542407805" lon="11.402872025678967"><ele>298.0</ele><time>2026-04-26T09:47:29Z</time></trkpt><trkpt lat="43.156407503112696" lon="11.403154144206754"><ele>298.0</ele><time>2026-04-26T09:47:30Z</time></trkpt><trkpt lat="43.15637891565006" lon="11.403418307523866"><ele>298.0</ele><time>2026-04-26T09:47:31Z</time></trkpt><trkpt lat="43.15636422783704" lon="11.40363451717405"><ele>298.0</ele><time>2026-04-26T09:47:32Z</time></trkpt><trkpt lat="43.15634401291165" lon="11.403781517816613"><ele>296.5</ele><time>2026-04-26T09:47:33Z</time></trkpt><trkpt lat="43.15633730197458" lon="11.403993260313568"><ele>295.0</ele><time>2026-04-26T09:47:34Z</time></trkpt><trkpt lat="43.15632060712626" lon="11.404196372574583"><ele>293.5</ele><time>2026-04-26T09:47:35Z</time></trkpt><trkpt lat="43.15629199514928" lon="11.404389013217772"><ele>292.0</ele><time>2026-04-26T09:47:36Z</time></trkpt><trkpt lat="43.156185402820675" lon="11.40451208731606"><ele>292.0</ele><time>2026-04-26T09:47:37Z</time></trkpt><trkpt lat="43.15607615117728" lon="11.404622780328365"><ele>292.0</ele><time>2026-04-26T09:47:38Z</time></trkpt><trkpt lat="43.155962343088596" lon="11.40471791480904"><ele>292.0</ele><time>2026-04-26T09:47:39Z</time></trkpt><trkpt lat="43.15584290337265" lon="11.404804441599204"><ele>292.0</ele><time>2026-04-26T09:47:40Z</time></trkpt><trkpt lat="43.15570673630906" lon="11.404864362371788"><ele>289.66666666666663</ele><time>2026-04-26T09:47:41Z</time></trkpt><trkpt lat="43.155545735607404" lon="11.404883696798228"><ele>287.3333333333333</ele><time>2026-04-26T09:47:42Z</time></trkpt><trkpt lat="43.15538534603301" lon="11.404898442573126"><ele>285.0</ele><time>2026-04-26T09:47:42.999Z</time></trkpt><trkpt lat="43.15518928252563" lon="11.40495013666866"><ele>285.0</ele><time>2026-04-26T09:47:43.999Z</time></trkpt><trkpt lat="43.15501621561287" lon="11.405025791050559"><ele>285.0</ele><time>2026-04-26T09:47:44.999Z</time></trkpt><trkpt lat="43.154850988090345" lon="11.405099875623756"><ele>285.0</ele><time>2026-04-26T09:47:45.999Z</time></trkpt><trkpt lat="43.15469500268763" lon="11.405186013217687"><ele>287.25</ele><time>2026-04-26T09:47:46.999Z</time></trkpt><trkpt lat="43.15457225663825" lon="11.405223961878047"><ele>289.5</ele><time>2026-04-26T09:47:47.999Z</time></trkpt><trkpt lat="43.15445397235566" lon="11.405260802587993"><ele>291.75</ele><time>2026-04-26T09:47:48.999Z</time></trkpt><trkpt lat="43.15434632894061" lon="11.405324097708094"><ele>294.0</ele><time>2026-04-26T09:47:49.999Z</time></trkpt><trkpt lat="43.15421252370748" lon="11.405421056628372"><ele>292.0</ele><time>2026-04-26T09:47:50.999Z</time></trkpt><trkpt lat="43.154081346855946" lon="11.40551998945602"><ele>290.0</ele><time>2026-04-26T09:47:51.999Z</time></trkpt><trkpt lat="43.15394411662347" lon="11.405550773775634"><ele>288.0</ele><time>2026-04-26T09:47:52.999Z</time></trkpt><trkpt lat="43.15379944072455" lon="11.405591504995154"><ele>286.0</ele><time>2026-04-26T09:47:53.999Z</time></trkpt><trkpt lat="43.15363308846252" lon="11.405621383477095"><ele>286.0</ele><time>2026-04-26T09:47:54.999Z</time></trkpt><trkpt lat="43.153470472773535" lon="11.405689553317474"><ele>286.0</ele><time>2026-04-26T09:47:55.999Z</time></trkpt><trkpt lat="43.15330938744742" lon="11.405749104376612"><ele>286.0</ele><time>2026-04-26T09:47:56.999Z</time></trkpt><trkpt lat="43.15316548867369" lon="11.405866434878721"><ele>289.3333333333333</ele><time>2026-04-26T09:47:57.999Z</time></trkpt><trkpt lat="43.1530273238245" lon="11.406007799734239"><ele>292.6666666666667</ele><time>2026-04-26T09:47:58.999Z</time></trkpt><trkpt lat="43.15289048469266" lon="11.406141732705393"><ele>296.0</ele><time>2026-04-26T09:47:59.999Z</time></trkpt><trkpt lat="43.15274198863532" lon="11.406270486525107"><ele>291.6666666666667</ele><time>2026-04-26T09:48:00.999Z</time></trkpt><trkpt lat="43.15259658282878" lon="11.406372866185103"><ele>287.3333333333333</ele><time>2026-04-26T09:48:01.999Z</time></trkpt><trkpt lat="43.152455051564104" lon="11.406463319573353"><ele>283.0</ele><time>2026-04-26T09:48:02.999Z</time></trkpt><trkpt lat="43.152300211901874" lon="11.406541537389154"><ele>283.0</ele><time>2026-04-26T09:48:03.999Z</time></trkpt><trkpt lat="43.15213565166987" lon="11.406583160499332"><ele>283.0</ele><time>2026-04-26T09:48:04.999Z</time></trkpt><trkpt lat="43.15196271210792" lon="11.406602445753906"><ele>283.0</ele><time>2026-04-26T09:48:05.999Z</time></trkpt><trkpt lat="43.15177089237729" lon="11.406615443074102"><ele>283.0</ele><time>2026-04-26T09:48:06.999Z</time></trkpt><trkpt lat="43.151559985591305" lon="11.40663134509775"><ele>283.0</ele><time>2026-04-26T09:48:07.999Z</time></trkpt><trkpt lat="43.15135834518196" lon="11.406673431572202"><ele>283.0</ele><time>2026-04-26T09:48:08.999Z</time></trkpt><trkpt lat="43.151137322878995" lon="11.40674463200745"><ele>282.3333333333333</ele><time>2026-04-26T09:48:09.999Z</time></trkpt><trkpt lat="43.15093230531287" lon="11.406791976470968"><ele>281.6666666666667</ele><time>2026-04-26T09:48:10.999Z</time></trkpt><trkpt lat="43.15072385814143" lon="11.406796578342584"><ele>281.0</ele><time>2026-04-26T09:48:11.999Z</time></trkpt><trkpt lat="43.150500973673815" lon="11.406762507545773"><ele>281.0</ele><time>2026-04-26T09:48:12.999Z</time></trkpt><trkpt lat="43.15031213963819" lon="11.40670273683669"><ele>281.0</ele><time>2026-04-26T09:48:13.999Z</time></trkpt><trkpt lat="43.15015890504038" lon="11.406610590705114"><ele>281.0</ele><time>2026-04-26T09:48:14.999Z</time></trkpt><trkpt lat="43.15005094753386" lon="11.406477798453736"><ele>285.33333333333337</ele><time>2026-04-26T09:48:15.999Z</time></trkpt><trkpt lat="43.149941276534705" lon="11.406320213817803"><ele>289.6666666666667</ele><time>2026-04-26T09:48:16.999Z</time></trkpt><trkpt lat="43.14979752300715" lon="11.406198815207972"><ele>294.0</ele><time>2026-04-26T09:48:17.999Z</time></trkpt><trkpt lat="43.1496005215602" lon="11.40618824071799"><ele>294.25</ele><time>2026-04-26T09:48:18.999Z</time></trkpt><trkpt lat="43.14944248450575" lon="11.406276452988987"><ele>294.5</ele><time>2026-04-26T09:48:19.999Z</time></trkpt><trkpt lat="43.14932690900376" lon="11.406397158434716"><ele>294.75</ele><time>2026-04-26T09:48:20.999Z</time></trkpt><trkpt lat="43.149242742941595" lon="11.406536496998555"><ele>295.0</ele><time>2026-04-26T09:48:21.999Z</time></trkpt><trkpt lat="43.14912718131362" lon="11.40662629441054"><ele>293.0</ele><time>2026-04-26T09:48:22.999Z</time></trkpt><trkpt lat="43.14896925003143" lon="11.406715920837138"><ele>291.0</ele><time>2026-04-26T09:48:23.999Z</time></trkpt><trkpt lat="43.148817487592424" lon="11.406836018867743"><ele>289.0</ele><time>2026-04-26T09:48:24.999Z</time></trkpt><trkpt lat="43.148663413459026" lon="11.406957946258183"><ele>289.0</ele><time>2026-04-26T09:48:25.999Z</time></trkpt><trkpt lat="43.14848832183074" lon="11.406896195604304"><ele>289.0</ele><time>2026-04-26T09:48:26.999Z</time></trkpt><trkpt lat="43.14838532730476" lon="11.40701260635189"><ele>289.0</ele><time>2026-04-26T09:48:27.999Z</time></trkpt><trkpt lat="43.14830374962821" lon="11.407173376127776"><ele>290.0</ele><time>2026-04-26T09:48:28.999Z</time></trkpt><trkpt lat="43.148225525633485" lon="11.407358998770322"><ele>291.0</ele><time>2026-04-26T09:48:29.999Z</time></trkpt><trkpt lat="43.14812118909216" lon="11.407557007098372"><ele>292.0</ele><time>2026-04-26T09:48:30.999Z</time></trkpt><trkpt lat="43.14802295224251" lon="11.407754694942422"><ele>290.0</ele><time>2026-04-26T09:48:31.999Z</time></trkpt><trkpt lat="43.14792533544398" lon="11.407997313719415"><ele>288.0</ele><time>2026-04-26T09:48:32.999Z</time></trkpt><trkpt lat="43.147853187972416" lon="11.408255636547379"><ele>286.0</ele><time>2026-04-26T09:48:33.999Z</time></trkpt><trkpt lat="43.147837558825934" lon="11.408527270671804"><ele>286.0</ele><time>2026-04-26T09:48:34.999Z</time></trkpt><trkpt lat="43.14780857180641" lon="11.408769150488187"><ele>286.0</ele><time>2026-04-26T09:48:35.998Z</time></trkpt><trkpt lat="43.14777813236088" lon="11.409052576788431"><ele>286.0</ele><time>2026-04-26T09:48:36.998Z</time></trkpt><trkpt lat="43.147731448790985" lon="11.409307864120954"><ele>284.0</ele><time>2026-04-26T09:48:37.998Z</time></trkpt><trkpt lat="43.14768337045284" lon="11.409578761769229"><ele>282.0</ele><time>2026-04-26T09:48:38.998Z</time></trkpt><trkpt lat="43.147654795440026" lon="11.409827793506064"><ele>280.0</ele><time>2026-04-26T09:48:39.998Z</time></trkpt><trkpt lat="43.14761502427521" lon="11.410059030040927"><ele>277.66666666666663</ele><time>2026-04-26T09:48:40.998Z</time></trkpt><trkpt lat="43.14754298179879" lon="11.410262205002592"><ele>275.3333333333333</ele><time>2026-04-26T09:48:41.998Z</time></trkpt><trkpt lat="43.1474399335846" lon="11.410426795962783"><ele>273.0</ele><time>2026-04-26T09:48:42.998Z</time></trkpt><trkpt lat="43.14731055228472" lon="11.410554577163408"><ele>270.6666666666667</ele><time>2026-04-26T09:48:43.998Z</time></trkpt><trkpt lat="43.147148641882524" lon="11.410657447663462"><ele>268.33333333333337</ele><time>2026-04-26T09:48:44.998Z</time></trkpt><trkpt lat="43.146992077827825" lon="11.41074822363162"><ele>266.0</ele><time>2026-04-26T09:48:45.998Z</time></trkpt><trkpt lat="43.14685391991317" lon="11.41090954689997"><ele>266.0</ele><time>2026-04-26T09:48:46.998Z</time></trkpt><trkpt lat="43.146725973562624" lon="11.411060126948502"><ele>266.0</ele><time>2026-04-26T09:48:47.998Z</time></trkpt><trkpt lat="43.14658721989536" lon="11.41123064708933"><ele>266.0</ele><time>2026-04-26T09:48:48.998Z</time></trkpt><trkpt lat="43.14645965479588" lon="11.41141159098216"><ele>264.33333333333337</ele><time>2026-04-26T09:48:49.998Z</time></trkpt><trkpt lat="43.146351278007224" lon="11.411599896261274"><ele>262.6666666666667</ele><time>2026-04-26T09:48:50.998Z</time></trkpt><trkpt lat="43.1462437824262" lon="11.411771335017656"><ele>261.0</ele><time>2026-04-26T09:48:51.998Z</time></trkpt><trkpt lat="43.14613822045479" lon="11.411950449340978"><ele>261.0</ele><time>2026-04-26T09:48:52.998Z</time></trkpt><trkpt lat="43.14604957501748" lon="11.412156581190423"><ele>261.0</ele><time>2026-04-26T09:48:53.998Z</time></trkpt><trkpt lat="43.14597652259261" lon="11.412376253682272"><ele>261.0</ele><time>2026-04-26T09:48:54.998Z</time></trkpt><trkpt lat="43.14591846892252" lon="11.412604582976329"><ele>258.3333333333333</ele><time>2026-04-26T09:48:55.998Z</time></trkpt><trkpt lat="43.145869498630226" lon="11.412827661204908"><ele>255.66666666666666</ele><time>2026-04-26T09:48:56.998Z</time></trkpt><trkpt lat="43.14581653451071" lon="11.41304207450953"><ele>253.0</ele><time>2026-04-26T09:48:57.998Z</time></trkpt><trkpt lat="43.14574428516301" lon="11.413255948425245"><ele>250.66666666666666</ele><time>2026-04-26T09:48:58.998Z</time></trkpt><trkpt lat="43.145650705738035" lon="11.413462852843928"><ele>248.33333333333331</ele><time>2026-04-26T09:48:59.998Z</time></trkpt><trkpt lat="43.145538830343064" lon="11.413656327433806"><ele>246.0</ele><time>2026-04-26T09:49:00.998Z</time></trkpt><trkpt lat="43.14542797687883" lon="11.413810140180555"><ele>244.66666666666669</ele><time>2026-04-26T09:49:01.998Z</time></trkpt><trkpt lat="43.1453280369997" lon="11.413969737898807"><ele>243.33333333333334</ele><time>2026-04-26T09:49:02.998Z</time></trkpt><trkpt lat="43.145255769665674" lon="11.414151306725664"><ele>242.0</ele><time>2026-04-26T09:49:03.998Z</time></trkpt><trkpt lat="43.1452113814794" lon="11.41435692643305"><ele>242.0</ele><time>2026-04-26T09:49:04.998Z</time></trkpt><trkpt lat="43.14521205546423" lon="11.414565617394187"><ele>242.0</ele><time>2026-04-26T09:49:05.998Z</time></trkpt><trkpt lat="43.145265839902756" lon="11.414757306295897"><ele>242.0</ele><time>2026-04-26T09:49:06.998Z</time></trkpt><trkpt lat="43.14536319507701" lon="11.414913880579055"><ele>240.0</ele><time>2026-04-26T09:49:07.998Z</time></trkpt><trkpt lat="43.14548997566002" lon="11.415062994225982"><ele>238.0</ele><time>2026-04-26T09:49:08.998Z</time></trkpt><trkpt lat="43.14560368561629" lon="11.415233928782484"><ele>236.0</ele><time>2026-04-26T09:49:09.998Z</time></trkpt><trkpt lat="43.14569550810957" lon="11.415436131688804"><ele>237.0</ele><time>2026-04-26T09:49:10.998Z</time></trkpt><trkpt lat="43.14575747003803" lon="11.41566942287379"><ele>238.0</ele><time>2026-04-26T09:49:11.998Z</time></trkpt><trkpt lat="43.145791856687424" lon="11.415927089805882"><ele>239.0</ele><time>2026-04-26T09:49:12.998Z</time></trkpt><trkpt lat="43.1457852540474" lon="11.416200498889461"><ele>238.0</ele><time>2026-04-26T09:49:13.998Z</time></trkpt><trkpt lat="43.14575483154771" lon="11.416475111321256"><ele>237.0</ele><time>2026-04-26T09:49:14.998Z</time></trkpt><trkpt lat="43.14572647091571" lon="11.41672321363215"><ele>236.0</ele><time>2026-04-26T09:49:15.998Z</time></trkpt><trkpt lat="43.145696553703644" lon="11.416980893190582"><ele>229.66666666666669</ele><time>2026-04-26T09:49:16.998Z</time></trkpt><trkpt lat="43.14565163660944" lon="11.417236996568073"><ele>223.33333333333331</ele><time>2026-04-26T09:49:17.998Z</time></trkpt><trkpt lat="43.145582782998545" lon="11.417487126184993"><ele>217.0</ele><time>2026-04-26T09:49:18.998Z</time></trkpt><trkpt lat="43.1455052933075" lon="11.417731633077146"><ele>217.0</ele><time>2026-04-26T09:49:19.998Z</time></trkpt><trkpt lat="43.14544075659018" lon="11.417981620999491"><ele>217.0</ele><time>2026-04-26T09:49:20.998Z</time></trkpt><trkpt lat="43.1453915631405" lon="11.418234856038572"><ele>217.0</ele><time>2026-04-26T09:49:21.998Z</time></trkpt><trkpt lat="43.14536857804838" lon="11.418487804729166"><ele>216.0</ele><time>2026-04-26T09:49:22.998Z</time></trkpt><trkpt lat="43.145368196841915" lon="11.41871994545423"><ele>215.0</ele><time>2026-04-26T09:49:23.998Z</time></trkpt><trkpt lat="43.14536875281838" lon="11.418967221422376"><ele>214.0</ele><time>2026-04-26T09:49:24.998Z</time></trkpt><trkpt lat="43.145353756463734" lon="11.419228485307618"><ele>213.66666666666666</ele><time>2026-04-26T09:49:25.998Z</time></trkpt><trkpt lat="43.145322129633655" lon="11.419480140302104"><ele>213.33333333333331</ele><time>2026-04-26T09:49:26.998Z</time></trkpt><trkpt lat="43.1452666288128" lon="11.419727834260764"><ele>213.0</ele><time>2026-04-26T09:49:27.998Z</time></trkpt><trkpt lat="43.14520302062488" lon="11.419963017144392"><ele>212.0</ele><time>2026-04-26T09:49:28.998Z</time></trkpt><trkpt lat="43.14516946268655" lon="11.420200893027486"><ele>211.0</ele><time>2026-04-26T09:49:30Z</time></trkpt><trkpt lat="43.14515830307345" lon="11.420440307222126"><ele>210.0</ele><time>2026-04-26T09:49:31Z</time></trkpt><trkpt lat="43.14516642579025" lon="11.420661894250395"><ele>209.0</ele><time>2026-04-26T09:49:32Z</time></trkpt><trkpt lat="43.14516245477719" lon="11.42088516670398"><ele>208.0</ele><time>2026-04-26T09:49:33Z</time></trkpt><trkpt lat="43.14513631217496" lon="11.421104676099494"><ele>207.0</ele><time>2026-04-26T09:49:34Z</time></trkpt><trkpt lat="43.14508166459306" lon="11.421306546621306"><ele>206.75</ele><time>2026-04-26T09:49:35Z</time></trkpt><trkpt lat="43.14500083087315" lon="11.421473340496402"><ele>206.5</ele><time>2026-04-26T09:49:36Z</time></trkpt><trkpt lat="43.14489654459787" lon="11.42161231581455"><ele>206.25</ele><time>2026-04-26T09:49:37Z</time></trkpt><trkpt lat="43.14476582256618" lon="11.421709902206704"><ele>206.0</ele><time>2026-04-26T09:49:38Z</time></trkpt><trkpt lat="43.144617832221556" lon="11.421784570542693"><ele>205.0</ele><time>2026-04-26T09:49:39Z</time></trkpt><trkpt lat="43.14445389637841" lon="11.42185492422747"><ele>204.0</ele><time>2026-04-26T09:49:40Z</time></trkpt><trkpt lat="43.14427624112693" lon="11.42191448685756"><ele>203.0</ele><time>2026-04-26T09:49:41Z</time></trkpt><trkpt lat="43.14409444867356" lon="11.421960931920683"><ele>201.66666666666669</ele><time>2026-04-26T09:49:42Z</time></trkpt><trkpt lat="43.14389298812772" lon="11.421958921560226"><ele>200.33333333333331</ele><time>2026-04-26T09:49:43Z</time></trkpt><trkpt lat="43.143693483014154" lon="11.421921853082429"><ele>199.0</ele><time>2026-04-26T09:49:44Z</time></trkpt><trkpt lat="43.143497420083925" lon="11.421846132730204"><ele>199.0</ele><time>2026-04-26T09:49:45Z</time></trkpt><trkpt lat="43.14329690709567" lon="11.42175673878895"><ele>199.0</ele><time>2026-04-26T09:49:46Z</time></trkpt><trkpt lat="43.14308025488333" lon="11.421673333542898"><ele>199.0</ele><time>2026-04-26T09:49:47Z</time></trkpt><trkpt lat="43.14287193027395" lon="11.421609802115032"><ele>198.66666666666666</ele><time>2026-04-26T09:49:47.999Z</time></trkpt><trkpt lat="43.14268125244321" lon="11.421539133283414"><ele>198.33333333333331</ele><time>2026-04-26T09:49:48.999Z</time></trkpt><trkpt lat="43.14247500140187" lon="11.421480426255757"><ele>198.0</ele><time>2026-04-26T09:49:49.999Z</time></trkpt><trkpt lat="43.14227187128267" lon="11.421464302157498"><ele>196.33333333333331</ele><time>2026-04-26T09:49:50.999Z</time></trkpt><trkpt lat="43.142067820745616" lon="11.421493339247332"><ele>194.66666666666666</ele><time>2026-04-26T09:49:51.999Z</time></trkpt><trkpt lat="43.14187572251858" lon="11.421563761388478"><ele>193.0</ele><time>2026-04-26T09:49:52.999Z</time></trkpt><trkpt lat="43.14170040550467" lon="11.421629866512003"><ele>194.66666666666666</ele><time>2026-04-26T09:49:53.999Z</time></trkpt><trkpt lat="43.14153707882466" lon="11.42166659767425"><ele>196.33333333333331</ele><time>2026-04-26T09:49:54.999Z</time></trkpt><trkpt lat="43.141382478393176" lon="11.421671586441192"><ele>198.0</ele><time>2026-04-26T09:49:55.999Z</time></trkpt><trkpt lat="43.14122342293267" lon="11.421627637429383"><ele>198.0</ele><time>2026-04-26T09:49:56.999Z</time></trkpt><trkpt lat="43.14107947904856" lon="11.421533761377143"><ele>198.0</ele><time>2026-04-26T09:49:57.999Z</time></trkpt><trkpt lat="43.14093649579996" lon="11.421396979665138"><ele>198.0</ele><time>2026-04-26T09:49:58.999Z</time></trkpt><trkpt lat="43.14079966804473" lon="11.421243495674679"><ele>198.33333333333331</ele><time>2026-04-26T09:49:59.999Z</time></trkpt><trkpt lat="43.14065582522703" lon="11.421103221537342"><ele>198.66666666666666</ele><time>2026-04-26T09:50:00.999Z</time></trkpt><trkpt lat="43.140507709219335" lon="11.420974994420673"><ele>199.0</ele><time>2026-04-26T09:50:01.999Z</time></trkpt><trkpt lat="43.14034698823311" lon="11.420874384107062"><ele>199.0</ele><time>2026-04-26T09:50:02.999Z</time></trkpt><trkpt lat="43.140168378446845" lon="11.420800192745343"><ele>199.0</ele><time>2026-04-26T09:50:03.999Z</time></trkpt><trkpt lat="43.14000466947034" lon="11.420742015032447"><ele>199.0</ele><time>2026-04-26T09:50:04.999Z</time></trkpt><trkpt lat="43.13983786156763" lon="11.420726866493077"><ele>199.33333333333331</ele><time>2026-04-26T09:50:05.999Z</time></trkpt><trkpt lat="43.13966564413525" lon="11.420735022250886"><ele>199.66666666666669</ele><time>2026-04-26T09:50:06.999Z</time></trkpt><trkpt lat="43.139495895024034" lon="11.42078192173485"><ele>200.0</ele><time>2026-04-26T09:50:07.999Z</time></trkpt><trkpt lat="43.13933465838209" lon="11.420845581825104"><ele>200.0</ele><time>2026-04-26T09:50:08.999Z</time></trkpt><trkpt lat="43.139188175763266" lon="11.420927932051884"><ele>200.0</ele><time>2026-04-26T09:50:09.999Z</time></trkpt><trkpt lat="43.139030078753706" lon="11.421023248763081"><ele>200.0</ele><time>2026-04-26T09:50:10.999Z</time></trkpt><trkpt lat="43.1388237043864" lon="11.421117133167611"><ele>200.33333333333334</ele><time>2026-04-26T09:50:11.999Z</time></trkpt><trkpt lat="43.13862440749478" lon="11.42117795455002"><ele>200.66666666666669</ele><time>2026-04-26T09:50:12.999Z</time></trkpt><trkpt lat="43.13843561970818" lon="11.42122378240643"><ele>201.0</ele><time>2026-04-26T09:50:13.999Z</time></trkpt><trkpt lat="43.13826319586961" lon="11.421317167752767"><ele>201.0</ele><time>2026-04-26T09:50:14.999Z</time></trkpt><trkpt lat="43.138103522456994" lon="11.421436820819098"><ele>201.0</ele><time>2026-04-26T09:50:15.999Z</time></trkpt><trkpt lat="43.13797285572454" lon="11.421602712899883"><ele>201.0</ele><time>2026-04-26T09:50:16.999Z</time></trkpt><trkpt lat="43.13787787507177" lon="11.421787170126006"><ele>201.0</ele><time>2026-04-26T09:50:17.999Z</time></trkpt><trkpt lat="43.13777875106544" lon="11.421996771451271"><ele>201.0</ele><time>2026-04-26T09:50:18.999Z</time></trkpt><trkpt lat="43.13767144745991" lon="11.422172536072623"><ele>201.0</ele><time>2026-04-26T09:50:19.999Z</time></trkpt><trkpt lat="43.137545011600636" lon="11.422343440216844"><ele>203.33333333333331</ele><time>2026-04-26T09:50:20.999Z</time></trkpt><trkpt lat="43.13738220843682" lon="11.422459710821425"><ele>205.66666666666666</ele><time>2026-04-26T09:50:21.999Z</time></trkpt><trkpt lat="43.137197999053114" lon="11.422532323238825"><ele>208.0</ele><time>2026-04-26T09:50:22.999Z</time></trkpt><trkpt lat="43.13701501727194" lon="11.422586023849977"><ele>208.0</ele><time>2026-04-26T09:50:23.999Z</time></trkpt><trkpt lat="43.13684883419831" lon="11.422654461896016"><ele>208.0</ele><time>2026-04-26T09:50:24.999Z</time></trkpt><trkpt lat="43.13668795833023" lon="11.422747479910067"><ele>208.0</ele><time>2026-04-26T09:50:25.999Z</time></trkpt><trkpt lat="43.13655378557223" lon="11.422862462961868"><ele>208.33333333333331</ele><time>2026-04-26T09:50:26.999Z</time></trkpt><trkpt lat="43.13643677233942" lon="11.423013276817443"><ele>208.66666666666669</ele><time>2026-04-26T09:50:27.999Z</time></trkpt><trkpt lat="43.13634389841286" lon="11.423199816606374"><ele>209.0</ele><time>2026-04-26T09:50:28.999Z</time></trkpt><trkpt lat="43.13627324510015" lon="11.42341498924499"><ele>209.0</ele><time>2026-04-26T09:50:29.999Z</time></trkpt><trkpt lat="43.136191959788576" lon="11.423621615063386"><ele>209.0</ele><time>2026-04-26T09:50:30.999Z</time></trkpt><trkpt lat="43.13608856670456" lon="11.423817298083542"><ele>209.0</ele><time>2026-04-26T09:50:31.999Z</time></trkpt><trkpt lat="43.135972041702786" lon="11.42399496096718"><ele>211.0</ele><time>2026-04-26T09:50:32.999Z</time></trkpt><trkpt lat="43.13583350805926" lon="11.424159433230551"><ele>213.0</ele><time>2026-04-26T09:50:33.999Z</time></trkpt><trkpt lat="43.13569084303334" lon="11.424320923993143"><ele>215.0</ele><time>2026-04-26T09:50:34.999Z</time></trkpt><trkpt lat="43.13552938275057" lon="11.424491051161372"><ele>218.66666666666669</ele><time>2026-04-26T09:50:35.999Z</time></trkpt><trkpt lat="43.13537051763712" lon="11.424662213146883"><ele>222.33333333333331</ele><time>2026-04-26T09:50:36.999Z</time></trkpt><trkpt lat="43.135211298539396" lon="11.424834186146807"><ele>226.0</ele><time>2026-04-26T09:50:37.999Z</time></trkpt><trkpt lat="43.135054882979105" lon="11.425001034442333"><ele>226.0</ele><time>2026-04-26T09:50:38.999Z</time></trkpt><trkpt lat="43.1348971660566" lon="11.425171907664783"><ele>226.0</ele><time>2026-04-26T09:50:39.999Z</time></trkpt><trkpt lat="43.13474137661751" lon="11.425345010196576"><ele>226.0</ele><time>2026-04-26T09:50:40.999Z</time></trkpt><trkpt lat="43.13458335633961" lon="11.4255142817298"><ele>232.0</ele><time>2026-04-26T09:50:41.999Z</time></trkpt><trkpt lat="43.134421627237316" lon="11.42568102931322"><ele>238.0</ele><time>2026-04-26T09:50:42.999Z</time></trkpt><trkpt lat="43.13425848478843" lon="11.425850465878973"><ele>244.0</ele><time>2026-04-26T09:50:43.999Z</time></trkpt><trkpt lat="43.134102469773914" lon="11.426025647079257"><ele>245.66666666666666</ele><time>2026-04-26T09:50:44.998Z</time></trkpt><trkpt lat="43.13394657410736" lon="11.426195714419327"><ele>247.33333333333331</ele><time>2026-04-26T09:50:45.998Z</time></trkpt><trkpt lat="43.133780880127645" lon="11.426344583116924"><ele>249.0</ele><time>2026-04-26T09:50:46.998Z</time></trkpt><trkpt lat="43.13361777254658" lon="11.426455417286585"><ele>249.0</ele><time>2026-04-26T09:50:47.998Z</time></trkpt><trkpt lat="43.13345194106078" lon="11.426524105301743"><ele>249.0</ele><time>2026-04-26T09:50:48.998Z</time></trkpt><trkpt lat="43.13327557819673" lon="11.42655799586228"><ele>249.0</ele><time>2026-04-26T09:50:49.998Z</time></trkpt><trkpt lat="43.13310258603187" lon="11.426586471302377"><ele>248.66666666666669</ele><time>2026-04-26T09:50:50.998Z</time></trkpt><trkpt lat="43.13291816654619" lon="11.42663176356246"><ele>248.33333333333334</ele><time>2026-04-26T09:50:51.998Z</time></trkpt><trkpt lat="43.132726153821096" lon="11.426679696252476"><ele>248.0</ele><time>2026-04-26T09:50:52.998Z</time></trkpt><trkpt lat="43.132538664529214" lon="11.42670867591767"><ele>248.33333333333334</ele><time>2026-04-26T09:50:53.998Z</time></trkpt><trkpt lat="43.132352414729624" lon="11.426729899866357"><ele>248.66666666666669</ele><time>2026-04-26T09:50:54.998Z</time></trkpt><trkpt lat="43.1321723271947" lon="11.4267569786161"><ele>249.0</ele><time>2026-04-26T09:50:55.998Z</time></trkpt><trkpt lat="43.13199036649007" lon="11.426743715256048"><ele>249.0</ele><time>2026-04-26T09:50:56.998Z</time></trkpt><trkpt lat="43.13180900324644" lon="11.426764794011984"><ele>249.0</ele><time>2026-04-26T09:50:57.998Z</time></trkpt><trkpt lat="43.13164702398405" lon="11.426710682157816"><ele>249.0</ele><time>2026-04-26T09:50:58.998Z</time></trkpt><trkpt lat="43.13146304578182" lon="11.426698025043418"><ele>249.33333333333331</ele><time>2026-04-26T09:50:59.998Z</time></trkpt><trkpt lat="43.13127384261202" lon="11.426693246836502"><ele>249.66666666666666</ele><time>2026-04-26T09:51:00.998Z</time></trkpt><trkpt lat="43.13112235660477" lon="11.426735927532322"><ele>250.0</ele><time>2026-04-26T09:51:01.998Z</time></trkpt><trkpt lat="43.13097276039682" lon="11.42680415373284"><ele>250.0</ele><time>2026-04-26T09:51:02.998Z</time></trkpt><trkpt lat="43.130830216386535" lon="11.42692079481234"><ele>250.0</ele><time>2026-04-26T09:51:03.998Z</time></trkpt><trkpt lat="43.13068580645853" lon="11.42707094254109"><ele>250.0</ele><time>2026-04-26T09:51:04.998Z</time></trkpt><trkpt lat="43.13054684832793" lon="11.427230770673006"><ele>249.0</ele><time>2026-04-26T09:51:05.998Z</time></trkpt><trkpt lat="43.130419198582494" lon="11.427399906372704"><ele>248.0</ele><time>2026-04-26T09:51:06.998Z</time></trkpt><trkpt lat="43.13028977524167" lon="11.427573050591961"><ele>247.0</ele><time>2026-04-26T09:51:07.998Z</time></trkpt><trkpt lat="43.13013687462509" lon="11.427751853986706"><ele>247.0</ele><time>2026-04-26T09:51:08.998Z</time></trkpt><trkpt lat="43.129986329380166" lon="11.427934528085858"><ele>247.0</ele><time>2026-04-26T09:51:09.998Z</time></trkpt><trkpt lat="43.129833942272775" lon="11.428110577624972"><ele>247.0</ele><time>2026-04-26T09:51:10.998Z</time></trkpt><trkpt lat="43.12969300122314" lon="11.428284736980562"><ele>247.0</ele><time>2026-04-26T09:51:11.998Z</time></trkpt><trkpt lat="43.12956597349094" lon="11.428483387317034"><ele>247.0</ele><time>2026-04-26T09:51:12.998Z</time></trkpt><trkpt lat="43.129456828842656" lon="11.428705029855209"><ele>247.0</ele><time>2026-04-26T09:51:13.998Z</time></trkpt><trkpt lat="43.12936229175053" lon="11.428947508229239"><ele>247.0</ele><time>2026-04-26T09:51:14.998Z</time></trkpt><trkpt lat="43.12928637181261" lon="11.429204677284586"><ele>247.0</ele><time>2026-04-26T09:51:15.998Z</time></trkpt><trkpt lat="43.12921194568256" lon="11.429474614376389"><ele>247.0</ele><time>2026-04-26T09:51:16.998Z</time></trkpt><trkpt lat="43.129141191138515" lon="11.429740696709693"><ele>247.0</ele><time>2026-04-26T09:51:17.998Z</time></trkpt><trkpt lat="43.12906471189039" lon="11.430011629027623"><ele>247.0</ele><time>2026-04-26T09:51:18.998Z</time></trkpt><trkpt lat="43.128991452656166" lon="11.430280461357306"><ele>247.0</ele><time>2026-04-26T09:51:19.998Z</time></trkpt><trkpt lat="43.128915858248966" lon="11.430549550536938"><ele>250.33333333333331</ele><time>2026-04-26T09:51:20.998Z</time></trkpt><trkpt lat="43.1288487527535" lon="11.43080280124297"><ele>253.66666666666669</ele><time>2026-04-26T09:51:21.998Z</time></trkpt><trkpt lat="43.12878780586437" lon="11.431054179784372"><ele>257.0</ele><time>2026-04-26T09:51:22.998Z</time></trkpt><trkpt lat="43.12873252257734" lon="11.431310070436762"><ele>258.33333333333337</ele><time>2026-04-26T09:51:23.998Z</time></trkpt><trkpt lat="43.12867950141534" lon="11.431568844178463"><ele>259.6666666666667</ele><time>2026-04-26T09:51:24.998Z</time></trkpt><trkpt lat="43.12862863891806" lon="11.431821282995607"><ele>261.0</ele><time>2026-04-26T09:51:25.998Z</time></trkpt><trkpt lat="43.12857851704104" lon="11.43206453601451"><ele>261.0</ele><time>2026-04-26T09:51:26.998Z</time></trkpt><trkpt lat="43.12855045099061" lon="11.432311308958914"><ele>261.0</ele><time>2026-04-26T09:51:27.998Z</time></trkpt><trkpt lat="43.12854868302298" lon="11.432563594111707"><ele>261.0</ele><time>2026-04-26T09:51:28.998Z</time></trkpt><trkpt lat="43.1285541399872" lon="11.432815650608458"><ele>261.3333333333333</ele><time>2026-04-26T09:51:29.998Z</time></trkpt><trkpt lat="43.12855397675295" lon="11.433078096828254"><ele>261.66666666666663</ele><time>2026-04-26T09:51:30.998Z</time></trkpt><trkpt lat="43.12855261513487" lon="11.433361434040064"><ele>262.0</ele><time>2026-04-26T09:51:31.998Z</time></trkpt><trkpt lat="43.128551239418165" lon="11.433643397394789"><ele>261.66666666666663</ele><time>2026-04-26T09:51:32.998Z</time></trkpt><trkpt lat="43.12856849541432" lon="11.433900534462715"><ele>261.3333333333333</ele><time>2026-04-26T09:51:33.998Z</time></trkpt><trkpt lat="43.12861898495073" lon="11.434138513847488"><ele>261.0</ele><time>2026-04-26T09:51:34.998Z</time></trkpt><trkpt lat="43.12868378766379" lon="11.434356284797408"><ele>261.0</ele><time>2026-04-26T09:51:36Z</time></trkpt><trkpt lat="43.12874953840409" lon="11.43457716290255"><ele>261.0</ele><time>2026-04-26T09:51:37Z</time></trkpt><trkpt lat="43.12882303309" lon="11.434805721696026"><ele>261.0</ele><time>2026-04-26T09:51:38Z</time></trkpt><trkpt lat="43.12893721176118" lon="11.435034923140273"><ele>261.0</ele><time>2026-04-26T09:51:39Z</time></trkpt><trkpt lat="43.129049695709114" lon="11.435267892198278"><ele>261.0</ele><time>2026-04-26T09:51:40Z</time></trkpt><trkpt lat="43.12917835166633" lon="11.435484627875196"><ele>261.0</ele><time>2026-04-26T09:51:41Z</time></trkpt><trkpt lat="43.12934018575321" lon="11.435706819326745"><ele>256.0</ele><time>2026-04-26T09:51:42Z</time></trkpt><trkpt lat="43.12949244783228" lon="11.435946917913592"><ele>251.0</ele><time>2026-04-26T09:51:43Z</time></trkpt><trkpt lat="43.12965868340444" lon="11.436209137701422"><ele>249.0</ele><time>2026-04-26T09:51:44Z</time></trkpt><trkpt lat="43.129741249137005" lon="11.436488235039702"><ele>247.0</ele><time>2026-04-26T09:51:45Z</time></trkpt><trkpt lat="43.12980382598961" lon="11.436779552206433"><ele>245.0</ele><time>2026-04-26T09:51:46Z</time></trkpt><trkpt lat="43.12985014111354" lon="11.437076076959158"><ele>244.66666666666669</ele><time>2026-04-26T09:51:47Z</time></trkpt><trkpt lat="43.12988868262476" lon="11.437370315397539"><ele>244.33333333333331</ele><time>2026-04-26T09:51:48Z</time></trkpt><trkpt lat="43.129903121986565" lon="11.437665247344626"><ele>244.0</ele><time>2026-04-26T09:51:49Z</time></trkpt><trkpt lat="43.129928325094106" lon="11.437964417498986"><ele>245.0</ele><time>2026-04-26T09:51:50Z</time></trkpt><trkpt lat="43.12995426762285" lon="11.438267206330458"><ele>246.0</ele><time>2026-04-26T09:51:51Z</time></trkpt><trkpt lat="43.12997487377756" lon="11.438564482780805"><ele>247.0</ele><time>2026-04-26T09:51:52Z</time></trkpt><trkpt lat="43.129986977060916" lon="11.438856681797015"><ele>247.66666666666666</ele><time>2026-04-26T09:51:53Z</time></trkpt><trkpt lat="43.129997655230916" lon="11.439142618495113"><ele>248.33333333333331</ele><time>2026-04-26T09:51:54Z</time></trkpt><trkpt lat="43.13001250354769" lon="11.439422585925923"><ele>249.0</ele><time>2026-04-26T09:51:55Z</time></trkpt><trkpt lat="43.130034235480515" lon="11.439701742465742"><ele>250.0</ele><time>2026-04-26T09:51:56Z</time></trkpt><trkpt lat="43.130059439724945" lon="11.439980562952952"><ele>251.0</ele><time>2026-04-26T09:51:57Z</time></trkpt><trkpt lat="43.1300760388147" lon="11.440261084941763"><ele>252.0</ele><time>2026-04-26T09:51:57.999Z</time></trkpt><trkpt lat="43.13008867602293" lon="11.440540067308262"><ele>252.0</ele><time>2026-04-26T09:51:58.999Z</time></trkpt><trkpt lat="43.13010060228371" lon="11.44082149022278"><ele>252.0</ele><time>2026-04-26T09:51:59.999Z</time></trkpt><trkpt lat="43.130115863545775" lon="11.441099651023599"><ele>252.0</ele><time>2026-04-26T09:52:00.999Z</time></trkpt><trkpt lat="43.130125554670286" lon="11.441365216128034"><ele>252.0</ele><time>2026-04-26T09:52:01.999Z</time></trkpt><trkpt lat="43.13011248088199" lon="11.441624897656654"><ele>252.0</ele><time>2026-04-26T09:52:02.999Z</time></trkpt><trkpt lat="43.13006964967573" lon="11.44188074081315"><ele>252.0</ele><time>2026-04-26T09:52:03.999Z</time></trkpt><trkpt lat="43.12999268520453" lon="11.442113410499708"><ele>251.33333333333331</ele><time>2026-04-26T09:52:04.999Z</time></trkpt><trkpt lat="43.12988548818154" lon="11.442322863270915"><ele>250.66666666666666</ele><time>2026-04-26T09:52:05.999Z</time></trkpt><trkpt lat="43.12974883682644" lon="11.442516375438528"><ele>250.0</ele><time>2026-04-26T09:52:06.999Z</time></trkpt><trkpt lat="43.12959789609241" lon="11.44270680304016"><ele>250.0</ele><time>2026-04-26T09:52:07.999Z</time></trkpt><trkpt lat="43.129454838434064" lon="11.442904667527609"><ele>250.0</ele><time>2026-04-26T09:52:08.999Z</time></trkpt><trkpt lat="43.12929397222447" lon="11.443094981777838"><ele>250.0</ele><time>2026-04-26T09:52:09.999Z</time></trkpt><trkpt lat="43.12913206290792" lon="11.443287380339244"><ele>250.0</ele><time>2026-04-26T09:52:10.999Z</time></trkpt><trkpt lat="43.12897593557876" lon="11.443478435859356"><ele>250.0</ele><time>2026-04-26T09:52:11.999Z</time></trkpt><trkpt lat="43.1288219500007" lon="11.443661742251047"><ele>250.0</ele><time>2026-04-26T09:52:12.999Z</time></trkpt><trkpt lat="43.128642145678626" lon="11.443842428436973"><ele>250.0</ele><time>2026-04-26T09:52:13.999Z</time></trkpt><trkpt lat="43.12846327537671" lon="11.444016837118903"><ele>250.0</ele><time>2026-04-26T09:52:14.999Z</time></trkpt><trkpt lat="43.12828647352419" lon="11.44419195472837"><ele>250.0</ele><time>2026-04-26T09:52:15.999Z</time></trkpt><trkpt lat="43.12810172553982" lon="11.444371311518"><ele>248.0</ele><time>2026-04-26T09:52:16.999Z</time></trkpt><trkpt lat="43.12791005890393" lon="11.444547711289443"><ele>246.0</ele><time>2026-04-26T09:52:17.999Z</time></trkpt><trkpt lat="43.127720939505636" lon="11.444722329517404"><ele>245.0</ele><time>2026-04-26T09:52:18.999Z</time></trkpt><trkpt lat="43.12753826331986" lon="11.444898701880533"><ele>244.0</ele><time>2026-04-26T09:52:19.999Z</time></trkpt><trkpt lat="43.127367459105436" lon="11.445079536456873"><ele>243.0</ele><time>2026-04-26T09:52:20.999Z</time></trkpt><trkpt lat="43.12722304777378" lon="11.445285401788777"><ele>242.66666666666669</ele><time>2026-04-26T09:52:21.999Z</time></trkpt><trkpt lat="43.1270979885615" lon="11.445522409932165"><ele>242.33333333333334</ele><time>2026-04-26T09:52:22.999Z</time></trkpt><trkpt lat="43.12701383487143" lon="11.44577521354373"><ele>242.0</ele><time>2026-04-26T09:52:23.999Z</time></trkpt><trkpt lat="43.12695058667345" lon="11.446027976147072"><ele>242.0</ele><time>2026-04-26T09:52:24.999Z</time></trkpt><trkpt lat="43.126866931555895" lon="11.446258942718499"><ele>242.0</ele><time>2026-04-26T09:52:25.999Z</time></trkpt><trkpt lat="43.12674361652079" lon="11.446463510880214"><ele>242.0</ele><time>2026-04-26T09:52:26.999Z</time></trkpt><trkpt lat="43.12660268535181" lon="11.446648327834575"><ele>239.66666666666669</ele><time>2026-04-26T09:52:27.999Z</time></trkpt><trkpt lat="43.12645263917247" lon="11.446820321295569"><ele>237.33333333333331</ele><time>2026-04-26T09:52:28.999Z</time></trkpt><trkpt lat="43.126297252163326" lon="11.446987552118197"><ele>235.0</ele><time>2026-04-26T09:52:29.999Z</time></trkpt><trkpt lat="43.126147079901465" lon="11.447165136167055"><ele>235.0</ele><time>2026-04-26T09:52:30.999Z</time></trkpt><trkpt lat="43.12599354266624" lon="11.447342094211908"><ele>235.0</ele><time>2026-04-26T09:52:31.999Z</time></trkpt><trkpt lat="43.12584068974541" lon="11.447509111279897"><ele>235.0</ele><time>2026-04-26T09:52:32.999Z</time></trkpt><trkpt lat="43.125688704872054" lon="11.447666991375083"><ele>234.66666666666666</ele><time>2026-04-26T09:52:33.999Z</time></trkpt><trkpt lat="43.12553906160306" lon="11.447822694005529"><ele>234.33333333333331</ele><time>2026-04-26T09:52:34.999Z</time></trkpt><trkpt lat="43.12539278004854" lon="11.447974739407583"><ele>234.0</ele><time>2026-04-26T09:52:35.999Z</time></trkpt><trkpt lat="43.125255551151554" lon="11.44811541295399"><ele>235.25</ele><time>2026-04-26T09:52:36.999Z</time></trkpt><trkpt lat="43.12512522498691" lon="11.44824077631572"><ele>236.5</ele><time>2026-04-26T09:52:37.999Z</time></trkpt><trkpt lat="43.12501305276779" lon="11.448351306784565"><ele>237.75</ele><time>2026-04-26T09:52:38.999Z</time></trkpt><trkpt lat="43.12492240948943" lon="11.448439534988077"><ele>239.0</ele><time>2026-04-26T09:52:39.999Z</time></trkpt><trkpt lat="43.12485431428566" lon="11.448509349107145"><ele>239.00000000000003</ele><time>2026-04-26T09:52:40.999Z</time></trkpt><trkpt lat="43.12480776095549" lon="11.448569021808375"><ele>239.0</ele><time>2026-04-26T09:52:41.999Z</time></trkpt><trkpt lat="43.12476916566313" lon="11.448685762418167"><ele>239.0</ele><time>2026-04-26T09:52:43.999Z</time></trkpt><trkpt lat="43.124773105085296" lon="11.44880752527636"><ele>239.0</ele><time>2026-04-26T09:52:45.999Z</time></trkpt><trkpt lat="43.124803051474544" lon="11.44888887846011"><ele>239.00000000000003</ele><time>2026-04-26T09:52:46.999Z</time></trkpt><trkpt lat="43.12487429693662" lon="11.44894117487281"><ele>239.0</ele><time>2026-04-26T09:52:47.999Z</time></trkpt><trkpt lat="43.124964786408405" lon="11.448973026955224"><ele>239.0</ele><time>2026-04-26T09:52:48.999Z</time></trkpt><trkpt lat="43.12507637373684" lon="11.448997304759896"><ele>239.0</ele><time>2026-04-26T09:52:49.999Z</time></trkpt><trkpt lat="43.12519441746752" lon="11.449037010313775"><ele>239.0</ele><time>2026-04-26T09:52:50.999Z</time></trkpt><trkpt lat="43.1253246285747" lon="11.449094917226901"><ele>239.0</ele><time>2026-04-26T09:52:51.999Z</time></trkpt><trkpt lat="43.125468410872934" lon="11.449131353215538"><ele>239.0</ele><time>2026-04-26T09:52:52.999Z</time></trkpt><trkpt lat="43.12560907913208" lon="11.44917167047892"><ele>239.0</ele><time>2026-04-26T09:52:53.999Z</time></trkpt><trkpt lat="43.12575751489841" lon="11.44923429270004"><ele>239.0</ele><time>2026-04-26T09:52:54.999Z</time></trkpt><trkpt lat="43.12589490522312" lon="11.449327767195303"><ele>239.25</ele><time>2026-04-26T09:52:55.998Z</time></trkpt><trkpt lat="43.12600483179234" lon="11.449459291471088"><ele>239.5</ele><time>2026-04-26T09:52:56.998Z</time></trkpt><trkpt lat="43.12609255343335" lon="11.449622792781012"><ele>239.75</ele><time>2026-04-26T09:52:57.998Z</time></trkpt><trkpt lat="43.12616140361473" lon="11.449792633787586"><ele>240.0</ele><time>2026-04-26T09:52:58.998Z</time></trkpt><trkpt lat="43.12619816035282" lon="11.44997654532821"><ele>237.0</ele><time>2026-04-26T09:52:59.998Z</time></trkpt><trkpt lat="43.126265412533854" lon="11.450179537808747"><ele>234.0</ele><time>2026-04-26T09:53:00.998Z</time></trkpt><trkpt lat="43.126347329586075" lon="11.450380060794007"><ele>231.0</ele><time>2026-04-26T09:53:01.998Z</time></trkpt><trkpt lat="43.12643297349624" lon="11.450618313144666"><ele>229.33333333333331</ele><time>2026-04-26T09:53:02.998Z</time></trkpt><trkpt lat="43.12651156223665" lon="11.4508672872421"><ele>227.66666666666666</ele><time>2026-04-26T09:53:03.998Z</time></trkpt><trkpt lat="43.12657857193971" lon="11.451105790853283"><ele>226.0</ele><time>2026-04-26T09:53:04.998Z</time></trkpt><trkpt lat="43.12662875206287" lon="11.451351493399637"><ele>225.66666666666666</ele><time>2026-04-26T09:53:05.998Z</time></trkpt><trkpt lat="43.1266681317006" lon="11.451601818634316"><ele>225.33333333333331</ele><time>2026-04-26T09:53:06.998Z</time></trkpt><trkpt lat="43.126690129521705" lon="11.451856538059543"><ele>225.0</ele><time>2026-04-26T09:53:07.998Z</time></trkpt><trkpt lat="43.126703457561206" lon="11.452106805195418"><ele>224.0</ele><time>2026-04-26T09:53:08.998Z</time></trkpt><trkpt lat="43.12670998091347" lon="11.4523572384743"><ele>223.0</ele><time>2026-04-26T09:53:09.998Z</time></trkpt><trkpt lat="43.126699866520426" lon="11.45260788909582"><ele>222.0</ele><time>2026-04-26T09:53:10.998Z</time></trkpt><trkpt lat="43.12669801038667" lon="11.452863363036633"><ele>221.0</ele><time>2026-04-26T09:53:11.998Z</time></trkpt><trkpt lat="43.126710855999235" lon="11.453124397401691"><ele>220.0</ele><time>2026-04-26T09:53:12.998Z</time></trkpt><trkpt lat="43.12672449211379" lon="11.453384490948672"><ele>219.0</ele><time>2026-04-26T09:53:13.998Z</time></trkpt><trkpt lat="43.12673741293514" lon="11.453643607910617"><ele>217.0</ele><time>2026-04-26T09:53:14.998Z</time></trkpt><trkpt lat="43.126746120032436" lon="11.453891279442928"><ele>215.0</ele><time>2026-04-26T09:53:15.998Z</time></trkpt><trkpt lat="43.126774238689144" lon="11.454129155430747"><ele>213.0</ele><time>2026-04-26T09:53:16.998Z</time></trkpt><trkpt lat="43.12683473004872" lon="11.454358793363767"><ele>213.0</ele><time>2026-04-26T09:53:17.998Z</time></trkpt><trkpt lat="43.126914532301875" lon="11.4545669043816"><ele>213.0</ele><time>2026-04-26T09:53:18.998Z</time></trkpt><trkpt lat="43.12703426102016" lon="11.454737304535774"><ele>213.0</ele><time>2026-04-26T09:53:19.998Z</time></trkpt><trkpt lat="43.12717469512388" lon="11.454871761905817"><ele>210.0</ele><time>2026-04-26T09:53:20.998Z</time></trkpt><trkpt lat="43.127313347443916" lon="11.45496491143117"><ele>207.0</ele><time>2026-04-26T09:53:21.998Z</time></trkpt><trkpt lat="43.12746104838974" lon="11.45508421779803"><ele>204.0</ele><time>2026-04-26T09:53:22.998Z</time></trkpt><trkpt lat="43.12765372232451" lon="11.455170666342509"><ele>200.33333333333331</ele><time>2026-04-26T09:53:23.998Z</time></trkpt><trkpt lat="43.12784666125058" lon="11.455259669893891"><ele>196.66666666666666</ele><time>2026-04-26T09:53:24.998Z</time></trkpt><trkpt lat="43.12803018842138" lon="11.455342879838303"><ele>193.0</ele><time>2026-04-26T09:53:25.998Z</time></trkpt><trkpt lat="43.12820636296358" lon="11.45542367154499"><ele>187.0</ele><time>2026-04-26T09:53:26.998Z</time></trkpt><trkpt lat="43.1283713722277" lon="11.45552013049897"><ele>181.0</ele><time>2026-04-26T09:53:27.998Z</time></trkpt><trkpt lat="43.12850857979738" lon="11.455667044335188"><ele>175.0</ele><time>2026-04-26T09:53:28.998Z</time></trkpt><trkpt lat="43.12864215808821" lon="11.455863291616337"><ele>175.0</ele><time>2026-04-26T09:53:29.998Z</time></trkpt><trkpt lat="43.12875880974004" lon="11.45607361071461"><ele>175.0</ele><time>2026-04-26T09:53:30.998Z</time></trkpt><trkpt lat="43.128887237457896" lon="11.456271792024335"><ele>175.0</ele><time>2026-04-26T09:53:31.998Z</time></trkpt><trkpt lat="43.129003318846735" lon="11.45648142114333"><ele>171.0</ele><time>2026-04-26T09:53:32.998Z</time></trkpt><trkpt lat="43.12911553646062" lon="11.45671279726445"><ele>167.0</ele><time>2026-04-26T09:53:33.998Z</time></trkpt><trkpt lat="43.12923546466599" lon="11.456927010546393"><ele>163.0</ele><time>2026-04-26T09:53:34.998Z</time></trkpt><trkpt lat="43.1293671496986" lon="11.45712961523817"><ele>162.33333333333334</ele><time>2026-04-26T09:53:35.998Z</time></trkpt><trkpt lat="43.12948635097812" lon="11.457347020151401"><ele>161.66666666666666</ele><time>2026-04-26T09:53:36.998Z</time></trkpt><trkpt lat="43.12960042278022" lon="11.45755115089992"><ele>161.0</ele><time>2026-04-26T09:53:37.998Z</time></trkpt><trkpt lat="43.12970582323082" lon="11.457744820658702"><ele>161.0</ele><time>2026-04-26T09:53:38.998Z</time></trkpt><trkpt lat="43.129808994922456" lon="11.457918470686138"><ele>161.0</ele><time>2026-04-26T09:53:39.998Z</time></trkpt><trkpt lat="43.12989423271564" lon="11.458064142549501"><ele>161.0</ele><time>2026-04-26T09:53:41Z</time></trkpt><trkpt lat="43.12993927002235" lon="11.45817456089554"><ele>161.0</ele><time>2026-04-26T09:53:42Z</time></trkpt><trkpt lat="43.129996747873065" lon="11.458241680413492"><ele>159.33333333333331</ele><time>2026-04-26T09:53:44Z</time></trkpt><trkpt lat="43.13000488277944" lon="11.45832941863587"><ele>157.66666666666666</ele><time>2026-04-26T09:53:48Z</time></trkpt><trkpt lat="43.13000198142482" lon="11.458447976217139"><ele>156.0</ele><time>2026-04-26T09:53:53Z</time></trkpt><trkpt lat="43.13007941571206" lon="11.458549850278198"><ele>154.33333333333334</ele><time>2026-04-26T09:53:56Z</time></trkpt><trkpt lat="43.13014024772692" lon="11.458657000095135"><ele>152.66666666666669</ele><time>2026-04-26T09:53:58Z</time></trkpt><trkpt lat="43.13018834804418" lon="11.458741817138902"><ele>151.0</ele><time>2026-04-26T09:54:00Z</time></trkpt><trkpt lat="43.130239752795724" lon="11.458832244478483"><ele>149.8</ele><time>2026-04-26T09:54:03Z</time></trkpt><trkpt lat="43.130279364886995" lon="11.458901580981658"><ele>148.6</ele><time>2026-04-26T09:54:05.999Z</time></trkpt><trkpt lat="43.13032488289162" lon="11.458981255102778"><ele>147.4</ele><time>2026-04-26T09:54:07.999Z</time></trkpt><trkpt lat="43.13038512910483" lon="11.459086709275166"><ele>146.2</ele><time>2026-04-26T09:54:09.999Z</time></trkpt><trkpt lat="43.13045562816332" lon="11.459211869787492"><ele>145.0</ele><time>2026-04-26T09:54:11.999Z</time></trkpt><trkpt lat="43.13052840431018" lon="11.459342548778238"><ele>145.0</ele><time>2026-04-26T09:54:13.999Z</time></trkpt><trkpt lat="43.13060563465411" lon="11.459481225865163"><ele>145.0</ele><time>2026-04-26T09:54:15.999Z</time></trkpt><trkpt lat="43.130650636080965" lon="11.459562031755393"><ele>145.0</ele><time>2026-04-26T09:54:16.999Z</time></trkpt><trkpt lat="43.13069854267787" lon="11.45964805423796"><ele>145.0</ele><time>2026-04-26T09:54:17.999Z</time></trkpt><trkpt lat="43.13074631496355" lon="11.459733857372015"><ele>145.0</ele><time>2026-04-26T09:54:18.999Z</time></trkpt><trkpt lat="43.13079429162883" lon="11.459820215373353"><ele>145.0</ele><time>2026-04-26T09:54:19.999Z</time></trkpt><trkpt lat="43.13084401276596" lon="11.459909713410697"><ele>144.71428571428572</ele><time>2026-04-26T09:54:20.999Z</time></trkpt><trkpt lat="43.13088899990859" lon="11.45998906911384"><ele>144.42857142857144</ele><time>2026-04-26T09:54:21.999Z</time></trkpt><trkpt lat="43.13094319928899" lon="11.460084654260807"><ele>144.14285714285714</ele><time>2026-04-26T09:54:22.999Z</time></trkpt><trkpt lat="43.13099269031754" lon="11.460172700795344"><ele>143.85714285714286</ele><time>2026-04-26T09:54:23.999Z</time></trkpt><trkpt lat="43.13103772889591" lon="11.460252693662895"><ele>143.57142857142856</ele><time>2026-04-26T09:54:24.999Z</time></trkpt><trkpt lat="43.13107902244718" lon="11.460326025148168"><ele>143.28571428571428</ele><time>2026-04-26T09:54:25.999Z</time></trkpt><trkpt lat="43.13110811427815" lon="11.460406014556652"><ele>143.0</ele><time>2026-04-26T09:54:26.999Z</time></trkpt><trkpt lat="43.131187861786564" lon="11.460519308317037"><ele>143.0</ele><time>2026-04-26T09:54:28.999Z</time></trkpt><trkpt lat="43.131264760639176" lon="11.460655869749937"><ele>143.0</ele><time>2026-04-26T09:54:30.999Z</time></trkpt><trkpt lat="43.131307037053965" lon="11.460730946645857"><ele>143.0</ele><time>2026-04-26T09:54:31.999Z</time></trkpt><trkpt lat="43.13135643911527" lon="11.460818677680662"><ele>143.0</ele><time>2026-04-26T09:54:32.999Z</time></trkpt><trkpt lat="43.131411550362806" lon="11.460916547365734"><ele>143.0</ele><time>2026-04-26T09:54:33.999Z</time></trkpt><trkpt lat="43.13146610272994" lon="11.461012939383318"><ele>143.0</ele><time>2026-04-26T09:54:34.999Z</time></trkpt><trkpt lat="43.131520445065256" lon="11.461109558171739"><ele>143.0</ele><time>2026-04-26T09:54:35.999Z</time></trkpt><trkpt lat="43.131574262263726" lon="11.461205243276288"><ele>143.0</ele><time>2026-04-26T09:54:36.999Z</time></trkpt><trkpt lat="43.13162741037099" lon="11.461299738769084"><ele>143.0</ele><time>2026-04-26T09:54:37.999Z</time></trkpt><trkpt lat="43.13167427827599" lon="11.461383072970543"><ele>143.0</ele><time>2026-04-26T09:54:38.999Z</time></trkpt><trkpt lat="43.13171531420018" lon="11.461456017154964"><ele>143.0</ele><time>2026-04-26T09:54:39.999Z</time></trkpt><trkpt lat="43.13178355875105" lon="11.461592054994524"><ele>143.6</ele><time>2026-04-26T09:54:41.999Z</time></trkpt><trkpt lat="43.13186261102459" lon="11.46162742133953"><ele>144.20000000000002</ele><time>2026-04-26T09:54:42.999Z</time></trkpt><trkpt lat="43.13193036255201" lon="11.461686127892373"><ele>144.8</ele><time>2026-04-26T09:54:43.999Z</time></trkpt><trkpt lat="43.13197362495478" lon="11.4617844459991"><ele>145.4</ele><time>2026-04-26T09:54:44.999Z</time></trkpt><trkpt lat="43.132038812226355" lon="11.461900289516318"><ele>146.0</ele><time>2026-04-26T09:54:45.999Z</time></trkpt><trkpt lat="43.13212008098804" lon="11.4620229152169"><ele>145.75</ele><time>2026-04-26T09:54:46.999Z</time></trkpt><trkpt lat="43.13218523391447" lon="11.462189488507581"><ele>145.5</ele><time>2026-04-26T09:54:47.999Z</time></trkpt><trkpt lat="43.13225212495087" lon="11.462363464944806"><ele>145.25</ele><time>2026-04-26T09:54:48.999Z</time></trkpt><trkpt lat="43.13232123018235" lon="11.462546686934031"><ele>145.0</ele><time>2026-04-26T09:54:49.999Z</time></trkpt><trkpt lat="43.13239551901843" lon="11.46274486350819"><ele>145.0</ele><time>2026-04-26T09:54:50.999Z</time></trkpt><trkpt lat="43.13247507809252" lon="11.462952078184948"><ele>145.0</ele><time>2026-04-26T09:54:51.999Z</time></trkpt><trkpt lat="43.132569387284605" lon="11.463163708342917"><ele>145.0</ele><time>2026-04-26T09:54:52.999Z</time></trkpt><trkpt lat="43.13266905849264" lon="11.46336700291759"><ele>145.0</ele><time>2026-04-26T09:54:53.999Z</time></trkpt><trkpt lat="43.13277206946193" lon="11.463574032751406"><ele>145.0</ele><time>2026-04-26T09:54:54.999Z</time></trkpt><trkpt lat="43.13287578195301" lon="11.463790049141286"><ele>145.0</ele><time>2026-04-26T09:54:55.999Z</time></trkpt><trkpt lat="43.132963597756515" lon="11.464021838706602"><ele>144.66666666666669</ele><time>2026-04-26T09:54:56.999Z</time></trkpt><trkpt lat="43.13302379150414" lon="11.464273598339531"><ele>144.33333333333334</ele><time>2026-04-26T09:54:57.999Z</time></trkpt><trkpt lat="43.13306577139636" lon="11.464535150059243"><ele>144.0</ele><time>2026-04-26T09:54:58.999Z</time></trkpt><trkpt lat="43.13311203928034" lon="11.464797805231614"><ele>144.0</ele><time>2026-04-26T09:54:59.999Z</time></trkpt><trkpt lat="43.13316302398111" lon="11.465076960402838"><ele>144.0</ele><time>2026-04-26T09:55:00.998Z</time></trkpt><trkpt lat="43.13321315750849" lon="11.46535645887604"><ele>144.0</ele><time>2026-04-26T09:55:01.998Z</time></trkpt><trkpt lat="43.13326660387476" lon="11.465633235060052"><ele>144.0</ele><time>2026-04-26T09:55:02.998Z</time></trkpt><trkpt lat="43.13331985711086" lon="11.46591489982414"><ele>144.0</ele><time>2026-04-26T09:55:03.998Z</time></trkpt><trkpt lat="43.13337283290728" lon="11.466204430693134"><ele>144.0</ele><time>2026-04-26T09:55:04.998Z</time></trkpt><trkpt lat="43.133425527817565" lon="11.46649743862763"><ele>143.5</ele><time>2026-04-26T09:55:05.998Z</time></trkpt><trkpt lat="43.13348129755583" lon="11.46679536176087"><ele>143.0</ele><time>2026-04-26T09:55:06.998Z</time></trkpt><trkpt lat="43.13353822654136" lon="11.467097359092543"><ele>142.5</ele><time>2026-04-26T09:55:07.998Z</time></trkpt><trkpt lat="43.13359756566958" lon="11.467403334717536"><ele>142.0</ele><time>2026-04-26T09:55:08.998Z</time></trkpt><trkpt lat="43.133639970115716" lon="11.467718136070397"><ele>142.0</ele><time>2026-04-26T09:55:09.998Z</time></trkpt><trkpt lat="43.13369848439691" lon="11.468027338625793"><ele>142.0</ele><time>2026-04-26T09:55:10.998Z</time></trkpt><trkpt lat="43.13375795489991" lon="11.46833630075489"><ele>142.0</ele><time>2026-04-26T09:55:11.998Z</time></trkpt><trkpt lat="43.133818268325356" lon="11.468645028124746"><ele>142.0</ele><time>2026-04-26T09:55:12.998Z</time></trkpt><trkpt lat="43.13389048068739" lon="11.468949372294022"><ele>142.0</ele><time>2026-04-26T09:55:13.998Z</time></trkpt><trkpt lat="43.133946484007325" lon="11.46926027377606"><ele>142.0</ele><time>2026-04-26T09:55:14.998Z</time></trkpt><trkpt lat="43.13400611173201" lon="11.469570743969168"><ele>141.5</ele><time>2026-04-26T09:55:15.998Z</time></trkpt><trkpt lat="43.134064887536844" lon="11.469880844775082"><ele>141.0</ele><time>2026-04-26T09:55:16.998Z</time></trkpt><trkpt lat="43.13412351974658" lon="11.47019175632801"><ele>140.5</ele><time>2026-04-26T09:55:17.998Z</time></trkpt><trkpt lat="43.1341827572072" lon="11.47050523402223"><ele>140.0</ele><time>2026-04-26T09:55:18.998Z</time></trkpt><trkpt lat="43.13424531945251" lon="11.47082086000039"><ele>140.0</ele><time>2026-04-26T09:55:19.998Z</time></trkpt><trkpt lat="43.134306517966465" lon="11.471139628493017"><ele>140.0</ele><time>2026-04-26T09:55:20.998Z</time></trkpt><trkpt lat="43.134366484320296" lon="11.471459145137121"><ele>139.0</ele><time>2026-04-26T09:55:21.998Z</time></trkpt><trkpt lat="43.134424993132505" lon="11.471778073561298"><ele>138.0</ele><time>2026-04-26T09:55:22.998Z</time></trkpt><trkpt lat="43.13448503888009" lon="11.472095965121703"><ele>138.0</ele><time>2026-04-26T09:55:23.998Z</time></trkpt><trkpt lat="43.13454543416666" lon="11.472412607849593"><ele>138.0</ele><time>2026-04-26T09:55:24.998Z</time></trkpt><trkpt lat="43.13460601245635" lon="11.472726712582611"><ele>138.0</ele><time>2026-04-26T09:55:25.998Z</time></trkpt><trkpt lat="43.1346645866427" lon="11.473041303060329"><ele>138.0</ele><time>2026-04-26T09:55:26.998Z</time></trkpt><trkpt lat="43.13472463997387" lon="11.473353489809472"><ele>138.0</ele><time>2026-04-26T09:55:27.998Z</time></trkpt><trkpt lat="43.13478321319934" lon="11.473664930006844"><ele>138.0</ele><time>2026-04-26T09:55:28.998Z</time></trkpt><trkpt lat="43.13484226568406" lon="11.473975690779206"><ele>138.0</ele><time>2026-04-26T09:55:29.998Z</time></trkpt><trkpt lat="43.13489947523864" lon="11.474285182644868"><ele>138.0</ele><time>2026-04-26T09:55:30.998Z</time></trkpt><trkpt lat="43.13495643718391" lon="11.474595439786182"><ele>138.0</ele><time>2026-04-26T09:55:31.998Z</time></trkpt><trkpt lat="43.135014844141736" lon="11.474896435113369"><ele>138.0</ele><time>2026-04-26T09:55:32.998Z</time></trkpt><trkpt lat="43.13507422193293" lon="11.475165267260204"><ele>138.0</ele><time>2026-04-26T09:55:33.998Z</time></trkpt><trkpt lat="43.13512287474079" lon="11.475373653746756"><ele>138.0</ele><time>2026-04-26T09:55:34.998Z</time></trkpt><trkpt lat="43.135169067606746" lon="11.475550508185789"><ele>138.0</ele><time>2026-04-26T09:55:35.998Z</time></trkpt><trkpt lat="43.135211355245026" lon="11.47570408549671"><ele>138.0</ele><time>2026-04-26T09:55:36.998Z</time></trkpt><trkpt lat="43.13525111951933" lon="11.475849559934012"><ele>138.0</ele><time>2026-04-26T09:55:37.998Z</time></trkpt><trkpt lat="43.13529123259616" lon="11.475988717357717"><ele>138.0</ele><time>2026-04-26T09:55:38.998Z</time></trkpt><trkpt lat="43.135327686798846" lon="11.476125034869943"><ele>138.0</ele><time>2026-04-26T09:55:39.998Z</time></trkpt><trkpt lat="43.13536609982699" lon="11.476267366068342"><ele>138.0</ele><time>2026-04-26T09:55:40.998Z</time></trkpt><trkpt lat="43.135403585765395" lon="11.476419049048028"><ele>138.0</ele><time>2026-04-26T09:55:41.998Z</time></trkpt><trkpt lat="43.13543828201122" lon="11.476575106079274"><ele>138.5</ele><time>2026-04-26T09:55:42.998Z</time></trkpt><trkpt lat="43.13547942506043" lon="11.47673555505605"><ele>139.0</ele><time>2026-04-26T09:55:43.998Z</time></trkpt><trkpt lat="43.135519532249184" lon="11.476898633733988"><ele>139.5</ele><time>2026-04-26T09:55:44.998Z</time></trkpt><trkpt lat="43.135552331311146" lon="11.477062674617898"><ele>140.0</ele><time>2026-04-26T09:55:46Z</time></trkpt><trkpt lat="43.135574661399104" lon="11.47722927409419"><ele>140.5</ele><time>2026-04-26T09:55:47Z</time></trkpt><trkpt lat="43.13560445349113" lon="11.477400273890176"><ele>141.0</ele><time>2026-04-26T09:55:48Z</time></trkpt><trkpt lat="43.13564221052476" lon="11.477567912024822"><ele>141.5</ele><time>2026-04-26T09:55:49Z</time></trkpt><trkpt lat="43.135681121188966" lon="11.47773651645972"><ele>142.0</ele><time>2026-04-26T09:55:50Z</time></trkpt><trkpt lat="43.13571655359764" lon="11.477908969289006"><ele>142.75</ele><time>2026-04-26T09:55:51Z</time></trkpt><trkpt lat="43.13575326652414" lon="11.478081660735688"><ele>143.5</ele><time>2026-04-26T09:55:52Z</time></trkpt><trkpt lat="43.13579282891978" lon="11.478257055074433"><ele>144.25</ele><time>2026-04-26T09:55:53Z</time></trkpt><trkpt lat="43.135832209512024" lon="11.47843500456643"><ele>145.0</ele><time>2026-04-26T09:55:54Z</time></trkpt><trkpt lat="43.13587090924008" lon="11.478615033426752"><ele>144.75</ele><time>2026-04-26T09:55:55Z</time></trkpt><trkpt lat="43.13590894589998" lon="11.478797551429766"><ele>144.5</ele><time>2026-04-26T09:55:56Z</time></trkpt><trkpt lat="43.13595027839694" lon="11.478980777255892"><ele>144.25</ele><time>2026-04-26T09:55:57Z</time></trkpt><trkpt lat="43.13599565692449" lon="11.479165473194259"><ele>144.0</ele><time>2026-04-26T09:55:58Z</time></trkpt><trkpt lat="43.13604430276189" lon="11.479347511705551"><ele>144.0</ele><time>2026-04-26T09:55:59Z</time></trkpt><trkpt lat="43.13609017729513" lon="11.479528849660605"><ele>144.0</ele><time>2026-04-26T09:56:00Z</time></trkpt><trkpt lat="43.1361330999081" lon="11.47971434056302"><ele>144.0</ele><time>2026-04-26T09:56:01Z</time></trkpt><trkpt lat="43.13617748258591" lon="11.479901208346675"><ele>144.0</ele><time>2026-04-26T09:56:02Z</time></trkpt><trkpt lat="43.13622206854168" lon="11.480075301949356"><ele>144.0</ele><time>2026-04-26T09:56:03Z</time></trkpt><trkpt lat="43.13626712274243" lon="11.480238642126073"><ele>144.0</ele><time>2026-04-26T09:56:04Z</time></trkpt><trkpt lat="43.13630382491349" lon="11.480396164321565"><ele>144.0</ele><time>2026-04-26T09:56:05Z</time></trkpt><trkpt lat="43.136337452548574" lon="11.480535242088157"><ele>144.0</ele><time>2026-04-26T09:56:06Z</time></trkpt><trkpt lat="43.13636696092763" lon="11.480668155827122"><ele>144.16666666666666</ele><time>2026-04-26T09:56:07Z</time></trkpt><trkpt lat="43.136397196631826" lon="11.480793569364058"><ele>144.33333333333334</ele><time>2026-04-26T09:56:08Z</time></trkpt><trkpt lat="43.136427166584646" lon="11.480912522720644"><ele>144.5</ele><time>2026-04-26T09:56:09Z</time></trkpt><trkpt lat="43.13645750465323" lon="11.481020575116457"><ele>144.66666666666669</ele><time>2026-04-26T09:56:10Z</time></trkpt><trkpt lat="43.136487144270056" lon="11.481125587314027"><ele>144.83333333333334</ele><time>2026-04-26T09:56:11Z</time></trkpt><trkpt lat="43.136511789671616" lon="11.48121803952537"><ele>145.0</ele><time>2026-04-26T09:56:12Z</time></trkpt><trkpt lat="43.13653678811706" lon="11.481308970766806"><ele>145.33333333333334</ele><time>2026-04-26T09:56:13Z</time></trkpt><trkpt lat="43.13656511384378" lon="11.481402077333167"><ele>145.66666666666669</ele><time>2026-04-26T09:56:13.999Z</time></trkpt><trkpt lat="43.13659110841107" lon="11.481489611159471"><ele>146.0</ele><time>2026-04-26T09:56:14.999Z</time></trkpt><trkpt lat="43.136615144797126" lon="11.481575404748387"><ele>146.33333333333334</ele><time>2026-04-26T09:56:15.999Z</time></trkpt><trkpt lat="43.136640683079854" lon="11.481714547527497"><ele>146.66666666666666</ele><time>2026-04-26T09:56:17.999Z</time></trkpt><trkpt lat="43.136651854207265" lon="11.481807284711866"><ele>147.0</ele><time>2026-04-26T09:56:19.999Z</time></trkpt><trkpt lat="43.13668643391835" lon="11.481928609657727"><ele>147.0</ele><time>2026-04-26T09:56:25.999Z</time></trkpt><trkpt lat="43.13671925161083" lon="11.482032844293377"><ele>147.0</ele><time>2026-04-26T09:56:27.999Z</time></trkpt><trkpt lat="43.13672793582973" lon="11.482194268878699"><ele>147.0</ele><time>2026-04-26T09:56:29.999Z</time></trkpt><trkpt lat="43.13672864903675" lon="11.482294267353103"><ele>147.0</ele><time>2026-04-26T09:56:30.999Z</time></trkpt><trkpt lat="43.136732722899374" lon="11.482388942163066"><ele>147.0</ele><time>2026-04-26T09:56:31.999Z</time></trkpt><trkpt lat="43.136734797949266" lon="11.482478481172823"><ele>147.0</ele><time>2026-04-26T09:56:32.999Z</time></trkpt><trkpt lat="43.13674511587837" lon="11.482564468957294"><ele>146.85714285714286</ele><time>2026-04-26T09:56:33.999Z</time></trkpt><trkpt lat="43.13675477285238" lon="11.482663177890817"><ele>146.71428571428572</ele><time>2026-04-26T09:56:34.999Z</time></trkpt><trkpt lat="43.136761805778306" lon="11.482770433052075"><ele>146.57142857142856</ele><time>2026-04-26T09:56:35.999Z</time></trkpt><trkpt lat="43.13676620534737" lon="11.482873711550072"><ele>146.42857142857144</ele><time>2026-04-26T09:56:36.999Z</time></trkpt><trkpt lat="43.13677070868309" lon="11.482972794351745"><ele>146.28571428571428</ele><time>2026-04-26T09:56:37.999Z</time></trkpt><trkpt lat="43.136775333525975" lon="11.483071033763494"><ele>146.14285714285714</ele><time>2026-04-26T09:56:38.999Z</time></trkpt><trkpt lat="43.1367809134682" lon="11.483159747982207"><ele>146.0</ele><time>2026-04-26T09:56:39.999Z</time></trkpt><trkpt lat="43.136789133728115" lon="11.483278401090416"><ele>146.0</ele><time>2026-04-26T09:56:41.999Z</time></trkpt><trkpt lat="43.1368262372705" lon="11.483396849795575"><ele>146.0</ele><time>2026-04-26T09:56:59.999Z</time></trkpt><trkpt lat="43.13690137137054" lon="11.48340892904613"><ele>146.0</ele><time>2026-04-26T09:57:00.999Z</time></trkpt><trkpt lat="43.1370031001548" lon="11.483388386657403"><ele>146.0</ele><time>2026-04-26T09:57:01.999Z</time></trkpt><trkpt lat="43.13710871933301" lon="11.483384182854342"><ele>146.0</ele><time>2026-04-26T09:57:02.999Z</time></trkpt><trkpt lat="43.13721172191959" lon="11.483381096415819"><ele>146.0</ele><time>2026-04-26T09:57:03.999Z</time></trkpt><trkpt lat="43.13733453160172" lon="11.483384329444757"><ele>146.0</ele><time>2026-04-26T09:57:04.999Z</time></trkpt><trkpt lat="43.13745859622578" lon="11.483381093412572"><ele>146.0</ele><time>2026-04-26T09:57:05.999Z</time></trkpt><trkpt lat="43.13760311665332" lon="11.483376721234066"><ele>146.0</ele><time>2026-04-26T09:57:06.999Z</time></trkpt><trkpt lat="43.137735682882" lon="11.48337719818035"><ele>146.0</ele><time>2026-04-26T09:57:07.999Z</time></trkpt><trkpt lat="43.13787658618391" lon="11.483368781837397"><ele>146.0</ele><time>2026-04-26T09:57:08.999Z</time></trkpt><trkpt lat="43.13801659422752" lon="11.483369338343639"><ele>146.0</ele><time>2026-04-26T09:57:09.999Z</time></trkpt><trkpt lat="43.138157210226474" lon="11.483363638631625"><ele>146.0</ele><time>2026-04-26T09:57:10.999Z</time></trkpt><trkpt lat="43.138300985898475" lon="11.483353264939948"><ele>146.0</ele><time>2026-04-26T09:57:11.998Z</time></trkpt><trkpt lat="43.138449528877544" lon="11.48332733163374"><ele>146.0</ele><time>2026-04-26T09:57:12.998Z</time></trkpt><trkpt lat="43.13859779828231" lon="11.483290647533066"><ele>146.0</ele><time>2026-04-26T09:57:13.998Z</time></trkpt><trkpt lat="43.13874656411072" lon="11.483242519391522"><ele>146.0</ele><time>2026-04-26T09:57:14.998Z</time></trkpt><trkpt lat="43.138884275557366" lon="11.483183074310011"><ele>146.0</ele><time>2026-04-26T09:57:15.998Z</time></trkpt><trkpt lat="43.139003712168225" lon="11.483128639159828"><ele>146.0</ele><time>2026-04-26T09:57:16.998Z</time></trkpt><trkpt lat="43.13909542334144" lon="11.483093741383614"><ele>146.0</ele><time>2026-04-26T09:57:17.998Z</time></trkpt><trkpt lat="43.13916706778737" lon="11.483114551223602"><ele>146.0</ele><time>2026-04-26T09:57:18.998Z</time></trkpt><trkpt lat="43.139222860258805" lon="11.483174710052202"><ele>145.8</ele><time>2026-04-26T09:57:19.998Z</time></trkpt><trkpt lat="43.139248833389274" lon="11.483278710278004"><ele>145.6</ele><time>2026-04-26T09:57:20.998Z</time></trkpt><trkpt lat="43.13927837874387" lon="11.483397239716274"><ele>145.4</ele><time>2026-04-26T09:57:21.998Z</time></trkpt><trkpt lat="43.13930671813774" lon="11.483540847634194"><ele>145.2</ele><time>2026-04-26T09:57:22.998Z</time></trkpt><trkpt lat="43.139344092222714" lon="11.483684595698529"><ele>145.0</ele><time>2026-04-26T09:57:23.998Z</time></trkpt><trkpt lat="43.13940244930577" lon="11.483844089276568"><ele>144.8</ele><time>2026-04-26T09:57:24.998Z</time></trkpt><trkpt lat="43.1394597940048" lon="11.483993210854356"><ele>144.6</ele><time>2026-04-26T09:57:25.998Z</time></trkpt><trkpt lat="43.139505916086314" lon="11.484130767211541"><ele>144.4</ele><time>2026-04-26T09:57:26.998Z</time></trkpt><trkpt lat="43.13953613322375" lon="11.484265082621281"><ele>144.2</ele><time>2026-04-26T09:57:27.998Z</time></trkpt><trkpt lat="43.139563923175544" lon="11.484402294811561"><ele>144.0</ele><time>2026-04-26T09:57:28.998Z</time></trkpt><trkpt lat="43.13959428439739" lon="11.484560704501337"><ele>144.25</ele><time>2026-04-26T09:57:29.998Z</time></trkpt><trkpt lat="43.139626813416385" lon="11.484740410130659"><ele>144.5</ele><time>2026-04-26T09:57:30.998Z</time></trkpt><trkpt lat="43.13965780043392" lon="11.484919437679348"><ele>144.75</ele><time>2026-04-26T09:57:31.998Z</time></trkpt><trkpt lat="43.139696201398074" lon="11.485103451178428"><ele>145.0</ele><time>2026-04-26T09:57:32.998Z</time></trkpt><trkpt lat="43.13973441810743" lon="11.48529637128164"><ele>145.66666666666669</ele><time>2026-04-26T09:57:33.998Z</time></trkpt><trkpt lat="43.13977163881484" lon="11.485493152985072"><ele>146.33333333333334</ele><time>2026-04-26T09:57:34.998Z</time></trkpt><trkpt lat="43.13980959355822" lon="11.485693854380028"><ele>147.0</ele><time>2026-04-26T09:57:35.998Z</time></trkpt><trkpt lat="43.139849247174915" lon="11.485899564024388"><ele>147.0</ele><time>2026-04-26T09:57:36.998Z</time></trkpt><trkpt lat="43.139892902082266" lon="11.48610959362643"><ele>147.0</ele><time>2026-04-26T09:57:37.998Z</time></trkpt><trkpt lat="43.13993655482142" lon="11.486326609850405"><ele>147.0</ele><time>2026-04-26T09:57:38.998Z</time></trkpt><trkpt lat="43.139978795767774" lon="11.486546271935826"><ele>147.0</ele><time>2026-04-26T09:57:39.998Z</time></trkpt><trkpt lat="43.14002268231384" lon="11.48676782275387"><ele>147.0</ele><time>2026-04-26T09:57:40.998Z</time></trkpt><trkpt lat="43.14007434068509" lon="11.48698589780726"><ele>147.0</ele><time>2026-04-26T09:57:41.998Z</time></trkpt><trkpt lat="43.14015390474467" lon="11.48718472492355"><ele>148.33333333333334</ele><time>2026-04-26T09:57:42.998Z</time></trkpt><trkpt lat="43.14026446950235" lon="11.487360464169724"><ele>149.66666666666669</ele><time>2026-04-26T09:57:43.998Z</time></trkpt><trkpt lat="43.140410551086475" lon="11.48749308199533"><ele>151.0</ele><time>2026-04-26T09:57:44.998Z</time></trkpt><trkpt lat="43.140567906486474" lon="11.487611780555087"><ele>149.0</ele><time>2026-04-26T09:57:45.998Z</time></trkpt><trkpt lat="43.14074291307502" lon="11.487704165289895"><ele>147.0</ele><time>2026-04-26T09:57:46.998Z</time></trkpt><trkpt lat="43.14090129682637" lon="11.487789757494339"><ele>145.0</ele><time>2026-04-26T09:57:47.998Z</time></trkpt><trkpt lat="43.14105629400119" lon="11.487913145187493"><ele>147.33333333333334</ele><time>2026-04-26T09:57:48.998Z</time></trkpt><trkpt lat="43.14119032884985" lon="11.48806596376282"><ele>149.66666666666666</ele><time>2026-04-26T09:57:49.998Z</time></trkpt><trkpt lat="43.14132141005093" lon="11.48820053898653"><ele>152.0</ele><time>2026-04-26T09:57:51Z</time></trkpt><trkpt lat="43.14144228817499" lon="11.488351044081702"><ele>151.66666666666666</ele><time>2026-04-26T09:57:52Z</time></trkpt><trkpt lat="43.14155966678065" lon="11.48851549209043"><ele>151.33333333333334</ele><time>2026-04-26T09:57:53Z</time></trkpt><trkpt lat="43.14166444147866" lon="11.488690548623925"><ele>151.0</ele><time>2026-04-26T09:57:54Z</time></trkpt><trkpt lat="43.141709089391455" lon="11.488886945041836"><ele>151.0</ele><time>2026-04-26T09:57:55Z</time></trkpt><trkpt lat="43.141753415207305" lon="11.489077121155752"><ele>151.0</ele><time>2026-04-26T09:57:56Z</time></trkpt><trkpt lat="43.14178927968742" lon="11.489318525157996"><ele>151.0</ele><time>2026-04-26T09:57:57Z</time></trkpt><trkpt lat="43.14184100338486" lon="11.489568370826335"><ele>152.66666666666669</ele><time>2026-04-26T09:57:58Z</time></trkpt><trkpt lat="43.14189315158413" lon="11.489812274747095"><ele>154.33333333333334</ele><time>2026-04-26T09:57:59Z</time></trkpt><trkpt lat="43.14193951553864" lon="11.490059827309448"><ele>156.0</ele><time>2026-04-26T09:58:00Z</time></trkpt><trkpt lat="43.141989850685" lon="11.490326482260782"><ele>156.66666666666666</ele><time>2026-04-26T09:58:01Z</time></trkpt><trkpt lat="43.142040011516286" lon="11.490592365517303"><ele>157.33333333333331</ele><time>2026-04-26T09:58:02Z</time></trkpt><trkpt lat="43.14208759930331" lon="11.490870154732118"><ele>158.0</ele><time>2026-04-26T09:58:03Z</time></trkpt><trkpt lat="43.14213234686367" lon="11.491157131049697"><ele>159.33333333333331</ele><time>2026-04-26T09:58:04Z</time></trkpt><trkpt lat="43.142173416040094" lon="11.4914483515581"><ele>160.66666666666666</ele><time>2026-04-26T09:58:05Z</time></trkpt><trkpt lat="43.14220947257234" lon="11.49173932281241"><ele>162.0</ele><time>2026-04-26T09:58:06Z</time></trkpt><trkpt lat="43.14224151498583" lon="11.492026857634524"><ele>163.0</ele><time>2026-04-26T09:58:07Z</time></trkpt><trkpt lat="43.14227433404276" lon="11.49231418637501"><ele>164.0</ele><time>2026-04-26T09:58:08Z</time></trkpt><trkpt lat="43.142308105887345" lon="11.492604425345565"><ele>165.0</ele><time>2026-04-26T09:58:09Z</time></trkpt><trkpt lat="43.14233882159582" lon="11.49289313979397"><ele>163.33333333333334</ele><time>2026-04-26T09:58:10Z</time></trkpt><trkpt lat="43.142370240062796" lon="11.493182955495827"><ele>161.66666666666669</ele><time>2026-04-26T09:58:11Z</time></trkpt><trkpt lat="43.142418572495124" lon="11.49346562696007"><ele>160.0</ele><time>2026-04-26T09:58:12Z</time></trkpt><trkpt lat="43.142496213503335" lon="11.493742276080908"><ele>155.66666666666669</ele><time>2026-04-26T09:58:13Z</time></trkpt><trkpt lat="43.14259321681197" lon="11.494012686834807"><ele>151.33333333333334</ele><time>2026-04-26T09:58:14Z</time></trkpt><trkpt lat="43.14270914569439" lon="11.494269819253061"><ele>147.0</ele><time>2026-04-26T09:58:15Z</time></trkpt><trkpt lat="43.14282912728274" lon="11.49452078201986"><ele>147.66666666666666</ele><time>2026-04-26T09:58:16Z</time></trkpt><trkpt lat="43.14295012844537" lon="11.494756525382218"><ele>148.33333333333331</ele><time>2026-04-26T09:58:17Z</time></trkpt><trkpt lat="43.143068744996484" lon="11.494986218190972"><ele>149.0</ele><time>2026-04-26T09:58:18Z</time></trkpt><trkpt lat="43.14317367249426" lon="11.495216882120015"><ele>148.0</ele><time>2026-04-26T09:58:19Z</time></trkpt><trkpt lat="43.143266110166685" lon="11.495419943968033"><ele>147.0</ele><time>2026-04-26T09:58:20Z</time></trkpt><trkpt lat="43.14336211769986" lon="11.495600751485975"><ele>146.0</ele><time>2026-04-26T09:58:21Z</time></trkpt><trkpt lat="43.14349112076021" lon="11.495726909618616"><ele>146.0</ele><time>2026-04-26T09:58:21.999Z</time></trkpt><trkpt lat="43.143646780757344" lon="11.495789891531894"><ele>146.0</ele><time>2026-04-26T09:58:22.999Z</time></trkpt><trkpt lat="43.14383235523047" lon="11.495823412865342"><ele>146.0</ele><time>2026-04-26T09:58:23.999Z</time></trkpt><trkpt lat="43.14402341613682" lon="11.495854398155554"><ele>145.33333333333331</ele><time>2026-04-26T09:58:24.999Z</time></trkpt><trkpt lat="43.144220317229184" lon="11.49589749457236"><ele>144.66666666666666</ele><time>2026-04-26T09:58:25.999Z</time></trkpt><trkpt lat="43.14442109464694" lon="11.495933632539545"><ele>144.0</ele><time>2026-04-26T09:58:26.999Z</time></trkpt><trkpt lat="43.144622794227836" lon="11.495985841305753"><ele>144.0</ele><time>2026-04-26T09:58:27.999Z</time></trkpt><trkpt lat="43.14484538441836" lon="11.496039341611217"><ele>144.0</ele><time>2026-04-26T09:58:28.999Z</time></trkpt><trkpt lat="43.14506592552065" lon="11.496112089909317"><ele>145.0</ele><time>2026-04-26T09:58:29.999Z</time></trkpt><trkpt lat="43.14527142707326" lon="11.496225279638363"><ele>146.0</ele><time>2026-04-26T09:58:30.999Z</time></trkpt><trkpt lat="43.1454653702897" lon="11.496373763252763"><ele>147.0</ele><time>2026-04-26T09:58:31.999Z</time></trkpt><trkpt lat="43.145642765566244" lon="11.496564997442693"><ele>150.0</ele><time>2026-04-26T09:58:32.999Z</time></trkpt><trkpt lat="43.14580829791538" lon="11.496782135266821"><ele>153.0</ele><time>2026-04-26T09:58:33.999Z</time></trkpt><trkpt lat="43.14597548584355" lon="11.496997701042787"><ele>150.5</ele><time>2026-04-26T09:58:34.999Z</time></trkpt><trkpt lat="43.14614937104496" lon="11.49720806351711"><ele>148.0</ele><time>2026-04-26T09:58:35.999Z</time></trkpt><trkpt lat="43.146324369603754" lon="11.497409314997764"><ele>148.0</ele><time>2026-04-26T09:58:36.999Z</time></trkpt><trkpt lat="43.14650032743969" lon="11.497602540720834"><ele>148.0</ele><time>2026-04-26T09:58:37.999Z</time></trkpt><trkpt lat="43.14667263458105" lon="11.497785141690455"><ele>148.0</ele><time>2026-04-26T09:58:38.999Z</time></trkpt><trkpt lat="43.146836766338225" lon="11.497958185257023"><ele>149.33333333333334</ele><time>2026-04-26T09:58:39.999Z</time></trkpt><trkpt lat="43.14699950937879" lon="11.498124982476527"><ele>150.66666666666666</ele><time>2026-04-26T09:58:40.999Z</time></trkpt><trkpt lat="43.14717177942685" lon="11.49824677212945"><ele>152.0</ele><time>2026-04-26T09:58:41.999Z</time></trkpt><trkpt lat="43.14736122380145" lon="11.498322022727251"><ele>156.66666666666666</ele><time>2026-04-26T09:58:42.999Z</time></trkpt><trkpt lat="43.14754216391863" lon="11.498429904162533"><ele>161.33333333333334</ele><time>2026-04-26T09:58:43.999Z</time></trkpt><trkpt lat="43.147710319131065" lon="11.498550964834141"><ele>166.0</ele><time>2026-04-26T09:58:44.999Z</time></trkpt><trkpt lat="43.14785797821749" lon="11.49864952098646"><ele>166.0</ele><time>2026-04-26T09:58:45.999Z</time></trkpt><trkpt lat="43.14802703119918" lon="11.498711471101604"><ele>166.0</ele><time>2026-04-26T09:58:46.999Z</time></trkpt><trkpt lat="43.14821794534911" lon="11.498717535415683"><ele>166.0</ele><time>2026-04-26T09:58:47.999Z</time></trkpt><trkpt lat="43.148403666617966" lon="11.498677713643263"><ele>166.66666666666669</ele><time>2026-04-26T09:58:48.999Z</time></trkpt><trkpt lat="43.14857743506594" lon="11.498648608863695"><ele>167.33333333333334</ele><time>2026-04-26T09:58:49.999Z</time></trkpt><trkpt lat="43.14875266665571" lon="11.498651980487239"><ele>168.0</ele><time>2026-04-26T09:58:50.999Z</time></trkpt><trkpt lat="43.14891304953635" lon="11.498720394281767"><ele>168.0</ele><time>2026-04-26T09:58:51.999Z</time></trkpt><trkpt lat="43.14905515489882" lon="11.498848885663186"><ele>168.0</ele><time>2026-04-26T09:58:52.999Z</time></trkpt><trkpt lat="43.14917572261482" lon="11.499000732504767"><ele>168.0</ele><time>2026-04-26T09:58:53.999Z</time></trkpt><trkpt lat="43.14929324108491" lon="11.499122612603395"><ele>168.0</ele><time>2026-04-26T09:58:54.999Z</time></trkpt><trkpt lat="43.149408499908766" lon="11.499251005253099"><ele>168.0</ele><time>2026-04-26T09:58:55.999Z</time></trkpt><trkpt lat="43.14937707678599" lon="11.499657812546113"><ele>168.0</ele><time>2026-04-26T09:58:56.999Z</time></trkpt><trkpt lat="43.1494862901409" lon="11.499844537905302"><ele>166.0</ele><time>2026-04-26T09:58:57.999Z</time></trkpt><trkpt lat="43.14963400486745" lon="11.499984749164984"><ele>164.0</ele><time>2026-04-26T09:58:58.999Z</time></trkpt><trkpt lat="43.14980501672727" lon="11.500111657157188"><ele>162.0</ele><time>2026-04-26T09:58:59.999Z</time></trkpt><trkpt lat="43.14995857707648" lon="11.500240015526856"><ele>164.66666666666666</ele><time>2026-04-26T09:59:00.999Z</time></trkpt><trkpt lat="43.150084593299724" lon="11.500410727000551"><ele>167.33333333333331</ele><time>2026-04-26T09:59:01.999Z</time></trkpt><trkpt lat="43.150193298943634" lon="11.500597770773268"><ele>170.0</ele><time>2026-04-26T09:59:02.999Z</time></trkpt><trkpt lat="43.15031007478709" lon="11.500781250072167"><ele>170.0</ele><time>2026-04-26T09:59:03.999Z</time></trkpt><trkpt lat="43.15042630341297" lon="11.500985966704393"><ele>170.0</ele><time>2026-04-26T09:59:04.999Z</time></trkpt><trkpt lat="43.15052713821618" lon="11.501206998284635"><ele>170.0</ele><time>2026-04-26T09:59:05.999Z</time></trkpt><trkpt lat="43.150592530325305" lon="11.501443752723215"><ele>172.33333333333331</ele><time>2026-04-26T09:59:06.999Z</time></trkpt><trkpt lat="43.15066195758244" lon="11.501678895378506"><ele>174.66666666666666</ele><time>2026-04-26T09:59:07.999Z</time></trkpt><trkpt lat="43.15076121057775" lon="11.50189491682675"><ele>177.0</ele><time>2026-04-26T09:59:08.999Z</time></trkpt><trkpt lat="43.15088441515601" lon="11.502089758743598"><ele>177.0</ele><time>2026-04-26T09:59:09.999Z</time></trkpt><trkpt lat="43.15103492905323" lon="11.502276338291033"><ele>177.0</ele><time>2026-04-26T09:59:10.999Z</time></trkpt><trkpt lat="43.15119256923524" lon="11.502459242146164"><ele>177.0</ele><time>2026-04-26T09:59:11.999Z</time></trkpt><trkpt lat="43.15133978985128" lon="11.502652912051822"><ele>177.0</ele><time>2026-04-26T09:59:12.999Z</time></trkpt><trkpt lat="43.151484981410896" lon="11.502857693156754"><ele>177.0</ele><time>2026-04-26T09:59:13.999Z</time></trkpt><trkpt lat="43.15163176846927" lon="11.503067324823585"><ele>177.0</ele><time>2026-04-26T09:59:14.999Z</time></trkpt><trkpt lat="43.15177887786426" lon="11.503279067215175"><ele>182.33333333333331</ele><time>2026-04-26T09:59:15.999Z</time></trkpt><trkpt lat="43.151925033358225" lon="11.503481888540698"><ele>187.66666666666666</ele><time>2026-04-26T09:59:16.999Z</time></trkpt><trkpt lat="43.15208160485383" lon="11.503670179000986"><ele>193.0</ele><time>2026-04-26T09:59:17.998Z</time></trkpt><trkpt lat="43.15225600240659" lon="11.503828659450962"><ele>195.33333333333331</ele><time>2026-04-26T09:59:18.998Z</time></trkpt><trkpt lat="43.15244134317415" lon="11.50394970609504"><ele>197.66666666666669</ele><time>2026-04-26T09:59:19.998Z</time></trkpt><trkpt lat="43.152618833551315" lon="11.504051085715385"><ele>200.0</ele><time>2026-04-26T09:59:20.998Z</time></trkpt><trkpt lat="43.15278539870708" lon="11.504157206803987"><ele>200.0</ele><time>2026-04-26T09:59:21.998Z</time></trkpt><trkpt lat="43.152948248668345" lon="11.504287942590155"><ele>200.0</ele><time>2026-04-26T09:59:22.998Z</time></trkpt><trkpt lat="43.15306731709902" lon="11.504421501608105"><ele>200.0</ele><time>2026-04-26T09:59:23.998Z</time></trkpt><trkpt lat="43.15315193896118" lon="11.504571634957475"><ele>201.0</ele><time>2026-04-26T09:59:24.998Z</time></trkpt><trkpt lat="43.15319355915191" lon="11.504748457849864"><ele>202.0</ele><time>2026-04-26T09:59:25.998Z</time></trkpt><trkpt lat="43.153246380122" lon="11.50490718669448"><ele>203.0</ele><time>2026-04-26T09:59:26.998Z</time></trkpt><trkpt lat="43.153334388683945" lon="11.50506744725504"><ele>204.0</ele><time>2026-04-26T09:59:27.998Z</time></trkpt><trkpt lat="43.15344603702786" lon="11.505206879489451"><ele>204.25</ele><time>2026-04-26T09:59:28.998Z</time></trkpt><trkpt lat="43.1535610015151" lon="11.505309167194673"><ele>204.5</ele><time>2026-04-26T09:59:29.998Z</time></trkpt><trkpt lat="43.15369160873776" lon="11.505371435668906"><ele>204.75</ele><time>2026-04-26T09:59:30.998Z</time></trkpt><trkpt lat="43.153825803303995" lon="11.505392783772033"><ele>205.0</ele><time>2026-04-26T09:59:31.998Z</time></trkpt><trkpt lat="43.15396963432409" lon="11.505397547301069"><ele>203.25</ele><time>2026-04-26T09:59:32.998Z</time></trkpt><trkpt lat="43.15412164207184" lon="11.505377430793867"><ele>201.5</ele><time>2026-04-26T09:59:33.998Z</time></trkpt><trkpt lat="43.15425994764654" lon="11.505335012933989"><ele>199.75</ele><time>2026-04-26T09:59:34.998Z</time></trkpt><trkpt lat="43.15439835170375" lon="11.505276151155224"><ele>198.0</ele><time>2026-04-26T09:59:35.998Z</time></trkpt><trkpt lat="43.15454880486751" lon="11.50522630466268"><ele>198.0</ele><time>2026-04-26T09:59:36.998Z</time></trkpt><trkpt lat="43.15471285796527" lon="11.505209922490135"><ele>198.0</ele><time>2026-04-26T09:59:37.998Z</time></trkpt><trkpt lat="43.154840232427595" lon="11.505206737798355"><ele>198.0</ele><time>2026-04-26T09:59:38.998Z</time></trkpt><trkpt lat="43.1549210440344" lon="11.50529252195294"><ele>198.0</ele><time>2026-04-26T09:59:39.998Z</time></trkpt><trkpt lat="43.15500321924718" lon="11.50544014990723"><ele>202.0</ele><time>2026-04-26T09:59:40.998Z</time></trkpt><trkpt lat="43.15504652981452" lon="11.505637393143857"><ele>206.0</ele><time>2026-04-26T09:59:41.998Z</time></trkpt><trkpt lat="43.155083365849464" lon="11.505841003419317"><ele>210.0</ele><time>2026-04-26T09:59:42.998Z</time></trkpt><trkpt lat="43.155113027113075" lon="11.506055496792968"><ele>210.0</ele><time>2026-04-26T09:59:43.998Z</time></trkpt><trkpt lat="43.15516123299337" lon="11.50623744978235"><ele>210.0</ele><time>2026-04-26T09:59:44.998Z</time></trkpt><trkpt lat="43.1551882019442" lon="11.506427757401978"><ele>210.0</ele><time>2026-04-26T09:59:45.998Z</time></trkpt><trkpt lat="43.155237820429534" lon="11.506618418690453"><ele>210.0</ele><time>2026-04-26T09:59:46.998Z</time></trkpt><trkpt lat="43.15532856627858" lon="11.506761591272927"><ele>210.5</ele><time>2026-04-26T09:59:47.998Z</time></trkpt><trkpt lat="43.15544507189398" lon="11.506854442240162"><ele>211.0</ele><time>2026-04-26T09:59:48.998Z</time></trkpt><trkpt lat="43.15558426755207" lon="11.506907068723459"><ele>211.5</ele><time>2026-04-26T09:59:49.998Z</time></trkpt><trkpt lat="43.15574740153897" lon="11.5069387584163"><ele>212.0</ele><time>2026-04-26T09:59:50.998Z</time></trkpt><trkpt lat="43.15591281235698" lon="11.506981945234136"><ele>210.33333333333334</ele><time>2026-04-26T09:59:51.998Z</time></trkpt><trkpt lat="43.1560675264078" lon="11.507010945762424"><ele>208.66666666666669</ele><time>2026-04-26T09:59:52.998Z</time></trkpt><trkpt lat="43.15624392120972" lon="11.507011442427421"><ele>207.0</ele><time>2026-04-26T09:59:53.998Z</time></trkpt><trkpt lat="43.15641876917323" lon="11.507047171760025"><ele>206.66666666666669</ele><time>2026-04-26T09:59:54.998Z</time></trkpt><trkpt lat="43.15659622701014" lon="11.507061597610301"><ele>206.33333333333334</ele><time>2026-04-26T09:59:55.998Z</time></trkpt><trkpt lat="43.15677406462579" lon="11.507070577375782"><ele>206.0</ele><time>2026-04-26T09:59:57Z</time></trkpt><trkpt lat="43.15694887516854" lon="11.507038009684214"><ele>206.0</ele><time>2026-04-26T09:59:58Z</time></trkpt><trkpt lat="43.15711708598537" lon="11.506986939385227"><ele>206.0</ele><time>2026-04-26T09:59:59Z</time></trkpt><trkpt lat="43.157279723467816" lon="11.506934077360388"><ele>206.0</ele><time>2026-04-26T10:00:00Z</time></trkpt><trkpt lat="43.15744327535902" lon="11.50689675659551"><ele>206.5</ele><time>2026-04-26T10:00:01Z</time></trkpt><trkpt lat="43.15759395684978" lon="11.506860045757843"><ele>207.0</ele><time>2026-04-26T10:00:02Z</time></trkpt><trkpt lat="43.1577304354262" lon="11.50682230457447"><ele>207.5</ele><time>2026-04-26T10:00:03Z</time></trkpt><trkpt lat="43.15785298700405" lon="11.506779659250512"><ele>208.0</ele><time>2026-04-26T10:00:04Z</time></trkpt><trkpt lat="43.157970613451845" lon="11.506752809887256"><ele>208.0</ele><time>2026-04-26T10:00:05Z</time></trkpt><trkpt lat="43.15809075293941" lon="11.506750707730449"><ele>208.0</ele><time>2026-04-26T10:00:06Z</time></trkpt><trkpt lat="43.15820036325567" lon="11.506791814509"><ele>208.0</ele><time>2026-04-26T10:00:07Z</time></trkpt><trkpt lat="43.15828483992643" lon="11.506885734687687"><ele>208.0</ele><time>2026-04-26T10:00:08Z</time></trkpt><trkpt lat="43.15833817107389" lon="11.507012642993168"><ele>208.0</ele><time>2026-04-26T10:00:09Z</time></trkpt><trkpt lat="43.15832619448214" lon="11.507151192355085"><ele>209.8</ele><time>2026-04-26T10:00:10Z</time></trkpt><trkpt lat="43.158295059867044" lon="11.507267011675909"><ele>211.60000000000002</ele><time>2026-04-26T10:00:11Z</time></trkpt><trkpt lat="43.15825829660199" lon="11.507400900143969"><ele>213.39999999999998</ele><time>2026-04-26T10:00:12Z</time></trkpt><trkpt lat="43.15820374865011" lon="11.50753349753225"><ele>215.2</ele><time>2026-04-26T10:00:13Z</time></trkpt><trkpt lat="43.15817954971127" lon="11.507683542099958"><ele>217.0</ele><time>2026-04-26T10:00:14Z</time></trkpt><trkpt lat="43.1581867411592" lon="11.507834351871617"><ele>219.0</ele><time>2026-04-26T10:00:15Z</time></trkpt><trkpt lat="43.15822193223871" lon="11.507986645705557"><ele>221.0</ele><time>2026-04-26T10:00:16Z</time></trkpt><trkpt lat="43.15828007865724" lon="11.508137174303531"><ele>223.0</ele><time>2026-04-26T10:00:17Z</time></trkpt><trkpt lat="43.15836021264962" lon="11.50829693724077"><ele>225.0</ele><time>2026-04-26T10:00:18Z</time></trkpt><trkpt lat="43.15841959166337" lon="11.508443764227867"><ele>225.0</ele><time>2026-04-26T10:00:19Z</time></trkpt><trkpt lat="43.15847593201797" lon="11.50859504095928"><ele>225.0</ele><time>2026-04-26T10:00:20Z</time></trkpt><trkpt lat="43.1585110285813" lon="11.508748700401428"><ele>225.0</ele><time>2026-04-26T10:00:21Z</time></trkpt><trkpt lat="43.15853341413725" lon="11.508900006990158"><ele>225.0</ele><time>2026-04-26T10:00:22Z</time></trkpt><trkpt lat="43.15857387245541" lon="11.509055560569116"><ele>227.33333333333331</ele><time>2026-04-26T10:00:23Z</time></trkpt><trkpt lat="43.15865701660652" lon="11.50920552080102"><ele>229.66666666666666</ele><time>2026-04-26T10:00:24Z</time></trkpt><trkpt lat="43.158743843043055" lon="11.509364000017447"><ele>232.0</ele><time>2026-04-26T10:00:25Z</time></trkpt><trkpt lat="43.158873036345746" lon="11.509515804722085"><ele>232.0</ele><time>2026-04-26T10:00:26Z</time></trkpt><trkpt lat="43.15897591301059" lon="11.50968504499594"><ele>232.0</ele><time>2026-04-26T10:00:27Z</time></trkpt><trkpt lat="43.15908812250185" lon="11.509857844999527"><ele>232.0</ele><time>2026-04-26T10:00:28Z</time></trkpt><trkpt lat="43.15919876401869" lon="11.510013343537842"><ele>232.0</ele><time>2026-04-26T10:00:28.999Z</time></trkpt><trkpt lat="43.1593288143446" lon="11.510125406493373"><ele>232.0</ele><time>2026-04-26T10:00:29.999Z</time></trkpt><trkpt lat="43.15948380014585" lon="11.510179407937208"><ele>232.0</ele><time>2026-04-26T10:00:30.999Z</time></trkpt><trkpt lat="43.15963936266151" lon="11.510219178503666"><ele>232.0</ele><time>2026-04-26T10:00:31.999Z</time></trkpt><trkpt lat="43.1597683460576" lon="11.510258842277278"><ele>232.0</ele><time>2026-04-26T10:00:32.999Z</time></trkpt><trkpt lat="43.15986885406681" lon="11.510374557500832"><ele>232.0</ele><time>2026-04-26T10:00:33.999Z</time></trkpt><trkpt lat="43.15990085172786" lon="11.510508067467486"><ele>232.0</ele><time>2026-04-26T10:00:34.999Z</time></trkpt><trkpt lat="43.15987477355999" lon="11.510668736317724"><ele>235.0</ele><time>2026-04-26T10:00:35.999Z</time></trkpt><trkpt lat="43.15982699164625" lon="11.510829583101135"><ele>238.0</ele><time>2026-04-26T10:00:36.999Z</time></trkpt><trkpt lat="43.15979377023446" lon="11.510949841707903"><ele>241.0</ele><time>2026-04-26T10:00:38.999Z</time></trkpt><trkpt lat="43.159733385657724" lon="11.511083306581076"><ele>244.0</ele><time>2026-04-26T10:00:39.999Z</time></trkpt><trkpt lat="43.15967024639072" lon="11.511352535082354"><ele>244.33333333333331</ele><time>2026-04-26T10:00:40.999Z</time></trkpt><trkpt lat="43.15967991616128" lon="11.51159083587023"><ele>244.66666666666669</ele><time>2026-04-26T10:00:41.999Z</time></trkpt><trkpt lat="43.15970450212368" lon="11.511780017425588"><ele>245.0</ele><time>2026-04-26T10:00:42.999Z</time></trkpt><trkpt lat="43.159736177483644" lon="11.512024893261957"><ele>239.5</ele><time>2026-04-26T10:00:43.999Z</time></trkpt><trkpt lat="43.15976398522878" lon="11.51231694652924"><ele>234.0</ele><time>2026-04-26T10:00:44.999Z</time></trkpt><trkpt lat="43.15979907454853" lon="11.51265716254257"><ele>235.5</ele><time>2026-04-26T10:00:45.999Z</time></trkpt><trkpt lat="43.15990227711157" lon="11.513011656023526"><ele>237.0</ele><time>2026-04-26T10:00:46.999Z</time></trkpt><trkpt lat="43.16004639014395" lon="11.513242833471269"><ele>237.0</ele><time>2026-04-26T10:00:47.999Z</time></trkpt><trkpt lat="43.16019397672408" lon="11.513383860312413"><ele>237.0</ele><time>2026-04-26T10:00:48.999Z</time></trkpt><trkpt lat="43.16030893557967" lon="11.51346132699872"><ele>237.0</ele><time>2026-04-26T10:00:49.999Z</time></trkpt><trkpt lat="43.16045400175235" lon="11.513535728591087"><ele>237.0</ele><time>2026-04-26T10:00:50.999Z</time></trkpt><trkpt lat="43.160599722921056" lon="11.513609958518344"><ele>237.0</ele><time>2026-04-26T10:00:51.999Z</time></trkpt><trkpt lat="43.160742784851095" lon="11.513678360833868"><ele>237.0</ele><time>2026-04-26T10:00:52.999Z</time></trkpt><trkpt lat="43.16093282444534" lon="11.51375690910916"><ele>235.66666666666669</ele><time>2026-04-26T10:00:53.999Z</time></trkpt><trkpt lat="43.161117689590725" lon="11.513864586402644"><ele>234.33333333333334</ele><time>2026-04-26T10:00:54.999Z</time></trkpt><trkpt lat="43.16130506191039" lon="11.5139649527329"><ele>233.0</ele><time>2026-04-26T10:00:55.999Z</time></trkpt><trkpt lat="43.161510077136406" lon="11.514073805690476"><ele>230.0</ele><time>2026-04-26T10:00:56.999Z</time></trkpt><trkpt lat="43.161694438622305" lon="11.51420111153328"><ele>227.0</ele><time>2026-04-26T10:00:57.999Z</time></trkpt><trkpt lat="43.16188030243762" lon="11.514351424310721"><ele>224.0</ele><time>2026-04-26T10:00:58.999Z</time></trkpt><trkpt lat="43.16206070106811" lon="11.51449699245275"><ele>222.33333333333334</ele><time>2026-04-26T10:00:59.999Z</time></trkpt><trkpt lat="43.16223369369626" lon="11.514637335893852"><ele>220.66666666666669</ele><time>2026-04-26T10:01:00.999Z</time></trkpt><trkpt lat="43.16240259259918" lon="11.514770249974216"><ele>219.0</ele><time>2026-04-26T10:01:01.999Z</time></trkpt><trkpt lat="43.1625904905647" lon="11.514912314923887"><ele>223.33333333333331</ele><time>2026-04-26T10:01:02.999Z</time></trkpt><trkpt lat="43.162779997136916" lon="11.515000939275753"><ele>227.66666666666666</ele><time>2026-04-26T10:01:03.999Z</time></trkpt><trkpt lat="43.16298236479896" lon="11.515091849538088"><ele>232.0</ele><time>2026-04-26T10:01:04.999Z</time></trkpt><trkpt lat="43.16313798771235" lon="11.514943111621077"><ele>232.66666666666666</ele><time>2026-04-26T10:01:05.999Z</time></trkpt><trkpt lat="43.16331245255234" lon="11.514796339550779"><ele>233.33333333333331</ele><time>2026-04-26T10:01:06.999Z</time></trkpt><trkpt lat="43.163464040316214" lon="11.514588923016719"><ele>234.0</ele><time>2026-04-26T10:01:07.999Z</time></trkpt><trkpt lat="43.1636524923346" lon="11.514472837635932"><ele>230.33333333333331</ele><time>2026-04-26T10:01:08.999Z</time></trkpt><trkpt lat="43.16386081061167" lon="11.514376396937443"><ele>226.66666666666666</ele><time>2026-04-26T10:01:09.999Z</time></trkpt><trkpt lat="43.164059144605424" lon="11.514263687543608"><ele>223.0</ele><time>2026-04-26T10:01:10.999Z</time></trkpt><trkpt lat="43.164257752035006" lon="11.514147642745352"><ele>223.0</ele><time>2026-04-26T10:01:11.999Z</time></trkpt><trkpt lat="43.16445145806714" lon="11.514034242031338"><ele>223.0</ele><time>2026-04-26T10:01:12.999Z</time></trkpt><trkpt lat="43.16463129833813" lon="11.51393048970156"><ele>223.0</ele><time>2026-04-26T10:01:13.999Z</time></trkpt><trkpt lat="43.16481370200222" lon="11.513885455734053"><ele>223.66666666666666</ele><time>2026-04-26T10:01:14.999Z</time></trkpt><trkpt lat="43.16496770605457" lon="11.513861927246694"><ele>224.33333333333331</ele><time>2026-04-26T10:01:15.999Z</time></trkpt><trkpt lat="43.16511168980819" lon="11.513890741328504"><ele>225.0</ele><time>2026-04-26T10:01:16.999Z</time></trkpt><trkpt lat="43.165264345492126" lon="11.51395301413966"><ele>225.0</ele><time>2026-04-26T10:01:17.999Z</time></trkpt><trkpt lat="43.165396006589916" lon="11.514027687075105"><ele>225.0</ele><time>2026-04-26T10:01:18.999Z</time></trkpt><trkpt lat="43.165483556556346" lon="11.514138683901566"><ele>225.0</ele><time>2026-04-26T10:01:19.999Z</time></trkpt><trkpt lat="43.16557204203308" lon="11.514301418324704"><ele>225.0</ele><time>2026-04-26T10:01:20.999Z</time></trkpt><trkpt lat="43.165677766261744" lon="11.514513854620768"><ele>225.5</ele><time>2026-04-26T10:01:21.999Z</time></trkpt><trkpt lat="43.16578130260542" lon="11.514663075293555"><ele>226.0</ele><time>2026-04-26T10:01:22.999Z</time></trkpt><trkpt lat="43.16591068685653" lon="11.514737198274409"><ele>226.5</ele><time>2026-04-26T10:01:23.999Z</time></trkpt><trkpt lat="43.16602404859048" lon="11.514614707322677"><ele>227.0</ele><time>2026-04-26T10:01:24.998Z</time></trkpt><trkpt lat="43.166095945799945" lon="11.514543448617049"><ele>229.0</ele><time>2026-04-26T10:01:25.998Z</time></trkpt><trkpt lat="43.166156549778194" lon="11.514412327487921"><ele>231.0</ele><time>2026-04-26T10:01:26.998Z</time></trkpt><trkpt lat="43.166213538098674" lon="11.514194577725467"><ele>233.0</ele><time>2026-04-26T10:01:27.998Z</time></trkpt><trkpt lat="43.16631014405926" lon="11.514035918162577"><ele>235.0</ele><time>2026-04-26T10:01:28.998Z</time></trkpt><trkpt lat="43.16641055911049" lon="11.513909822444056"><ele>235.0</ele><time>2026-04-26T10:01:29.998Z</time></trkpt><trkpt lat="43.16652646639397" lon="11.513835000391989"><ele>235.0</ele><time>2026-04-26T10:01:30.998Z</time></trkpt><trkpt lat="43.16664995558534" lon="11.51380212031716"><ele>235.0</ele><time>2026-04-26T10:01:31.998Z</time></trkpt><trkpt lat="43.166771966143074" lon="11.513859555127443"><ele>235.0</ele><time>2026-04-26T10:01:32.998Z</time></trkpt><trkpt lat="43.16686868049887" lon="11.513915898120308"><ele>234.0</ele><time>2026-04-26T10:01:33.998Z</time></trkpt><trkpt lat="43.1669485102421" lon="11.513996038522498"><ele>233.0</ele><time>2026-04-26T10:01:34.998Z</time></trkpt><trkpt lat="43.16709874351112" lon="11.514112972070077"><ele>232.0</ele><time>2026-04-26T10:01:35.998Z</time></trkpt><trkpt lat="43.16722490293741" lon="11.514286259827342"><ele>232.0</ele><time>2026-04-26T10:01:36.998Z</time></trkpt><trkpt lat="43.16731616782532" lon="11.514428153255093"><ele>232.0</ele><time>2026-04-26T10:01:37.998Z</time></trkpt><trkpt lat="43.16733755468595" lon="11.51461916342947"><ele>232.0</ele><time>2026-04-26T10:01:38.998Z</time></trkpt><trkpt lat="43.16737918952676" lon="11.514806529828231"><ele>232.0</ele><time>2026-04-26T10:01:39.998Z</time></trkpt><trkpt lat="43.16741786694888" lon="11.515010592936626"><ele>232.33333333333331</ele><time>2026-04-26T10:01:40.998Z</time></trkpt><trkpt lat="43.16747965075288" lon="11.515194726112549"><ele>232.66666666666669</ele><time>2026-04-26T10:01:41.998Z</time></trkpt><trkpt lat="43.16757694167605" lon="11.515341117833062"><ele>233.0</ele><time>2026-04-26T10:01:42.998Z</time></trkpt><trkpt lat="43.167731127692" lon="11.51545464554581"><ele>228.66666666666669</ele><time>2026-04-26T10:01:43.998Z</time></trkpt><trkpt lat="43.167892090449335" lon="11.515537929960042"><ele>224.33333333333331</ele><time>2026-04-26T10:01:44.998Z</time></trkpt><trkpt lat="43.16804571309055" lon="11.515634770174058"><ele>220.0</ele><time>2026-04-26T10:01:45.998Z</time></trkpt><trkpt lat="43.16818858060285" lon="11.51574322530749"><ele>224.66666666666666</ele><time>2026-04-26T10:01:46.998Z</time></trkpt><trkpt lat="43.16834138693548" lon="11.515856535956374"><ele>229.33333333333331</ele><time>2026-04-26T10:01:47.998Z</time></trkpt><trkpt lat="43.168502215962015" lon="11.515907925018734"><ele>234.0</ele><time>2026-04-26T10:01:48.998Z</time></trkpt><trkpt lat="43.168654322770436" lon="11.515900819471064"><ele>234.0</ele><time>2026-04-26T10:01:49.998Z</time></trkpt><trkpt lat="43.16881049437012" lon="11.515874589137669"><ele>234.0</ele><time>2026-04-26T10:01:50.998Z</time></trkpt><trkpt lat="43.16895830735205" lon="11.515866610992001"><ele>234.0</ele><time>2026-04-26T10:01:51.998Z</time></trkpt><trkpt lat="43.16912399051411" lon="11.51591818835092"><ele>236.0</ele><time>2026-04-26T10:01:52.998Z</time></trkpt><trkpt lat="43.16928463839705" lon="11.51599678969694"><ele>238.0</ele><time>2026-04-26T10:01:53.998Z</time></trkpt><trkpt lat="43.16943948512946" lon="11.51608198861198"><ele>240.0</ele><time>2026-04-26T10:01:54.998Z</time></trkpt><trkpt lat="43.1695894961269" lon="11.516159668639169"><ele>240.0</ele><time>2026-04-26T10:01:55.998Z</time></trkpt><trkpt lat="43.16976773407299" lon="11.516217523850703"><ele>240.0</ele><time>2026-04-26T10:01:56.998Z</time></trkpt><trkpt lat="43.1699580517623" lon="11.516216466112677"><ele>240.0</ele><time>2026-04-26T10:01:57.998Z</time></trkpt><trkpt lat="43.17012303913106" lon="11.516259827858942"><ele>235.33333333333331</ele><time>2026-04-26T10:01:58.998Z</time></trkpt><trkpt lat="43.17029706684024" lon="11.51634937553964"><ele>230.66666666666666</ele><time>2026-04-26T10:01:59.998Z</time></trkpt><trkpt lat="43.17047154445152" lon="11.516451292128687"><ele>226.0</ele><time>2026-04-26T10:02:00.998Z</time></trkpt><trkpt lat="43.170635287516724" lon="11.516558745373942"><ele>230.0</ele><time>2026-04-26T10:02:01.998Z</time></trkpt><trkpt lat="43.17080714718731" lon="11.51666152293981"><ele>234.0</ele><time>2026-04-26T10:02:03Z</time></trkpt><trkpt lat="43.170994791502046" lon="11.516770427682761"><ele>238.0</ele><time>2026-04-26T10:02:04Z</time></trkpt><trkpt lat="43.17118803818505" lon="11.516875136364993"><ele>238.0</ele><time>2026-04-26T10:02:05Z</time></trkpt><trkpt lat="43.17138723279717" lon="11.516992171685196"><ele>238.0</ele><time>2026-04-26T10:02:06Z</time></trkpt><trkpt lat="43.171590234388354" lon="11.517104342044101"><ele>238.0</ele><time>2026-04-26T10:02:07Z</time></trkpt><trkpt lat="43.17179002267545" lon="11.517212079560753"><ele>238.66666666666666</ele><time>2026-04-26T10:02:08Z</time></trkpt><trkpt lat="43.17198708417286" lon="11.517324413479919"><ele>239.33333333333331</ele><time>2026-04-26T10:02:09Z</time></trkpt><trkpt lat="43.172182482657874" lon="11.517435580458747"><ele>240.0</ele><time>2026-04-26T10:02:10Z</time></trkpt><trkpt lat="43.172379964359784" lon="11.517525573693417"><ele>240.0</ele><time>2026-04-26T10:02:11Z</time></trkpt><trkpt lat="43.172588919802514" lon="11.517578513524674"><ele>240.0</ele><time>2026-04-26T10:02:12Z</time></trkpt><trkpt lat="43.17279557645649" lon="11.517615084293315"><ele>240.0</ele><time>2026-04-26T10:02:13Z</time></trkpt><trkpt lat="43.17297218704823" lon="11.51762334562763"><ele>240.0</ele><time>2026-04-26T10:02:14Z</time></trkpt><trkpt lat="43.17316038156761" lon="11.51764123221857"><ele>240.0</ele><time>2026-04-26T10:02:15Z</time></trkpt><trkpt lat="43.173330854017124" lon="11.517694449510724"><ele>240.0</ele><time>2026-04-26T10:02:16Z</time></trkpt><trkpt lat="43.17349182841404" lon="11.517736895417828"><ele>242.0</ele><time>2026-04-26T10:02:17Z</time></trkpt><trkpt lat="43.173646714131976" lon="11.517879146102576"><ele>244.0</ele><time>2026-04-26T10:02:18Z</time></trkpt><trkpt lat="43.17379789669047" lon="11.517990455225409"><ele>246.0</ele><time>2026-04-26T10:02:19Z</time></trkpt><trkpt lat="43.17392304878143" lon="11.518180323097459"><ele>249.0</ele><time>2026-04-26T10:02:20Z</time></trkpt><trkpt lat="43.17404787871573" lon="11.518363337807859"><ele>252.0</ele><time>2026-04-26T10:02:21Z</time></trkpt><trkpt lat="43.1741688018035" lon="11.518540288742184"><ele>255.0</ele><time>2026-04-26T10:02:22Z</time></trkpt><trkpt lat="43.174298713738565" lon="11.518680320341957"><ele>255.0</ele><time>2026-04-26T10:02:23Z</time></trkpt><trkpt lat="43.17445764807778" lon="11.518732602561542"><ele>255.0</ele><time>2026-04-26T10:02:24Z</time></trkpt><trkpt lat="43.17461021896568" lon="11.518745538688075"><ele>255.0</ele><time>2026-04-26T10:02:25Z</time></trkpt><trkpt lat="43.174757760403374" lon="11.518735318371785"><ele>254.75</ele><time>2026-04-26T10:02:26Z</time></trkpt><trkpt lat="43.174877744437836" lon="11.51873418947514"><ele>254.5</ele><time>2026-04-26T10:02:27Z</time></trkpt><trkpt lat="43.174999284312214" lon="11.518724743823944"><ele>254.25</ele><time>2026-04-26T10:02:28Z</time></trkpt><trkpt lat="43.17509220743301" lon="11.518847046596475"><ele>254.0</ele><time>2026-04-26T10:02:29Z</time></trkpt><trkpt lat="43.17514689654617" lon="11.518980921895626"><ele>257.0</ele><time>2026-04-26T10:02:30Z</time></trkpt><trkpt lat="43.175206101967746" lon="11.519195970083732"><ele>260.0</ele><time>2026-04-26T10:02:30.999Z</time></trkpt><trkpt lat="43.175262396186454" lon="11.519385752010693"><ele>263.0</ele><time>2026-04-26T10:02:31.999Z</time></trkpt><trkpt lat="43.1753243313714" lon="11.519570266969232"><ele>263.0</ele><time>2026-04-26T10:02:32.999Z</time></trkpt><trkpt lat="43.175370888636486" lon="11.519770002875228"><ele>263.0</ele><time>2026-04-26T10:02:33.999Z</time></trkpt><trkpt lat="43.175395951678645" lon="11.519962350650355"><ele>263.0</ele><time>2026-04-26T10:02:34.999Z</time></trkpt><trkpt lat="43.175387767396714" lon="11.52016836124019"><ele>263.0</ele><time>2026-04-26T10:02:35.999Z</time></trkpt><trkpt lat="43.175390009694695" lon="11.520409967248687"><ele>262.33333333333337</ele><time>2026-04-26T10:02:36.999Z</time></trkpt><trkpt lat="43.17540078268007" lon="11.520633467608297"><ele>261.6666666666667</ele><time>2026-04-26T10:02:37.999Z</time></trkpt><trkpt lat="43.17539319921321" lon="11.520875587182251"><ele>261.0</ele><time>2026-04-26T10:02:38.999Z</time></trkpt><trkpt lat="43.175362154502565" lon="11.521113404972292"><ele>262.0</ele><time>2026-04-26T10:02:39.999Z</time></trkpt><trkpt lat="43.17531075994486" lon="11.521336142874055"><ele>263.0</ele><time>2026-04-26T10:02:40.999Z</time></trkpt><trkpt lat="43.175272087032" lon="11.521552529848183"><ele>264.0</ele><time>2026-04-26T10:02:41.999Z</time></trkpt><trkpt lat="43.17527365330791" lon="11.52175712140889"><ele>264.0</ele><time>2026-04-26T10:02:42.999Z</time></trkpt><trkpt lat="43.17532539321291" lon="11.52199385129522"><ele>264.0</ele><time>2026-04-26T10:02:43.999Z</time></trkpt><trkpt lat="43.175394209533614" lon="11.522210648537113"><ele>264.0</ele><time>2026-04-26T10:02:44.999Z</time></trkpt><trkpt lat="43.17546619289406" lon="11.522424941363573"><ele>263.0</ele><time>2026-04-26T10:02:45.999Z</time></trkpt><trkpt lat="43.17555810802481" lon="11.522610322400876"><ele>262.0</ele><time>2026-04-26T10:02:46.999Z</time></trkpt><trkpt lat="43.17567798838753" lon="11.522764867596814"><ele>261.0</ele><time>2026-04-26T10:02:47.999Z</time></trkpt><trkpt lat="43.175824019705175" lon="11.522890957970546"><ele>265.6666666666667</ele><time>2026-04-26T10:02:48.999Z</time></trkpt><trkpt lat="43.17597453289293" lon="11.523017168626042"><ele>270.33333333333337</ele><time>2026-04-26T10:02:49.999Z</time></trkpt><trkpt lat="43.176100763984095" lon="11.523148276180255"><ele>275.0</ele><time>2026-04-26T10:02:50.999Z</time></trkpt><trkpt lat="43.17623438849119" lon="11.52325931272973"><ele>275.0</ele><time>2026-04-26T10:02:51.999Z</time></trkpt><trkpt lat="43.176390749779245" lon="11.523281457910235"><ele>275.0</ele><time>2026-04-26T10:02:52.999Z</time></trkpt><trkpt lat="43.17654282530355" lon="11.523235855130993"><ele>275.0</ele><time>2026-04-26T10:02:53.999Z</time></trkpt><trkpt lat="43.17669507010478" lon="11.523207037966245"><ele>277.25</ele><time>2026-04-26T10:02:54.999Z</time></trkpt><trkpt lat="43.17682406780847" lon="11.523206865647056"><ele>279.5</ele><time>2026-04-26T10:02:55.999Z</time></trkpt><trkpt lat="43.176944747261366" lon="11.52323295236012"><ele>281.75</ele><time>2026-04-26T10:02:56.999Z</time></trkpt><trkpt lat="43.17705281165482" lon="11.523293093317502"><ele>284.0</ele><time>2026-04-26T10:02:57.999Z</time></trkpt><trkpt lat="43.17713017876041" lon="11.523386918456096"><ele>284.0</ele><time>2026-04-26T10:02:58.999Z</time></trkpt><trkpt lat="43.177199666426105" lon="11.523512052617594"><ele>284.0</ele><time>2026-04-26T10:02:59.999Z</time></trkpt><trkpt lat="43.1772492730462" lon="11.523696061676652"><ele>284.0</ele><time>2026-04-26T10:03:00.999Z</time></trkpt><trkpt lat="43.177296191327436" lon="11.52388017014215"><ele>284.0</ele><time>2026-04-26T10:03:01.999Z</time></trkpt><trkpt lat="43.177358656217216" lon="11.524070646224898"><ele>282.0</ele><time>2026-04-26T10:03:02.999Z</time></trkpt><trkpt lat="43.17739787950096" lon="11.524278649203099"><ele>280.0</ele><time>2026-04-26T10:03:03.999Z</time></trkpt><trkpt lat="43.17739892334935" lon="11.524504495381535"><ele>278.0</ele><time>2026-04-26T10:03:04.999Z</time></trkpt><trkpt lat="43.1773707394383" lon="11.52473780806492"><ele>276.6666666666667</ele><time>2026-04-26T10:03:05.999Z</time></trkpt><trkpt lat="43.17733076134005" lon="11.524963251300719"><ele>275.3333333333333</ele><time>2026-04-26T10:03:06.999Z</time></trkpt><trkpt lat="43.17729288386283" lon="11.525191257414644"><ele>274.0</ele><time>2026-04-26T10:03:07.999Z</time></trkpt><trkpt lat="43.17726497479741" lon="11.525433050952252"><ele>274.0</ele><time>2026-04-26T10:03:08.999Z</time></trkpt><trkpt lat="43.17723771220237" lon="11.525680561530269"><ele>274.0</ele><time>2026-04-26T10:03:09.999Z</time></trkpt><trkpt lat="43.177201066049186" lon="11.525939484473962"><ele>274.0</ele><time>2026-04-26T10:03:10.999Z</time></trkpt><trkpt lat="43.177154571210146" lon="11.52620451142569"><ele>274.3333333333333</ele><time>2026-04-26T10:03:11.999Z</time></trkpt><trkpt lat="43.17710939472623" lon="11.526465612891004"><ele>274.6666666666667</ele><time>2026-04-26T10:03:12.999Z</time></trkpt><trkpt lat="43.177085550150956" lon="11.526707272978117"><ele>275.0</ele><time>2026-04-26T10:03:13.999Z</time></trkpt><trkpt lat="43.17708287913379" lon="11.526946602176436"><ele>272.0</ele><time>2026-04-26T10:03:14.999Z</time></trkpt><trkpt lat="43.17711632544417" lon="11.527187400940551"><ele>269.0</ele><time>2026-04-26T10:03:15.999Z</time></trkpt><trkpt lat="43.177180113186324" lon="11.527431368189651"><ele>266.0</ele><time>2026-04-26T10:03:16.999Z</time></trkpt><trkpt lat="43.17722852267748" lon="11.527669424924133"><ele>261.0</ele><time>2026-04-26T10:03:17.999Z</time></trkpt><trkpt lat="43.17726910592235" lon="11.527918625607862"><ele>256.0</ele><time>2026-04-26T10:03:18.999Z</time></trkpt><trkpt lat="43.17730703515245" lon="11.528171744496467"><ele>251.0</ele><time>2026-04-26T10:03:19.999Z</time></trkpt><trkpt lat="43.177343950581" lon="11.528434738865775"><ele>258.6666666666667</ele><time>2026-04-26T10:03:20.999Z</time></trkpt><trkpt lat="43.17737751858424" lon="11.52869754040269"><ele>266.3333333333333</ele><time>2026-04-26T10:03:21.999Z</time></trkpt><trkpt lat="43.177396869781035" lon="11.528976861838153"><ele>274.0</ele><time>2026-04-26T10:03:22.999Z</time></trkpt><trkpt lat="43.177421201628036" lon="11.529252890985864"><ele>274.0</ele><time>2026-04-26T10:03:23.998Z</time></trkpt><trkpt lat="43.17744796767319" lon="11.529526023990922"><ele>274.0</ele><time>2026-04-26T10:03:24.998Z</time></trkpt><trkpt lat="43.177475549002395" lon="11.529795868963296"><ele>274.0</ele><time>2026-04-26T10:03:25.998Z</time></trkpt><trkpt lat="43.17750612028639" lon="11.530065239897253"><ele>274.0</ele><time>2026-04-26T10:03:26.998Z</time></trkpt><trkpt lat="43.17754521760192" lon="11.530338669904035"><ele>274.0</ele><time>2026-04-26T10:03:27.998Z</time></trkpt><trkpt lat="43.17758582940503" lon="11.530611212513284"><ele>274.0</ele><time>2026-04-26T10:03:28.998Z</time></trkpt><trkpt lat="43.17762081053798" lon="11.530876651502467"><ele>273.0</ele><time>2026-04-26T10:03:29.998Z</time></trkpt><trkpt lat="43.17765269980806" lon="11.5311293807973"><ele>272.0</ele><time>2026-04-26T10:03:30.998Z</time></trkpt><trkpt lat="43.17768555700529" lon="11.531366723178444"><ele>271.0</ele><time>2026-04-26T10:03:31.998Z</time></trkpt><trkpt lat="43.17774510540451" lon="11.531578358343925"><ele>270.0</ele><time>2026-04-26T10:03:32.998Z</time></trkpt><trkpt lat="43.17785280729675" lon="11.531743227591356"><ele>269.0</ele><time>2026-04-26T10:03:33.998Z</time></trkpt><trkpt lat="43.17800834861487" lon="11.531871417486359"><ele>268.0</ele><time>2026-04-26T10:03:34.998Z</time></trkpt><trkpt lat="43.17816690382498" lon="11.531960739157503"><ele>272.0</ele><time>2026-04-26T10:03:35.998Z</time></trkpt><trkpt lat="43.17831047133683" lon="11.53207290969238"><ele>276.0</ele><time>2026-04-26T10:03:36.998Z</time></trkpt><trkpt lat="43.178416757797194" lon="11.532221707216788"><ele>280.0</ele><time>2026-04-26T10:03:37.998Z</time></trkpt><trkpt lat="43.17849536065286" lon="11.532405435552644"><ele>280.0</ele><time>2026-04-26T10:03:38.998Z</time></trkpt><trkpt lat="43.17852609223732" lon="11.532618062867462"><ele>280.0</ele><time>2026-04-26T10:03:39.998Z</time></trkpt><trkpt lat="43.17851491374852" lon="11.532849422325224"><ele>280.0</ele><time>2026-04-26T10:03:40.998Z</time></trkpt><trkpt lat="43.17848572556293" lon="11.533076277164605"><ele>280.0</ele><time>2026-04-26T10:03:41.998Z</time></trkpt><trkpt lat="43.17846223394781" lon="11.533313681506048"><ele>280.0</ele><time>2026-04-26T10:03:42.998Z</time></trkpt><trkpt lat="43.17843949740458" lon="11.533552439333501"><ele>280.0</ele><time>2026-04-26T10:03:43.998Z</time></trkpt><trkpt lat="43.17841265222988" lon="11.533794411598024"><ele>281.66666666666663</ele><time>2026-04-26T10:03:44.998Z</time></trkpt><trkpt lat="43.17838594310936" lon="11.534047267284247"><ele>283.3333333333333</ele><time>2026-04-26T10:03:45.998Z</time></trkpt><trkpt lat="43.17836311058644" lon="11.534312679262"><ele>285.0</ele><time>2026-04-26T10:03:46.998Z</time></trkpt><trkpt lat="43.17834031758003" lon="11.534590324057636"><ele>285.0</ele><time>2026-04-26T10:03:47.998Z</time></trkpt><trkpt lat="43.178317215634785" lon="11.534870003657527"><ele>285.0</ele><time>2026-04-26T10:03:48.998Z</time></trkpt><trkpt lat="43.178293200023674" lon="11.535154246884048"><ele>285.0</ele><time>2026-04-26T10:03:49.998Z</time></trkpt><trkpt lat="43.17826483688355" lon="11.535431527369989"><ele>284.6666666666667</ele><time>2026-04-26T10:03:50.998Z</time></trkpt><trkpt lat="43.178244906100666" lon="11.535698247652507"><ele>284.33333333333337</ele><time>2026-04-26T10:03:51.998Z</time></trkpt><trkpt lat="43.17822918009231" lon="11.535955133386313"><ele>284.0</ele><time>2026-04-26T10:03:52.998Z</time></trkpt><trkpt lat="43.17819938041397" lon="11.536210082032044"><ele>281.0</ele><time>2026-04-26T10:03:53.998Z</time></trkpt><trkpt lat="43.178143846283014" lon="11.53646371700322"><ele>278.0</ele><time>2026-04-26T10:03:54.998Z</time></trkpt><trkpt lat="43.17806086927223" lon="11.536704633899152"><ele>275.0</ele><time>2026-04-26T10:03:55.998Z</time></trkpt><trkpt lat="43.177937131400164" lon="11.536927556753716"><ele>277.0</ele><time>2026-04-26T10:03:56.998Z</time></trkpt><trkpt lat="43.17780806014944" lon="11.53712121923864"><ele>279.0</ele><time>2026-04-26T10:03:57.998Z</time></trkpt><trkpt lat="43.17769104009569" lon="11.537309393568894"><ele>281.0</ele><time>2026-04-26T10:03:58.998Z</time></trkpt><trkpt lat="43.177615130306044" lon="11.537522125344395"><ele>281.0</ele><time>2026-04-26T10:03:59.998Z</time></trkpt><trkpt lat="43.1775525793153" lon="11.537741883854878"><ele>281.0</ele><time>2026-04-26T10:04:00.998Z</time></trkpt><trkpt lat="43.177487149401294" lon="11.537963004796172"><ele>281.0</ele><time>2026-04-26T10:04:01.998Z</time></trkpt><trkpt lat="43.17742638610102" lon="11.538178081966525"><ele>280.6666666666667</ele><time>2026-04-26T10:04:02.998Z</time></trkpt><trkpt lat="43.17736719850427" lon="11.538386321401227"><ele>280.3333333333333</ele><time>2026-04-26T10:04:03.998Z</time></trkpt><trkpt lat="43.17731399930366" lon="11.538587375279471"><ele>280.0</ele><time>2026-04-26T10:04:04.998Z</time></trkpt><trkpt lat="43.17729187204392" lon="11.538798874079038"><ele>279.0</ele><time>2026-04-26T10:04:05.998Z</time></trkpt><trkpt lat="43.17730619747062" lon="11.539016204083046"><ele>278.0</ele><time>2026-04-26T10:04:06.998Z</time></trkpt><trkpt lat="43.17734450674567" lon="11.539242932939608"><ele>277.0</ele><time>2026-04-26T10:04:07.998Z</time></trkpt><trkpt lat="43.17736346135834" lon="11.539477205148854"><ele>277.3333333333333</ele><time>2026-04-26T10:04:09Z</time></trkpt><trkpt lat="43.1773535021007" lon="11.539708686071291"><ele>277.6666666666667</ele><time>2026-04-26T10:04:10Z</time></trkpt><trkpt lat="43.17733496122948" lon="11.539929588797158"><ele>278.0</ele><time>2026-04-26T10:04:11Z</time></trkpt><trkpt lat="43.177336481089505" lon="11.540129866692581"><ele>278.0</ele><time>2026-04-26T10:04:12Z</time></trkpt><trkpt lat="43.177356311998366" lon="11.540340512897911"><ele>278.0</ele><time>2026-04-26T10:04:13Z</time></trkpt><trkpt lat="43.17740169288678" lon="11.540531302905032"><ele>278.0</ele><time>2026-04-26T10:04:14Z</time></trkpt><trkpt lat="43.1774729212593" lon="11.540695276592958"><ele>278.0</ele><time>2026-04-26T10:04:15Z</time></trkpt><trkpt lat="43.17756789062926" lon="11.540828927397211"><ele>277.0</ele><time>2026-04-26T10:04:16Z</time></trkpt><trkpt lat="43.17767311247217" lon="11.540954182463"><ele>276.0</ele><time>2026-04-26T10:04:17Z</time></trkpt><trkpt lat="43.17777324174973" lon="11.541086273017315"><ele>275.0</ele><time>2026-04-26T10:04:18Z</time></trkpt><trkpt lat="43.1778699856581" lon="11.541213530361532"><ele>274.0</ele><time>2026-04-26T10:04:19Z</time></trkpt><trkpt lat="43.1779704581639" lon="11.541345554444796"><ele>274.66666666666663</ele><time>2026-04-26T10:04:20Z</time></trkpt><trkpt lat="43.17807541592811" lon="11.541484743588436"><ele>275.3333333333333</ele><time>2026-04-26T10:04:21Z</time></trkpt><trkpt lat="43.178200754001146" lon="11.541611405104119"><ele>276.0</ele><time>2026-04-26T10:04:22Z</time></trkpt><trkpt lat="43.17834964149636" lon="11.54173016916976"><ele>276.0</ele><time>2026-04-26T10:04:23Z</time></trkpt><trkpt lat="43.17851873519074" lon="11.541852410786872"><ele>276.0</ele><time>2026-04-26T10:04:24Z</time></trkpt><trkpt lat="43.178690681771585" lon="11.54199343827683"><ele>276.0</ele><time>2026-04-26T10:04:25Z</time></trkpt><trkpt lat="43.17884366841711" lon="11.542159661574765"><ele>272.0</ele><time>2026-04-26T10:04:26Z</time></trkpt><trkpt lat="43.17897238311989" lon="11.542335355910298"><ele>268.0</ele><time>2026-04-26T10:04:27Z</time></trkpt><trkpt lat="43.17907778678897" lon="11.54251221550678"><ele>264.0</ele><time>2026-04-26T10:04:28Z</time></trkpt><trkpt lat="43.17916851075723" lon="11.542716758888226"><ele>271.3333333333333</ele><time>2026-04-26T10:04:29Z</time></trkpt><trkpt lat="43.17922790310241" lon="11.542947573511306"><ele>278.66666666666663</ele><time>2026-04-26T10:04:30Z</time></trkpt><trkpt lat="43.17927075707284" lon="11.543177221383052"><ele>286.0</ele><time>2026-04-26T10:04:31Z</time></trkpt><trkpt lat="43.17931158766639" lon="11.543400005666953"><ele>286.0</ele><time>2026-04-26T10:04:32Z</time></trkpt><trkpt lat="43.1793438097543" lon="11.543634670827602"><ele>286.0</ele><time>2026-04-26T10:04:33Z</time></trkpt><trkpt lat="43.17935659981509" lon="11.543879581830208"><ele>286.0</ele><time>2026-04-26T10:04:34Z</time></trkpt><trkpt lat="43.179354668855424" lon="11.544112449202027"><ele>285.66666666666663</ele><time>2026-04-26T10:04:35Z</time></trkpt><trkpt lat="43.17937401090699" lon="11.54433387492139"><ele>285.3333333333333</ele><time>2026-04-26T10:04:36Z</time></trkpt><trkpt lat="43.179418267864435" lon="11.544538501668772"><ele>285.0</ele><time>2026-04-26T10:04:37Z</time></trkpt><trkpt lat="43.179474901496434" lon="11.544728779938431"><ele>281.0</ele><time>2026-04-26T10:04:38Z</time></trkpt><trkpt lat="43.179532529178104" lon="11.544918076293959"><ele>277.0</ele><time>2026-04-26T10:04:39Z</time></trkpt><trkpt lat="43.179573069932204" lon="11.545114221374073"><ele>273.0</ele><time>2026-04-26T10:04:40Z</time></trkpt><trkpt lat="43.1795899342492" lon="11.545320465329754"><ele>272.0</ele><time>2026-04-26T10:04:40.999Z</time></trkpt><trkpt lat="43.17959423053479" lon="11.545523873960448"><ele>271.0</ele><time>2026-04-26T10:04:41.999Z</time></trkpt><trkpt lat="43.1795768973801" lon="11.545718905719896"><ele>270.0</ele><time>2026-04-26T10:04:42.999Z</time></trkpt><trkpt lat="43.179573506934474" lon="11.54590927146378"><ele>269.0</ele><time>2026-04-26T10:04:43.999Z</time></trkpt><trkpt lat="43.17955862139263" lon="11.54609478073501"><ele>272.5</ele><time>2026-04-26T10:04:44.999Z</time></trkpt><trkpt lat="43.179513910742244" lon="11.546267693256691"><ele>276.0</ele><time>2026-04-26T10:04:45.999Z</time></trkpt><trkpt lat="43.17944151496547" lon="11.54641113763128"><ele>279.5</ele><time>2026-04-26T10:04:46.999Z</time></trkpt><trkpt lat="43.179356480524625" lon="11.546536441329268"><ele>283.0</ele><time>2026-04-26T10:04:47.999Z</time></trkpt><trkpt lat="43.17927200838049" lon="11.546671654019931"><ele>283.0</ele><time>2026-04-26T10:04:48.999Z</time></trkpt><trkpt lat="43.1792130058214" lon="11.546838312434078"><ele>283.0</ele><time>2026-04-26T10:04:49.999Z</time></trkpt><trkpt lat="43.17914607618352" lon="11.546996700140829"><ele>283.0</ele><time>2026-04-26T10:04:50.999Z</time></trkpt><trkpt lat="43.17906994564335" lon="11.547148223032842"><ele>283.0</ele><time>2026-04-26T10:04:51.999Z</time></trkpt><trkpt lat="43.17898021091271" lon="11.547286909832293"><ele>288.75</ele><time>2026-04-26T10:04:52.999Z</time></trkpt><trkpt lat="43.17891228965071" lon="11.547446106030577"><ele>294.5</ele><time>2026-04-26T10:04:53.999Z</time></trkpt><trkpt lat="43.178857937849095" lon="11.547618235774873"><ele>300.25</ele><time>2026-04-26T10:04:54.999Z</time></trkpt><trkpt lat="43.17882730686885" lon="11.547809538757386"><ele>306.0</ele><time>2026-04-26T10:04:55.999Z</time></trkpt><trkpt lat="43.17881322790706" lon="11.548001515030746"><ele>307.75</ele><time>2026-04-26T10:04:56.999Z</time></trkpt><trkpt lat="43.17880298549452" lon="11.548203139072474"><ele>309.5</ele><time>2026-04-26T10:04:57.999Z</time></trkpt><trkpt lat="43.17878940180936" lon="11.54839912013655"><ele>311.25</ele><time>2026-04-26T10:04:58.999Z</time></trkpt><trkpt lat="43.17878682022445" lon="11.548589484597125"><ele>313.0</ele><time>2026-04-26T10:04:59.999Z</time></trkpt><trkpt lat="43.17879788281573" lon="11.54879441070349"><ele>308.0</ele><time>2026-04-26T10:05:00.999Z</time></trkpt><trkpt lat="43.17880404825383" lon="11.548973103468905"><ele>303.0</ele><time>2026-04-26T10:05:01.999Z</time></trkpt><trkpt lat="43.17881069518657" lon="11.549153268408958"><ele>298.0</ele><time>2026-04-26T10:05:02.999Z</time></trkpt><trkpt lat="43.17883908305027" lon="11.549317952683674"><ele>293.0</ele><time>2026-04-26T10:05:03.999Z</time></trkpt><trkpt lat="43.17889151807626" lon="11.549472382615667"><ele>292.75</ele><time>2026-04-26T10:05:04.999Z</time></trkpt><trkpt lat="43.178953232233106" lon="11.549619362870127"><ele>292.5</ele><time>2026-04-26T10:05:05.999Z</time></trkpt><trkpt lat="43.179020886065885" lon="11.549776045817032"><ele>292.25</ele><time>2026-04-26T10:05:06.999Z</time></trkpt><trkpt lat="43.17909840450135" lon="11.549925409169896"><ele>292.0</ele><time>2026-04-26T10:05:07.999Z</time></trkpt><trkpt lat="43.17920043142442" lon="11.55007446392105"><ele>292.0</ele><time>2026-04-26T10:05:08.999Z</time></trkpt><trkpt lat="43.17930651973486" lon="11.55021801702672"><ele>292.0</ele><time>2026-04-26T10:05:09.999Z</time></trkpt><trkpt lat="43.179403530487406" lon="11.55035744307763"><ele>292.0</ele><time>2026-04-26T10:05:10.999Z</time></trkpt><trkpt lat="43.17948495405844" lon="11.55049684782838"><ele>292.0</ele><time>2026-04-26T10:05:11.999Z</time></trkpt><trkpt lat="43.17954530669673" lon="11.550650559360644"><ele>290.5</ele><time>2026-04-26T10:05:12.999Z</time></trkpt><trkpt lat="43.179577306414046" lon="11.550826909846311"><ele>289.0</ele><time>2026-04-26T10:05:13.999Z</time></trkpt><trkpt lat="43.17959390959265" lon="11.551009573030363"><ele>287.5</ele><time>2026-04-26T10:05:14.999Z</time></trkpt><trkpt lat="43.17960685810015" lon="11.551193126113517"><ele>286.0</ele><time>2026-04-26T10:05:15.999Z</time></trkpt><trkpt lat="43.179630646204444" lon="11.551378694914654"><ele>284.25</ele><time>2026-04-26T10:05:16.999Z</time></trkpt><trkpt lat="43.17965973739736" lon="11.55156015677294"><ele>282.5</ele><time>2026-04-26T10:05:17.999Z</time></trkpt><trkpt lat="43.17969871907666" lon="11.551731853947679"><ele>280.75</ele><time>2026-04-26T10:05:18.999Z</time></trkpt><trkpt lat="43.17976059540338" lon="11.551882865317738"><ele>279.0</ele><time>2026-04-26T10:05:19.999Z</time></trkpt><trkpt lat="43.179840486425945" lon="11.552010224553161"><ele>283.75</ele><time>2026-04-26T10:05:20.999Z</time></trkpt><trkpt lat="43.17993838416994" lon="11.552113955897337"><ele>288.5</ele><time>2026-04-26T10:05:21.999Z</time></trkpt><trkpt lat="43.180041920974666" lon="11.5521992737188"><ele>293.25</ele><time>2026-04-26T10:05:22.999Z</time></trkpt><trkpt lat="43.180122649021165" lon="11.55230347885475"><ele>298.0</ele><time>2026-04-26T10:05:23.999Z</time></trkpt><trkpt lat="43.18017027618198" lon="11.552433994495706"><ele>298.0</ele><time>2026-04-26T10:05:24.999Z</time></trkpt><trkpt lat="43.1801797850921" lon="11.552582313877725"><ele>298.0</ele><time>2026-04-26T10:05:25.999Z</time></trkpt><trkpt lat="43.1801445618469" lon="11.552740863829825"><ele>298.0</ele><time>2026-04-26T10:05:26.999Z</time></trkpt><trkpt lat="43.18008961969324" lon="11.55291288186794"><ele>298.0</ele><time>2026-04-26T10:05:27.999Z</time></trkpt><trkpt lat="43.18003289864251" lon="11.553090414869793"><ele>300.75</ele><time>2026-04-26T10:05:28.999Z</time></trkpt><trkpt lat="43.17998322186502" lon="11.553272421821768"><ele>303.5</ele><time>2026-04-26T10:05:29.999Z</time></trkpt><trkpt lat="43.17993260693782" lon="11.553450830000868"><ele>306.25</ele><time>2026-04-26T10:05:30.999Z</time></trkpt><trkpt lat="43.17990050260019" lon="11.553626600004643"><ele>309.0</ele><time>2026-04-26T10:05:31.999Z</time></trkpt><trkpt lat="43.1799164841387" lon="11.553799647566006"><ele>310.75</ele><time>2026-04-26T10:05:32.999Z</time></trkpt><trkpt lat="43.17998047423435" lon="11.553948810902307"><ele>312.5</ele><time>2026-04-26T10:05:33.999Z</time></trkpt><trkpt lat="43.18008436489785" lon="11.554063343746563"><ele>314.25</ele><time>2026-04-26T10:05:34.999Z</time></trkpt><trkpt lat="43.180215565415175" lon="11.554128854445546"><ele>316.0</ele><time>2026-04-26T10:05:35.999Z</time></trkpt><trkpt lat="43.180359231563195" lon="11.5541733914422"><ele>316.0</ele><time>2026-04-26T10:05:36.999Z</time></trkpt><trkpt lat="43.180500026937644" lon="11.554229174287165"><ele>316.0</ele><time>2026-04-26T10:05:37.998Z</time></trkpt><trkpt lat="43.18063496582477" lon="11.554283673809621"><ele>316.0</ele><time>2026-04-26T10:05:38.998Z</time></trkpt><trkpt lat="43.180773499617196" lon="11.554334923579939"><ele>316.0</ele><time>2026-04-26T10:05:39.998Z</time></trkpt><trkpt lat="43.18091200869934" lon="11.554387227281444"><ele>316.5</ele><time>2026-04-26T10:05:40.998Z</time></trkpt><trkpt lat="43.18104114755648" lon="11.554434576681349"><ele>317.0</ele><time>2026-04-26T10:05:41.998Z</time></trkpt><trkpt lat="43.18117185236443" lon="11.554488391631173"><ele>317.5</ele><time>2026-04-26T10:05:42.998Z</time></trkpt><trkpt lat="43.181305356556834" lon="11.554535866489408"><ele>318.0</ele><time>2026-04-26T10:05:43.998Z</time></trkpt><trkpt lat="43.18143747615947" lon="11.554554781248878"><ele>318.25</ele><time>2026-04-26T10:05:44.998Z</time></trkpt><trkpt lat="43.181557179052334" lon="11.55453497236154"><ele>318.5</ele><time>2026-04-26T10:05:45.998Z</time></trkpt><trkpt lat="43.18167542326505" lon="11.554499466309785"><ele>318.75</ele><time>2026-04-26T10:05:46.998Z</time></trkpt><trkpt lat="43.18179006587455" lon="11.55444707684751"><ele>319.0</ele><time>2026-04-26T10:05:47.998Z</time></trkpt><trkpt lat="43.18191232123337" lon="11.55438686810354"><ele>319.0</ele><time>2026-04-26T10:05:48.998Z</time></trkpt><trkpt lat="43.18203750569244" lon="11.554338813834576"><ele>319.0</ele><time>2026-04-26T10:05:49.998Z</time></trkpt><trkpt lat="43.182165401508094" lon="11.554290734738478"><ele>319.0</ele><time>2026-04-26T10:05:50.998Z</time></trkpt><trkpt lat="43.18229591368189" lon="11.554247490217403"><ele>319.0</ele><time>2026-04-26T10:05:51.998Z</time></trkpt><trkpt lat="43.18242393543868" lon="11.554204883767214"><ele>321.6</ele><time>2026-04-26T10:05:52.998Z</time></trkpt><trkpt lat="43.182534316919174" lon="11.554164183709723"><ele>324.2</ele><time>2026-04-26T10:05:53.998Z</time></trkpt><trkpt lat="43.18261467511303" lon="11.554139933646324"><ele>326.8</ele><time>2026-04-26T10:05:54.998Z</time></trkpt><trkpt lat="43.18269330802203" lon="11.55410599815586"><ele>329.40000000000003</ele><time>2026-04-26T10:05:55.998Z</time></trkpt><trkpt lat="43.18275883873679" lon="11.554095425481755"><ele>332.0</ele><time>2026-04-26T10:05:56.998Z</time></trkpt><trkpt lat="43.18286533411449" lon="11.554107749404054"><ele>332.0</ele><time>2026-04-26T10:05:58.998Z</time></trkpt><trkpt lat="43.18293916496954" lon="11.554235811954467"><ele>332.0</ele><time>2026-04-26T10:06:00.998Z</time></trkpt><trkpt lat="43.18294736033119" lon="11.554328176812394"><ele>332.0</ele><time>2026-04-26T10:06:01.998Z</time></trkpt><trkpt lat="43.1829360817822" lon="11.554418185230512"><ele>332.0</ele><time>2026-04-26T10:06:02.998Z</time></trkpt><trkpt lat="43.18288499528043" lon="11.554497426911494"><ele>332.0</ele><time>2026-04-26T10:06:03.998Z</time></trkpt><trkpt lat="43.18280785888138" lon="11.554548127252028"><ele>332.0</ele><time>2026-04-26T10:06:04.998Z</time></trkpt><trkpt lat="43.182727593445726" lon="11.55457108972079"><ele>333.0</ele><time>2026-04-26T10:06:05.998Z</time></trkpt><trkpt lat="43.18265054999162" lon="11.554596321137648"><ele>334.0</ele><time>2026-04-26T10:06:06.998Z</time></trkpt><trkpt lat="43.18257805214715" lon="11.554633439012184"><ele>335.0</ele><time>2026-04-26T10:06:07.998Z</time></trkpt><trkpt lat="43.18250614730519" lon="11.554673732599024"><ele>336.0</ele><time>2026-04-26T10:06:08.998Z</time></trkpt><trkpt lat="43.18243409916737" lon="11.554713934051085"><ele>337.0</ele><time>2026-04-26T10:06:09.998Z</time></trkpt><trkpt lat="43.182364496537524" lon="11.554756256259923"><ele>338.0</ele><time>2026-04-26T10:06:10.998Z</time></trkpt><trkpt lat="43.18229518110167" lon="11.55479050715022"><ele>338.33333333333337</ele><time>2026-04-26T10:06:11.998Z</time></trkpt><trkpt lat="43.18222523791418" lon="11.554826342591308"><ele>338.6666666666667</ele><time>2026-04-26T10:06:12.998Z</time></trkpt><trkpt lat="43.18216120107019" lon="11.554870247210616"><ele>339.0</ele><time>2026-04-26T10:06:13.998Z</time></trkpt><trkpt lat="43.182097406858226" lon="11.554914453724468"><ele>339.3333333333333</ele><time>2026-04-26T10:06:15Z</time></trkpt><trkpt lat="43.18202916424887" lon="11.55495561081176"><ele>339.66666666666663</ele><time>2026-04-26T10:06:16Z</time></trkpt><trkpt lat="43.18195700475648" lon="11.554998670688821"><ele>340.0</ele><time>2026-04-26T10:06:17Z</time></trkpt><trkpt lat="43.18188558280454" lon="11.55505112734666"><ele>340.0</ele><time>2026-04-26T10:06:18Z</time></trkpt><trkpt lat="43.18181002815609" lon="11.555099505329009"><ele>340.0</ele><time>2026-04-26T10:06:19Z</time></trkpt><trkpt lat="43.18173665852971" lon="11.555134967399448"><ele>340.0</ele><time>2026-04-26T10:06:20Z</time></trkpt><trkpt lat="43.18166558157769" lon="11.555175041263565"><ele>340.0</ele><time>2026-04-26T10:06:21Z</time></trkpt><trkpt lat="43.18159060898826" lon="11.555218519456606"><ele>340.0</ele><time>2026-04-26T10:06:22Z</time></trkpt><trkpt lat="43.181513303054" lon="11.555257949414386"><ele>340.0</ele><time>2026-04-26T10:06:23Z</time></trkpt><trkpt lat="43.18143583712195" lon="11.555299258093779"><ele>339.8333333333333</ele><time>2026-04-26T10:06:24Z</time></trkpt><trkpt lat="43.18135364455885" lon="11.555341231121997"><ele>339.66666666666663</ele><time>2026-04-26T10:06:25Z</time></trkpt><trkpt lat="43.18127687375928" lon="11.555379057789287"><ele>339.5</ele><time>2026-04-26T10:06:26Z</time></trkpt><trkpt lat="43.18121119840099" lon="11.555415883910277"><ele>339.3333333333333</ele><time>2026-04-26T10:06:27Z</time></trkpt><trkpt lat="43.181148479613405" lon="11.555454206147779"><ele>339.1666666666667</ele><time>2026-04-26T10:06:28Z</time></trkpt><trkpt lat="43.18107946670431" lon="11.555488774146703"><ele>339.0</ele><time>2026-04-26T10:06:29Z</time></trkpt><trkpt lat="43.18100657856147" lon="11.555524892990116"><ele>340.8333333333333</ele><time>2026-04-26T10:06:30Z</time></trkpt><trkpt lat="43.18094216684243" lon="11.555561936647129"><ele>342.6666666666667</ele><time>2026-04-26T10:06:31Z</time></trkpt><trkpt lat="43.18088424351755" lon="11.555602627758912"><ele>344.5</ele><time>2026-04-26T10:06:32Z</time></trkpt><trkpt lat="43.1807922381045" lon="11.555676324356519"><ele>346.33333333333337</ele><time>2026-04-26T10:06:34Z</time></trkpt><trkpt lat="43.18070988677299" lon="11.555754972389742"><ele>348.1666666666667</ele><time>2026-04-26T10:06:36Z</time></trkpt><trkpt lat="43.1806412910214" lon="11.555847064357538"><ele>350.0</ele><time>2026-04-26T10:06:38Z</time></trkpt><trkpt lat="43.18058267101332" lon="11.555932375048997"><ele>350.5</ele><time>2026-04-26T10:06:40Z</time></trkpt><trkpt lat="43.18051993594206" lon="11.5560528582849"><ele>351.0</ele><time>2026-04-26T10:06:42Z</time></trkpt><trkpt lat="43.180482976801585" lon="11.5561281446644"><ele>351.5</ele><time>2026-04-26T10:06:43Z</time></trkpt><trkpt lat="43.180450664964155" lon="11.556217566684099"><ele>352.0</ele><time>2026-04-26T10:06:44Z</time></trkpt><trkpt lat="43.180419734779136" lon="11.556314510520945"><ele>352.5</ele><time>2026-04-26T10:06:45Z</time></trkpt><trkpt lat="43.1803891823591" lon="11.556416189755971"><ele>353.0</ele><time>2026-04-26T10:06:46Z</time></trkpt><trkpt lat="43.18036028412005" lon="11.556519957224008"><ele>353.33333333333337</ele><time>2026-04-26T10:06:47Z</time></trkpt><trkpt lat="43.18032980195222" lon="11.55662627967713"><ele>353.6666666666667</ele><time>2026-04-26T10:06:48Z</time></trkpt><trkpt lat="43.180304153244094" lon="11.556735980681594"><ele>354.0</ele><time>2026-04-26T10:06:49Z</time></trkpt><trkpt lat="43.18028049172593" lon="11.556846303542898"><ele>354.3333333333333</ele><time>2026-04-26T10:06:49.999Z</time></trkpt><trkpt lat="43.18024606586235" lon="11.556949072987106"><ele>354.66666666666663</ele><time>2026-04-26T10:06:50.999Z</time></trkpt><trkpt lat="43.18020198524628" lon="11.557049562606677"><ele>355.0</ele><time>2026-04-26T10:06:51.999Z</time></trkpt><trkpt lat="43.180155461373786" lon="11.557149110905685"><ele>355.0</ele><time>2026-04-26T10:06:52.999Z</time></trkpt><trkpt lat="43.18009974266016" lon="11.55724229467409"><ele>355.0</ele><time>2026-04-26T10:06:53.999Z</time></trkpt><trkpt lat="43.18003408402194" lon="11.557326051921413"><ele>355.0</ele><time>2026-04-26T10:06:54.999Z</time></trkpt><trkpt lat="43.17996039732405" lon="11.557396998429157"><ele>355.0</ele><time>2026-04-26T10:06:55.999Z</time></trkpt><trkpt lat="43.179883921086706" lon="11.557463498566605"><ele>355.0</ele><time>2026-04-26T10:06:56.999Z</time></trkpt><trkpt lat="43.17980314892408" lon="11.557522930473672"><ele>357.0</ele><time>2026-04-26T10:06:57.999Z</time></trkpt><trkpt lat="43.179721652753834" lon="11.55757656883379"><ele>359.0</ele><time>2026-04-26T10:06:58.999Z</time></trkpt><trkpt lat="43.179639698506755" lon="11.557628193681476"><ele>361.0</ele><time>2026-04-26T10:06:59.999Z</time></trkpt><trkpt lat="43.17955646813024" lon="11.557679553005798"><ele>363.0</ele><time>2026-04-26T10:07:00.999Z</time></trkpt><trkpt lat="43.179473631815156" lon="11.55772796754634"><ele>365.0</ele><time>2026-04-26T10:07:01.999Z</time></trkpt><trkpt lat="43.179391852572834" lon="11.557778825307258"><ele>365.0</ele><time>2026-04-26T10:07:02.999Z</time></trkpt><trkpt lat="43.17931261403917" lon="11.557833342588454"><ele>365.0</ele><time>2026-04-26T10:07:03.999Z</time></trkpt><trkpt lat="43.179233462734075" lon="11.557885865260456"><ele>365.0</ele><time>2026-04-26T10:07:04.999Z</time></trkpt><trkpt lat="43.179155263268676" lon="11.557938636148087"><ele>365.0</ele><time>2026-04-26T10:07:05.999Z</time></trkpt><trkpt lat="43.17907908900482" lon="11.557989971083877"><ele>365.0</ele><time>2026-04-26T10:07:06.999Z</time></trkpt><trkpt lat="43.179010046793444" lon="11.558032851713094"><ele>365.0</ele><time>2026-04-26T10:07:07.999Z</time></trkpt><trkpt lat="43.17894850136155" lon="11.558071212440275"><ele>366.1666666666667</ele><time>2026-04-26T10:07:08.999Z</time></trkpt><trkpt lat="43.17884237942809" lon="11.558136282413916"><ele>367.33333333333337</ele><time>2026-04-26T10:07:10.999Z</time></trkpt><trkpt lat="43.17876965520458" lon="11.55818391425969"><ele>368.5</ele><time>2026-04-26T10:07:12.999Z</time></trkpt><trkpt lat="43.17871184334297" lon="11.558225035477799"><ele>369.6666666666667</ele><time>2026-04-26T10:07:14.999Z</time></trkpt><trkpt lat="43.178644808754115" lon="11.558267188119986"><ele>370.8333333333333</ele><time>2026-04-26T10:07:16.999Z</time></trkpt><trkpt lat="43.17857578090325" lon="11.558334483295775"><ele>372.0</ele><time>2026-04-26T10:07:19.999Z</time></trkpt><trkpt lat="43.17851586217421" lon="11.558363777810268"><ele>372.0</ele><time>2026-04-26T10:07:29.999Z</time></trkpt><trkpt lat="43.17841917120441" lon="11.558433257964198"><ele>372.0</ele><time>2026-04-26T10:07:31.999Z</time></trkpt><trkpt lat="43.17835457834785" lon="11.558461356079057"><ele>372.0</ele><time>2026-04-26T10:07:32.999Z</time></trkpt><trkpt lat="43.17828535455087" lon="11.558501953126518"><ele>372.0</ele><time>2026-04-26T10:07:33.999Z</time></trkpt><trkpt lat="43.17821130194643" lon="11.558559560825673"><ele>372.0</ele><time>2026-04-26T10:07:34.999Z</time></trkpt><trkpt lat="43.178129846255885" lon="11.55862998901403"><ele>372.0</ele><time>2026-04-26T10:07:35.999Z</time></trkpt><trkpt lat="43.1780418689993" lon="11.558693262524985"><ele>373.20000000000005</ele><time>2026-04-26T10:07:36.999Z</time></trkpt><trkpt lat="43.17794544684887" lon="11.558738382340849"><ele>374.4</ele><time>2026-04-26T10:07:37.999Z</time></trkpt><trkpt lat="43.177856222390645" lon="11.55877875289539"><ele>375.6</ele><time>2026-04-26T10:07:38.999Z</time></trkpt><trkpt lat="43.17776998694222" lon="11.55883337598751"><ele>376.79999999999995</ele><time>2026-04-26T10:07:39.999Z</time></trkpt><trkpt lat="43.17768765790444" lon="11.5589000079135"><ele>378.0</ele><time>2026-04-26T10:07:40.999Z</time></trkpt><trkpt lat="43.177607219788975" lon="11.558968310268574"><ele>378.0</ele><time>2026-04-26T10:07:41.999Z</time></trkpt><trkpt lat="43.177537253155954" lon="11.55903631700548"><ele>378.0</ele><time>2026-04-26T10:07:42.999Z</time></trkpt><trkpt lat="43.17748241079363" lon="11.559102880154427"><ele>378.0</ele><time>2026-04-26T10:07:43.999Z</time></trkpt><trkpt lat="43.17740186511952" lon="11.559223119107427"><ele>378.0</ele><time>2026-04-26T10:07:45.999Z</time></trkpt><trkpt lat="43.17733468539534" lon="11.559316438485277"><ele>378.0</ele><time>2026-04-26T10:07:47.998Z</time></trkpt><trkpt lat="43.17727758849378" lon="11.559401931541748"><ele>389.0</ele><time>2026-04-26T10:07:49.998Z</time></trkpt><trkpt lat="43.17720765172768" lon="11.559456698670328"><ele>389.0</ele><time>2026-04-26T10:07:51.998Z</time></trkpt></trkseg><trkseg><trkpt lat="43.20544868924242" lon="11.542475833263333"><ele>290.0</ele><time>2026-04-26T14:28:16.14Z</time></trkpt><trkpt lat="43.20558880656733" lon="11.54238309089515"><ele>290.0</ele><time>2026-04-26T14:28:17.14Z</time></trkpt><trkpt lat="43.20575113083795" lon="11.542339284801441"><ele>290.0</ele><time>2026-04-26T14:28:18.14Z</time></trkpt><trkpt lat="43.20590313507368" lon="11.542285593339052"><ele>290.0</ele><time>2026-04-26T14:28:19.14Z</time></trkpt><trkpt lat="43.20605305492984" lon="11.542232642104707"><ele>290.0</ele><time>2026-04-26T14:28:20.14Z</time></trkpt><trkpt lat="43.20620016397786" lon="11.54217750836671"><ele>290.0</ele><time>2026-04-26T14:28:21.14Z</time></trkpt><trkpt lat="43.20632172207037" lon="11.542114946202041"><ele>290.0</ele><time>2026-04-26T14:28:21.999Z</time></trkpt><trkpt lat="43.20643777551484" lon="11.542000030545182"><ele>293.33333333333337</ele><time>2026-04-26T14:28:22.999Z</time></trkpt><trkpt lat="43.206557291015805" lon="11.541871437590514"><ele>296.6666666666667</ele><time>2026-04-26T14:28:23.999Z</time></trkpt><trkpt lat="43.20668069017952" lon="11.541734729287226"><ele>300.0</ele><time>2026-04-26T14:28:24.999Z</time></trkpt><trkpt lat="43.20681710117246" lon="11.541622646223157"><ele>300.0</ele><time>2026-04-26T14:28:25.999Z</time></trkpt><trkpt lat="43.20695935569474" lon="11.541539131327093"><ele>300.0</ele><time>2026-04-26T14:28:26.999Z</time></trkpt><trkpt lat="43.2070714218493" lon="11.541507920003694"><ele>300.0</ele><time>2026-04-26T14:28:27.999Z</time></trkpt><trkpt lat="43.207168521792234" lon="11.541579760867057"><ele>300.0</ele><time>2026-04-26T14:28:28.999Z</time></trkpt><trkpt lat="43.20730051494072" lon="11.541458037766443"><ele>299.75</ele><time>2026-04-26T14:28:29.999Z</time></trkpt><trkpt lat="43.20740827312964" lon="11.541482038329795"><ele>299.5</ele><time>2026-04-26T14:28:30.999Z</time></trkpt><trkpt lat="43.207546675489624" lon="11.541524221588999"><ele>299.25</ele><time>2026-04-26T14:28:31.999Z</time></trkpt><trkpt lat="43.207707964728534" lon="11.541580065777596"><ele>299.0</ele><time>2026-04-26T14:28:32.999Z</time></trkpt><trkpt lat="43.20786881343694" lon="11.541636672699404"><ele>299.0</ele><time>2026-04-26T14:28:33.999Z</time></trkpt><trkpt lat="43.20803468716812" lon="11.54169241222647"><ele>299.0</ele><time>2026-04-26T14:28:34.999Z</time></trkpt><trkpt lat="43.20822277438424" lon="11.541755373420218"><ele>299.0</ele><time>2026-04-26T14:28:35.999Z</time></trkpt><trkpt lat="43.208384803262184" lon="11.541783545219415"><ele>296.6666666666667</ele><time>2026-04-26T14:28:36.999Z</time></trkpt><trkpt lat="43.20852780641746" lon="11.541773606773853"><ele>294.3333333333333</ele><time>2026-04-26T14:28:37.999Z</time></trkpt><trkpt lat="43.20868715624519" lon="11.541731989815162"><ele>292.0</ele><time>2026-04-26T14:28:38.999Z</time></trkpt><trkpt lat="43.20880032928382" lon="11.541553470070792"><ele>292.0</ele><time>2026-04-26T14:28:39.999Z</time></trkpt><trkpt lat="43.20895676684688" lon="11.54152261507716"><ele>292.0</ele><time>2026-04-26T14:28:40.999Z</time></trkpt><trkpt lat="43.20910457470414" lon="11.541454505941951"><ele>292.0</ele><time>2026-04-26T14:28:41.999Z</time></trkpt><trkpt lat="43.209265892452926" lon="11.541425882404315"><ele>289.3333333333333</ele><time>2026-04-26T14:28:42.999Z</time></trkpt><trkpt lat="43.20942891700098" lon="11.541374442641649"><ele>286.6666666666667</ele><time>2026-04-26T14:28:43.999Z</time></trkpt><trkpt lat="43.20961034023242" lon="11.54133260297453"><ele>284.0</ele><time>2026-04-26T14:28:44.999Z</time></trkpt><trkpt lat="43.20977783576018" lon="11.541326062969151"><ele>282.33333333333337</ele><time>2026-04-26T14:28:45.999Z</time></trkpt><trkpt lat="43.2099451055341" lon="11.541335632354016"><ele>280.6666666666667</ele><time>2026-04-26T14:28:46.999Z</time></trkpt><trkpt lat="43.21014427517781" lon="11.541365024086543"><ele>279.0</ele><time>2026-04-26T14:28:47.999Z</time></trkpt><trkpt lat="43.21033414427598" lon="11.541385735417778"><ele>279.0</ele><time>2026-04-26T14:28:48.999Z</time></trkpt><trkpt lat="43.21051471064074" lon="11.541403870899964"><ele>279.0</ele><time>2026-04-26T14:28:49.999Z</time></trkpt><trkpt lat="43.210689466291356" lon="11.541431287529196"><ele>279.0</ele><time>2026-04-26T14:28:50.999Z</time></trkpt><trkpt lat="43.21084155977988" lon="11.541490748418772"><ele>280.6666666666667</ele><time>2026-04-26T14:28:51.999Z</time></trkpt><trkpt lat="43.21100328665961" lon="11.54157141739677"><ele>282.33333333333337</ele><time>2026-04-26T14:28:52.999Z</time></trkpt><trkpt lat="43.211133594763965" lon="11.541657249842444"><ele>284.0</ele><time>2026-04-26T14:28:53.999Z</time></trkpt><trkpt lat="43.2112830282421" lon="11.541764647445282"><ele>284.0</ele><time>2026-04-26T14:28:54.999Z</time></trkpt><trkpt lat="43.211399173333575" lon="11.541883180135533"><ele>284.0</ele><time>2026-04-26T14:28:55.999Z</time></trkpt><trkpt lat="43.21150706249176" lon="11.542017484817066"><ele>284.0</ele><time>2026-04-26T14:28:56.999Z</time></trkpt><trkpt lat="43.21157945119588" lon="11.542162135533324"><ele>284.0</ele><time>2026-04-26T14:28:57.999Z</time></trkpt><trkpt lat="43.21160149955714" lon="11.54232355333871"><ele>284.5</ele><time>2026-04-26T14:28:58.999Z</time></trkpt><trkpt lat="43.211625805298176" lon="11.542528974955529"><ele>285.0</ele><time>2026-04-26T14:28:59.999Z</time></trkpt><trkpt lat="43.21164624672407" lon="11.542728839621628"><ele>285.5</ele><time>2026-04-26T14:29:00.999Z</time></trkpt><trkpt lat="43.21166600212219" lon="11.542932602397167"><ele>286.0</ele><time>2026-04-26T14:29:01.999Z</time></trkpt><trkpt lat="43.21168920373618" lon="11.543152632221979"><ele>288.0</ele><time>2026-04-26T14:29:02.999Z</time></trkpt><trkpt lat="43.21172069435825" lon="11.543390581336155"><ele>290.0</ele><time>2026-04-26T14:29:03.999Z</time></trkpt><trkpt lat="43.21177787098741" lon="11.543623997603824"><ele>292.0</ele><time>2026-04-26T14:29:04.999Z</time></trkpt><trkpt lat="43.211803775824706" lon="11.543868964964467"><ele>295.66666666666663</ele><time>2026-04-26T14:29:05.999Z</time></trkpt><trkpt lat="43.21186983966597" lon="11.544097747376771"><ele>299.3333333333333</ele><time>2026-04-26T14:29:06.999Z</time></trkpt><trkpt lat="43.211918363502875" lon="11.544305989021534"><ele>303.0</ele><time>2026-04-26T14:29:07.999Z</time></trkpt><trkpt lat="43.21196215958769" lon="11.544489220092442"><ele>306.25</ele><time>2026-04-26T14:29:08.999Z</time></trkpt><trkpt lat="43.211994714599115" lon="11.54466364720207"><ele>309.5</ele><time>2026-04-26T14:29:09.999Z</time></trkpt><trkpt lat="43.21205349898326" lon="11.544810208751938"><ele>312.75</ele><time>2026-04-26T14:29:10.999Z</time></trkpt><trkpt lat="43.21215380590259" lon="11.544855655866114"><ele>316.0</ele><time>2026-04-26T14:29:11.999Z</time></trkpt><trkpt lat="43.212255372273006" lon="11.544829675215954"><ele>315.40000000000003</ele><time>2026-04-26T14:29:12.999Z</time></trkpt><trkpt lat="43.21233870682677" lon="11.544839794173429"><ele>314.8</ele><time>2026-04-26T14:29:13.999Z</time></trkpt><trkpt lat="43.212417852100124" lon="11.54490979701418"><ele>314.20000000000005</ele><time>2026-04-26T14:29:14.999Z</time></trkpt><trkpt lat="43.21239467966402" lon="11.545047393354388"><ele>313.6</ele><time>2026-04-26T14:29:15.999Z</time></trkpt><trkpt lat="43.212422878872424" lon="11.54517930006617"><ele>313.0</ele><time>2026-04-26T14:29:16.999Z</time></trkpt><trkpt lat="43.21243417377125" lon="11.545319698020016"><ele>315.4</ele><time>2026-04-26T14:29:17.999Z</time></trkpt><trkpt lat="43.21244865465585" lon="11.545458602613694"><ele>317.8</ele><time>2026-04-26T14:29:18.999Z</time></trkpt><trkpt lat="43.21247843158899" lon="11.545601602557142"><ele>320.2</ele><time>2026-04-26T14:29:19.999Z</time></trkpt><trkpt lat="43.21252691612898" lon="11.545745483637518"><ele>322.6</ele><time>2026-04-26T14:29:20.999Z</time></trkpt><trkpt lat="43.21256265967517" lon="11.545897382720069"><ele>325.0</ele><time>2026-04-26T14:29:21.999Z</time></trkpt><trkpt lat="43.21260880570996" lon="11.546050968643689"><ele>325.0</ele><time>2026-04-26T14:29:22.999Z</time></trkpt><trkpt lat="43.21266215619216" lon="11.546207660653968"><ele>325.0</ele><time>2026-04-26T14:29:23.999Z</time></trkpt><trkpt lat="43.212715277339576" lon="11.546367329121496"><ele>325.0</ele><time>2026-04-26T14:29:24.999Z</time></trkpt><trkpt lat="43.2127678587568" lon="11.546519899816678"><ele>325.0</ele><time>2026-04-26T14:29:25.999Z</time></trkpt><trkpt lat="43.212820589929215" lon="11.546661694980207"><ele>326.4</ele><time>2026-04-26T14:29:26.999Z</time></trkpt><trkpt lat="43.212880121085696" lon="11.546791167682978"><ele>327.8</ele><time>2026-04-26T14:29:27.999Z</time></trkpt><trkpt lat="43.21294347566951" lon="11.546915531060636"><ele>329.20000000000005</ele><time>2026-04-26T14:29:28.999Z</time></trkpt><trkpt lat="43.21302162505429" lon="11.547016719100688"><ele>330.6</ele><time>2026-04-26T14:29:29.999Z</time></trkpt><trkpt lat="43.213114555218766" lon="11.547108373739649"><ele>332.0</ele><time>2026-04-26T14:29:30.999Z</time></trkpt><trkpt lat="43.21323823274317" lon="11.547194460462348"><ele>332.0</ele><time>2026-04-26T14:29:31.999Z</time></trkpt><trkpt lat="43.2133540366225" lon="11.547281014865321"><ele>332.0</ele><time>2026-04-26T14:29:32.999Z</time></trkpt><trkpt lat="43.21345934627885" lon="11.547354328158063"><ele>332.0</ele><time>2026-04-26T14:29:33.999Z</time></trkpt><trkpt lat="43.2135551473259" lon="11.547417793391396"><ele>332.0</ele><time>2026-04-26T14:29:34.999Z</time></trkpt><trkpt lat="43.213650595558704" lon="11.547466262416174"><ele>332.0</ele><time>2026-04-26T14:29:35.999Z</time></trkpt><trkpt lat="43.213749962858316" lon="11.547499865846508"><ele>332.0</ele><time>2026-04-26T14:29:36.999Z</time></trkpt><trkpt lat="43.21386269990069" lon="11.547530823506166"><ele>332.0</ele><time>2026-04-26T14:29:37.999Z</time></trkpt><trkpt lat="43.213972295260575" lon="11.547565090797658"><ele>332.0</ele><time>2026-04-26T14:29:38.999Z</time></trkpt><trkpt lat="43.21405777167244" lon="11.547599887048275"><ele>332.0</ele><time>2026-04-26T14:29:39.999Z</time></trkpt><trkpt lat="43.21415501722151" lon="11.547645777752216"><ele>331.75</ele><time>2026-04-26T14:29:40.999Z</time></trkpt><trkpt lat="43.21426124524106" lon="11.547691973685112"><ele>331.5</ele><time>2026-04-26T14:29:41.999Z</time></trkpt><trkpt lat="43.214369407538875" lon="11.547734332256598"><ele>331.25</ele><time>2026-04-26T14:29:42.999Z</time></trkpt><trkpt lat="43.214473457871534" lon="11.547779643997972"><ele>331.0</ele><time>2026-04-26T14:29:43.999Z</time></trkpt><trkpt lat="43.21458428822941" lon="11.547828916472856"><ele>329.75</ele><time>2026-04-26T14:29:44.999Z</time></trkpt><trkpt lat="43.21470365631788" lon="11.54788329239707"><ele>328.5</ele><time>2026-04-26T14:29:45.999Z</time></trkpt><trkpt lat="43.21482275261231" lon="11.547928889509802"><ele>327.25</ele><time>2026-04-26T14:29:46.999Z</time></trkpt><trkpt lat="43.21494665460138" lon="11.547983910810501"><ele>326.0</ele><time>2026-04-26T14:29:47.999Z</time></trkpt><trkpt lat="43.21508409616033" lon="11.548041237529612"><ele>326.0</ele><time>2026-04-26T14:29:48.998Z</time></trkpt><trkpt lat="43.21522270947543" lon="11.54809949982743"><ele>326.0</ele><time>2026-04-26T14:29:49.998Z</time></trkpt><trkpt lat="43.21536279805129" lon="11.548155057127726"><ele>326.0</ele><time>2026-04-26T14:29:50.998Z</time></trkpt><trkpt lat="43.2154954338552" lon="11.548215490186305"><ele>326.0</ele><time>2026-04-26T14:29:51.998Z</time></trkpt><trkpt lat="43.2156323333069" lon="11.548250309399311"><ele>325.0</ele><time>2026-04-26T14:29:52.998Z</time></trkpt><trkpt lat="43.21576251186225" lon="11.548278088983894"><ele>324.0</ele><time>2026-04-26T14:29:53.998Z</time></trkpt><trkpt lat="43.21588840569098" lon="11.548291816324747"><ele>323.0</ele><time>2026-04-26T14:29:54.998Z</time></trkpt><trkpt lat="43.21600446404884" lon="11.548299000974245"><ele>322.0</ele><time>2026-04-26T14:29:55.998Z</time></trkpt><trkpt lat="43.216121162851074" lon="11.548311464740468"><ele>322.0</ele><time>2026-04-26T14:29:56.998Z</time></trkpt><trkpt lat="43.21624147776293" lon="11.548325847104323"><ele>322.0</ele><time>2026-04-26T14:29:57.998Z</time></trkpt><trkpt lat="43.21636222106156" lon="11.54833608695712"><ele>322.0</ele><time>2026-04-26T14:29:58.998Z</time></trkpt><trkpt lat="43.21648584032575" lon="11.548344166194184"><ele>322.0</ele><time>2026-04-26T14:29:59.998Z</time></trkpt><trkpt lat="43.21660936171634" lon="11.548349866036848"><ele>321.40000000000003</ele><time>2026-04-26T14:30:00.998Z</time></trkpt><trkpt lat="43.21672408558666" lon="11.548354000589667"><ele>320.8</ele><time>2026-04-26T14:30:01.998Z</time></trkpt><trkpt lat="43.216829725299014" lon="11.548372080612314"><ele>320.2</ele><time>2026-04-26T14:30:02.998Z</time></trkpt><trkpt lat="43.216934037093026" lon="11.548400461419915"><ele>319.6</ele><time>2026-04-26T14:30:03.998Z</time></trkpt><trkpt lat="43.21704690578698" lon="11.548438504787686"><ele>319.0</ele><time>2026-04-26T14:30:04.998Z</time></trkpt><trkpt lat="43.21715066145102" lon="11.54847902604813"><ele>319.0</ele><time>2026-04-26T14:30:05.998Z</time></trkpt><trkpt lat="43.21725642351145" lon="11.548521357241324"><ele>319.0</ele><time>2026-04-26T14:30:06.998Z</time></trkpt><trkpt lat="43.21736611241363" lon="11.548578551455774"><ele>319.0</ele><time>2026-04-26T14:30:07.998Z</time></trkpt><trkpt lat="43.21747524792172" lon="11.548640697529644"><ele>319.0</ele><time>2026-04-26T14:30:08.998Z</time></trkpt><trkpt lat="43.217584969798246" lon="11.548710139919141"><ele>317.75</ele><time>2026-04-26T14:30:09.998Z</time></trkpt><trkpt lat="43.21769799494796" lon="11.548782588481211"><ele>316.5</ele><time>2026-04-26T14:30:10.998Z</time></trkpt><trkpt lat="43.2178082966628" lon="11.548865091512662"><ele>315.25</ele><time>2026-04-26T14:30:11.998Z</time></trkpt><trkpt lat="43.21792469081553" lon="11.548944471438341"><ele>314.0</ele><time>2026-04-26T14:30:12.998Z</time></trkpt><trkpt lat="43.21805001535623" lon="11.549011956237422"><ele>315.5</ele><time>2026-04-26T14:30:13.998Z</time></trkpt><trkpt lat="43.21818536575132" lon="11.549067286454093"><ele>317.0</ele><time>2026-04-26T14:30:14.998Z</time></trkpt><trkpt lat="43.21831729274444" lon="11.549101160757127"><ele>318.5</ele><time>2026-04-26T14:30:15.998Z</time></trkpt><trkpt lat="43.21844452679385" lon="11.54914364231419"><ele>320.0</ele><time>2026-04-26T14:30:16.998Z</time></trkpt><trkpt lat="43.21856951732057" lon="11.549191500769819"><ele>320.0</ele><time>2026-04-26T14:30:17.998Z</time></trkpt><trkpt lat="43.218689807257924" lon="11.549233194441435"><ele>320.0</ele><time>2026-04-26T14:30:18.998Z</time></trkpt><trkpt lat="43.21880899196558" lon="11.549268040038884"><ele>320.0</ele><time>2026-04-26T14:30:19.998Z</time></trkpt><trkpt lat="43.218916740107815" lon="11.549295027038557"><ele>320.0</ele><time>2026-04-26T14:30:20.998Z</time></trkpt><trkpt lat="43.219013233671305" lon="11.549327342956547"><ele>320.0</ele><time>2026-04-26T14:30:21.998Z</time></trkpt><trkpt lat="43.2191034184876" lon="11.549360084960114"><ele>320.0</ele><time>2026-04-26T14:30:22.998Z</time></trkpt><trkpt lat="43.21919948657011" lon="11.549400049046586"><ele>320.0</ele><time>2026-04-26T14:30:23.998Z</time></trkpt><trkpt lat="43.21930997051925" lon="11.54945343125546"><ele>320.0</ele><time>2026-04-26T14:30:25Z</time></trkpt><trkpt lat="43.21943765257876" lon="11.54950991065832"><ele>320.0</ele><time>2026-04-26T14:30:26Z</time></trkpt><trkpt lat="43.21957312881589" lon="11.549562299129974"><ele>320.0</ele><time>2026-04-26T14:30:27Z</time></trkpt><trkpt lat="43.219709587148806" lon="11.549613407998825"><ele>320.0</ele><time>2026-04-26T14:30:28Z</time></trkpt><trkpt lat="43.219853971801115" lon="11.549674887454309"><ele>320.0</ele><time>2026-04-26T14:30:29Z</time></trkpt><trkpt lat="43.22000521603875" lon="11.549744737485979"><ele>318.6666666666667</ele><time>2026-04-26T14:30:30Z</time></trkpt><trkpt lat="43.220162579128996" lon="11.549794416909139"><ele>317.3333333333333</ele><time>2026-04-26T14:30:31Z</time></trkpt><trkpt lat="43.22031647593177" lon="11.54984765808552"><ele>316.0</ele><time>2026-04-26T14:30:32Z</time></trkpt><trkpt lat="43.22046624854266" lon="11.549902577588744"><ele>316.0</ele><time>2026-04-26T14:30:33Z</time></trkpt><trkpt lat="43.220608036847764" lon="11.54995421567619"><ele>316.0</ele><time>2026-04-26T14:30:34Z</time></trkpt><trkpt lat="43.22074379598579" lon="11.550006065461504"><ele>316.0</ele><time>2026-04-26T14:30:35Z</time></trkpt><trkpt lat="43.22086849559734" lon="11.550053362201051"><ele>316.0</ele><time>2026-04-26T14:30:36Z</time></trkpt><trkpt lat="43.220990668520294" lon="11.550092974169047"><ele>313.75</ele><time>2026-04-26T14:30:37Z</time></trkpt><trkpt lat="43.22111472850523" lon="11.550132638756804"><ele>311.5</ele><time>2026-04-26T14:30:38Z</time></trkpt><trkpt lat="43.22123570636643" lon="11.550167885128591"><ele>309.25</ele><time>2026-04-26T14:30:39Z</time></trkpt><trkpt lat="43.221367223023385" lon="11.55018629957629"><ele>307.0</ele><time>2026-04-26T14:30:40Z</time></trkpt><trkpt lat="43.22152321833584" lon="11.550186612062577"><ele>304.0</ele><time>2026-04-26T14:30:41Z</time></trkpt><trkpt lat="43.22169560622229" lon="11.550173949797793"><ele>301.0</ele><time>2026-04-26T14:30:42Z</time></trkpt><trkpt lat="43.221874158974984" lon="11.55015063229704"><ele>298.0</ele><time>2026-04-26T14:30:43Z</time></trkpt><trkpt lat="43.2220535282882" lon="11.550110763401674"><ele>298.0</ele><time>2026-04-26T14:30:44Z</time></trkpt><trkpt lat="43.22223228325195" lon="11.550104178031086"><ele>298.0</ele><time>2026-04-26T14:30:45Z</time></trkpt><trkpt lat="43.222406647413024" lon="11.550119514482256"><ele>298.0</ele><time>2026-04-26T14:30:46Z</time></trkpt><trkpt lat="43.22257439580982" lon="11.550138212425482"><ele>296.66666666666663</ele><time>2026-04-26T14:30:47Z</time></trkpt><trkpt lat="43.2227334978709" lon="11.550174999435788"><ele>295.3333333333333</ele><time>2026-04-26T14:30:48Z</time></trkpt><trkpt lat="43.22289814699868" lon="11.550196814974178"><ele>294.0</ele><time>2026-04-26T14:30:49Z</time></trkpt><trkpt lat="43.22307150444161" lon="11.550210120207643"><ele>291.0</ele><time>2026-04-26T14:30:49.999Z</time></trkpt><trkpt lat="43.22324980216509" lon="11.550223177350396"><ele>288.0</ele><time>2026-04-26T14:30:50.999Z</time></trkpt><trkpt lat="43.22342096597333" lon="11.550244115848187"><ele>285.0</ele><time>2026-04-26T14:30:51.999Z</time></trkpt><trkpt lat="43.223583177899734" lon="11.55026143912941"><ele>285.0</ele><time>2026-04-26T14:30:52.999Z</time></trkpt><trkpt lat="43.223742484407595" lon="11.550279230995647"><ele>285.0</ele><time>2026-04-26T14:30:53.999Z</time></trkpt><trkpt lat="43.223897656010124" lon="11.550311263116239"><ele>285.0</ele><time>2026-04-26T14:30:54.999Z</time></trkpt><trkpt lat="43.22404851607925" lon="11.550395055715434"><ele>280.0</ele><time>2026-04-26T14:30:55.999Z</time></trkpt><trkpt lat="43.2242130256571" lon="11.550440409377451"><ele>275.0</ele><time>2026-04-26T14:30:56.999Z</time></trkpt><trkpt lat="43.22437171628716" lon="11.550511962919952"><ele>270.0</ele><time>2026-04-26T14:30:57.999Z</time></trkpt><trkpt lat="43.22452725154476" lon="11.550577835959029"><ele>270.0</ele><time>2026-04-26T14:30:58.999Z</time></trkpt><trkpt lat="43.22468299145523" lon="11.55063757340894"><ele>270.0</ele><time>2026-04-26T14:30:59.999Z</time></trkpt><trkpt lat="43.22482678846701" lon="11.550694042547606"><ele>270.0</ele><time>2026-04-26T14:31:00.999Z</time></trkpt><trkpt lat="43.22495358551844" lon="11.550742914608437"><ele>270.0</ele><time>2026-04-26T14:31:01.999Z</time></trkpt><trkpt lat="43.22508400279688" lon="11.5507989737175"><ele>270.6666666666667</ele><time>2026-04-26T14:31:02.999Z</time></trkpt><trkpt lat="43.22522069268812" lon="11.55086062524985"><ele>271.33333333333337</ele><time>2026-04-26T14:31:03.999Z</time></trkpt><trkpt lat="43.225368303827395" lon="11.550930633647878"><ele>272.0</ele><time>2026-04-26T14:31:04.999Z</time></trkpt><trkpt lat="43.2255127876212" lon="11.551033549406752"><ele>273.0</ele><time>2026-04-26T14:31:05.999Z</time></trkpt><trkpt lat="43.22567392125356" lon="11.551104840774288"><ele>274.0</ele><time>2026-04-26T14:31:06.999Z</time></trkpt><trkpt lat="43.22581576166839" lon="11.551220936389408"><ele>275.0</ele><time>2026-04-26T14:31:07.999Z</time></trkpt><trkpt lat="43.22596013784368" lon="11.551325997723731"><ele>273.5</ele><time>2026-04-26T14:31:08.999Z</time></trkpt><trkpt lat="43.226103013441154" lon="11.551419421715913"><ele>272.0</ele><time>2026-04-26T14:31:09.999Z</time></trkpt><trkpt lat="43.22620185941618" lon="11.551573719532508"><ele>270.5</ele><time>2026-04-26T14:31:10.999Z</time></trkpt><trkpt lat="43.22628130505531" lon="11.551722118298086"><ele>269.0</ele><time>2026-04-26T14:31:11.999Z</time></trkpt><trkpt lat="43.22635733634161" lon="11.55187029098628"><ele>269.0</ele><time>2026-04-26T14:31:12.999Z</time></trkpt><trkpt lat="43.226453881205956" lon="11.551990458487655"><ele>269.0</ele><time>2026-04-26T14:31:13.999Z</time></trkpt><trkpt lat="43.226548965082586" lon="11.552128081630183"><ele>269.0</ele><time>2026-04-26T14:31:14.999Z</time></trkpt><trkpt lat="43.22666029856325" lon="11.552236546360806"><ele>269.0</ele><time>2026-04-26T14:31:15.999Z</time></trkpt><trkpt lat="43.226796683607986" lon="11.552340513516349"><ele>267.33333333333337</ele><time>2026-04-26T14:31:16.999Z</time></trkpt><trkpt lat="43.22692653959138" lon="11.552456453461325"><ele>265.6666666666667</ele><time>2026-04-26T14:31:17.999Z</time></trkpt><trkpt lat="43.22704838380685" lon="11.552591949016765"><ele>264.0</ele><time>2026-04-26T14:31:18.999Z</time></trkpt><trkpt lat="43.22719188199766" lon="11.552706283432265"><ele>263.6666666666667</ele><time>2026-04-26T14:31:19.999Z</time></trkpt><trkpt lat="43.22731494125429" lon="11.552864893265891"><ele>263.33333333333337</ele><time>2026-04-26T14:31:20.999Z</time></trkpt><trkpt lat="43.22745304745517" lon="11.553018145577113"><ele>263.0</ele><time>2026-04-26T14:31:21.999Z</time></trkpt><trkpt lat="43.22759518753444" lon="11.553169447166466"><ele>262.33333333333337</ele><time>2026-04-26T14:31:22.999Z</time></trkpt><trkpt lat="43.227743886565584" lon="11.553312836288786"><ele>261.6666666666667</ele><time>2026-04-26T14:31:23.999Z</time></trkpt><trkpt lat="43.227892722697966" lon="11.553454560602736"><ele>261.0</ele><time>2026-04-26T14:31:24.999Z</time></trkpt><trkpt lat="43.22804582437364" lon="11.55358236413212"><ele>259.3333333333333</ele><time>2026-04-26T14:31:25.999Z</time></trkpt><trkpt lat="43.22820501229775" lon="11.553690500291626"><ele>257.66666666666663</ele><time>2026-04-26T14:31:26.999Z</time></trkpt><trkpt lat="43.228373261897396" lon="11.553748253498924"><ele>256.0</ele><time>2026-04-26T14:31:27.999Z</time></trkpt><trkpt lat="43.22853290110883" lon="11.553815604555371"><ele>256.0</ele><time>2026-04-26T14:31:28.999Z</time></trkpt><trkpt lat="43.228691924347835" lon="11.5538684251398"><ele>256.0</ele><time>2026-04-26T14:31:29.999Z</time></trkpt><trkpt lat="43.22884929634967" lon="11.553925678960379"><ele>256.0</ele><time>2026-04-26T14:31:30.999Z</time></trkpt><trkpt lat="43.22901093931139" lon="11.553992500994699"><ele>255.0</ele><time>2026-04-26T14:31:31.999Z</time></trkpt><trkpt lat="43.229178081696844" lon="11.554072038080452"><ele>254.0</ele><time>2026-04-26T14:31:32.999Z</time></trkpt><trkpt lat="43.22934564998522" lon="11.554174135354485"><ele>253.0</ele><time>2026-04-26T14:31:33.999Z</time></trkpt><trkpt lat="43.229515426704054" lon="11.554292499364623"><ele>253.0</ele><time>2026-04-26T14:31:34.999Z</time></trkpt><trkpt lat="43.22968615953172" lon="11.55442242416595"><ele>253.0</ele><time>2026-04-26T14:31:35.999Z</time></trkpt><trkpt lat="43.22985889461549" lon="11.554551362920174"><ele>253.0</ele><time>2026-04-26T14:31:36.999Z</time></trkpt><trkpt lat="43.23003182489694" lon="11.554672768620584"><ele>248.66666666666666</ele><time>2026-04-26T14:31:37.999Z</time></trkpt><trkpt lat="43.23020342779192" lon="11.554794089042867"><ele>244.33333333333331</ele><time>2026-04-26T14:31:38.999Z</time></trkpt><trkpt lat="43.230369724169236" lon="11.554910479102075"><ele>240.0</ele><time>2026-04-26T14:31:39.999Z</time></trkpt><trkpt lat="43.23053188906447" lon="11.55503419288607"><ele>241.0</ele><time>2026-04-26T14:31:40.999Z</time></trkpt><trkpt lat="43.23068861894653" lon="11.555153975659808"><ele>242.0</ele><time>2026-04-26T14:31:41.999Z</time></trkpt><trkpt lat="43.23084329072688" lon="11.555269629227565"><ele>243.0</ele><time>2026-04-26T14:31:42.999Z</time></trkpt><trkpt lat="43.23099346402826" lon="11.55537833628592"><ele>239.66666666666669</ele><time>2026-04-26T14:31:43.999Z</time></trkpt><trkpt lat="43.23114672608546" lon="11.555469660648134"><ele>236.33333333333334</ele><time>2026-04-26T14:31:44.999Z</time></trkpt><trkpt lat="43.23130485196452" lon="11.55553053582855"><ele>233.0</ele><time>2026-04-26T14:31:45.999Z</time></trkpt><trkpt lat="43.231467694291936" lon="11.555553932561013"><ele>232.66666666666669</ele><time>2026-04-26T14:31:46.999Z</time></trkpt><trkpt lat="43.23162667594517" lon="11.555537406601841"><ele>232.33333333333331</ele><time>2026-04-26T14:31:47.999Z</time></trkpt><trkpt lat="43.231789715616785" lon="11.555490834113604"><ele>232.0</ele><time>2026-04-26T14:31:48.999Z</time></trkpt><trkpt lat="43.231955430772054" lon="11.555417944751328"><ele>232.0</ele><time>2026-04-26T14:31:49.999Z</time></trkpt><trkpt lat="43.23212142489667" lon="11.555328923512597"><ele>232.0</ele><time>2026-04-26T14:31:50.999Z</time></trkpt><trkpt lat="43.23228440782343" lon="11.555232249748498"><ele>232.0</ele><time>2026-04-26T14:31:51.999Z</time></trkpt><trkpt lat="43.232450455674055" lon="11.555138073332845"><ele>232.0</ele><time>2026-04-26T14:31:52.999Z</time></trkpt><trkpt lat="43.23261825416456" lon="11.55504301769858"><ele>232.0</ele><time>2026-04-26T14:31:53.998Z</time></trkpt><trkpt lat="43.23278743110009" lon="11.554949523802637"><ele>232.0</ele><time>2026-04-26T14:31:54.998Z</time></trkpt><trkpt lat="43.23295794661759" lon="11.554858545471301"><ele>232.0</ele><time>2026-04-26T14:31:55.998Z</time></trkpt><trkpt lat="43.23312640067703" lon="11.554764989728122"><ele>232.0</ele><time>2026-04-26T14:31:56.998Z</time></trkpt><trkpt lat="43.233288599610916" lon="11.554657848914657"><ele>232.0</ele><time>2026-04-26T14:31:57.998Z</time></trkpt><trkpt lat="43.23344114904585" lon="11.554531800652734"><ele>232.0</ele><time>2026-04-26T14:31:58.998Z</time></trkpt><trkpt lat="43.23358782170197" lon="11.554391267803439"><ele>232.0</ele><time>2026-04-26T14:31:59.998Z</time></trkpt><trkpt lat="43.23372895978549" lon="11.554245588321177"><ele>232.0</ele><time>2026-04-26T14:32:00.998Z</time></trkpt><trkpt lat="43.23386546369729" lon="11.55409483158443"><ele>226.0</ele><time>2026-04-26T14:32:01.998Z</time></trkpt><trkpt lat="43.233996391687505" lon="11.55394532384491"><ele>220.0</ele><time>2026-04-26T14:32:02.998Z</time></trkpt><trkpt lat="43.234120611182234" lon="11.553792809464682"><ele>214.0</ele><time>2026-04-26T14:32:03.998Z</time></trkpt><trkpt lat="43.2342511284062" lon="11.553624396636808"><ele>214.0</ele><time>2026-04-26T14:32:04.998Z</time></trkpt><trkpt lat="43.23438263162143" lon="11.553466168246665"><ele>214.0</ele><time>2026-04-26T14:32:05.998Z</time></trkpt><trkpt lat="43.23450825304151" lon="11.55332159239226"><ele>214.0</ele><time>2026-04-26T14:32:06.998Z</time></trkpt><trkpt lat="43.23463382412197" lon="11.553197351244812"><ele>214.0</ele><time>2026-04-26T14:32:07.998Z</time></trkpt><trkpt lat="43.23476727216503" lon="11.55310241446584"><ele>214.0</ele><time>2026-04-26T14:32:08.998Z</time></trkpt><trkpt lat="43.23491235458001" lon="11.553051807241397"><ele>214.0</ele><time>2026-04-26T14:32:09.998Z</time></trkpt><trkpt lat="43.23506702190317" lon="11.553038931668944"><ele>209.66666666666666</ele><time>2026-04-26T14:32:10.998Z</time></trkpt><trkpt lat="43.23522737646859" lon="11.553060305326564"><ele>205.33333333333331</ele><time>2026-04-26T14:32:11.998Z</time></trkpt><trkpt lat="43.23537829925691" lon="11.55312348212136"><ele>201.0</ele><time>2026-04-26T14:32:12.998Z</time></trkpt><trkpt lat="43.23552320738551" lon="11.5532281380883"><ele>196.66666666666666</ele><time>2026-04-26T14:32:13.998Z</time></trkpt><trkpt lat="43.235650065764325" lon="11.55335206147078"><ele>192.33333333333331</ele><time>2026-04-26T14:32:14.998Z</time></trkpt><trkpt lat="43.23576254400452" lon="11.553501482327857"><ele>188.0</ele><time>2026-04-26T14:32:15.998Z</time></trkpt><trkpt lat="43.23588487995655" lon="11.553619348388645"><ele>188.0</ele><time>2026-04-26T14:32:16.998Z</time></trkpt><trkpt lat="43.236035554383925" lon="11.553696032301207"><ele>188.0</ele><time>2026-04-26T14:32:17.998Z</time></trkpt><trkpt lat="43.23618596543128" lon="11.553744953297018"><ele>188.0</ele><time>2026-04-26T14:32:18.998Z</time></trkpt><trkpt lat="43.236340373557375" lon="11.553758400357626"><ele>185.33333333333331</ele><time>2026-04-26T14:32:19.998Z</time></trkpt><trkpt lat="43.236489226276284" lon="11.553698909457685"><ele>182.66666666666666</ele><time>2026-04-26T14:32:20.998Z</time></trkpt><trkpt lat="43.23664423360162" lon="11.553667280620733"><ele>180.0</ele><time>2026-04-26T14:32:21.998Z</time></trkpt><trkpt lat="43.23680613313088" lon="11.553677569220344"><ele>182.0</ele><time>2026-04-26T14:32:22.998Z</time></trkpt><trkpt lat="43.23696700954632" lon="11.55375250079033"><ele>184.0</ele><time>2026-04-26T14:32:23.998Z</time></trkpt><trkpt lat="43.23713983123947" lon="11.553817202300866"><ele>186.0</ele><time>2026-04-26T14:32:24.998Z</time></trkpt><trkpt lat="43.237320371456846" lon="11.553883783608152"><ele>181.33333333333334</ele><time>2026-04-26T14:32:25.998Z</time></trkpt><trkpt lat="43.23751210670787" lon="11.55395651822688"><ele>176.66666666666669</ele><time>2026-04-26T14:32:26.998Z</time></trkpt><trkpt lat="43.23769926335236" lon="11.554024422700065"><ele>172.0</ele><time>2026-04-26T14:32:27.998Z</time></trkpt><trkpt lat="43.237878778085744" lon="11.554088717074233"><ele>172.0</ele><time>2026-04-26T14:32:28.998Z</time></trkpt><trkpt lat="43.23805483760554" lon="11.554136295697376"><ele>172.0</ele><time>2026-04-26T14:32:30Z</time></trkpt><trkpt lat="43.23820628884749" lon="11.554202462051363"><ele>172.0</ele><time>2026-04-26T14:32:31Z</time></trkpt><trkpt lat="43.238340200716735" lon="11.554268963206052"><ele>172.6</ele><time>2026-04-26T14:32:32Z</time></trkpt><trkpt lat="43.238460616169505" lon="11.554336439396561"><ele>173.2</ele><time>2026-04-26T14:32:33Z</time></trkpt><trkpt lat="43.23856089787149" lon="11.554396718722533"><ele>173.8</ele><time>2026-04-26T14:32:34Z</time></trkpt><trkpt lat="43.23863856226762" lon="11.55445489848266"><ele>174.4</ele><time>2026-04-26T14:32:35Z</time></trkpt><trkpt lat="43.23869444975399" lon="11.554508063125393"><ele>175.0</ele><time>2026-04-26T14:32:36Z</time></trkpt><trkpt lat="43.238739796013164" lon="11.554608646125537"><ele>175.2</ele><time>2026-04-26T14:32:38Z</time></trkpt><trkpt lat="43.23873521678919" lon="11.554781914458124"><ele>175.4</ele><time>2026-04-26T14:32:40Z</time></trkpt><trkpt lat="43.2387594731822" lon="11.554866428057537"><ele>175.60000000000002</ele><time>2026-04-26T14:32:41Z</time></trkpt><trkpt lat="43.238836617167415" lon="11.554956105048644"><ele>175.8</ele><time>2026-04-26T14:32:43Z</time></trkpt><trkpt lat="43.238937557339824" lon="11.554946009031081"><ele>176.0</ele><time>2026-04-26T14:32:45Z</time></trkpt><trkpt lat="43.238997910637394" lon="11.554852682071017"><ele>176.0</ele><time>2026-04-26T14:32:47Z</time></trkpt><trkpt lat="43.23906182499546" lon="11.554772114568127"><ele>176.0</ele><time>2026-04-26T14:32:48Z</time></trkpt><trkpt lat="43.239142865675404" lon="11.554690315642382"><ele>176.0</ele><time>2026-04-26T14:32:49Z</time></trkpt><trkpt lat="43.23922313754122" lon="11.55462901486933"><ele>176.0</ele><time>2026-04-26T14:32:50Z</time></trkpt><trkpt lat="43.23930425700019" lon="11.554559164829834"><ele>176.0</ele><time>2026-04-26T14:32:51Z</time></trkpt><trkpt lat="43.23939241860327" lon="11.55443365424106"><ele>175.25</ele><time>2026-04-26T14:32:52Z</time></trkpt><trkpt lat="43.239486573667385" lon="11.554293874893089"><ele>174.5</ele><time>2026-04-26T14:32:53Z</time></trkpt><trkpt lat="43.23959508314198" lon="11.554164380127986"><ele>173.75</ele><time>2026-04-26T14:32:54Z</time></trkpt><trkpt lat="43.2396995456201" lon="11.554023983494211"><ele>173.0</ele><time>2026-04-26T14:32:55Z</time></trkpt><trkpt lat="43.23979985706513" lon="11.553877856229908"><ele>173.0</ele><time>2026-04-26T14:32:56Z</time></trkpt><trkpt lat="43.239903663239126" lon="11.553736169028884"><ele>173.0</ele><time>2026-04-26T14:32:57Z</time></trkpt><trkpt lat="43.24000537004322" lon="11.55359122427229"><ele>173.0</ele><time>2026-04-26T14:32:58Z</time></trkpt><trkpt lat="43.24010592337035" lon="11.553439949448617"><ele>173.0</ele><time>2026-04-26T14:32:59Z</time></trkpt><trkpt lat="43.240193567964106" lon="11.553285161046546"><ele>173.0</ele><time>2026-04-26T14:33:00Z</time></trkpt><trkpt lat="43.24029933537227" lon="11.553125692057282"><ele>173.0</ele><time>2026-04-26T14:33:01Z</time></trkpt><trkpt lat="43.24040631237317" lon="11.552955236090414"><ele>173.0</ele><time>2026-04-26T14:33:02Z</time></trkpt><trkpt lat="43.24051131607334" lon="11.552782418753031"><ele>172.66666666666666</ele><time>2026-04-26T14:33:02.999Z</time></trkpt><trkpt lat="43.24061964310549" lon="11.552606685590247"><ele>172.33333333333334</ele><time>2026-04-26T14:33:03.999Z</time></trkpt><trkpt lat="43.24071942902855" lon="11.552426003581683"><ele>172.0</ele><time>2026-04-26T14:33:04.999Z</time></trkpt><trkpt lat="43.240808431073226" lon="11.552243914352893"><ele>173.75</ele><time>2026-04-26T14:33:05.999Z</time></trkpt><trkpt lat="43.240887910994225" lon="11.552064665750345"><ele>175.5</ele><time>2026-04-26T14:33:06.999Z</time></trkpt><trkpt lat="43.240950439396016" lon="11.551887293800588"><ele>177.25</ele><time>2026-04-26T14:33:07.999Z</time></trkpt><trkpt lat="43.24101609556682" lon="11.551716209186548"><ele>179.0</ele><time>2026-04-26T14:33:08.999Z</time></trkpt><trkpt lat="43.241110396548464" lon="11.551580380611751"><ele>179.0</ele><time>2026-04-26T14:33:09.999Z</time></trkpt><trkpt lat="43.24123237116466" lon="11.55150228922003"><ele>179.0</ele><time>2026-04-26T14:33:10.999Z</time></trkpt><trkpt lat="43.24136809035458" lon="11.551442254587993"><ele>179.0</ele><time>2026-04-26T14:33:11.999Z</time></trkpt><trkpt lat="43.24150414461164" lon="11.551383413615493"><ele>179.0</ele><time>2026-04-26T14:33:12.999Z</time></trkpt><trkpt lat="43.24164500059759" lon="11.551324578988387"><ele>180.66666666666666</ele><time>2026-04-26T14:33:13.999Z</time></trkpt><trkpt lat="43.24178981305673" lon="11.551264091602578"><ele>182.33333333333334</ele><time>2026-04-26T14:33:14.999Z</time></trkpt><trkpt lat="43.241941992078885" lon="11.551203005518467"><ele>184.0</ele><time>2026-04-26T14:33:15.999Z</time></trkpt><trkpt lat="43.24208818951846" lon="11.551142632602126"><ele>184.0</ele><time>2026-04-26T14:33:16.999Z</time></trkpt><trkpt lat="43.242235066042994" lon="11.551070721267502"><ele>184.0</ele><time>2026-04-26T14:33:17.999Z</time></trkpt><trkpt lat="43.242371599049456" lon="11.55096300684808"><ele>184.0</ele><time>2026-04-26T14:33:18.999Z</time></trkpt><trkpt lat="43.242474159556345" lon="11.550801037966366"><ele>184.66666666666669</ele><time>2026-04-26T14:33:19.999Z</time></trkpt><trkpt lat="43.24256501204859" lon="11.550633930487718"><ele>185.33333333333334</ele><time>2026-04-26T14:33:20.999Z</time></trkpt><trkpt lat="43.2426580670165" lon="11.550469943745666"><ele>186.0</ele><time>2026-04-26T14:33:21.999Z</time></trkpt><trkpt lat="43.242766010921514" lon="11.550318531274858"><ele>186.0</ele><time>2026-04-26T14:33:22.999Z</time></trkpt><trkpt lat="43.24289175542915" lon="11.550204925529005"><ele>186.0</ele><time>2026-04-26T14:33:23.999Z</time></trkpt><trkpt lat="43.243032153494674" lon="11.550147753049695"><ele>186.0</ele><time>2026-04-26T14:33:24.999Z</time></trkpt><trkpt lat="43.24317694656017" lon="11.55015101991387"><ele>186.0</ele><time>2026-04-26T14:33:25.999Z</time></trkpt><trkpt lat="43.24332325918844" lon="11.550158261566839"><ele>192.0</ele><time>2026-04-26T14:33:26.999Z</time></trkpt><trkpt lat="43.24348072193642" lon="11.550137056904706"><ele>198.0</ele><time>2026-04-26T14:33:27.999Z</time></trkpt><trkpt lat="43.24362651964342" lon="11.550039959551432"><ele>204.0</ele><time>2026-04-26T14:33:28.999Z</time></trkpt><trkpt lat="43.24374515027548" lon="11.549896698997458"><ele>204.0</ele><time>2026-04-26T14:33:29.999Z</time></trkpt><trkpt lat="43.243851884805686" lon="11.549760045300665"><ele>204.0</ele><time>2026-04-26T14:33:30.999Z</time></trkpt><trkpt lat="43.243968539924076" lon="11.549607398876603"><ele>204.0</ele><time>2026-04-26T14:33:31.999Z</time></trkpt><trkpt lat="43.24408470760734" lon="11.549453936557077"><ele>205.66666666666669</ele><time>2026-04-26T14:33:32.999Z</time></trkpt><trkpt lat="43.244192695926685" lon="11.549290175226279"><ele>207.33333333333334</ele><time>2026-04-26T14:33:33.999Z</time></trkpt><trkpt lat="43.244322253616055" lon="11.54914848431994"><ele>209.0</ele><time>2026-04-26T14:33:34.999Z</time></trkpt><trkpt lat="43.24445674392278" lon="11.549010063713236"><ele>209.0</ele><time>2026-04-26T14:33:35.999Z</time></trkpt><trkpt lat="43.244608314251565" lon="11.548909500957556"><ele>209.0</ele><time>2026-04-26T14:33:36.999Z</time></trkpt><trkpt lat="43.24475566917559" lon="11.548793777657297"><ele>209.0</ele><time>2026-04-26T14:33:37.999Z</time></trkpt><trkpt lat="43.244906989729536" lon="11.548683242669235"><ele>212.0</ele><time>2026-04-26T14:33:38.999Z</time></trkpt><trkpt lat="43.24504820353705" lon="11.54855189974467"><ele>215.0</ele><time>2026-04-26T14:33:39.999Z</time></trkpt><trkpt lat="43.2451934518597" lon="11.548434690026074"><ele>218.0</ele><time>2026-04-26T14:33:40.999Z</time></trkpt><trkpt lat="43.245327097282626" lon="11.548296710399539"><ele>218.0</ele><time>2026-04-26T14:33:41.999Z</time></trkpt><trkpt lat="43.2454442209256" lon="11.548134133895134"><ele>218.0</ele><time>2026-04-26T14:33:42.999Z</time></trkpt><trkpt lat="43.24555337206989" lon="11.547960923357735"><ele>218.0</ele><time>2026-04-26T14:33:43.999Z</time></trkpt><trkpt lat="43.24566024384892" lon="11.54778359080997"><ele>220.66666666666669</ele><time>2026-04-26T14:33:44.999Z</time></trkpt><trkpt lat="43.24578242464586" lon="11.547620343959375"><ele>223.33333333333331</ele><time>2026-04-26T14:33:45.999Z</time></trkpt><trkpt lat="43.245894697158136" lon="11.547441076207113"><ele>226.0</ele><time>2026-04-26T14:33:46.999Z</time></trkpt><trkpt lat="43.24600816508775" lon="11.547259899625265"><ele>226.0</ele><time>2026-04-26T14:33:47.999Z</time></trkpt><trkpt lat="43.24612391818264" lon="11.547082182617947"><ele>226.0</ele><time>2026-04-26T14:33:48.999Z</time></trkpt><trkpt lat="43.24622695467507" lon="11.546888125761216"><ele>226.0</ele><time>2026-04-26T14:33:49.999Z</time></trkpt><trkpt lat="43.24634178211861" lon="11.546709440084186"><ele>227.33333333333331</ele><time>2026-04-26T14:33:50.999Z</time></trkpt><trkpt lat="43.2464317058917" lon="11.546501662635576"><ele>228.66666666666669</ele><time>2026-04-26T14:33:51.999Z</time></trkpt><trkpt lat="43.246522491778926" lon="11.546295190863631"><ele>230.0</ele><time>2026-04-26T14:33:52.999Z</time></trkpt><trkpt lat="43.24661935528948" lon="11.546095509978436"><ele>230.0</ele><time>2026-04-26T14:33:53.999Z</time></trkpt><trkpt lat="43.24672811173128" lon="11.545908818345294"><ele>230.0</ele><time>2026-04-26T14:33:54.999Z</time></trkpt><trkpt lat="43.24685190972484" lon="11.545738686315053"><ele>230.0</ele><time>2026-04-26T14:33:55.999Z</time></trkpt><trkpt lat="43.24699416566408" lon="11.545591503272963"><ele>230.0</ele><time>2026-04-26T14:33:56.999Z</time></trkpt><trkpt lat="43.24714046102338" lon="11.54545140815891"><ele>230.0</ele><time>2026-04-26T14:33:57.999Z</time></trkpt><trkpt lat="43.24728459917803" lon="11.545309554077127"><ele>230.0</ele><time>2026-04-26T14:33:58.999Z</time></trkpt><trkpt lat="43.24740749197652" lon="11.545142649760164"><ele>234.0</ele><time>2026-04-26T14:33:59.999Z</time></trkpt><trkpt lat="43.247498443919866" lon="11.544939101770753"><ele>238.0</ele><time>2026-04-26T14:34:00.999Z</time></trkpt><trkpt lat="43.247560708621805" lon="11.544710688202834"><ele>242.0</ele><time>2026-04-26T14:34:01.999Z</time></trkpt><trkpt lat="43.247612685944866" lon="11.54448396801126"><ele>242.0</ele><time>2026-04-26T14:34:02.999Z</time></trkpt><trkpt lat="43.24764718457437" lon="11.54425290941119"><ele>242.0</ele><time>2026-04-26T14:34:03.999Z</time></trkpt><trkpt lat="43.24765220325766" lon="11.544039057928606"><ele>242.0</ele><time>2026-04-26T14:34:04.999Z</time></trkpt><trkpt lat="43.24763779660511" lon="11.543845351281183"><ele>241.66666666666669</ele><time>2026-04-26T14:34:05.999Z</time></trkpt><trkpt lat="43.247609412591494" lon="11.543641226637405"><ele>241.33333333333331</ele><time>2026-04-26T14:34:06.998Z</time></trkpt><trkpt lat="43.247580281981335" lon="11.543422433711273"><ele>241.0</ele><time>2026-04-26T14:34:07.998Z</time></trkpt><trkpt lat="43.24756104048016" lon="11.543193219145213"><ele>241.0</ele><time>2026-04-26T14:34:08.998Z</time></trkpt><trkpt lat="43.24755892828914" lon="11.542952778582205"><ele>241.0</ele><time>2026-04-26T14:34:09.998Z</time></trkpt><trkpt lat="43.24757903987185" lon="11.542718821011292"><ele>241.0</ele><time>2026-04-26T14:34:10.998Z</time></trkpt><trkpt lat="43.24761240242989" lon="11.542488689987563"><ele>240.33333333333331</ele><time>2026-04-26T14:34:11.998Z</time></trkpt><trkpt lat="43.24766771240803" lon="11.542267536620237"><ele>239.66666666666669</ele><time>2026-04-26T14:34:12.998Z</time></trkpt><trkpt lat="43.24772701344348" lon="11.542024260646098"><ele>239.0</ele><time>2026-04-26T14:34:13.998Z</time></trkpt><trkpt lat="43.24779353896105" lon="11.5417705064134"><ele>238.33333333333334</ele><time>2026-04-26T14:34:14.998Z</time></trkpt><trkpt lat="43.2478585320206" lon="11.541517028811604"><ele>237.66666666666669</ele><time>2026-04-26T14:34:15.998Z</time></trkpt><trkpt lat="43.24793391483747" lon="11.541275541445565"><ele>237.0</ele><time>2026-04-26T14:34:16.998Z</time></trkpt><trkpt lat="43.24801838804285" lon="11.541049214493603"><ele>236.66666666666669</ele><time>2026-04-26T14:34:17.998Z</time></trkpt><trkpt lat="43.248087238659046" lon="11.540813291233354"><ele>236.33333333333334</ele><time>2026-04-26T14:34:18.998Z</time></trkpt><trkpt lat="43.24812354981678" lon="11.540561256682597"><ele>236.0</ele><time>2026-04-26T14:34:19.998Z</time></trkpt><trkpt lat="43.248146535166654" lon="11.54031123259908"><ele>242.66666666666669</ele><time>2026-04-26T14:34:20.998Z</time></trkpt><trkpt lat="43.24815564750555" lon="11.540067347652084"><ele>249.33333333333331</ele><time>2026-04-26T14:34:21.998Z</time></trkpt><trkpt lat="43.248158534913976" lon="11.539813199679868"><ele>256.0</ele><time>2026-04-26T14:34:22.998Z</time></trkpt><trkpt lat="43.248155827123824" lon="11.539563763265848"><ele>257.0</ele><time>2026-04-26T14:34:23.998Z</time></trkpt><trkpt lat="43.24817832812554" lon="11.53932144275871"><ele>258.0</ele><time>2026-04-26T14:34:24.998Z</time></trkpt><trkpt lat="43.24819485736424" lon="11.53909090371556"><ele>259.0</ele><time>2026-04-26T14:34:25.998Z</time></trkpt><trkpt lat="43.2482138384916" lon="11.538867286975094"><ele>259.0</ele><time>2026-04-26T14:34:26.998Z</time></trkpt><trkpt lat="43.248281469245086" lon="11.53867128089807"><ele>259.0</ele><time>2026-04-26T14:34:27.998Z</time></trkpt><trkpt lat="43.248364634960986" lon="11.538493729013105"><ele>259.0</ele><time>2026-04-26T14:34:28.998Z</time></trkpt><trkpt lat="43.24846765008936" lon="11.53833359167757"><ele>259.0</ele><time>2026-04-26T14:34:29.998Z</time></trkpt><trkpt lat="43.248594795279686" lon="11.538227067393139"><ele>259.0</ele><time>2026-04-26T14:34:30.998Z</time></trkpt><trkpt lat="43.24872351260477" lon="11.538142041395021"><ele>259.0</ele><time>2026-04-26T14:34:31.998Z</time></trkpt><trkpt lat="43.24885638703421" lon="11.538054710634436"><ele>259.0</ele><time>2026-04-26T14:34:32.998Z</time></trkpt><trkpt lat="43.248981415519395" lon="11.537963904399064"><ele>260.0</ele><time>2026-04-26T14:34:33.998Z</time></trkpt><trkpt lat="43.2490985432132" lon="11.537860437073073"><ele>261.0</ele><time>2026-04-26T14:34:34.998Z</time></trkpt><trkpt lat="43.24920672795442" lon="11.537762018596371"><ele>262.0</ele><time>2026-04-26T14:34:36Z</time></trkpt><trkpt lat="43.24931315138161" lon="11.537666148758282"><ele>263.0</ele><time>2026-04-26T14:34:37Z</time></trkpt><trkpt lat="43.24941613984315" lon="11.537569207799784"><ele>263.0</ele><time>2026-04-26T14:34:38Z</time></trkpt><trkpt lat="43.24950499382737" lon="11.53747634800713"><ele>263.0</ele><time>2026-04-26T14:34:39Z</time></trkpt><trkpt lat="43.24958665394803" lon="11.537360582074356"><ele>263.0</ele><time>2026-04-26T14:34:40Z</time></trkpt><trkpt lat="43.24963261258102" lon="11.53720461970465"><ele>263.0</ele><time>2026-04-26T14:34:41Z</time></trkpt><trkpt lat="43.249672944092794" lon="11.537045404046221"><ele>260.0</ele><time>2026-04-26T14:34:42Z</time></trkpt><trkpt lat="43.24970008767985" lon="11.536835658480125"><ele>257.0</ele><time>2026-04-26T14:34:43Z</time></trkpt><trkpt lat="43.24971568164197" lon="11.53661961494171"><ele>254.0</ele><time>2026-04-26T14:34:44Z</time></trkpt><trkpt lat="43.24973650684716" lon="11.536385670364286"><ele>255.33333333333334</ele><time>2026-04-26T14:34:45Z</time></trkpt><trkpt lat="43.249750871060535" lon="11.536139665033957"><ele>256.6666666666667</ele><time>2026-04-26T14:34:46Z</time></trkpt><trkpt lat="43.24977469345573" lon="11.535872233479925"><ele>258.0</ele><time>2026-04-26T14:34:47Z</time></trkpt><trkpt lat="43.24977532270413" lon="11.53561708151811"><ele>265.6666666666667</ele><time>2026-04-26T14:34:48Z</time></trkpt><trkpt lat="43.249799518308734" lon="11.53536560645896"><ele>273.33333333333337</ele><time>2026-04-26T14:34:49Z</time></trkpt><trkpt lat="43.249835780441245" lon="11.535129182453813"><ele>281.0</ele><time>2026-04-26T14:34:50Z</time></trkpt><trkpt lat="43.249893755615986" lon="11.534895112046705"><ele>281.0</ele><time>2026-04-26T14:34:51Z</time></trkpt><trkpt lat="43.249966956192125" lon="11.534670248524694"><ele>281.0</ele><time>2026-04-26T14:34:52Z</time></trkpt><trkpt lat="43.25003191579963" lon="11.53445066956432"><ele>281.0</ele><time>2026-04-26T14:34:53Z</time></trkpt><trkpt lat="43.25007700945278" lon="11.534230613580347"><ele>281.6666666666667</ele><time>2026-04-26T14:34:54Z</time></trkpt><trkpt lat="43.25010093864436" lon="11.534003719626783"><ele>282.3333333333333</ele><time>2026-04-26T14:34:55Z</time></trkpt><trkpt lat="43.250117343062385" lon="11.533771212810933"><ele>283.0</ele><time>2026-04-26T14:34:56Z</time></trkpt><trkpt lat="43.25012651766289" lon="11.533533834965244"><ele>280.66666666666663</ele><time>2026-04-26T14:34:57Z</time></trkpt><trkpt lat="43.25012116023016" lon="11.533271247091877"><ele>278.3333333333333</ele><time>2026-04-26T14:34:58Z</time></trkpt><trkpt lat="43.250094081163084" lon="11.533014978355245"><ele>276.0</ele><time>2026-04-26T14:34:59Z</time></trkpt><trkpt lat="43.250051092553406" lon="11.53275052983507"><ele>275.3333333333333</ele><time>2026-04-26T14:35:00Z</time></trkpt><trkpt lat="43.24999124794569" lon="11.532493596051399"><ele>274.66666666666663</ele><time>2026-04-26T14:35:01Z</time></trkpt><trkpt lat="43.24992007711369" lon="11.532249165835104"><ele>274.0</ele><time>2026-04-26T14:35:02Z</time></trkpt><trkpt lat="43.24985943756069" lon="11.53200568920212"><ele>275.66666666666663</ele><time>2026-04-26T14:35:03Z</time></trkpt><trkpt lat="43.24982945056798" lon="11.53176419725572"><ele>277.3333333333333</ele><time>2026-04-26T14:35:04Z</time></trkpt><trkpt lat="43.249827275831976" lon="11.531511730716382"><ele>279.0</ele><time>2026-04-26T14:35:05Z</time></trkpt><trkpt lat="43.24984931848749" lon="11.531255486634771"><ele>281.6666666666667</ele><time>2026-04-26T14:35:06Z</time></trkpt><trkpt lat="43.24987875418763" lon="11.530994822888815"><ele>284.33333333333337</ele><time>2026-04-26T14:35:07Z</time></trkpt><trkpt lat="43.24990746321487" lon="11.53073020634703"><ele>287.0</ele><time>2026-04-26T14:35:08Z</time></trkpt><trkpt lat="43.24993047965826" lon="11.530463594247335"><ele>287.33333333333337</ele><time>2026-04-26T14:35:09Z</time></trkpt><trkpt lat="43.24995030042013" lon="11.530198347400948"><ele>287.6666666666667</ele><time>2026-04-26T14:35:10Z</time></trkpt><trkpt lat="43.24997007797548" lon="11.529932722995715"><ele>288.0</ele><time>2026-04-26T14:35:11Z</time></trkpt><trkpt lat="43.24998856691965" lon="11.529667670786006"><ele>287.6666666666667</ele><time>2026-04-26T14:35:11.999Z</time></trkpt><trkpt lat="43.25000538077711" lon="11.529399685870736"><ele>287.33333333333337</ele><time>2026-04-26T14:35:12.999Z</time></trkpt><trkpt lat="43.25002193645023" lon="11.529123670074572"><ele>287.0</ele><time>2026-04-26T14:35:13.999Z</time></trkpt><trkpt lat="43.25003614561987" lon="11.52884764880368"><ele>288.0</ele><time>2026-04-26T14:35:14.999Z</time></trkpt><trkpt lat="43.25005559241654" lon="11.52856625957158"><ele>289.0</ele><time>2026-04-26T14:35:15.999Z</time></trkpt><trkpt lat="43.25007836397865" lon="11.52828690052448"><ele>290.0</ele><time>2026-04-26T14:35:16.999Z</time></trkpt><trkpt lat="43.25010207517269" lon="11.528011082962683"><ele>290.0</ele><time>2026-04-26T14:35:17.999Z</time></trkpt><trkpt lat="43.25012304999406" lon="11.527738959764383"><ele>290.0</ele><time>2026-04-26T14:35:18.999Z</time></trkpt><trkpt lat="43.2501326738925" lon="11.527465021259141"><ele>290.0</ele><time>2026-04-26T14:35:19.999Z</time></trkpt><trkpt lat="43.25011813764895" lon="11.527189709749225"><ele>291.33333333333337</ele><time>2026-04-26T14:35:20.999Z</time></trkpt><trkpt lat="43.25007642581793" lon="11.526915817745616"><ele>292.6666666666667</ele><time>2026-04-26T14:35:21.999Z</time></trkpt><trkpt lat="43.25002134957193" lon="11.526641082298477"><ele>294.0</ele><time>2026-04-26T14:35:22.999Z</time></trkpt><trkpt lat="43.24996202202915" lon="11.52636947478132"><ele>295.0</ele><time>2026-04-26T14:35:23.999Z</time></trkpt><trkpt lat="43.24990296516825" lon="11.52610658746945"><ele>296.0</ele><time>2026-04-26T14:35:24.999Z</time></trkpt><trkpt lat="43.24984913815547" lon="11.52584996610023"><ele>297.0</ele><time>2026-04-26T14:35:25.999Z</time></trkpt><trkpt lat="43.24980884618382" lon="11.525588516838964"><ele>296.6666666666667</ele><time>2026-04-26T14:35:26.999Z</time></trkpt><trkpt lat="43.24978745362237" lon="11.525342833769153"><ele>296.33333333333337</ele><time>2026-04-26T14:35:27.999Z</time></trkpt><trkpt lat="43.24978514637174" lon="11.525091806708135"><ele>296.0</ele><time>2026-04-26T14:35:28.999Z</time></trkpt><trkpt lat="43.24979580572035" lon="11.524832149815452"><ele>296.0</ele><time>2026-04-26T14:35:29.999Z</time></trkpt><trkpt lat="43.24982238139619" lon="11.524567906736275"><ele>296.0</ele><time>2026-04-26T14:35:30.999Z</time></trkpt><trkpt lat="43.249890075222936" lon="11.524320512282102"><ele>296.0</ele><time>2026-04-26T14:35:31.999Z</time></trkpt><trkpt lat="43.24996654292333" lon="11.524067439142343"><ele>296.6666666666667</ele><time>2026-04-26T14:35:32.999Z</time></trkpt><trkpt lat="43.25004345450768" lon="11.52382637319045"><ele>297.3333333333333</ele><time>2026-04-26T14:35:33.999Z</time></trkpt><trkpt lat="43.250134735349945" lon="11.523590095983645"><ele>298.0</ele><time>2026-04-26T14:35:34.999Z</time></trkpt><trkpt lat="43.250248076619364" lon="11.523368795971729"><ele>299.66666666666663</ele><time>2026-04-26T14:35:35.999Z</time></trkpt><trkpt lat="43.25037508096482" lon="11.52316517356188"><ele>301.3333333333333</ele><time>2026-04-26T14:35:36.999Z</time></trkpt><trkpt lat="43.25051438584573" lon="11.522956354115351"><ele>303.0</ele><time>2026-04-26T14:35:37.999Z</time></trkpt><trkpt lat="43.25066048933207" lon="11.522738846600662"><ele>298.6666666666667</ele><time>2026-04-26T14:35:38.999Z</time></trkpt><trkpt lat="43.250803674493106" lon="11.522521614778675"><ele>294.33333333333337</ele><time>2026-04-26T14:35:39.999Z</time></trkpt><trkpt lat="43.250942910492185" lon="11.522308249607109"><ele>290.0</ele><time>2026-04-26T14:35:40.999Z</time></trkpt><trkpt lat="43.25107763914733" lon="11.522093369604132"><ele>288.33333333333337</ele><time>2026-04-26T14:35:41.999Z</time></trkpt><trkpt lat="43.25120504650857" lon="11.52187660551891"><ele>286.6666666666667</ele><time>2026-04-26T14:35:42.999Z</time></trkpt><trkpt lat="43.2513055821681" lon="11.521636292190724"><ele>285.0</ele><time>2026-04-26T14:35:43.999Z</time></trkpt><trkpt lat="43.25141966421358" lon="11.521401420506661"><ele>280.6666666666667</ele><time>2026-04-26T14:35:44.999Z</time></trkpt><trkpt lat="43.25151827249609" lon="11.521154161829797"><ele>276.33333333333337</ele><time>2026-04-26T14:35:45.999Z</time></trkpt><trkpt lat="43.25160967713844" lon="11.52089685561501"><ele>272.0</ele><time>2026-04-26T14:35:46.999Z</time></trkpt><trkpt lat="43.25167911187526" lon="11.520630971652588"><ele>271.0</ele><time>2026-04-26T14:35:47.999Z</time></trkpt><trkpt lat="43.25172309135476" lon="11.520364071841529"><ele>270.0</ele><time>2026-04-26T14:35:48.999Z</time></trkpt><trkpt lat="43.251752037376114" lon="11.520100522377366"><ele>269.0</ele><time>2026-04-26T14:35:49.999Z</time></trkpt><trkpt lat="43.25174104681973" lon="11.51968566403272"><ele>270.33333333333337</ele><time>2026-04-26T14:35:50.999Z</time></trkpt><trkpt lat="43.251755848978085" lon="11.519394899117412"><ele>271.6666666666667</ele><time>2026-04-26T14:35:51.999Z</time></trkpt><trkpt lat="43.25174191217784" lon="11.519087803610978"><ele>273.0</ele><time>2026-04-26T14:35:52.999Z</time></trkpt><trkpt lat="43.251769441046484" lon="11.518773731805922"><ele>274.6666666666667</ele><time>2026-04-26T14:35:53.999Z</time></trkpt><trkpt lat="43.25183295986996" lon="11.5184727523011"><ele>276.33333333333337</ele><time>2026-04-26T14:35:54.999Z</time></trkpt><trkpt lat="43.25189857811269" lon="11.51818701918023"><ele>278.0</ele><time>2026-04-26T14:35:55.999Z</time></trkpt><trkpt lat="43.251975576559374" lon="11.517899088528063"><ele>279.33333333333337</ele><time>2026-04-26T14:35:56.999Z</time></trkpt><trkpt lat="43.252056128391146" lon="11.51763130497264"><ele>280.6666666666667</ele><time>2026-04-26T14:35:57.999Z</time></trkpt><trkpt lat="43.25214043192519" lon="11.517362633674452"><ele>282.0</ele><time>2026-04-26T14:35:58.999Z</time></trkpt><trkpt lat="43.25222998770857" lon="11.5170922780458"><ele>283.3333333333333</ele><time>2026-04-26T14:35:59.999Z</time></trkpt><trkpt lat="43.25231861057935" lon="11.516838926539107"><ele>284.66666666666663</ele><time>2026-04-26T14:36:00.999Z</time></trkpt><trkpt lat="43.25240886851419" lon="11.5166127945966"><ele>286.0</ele><time>2026-04-26T14:36:01.999Z</time></trkpt><trkpt lat="43.25250964799192" lon="11.516428241422442"><ele>287.0</ele><time>2026-04-26T14:36:02.999Z</time></trkpt><trkpt lat="43.25261080465041" lon="11.516227048743847"><ele>288.0</ele><time>2026-04-26T14:36:03.999Z</time></trkpt><trkpt lat="43.2526988934593" lon="11.516032973355179"><ele>289.0</ele><time>2026-04-26T14:36:04.999Z</time></trkpt><trkpt lat="43.25278995793835" lon="11.515822859256163"><ele>289.0</ele><time>2026-04-26T14:36:05.999Z</time></trkpt><trkpt lat="43.25288303455327" lon="11.515608102530273"><ele>289.0</ele><time>2026-04-26T14:36:06.999Z</time></trkpt><trkpt lat="43.25297463452243" lon="11.515396752882234"><ele>289.0</ele><time>2026-04-26T14:36:07.999Z</time></trkpt><trkpt lat="43.253049686562974" lon="11.515178520203849"><ele>290.66666666666663</ele><time>2026-04-26T14:36:08.999Z</time></trkpt><trkpt lat="43.25314608577955" lon="11.514979516239702"><ele>292.3333333333333</ele><time>2026-04-26T14:36:09.999Z</time></trkpt><trkpt lat="43.2532490115551" lon="11.514774699650445"><ele>294.0</ele><time>2026-04-26T14:36:10.999Z</time></trkpt><trkpt lat="43.25335816293585" lon="11.514574467766648"><ele>293.3333333333333</ele><time>2026-04-26T14:36:11.999Z</time></trkpt><trkpt lat="43.25348063119936" lon="11.514403519238742"><ele>292.66666666666663</ele><time>2026-04-26T14:36:12.999Z</time></trkpt><trkpt lat="43.253592038492314" lon="11.514238758894788"><ele>292.0</ele><time>2026-04-26T14:36:13.999Z</time></trkpt><trkpt lat="43.253703625748344" lon="11.514098551759123"><ele>292.0</ele><time>2026-04-26T14:36:14.999Z</time></trkpt><trkpt lat="43.25380974915357" lon="11.513972545458234"><ele>292.0</ele><time>2026-04-26T14:36:15.998Z</time></trkpt><trkpt lat="43.25390701063192" lon="11.513860976865718"><ele>292.0</ele><time>2026-04-26T14:36:16.998Z</time></trkpt><trkpt lat="43.25399462902182" lon="11.513770149814148"><ele>292.0</ele><time>2026-04-26T14:36:17.998Z</time></trkpt><trkpt lat="43.25409990282703" lon="11.513693648323391"><ele>293.0</ele><time>2026-04-26T14:36:18.998Z</time></trkpt><trkpt lat="43.25419461488799" lon="11.513611035455083"><ele>294.0</ele><time>2026-04-26T14:36:19.998Z</time></trkpt><trkpt lat="43.25429426972107" lon="11.513530156535051"><ele>295.0</ele><time>2026-04-26T14:36:20.998Z</time></trkpt><trkpt lat="43.254397966818765" lon="11.513441626120105"><ele>296.0</ele><time>2026-04-26T14:36:21.998Z</time></trkpt><trkpt lat="43.25449459413565" lon="11.513327402166333"><ele>296.0</ele><time>2026-04-26T14:36:22.998Z</time></trkpt><trkpt lat="43.25460517951339" lon="11.513217412685583"><ele>296.0</ele><time>2026-04-26T14:36:23.998Z</time></trkpt><trkpt lat="43.25470959836093" lon="11.513110834926055"><ele>296.0</ele><time>2026-04-26T14:36:24.998Z</time></trkpt><trkpt lat="43.25483593026865" lon="11.512990199208703"><ele>296.0</ele><time>2026-04-26T14:36:25.998Z</time></trkpt><trkpt lat="43.25496054363132" lon="11.512865629453026"><ele>294.33333333333337</ele><time>2026-04-26T14:36:26.998Z</time></trkpt><trkpt lat="43.25511020709516" lon="11.512760284177318"><ele>292.6666666666667</ele><time>2026-04-26T14:36:27.998Z</time></trkpt><trkpt lat="43.25524514126758" lon="11.512679019730967"><ele>291.0</ele><time>2026-04-26T14:36:28.998Z</time></trkpt><trkpt lat="43.25538941749003" lon="11.512585203667914"><ele>291.0</ele><time>2026-04-26T14:36:29.998Z</time></trkpt><trkpt lat="43.255525945583514" lon="11.512472188066328"><ele>291.0</ele><time>2026-04-26T14:36:30.998Z</time></trkpt><trkpt lat="43.25568831348587" lon="11.512344275759737"><ele>291.0</ele><time>2026-04-26T14:36:31.998Z</time></trkpt><trkpt lat="43.25584958119675" lon="11.512218466586582"><ele>288.0</ele><time>2026-04-26T14:36:32.998Z</time></trkpt><trkpt lat="43.256009056192745" lon="11.512096338770732"><ele>285.0</ele><time>2026-04-26T14:36:33.998Z</time></trkpt><trkpt lat="43.25615959879578" lon="11.5119892569789"><ele>282.0</ele><time>2026-04-26T14:36:34.998Z</time></trkpt><trkpt lat="43.25631636278199" lon="11.511939909586395"><ele>279.3333333333333</ele><time>2026-04-26T14:36:35.998Z</time></trkpt><trkpt lat="43.256474959805175" lon="11.511853588217154"><ele>276.66666666666663</ele><time>2026-04-26T14:36:36.998Z</time></trkpt><trkpt lat="43.256602116547306" lon="11.51178162292619"><ele>274.0</ele><time>2026-04-26T14:36:37.998Z</time></trkpt><trkpt lat="43.256775509038896" lon="11.511707411403425"><ele>274.0</ele><time>2026-04-26T14:36:38.998Z</time></trkpt><trkpt lat="43.256959117377214" lon="11.511621780234696"><ele>274.0</ele><time>2026-04-26T14:36:39.998Z</time></trkpt><trkpt lat="43.25714201506821" lon="11.511520720329088"><ele>274.0</ele><time>2026-04-26T14:36:41Z</time></trkpt><trkpt lat="43.25732369375838" lon="11.511418185824224"><ele>271.66666666666663</ele><time>2026-04-26T14:36:42Z</time></trkpt><trkpt lat="43.257501463450104" lon="11.511321642591342"><ele>269.3333333333333</ele><time>2026-04-26T14:36:43Z</time></trkpt><trkpt lat="43.257675486392145" lon="11.511230416247882"><ele>267.0</ele><time>2026-04-26T14:36:44Z</time></trkpt><trkpt lat="43.257848596086376" lon="11.511143515694917"><ele>266.6666666666667</ele><time>2026-04-26T14:36:45Z</time></trkpt><trkpt lat="43.258015373476866" lon="11.51105567478746"><ele>266.33333333333337</ele><time>2026-04-26T14:36:46Z</time></trkpt><trkpt lat="43.258183361351534" lon="11.510961888563255"><ele>266.0</ele><time>2026-04-26T14:36:47Z</time></trkpt><trkpt lat="43.258337287463256" lon="11.510853476918022"><ele>266.6666666666667</ele><time>2026-04-26T14:36:48Z</time></trkpt><trkpt lat="43.25848941078839" lon="11.510725705741953"><ele>267.3333333333333</ele><time>2026-04-26T14:36:49Z</time></trkpt><trkpt lat="43.258635812164044" lon="11.510593029600606"><ele>268.0</ele><time>2026-04-26T14:36:50Z</time></trkpt><trkpt lat="43.258771232780575" lon="11.510484714626807"><ele>269.25</ele><time>2026-04-26T14:36:51Z</time></trkpt><trkpt lat="43.258883674371425" lon="11.510395910646274"><ele>270.5</ele><time>2026-04-26T14:36:52Z</time></trkpt><trkpt lat="43.259016009584386" lon="11.510283461731724"><ele>271.75</ele><time>2026-04-26T14:36:53Z</time></trkpt><trkpt lat="43.25913680244508" lon="11.510150330448132"><ele>273.0</ele><time>2026-04-26T14:36:54Z</time></trkpt><trkpt lat="43.25924515795123" lon="11.510026935140028"><ele>273.0</ele><time>2026-04-26T14:36:55Z</time></trkpt><trkpt lat="43.2593465092126" lon="11.509928073285032"><ele>273.0</ele><time>2026-04-26T14:36:56Z</time></trkpt><trkpt lat="43.25944593746324" lon="11.50982576468868"><ele>273.0</ele><time>2026-04-26T14:36:57Z</time></trkpt><trkpt lat="43.25954754623884" lon="11.509702536072782"><ele>273.0</ele><time>2026-04-26T14:36:58Z</time></trkpt><trkpt lat="43.25964848882494" lon="11.509581113164089"><ele>272.0</ele><time>2026-04-26T14:36:59Z</time></trkpt><trkpt lat="43.25974014351566" lon="11.509469294846634"><ele>271.0</ele><time>2026-04-26T14:37:00Z</time></trkpt><trkpt lat="43.25983323049866" lon="11.509364161707973"><ele>270.0</ele><time>2026-04-26T14:37:01Z</time></trkpt><trkpt lat="43.25993199761302" lon="11.509272077754074"><ele>269.0</ele><time>2026-04-26T14:37:02Z</time></trkpt><trkpt lat="43.26003739279893" lon="11.509200135905306"><ele>272.5</ele><time>2026-04-26T14:37:03Z</time></trkpt><trkpt lat="43.26015355635592" lon="11.509142052992472"><ele>276.0</ele><time>2026-04-26T14:37:04Z</time></trkpt><trkpt lat="43.260267994819614" lon="11.509083756741793"><ele>279.5</ele><time>2026-04-26T14:37:05Z</time></trkpt><trkpt lat="43.26037215776571" lon="11.509025862694154"><ele>283.0</ele><time>2026-04-26T14:37:06Z</time></trkpt><trkpt lat="43.260470645725746" lon="11.508965348618638"><ele>283.0</ele><time>2026-04-26T14:37:07Z</time></trkpt><trkpt lat="43.2605570561921" lon="11.508914138154758"><ele>283.0</ele><time>2026-04-26T14:37:08Z</time></trkpt><trkpt lat="43.26065077378416" lon="11.508868437660004"><ele>283.0</ele><time>2026-04-26T14:37:09Z</time></trkpt><trkpt lat="43.260754492693735" lon="11.508831228427502"><ele>283.0</ele><time>2026-04-26T14:37:10Z</time></trkpt><trkpt lat="43.260872241112494" lon="11.508776366780122"><ele>283.0</ele><time>2026-04-26T14:37:11Z</time></trkpt><trkpt lat="43.260996822101895" lon="11.508723714231857"><ele>284.0</ele><time>2026-04-26T14:37:12Z</time></trkpt><trkpt lat="43.26113373145455" lon="11.508671694046221"><ele>285.0</ele><time>2026-04-26T14:37:13Z</time></trkpt><trkpt lat="43.26128716447559" lon="11.50861055607218"><ele>286.0</ele><time>2026-04-26T14:37:14Z</time></trkpt><trkpt lat="43.2614443725792" lon="11.508559487866156"><ele>284.3333333333333</ele><time>2026-04-26T14:37:15Z</time></trkpt><trkpt lat="43.261605827010946" lon="11.508519973704404"><ele>282.6666666666667</ele><time>2026-04-26T14:37:16Z</time></trkpt><trkpt lat="43.26176732795086" lon="11.50852927342753"><ele>281.0</ele><time>2026-04-26T14:37:17Z</time></trkpt><trkpt lat="43.26191865129901" lon="11.508514831503321"><ele>281.0</ele><time>2026-04-26T14:37:17.999Z</time></trkpt><trkpt lat="43.262061114579296" lon="11.508510505017734"><ele>281.0</ele><time>2026-04-26T14:37:18.999Z</time></trkpt><trkpt lat="43.26219247893608" lon="11.508514718894848"><ele>281.0</ele><time>2026-04-26T14:37:19.999Z</time></trkpt><trkpt lat="43.26232113035492" lon="11.508524675590444"><ele>281.0</ele><time>2026-04-26T14:37:20.999Z</time></trkpt><trkpt lat="43.26244356065111" lon="11.508545746498855"><ele>280.5</ele><time>2026-04-26T14:37:21.999Z</time></trkpt><trkpt lat="43.26256910561776" lon="11.508576344135207"><ele>280.0</ele><time>2026-04-26T14:37:22.999Z</time></trkpt><trkpt lat="43.26269878787398" lon="11.508618712889357"><ele>279.5</ele><time>2026-04-26T14:37:23.999Z</time></trkpt><trkpt lat="43.262833246115974" lon="11.508652026804587"><ele>279.0</ele><time>2026-04-26T14:37:24.999Z</time></trkpt><trkpt lat="43.26297336795705" lon="11.508722246870853"><ele>278.3333333333333</ele><time>2026-04-26T14:37:25.999Z</time></trkpt><trkpt lat="43.26311899129013" lon="11.508797547520171"><ele>277.66666666666663</ele><time>2026-04-26T14:37:26.999Z</time></trkpt><trkpt lat="43.26327146871936" lon="11.508877258524874"><ele>277.0</ele><time>2026-04-26T14:37:27.999Z</time></trkpt><trkpt lat="43.263419464838975" lon="11.508979632201111"><ele>277.0</ele><time>2026-04-26T14:37:28.999Z</time></trkpt><trkpt lat="43.26357867483625" lon="11.509074808100946"><ele>277.0</ele><time>2026-04-26T14:37:29.999Z</time></trkpt><trkpt lat="43.26373693577081" lon="11.50915667545948"><ele>277.0</ele><time>2026-04-26T14:37:30.999Z</time></trkpt><trkpt lat="43.26387202186277" lon="11.509289180564789"><ele>276.66666666666663</ele><time>2026-04-26T14:37:31.999Z</time></trkpt><trkpt lat="43.26401844674431" lon="11.509431937113732"><ele>276.3333333333333</ele><time>2026-04-26T14:37:32.999Z</time></trkpt><trkpt lat="43.26414615327429" lon="11.50960565719583"><ele>276.0</ele><time>2026-04-26T14:37:33.999Z</time></trkpt><trkpt lat="43.26424995234509" lon="11.50980848576733"><ele>277.0</ele><time>2026-04-26T14:37:34.999Z</time></trkpt><trkpt lat="43.26436701313402" lon="11.509998218633555"><ele>278.0</ele><time>2026-04-26T14:37:35.999Z</time></trkpt><trkpt lat="43.26448040298522" lon="11.51017834224617"><ele>279.0</ele><time>2026-04-26T14:37:36.999Z</time></trkpt><trkpt lat="43.2645913210209" lon="11.510349816398548"><ele>278.6666666666667</ele><time>2026-04-26T14:37:37.999Z</time></trkpt><trkpt lat="43.26471413413143" lon="11.510503400624588"><ele>278.33333333333337</ele><time>2026-04-26T14:37:38.999Z</time></trkpt><trkpt lat="43.26482834879676" lon="11.510656863063968"><ele>278.0</ele><time>2026-04-26T14:37:39.999Z</time></trkpt><trkpt lat="43.26494330989159" lon="11.510798815910245"><ele>280.33333333333337</ele><time>2026-04-26T14:37:40.999Z</time></trkpt><trkpt lat="43.265060663878906" lon="11.51093294403986"><ele>282.6666666666667</ele><time>2026-04-26T14:37:41.999Z</time></trkpt><trkpt lat="43.26518905174642" lon="11.511045329160897"><ele>285.0</ele><time>2026-04-26T14:37:42.999Z</time></trkpt><trkpt lat="43.26532272561597" lon="11.511140654910829"><ele>285.0</ele><time>2026-04-26T14:37:43.999Z</time></trkpt><trkpt lat="43.265462849012124" lon="11.511217694037102"><ele>285.0</ele><time>2026-04-26T14:37:44.999Z</time></trkpt><trkpt lat="43.265606552198065" lon="11.511278900055364"><ele>285.0</ele><time>2026-04-26T14:37:45.999Z</time></trkpt><trkpt lat="43.265755769330376" lon="11.511323841511093"><ele>284.0</ele><time>2026-04-26T14:37:46.999Z</time></trkpt><trkpt lat="43.26591252247626" lon="11.51136891134648"><ele>283.0</ele><time>2026-04-26T14:37:47.999Z</time></trkpt><trkpt lat="43.266069474115035" lon="11.51141827355793"><ele>282.0</ele><time>2026-04-26T14:37:48.999Z</time></trkpt><trkpt lat="43.26622700922431" lon="11.51146747340288"><ele>282.0</ele><time>2026-04-26T14:37:49.999Z</time></trkpt><trkpt lat="43.266382887982964" lon="11.51152255755491"><ele>282.0</ele><time>2026-04-26T14:37:50.999Z</time></trkpt><trkpt lat="43.266534295572875" lon="11.511591435537081"><ele>282.0</ele><time>2026-04-26T14:37:51.999Z</time></trkpt><trkpt lat="43.26667243184229" lon="11.511715015167827"><ele>281.6666666666667</ele><time>2026-04-26T14:37:52.999Z</time></trkpt><trkpt lat="43.266817035262534" lon="11.511858043282436"><ele>281.33333333333337</ele><time>2026-04-26T14:37:53.999Z</time></trkpt><trkpt lat="43.26697239697692" lon="11.512022977043214"><ele>281.0</ele><time>2026-04-26T14:37:54.999Z</time></trkpt><trkpt lat="43.26713480505563" lon="11.512199208954529"><ele>283.0</ele><time>2026-04-26T14:37:55.999Z</time></trkpt><trkpt lat="43.267305872577666" lon="11.51238506009785"><ele>285.0</ele><time>2026-04-26T14:37:56.999Z</time></trkpt><trkpt lat="43.26747749409892" lon="11.512566782666212"><ele>287.0</ele><time>2026-04-26T14:37:57.999Z</time></trkpt><trkpt lat="43.26764629052206" lon="11.512738468519535"><ele>287.0</ele><time>2026-04-26T14:37:58.999Z</time></trkpt><trkpt lat="43.26783073667197" lon="11.51289661498429"><ele>287.0</ele><time>2026-04-26T14:37:59.999Z</time></trkpt><trkpt lat="43.268007694907155" lon="11.513051061098741"><ele>287.0</ele><time>2026-04-26T14:38:00.999Z</time></trkpt><trkpt lat="43.26816119894166" lon="11.513228382645428"><ele>288.6666666666667</ele><time>2026-04-26T14:38:01.999Z</time></trkpt><trkpt lat="43.268279544080244" lon="11.513435358230444"><ele>290.3333333333333</ele><time>2026-04-26T14:38:02.999Z</time></trkpt><trkpt lat="43.268385553730596" lon="11.51364806455769"><ele>292.0</ele><time>2026-04-26T14:38:03.999Z</time></trkpt><trkpt lat="43.26850590002005" lon="11.513910860675518"><ele>292.66666666666663</ele><time>2026-04-26T14:38:04.999Z</time></trkpt><trkpt lat="43.2686109987807" lon="11.51414709099119"><ele>293.3333333333333</ele><time>2026-04-26T14:38:05.999Z</time></trkpt><trkpt lat="43.26872742350004" lon="11.514379071578032"><ele>294.0</ele><time>2026-04-26T14:38:06.999Z</time></trkpt><trkpt lat="43.26887394401033" lon="11.51456590210576"><ele>301.3333333333333</ele><time>2026-04-26T14:38:07.999Z</time></trkpt><trkpt lat="43.26903845017339" lon="11.514711595066787"><ele>308.66666666666663</ele><time>2026-04-26T14:38:08.999Z</time></trkpt><trkpt lat="43.26921021402168" lon="11.51481623557496"><ele>316.0</ele><time>2026-04-26T14:38:09.999Z</time></trkpt><trkpt lat="43.26936207476723" lon="11.51494522734286"><ele>316.0</ele><time>2026-04-26T14:38:10.999Z</time></trkpt><trkpt lat="43.26951547734456" lon="11.51507224203983"><ele>316.0</ele><time>2026-04-26T14:38:11.999Z</time></trkpt><trkpt lat="43.26967195428555" lon="11.515211103614993"><ele>316.0</ele><time>2026-04-26T14:38:12.999Z</time></trkpt><trkpt lat="43.26982275272505" lon="11.515345642950003"><ele>319.66666666666663</ele><time>2026-04-26T14:38:13.999Z</time></trkpt><trkpt lat="43.2699684918761" lon="11.515471451949898"><ele>323.3333333333333</ele><time>2026-04-26T14:38:14.999Z</time></trkpt><trkpt lat="43.27011325693619" lon="11.515579785068116"><ele>327.0</ele><time>2026-04-26T14:38:15.999Z</time></trkpt><trkpt lat="43.270254573953906" lon="11.5156406376546"><ele>327.0</ele><time>2026-04-26T14:38:16.999Z</time></trkpt><trkpt lat="43.2703864594304" lon="11.515679216429268"><ele>327.0</ele><time>2026-04-26T14:38:17.999Z</time></trkpt><trkpt lat="43.2705363939362" lon="11.51567648150164"><ele>327.0</ele><time>2026-04-26T14:38:18.999Z</time></trkpt><trkpt lat="43.27068388810009" lon="11.515632411268136"><ele>327.0</ele><time>2026-04-26T14:38:19.999Z</time></trkpt><trkpt lat="43.270819061345904" lon="11.515507214506362"><ele>325.0</ele><time>2026-04-26T14:38:20.999Z</time></trkpt><trkpt lat="43.27094805776336" lon="11.515400787058722"><ele>323.0</ele><time>2026-04-26T14:38:21.999Z</time></trkpt><trkpt lat="43.27108131544587" lon="11.515269207652466"><ele>321.0</ele><time>2026-04-26T14:38:22.998Z</time></trkpt><trkpt lat="43.271202679107546" lon="11.515120863804915"><ele>321.0</ele><time>2026-04-26T14:38:23.998Z</time></trkpt><trkpt lat="43.27131020831716" lon="11.514991630042614"><ele>321.0</ele><time>2026-04-26T14:38:24.998Z</time></trkpt><trkpt lat="43.27138815342063" lon="11.514819810249985"><ele>321.0</ele><time>2026-04-26T14:38:25.998Z</time></trkpt><trkpt lat="43.27143336079963" lon="11.514595280482393"><ele>322.3333333333333</ele><time>2026-04-26T14:38:26.998Z</time></trkpt><trkpt lat="43.271435931197416" lon="11.514383559298492"><ele>323.66666666666663</ele><time>2026-04-26T14:38:27.998Z</time></trkpt><trkpt lat="43.27144093031719" lon="11.514146865569552"><ele>325.0</ele><time>2026-04-26T14:38:28.998Z</time></trkpt><trkpt lat="43.27146326083991" lon="11.513911608885257"><ele>323.0</ele><time>2026-04-26T14:38:29.998Z</time></trkpt><trkpt lat="43.271493661650055" lon="11.513647639844844"><ele>321.0</ele><time>2026-04-26T14:38:30.998Z</time></trkpt><trkpt lat="43.27154442520771" lon="11.513416468908288"><ele>319.0</ele><time>2026-04-26T14:38:31.998Z</time></trkpt><trkpt lat="43.27159289207093" lon="11.513184068917942"><ele>319.0</ele><time>2026-04-26T14:38:32.998Z</time></trkpt><trkpt lat="43.27164682588864" lon="11.512954886844415"><ele>319.0</ele><time>2026-04-26T14:38:33.998Z</time></trkpt><trkpt lat="43.2716948537585" lon="11.512724327053224"><ele>319.0</ele><time>2026-04-26T14:38:34.998Z</time></trkpt><trkpt lat="43.27174503566232" lon="11.512505028062547"><ele>316.0</ele><time>2026-04-26T14:38:35.998Z</time></trkpt><trkpt lat="43.27180979677411" lon="11.512290786543629"><ele>313.0</ele><time>2026-04-26T14:38:36.998Z</time></trkpt><trkpt lat="43.271897023813864" lon="11.512074696017995"><ele>310.0</ele><time>2026-04-26T14:38:37.998Z</time></trkpt><trkpt lat="43.27198384342791" lon="11.511849870592897"><ele>307.0</ele><time>2026-04-26T14:38:38.998Z</time></trkpt><trkpt lat="43.27204521509757" lon="11.511612037203582"><ele>304.0</ele><time>2026-04-26T14:38:39.998Z</time></trkpt><trkpt lat="43.272117292810904" lon="11.511364114433258"><ele>301.0</ele><time>2026-04-26T14:38:40.998Z</time></trkpt><trkpt lat="43.27217062711807" lon="11.511101833074662"><ele>299.0</ele><time>2026-04-26T14:38:41.998Z</time></trkpt><trkpt lat="43.27226136766422" lon="11.510864392533332"><ele>297.0</ele><time>2026-04-26T14:38:42.998Z</time></trkpt><trkpt lat="43.27238875983945" lon="11.510668902982925"><ele>295.0</ele><time>2026-04-26T14:38:43.998Z</time></trkpt><trkpt lat="43.27249663158107" lon="11.510451090871012"><ele>294.3333333333333</ele><time>2026-04-26T14:38:44.998Z</time></trkpt><trkpt lat="43.27259337816241" lon="11.51022920904305"><ele>293.6666666666667</ele><time>2026-04-26T14:38:46Z</time></trkpt><trkpt lat="43.27266120871705" lon="11.50998682054335"><ele>293.0</ele><time>2026-04-26T14:38:47Z</time></trkpt><trkpt lat="43.27269677485756" lon="11.509736113340525"><ele>292.33333333333337</ele><time>2026-04-26T14:38:48Z</time></trkpt><trkpt lat="43.272714941452506" lon="11.509497895860607"><ele>291.6666666666667</ele><time>2026-04-26T14:38:49Z</time></trkpt><trkpt lat="43.27275498181892" lon="11.50927966494217"><ele>291.0</ele><time>2026-04-26T14:38:50Z</time></trkpt><trkpt lat="43.27280865280486" lon="11.509049011570266"><ele>291.0</ele><time>2026-04-26T14:38:51Z</time></trkpt><trkpt lat="43.272872405311524" lon="11.508809320655063"><ele>291.0</ele><time>2026-04-26T14:38:52Z</time></trkpt><trkpt lat="43.27297094634831" lon="11.508578387414955"><ele>291.0</ele><time>2026-04-26T14:38:53Z</time></trkpt><trkpt lat="43.2731079350245" lon="11.508387642270323"><ele>286.0</ele><time>2026-04-26T14:38:54Z</time></trkpt><trkpt lat="43.2732206144081" lon="11.50817852739966"><ele>281.0</ele><time>2026-04-26T14:38:55Z</time></trkpt><trkpt lat="43.27333655154992" lon="11.507983970209459"><ele>276.0</ele><time>2026-04-26T14:38:56Z</time></trkpt><trkpt lat="43.27343756972416" lon="11.507782997041016"><ele>275.0</ele><time>2026-04-26T14:38:57Z</time></trkpt><trkpt lat="43.27350025602313" lon="11.507565743525213"><ele>274.0</ele><time>2026-04-26T14:38:58Z</time></trkpt><trkpt lat="43.27354315530744" lon="11.507332744722161"><ele>273.0</ele><time>2026-04-26T14:38:59Z</time></trkpt><trkpt lat="43.27358476893231" lon="11.507080194782532"><ele>271.6666666666667</ele><time>2026-04-26T14:39:00Z</time></trkpt><trkpt lat="43.27363106691556" lon="11.506819708583421"><ele>270.33333333333337</ele><time>2026-04-26T14:39:01Z</time></trkpt><trkpt lat="43.27367262768375" lon="11.506550797180532"><ele>269.0</ele><time>2026-04-26T14:39:02Z</time></trkpt><trkpt lat="43.27369353836642" lon="11.50627354839719"><ele>269.6666666666667</ele><time>2026-04-26T14:39:03Z</time></trkpt><trkpt lat="43.2736806130545" lon="11.505998306374163"><ele>270.3333333333333</ele><time>2026-04-26T14:39:04Z</time></trkpt><trkpt lat="43.27364624931213" lon="11.505735751494191"><ele>271.0</ele><time>2026-04-26T14:39:05Z</time></trkpt><trkpt lat="43.27360864855565" lon="11.50547122290778"><ele>271.66666666666663</ele><time>2026-04-26T14:39:06Z</time></trkpt><trkpt lat="43.27362010703677" lon="11.505207523891288"><ele>272.3333333333333</ele><time>2026-04-26T14:39:07Z</time></trkpt><trkpt lat="43.27363027378947" lon="11.504950624154002"><ele>273.0</ele><time>2026-04-26T14:39:08Z</time></trkpt><trkpt lat="43.273624146373606" lon="11.504695404585922"><ele>274.3333333333333</ele><time>2026-04-26T14:39:09Z</time></trkpt><trkpt lat="43.27362705009969" lon="11.504449425926529"><ele>275.66666666666663</ele><time>2026-04-26T14:39:10Z</time></trkpt><trkpt lat="43.27361093787929" lon="11.504206143311302"><ele>277.0</ele><time>2026-04-26T14:39:11Z</time></trkpt><trkpt lat="43.27356276884944" lon="11.50396487014094"><ele>278.66666666666663</ele><time>2026-04-26T14:39:12Z</time></trkpt><trkpt lat="43.27348818082645" lon="11.503742936396891"><ele>280.3333333333333</ele><time>2026-04-26T14:39:13Z</time></trkpt><trkpt lat="43.27337109876813" lon="11.50355070266619"><ele>282.0</ele><time>2026-04-26T14:39:14Z</time></trkpt><trkpt lat="43.273244702284316" lon="11.503398521090846"><ele>280.3333333333333</ele><time>2026-04-26T14:39:15Z</time></trkpt><trkpt lat="43.27309920259646" lon="11.503282784632205"><ele>278.66666666666663</ele><time>2026-04-26T14:39:16Z</time></trkpt><trkpt lat="43.27303353666547" lon="11.503106349787501"><ele>277.0</ele><time>2026-04-26T14:39:17Z</time></trkpt><trkpt lat="43.27302977259385" lon="11.502899772030386"><ele>276.66666666666663</ele><time>2026-04-26T14:39:18Z</time></trkpt><trkpt lat="43.27302678416729" lon="11.502689533914817"><ele>276.3333333333333</ele><time>2026-04-26T14:39:19Z</time></trkpt><trkpt lat="43.2730348736814" lon="11.50245649225386"><ele>276.0</ele><time>2026-04-26T14:39:20Z</time></trkpt><trkpt lat="43.27305582372138" lon="11.50222300130592"><ele>276.6666666666667</ele><time>2026-04-26T14:39:21Z</time></trkpt><trkpt lat="43.273099948847786" lon="11.502001969416918"><ele>277.33333333333337</ele><time>2026-04-26T14:39:22Z</time></trkpt><trkpt lat="43.27317777799739" lon="11.501789252108942"><ele>278.0</ele><time>2026-04-26T14:39:23Z</time></trkpt><trkpt lat="43.273284857384596" lon="11.501619479396005"><ele>283.0</ele><time>2026-04-26T14:39:24Z</time></trkpt><trkpt lat="43.27340988809156" lon="11.501464892393253"><ele>288.0</ele><time>2026-04-26T14:39:25Z</time></trkpt><trkpt lat="43.27353934641253" lon="11.50131803795082"><ele>293.0</ele><time>2026-04-26T14:39:26Z</time></trkpt><trkpt lat="43.27366963950811" lon="11.501171237724588"><ele>293.0</ele><time>2026-04-26T14:39:27Z</time></trkpt><trkpt lat="43.27379027618605" lon="11.501034692472793"><ele>293.0</ele><time>2026-04-26T14:39:28Z</time></trkpt><trkpt lat="43.273884160050436" lon="11.500892249488093"><ele>293.0</ele><time>2026-04-26T14:39:28.999Z</time></trkpt><trkpt lat="43.27394935376081" lon="11.50074471739937"><ele>293.0</ele><time>2026-04-26T14:39:29.999Z</time></trkpt><trkpt lat="43.273954900897955" lon="11.500570751382318"><ele>292.75</ele><time>2026-04-26T14:39:30.999Z</time></trkpt><trkpt lat="43.273932314212566" lon="11.500378409715529"><ele>292.5</ele><time>2026-04-26T14:39:31.999Z</time></trkpt><trkpt lat="43.273873120455384" lon="11.500184560449776"><ele>292.25</ele><time>2026-04-26T14:39:32.999Z</time></trkpt><trkpt lat="43.273832841913524" lon="11.499984771038998"><ele>292.0</ele><time>2026-04-26T14:39:33.999Z</time></trkpt><trkpt lat="43.27380209494624" lon="11.499777520170301"><ele>294.3333333333333</ele><time>2026-04-26T14:39:34.999Z</time></trkpt><trkpt lat="43.27380784173052" lon="11.499560839673817"><ele>296.6666666666667</ele><time>2026-04-26T14:39:35.999Z</time></trkpt><trkpt lat="43.27382560271952" lon="11.49932795488102"><ele>299.0</ele><time>2026-04-26T14:39:36.999Z</time></trkpt><trkpt lat="43.27381121620582" lon="11.499099488052996"><ele>299.0</ele><time>2026-04-26T14:39:37.999Z</time></trkpt><trkpt lat="43.27379478832454" lon="11.498864304997477"><ele>299.0</ele><time>2026-04-26T14:39:38.999Z</time></trkpt><trkpt lat="43.27374485731724" lon="11.498653897635581"><ele>299.0</ele><time>2026-04-26T14:39:39.999Z</time></trkpt><trkpt lat="43.273680282635695" lon="11.49845577890577"><ele>304.0</ele><time>2026-04-26T14:39:40.999Z</time></trkpt><trkpt lat="43.273562468121455" lon="11.498307379316357"><ele>309.0</ele><time>2026-04-26T14:39:41.999Z</time></trkpt><trkpt lat="43.27345176776512" lon="11.498165537598057"><ele>314.0</ele><time>2026-04-26T14:39:42.999Z</time></trkpt><trkpt lat="43.27335961892495" lon="11.49800308983678"><ele>318.33333333333337</ele><time>2026-04-26T14:39:43.999Z</time></trkpt><trkpt lat="43.27328537890815" lon="11.497813022605298"><ele>322.6666666666667</ele><time>2026-04-26T14:39:44.999Z</time></trkpt><trkpt lat="43.27323340057973" lon="11.497604478092713"><ele>327.0</ele><time>2026-04-26T14:39:45.999Z</time></trkpt><trkpt lat="43.27320816453425" lon="11.497386969373103"><ele>327.0</ele><time>2026-04-26T14:39:46.999Z</time></trkpt><trkpt lat="43.27317486379348" lon="11.497187122309736"><ele>327.0</ele><time>2026-04-26T14:39:47.999Z</time></trkpt><trkpt lat="43.273189879739085" lon="11.497001812155183"><ele>327.0</ele><time>2026-04-26T14:39:48.999Z</time></trkpt><trkpt lat="43.27326433994461" lon="11.496858907344004"><ele>327.0</ele><time>2026-04-26T14:39:49.999Z</time></trkpt><trkpt lat="43.273367825296205" lon="11.496730553604863"><ele>325.5</ele><time>2026-04-26T14:39:50.999Z</time></trkpt><trkpt lat="43.27350781533766" lon="11.496672290880472"><ele>324.0</ele><time>2026-04-26T14:39:51.999Z</time></trkpt><trkpt lat="43.27364143741334" lon="11.496649703555612"><ele>322.5</ele><time>2026-04-26T14:39:52.999Z</time></trkpt><trkpt lat="43.27378402020074" lon="11.49665435332969"><ele>321.0</ele><time>2026-04-26T14:39:53.999Z</time></trkpt><trkpt lat="43.273918980897975" lon="11.496672394336448"><ele>323.5</ele><time>2026-04-26T14:39:54.999Z</time></trkpt><trkpt lat="43.27405966205315" lon="11.49666652358185"><ele>326.0</ele><time>2026-04-26T14:39:55.999Z</time></trkpt><trkpt lat="43.27419075794694" lon="11.496627709476762"><ele>328.5</ele><time>2026-04-26T14:39:56.999Z</time></trkpt><trkpt lat="43.27431387314249" lon="11.49652231941349"><ele>331.0</ele><time>2026-04-26T14:39:57.999Z</time></trkpt><trkpt lat="43.27443948728985" lon="11.496414160184354"><ele>331.0</ele><time>2026-04-26T14:39:58.999Z</time></trkpt><trkpt lat="43.27458293464504" lon="11.49630238553422"><ele>331.0</ele><time>2026-04-26T14:39:59.999Z</time></trkpt><trkpt lat="43.27472652777721" lon="11.496195265763706"><ele>331.0</ele><time>2026-04-26T14:40:00.999Z</time></trkpt><trkpt lat="43.27487199111183" lon="11.49610098507931"><ele>331.3333333333333</ele><time>2026-04-26T14:40:01.999Z</time></trkpt><trkpt lat="43.275019058295975" lon="11.496015013287643"><ele>331.6666666666667</ele><time>2026-04-26T14:40:02.999Z</time></trkpt><trkpt lat="43.27516645792925" lon="11.495931216967636"><ele>332.0</ele><time>2026-04-26T14:40:03.999Z</time></trkpt><trkpt lat="43.27530893225753" lon="11.495841679347562"><ele>332.0</ele><time>2026-04-26T14:40:04.999Z</time></trkpt><trkpt lat="43.275440591096704" lon="11.495747063969258"><ele>332.0</ele><time>2026-04-26T14:40:05.999Z</time></trkpt><trkpt lat="43.27555889369364" lon="11.495644152504143"><ele>332.0</ele><time>2026-04-26T14:40:06.999Z</time></trkpt><trkpt lat="43.27565948460909" lon="11.495532181508095"><ele>332.0</ele><time>2026-04-26T14:40:07.999Z</time></trkpt><trkpt lat="43.27574841560356" lon="11.49541776940019"><ele>333.20000000000005</ele><time>2026-04-26T14:40:08.999Z</time></trkpt><trkpt lat="43.2758287635089" lon="11.495308338326891"><ele>334.4</ele><time>2026-04-26T14:40:09.999Z</time></trkpt><trkpt lat="43.2758957183453" lon="11.49519950208463"><ele>335.6</ele><time>2026-04-26T14:40:10.999Z</time></trkpt><trkpt lat="43.275940837530435" lon="11.495091723950438"><ele>336.79999999999995</ele><time>2026-04-26T14:40:11.999Z</time></trkpt><trkpt lat="43.27597329624039" lon="11.494984940353085"><ele>338.0</ele><time>2026-04-26T14:40:12.999Z</time></trkpt><trkpt lat="43.27598650991857" lon="11.494859790992237"><ele>338.0</ele><time>2026-04-26T14:40:13.999Z</time></trkpt><trkpt lat="43.27599210141611" lon="11.494709249857042"><ele>338.0</ele><time>2026-04-26T14:40:14.999Z</time></trkpt><trkpt lat="43.27602874809602" lon="11.494555590150284"><ele>338.0</ele><time>2026-04-26T14:40:15.999Z</time></trkpt><trkpt lat="43.27603709261894" lon="11.494396028761667"><ele>338.0</ele><time>2026-04-26T14:40:16.999Z</time></trkpt><trkpt lat="43.27606814442005" lon="11.494246801139889"><ele>336.25</ele><time>2026-04-26T14:40:17.999Z</time></trkpt><trkpt lat="43.27609280992669" lon="11.494078100781218"><ele>334.5</ele><time>2026-04-26T14:40:18.999Z</time></trkpt><trkpt lat="43.276107767598646" lon="11.493897033905423"><ele>332.75</ele><time>2026-04-26T14:40:19.999Z</time></trkpt><trkpt lat="43.27610284109103" lon="11.493701861517907"><ele>331.0</ele><time>2026-04-26T14:40:20.999Z</time></trkpt><trkpt lat="43.27608180399915" lon="11.493500528854856"><ele>331.0</ele><time>2026-04-26T14:40:21.999Z</time></trkpt><trkpt lat="43.276042408199906" lon="11.49330060738587"><ele>331.0</ele><time>2026-04-26T14:40:22.999Z</time></trkpt><trkpt lat="43.276022661032215" lon="11.493105572292869"><ele>331.0</ele><time>2026-04-26T14:40:23.999Z</time></trkpt><trkpt lat="43.275989897684596" lon="11.492912462301527"><ele>331.0</ele><time>2026-04-26T14:40:24.999Z</time></trkpt><trkpt lat="43.275938192689544" lon="11.492729365777326"><ele>332.66666666666663</ele><time>2026-04-26T14:40:25.999Z</time></trkpt><trkpt lat="43.2758955765768" lon="11.49254538975817"><ele>334.3333333333333</ele><time>2026-04-26T14:40:26.999Z</time></trkpt><trkpt lat="43.27583389004606" lon="11.492347914291763"><ele>336.0</ele><time>2026-04-26T14:40:27.999Z</time></trkpt><trkpt lat="43.27577416229629" lon="11.49211119542919"><ele>338.6666666666667</ele><time>2026-04-26T14:40:28.999Z</time></trkpt><trkpt lat="43.27569713957026" lon="11.491870111686746"><ele>341.33333333333337</ele><time>2026-04-26T14:40:29.999Z</time></trkpt><trkpt lat="43.275623345156184" lon="11.491635887647513"><ele>344.0</ele><time>2026-04-26T14:40:30.999Z</time></trkpt><trkpt lat="43.275556119595265" lon="11.491424256319059"><ele>338.25</ele><time>2026-04-26T14:40:31.999Z</time></trkpt><trkpt lat="43.27549841532011" lon="11.49124259871989"><ele>332.5</ele><time>2026-04-26T14:40:32.998Z</time></trkpt><trkpt lat="43.27544420769385" lon="11.491071948912536"><ele>326.75</ele><time>2026-04-26T14:40:33.998Z</time></trkpt><trkpt lat="43.275394102299735" lon="11.490914213146231"><ele>321.0</ele><time>2026-04-26T14:40:34.998Z</time></trkpt><trkpt lat="43.27534753683696" lon="11.49076762148284"><ele>321.0</ele><time>2026-04-26T14:40:35.998Z</time></trkpt><trkpt lat="43.27530326196031" lon="11.490629691029426"><ele>321.0</ele><time>2026-04-26T14:40:36.998Z</time></trkpt><trkpt lat="43.27526008162491" lon="11.490496906237732"><ele>321.0</ele><time>2026-04-26T14:40:37.998Z</time></trkpt><trkpt lat="43.27521475603442" lon="11.490357832442763"><ele>321.0</ele><time>2026-04-26T14:40:38.998Z</time></trkpt><trkpt lat="43.27515874574737" lon="11.490188549959953"><ele>322.25</ele><time>2026-04-26T14:40:39.998Z</time></trkpt><trkpt lat="43.27510080369299" lon="11.4900131547135"><ele>323.5</ele><time>2026-04-26T14:40:40.998Z</time></trkpt><trkpt lat="43.275042702053" lon="11.489836263737073"><ele>324.75</ele><time>2026-04-26T14:40:41.998Z</time></trkpt><trkpt lat="43.2749383492472" lon="11.48965552231792"><ele>326.0</ele><time>2026-04-26T14:40:42.998Z</time></trkpt><trkpt lat="43.27482613583849" lon="11.489456359487699"><ele>325.0</ele><time>2026-04-26T14:40:43.998Z</time></trkpt><trkpt lat="43.27468754665828" lon="11.489271045667017"><ele>324.0</ele><time>2026-04-26T14:40:44.998Z</time></trkpt><trkpt lat="43.27457372504047" lon="11.489064843787395"><ele>323.0</ele><time>2026-04-26T14:40:45.998Z</time></trkpt><trkpt lat="43.27446990345548" lon="11.488849382673985"><ele>324.0</ele><time>2026-04-26T14:40:46.998Z</time></trkpt><trkpt lat="43.274377595806996" lon="11.48862796585721"><ele>325.0</ele><time>2026-04-26T14:40:47.998Z</time></trkpt><trkpt lat="43.27428997583325" lon="11.488401955181379"><ele>326.0</ele><time>2026-04-26T14:40:48.998Z</time></trkpt><trkpt lat="43.27420417880461" lon="11.488167949490363"><ele>325.33333333333337</ele><time>2026-04-26T14:40:49.998Z</time></trkpt><trkpt lat="43.27412841467206" lon="11.487902897878968"><ele>324.6666666666667</ele><time>2026-04-26T14:40:51Z</time></trkpt><trkpt lat="43.27406721219216" lon="11.487616456632875"><ele>324.0</ele><time>2026-04-26T14:40:52Z</time></trkpt><trkpt lat="43.27402553034029" lon="11.487318902203342"><ele>324.3333333333333</ele><time>2026-04-26T14:40:53Z</time></trkpt><trkpt lat="43.27399658859807" lon="11.487044111185746"><ele>324.66666666666663</ele><time>2026-04-26T14:40:54Z</time></trkpt><trkpt lat="43.273984148567706" lon="11.4867785232621"><ele>325.0</ele><time>2026-04-26T14:40:55Z</time></trkpt><trkpt lat="43.27399723973644" lon="11.48652208193159"><ele>325.0</ele><time>2026-04-26T14:40:56Z</time></trkpt><trkpt lat="43.27403570177262" lon="11.486269520020027"><ele>325.0</ele><time>2026-04-26T14:40:57Z</time></trkpt><trkpt lat="43.274103642438654" lon="11.486026137586707"><ele>325.0</ele><time>2026-04-26T14:40:58Z</time></trkpt><trkpt lat="43.27420403083829" lon="11.485816176583176"><ele>327.0</ele><time>2026-04-26T14:40:59Z</time></trkpt><trkpt lat="43.274331017549514" lon="11.485624139657597"><ele>329.0</ele><time>2026-04-26T14:41:00Z</time></trkpt><trkpt lat="43.27447533145103" lon="11.485447750989605"><ele>331.0</ele><time>2026-04-26T14:41:01Z</time></trkpt><trkpt lat="43.27463175164133" lon="11.485269260826515"><ele>331.3333333333333</ele><time>2026-04-26T14:41:02Z</time></trkpt><trkpt lat="43.27477753600916" lon="11.485106045381412"><ele>331.6666666666667</ele><time>2026-04-26T14:41:03Z</time></trkpt><trkpt lat="43.274923165291625" lon="11.48494778569444"><ele>332.0</ele><time>2026-04-26T14:41:04Z</time></trkpt><trkpt lat="43.27508266028717" lon="11.48479852964767"><ele>332.0</ele><time>2026-04-26T14:41:05Z</time></trkpt><trkpt lat="43.275263378724034" lon="11.484661353737124"><ele>332.0</ele><time>2026-04-26T14:41:06Z</time></trkpt><trkpt lat="43.27545367251922" lon="11.48453884540566"><ele>332.0</ele><time>2026-04-26T14:41:07Z</time></trkpt><trkpt lat="43.275643634197955" lon="11.484429536388191"><ele>331.0</ele><time>2026-04-26T14:41:08Z</time></trkpt><trkpt lat="43.275830143105864" lon="11.484325825601195"><ele>330.0</ele><time>2026-04-26T14:41:09Z</time></trkpt><trkpt lat="43.276014585166465" lon="11.48423902782662"><ele>329.0</ele><time>2026-04-26T14:41:10Z</time></trkpt><trkpt lat="43.27619963738686" lon="11.484162648892756"><ele>329.0</ele><time>2026-04-26T14:41:11Z</time></trkpt><trkpt lat="43.27637755779961" lon="11.484095401464941"><ele>329.0</ele><time>2026-04-26T14:41:12Z</time></trkpt><trkpt lat="43.27656367934702" lon="11.484023429811439"><ele>329.0</ele><time>2026-04-26T14:41:13Z</time></trkpt><trkpt lat="43.27674759848373" lon="11.483931590326513"><ele>328.0</ele><time>2026-04-26T14:41:14Z</time></trkpt><trkpt lat="43.27692586683528" lon="11.48380503140868"><ele>327.0</ele><time>2026-04-26T14:41:15Z</time></trkpt><trkpt lat="43.27711079966491" lon="11.483683175197061"><ele>326.0</ele><time>2026-04-26T14:41:16Z</time></trkpt><trkpt lat="43.27729487599958" lon="11.483590161767452"><ele>324.0</ele><time>2026-04-26T14:41:17Z</time></trkpt><trkpt lat="43.27747126435487" lon="11.483501549129116"><ele>322.0</ele><time>2026-04-26T14:41:18Z</time></trkpt><trkpt lat="43.27765053242433" lon="11.483467126082555"><ele>320.0</ele><time>2026-04-26T14:41:19Z</time></trkpt><trkpt lat="43.27783278277983" lon="11.483479203207654"><ele>320.0</ele><time>2026-04-26T14:41:20Z</time></trkpt><trkpt lat="43.278015578156655" lon="11.483498436679577"><ele>320.0</ele><time>2026-04-26T14:41:21Z</time></trkpt><trkpt lat="43.27820809596342" lon="11.483555008806613"><ele>320.0</ele><time>2026-04-26T14:41:22Z</time></trkpt><trkpt lat="43.278408727838546" lon="11.4835994649692"><ele>318.0</ele><time>2026-04-26T14:41:23Z</time></trkpt><trkpt lat="43.27861039154783" lon="11.48367164234106"><ele>316.0</ele><time>2026-04-26T14:41:24Z</time></trkpt><trkpt lat="43.27882008062178" lon="11.483711885560922"><ele>314.0</ele><time>2026-04-26T14:41:25Z</time></trkpt><trkpt lat="43.27902390213049" lon="11.483766863199207"><ele>312.0</ele><time>2026-04-26T14:41:26Z</time></trkpt><trkpt lat="43.27921801177207" lon="11.483821996880696"><ele>310.0</ele><time>2026-04-26T14:41:27Z</time></trkpt><trkpt lat="43.279404861588624" lon="11.483876299062555"><ele>308.0</ele><time>2026-04-26T14:41:28Z</time></trkpt><trkpt lat="43.27958367654909" lon="11.483927976707925"><ele>308.0</ele><time>2026-04-26T14:41:29Z</time></trkpt><trkpt lat="43.27975998980175" lon="11.483971232019028"><ele>308.0</ele><time>2026-04-26T14:41:30Z</time></trkpt><trkpt lat="43.279941313587756" lon="11.483977102285209"><ele>308.0</ele><time>2026-04-26T14:41:31Z</time></trkpt><trkpt lat="43.28012500539977" lon="11.483960980254516"><ele>307.0</ele><time>2026-04-26T14:41:32Z</time></trkpt><trkpt lat="43.28031317419304" lon="11.483908964482778"><ele>306.0</ele><time>2026-04-26T14:41:33Z</time></trkpt><trkpt lat="43.28049068976027" lon="11.483872305835082"><ele>305.0</ele><time>2026-04-26T14:41:34Z</time></trkpt><trkpt lat="43.28066092782456" lon="11.483828024496692"><ele>304.6666666666667</ele><time>2026-04-26T14:41:35Z</time></trkpt><trkpt lat="43.280815669900356" lon="11.48373582029566"><ele>304.3333333333333</ele><time>2026-04-26T14:41:36Z</time></trkpt><trkpt lat="43.2809613355326" lon="11.48359360996513"><ele>304.0</ele><time>2026-04-26T14:41:37Z</time></trkpt><trkpt lat="43.28109637717693" lon="11.483431277810777"><ele>304.0</ele><time>2026-04-26T14:41:38Z</time></trkpt><trkpt lat="43.28123439971238" lon="11.483261618076803"><ele>304.0</ele><time>2026-04-26T14:41:39Z</time></trkpt><trkpt lat="43.28136090426951" lon="11.483077164240843"><ele>304.0</ele><time>2026-04-26T14:41:40Z</time></trkpt><trkpt lat="43.28147489947336" lon="11.482870728771598"><ele>304.3333333333333</ele><time>2026-04-26T14:41:41Z</time></trkpt><trkpt lat="43.28158730649902" lon="11.482670915320766"><ele>304.6666666666667</ele><time>2026-04-26T14:41:41.999Z</time></trkpt><trkpt lat="43.28170479679617" lon="11.482475897587213"><ele>305.0</ele><time>2026-04-26T14:41:42.999Z</time></trkpt><trkpt lat="43.281803821957794" lon="11.482279152927237"><ele>300.33333333333337</ele><time>2026-04-26T14:41:43.999Z</time></trkpt><trkpt lat="43.28188878345482" lon="11.482075298509764"><ele>295.6666666666667</ele><time>2026-04-26T14:41:44.999Z</time></trkpt><trkpt lat="43.2819731279074" lon="11.481853421933721"><ele>291.0</ele><time>2026-04-26T14:41:45.999Z</time></trkpt><trkpt lat="43.28203815231122" lon="11.48161514731005"><ele>291.0</ele><time>2026-04-26T14:41:46.999Z</time></trkpt><trkpt lat="43.282113324861285" lon="11.481379362687623"><ele>291.0</ele><time>2026-04-26T14:41:47.999Z</time></trkpt><trkpt lat="43.28222355404536" lon="11.481162796669045"><ele>291.0</ele><time>2026-04-26T14:41:48.999Z</time></trkpt><trkpt lat="43.28232793226306" lon="11.480942044371433"><ele>292.6666666666667</ele><time>2026-04-26T14:41:49.999Z</time></trkpt><trkpt lat="43.282433979293636" lon="11.480720477683418"><ele>294.33333333333337</ele><time>2026-04-26T14:41:50.999Z</time></trkpt><trkpt lat="43.2825237126113" lon="11.480491177782454"><ele>296.0</ele><time>2026-04-26T14:41:51.999Z</time></trkpt><trkpt lat="43.28263176121879" lon="11.48027648457915"><ele>292.6666666666667</ele><time>2026-04-26T14:41:52.999Z</time></trkpt><trkpt lat="43.282709707322645" lon="11.480031554087494"><ele>289.3333333333333</ele><time>2026-04-26T14:41:53.999Z</time></trkpt><trkpt lat="43.282750207910844" lon="11.47976044737973"><ele>286.0</ele><time>2026-04-26T14:41:54.999Z</time></trkpt><trkpt lat="43.28278748454809" lon="11.479494370207668"><ele>283.66666666666663</ele><time>2026-04-26T14:41:55.999Z</time></trkpt><trkpt lat="43.28280184460833" lon="11.479214598532806"><ele>281.3333333333333</ele><time>2026-04-26T14:41:56.999Z</time></trkpt><trkpt lat="43.282812321772454" lon="11.478945411237229"><ele>279.0</ele><time>2026-04-26T14:41:57.999Z</time></trkpt><trkpt lat="43.28282439583789" lon="11.478675105655018"><ele>277.3333333333333</ele><time>2026-04-26T14:41:58.999Z</time></trkpt><trkpt lat="43.28282367202524" lon="11.478415106010429"><ele>275.66666666666663</ele><time>2026-04-26T14:41:59.999Z</time></trkpt><trkpt lat="43.282819653298475" lon="11.478156691516782"><ele>274.0</ele><time>2026-04-26T14:42:00.999Z</time></trkpt><trkpt lat="43.28279244213592" lon="11.477887881235816"><ele>273.66666666666663</ele><time>2026-04-26T14:42:01.999Z</time></trkpt><trkpt lat="43.2827410047877" lon="11.477626896469127"><ele>273.3333333333333</ele><time>2026-04-26T14:42:02.999Z</time></trkpt><trkpt lat="43.282693679093214" lon="11.477358317874206"><ele>273.0</ele><time>2026-04-26T14:42:03.999Z</time></trkpt><trkpt lat="43.2826374140623" lon="11.477108004850633"><ele>272.3333333333333</ele><time>2026-04-26T14:42:04.999Z</time></trkpt><trkpt lat="43.282574204949995" lon="11.47687809704995"><ele>271.66666666666663</ele><time>2026-04-26T14:42:05.999Z</time></trkpt><trkpt lat="43.28254973239061" lon="11.47664370344008"><ele>271.0</ele><time>2026-04-26T14:42:06.999Z</time></trkpt><trkpt lat="43.282543745810436" lon="11.476407073945222"><ele>270.66666666666663</ele><time>2026-04-26T14:42:07.999Z</time></trkpt><trkpt lat="43.282580023192594" lon="11.47616897603462"><ele>270.3333333333333</ele><time>2026-04-26T14:42:08.999Z</time></trkpt><trkpt lat="43.28259736006704" lon="11.475935597963241"><ele>270.0</ele><time>2026-04-26T14:42:09.999Z</time></trkpt><trkpt lat="43.28258649740817" lon="11.475709180228332"><ele>270.0</ele><time>2026-04-26T14:42:10.999Z</time></trkpt><trkpt lat="43.28255927545109" lon="11.475495358728795"><ele>270.0</ele><time>2026-04-26T14:42:11.999Z</time></trkpt><trkpt lat="43.28249553812974" lon="11.475292622354168"><ele>270.0</ele><time>2026-04-26T14:42:12.999Z</time></trkpt><trkpt lat="43.28240253607777" lon="11.475106776831609"><ele>270.3333333333333</ele><time>2026-04-26T14:42:13.999Z</time></trkpt><trkpt lat="43.28230320728842" lon="11.47493522037102"><ele>270.66666666666663</ele><time>2026-04-26T14:42:14.999Z</time></trkpt><trkpt lat="43.282210882489196" lon="11.47477283000415"><ele>271.0</ele><time>2026-04-26T14:42:15.999Z</time></trkpt><trkpt lat="43.28212533535754" lon="11.474610555835703"><ele>268.0</ele><time>2026-04-26T14:42:16.999Z</time></trkpt><trkpt lat="43.28205071751788" lon="11.474440383469306"><ele>265.0</ele><time>2026-04-26T14:42:17.999Z</time></trkpt><trkpt lat="43.282003481228685" lon="11.474234806330928"><ele>262.0</ele><time>2026-04-26T14:42:18.999Z</time></trkpt><trkpt lat="43.28196570022975" lon="11.474007888541063"><ele>262.0</ele><time>2026-04-26T14:42:19.999Z</time></trkpt><trkpt lat="43.28193513299049" lon="11.473756729097547"><ele>262.0</ele><time>2026-04-26T14:42:20.999Z</time></trkpt><trkpt lat="43.28189367218402" lon="11.473491604645035"><ele>262.0</ele><time>2026-04-26T14:42:21.999Z</time></trkpt><trkpt lat="43.2818387047579" lon="11.473212505524788"><ele>261.3333333333333</ele><time>2026-04-26T14:42:22.999Z</time></trkpt><trkpt lat="43.281774141912855" lon="11.47292816231875"><ele>260.6666666666667</ele><time>2026-04-26T14:42:23.999Z</time></trkpt><trkpt lat="43.281700933853294" lon="11.472627449594178"><ele>260.0</ele><time>2026-04-26T14:42:24.999Z</time></trkpt><trkpt lat="43.28161980446841" lon="11.47231036156158"><ele>259.0</ele><time>2026-04-26T14:42:25.999Z</time></trkpt><trkpt lat="43.28153349711543" lon="11.471987082182489"><ele>258.0</ele><time>2026-04-26T14:42:26.999Z</time></trkpt><trkpt lat="43.28144519347474" lon="11.471670882219382"><ele>257.0</ele><time>2026-04-26T14:42:27.999Z</time></trkpt><trkpt lat="43.28135737206041" lon="11.471365942412342"><ele>256.0</ele><time>2026-04-26T14:42:28.999Z</time></trkpt><trkpt lat="43.28127214273032" lon="11.47106997801245"><ele>258.0</ele><time>2026-04-26T14:42:29.999Z</time></trkpt><trkpt lat="43.28118853150533" lon="11.470779921348862"><ele>260.0</ele><time>2026-04-26T14:42:30.999Z</time></trkpt><trkpt lat="43.28109300669315" lon="11.470502531259266"><ele>261.33333333333337</ele><time>2026-04-26T14:42:31.999Z</time></trkpt><trkpt lat="43.28100334093504" lon="11.47023151384671"><ele>262.6666666666667</ele><time>2026-04-26T14:42:32.999Z</time></trkpt><trkpt lat="43.28093412961437" lon="11.469960927383914"><ele>264.0</ele><time>2026-04-26T14:42:33.999Z</time></trkpt><trkpt lat="43.28084444882781" lon="11.46972180747068"><ele>264.3333333333333</ele><time>2026-04-26T14:42:34.999Z</time></trkpt><trkpt lat="43.2807764132503" lon="11.469489771158036"><ele>264.66666666666663</ele><time>2026-04-26T14:42:35.999Z</time></trkpt><trkpt lat="43.28072226607479" lon="11.469268114135057"><ele>265.0</ele><time>2026-04-26T14:42:36.999Z</time></trkpt><trkpt lat="43.28070587787502" lon="11.469044455513615"><ele>265.0</ele><time>2026-04-26T14:42:37.999Z</time></trkpt><trkpt lat="43.280750959633046" lon="11.468833333919237"><ele>265.0</ele><time>2026-04-26T14:42:38.999Z</time></trkpt><trkpt lat="43.280788327288676" lon="11.468622184821527"><ele>265.0</ele><time>2026-04-26T14:42:39.999Z</time></trkpt><trkpt lat="43.28084039651198" lon="11.468388322524651"><ele>263.66666666666663</ele><time>2026-04-26T14:42:40.999Z</time></trkpt><trkpt lat="43.28091084233487" lon="11.468147438524488"><ele>262.3333333333333</ele><time>2026-04-26T14:42:41.999Z</time></trkpt><trkpt lat="43.28097019261333" lon="11.467869578977574"><ele>261.0</ele><time>2026-04-26T14:42:42.999Z</time></trkpt><trkpt lat="43.281025511629295" lon="11.467587970250696"><ele>259.0</ele><time>2026-04-26T14:42:43.998Z</time></trkpt><trkpt lat="43.281072582441695" lon="11.467299622319418"><ele>257.0</ele><time>2026-04-26T14:42:44.998Z</time></trkpt><trkpt lat="43.28110631067685" lon="11.467007059946688"><ele>255.0</ele><time>2026-04-26T14:42:45.998Z</time></trkpt><trkpt lat="43.2811356775743" lon="11.466717867242865"><ele>253.66666666666669</ele><time>2026-04-26T14:42:46.998Z</time></trkpt><trkpt lat="43.28116644197308" lon="11.46643124849482"><ele>252.33333333333334</ele><time>2026-04-26T14:42:47.998Z</time></trkpt><trkpt lat="43.281199111240966" lon="11.466147292776434"><ele>251.0</ele><time>2026-04-26T14:42:48.998Z</time></trkpt><trkpt lat="43.281234992531246" lon="11.465868977903206"><ele>250.66666666666669</ele><time>2026-04-26T14:42:49.998Z</time></trkpt><trkpt lat="43.28125274563513" lon="11.46559429758779"><ele>250.33333333333331</ele><time>2026-04-26T14:42:50.998Z</time></trkpt><trkpt lat="43.28126514076591" lon="11.465345372959257"><ele>250.0</ele><time>2026-04-26T14:42:51.998Z</time></trkpt><trkpt lat="43.28126295258056" lon="11.465098535232128"><ele>250.0</ele><time>2026-04-26T14:42:52.998Z</time></trkpt><trkpt lat="43.28121413720335" lon="11.464848330963509"><ele>250.0</ele><time>2026-04-26T14:42:53.998Z</time></trkpt><trkpt lat="43.28114790490552" lon="11.464605328462424"><ele>250.0</ele><time>2026-04-26T14:42:54.998Z</time></trkpt><trkpt lat="43.281068429117056" lon="11.46435611082811"><ele>250.0</ele><time>2026-04-26T14:42:55.998Z</time></trkpt><trkpt lat="43.2809607027199" lon="11.464118599616944"><ele>250.0</ele><time>2026-04-26T14:42:57Z</time></trkpt><trkpt lat="43.28085808649483" lon="11.46387123205943"><ele>250.0</ele><time>2026-04-26T14:42:58Z</time></trkpt><trkpt lat="43.280741371968105" lon="11.463620990307362"><ele>249.66666666666666</ele><time>2026-04-26T14:42:59Z</time></trkpt><trkpt lat="43.28061261092618" lon="11.463375590036927"><ele>249.33333333333331</ele><time>2026-04-26T14:43:00Z</time></trkpt><trkpt lat="43.28047889379676" lon="11.463134022035986"><ele>249.0</ele><time>2026-04-26T14:43:01Z</time></trkpt><trkpt lat="43.280336770321334" lon="11.46291079519829"><ele>250.66666666666669</ele><time>2026-04-26T14:43:02Z</time></trkpt><trkpt lat="43.280193108565065" lon="11.462698213571894"><ele>252.33333333333334</ele><time>2026-04-26T14:43:03Z</time></trkpt><trkpt lat="43.280051704617655" lon="11.462486320898297"><ele>254.0</ele><time>2026-04-26T14:43:04Z</time></trkpt><trkpt lat="43.27991105646983" lon="11.462264949719762"><ele>254.33333333333334</ele><time>2026-04-26T14:43:05Z</time></trkpt><trkpt lat="43.27977527987098" lon="11.46204726361552"><ele>254.66666666666669</ele><time>2026-04-26T14:43:06Z</time></trkpt><trkpt lat="43.279637230550506" lon="11.461827330810694"><ele>255.0</ele><time>2026-04-26T14:43:07Z</time></trkpt><trkpt lat="43.279497640989455" lon="11.461608966814705"><ele>255.0</ele><time>2026-04-26T14:43:08Z</time></trkpt><trkpt lat="43.27935739787452" lon="11.46139875276047"><ele>255.0</ele><time>2026-04-26T14:43:09Z</time></trkpt><trkpt lat="43.279223943507446" lon="11.46118588920258"><ele>255.0</ele><time>2026-04-26T14:43:10Z</time></trkpt><trkpt lat="43.27910359764598" lon="11.460965678089197"><ele>255.0</ele><time>2026-04-26T14:43:11Z</time></trkpt><trkpt lat="43.27900143877859" lon="11.460731423338046"><ele>255.0</ele><time>2026-04-26T14:43:12Z</time></trkpt><trkpt lat="43.278913129649816" lon="11.460483242435982"><ele>255.0</ele><time>2026-04-26T14:43:13Z</time></trkpt><trkpt lat="43.27882082550552" lon="11.460232818405768"><ele>255.0</ele><time>2026-04-26T14:43:14Z</time></trkpt><trkpt lat="43.278724007588174" lon="11.459989772307733"><ele>255.0</ele><time>2026-04-26T14:43:15Z</time></trkpt><trkpt lat="43.27863017361212" lon="11.459748924204378"><ele>255.0</ele><time>2026-04-26T14:43:16Z</time></trkpt><trkpt lat="43.27853985746586" lon="11.459515792084783"><ele>257.0</ele><time>2026-04-26T14:43:17Z</time></trkpt><trkpt lat="43.278465809536144" lon="11.459284340978362"><ele>259.0</ele><time>2026-04-26T14:43:18Z</time></trkpt><trkpt lat="43.27837105315215" lon="11.459067016505967"><ele>261.0</ele><time>2026-04-26T14:43:19Z</time></trkpt><trkpt lat="43.278274562326985" lon="11.458849447551389"><ele>260.0</ele><time>2026-04-26T14:43:20Z</time></trkpt><trkpt lat="43.278182919374764" lon="11.458626615266867"><ele>259.0</ele><time>2026-04-26T14:43:21Z</time></trkpt><trkpt lat="43.278101289789035" lon="11.45839446168989"><ele>258.0</ele><time>2026-04-26T14:43:22Z</time></trkpt><trkpt lat="43.27800824526914" lon="11.458174882793097"><ele>257.3333333333333</ele><time>2026-04-26T14:43:23Z</time></trkpt><trkpt lat="43.277932002066066" lon="11.457949537276072"><ele>256.66666666666663</ele><time>2026-04-26T14:43:24Z</time></trkpt><trkpt lat="43.27786607904478" lon="11.45771606609144"><ele>256.0</ele><time>2026-04-26T14:43:25Z</time></trkpt><trkpt lat="43.27778071409852" lon="11.457498672574856"><ele>256.0</ele><time>2026-04-26T14:43:26Z</time></trkpt><trkpt lat="43.277741386177325" lon="11.457265591253552"><ele>256.0</ele><time>2026-04-26T14:43:27Z</time></trkpt><trkpt lat="43.27775237056165" lon="11.457034798873508"><ele>256.0</ele><time>2026-04-26T14:43:28Z</time></trkpt><trkpt lat="43.27777065383023" lon="11.456803756697362"><ele>255.0</ele><time>2026-04-26T14:43:29Z</time></trkpt><trkpt lat="43.27780946081084" lon="11.456562554356369"><ele>254.0</ele><time>2026-04-26T14:43:30Z</time></trkpt><trkpt lat="43.277882491679826" lon="11.456316324000118"><ele>253.0</ele><time>2026-04-26T14:43:31Z</time></trkpt><trkpt lat="43.27797026221754" lon="11.456059703351942"><ele>252.66666666666666</ele><time>2026-04-26T14:43:32Z</time></trkpt><trkpt lat="43.27804891289151" lon="11.455798012446934"><ele>252.33333333333331</ele><time>2026-04-26T14:43:33Z</time></trkpt><trkpt lat="43.27814539692477" lon="11.455534319907766"><ele>252.0</ele><time>2026-04-26T14:43:34Z</time></trkpt><trkpt lat="43.27824736186746" lon="11.45527828019513"><ele>247.0</ele><time>2026-04-26T14:43:35Z</time></trkpt><trkpt lat="43.2783869904033" lon="11.45506485363486"><ele>242.0</ele><time>2026-04-26T14:43:36Z</time></trkpt><trkpt lat="43.27853172190598" lon="11.45485205910458"><ele>237.0</ele><time>2026-04-26T14:43:37Z</time></trkpt><trkpt lat="43.278679196958265" lon="11.454637726293058"><ele>236.33333333333331</ele><time>2026-04-26T14:43:38Z</time></trkpt><trkpt lat="43.27882120464661" lon="11.454421971262358"><ele>235.66666666666666</ele><time>2026-04-26T14:43:39Z</time></trkpt><trkpt lat="43.278949297574776" lon="11.454203194333807"><ele>235.0</ele><time>2026-04-26T14:43:40Z</time></trkpt><trkpt lat="43.27905721315014" lon="11.453979703711967"><ele>235.66666666666666</ele><time>2026-04-26T14:43:41Z</time></trkpt><trkpt lat="43.279151992451794" lon="11.453778097806689"><ele>236.33333333333331</ele><time>2026-04-26T14:43:42Z</time></trkpt><trkpt lat="43.27919735464832" lon="11.453550418136334"><ele>237.0</ele><time>2026-04-26T14:43:43Z</time></trkpt><trkpt lat="43.27918672144176" lon="11.45331254151255"><ele>237.0</ele><time>2026-04-26T14:43:44Z</time></trkpt><trkpt lat="43.27917751290834" lon="11.45306986146854"><ele>237.0</ele><time>2026-04-26T14:43:45Z</time></trkpt><trkpt lat="43.279157751926306" lon="11.45283424980053"><ele>237.0</ele><time>2026-04-26T14:43:46Z</time></trkpt><trkpt lat="43.27914183051934" lon="11.452602939666374"><ele>236.66666666666669</ele><time>2026-04-26T14:43:47Z</time></trkpt><trkpt lat="43.27914579190267" lon="11.45239131637641"><ele>236.33333333333334</ele><time>2026-04-26T14:43:48Z</time></trkpt><trkpt lat="43.27916438020124" lon="11.452165215210648"><ele>236.0</ele><time>2026-04-26T14:43:49Z</time></trkpt><trkpt lat="43.27916987519193" lon="11.451919349913902"><ele>235.33333333333334</ele><time>2026-04-26T14:43:50Z</time></trkpt><trkpt lat="43.27920916550779" lon="11.451668154162162"><ele>234.66666666666669</ele><time>2026-04-26T14:43:51Z</time></trkpt><trkpt lat="43.279233025007194" lon="11.451405263601758"><ele>234.0</ele><time>2026-04-26T14:43:51.999Z</time></trkpt><trkpt lat="43.279273160296796" lon="11.451143444876251"><ele>232.0</ele><time>2026-04-26T14:43:52.999Z</time></trkpt><trkpt lat="43.2793612203159" lon="11.450904837235518"><ele>230.0</ele><time>2026-04-26T14:43:53.999Z</time></trkpt><trkpt lat="43.27945781693435" lon="11.450687435804149"><ele>228.0</ele><time>2026-04-26T14:43:54.999Z</time></trkpt><trkpt lat="43.279536665643136" lon="11.45045576497059"><ele>227.0</ele><time>2026-04-26T14:43:55.999Z</time></trkpt><trkpt lat="43.279556708073855" lon="11.450216528695417"><ele>226.0</ele><time>2026-04-26T14:43:56.999Z</time></trkpt><trkpt lat="43.27958862451207" lon="11.449978734519794"><ele>225.0</ele><time>2026-04-26T14:43:57.999Z</time></trkpt><trkpt lat="43.27960102101258" lon="11.449740654712132"><ele>226.33333333333331</ele><time>2026-04-26T14:43:58.999Z</time></trkpt><trkpt lat="43.27961710807283" lon="11.449518633872607"><ele>227.66666666666666</ele><time>2026-04-26T14:43:59.999Z</time></trkpt><trkpt lat="43.27965109025856" lon="11.449315886488215"><ele>229.0</ele><time>2026-04-26T14:44:00.999Z</time></trkpt><trkpt lat="43.279727942312384" lon="11.449145805055359"><ele>228.33333333333331</ele><time>2026-04-26T14:44:01.999Z</time></trkpt><trkpt lat="43.27983128212645" lon="11.448987365772329"><ele>227.66666666666669</ele><time>2026-04-26T14:44:02.999Z</time></trkpt><trkpt lat="43.27995478974906" lon="11.44885783476683"><ele>227.0</ele><time>2026-04-26T14:44:03.999Z</time></trkpt><trkpt lat="43.28009044319408" lon="11.44875694812114"><ele>228.75</ele><time>2026-04-26T14:44:04.999Z</time></trkpt><trkpt lat="43.280221990149094" lon="11.448658813498481"><ele>230.5</ele><time>2026-04-26T14:44:05.999Z</time></trkpt><trkpt lat="43.2803273806686" lon="11.448538194287973"><ele>232.25</ele><time>2026-04-26T14:44:06.999Z</time></trkpt><trkpt lat="43.28039829389989" lon="11.448398448472986"><ele>234.0</ele><time>2026-04-26T14:44:07.999Z</time></trkpt><trkpt lat="43.280446296469485" lon="11.448227472691203"><ele>234.0</ele><time>2026-04-26T14:44:08.999Z</time></trkpt><trkpt lat="43.28046962814125" lon="11.44803221078742"><ele>234.0</ele><time>2026-04-26T14:44:09.999Z</time></trkpt><trkpt lat="43.2804533861164" lon="11.447821083956008"><ele>234.0</ele><time>2026-04-26T14:44:10.999Z</time></trkpt><trkpt lat="43.28046235950008" lon="11.447600598100417"><ele>234.0</ele><time>2026-04-26T14:44:11.999Z</time></trkpt><trkpt lat="43.28045304630545" lon="11.447371340054424"><ele>234.0</ele><time>2026-04-26T14:44:12.999Z</time></trkpt><trkpt lat="43.28044338395872" lon="11.447133487073357"><ele>234.0</ele><time>2026-04-26T14:44:13.999Z</time></trkpt><trkpt lat="43.28043351277889" lon="11.4468904931818"><ele>231.0</ele><time>2026-04-26T14:44:14.999Z</time></trkpt><trkpt lat="43.28042449412617" lon="11.446636266279837"><ele>228.0</ele><time>2026-04-26T14:44:15.999Z</time></trkpt><trkpt lat="43.280401808541804" lon="11.446397912695112"><ele>225.0</ele><time>2026-04-26T14:44:16.999Z</time></trkpt><trkpt lat="43.28041435521916" lon="11.446194698879573"><ele>223.33333333333331</ele><time>2026-04-26T14:44:17.999Z</time></trkpt><trkpt lat="43.28049374881548" lon="11.44602030247614"><ele>221.66666666666666</ele><time>2026-04-26T14:44:18.999Z</time></trkpt><trkpt lat="43.280607616443575" lon="11.445895283454618"><ele>220.0</ele><time>2026-04-26T14:44:19.999Z</time></trkpt><trkpt lat="43.280739508184226" lon="11.445760815270974"><ele>220.0</ele><time>2026-04-26T14:44:20.999Z</time></trkpt><trkpt lat="43.280862904997704" lon="11.445596441257607"><ele>220.0</ele><time>2026-04-26T14:44:21.999Z</time></trkpt><trkpt lat="43.28097631454455" lon="11.445408295427113"><ele>220.0</ele><time>2026-04-26T14:44:22.999Z</time></trkpt><trkpt lat="43.281089030139846" lon="11.4451970956447"><ele>218.66666666666666</ele><time>2026-04-26T14:44:23.999Z</time></trkpt><trkpt lat="43.281182821855445" lon="11.444955072490941"><ele>217.33333333333331</ele><time>2026-04-26T14:44:24.999Z</time></trkpt><trkpt lat="43.28127600708305" lon="11.444703132257704"><ele>216.0</ele><time>2026-04-26T14:44:25.999Z</time></trkpt><trkpt lat="43.281370425853844" lon="11.444447658529315"><ele>213.0</ele><time>2026-04-26T14:44:26.999Z</time></trkpt><trkpt lat="43.28146228380072" lon="11.444201705259895"><ele>210.0</ele><time>2026-04-26T14:44:27.999Z</time></trkpt><trkpt lat="43.28155584518515" lon="11.443959691704096"><ele>207.0</ele><time>2026-04-26T14:44:28.999Z</time></trkpt><trkpt lat="43.28165168296264" lon="11.443724999296604"><ele>207.0</ele><time>2026-04-26T14:44:29.999Z</time></trkpt><trkpt lat="43.28175073072145" lon="11.443502753033947"><ele>207.0</ele><time>2026-04-26T14:44:30.999Z</time></trkpt><trkpt lat="43.281859417748144" lon="11.443321878843465"><ele>207.0</ele><time>2026-04-26T14:44:31.999Z</time></trkpt><trkpt lat="43.2819846590212" lon="11.443147992716426"><ele>207.0</ele><time>2026-04-26T14:44:32.999Z</time></trkpt><trkpt lat="43.28211520961645" lon="11.442971864385756"><ele>207.0</ele><time>2026-04-26T14:44:33.999Z</time></trkpt><trkpt lat="43.28227661731358" lon="11.442750004746358"><ele>207.0</ele><time>2026-04-26T14:44:34.999Z</time></trkpt><trkpt lat="43.28240120393592" lon="11.442575631018524"><ele>202.66666666666669</ele><time>2026-04-26T14:44:35.999Z</time></trkpt><trkpt lat="43.28254310827138" lon="11.442377019061501"><ele>198.33333333333334</ele><time>2026-04-26T14:44:36.999Z</time></trkpt><trkpt lat="43.2826744097568" lon="11.44219311357643"><ele>194.0</ele><time>2026-04-26T14:44:37.999Z</time></trkpt><trkpt lat="43.28280773733355" lon="11.442013185862544"><ele>194.0</ele><time>2026-04-26T14:44:38.999Z</time></trkpt><trkpt lat="43.28294040547574" lon="11.441834535504"><ele>194.0</ele><time>2026-04-26T14:44:39.999Z</time></trkpt><trkpt lat="43.283111525231774" lon="11.441722454566381"><ele>194.0</ele><time>2026-04-26T14:44:40.999Z</time></trkpt><trkpt lat="43.28329542511557" lon="11.441626514987256"><ele>190.33333333333334</ele><time>2026-04-26T14:44:41.999Z</time></trkpt><trkpt lat="43.283487975198106" lon="11.44153554689977"><ele>186.66666666666669</ele><time>2026-04-26T14:44:42.999Z</time></trkpt><trkpt lat="43.28368344267124" lon="11.441451739764233"><ele>183.0</ele><time>2026-04-26T14:44:43.999Z</time></trkpt><trkpt lat="43.283882790115136" lon="11.441367530018193"><ele>182.66666666666666</ele><time>2026-04-26T14:44:44.999Z</time></trkpt><trkpt lat="43.284078376651976" lon="11.441282305189528"><ele>182.33333333333331</ele><time>2026-04-26T14:44:45.999Z</time></trkpt><trkpt lat="43.28426366898364" lon="11.44120108607748"><ele>182.0</ele><time>2026-04-26T14:44:46.999Z</time></trkpt><trkpt lat="43.28442916718217" lon="11.441107907636285"><ele>182.0</ele><time>2026-04-26T14:44:47.999Z</time></trkpt><trkpt lat="43.28456035457653" lon="11.441002783229148"><ele>182.0</ele><time>2026-04-26T14:44:48.999Z</time></trkpt><trkpt lat="43.28465353919025" lon="11.440878562940432"><ele>182.0</ele><time>2026-04-26T14:44:49.999Z</time></trkpt><trkpt lat="43.28469869659452" lon="11.440732559026776"><ele>182.0</ele><time>2026-04-26T14:44:50.998Z</time></trkpt><trkpt lat="43.28466858554609" lon="11.440554103089042"><ele>181.75</ele><time>2026-04-26T14:44:51.998Z</time></trkpt><trkpt lat="43.284665441220646" lon="11.440374593966014"><ele>181.5</ele><time>2026-04-26T14:44:52.998Z</time></trkpt><trkpt lat="43.284650942310115" lon="11.440189706967285"><ele>181.25</ele><time>2026-04-26T14:44:53.998Z</time></trkpt><trkpt lat="43.28463560433394" lon="11.439982765163158"><ele>181.0</ele><time>2026-04-26T14:44:54.998Z</time></trkpt><trkpt lat="43.284619278418575" lon="11.439762493651816"><ele>181.0</ele><time>2026-04-26T14:44:55.998Z</time></trkpt><trkpt lat="43.2846026358467" lon="11.439532075627971"><ele>181.0</ele><time>2026-04-26T14:44:56.998Z</time></trkpt><trkpt lat="43.284586604760314" lon="11.43928968905333"><ele>181.0</ele><time>2026-04-26T14:44:57.998Z</time></trkpt><trkpt lat="43.28458089406258" lon="11.439056144396487"><ele>181.0</ele><time>2026-04-26T14:44:58.998Z</time></trkpt><trkpt lat="43.28461795215666" lon="11.438865923106732"><ele>181.0</ele><time>2026-04-26T14:44:59.998Z</time></trkpt><trkpt lat="43.28467631471919" lon="11.438674461231345"><ele>181.0</ele><time>2026-04-26T14:45:00.998Z</time></trkpt><trkpt lat="43.28474629127196" lon="11.438469379005182"><ele>181.33333333333334</ele><time>2026-04-26T14:45:01.998Z</time></trkpt><trkpt lat="43.28481888938575" lon="11.438256613622086"><ele>181.66666666666666</ele><time>2026-04-26T14:45:03Z</time></trkpt><trkpt lat="43.28489492824651" lon="11.438038464770582"><ele>182.0</ele><time>2026-04-26T14:45:04Z</time></trkpt><trkpt lat="43.284973267533886" lon="11.437814611174804"><ele>182.0</ele><time>2026-04-26T14:45:05Z</time></trkpt><trkpt lat="43.28505416397082" lon="11.437583449872555"><ele>182.0</ele><time>2026-04-26T14:45:06Z</time></trkpt><trkpt lat="43.28513848351905" lon="11.437340088428504"><ele>182.0</ele><time>2026-04-26T14:45:07Z</time></trkpt><trkpt lat="43.28522400737198" lon="11.437093759977975"><ele>181.66666666666666</ele><time>2026-04-26T14:45:08Z</time></trkpt><trkpt lat="43.28531042491297" lon="11.436846406515643"><ele>181.33333333333334</ele><time>2026-04-26T14:45:09Z</time></trkpt><trkpt lat="43.28539457824461" lon="11.436606588323594"><ele>181.0</ele><time>2026-04-26T14:45:10Z</time></trkpt><trkpt lat="43.28547888561988" lon="11.436366754711415"><ele>181.0</ele><time>2026-04-26T14:45:11Z</time></trkpt><trkpt lat="43.28556202669779" lon="11.436130238959215"><ele>181.0</ele><time>2026-04-26T14:45:12Z</time></trkpt><trkpt lat="43.28564439392577" lon="11.435895923289362"><ele>181.0</ele><time>2026-04-26T14:45:13Z</time></trkpt><trkpt lat="43.28572058996597" lon="11.435663717917015"><ele>180.66666666666669</ele><time>2026-04-26T14:45:14Z</time></trkpt><trkpt lat="43.28577704909231" lon="11.435412754399085"><ele>180.33333333333334</ele><time>2026-04-26T14:45:15Z</time></trkpt><trkpt lat="43.285811759901385" lon="11.435153030591367"><ele>180.0</ele><time>2026-04-26T14:45:16Z</time></trkpt><trkpt lat="43.28583027726269" lon="11.434888839439042"><ele>180.0</ele><time>2026-04-26T14:45:17Z</time></trkpt><trkpt lat="43.28582937063792" lon="11.434627406254636"><ele>180.0</ele><time>2026-04-26T14:45:18Z</time></trkpt><trkpt lat="43.28581655145101" lon="11.434382324415212"><ele>180.0</ele><time>2026-04-26T14:45:19Z</time></trkpt><trkpt lat="43.28585027888968" lon="11.434142867215982"><ele>180.0</ele><time>2026-04-26T14:45:20Z</time></trkpt><trkpt lat="43.285910185919604" lon="11.433896074166038"><ele>180.0</ele><time>2026-04-26T14:45:21Z</time></trkpt><trkpt lat="43.28597748625535" lon="11.433649618687033"><ele>180.0</ele><time>2026-04-26T14:45:22Z</time></trkpt><trkpt lat="43.2860463385137" lon="11.433401002816366"><ele>180.0</ele><time>2026-04-26T14:45:23Z</time></trkpt><trkpt lat="43.28611597174816" lon="11.433148111424464"><ele>180.0</ele><time>2026-04-26T14:45:24Z</time></trkpt><trkpt lat="43.28618582491537" lon="11.432889270104488"><ele>180.0</ele><time>2026-04-26T14:45:25Z</time></trkpt><trkpt lat="43.28625738160618" lon="11.432624116250386"><ele>180.33333333333334</ele><time>2026-04-26T14:45:26Z</time></trkpt><trkpt lat="43.28632974317059" lon="11.4323552367147"><ele>180.66666666666669</ele><time>2026-04-26T14:45:27Z</time></trkpt><trkpt lat="43.286398533880245" lon="11.432094895440404"><ele>181.0</ele><time>2026-04-26T14:45:28Z</time></trkpt><trkpt lat="43.286466022423056" lon="11.431834819336459"><ele>181.0</ele><time>2026-04-26T14:45:29Z</time></trkpt><trkpt lat="43.28653220551418" lon="11.431577022947609"><ele>181.0</ele><time>2026-04-26T14:45:30Z</time></trkpt><trkpt lat="43.286602150554714" lon="11.431321256836615"><ele>181.0</ele><time>2026-04-26T14:45:31Z</time></trkpt><trkpt lat="43.286697984480725" lon="11.431086884331513"><ele>181.33333333333334</ele><time>2026-04-26T14:45:32Z</time></trkpt><trkpt lat="43.286810785576186" lon="11.430860403123452"><ele>181.66666666666666</ele><time>2026-04-26T14:45:33Z</time></trkpt><trkpt lat="43.28693526059483" lon="11.430633165897053"><ele>182.0</ele><time>2026-04-26T14:45:34Z</time></trkpt><trkpt lat="43.28704713083773" lon="11.430399258974006"><ele>182.33333333333331</ele><time>2026-04-26T14:45:35Z</time></trkpt><trkpt lat="43.28717349038595" lon="11.430187790512091"><ele>182.66666666666666</ele><time>2026-04-26T14:45:36Z</time></trkpt><trkpt lat="43.28729711628978" lon="11.429974742572334"><ele>183.0</ele><time>2026-04-26T14:45:37Z</time></trkpt><trkpt lat="43.287385655234026" lon="11.429740601491792"><ele>184.33333333333334</ele><time>2026-04-26T14:45:38Z</time></trkpt><trkpt lat="43.28745521373228" lon="11.42947843922298"><ele>185.66666666666669</ele><time>2026-04-26T14:45:39Z</time></trkpt><trkpt lat="43.287489631434205" lon="11.429221009865742"><ele>187.0</ele><time>2026-04-26T14:45:40Z</time></trkpt><trkpt lat="43.287500581831154" lon="11.428958468174685"><ele>188.0</ele><time>2026-04-26T14:45:41Z</time></trkpt><trkpt lat="43.287524053716574" lon="11.428683954311039"><ele>189.0</ele><time>2026-04-26T14:45:42Z</time></trkpt><trkpt lat="43.287537886576395" lon="11.428423126605889"><ele>190.0</ele><time>2026-04-26T14:45:43Z</time></trkpt><trkpt lat="43.28755200798082" lon="11.428165124742335"><ele>190.0</ele><time>2026-04-26T14:45:44Z</time></trkpt><trkpt lat="43.28757519838993" lon="11.427938722125598"><ele>190.0</ele><time>2026-04-26T14:45:45Z</time></trkpt><trkpt lat="43.287638182485075" lon="11.427723511593618"><ele>190.0</ele><time>2026-04-26T14:45:46Z</time></trkpt><trkpt lat="43.28774198973172" lon="11.427552438885131"><ele>190.0</ele><time>2026-04-26T14:45:47Z</time></trkpt><trkpt lat="43.28787475180427" lon="11.427393592620199"><ele>190.0</ele><time>2026-04-26T14:45:48Z</time></trkpt><trkpt lat="43.2880142644536" lon="11.427233575586232"><ele>190.0</ele><time>2026-04-26T14:45:49Z</time></trkpt><trkpt lat="43.28815314063002" lon="11.427073641478406"><ele>189.66666666666669</ele><time>2026-04-26T14:45:50Z</time></trkpt><trkpt lat="43.28829266989998" lon="11.426911481880277"><ele>189.33333333333334</ele><time>2026-04-26T14:45:51Z</time></trkpt><trkpt lat="43.28843451845589" lon="11.426748944119344"><ele>189.0</ele><time>2026-04-26T14:45:52Z</time></trkpt><trkpt lat="43.28857505693167" lon="11.426585358353766"><ele>189.0</ele><time>2026-04-26T14:45:53Z</time></trkpt><trkpt lat="43.28870455353177" lon="11.426414830553716"><ele>189.0</ele><time>2026-04-26T14:45:54Z</time></trkpt><trkpt lat="43.28879772616339" lon="11.42622708696443"><ele>189.0</ele><time>2026-04-26T14:45:55Z</time></trkpt><trkpt lat="43.28882312578894" lon="11.426004837851853"><ele>190.33333333333331</ele><time>2026-04-26T14:45:56Z</time></trkpt><trkpt lat="43.28881771571307" lon="11.425793246185915"><ele>191.66666666666666</ele><time>2026-04-26T14:45:57Z</time></trkpt><trkpt lat="43.28879820184807" lon="11.42558450772493"><ele>193.0</ele><time>2026-04-26T14:45:58Z</time></trkpt><trkpt lat="43.2887797625605" lon="11.42536944006668"><ele>194.66666666666666</ele><time>2026-04-26T14:45:58.999Z</time></trkpt><trkpt lat="43.28869682416166" lon="11.425170455570703"><ele>196.33333333333331</ele><time>2026-04-26T14:45:59.999Z</time></trkpt><trkpt lat="43.28866994088571" lon="11.424956298186599"><ele>198.0</ele><time>2026-04-26T14:46:00.999Z</time></trkpt><trkpt lat="43.28864027798192" lon="11.424740102332203"><ele>200.33333333333331</ele><time>2026-04-26T14:46:01.999Z</time></trkpt><trkpt lat="43.28860155803595" lon="11.424523102001585"><ele>202.66666666666666</ele><time>2026-04-26T14:46:02.999Z</time></trkpt><trkpt lat="43.288559895857496" lon="11.424301321317277"><ele>205.0</ele><time>2026-04-26T14:46:03.999Z</time></trkpt><trkpt lat="43.28852120418974" lon="11.424084642505168"><ele>205.0</ele><time>2026-04-26T14:46:04.999Z</time></trkpt><trkpt lat="43.28848130879943" lon="11.42387157197517"><ele>205.0</ele><time>2026-04-26T14:46:05.999Z</time></trkpt><trkpt lat="43.28845527488009" lon="11.423662178306822"><ele>205.0</ele><time>2026-04-26T14:46:06.999Z</time></trkpt><trkpt lat="43.288475530601424" lon="11.423459812904706"><ele>207.0</ele><time>2026-04-26T14:46:07.999Z</time></trkpt><trkpt lat="43.288542394182514" lon="11.423282717094745"><ele>209.0</ele><time>2026-04-26T14:46:08.999Z</time></trkpt><trkpt lat="43.28864729499446" lon="11.423139959003967"><ele>211.0</ele><time>2026-04-26T14:46:09.999Z</time></trkpt><trkpt lat="43.28876345280257" lon="11.423015136127374"><ele>213.0</ele><time>2026-04-26T14:46:10.999Z</time></trkpt><trkpt lat="43.288877040435366" lon="11.422879113784939"><ele>214.0</ele><time>2026-04-26T14:46:11.999Z</time></trkpt><trkpt lat="43.28898908435375" lon="11.422730943245767"><ele>215.0</ele><time>2026-04-26T14:46:12.999Z</time></trkpt><trkpt lat="43.28910973469151" lon="11.4225570748489"><ele>216.0</ele><time>2026-04-26T14:46:13.999Z</time></trkpt><trkpt lat="43.289236812846305" lon="11.422363846606286"><ele>216.0</ele><time>2026-04-26T14:46:14.999Z</time></trkpt><trkpt lat="43.28936841868015" lon="11.422155645343686"><ele>216.0</ele><time>2026-04-26T14:46:15.999Z</time></trkpt><trkpt lat="43.289498198279055" lon="11.421943473409385"><ele>216.0</ele><time>2026-04-26T14:46:16.999Z</time></trkpt><trkpt lat="43.2896291664408" lon="11.421718901379029"><ele>215.33333333333331</ele><time>2026-04-26T14:46:17.999Z</time></trkpt><trkpt lat="43.28975821446844" lon="11.421488526160962"><ele>214.66666666666666</ele><time>2026-04-26T14:46:18.999Z</time></trkpt><trkpt lat="43.28988729287822" lon="11.42125765621227"><ele>214.0</ele><time>2026-04-26T14:46:19.999Z</time></trkpt><trkpt lat="43.29001375147099" lon="11.421030308088687"><ele>211.0</ele><time>2026-04-26T14:46:20.999Z</time></trkpt><trkpt lat="43.290143733641024" lon="11.420788661386483"><ele>208.0</ele><time>2026-04-26T14:46:21.999Z</time></trkpt><trkpt lat="43.290268484783155" lon="11.420540926719621"><ele>205.0</ele><time>2026-04-26T14:46:22.999Z</time></trkpt><trkpt lat="43.290382132512434" lon="11.420283470309045"><ele>205.33333333333331</ele><time>2026-04-26T14:46:23.999Z</time></trkpt><trkpt lat="43.290495213604295" lon="11.42002076610889"><ele>205.66666666666669</ele><time>2026-04-26T14:46:24.999Z</time></trkpt><trkpt lat="43.29060676574524" lon="11.41975229982924"><ele>206.0</ele><time>2026-04-26T14:46:25.999Z</time></trkpt><trkpt lat="43.29071412711603" lon="11.419469992845908"><ele>203.5</ele><time>2026-04-26T14:46:26.999Z</time></trkpt><trkpt lat="43.29082404764735" lon="11.419177648566066"><ele>201.0</ele><time>2026-04-26T14:46:27.999Z</time></trkpt><trkpt lat="43.290943421979705" lon="11.418885694851065"><ele>199.0</ele><time>2026-04-26T14:46:28.999Z</time></trkpt><trkpt lat="43.29107321690648" lon="11.418596694688006"><ele>197.0</ele><time>2026-04-26T14:46:29.999Z</time></trkpt><trkpt lat="43.29120535188062" lon="11.418307834291364"><ele>197.0</ele><time>2026-04-26T14:46:30.999Z</time></trkpt><trkpt lat="43.29133780862603" lon="11.41801913482302"><ele>197.0</ele><time>2026-04-26T14:46:31.999Z</time></trkpt><trkpt lat="43.29146592996851" lon="11.417726950558169"><ele>198.5</ele><time>2026-04-26T14:46:32.999Z</time></trkpt><trkpt lat="43.29159283727143" lon="11.417435693003506"><ele>200.0</ele><time>2026-04-26T14:46:33.999Z</time></trkpt><trkpt lat="43.291719016391696" lon="11.41714847840215"><ele>201.5</ele><time>2026-04-26T14:46:34.999Z</time></trkpt><trkpt lat="43.291845219541365" lon="11.416860709356467"><ele>203.0</ele><time>2026-04-26T14:46:35.999Z</time></trkpt><trkpt lat="43.29196876818904" lon="11.416579622255805"><ele>206.5</ele><time>2026-04-26T14:46:36.999Z</time></trkpt><trkpt lat="43.292089360931264" lon="11.416307058059688"><ele>210.0</ele><time>2026-04-26T14:46:37.999Z</time></trkpt><trkpt lat="43.2922048121207" lon="11.416043532368235"><ele>210.0</ele><time>2026-04-26T14:46:38.999Z</time></trkpt><trkpt lat="43.29230211871633" lon="11.415794494819437"><ele>210.0</ele><time>2026-04-26T14:46:39.999Z</time></trkpt><trkpt lat="43.29236483574248" lon="11.41555273252468"><ele>210.0</ele><time>2026-04-26T14:46:40.999Z</time></trkpt><trkpt lat="43.29240390529747" lon="11.415319319388653"><ele>210.33333333333331</ele><time>2026-04-26T14:46:41.999Z</time></trkpt><trkpt lat="43.2924440109974" lon="11.415086909944584"><ele>210.66666666666666</ele><time>2026-04-26T14:46:42.999Z</time></trkpt><trkpt lat="43.29249666783893" lon="11.414857282401103"><ele>211.0</ele><time>2026-04-26T14:46:43.999Z</time></trkpt><trkpt lat="43.2925556423915" lon="11.414626473744887"><ele>209.33333333333331</ele><time>2026-04-26T14:46:44.999Z</time></trkpt><trkpt lat="43.292619588068156" lon="11.41439976754995"><ele>207.66666666666669</ele><time>2026-04-26T14:46:45.999Z</time></trkpt><trkpt lat="43.29268593720241" lon="11.414168632970618"><ele>206.0</ele><time>2026-04-26T14:46:46.999Z</time></trkpt><trkpt lat="43.29275655727746" lon="11.413927267449173"><ele>204.33333333333334</ele><time>2026-04-26T14:46:47.999Z</time></trkpt><trkpt lat="43.29283351483827" lon="11.413685260838841"><ele>202.66666666666669</ele><time>2026-04-26T14:46:48.999Z</time></trkpt><trkpt lat="43.29291916232729" lon="11.413448177076102"><ele>201.0</ele><time>2026-04-26T14:46:49.999Z</time></trkpt><trkpt lat="43.293004344772356" lon="11.413223318752387"><ele>201.0</ele><time>2026-04-26T14:46:50.999Z</time></trkpt><trkpt lat="43.293086709694286" lon="11.413014058804993"><ele>201.0</ele><time>2026-04-26T14:46:51.999Z</time></trkpt><trkpt lat="43.293166445875556" lon="11.412815799407332"><ele>201.0</ele><time>2026-04-26T14:46:52.999Z</time></trkpt><trkpt lat="43.29324621603482" lon="11.412626516324867"><ele>199.5</ele><time>2026-04-26T14:46:53.999Z</time></trkpt><trkpt lat="43.29332448071182" lon="11.412443663614003"><ele>198.0</ele><time>2026-04-26T14:46:54.999Z</time></trkpt><trkpt lat="43.29339212240813" lon="11.41227068529394"><ele>196.5</ele><time>2026-04-26T14:46:55.999Z</time></trkpt><trkpt lat="43.293453184279535" lon="11.412102307913917"><ele>195.0</ele><time>2026-04-26T14:46:56.998Z</time></trkpt><trkpt lat="43.2935112097397" lon="11.411949406560218"><ele>194.4</ele><time>2026-04-26T14:46:57.998Z</time></trkpt><trkpt lat="43.2935662367525" lon="11.411814712448738"><ele>193.8</ele><time>2026-04-26T14:46:58.998Z</time></trkpt><trkpt lat="43.293621742996244" lon="11.411699984003192"><ele>193.2</ele><time>2026-04-26T14:46:59.998Z</time></trkpt><trkpt lat="43.29367944809167" lon="11.411597605671998"><ele>192.6</ele><time>2026-04-26T14:47:00.998Z</time></trkpt><trkpt lat="43.29374057224605" lon="11.411509950471261"><ele>192.0</ele><time>2026-04-26T14:47:01.998Z</time></trkpt><trkpt lat="43.293796015986246" lon="11.411439173020389"><ele>192.0</ele><time>2026-04-26T14:47:02.998Z</time></trkpt><trkpt lat="43.29384824459513" lon="11.411383799204822"><ele>192.0</ele><time>2026-04-26T14:47:03.998Z</time></trkpt><trkpt lat="43.293906927222444" lon="11.411348063387756"><ele>192.0</ele><time>2026-04-26T14:47:04.998Z</time></trkpt><trkpt lat="43.29400952221444" lon="11.411297162892135"><ele>192.0</ele><time>2026-04-26T14:47:06.998Z</time></trkpt><trkpt lat="43.294060729418426" lon="11.411174146677899"><ele>192.0</ele><time>2026-04-26T14:47:09Z</time></trkpt><trkpt lat="43.29403150511214" lon="11.411006109441566"><ele>191.66666666666666</ele><time>2026-04-26T14:47:11Z</time></trkpt><trkpt lat="43.29404468047958" lon="11.410907889440068"><ele>191.33333333333334</ele><time>2026-04-26T14:47:12Z</time></trkpt><trkpt lat="43.29407340383848" lon="11.41080855417018"><ele>191.0</ele><time>2026-04-26T14:47:13Z</time></trkpt><trkpt lat="43.2941116015573" lon="11.410700083319899"><ele>190.66666666666669</ele><time>2026-04-26T14:47:14Z</time></trkpt><trkpt lat="43.29415552051895" lon="11.410593366828094"><ele>190.33333333333334</ele><time>2026-04-26T14:47:15Z</time></trkpt><trkpt lat="43.2942031975414" lon="11.41048536957871"><ele>190.0</ele><time>2026-04-26T14:47:16Z</time></trkpt><trkpt lat="43.29424942571943" lon="11.410372794234132"><ele>189.8</ele><time>2026-04-26T14:47:17Z</time></trkpt><trkpt lat="43.29429801257" lon="11.410256615657067"><ele>189.6</ele><time>2026-04-26T14:47:18Z</time></trkpt><trkpt lat="43.29435784270605" lon="11.410141046629173"><ele>189.39999999999998</ele><time>2026-04-26T14:47:19Z</time></trkpt><trkpt lat="43.29441385160976" lon="11.410020542758323"><ele>189.2</ele><time>2026-04-26T14:47:20Z</time></trkpt><trkpt lat="43.29446638917101" lon="11.409892556282973"><ele>189.0</ele><time>2026-04-26T14:47:21Z</time></trkpt><trkpt lat="43.294522291065896" lon="11.409762231899606"><ele>188.79999999999998</ele><time>2026-04-26T14:47:22Z</time></trkpt><trkpt lat="43.29457898015317" lon="11.409627150894964"><ele>188.6</ele><time>2026-04-26T14:47:23Z</time></trkpt><trkpt lat="43.29463337267803" lon="11.409488987922401"><ele>188.4</ele><time>2026-04-26T14:47:24Z</time></trkpt><trkpt lat="43.29468262513079" lon="11.409364134822832"><ele>188.2</ele><time>2026-04-26T14:47:25Z</time></trkpt><trkpt lat="43.294728875973924" lon="11.409257606918828"><ele>188.0</ele><time>2026-04-26T14:47:26Z</time></trkpt><trkpt lat="43.29477692901995" lon="11.409160886655561"><ele>188.0</ele><time>2026-04-26T14:47:27Z</time></trkpt><trkpt lat="43.294826212368555" lon="11.409058703881685"><ele>188.0</ele><time>2026-04-26T14:47:28Z</time></trkpt><trkpt lat="43.29487666028837" lon="11.408942976385744"><ele>188.0</ele><time>2026-04-26T14:47:29Z</time></trkpt><trkpt lat="43.294923535984346" lon="11.408818617643076"><ele>188.0</ele><time>2026-04-26T14:47:30Z</time></trkpt><trkpt lat="43.29497335207812" lon="11.408699493285003"><ele>188.0</ele><time>2026-04-26T14:47:31Z</time></trkpt><trkpt lat="43.29502052055833" lon="11.40858697060312"><ele>187.83333333333331</ele><time>2026-04-26T14:47:32Z</time></trkpt><trkpt lat="43.295065945138305" lon="11.40848087453077"><ele>187.66666666666666</ele><time>2026-04-26T14:47:33Z</time></trkpt><trkpt lat="43.29510840751399" lon="11.408377652421237"><ele>187.5</ele><time>2026-04-26T14:47:34Z</time></trkpt><trkpt lat="43.29515303910678" lon="11.408283418553399"><ele>187.33333333333334</ele><time>2026-04-26T14:47:35Z</time></trkpt><trkpt lat="43.29519173105875" lon="11.408195159123894"><ele>187.16666666666669</ele><time>2026-04-26T14:47:36Z</time></trkpt><trkpt lat="43.29522821677356" lon="11.408111965691754"><ele>187.0</ele><time>2026-04-26T14:47:37Z</time></trkpt><trkpt lat="43.295263202609846" lon="11.40802544343806"><ele>186.66666666666669</ele><time>2026-04-26T14:47:38Z</time></trkpt><trkpt lat="43.29530166088613" lon="11.407939264497625"><ele>186.33333333333334</ele><time>2026-04-26T14:47:39Z</time></trkpt><trkpt lat="43.2953463180888" lon="11.407853730095423"><ele>186.0</ele><time>2026-04-26T14:47:40Z</time></trkpt><trkpt lat="43.29539514183595" lon="11.407754702797943"><ele>185.66666666666666</ele><time>2026-04-26T14:47:41Z</time></trkpt><trkpt lat="43.295441225478974" lon="11.407641301102723"><ele>185.33333333333331</ele><time>2026-04-26T14:47:42Z</time></trkpt><trkpt lat="43.295487904263055" lon="11.407524839706833"><ele>185.0</ele><time>2026-04-26T14:47:43Z</time></trkpt><trkpt lat="43.295532909534934" lon="11.407412151236743"><ele>185.0</ele><time>2026-04-26T14:47:44Z</time></trkpt><trkpt lat="43.29558214970647" lon="11.407302357300823"><ele>185.0</ele><time>2026-04-26T14:47:45Z</time></trkpt><trkpt lat="43.29565825382802" lon="11.407202127426457"><ele>185.0</ele><time>2026-04-26T14:47:46Z</time></trkpt><trkpt lat="43.295714596310894" lon="11.407072678266879"><ele>185.0</ele><time>2026-04-26T14:47:47Z</time></trkpt><trkpt lat="43.29577229081661" lon="11.406937857808115"><ele>185.0</ele><time>2026-04-26T14:47:48Z</time></trkpt><trkpt lat="43.29582710146323" lon="11.40680741939196"><ele>184.8</ele><time>2026-04-26T14:47:49Z</time></trkpt><trkpt lat="43.29586835870158" lon="11.406670821599866"><ele>184.6</ele><time>2026-04-26T14:47:50Z</time></trkpt><trkpt lat="43.295870493007165" lon="11.40655031659017"><ele>184.39999999999998</ele><time>2026-04-26T14:47:51Z</time></trkpt><trkpt lat="43.29588152508564" lon="11.406425819258745"><ele>184.2</ele><time>2026-04-26T14:47:53Z</time></trkpt><trkpt lat="43.29587732055351" lon="11.406333093870597"><ele>184.0</ele><time>2026-04-26T14:48:08.999Z</time></trkpt><trkpt lat="43.295829639961575" lon="11.406102559590254"><ele>183.6</ele><time>2026-04-26T14:49:44Z</time></trkpt><trkpt lat="43.29580977617266" lon="11.405908967843965"><ele>183.2</ele><time>2026-04-26T14:49:46Z</time></trkpt><trkpt lat="43.295795525330824" lon="11.405802136121444"><ele>182.79999999999998</ele><time>2026-04-26T14:49:47Z</time></trkpt><trkpt lat="43.295770437730425" lon="11.4056868658179"><ele>182.39999999999998</ele><time>2026-04-26T14:49:48Z</time></trkpt><trkpt lat="43.29573995630052" lon="11.405552993496324"><ele>182.0</ele><time>2026-04-26T14:49:49Z</time></trkpt><trkpt lat="43.2956917032471" lon="11.405421360981522"><ele>181.5</ele><time>2026-04-26T14:49:50Z</time></trkpt><trkpt lat="43.29562009515803" lon="11.40529430265818"><ele>181.0</ele><time>2026-04-26T14:49:51Z</time></trkpt><trkpt lat="43.29555830522991" lon="11.405153075596552"><ele>180.5</ele><time>2026-04-26T14:49:52Z</time></trkpt><trkpt lat="43.295503608977555" lon="11.404993195501472"><ele>180.0</ele><time>2026-04-26T14:49:53Z</time></trkpt><trkpt lat="43.29542212063316" lon="11.404855400008172"><ele>180.0</ele><time>2026-04-26T14:49:54Z</time></trkpt><trkpt lat="43.295353922722576" lon="11.404696819796255"><ele>180.0</ele><time>2026-04-26T14:49:55Z</time></trkpt><trkpt lat="43.29527866900083" lon="11.404530312127859"><ele>180.0</ele><time>2026-04-26T14:49:56Z</time></trkpt><trkpt lat="43.295201046264054" lon="11.404363973988028"><ele>180.0</ele><time>2026-04-26T14:49:57Z</time></trkpt><trkpt lat="43.29512575907087" lon="11.404191345056411"><ele>180.0</ele><time>2026-04-26T14:49:58Z</time></trkpt><trkpt lat="43.295050222599265" lon="11.404019870370437"><ele>180.0</ele><time>2026-04-26T14:49:59Z</time></trkpt><trkpt lat="43.29497968362125" lon="11.403847063133432"><ele>180.0</ele><time>2026-04-26T14:50:00Z</time></trkpt><trkpt lat="43.29490879437961" lon="11.403678336370378"><ele>180.0</ele><time>2026-04-26T14:50:01Z</time></trkpt><trkpt lat="43.29486945763998" lon="11.403506899767983"><ele>179.75</ele><time>2026-04-26T14:50:02Z</time></trkpt><trkpt lat="43.29485234963198" lon="11.403329516451203"><ele>179.5</ele><time>2026-04-26T14:50:03Z</time></trkpt><trkpt lat="43.294876434473025" lon="11.40317651658122"><ele>179.25</ele><time>2026-04-26T14:50:04Z</time></trkpt><trkpt lat="43.29494729092427" lon="11.403066705555833"><ele>179.0</ele><time>2026-04-26T14:50:04.999Z</time></trkpt><trkpt lat="43.29503276371529" lon="11.402977115379537"><ele>178.79999999999998</ele><time>2026-04-26T14:50:05.999Z</time></trkpt><trkpt lat="43.2951212858986" lon="11.40288829961128"><ele>178.6</ele><time>2026-04-26T14:50:06.999Z</time></trkpt><trkpt lat="43.295207718416634" lon="11.402791602715073"><ele>178.4</ele><time>2026-04-26T14:50:07.999Z</time></trkpt><trkpt lat="43.29528307176968" lon="11.40269927808896"><ele>178.2</ele><time>2026-04-26T14:50:08.999Z</time></trkpt><trkpt lat="43.295359139896185" lon="11.402612829272455"><ele>178.0</ele><time>2026-04-26T14:50:09.999Z</time></trkpt><trkpt lat="43.29543235503296" lon="11.402530323553496"><ele>178.0</ele><time>2026-04-26T14:50:10.999Z</time></trkpt><trkpt lat="43.295496811084305" lon="11.402455526530236"><ele>178.0</ele><time>2026-04-26T14:50:11.999Z</time></trkpt><trkpt lat="43.29555627487928" lon="11.402392307286265"><ele>178.0</ele><time>2026-04-26T14:50:12.999Z</time></trkpt><trkpt lat="43.295618870798656" lon="11.402344125978187"><ele>178.0</ele><time>2026-04-26T14:50:13.999Z</time></trkpt><trkpt lat="43.295690561145506" lon="11.402328148159642"><ele>178.0</ele><time>2026-04-26T14:50:14.999Z</time></trkpt><trkpt lat="43.29576812942308" lon="11.402342756839285"><ele>178.0</ele><time>2026-04-26T14:50:15.999Z</time></trkpt><trkpt lat="43.29584077782145" lon="11.402396946383607"><ele>178.60000000000002</ele><time>2026-04-26T14:50:16.999Z</time></trkpt><trkpt lat="43.29591550390152" lon="11.402463634482826"><ele>179.20000000000002</ele><time>2026-04-26T14:50:17.999Z</time></trkpt><trkpt lat="43.29600301410518" lon="11.402531972244264"><ele>179.8</ele><time>2026-04-26T14:50:18.999Z</time></trkpt><trkpt lat="43.29609455569304" lon="11.402595325816991"><ele>180.4</ele><time>2026-04-26T14:50:19.999Z</time></trkpt><trkpt lat="43.296188642907225" lon="11.40264974581878"><ele>181.0</ele><time>2026-04-26T14:50:20.999Z</time></trkpt><trkpt lat="43.29628476625253" lon="11.402696538820251"><ele>181.0</ele><time>2026-04-26T14:50:21.999Z</time></trkpt><trkpt lat="43.29638437618203" lon="11.402724647986117"><ele>181.0</ele><time>2026-04-26T14:50:22.999Z</time></trkpt><trkpt lat="43.29648823905054" lon="11.402735195658874"><ele>181.0</ele><time>2026-04-26T14:50:23.999Z</time></trkpt><trkpt lat="43.2965948533014" lon="11.402739164567333"><ele>181.0</ele><time>2026-04-26T14:50:24.999Z</time></trkpt><trkpt lat="43.29670854834249" lon="11.402743357616096"><ele>181.0</ele><time>2026-04-26T14:50:25.999Z</time></trkpt><trkpt lat="43.29682718524686" lon="11.402752811192986"><ele>181.0</ele><time>2026-04-26T14:50:26.999Z</time></trkpt><trkpt lat="43.29695095822885" lon="11.402765302038977"><ele>181.0</ele><time>2026-04-26T14:50:27.999Z</time></trkpt><trkpt lat="43.297079945735774" lon="11.402774104095013"><ele>181.0</ele><time>2026-04-26T14:50:28.999Z</time></trkpt><trkpt lat="43.29721335463292" lon="11.402776391361582"><ele>181.0</ele><time>2026-04-26T14:50:29.999Z</time></trkpt><trkpt lat="43.29734773479277" lon="11.402780839830722"><ele>181.0</ele><time>2026-04-26T14:50:30.999Z</time></trkpt><trkpt lat="43.297484096802236" lon="11.402785689785896"><ele>181.0</ele><time>2026-04-26T14:50:31.999Z</time></trkpt><trkpt lat="43.297624502283995" lon="11.40279286874199"><ele>181.0</ele><time>2026-04-26T14:50:32.999Z</time></trkpt><trkpt lat="43.29775500708365" lon="11.402817194983934"><ele>181.0</ele><time>2026-04-26T14:50:33.999Z</time></trkpt><trkpt lat="43.29788052850189" lon="11.40285801430543"><ele>181.0</ele><time>2026-04-26T14:50:34.999Z</time></trkpt><trkpt lat="43.29800062652039" lon="11.402919688935844"><ele>181.0</ele><time>2026-04-26T14:50:35.999Z</time></trkpt><trkpt lat="43.29810273534387" lon="11.403004553519473"><ele>181.0</ele><time>2026-04-26T14:50:36.999Z</time></trkpt><trkpt lat="43.29818259506272" lon="11.403102766204258"><ele>181.0</ele><time>2026-04-26T14:50:37.999Z</time></trkpt><trkpt lat="43.298248800778666" lon="11.403194872125562"><ele>181.0</ele><time>2026-04-26T14:50:38.999Z</time></trkpt><trkpt lat="43.298310122563706" lon="11.403263065037388"><ele>181.0</ele><time>2026-04-26T14:50:39.999Z</time></trkpt><trkpt lat="43.29837093588994" lon="11.403318430402969"><ele>181.0</ele><time>2026-04-26T14:50:40.999Z</time></trkpt><trkpt lat="43.2984577614499" lon="11.403305083073558"><ele>181.0</ele><time>2026-04-26T14:50:41.999Z</time></trkpt><trkpt lat="43.29854078008853" lon="11.403266504725375"><ele>181.0</ele><time>2026-04-26T14:50:42.999Z</time></trkpt><trkpt lat="43.2986288816895" lon="11.403205251774594"><ele>181.0</ele><time>2026-04-26T14:50:43.999Z</time></trkpt><trkpt lat="43.29872932745352" lon="11.403150360579348"><ele>181.0</ele><time>2026-04-26T14:50:44.999Z</time></trkpt><trkpt lat="43.2988444965946" lon="11.403117349903578"><ele>181.0</ele><time>2026-04-26T14:50:45.999Z</time></trkpt><trkpt lat="43.29896478877636" lon="11.403090749361061"><ele>181.0</ele><time>2026-04-26T14:50:46.999Z</time></trkpt><trkpt lat="43.29908993490144" lon="11.40305477768348"><ele>181.0</ele><time>2026-04-26T14:50:47.999Z</time></trkpt><trkpt lat="43.299219581585994" lon="11.403020738033787"><ele>181.5</ele><time>2026-04-26T14:50:48.999Z</time></trkpt><trkpt lat="43.299349302112844" lon="11.402981892123385"><ele>182.0</ele><time>2026-04-26T14:50:49.999Z</time></trkpt><trkpt lat="43.299483526275736" lon="11.402945227390042"><ele>182.5</ele><time>2026-04-26T14:50:50.999Z</time></trkpt><trkpt lat="43.29961590788979" lon="11.4029262486884"><ele>183.0</ele><time>2026-04-26T14:50:51.999Z</time></trkpt><trkpt lat="43.29975400995279" lon="11.40291838714837"><ele>183.25</ele><time>2026-04-26T14:50:52.999Z</time></trkpt><trkpt lat="43.29990040568884" lon="11.402933204784985"><ele>183.5</ele><time>2026-04-26T14:50:53.999Z</time></trkpt><trkpt lat="43.30004466849438" lon="11.402957853910129"><ele>183.75</ele><time>2026-04-26T14:50:54.999Z</time></trkpt><trkpt lat="43.300180869474836" lon="11.402985595355956"><ele>184.0</ele><time>2026-04-26T14:50:55.999Z</time></trkpt><trkpt lat="43.30031267154092" lon="11.403012291001396"><ele>184.79999999999998</ele><time>2026-04-26T14:50:56.999Z</time></trkpt><trkpt lat="43.30042389029239" lon="11.40303768085962"><ele>185.6</ele><time>2026-04-26T14:50:57.999Z</time></trkpt><trkpt lat="43.300512970738744" lon="11.403060807445733"><ele>186.4</ele><time>2026-04-26T14:50:58.999Z</time></trkpt><trkpt lat="43.30061161579368" lon="11.403103326167072"><ele>187.2</ele><time>2026-04-26T14:51:00.998Z</time></trkpt><trkpt lat="43.300683475986006" lon="11.403104881439237"><ele>188.0</ele><time>2026-04-26T14:51:10.998Z</time></trkpt><trkpt lat="43.300606606928945" lon="11.403090128797428"><ele>188.0</ele><time>2026-04-26T14:51:18.998Z</time></trkpt><trkpt lat="43.30051106875119" lon="11.40305299822202"><ele>188.0</ele><time>2026-04-26T14:51:21Z</time></trkpt><trkpt lat="43.30038907042331" lon="11.403104877704326"><ele>188.0</ele><time>2026-04-26T14:51:23Z</time></trkpt><trkpt lat="43.30033133291962" lon="11.403166655673513"><ele>188.0</ele><time>2026-04-26T14:51:24Z</time></trkpt><trkpt lat="43.30031629897444" lon="11.40331321927139"><ele>188.0</ele><time>2026-04-26T14:51:26Z</time></trkpt><trkpt lat="43.30032929288095" lon="11.403509558460405"><ele>188.0</ele><time>2026-04-26T14:51:28Z</time></trkpt><trkpt lat="43.30034348277751" lon="11.403630132214136"><ele>188.0</ele><time>2026-04-26T14:51:29Z</time></trkpt><trkpt lat="43.30034554269167" lon="11.403746696236608"><ele>188.0</ele><time>2026-04-26T14:51:30Z</time></trkpt><trkpt lat="43.300327056936965" lon="11.403873461870681"><ele>188.0</ele><time>2026-04-26T14:51:31Z</time></trkpt><trkpt lat="43.300232033601894" lon="11.403974792866352"><ele>188.0</ele><time>2026-04-26T14:51:32Z</time></trkpt><trkpt lat="43.30014438458768" lon="11.4040583617619"><ele>187.2</ele><time>2026-04-26T14:51:33Z</time></trkpt><trkpt lat="43.30004784410884" lon="11.404087218946426"><ele>186.4</ele><time>2026-04-26T14:51:34Z</time></trkpt><trkpt lat="43.29994699922747" lon="11.404069938122223"><ele>185.6</ele><time>2026-04-26T14:51:35Z</time></trkpt><trkpt lat="43.29985441720309" lon="11.404011089483301"><ele>184.79999999999998</ele><time>2026-04-26T14:51:36Z</time></trkpt><trkpt lat="43.299770261942484" lon="11.403902782831624"><ele>184.0</ele><time>2026-04-26T14:51:37Z</time></trkpt><trkpt lat="43.29969074828802" lon="11.403780299622346"><ele>183.75</ele><time>2026-04-26T14:51:38Z</time></trkpt><trkpt lat="43.29960892989197" lon="11.403649006493284"><ele>183.5</ele><time>2026-04-26T14:51:39Z</time></trkpt><trkpt lat="43.29951632520576" lon="11.40350748441088"><ele>183.25</ele><time>2026-04-26T14:51:40Z</time></trkpt><trkpt lat="43.29941449904775" lon="11.403355812762191"><ele>183.0</ele><time>2026-04-26T14:51:41Z</time></trkpt><trkpt lat="43.2993064221797" lon="11.403196810739251"><ele>183.0</ele><time>2026-04-26T14:51:42Z</time></trkpt><trkpt lat="43.29919487677982" lon="11.40303447357016"><ele>183.0</ele><time>2026-04-26T14:51:43Z</time></trkpt><trkpt lat="43.29908311772907" lon="11.402870483605554"><ele>183.0</ele><time>2026-04-26T14:51:44Z</time></trkpt><trkpt lat="43.29896440697636" lon="11.402698259897077"><ele>183.33333333333334</ele><time>2026-04-26T14:51:45Z</time></trkpt><trkpt lat="43.29884261373551" lon="11.402520921504482"><ele>183.66666666666669</ele><time>2026-04-26T14:51:46Z</time></trkpt><trkpt lat="43.298718147577766" lon="11.40233499745122"><ele>184.0</ele><time>2026-04-26T14:51:47Z</time></trkpt><trkpt lat="43.29858787955126" lon="11.402137616527563"><ele>186.33333333333334</ele><time>2026-04-26T14:51:48Z</time></trkpt><trkpt lat="43.29845106874914" lon="11.401930476271385"><ele>188.66666666666666</ele><time>2026-04-26T14:51:49Z</time></trkpt><trkpt lat="43.298305245589994" lon="11.401706723166093"><ele>191.0</ele><time>2026-04-26T14:51:50Z</time></trkpt><trkpt lat="43.2981591482881" lon="11.40148058709273"><ele>190.5</ele><time>2026-04-26T14:51:51Z</time></trkpt><trkpt lat="43.29800996056773" lon="11.401249252692642"><ele>190.0</ele><time>2026-04-26T14:51:52Z</time></trkpt><trkpt lat="43.29785476304078" lon="11.401007696860878"><ele>190.0</ele><time>2026-04-26T14:51:53Z</time></trkpt><trkpt lat="43.297693958649454" lon="11.40076042526327"><ele>190.0</ele><time>2026-04-26T14:51:54Z</time></trkpt><trkpt lat="43.29753480995641" lon="11.400511408733818"><ele>192.5</ele><time>2026-04-26T14:51:55Z</time></trkpt><trkpt lat="43.29737724681352" lon="11.400266285941655"><ele>195.0</ele><time>2026-04-26T14:51:56Z</time></trkpt><trkpt lat="43.297217035239825" lon="11.400015878364302"><ele>196.0</ele><time>2026-04-26T14:51:57Z</time></trkpt><trkpt lat="43.297053991013094" lon="11.399760903301127"><ele>197.0</ele><time>2026-04-26T14:51:58Z</time></trkpt><trkpt lat="43.29689256617721" lon="11.399502034395782"><ele>197.5</ele><time>2026-04-26T14:51:59Z</time></trkpt><trkpt lat="43.29673248445676" lon="11.399242302019944"><ele>198.0</ele><time>2026-04-26T14:52:00Z</time></trkpt><trkpt lat="43.29657445303515" lon="11.398981427249746"><ele>199.5</ele><time>2026-04-26T14:52:01Z</time></trkpt><trkpt lat="43.296422063446016" lon="11.398716041129443"><ele>201.0</ele><time>2026-04-26T14:52:02Z</time></trkpt><trkpt lat="43.29627469018314" lon="11.39843702671468"><ele>199.0</ele><time>2026-04-26T14:52:03Z</time></trkpt><trkpt lat="43.29614051312001" lon="11.398146330001868"><ele>197.0</ele><time>2026-04-26T14:52:04Z</time></trkpt><trkpt lat="43.29602468050478" lon="11.397839896266381"><ele>197.0</ele><time>2026-04-26T14:52:05Z</time></trkpt><trkpt lat="43.29592843410107" lon="11.39751963815043"><ele>197.0</ele><time>2026-04-26T14:52:06Z</time></trkpt><trkpt lat="43.29585427153494" lon="11.397193300376747"><ele>199.0</ele><time>2026-04-26T14:52:07Z</time></trkpt><trkpt lat="43.29579857570048" lon="11.39685662871677"><ele>201.0</ele><time>2026-04-26T14:52:08Z</time></trkpt><trkpt lat="43.295756181693065" lon="11.396508682706619"><ele>199.5</ele><time>2026-04-26T14:52:09Z</time></trkpt><trkpt lat="43.29572927045324" lon="11.396155341494305"><ele>198.0</ele><time>2026-04-26T14:52:10Z</time></trkpt><trkpt lat="43.29571312365832" lon="11.395797041791115"><ele>196.5</ele><time>2026-04-26T14:52:10.999Z</time></trkpt><trkpt lat="43.29571242746403" lon="11.395436500985511"><ele>195.0</ele><time>2026-04-26T14:52:11.999Z</time></trkpt><trkpt lat="43.295715746108066" lon="11.395078289365468"><ele>195.0</ele><time>2026-04-26T14:52:12.999Z</time></trkpt><trkpt lat="43.295723770024146" lon="11.394720179343027"><ele>195.0</ele><time>2026-04-26T14:52:13.999Z</time></trkpt><trkpt lat="43.295733357414626" lon="11.394365130199452"><ele>195.0</ele><time>2026-04-26T14:52:14.999Z</time></trkpt><trkpt lat="43.295744246512626" lon="11.394008538375383"><ele>195.0</ele><time>2026-04-26T14:52:15.999Z</time></trkpt><trkpt lat="43.29575686056527" lon="11.393654640880387"><ele>195.0</ele><time>2026-04-26T14:52:16.999Z</time></trkpt><trkpt lat="43.295770814770904" lon="11.393302398915115"><ele>195.0</ele><time>2026-04-26T14:52:17.999Z</time></trkpt><trkpt lat="43.29579262821543" lon="11.392949638601257"><ele>195.0</ele><time>2026-04-26T14:52:18.999Z</time></trkpt><trkpt lat="43.29582635941515" lon="11.392606015153525"><ele>195.0</ele><time>2026-04-26T14:52:19.999Z</time></trkpt><trkpt lat="43.29587617900581" lon="11.392277771872894"><ele>195.0</ele><time>2026-04-26T14:52:20.999Z</time></trkpt><trkpt lat="43.29594310963839" lon="11.391965923019956"><ele>195.0</ele><time>2026-04-26T14:52:21.999Z</time></trkpt><trkpt lat="43.296025886539276" lon="11.391668319365863"><ele>195.0</ele><time>2026-04-26T14:52:22.999Z</time></trkpt><trkpt lat="43.29612025038657" lon="11.39137980672942"><ele>195.0</ele><time>2026-04-26T14:52:23.999Z</time></trkpt><trkpt lat="43.2962297081929" lon="11.391109796147598"><ele>196.66666666666669</ele><time>2026-04-26T14:52:24.999Z</time></trkpt><trkpt lat="43.296365936360296" lon="11.390865419632618"><ele>198.33333333333334</ele><time>2026-04-26T14:52:25.999Z</time></trkpt><trkpt lat="43.29649475421839" lon="11.390635229015112"><ele>200.0</ele><time>2026-04-26T14:52:26.999Z</time></trkpt><trkpt lat="43.29662764119763" lon="11.390417894076208"><ele>201.66666666666669</ele><time>2026-04-26T14:52:27.999Z</time></trkpt><trkpt lat="43.29676254223323" lon="11.39020250038028"><ele>203.33333333333331</ele><time>2026-04-26T14:52:28.999Z</time></trkpt><trkpt lat="43.29689916429176" lon="11.389987636396617"><ele>205.0</ele><time>2026-04-26T14:52:29.999Z</time></trkpt><trkpt lat="43.2970401869328" lon="11.389773509185744"><ele>204.66666666666666</ele><time>2026-04-26T14:52:30.999Z</time></trkpt><trkpt lat="43.29718749741313" lon="11.389557896339445"><ele>204.33333333333331</ele><time>2026-04-26T14:52:31.999Z</time></trkpt><trkpt lat="43.297335674288135" lon="11.389339371857254"><ele>204.0</ele><time>2026-04-26T14:52:32.999Z</time></trkpt><trkpt lat="43.297486769396606" lon="11.389116791593796"><ele>203.0</ele><time>2026-04-26T14:52:33.999Z</time></trkpt><trkpt lat="43.2976376573124" lon="11.388891342173965"><ele>202.0</ele><time>2026-04-26T14:52:34.999Z</time></trkpt><trkpt lat="43.297788465436916" lon="11.388662039439748"><ele>201.0</ele><time>2026-04-26T14:52:35.999Z</time></trkpt><trkpt lat="43.29793991767512" lon="11.388429325829227"><ele>200.5</ele><time>2026-04-26T14:52:36.999Z</time></trkpt><trkpt lat="43.29809097254874" lon="11.388200361821905"><ele>200.0</ele><time>2026-04-26T14:52:37.999Z</time></trkpt><trkpt lat="43.298246549593735" lon="11.387967807377164"><ele>194.0</ele><time>2026-04-26T14:52:38.999Z</time></trkpt><trkpt lat="43.29840669154348" lon="11.38773150734391"><ele>188.0</ele><time>2026-04-26T14:52:39.999Z</time></trkpt><trkpt lat="43.29857097496131" lon="11.387489409927513"><ele>188.0</ele><time>2026-04-26T14:52:40.999Z</time></trkpt><trkpt lat="43.29873641610273" lon="11.387240493825946"><ele>188.0</ele><time>2026-04-26T14:52:41.999Z</time></trkpt><trkpt lat="43.29890470829676" lon="11.386985092232514"><ele>186.0</ele><time>2026-04-26T14:52:42.999Z</time></trkpt><trkpt lat="43.29907062015265" lon="11.386725897248539"><ele>184.0</ele><time>2026-04-26T14:52:43.999Z</time></trkpt><trkpt lat="43.29924032757949" lon="11.386459537597553"><ele>183.5</ele><time>2026-04-26T14:52:44.999Z</time></trkpt><trkpt lat="43.29941417205812" lon="11.38618934796179"><ele>183.0</ele><time>2026-04-26T14:52:45.999Z</time></trkpt><trkpt lat="43.29959214819805" lon="11.385916942775673"><ele>183.5</ele><time>2026-04-26T14:52:46.999Z</time></trkpt><trkpt lat="43.29977282925427" lon="11.385641925262007"><ele>184.0</ele><time>2026-04-26T14:52:47.999Z</time></trkpt><trkpt lat="43.299956470539" lon="11.38536491812048"><ele>185.5</ele><time>2026-04-26T14:52:48.999Z</time></trkpt><trkpt lat="43.30013894646028" lon="11.385089296040453"><ele>187.0</ele><time>2026-04-26T14:52:49.999Z</time></trkpt><trkpt lat="43.30032434741365" lon="11.384814743210322"><ele>187.5</ele><time>2026-04-26T14:52:50.999Z</time></trkpt><trkpt lat="43.30050966365613" lon="11.384546364537359"><ele>188.0</ele><time>2026-04-26T14:52:51.999Z</time></trkpt><trkpt lat="43.3006909369581" lon="11.384282520731714"><ele>188.0</ele><time>2026-04-26T14:52:52.999Z</time></trkpt><trkpt lat="43.300863700347165" lon="11.384026655479344"><ele>188.0</ele><time>2026-04-26T14:52:53.999Z</time></trkpt><trkpt lat="43.30102100817737" lon="11.38377350601315"><ele>189.0</ele><time>2026-04-26T14:52:54.999Z</time></trkpt><trkpt lat="43.301160851218924" lon="11.383515609775296"><ele>190.0</ele><time>2026-04-26T14:52:55.999Z</time></trkpt><trkpt lat="43.30128907130028" lon="11.383238432154148"><ele>191.33333333333334</ele><time>2026-04-26T14:52:56.999Z</time></trkpt><trkpt lat="43.301384417575456" lon="11.382960653692432"><ele>192.66666666666669</ele><time>2026-04-26T14:52:57.999Z</time></trkpt><trkpt lat="43.30146486620263" lon="11.382683528291686"><ele>194.0</ele><time>2026-04-26T14:52:58.999Z</time></trkpt><trkpt lat="43.30152998284434" lon="11.382397836963078"><ele>195.66666666666669</ele><time>2026-04-26T14:52:59.999Z</time></trkpt><trkpt lat="43.30157815356152" lon="11.382109842605619"><ele>197.33333333333331</ele><time>2026-04-26T14:53:00.999Z</time></trkpt><trkpt lat="43.30160349453074" lon="11.3818312234401"><ele>199.0</ele><time>2026-04-26T14:53:01.999Z</time></trkpt><trkpt lat="43.30159104504379" lon="11.381588201442472"><ele>199.33333333333331</ele><time>2026-04-26T14:53:02.999Z</time></trkpt><trkpt lat="43.30157746875843" lon="11.38131641917053"><ele>199.66666666666669</ele><time>2026-04-26T14:53:03.999Z</time></trkpt><trkpt lat="43.30156123958983" lon="11.381059422584306"><ele>200.0</ele><time>2026-04-26T14:53:04.998Z</time></trkpt><trkpt lat="43.301557746665694" lon="11.380795431322149"><ele>200.0</ele><time>2026-04-26T14:53:05.998Z</time></trkpt><trkpt lat="43.30155350252319" lon="11.380552888879395"><ele>200.0</ele><time>2026-04-26T14:53:06.998Z</time></trkpt><trkpt lat="43.30154174180389" lon="11.380333712492567"><ele>200.0</ele><time>2026-04-26T14:53:07.998Z</time></trkpt><trkpt lat="43.30152740721687" lon="11.38012909905746"><ele>199.33333333333334</ele><time>2026-04-26T14:53:08.998Z</time></trkpt><trkpt lat="43.301502674486635" lon="11.379917108520788"><ele>198.66666666666669</ele><time>2026-04-26T14:53:09.998Z</time></trkpt><trkpt lat="43.301493636592504" lon="11.379693324380673"><ele>198.0</ele><time>2026-04-26T14:53:10.998Z</time></trkpt><trkpt lat="43.3014831357874" lon="11.379453709550749"><ele>197.33333333333331</ele><time>2026-04-26T14:53:11.998Z</time></trkpt><trkpt lat="43.301476675763524" lon="11.37921339632001"><ele>196.66666666666666</ele><time>2026-04-26T14:53:12.998Z</time></trkpt><trkpt lat="43.301473728686325" lon="11.378977878583477"><ele>196.0</ele><time>2026-04-26T14:53:13.998Z</time></trkpt><trkpt lat="43.30147517376971" lon="11.378747587377793"><ele>196.0</ele><time>2026-04-26T14:53:14.998Z</time></trkpt><trkpt lat="43.30147410550483" lon="11.378502996223737"><ele>196.0</ele><time>2026-04-26T14:53:15.998Z</time></trkpt><trkpt lat="43.30146687834544" lon="11.378251525628933"><ele>196.0</ele><time>2026-04-26T14:53:16.998Z</time></trkpt><trkpt lat="43.301461614431375" lon="11.3780021095709"><ele>196.33333333333331</ele><time>2026-04-26T14:53:17.998Z</time></trkpt><trkpt lat="43.3014540106462" lon="11.37775560849588"><ele>196.66666666666669</ele><time>2026-04-26T14:53:18.998Z</time></trkpt><trkpt lat="43.30144448566926" lon="11.377500640077734"><ele>197.0</ele><time>2026-04-26T14:53:19.998Z</time></trkpt><trkpt lat="43.30144104402983" lon="11.377238996751384"><ele>197.0</ele><time>2026-04-26T14:53:20.998Z</time></trkpt><trkpt lat="43.30143941758465" lon="11.376977964337428"><ele>197.0</ele><time>2026-04-26T14:53:21.998Z</time></trkpt><trkpt lat="43.30143688390785" lon="11.376713207148411"><ele>197.0</ele><time>2026-04-26T14:53:22.998Z</time></trkpt><trkpt lat="43.301434148094735" lon="11.376446201039597"><ele>197.33333333333334</ele><time>2026-04-26T14:53:23.998Z</time></trkpt><trkpt lat="43.30142833151689" lon="11.376176954652099"><ele>197.66666666666669</ele><time>2026-04-26T14:53:24.998Z</time></trkpt><trkpt lat="43.30142067235969" lon="11.375907851259212"><ele>198.0</ele><time>2026-04-26T14:53:25.998Z</time></trkpt><trkpt lat="43.30141626388765" lon="11.375634261505056"><ele>196.66666666666669</ele><time>2026-04-26T14:53:27Z</time></trkpt><trkpt lat="43.30141311217901" lon="11.375359514609341"><ele>195.33333333333334</ele><time>2026-04-26T14:53:28Z</time></trkpt><trkpt lat="43.301412234073" lon="11.375084021345682"><ele>194.0</ele><time>2026-04-26T14:53:29Z</time></trkpt><trkpt lat="43.301406981275186" lon="11.374810990886822"><ele>194.0</ele><time>2026-04-26T14:53:30Z</time></trkpt><trkpt lat="43.30140161214591" lon="11.374531894604754"><ele>194.0</ele><time>2026-04-26T14:53:31Z</time></trkpt><trkpt lat="43.30139761716452" lon="11.374250409366343"><ele>194.0</ele><time>2026-04-26T14:53:32Z</time></trkpt><trkpt lat="43.301393406843665" lon="11.373975012653215"><ele>194.66666666666669</ele><time>2026-04-26T14:53:33Z</time></trkpt><trkpt lat="43.301391440332445" lon="11.373705251890835"><ele>195.33333333333331</ele><time>2026-04-26T14:53:34Z</time></trkpt><trkpt lat="43.301387950747824" lon="11.373440958887013"><ele>196.0</ele><time>2026-04-26T14:53:35Z</time></trkpt><trkpt lat="43.30138732529033" lon="11.37319044556373"><ele>196.66666666666666</ele><time>2026-04-26T14:53:36Z</time></trkpt><trkpt lat="43.30139209395837" lon="11.372940022153498"><ele>197.33333333333331</ele><time>2026-04-26T14:53:37Z</time></trkpt><trkpt lat="43.30140073966809" lon="11.372697749871449"><ele>198.0</ele><time>2026-04-26T14:53:38Z</time></trkpt><trkpt lat="43.30141612769182" lon="11.372473327160195"><ele>198.0</ele><time>2026-04-26T14:53:39Z</time></trkpt><trkpt lat="43.30143529831888" lon="11.37227007442829"><ele>198.0</ele><time>2026-04-26T14:53:40Z</time></trkpt><trkpt lat="43.301455603418326" lon="11.372084039078036"><ele>198.0</ele><time>2026-04-26T14:53:41Z</time></trkpt><trkpt lat="43.30147766560684" lon="11.371919132374158"><ele>198.0</ele><time>2026-04-26T14:53:42Z</time></trkpt><trkpt lat="43.30150505009109" lon="11.371771306798216"><ele>197.83333333333334</ele><time>2026-04-26T14:53:43Z</time></trkpt><trkpt lat="43.30153604077436" lon="11.3716362003319"><ele>197.66666666666669</ele><time>2026-04-26T14:53:44Z</time></trkpt><trkpt lat="43.301573862036335" lon="11.371526791436093"><ele>197.5</ele><time>2026-04-26T14:53:45Z</time></trkpt><trkpt lat="43.30162764231507" lon="11.371433210389716"><ele>197.33333333333334</ele><time>2026-04-26T14:53:46Z</time></trkpt><trkpt lat="43.30169188513073" lon="11.37135651367355"><ele>197.16666666666669</ele><time>2026-04-26T14:53:47Z</time></trkpt><trkpt lat="43.30175326876027" lon="11.371285485458316"><ele>197.0</ele><time>2026-04-26T14:53:48Z</time></trkpt><trkpt lat="43.30180713672277" lon="11.371190440647432"><ele>197.33333333333334</ele><time>2026-04-26T14:53:49Z</time></trkpt><trkpt lat="43.3018412749237" lon="11.371081974103035"><ele>197.66666666666669</ele><time>2026-04-26T14:53:50Z</time></trkpt><trkpt lat="43.301858125197306" lon="11.370965931674231"><ele>198.0</ele><time>2026-04-26T14:53:51Z</time></trkpt><trkpt lat="43.301855886905436" lon="11.37084617223313"><ele>198.33333333333331</ele><time>2026-04-26T14:53:52Z</time></trkpt><trkpt lat="43.30182768921909" lon="11.370740918566037"><ele>198.66666666666666</ele><time>2026-04-26T14:53:53Z</time></trkpt><trkpt lat="43.30177141971508" lon="11.370665875940308"><ele>199.0</ele><time>2026-04-26T14:53:54Z</time></trkpt><trkpt lat="43.30170219459944" lon="11.37062272078501"><ele>198.99999999999997</ele><time>2026-04-26T14:53:55Z</time></trkpt><trkpt lat="43.30161612413356" lon="11.370628884106663"><ele>199.0</ele><time>2026-04-26T14:53:56Z</time></trkpt><trkpt lat="43.301540839232565" lon="11.37069945861011"><ele>199.0</ele><time>2026-04-26T14:53:57Z</time></trkpt><trkpt lat="43.30148053915866" lon="11.370789008680342"><ele>199.0</ele><time>2026-04-26T14:53:58Z</time></trkpt><trkpt lat="43.30143834534971" lon="11.370887935675881"><ele>198.99999999999997</ele><time>2026-04-26T14:53:59Z</time></trkpt><trkpt lat="43.301399683185146" lon="11.37097862739855"><ele>199.0</ele><time>2026-04-26T14:54:00Z</time></trkpt><trkpt lat="43.301381087635384" lon="11.371103312096295"><ele>199.39999999999998</ele><time>2026-04-26T14:54:02Z</time></trkpt><trkpt lat="43.30140267398547" lon="11.371193557629029"><ele>199.8</ele><time>2026-04-26T14:54:03Z</time></trkpt><trkpt lat="43.30141510458971" lon="11.371346679933158"><ele>200.2</ele><time>2026-04-26T14:54:04Z</time></trkpt><trkpt lat="43.30139797019718" lon="11.371488742159007"><ele>200.60000000000002</ele><time>2026-04-26T14:54:05Z</time></trkpt><trkpt lat="43.3013824131755" lon="11.371649218018113"><ele>201.0</ele><time>2026-04-26T14:54:06Z</time></trkpt><trkpt lat="43.30137220580357" lon="11.371809640225877"><ele>201.0</ele><time>2026-04-26T14:54:07Z</time></trkpt><trkpt lat="43.30138311055195" lon="11.371989634131294"><ele>201.0</ele><time>2026-04-26T14:54:08Z</time></trkpt><trkpt lat="43.301387155252144" lon="11.372170506434736"><ele>201.0</ele><time>2026-04-26T14:54:09Z</time></trkpt><trkpt lat="43.30136591944654" lon="11.372382484145874"><ele>201.0</ele><time>2026-04-26T14:54:10Z</time></trkpt><trkpt lat="43.301355623854" lon="11.372597229710646"><ele>200.33333333333331</ele><time>2026-04-26T14:54:11Z</time></trkpt><trkpt lat="43.3013455337138" lon="11.372815517690213"><ele>199.66666666666666</ele><time>2026-04-26T14:54:12Z</time></trkpt><trkpt lat="43.30133428839265" lon="11.373041341258384"><ele>199.0</ele><time>2026-04-26T14:54:13Z</time></trkpt><trkpt lat="43.30132968986702" lon="11.373269742751816"><ele>198.0</ele><time>2026-04-26T14:54:14Z</time></trkpt><trkpt lat="43.30131878064291" lon="11.373508960352957"><ele>197.0</ele><time>2026-04-26T14:54:15Z</time></trkpt><trkpt lat="43.301307445084724" lon="11.373756088373916"><ele>196.0</ele><time>2026-04-26T14:54:15.999Z</time></trkpt><trkpt lat="43.30129889606305" lon="11.373998205457806"><ele>195.33333333333331</ele><time>2026-04-26T14:54:16.999Z</time></trkpt><trkpt lat="43.30129447704344" lon="11.374231163915747"><ele>194.66666666666669</ele><time>2026-04-26T14:54:17.999Z</time></trkpt><trkpt lat="43.30128456524458" lon="11.374466918674656"><ele>194.0</ele><time>2026-04-26T14:54:18.999Z</time></trkpt><trkpt lat="43.30127401548563" lon="11.374696058463156"><ele>194.0</ele><time>2026-04-26T14:54:19.999Z</time></trkpt><trkpt lat="43.30126179578659" lon="11.374916674745581"><ele>194.0</ele><time>2026-04-26T14:54:20.999Z</time></trkpt><trkpt lat="43.30125284602729" lon="11.37512840490554"><ele>194.0</ele><time>2026-04-26T14:54:21.999Z</time></trkpt><trkpt lat="43.30123959481536" lon="11.375328846763274"><ele>194.0</ele><time>2026-04-26T14:54:22.999Z</time></trkpt><trkpt lat="43.30121019806174" lon="11.375512904329813"><ele>194.0</ele><time>2026-04-26T14:54:23.999Z</time></trkpt><trkpt lat="43.30115832111399" lon="11.375672288824257"><ele>194.0</ele><time>2026-04-26T14:54:24.999Z</time></trkpt><trkpt lat="43.30109096394211" lon="11.37580058006309"><ele>194.0</ele><time>2026-04-26T14:54:25.999Z</time></trkpt><trkpt lat="43.30100537040125" lon="11.375889286025552"><ele>194.5</ele><time>2026-04-26T14:54:26.999Z</time></trkpt><trkpt lat="43.30089995969144" lon="11.375943004542169"><ele>195.0</ele><time>2026-04-26T14:54:27.999Z</time></trkpt><trkpt lat="43.300790186344514" lon="11.375957985846947"><ele>195.5</ele><time>2026-04-26T14:54:28.999Z</time></trkpt><trkpt lat="43.300675508446986" lon="11.375944783778618"><ele>196.0</ele><time>2026-04-26T14:54:29.999Z</time></trkpt><trkpt lat="43.30056330496687" lon="11.375899430846912"><ele>196.0</ele><time>2026-04-26T14:54:30.999Z</time></trkpt><trkpt lat="43.30045041087925" lon="11.375809834952706"><ele>196.0</ele><time>2026-04-26T14:54:31.999Z</time></trkpt><trkpt lat="43.30034065175868" lon="11.375701105610164"><ele>196.0</ele><time>2026-04-26T14:54:32.999Z</time></trkpt><trkpt lat="43.300229242008484" lon="11.375577940695148"><ele>196.0</ele><time>2026-04-26T14:54:33.999Z</time></trkpt><trkpt lat="43.300118335792845" lon="11.375441231596923"><ele>196.0</ele><time>2026-04-26T14:54:34.999Z</time></trkpt><trkpt lat="43.300008867531794" lon="11.375294441274455"><ele>196.0</ele><time>2026-04-26T14:54:35.999Z</time></trkpt><trkpt lat="43.299892349359084" lon="11.375137924664033"><ele>196.0</ele><time>2026-04-26T14:54:36.999Z</time></trkpt><trkpt lat="43.299774312709694" lon="11.3749684842278"><ele>195.33333333333331</ele><time>2026-04-26T14:54:37.999Z</time></trkpt><trkpt lat="43.29966268967997" lon="11.374784770392948"><ele>194.66666666666669</ele><time>2026-04-26T14:54:38.999Z</time></trkpt><trkpt lat="43.299555240086036" lon="11.374589899819528"><ele>194.0</ele><time>2026-04-26T14:54:39.999Z</time></trkpt><trkpt lat="43.299453510653315" lon="11.374384051666143"><ele>195.33333333333334</ele><time>2026-04-26T14:54:40.999Z</time></trkpt><trkpt lat="43.29935933525003" lon="11.374165926632886"><ele>196.66666666666669</ele><time>2026-04-26T14:54:41.999Z</time></trkpt><trkpt lat="43.299266612862006" lon="11.373943909252054"><ele>198.0</ele><time>2026-04-26T14:54:42.999Z</time></trkpt><trkpt lat="43.29917873188608" lon="11.373721257735017"><ele>200.0</ele><time>2026-04-26T14:54:43.999Z</time></trkpt><trkpt lat="43.29910476999788" lon="11.373487387649316"><ele>202.0</ele><time>2026-04-26T14:54:44.999Z</time></trkpt><trkpt lat="43.299039081025654" lon="11.373247636741173"><ele>204.0</ele><time>2026-04-26T14:54:45.999Z</time></trkpt><trkpt lat="43.298984519180884" lon="11.373003535474554"><ele>205.66666666666669</ele><time>2026-04-26T14:54:46.999Z</time></trkpt><trkpt lat="43.298936605816024" lon="11.372757150176948"><ele>207.33333333333334</ele><time>2026-04-26T14:54:47.999Z</time></trkpt><trkpt lat="43.29889207833777" lon="11.372517716515276"><ele>209.0</ele><time>2026-04-26T14:54:48.999Z</time></trkpt><trkpt lat="43.298856105424235" lon="11.372285331580539"><ele>209.66666666666669</ele><time>2026-04-26T14:54:49.999Z</time></trkpt><trkpt lat="43.298826384707425" lon="11.372050503782795"><ele>210.33333333333331</ele><time>2026-04-26T14:54:50.999Z</time></trkpt><trkpt lat="43.298797197732355" lon="11.371815362273086"><ele>211.0</ele><time>2026-04-26T14:54:51.999Z</time></trkpt><trkpt lat="43.29879654500548" lon="11.371575755368351"><ele>211.66666666666666</ele><time>2026-04-26T14:54:52.999Z</time></trkpt><trkpt lat="43.29878838670926" lon="11.371334523060575"><ele>212.33333333333331</ele><time>2026-04-26T14:54:53.999Z</time></trkpt><trkpt lat="43.29878625130315" lon="11.371097514077542"><ele>213.0</ele><time>2026-04-26T14:54:54.999Z</time></trkpt><trkpt lat="43.29878992359586" lon="11.370864026972514"><ele>213.0</ele><time>2026-04-26T14:54:55.999Z</time></trkpt><trkpt lat="43.29879449339179" lon="11.37063903031314"><ele>213.0</ele><time>2026-04-26T14:54:56.999Z</time></trkpt><trkpt lat="43.29879943088037" lon="11.370420404485882"><ele>213.0</ele><time>2026-04-26T14:54:57.999Z</time></trkpt><trkpt lat="43.2988035800011" lon="11.370209766270495"><ele>216.0</ele><time>2026-04-26T14:54:58.999Z</time></trkpt><trkpt lat="43.298807634839726" lon="11.369998227390104"><ele>219.0</ele><time>2026-04-26T14:54:59.999Z</time></trkpt><trkpt lat="43.298811706913625" lon="11.36978578934778"><ele>222.0</ele><time>2026-04-26T14:55:00.999Z</time></trkpt><trkpt lat="43.29881547836175" lon="11.369572223428895"><ele>224.0</ele><time>2026-04-26T14:55:01.999Z</time></trkpt><trkpt lat="43.298818461073225" lon="11.369362775818681"><ele>226.0</ele><time>2026-04-26T14:55:02.999Z</time></trkpt><trkpt lat="43.29882132716561" lon="11.369161516948756"><ele>228.0</ele><time>2026-04-26T14:55:03.999Z</time></trkpt><trkpt lat="43.29882268898625" lon="11.36896633403334"><ele>230.0</ele><time>2026-04-26T14:55:04.999Z</time></trkpt><trkpt lat="43.29882426987058" lon="11.368778842971262"><ele>230.25</ele><time>2026-04-26T14:55:05.999Z</time></trkpt><trkpt lat="43.29882415098648" lon="11.368592200665544"><ele>230.5</ele><time>2026-04-26T14:55:06.999Z</time></trkpt><trkpt lat="43.2988234292666" lon="11.368399083641398"><ele>230.75</ele><time>2026-04-26T14:55:07.999Z</time></trkpt><trkpt lat="43.2988226793952" lon="11.368198433890797"><ele>231.0</ele><time>2026-04-26T14:55:08.999Z</time></trkpt><trkpt lat="43.298821721660936" lon="11.367996209317832"><ele>231.0</ele><time>2026-04-26T14:55:09.999Z</time></trkpt><trkpt lat="43.29882062199635" lon="11.367796400226094"><ele>231.0</ele><time>2026-04-26T14:55:10.998Z</time></trkpt><trkpt lat="43.298804607124" lon="11.367603186746807"><ele>231.0</ele><time>2026-04-26T14:55:11.998Z</time></trkpt><trkpt lat="43.29880885911349" lon="11.367397712650321"><ele>231.0</ele><time>2026-04-26T14:55:13.08Z</time></trkpt><trkpt lat="43.29881154680873" lon="11.367218910942512"><ele>229.25</ele><time>2026-04-26T14:55:14.063Z</time></trkpt><trkpt lat="43.298816123011136" lon="11.367034112422404"><ele>227.5</ele><time>2026-04-26T14:55:15.058Z</time></trkpt><trkpt lat="43.29882212862603" lon="11.3668410592403"><ele>225.75</ele><time>2026-04-26T14:55:16.058Z</time></trkpt><trkpt lat="43.29883008341686" lon="11.366648437831612"><ele>224.0</ele><time>2026-04-26T14:55:17.054Z</time></trkpt><trkpt lat="43.29883974234439" lon="11.36645577402201"><ele>220.0</ele><time>2026-04-26T14:55:18.045Z</time></trkpt><trkpt lat="43.29887515453903" lon="11.365974230541712"><ele>216.0</ele><time>2026-04-26T14:55:19.998Z</time></trkpt><trkpt lat="43.29888478702675" lon="11.365765265141782"><ele>214.0</ele><time>2026-04-26T14:55:20.998Z</time></trkpt><trkpt lat="43.29887107607513" lon="11.365498450585884"><ele>212.0</ele><time>2026-04-26T14:55:21.998Z</time></trkpt><trkpt lat="43.29888207669299" lon="11.365247691363816"><ele>210.0</ele><time>2026-04-26T14:55:22.998Z</time></trkpt><trkpt lat="43.29887356057706" lon="11.365016703818274"><ele>210.0</ele><time>2026-04-26T14:55:23.998Z</time></trkpt><trkpt lat="43.29890967274524" lon="11.36480116732993"><ele>210.0</ele><time>2026-04-26T14:55:24.998Z</time></trkpt><trkpt lat="43.2988925845593" lon="11.364645513755963"><ele>210.0</ele><time>2026-04-26T14:55:25.998Z</time></trkpt><trkpt lat="43.29891131625712" lon="11.364440137369082"><ele>210.0</ele><time>2026-04-26T14:55:26.998Z</time></trkpt><trkpt lat="43.298933526614064" lon="11.364232957015634"><ele>211.0</ele><time>2026-04-26T14:55:27.998Z</time></trkpt><trkpt lat="43.29895731375905" lon="11.364026486227356"><ele>212.0</ele><time>2026-04-26T14:55:28.998Z</time></trkpt><trkpt lat="43.29898661708874" lon="11.363818812666462"><ele>213.0</ele><time>2026-04-26T14:55:29.998Z</time></trkpt><trkpt lat="43.299020298586775" lon="11.36360726074744"><ele>211.0</ele><time>2026-04-26T14:55:30.998Z</time></trkpt><trkpt lat="43.299074052837256" lon="11.363399826023104"><ele>209.0</ele><time>2026-04-26T14:55:31.998Z</time></trkpt><trkpt lat="43.29911252796533" lon="11.363190269289618"><ele>207.0</ele><time>2026-04-26T14:55:33Z</time></trkpt><trkpt lat="43.299152289523654" lon="11.362986054687626"><ele>205.5</ele><time>2026-04-26T14:55:34Z</time></trkpt><trkpt lat="43.29919599178422" lon="11.36278707311588"><ele>204.0</ele><time>2026-04-26T14:55:35Z</time></trkpt><trkpt lat="43.29924010878162" lon="11.36259293659168"><ele>202.5</ele><time>2026-04-26T14:55:36Z</time></trkpt><trkpt lat="43.299286414433446" lon="11.362396658771955"><ele>201.0</ele><time>2026-04-26T14:55:37Z</time></trkpt><trkpt lat="43.29933837493443" lon="11.362191984608792"><ele>200.66666666666669</ele><time>2026-04-26T14:55:38Z</time></trkpt><trkpt lat="43.29939418088259" lon="11.361985934283549"><ele>200.33333333333334</ele><time>2026-04-26T14:55:39Z</time></trkpt><trkpt lat="43.29945052094143" lon="11.36178915268305"><ele>200.0</ele><time>2026-04-26T14:55:40Z</time></trkpt><trkpt lat="43.299506060533545" lon="11.361602069119023"><ele>200.0</ele><time>2026-04-26T14:55:41Z</time></trkpt><trkpt lat="43.29955854022891" lon="11.3614271367865"><ele>200.0</ele><time>2026-04-26T14:55:42Z</time></trkpt><trkpt lat="43.299610547301306" lon="11.36125597178515"><ele>200.0</ele><time>2026-04-26T14:55:43Z</time></trkpt><trkpt lat="43.299665539639285" lon="11.3610765427528"><ele>200.0</ele><time>2026-04-26T14:55:44Z</time></trkpt><trkpt lat="43.29972173645915" lon="11.360893183535303"><ele>200.5</ele><time>2026-04-26T14:55:45Z</time></trkpt><trkpt lat="43.29977927185552" lon="11.360706058482025"><ele>201.0</ele><time>2026-04-26T14:55:46Z</time></trkpt><trkpt lat="43.29983775916494" lon="11.360515635185797"><ele>201.5</ele><time>2026-04-26T14:55:47Z</time></trkpt><trkpt lat="43.29989514536293" lon="11.360328319953581"><ele>202.0</ele><time>2026-04-26T14:55:48Z</time></trkpt><trkpt lat="43.29995156897013" lon="11.36014473423324"><ele>202.0</ele><time>2026-04-26T14:55:49Z</time></trkpt><trkpt lat="43.300006733099096" lon="11.359965246611232"><ele>202.0</ele><time>2026-04-26T14:55:50Z</time></trkpt><trkpt lat="43.300062440048315" lon="11.359784542175793"><ele>202.0</ele><time>2026-04-26T14:55:51Z</time></trkpt><trkpt lat="43.3001183378137" lon="11.359603801450168"><ele>202.0</ele><time>2026-04-26T14:55:52Z</time></trkpt><trkpt lat="43.30017502935571" lon="11.359420494098291"><ele>201.0</ele><time>2026-04-26T14:55:53Z</time></trkpt><trkpt lat="43.30023350627201" lon="11.359231413625604"><ele>200.0</ele><time>2026-04-26T14:55:54Z</time></trkpt><trkpt lat="43.30027823639748" lon="11.35902981978958"><ele>199.0</ele><time>2026-04-26T14:55:55Z</time></trkpt><trkpt lat="43.30033748165053" lon="11.358833066615988"><ele>198.0</ele><time>2026-04-26T14:55:56Z</time></trkpt><trkpt lat="43.300396423634595" lon="11.358633838663636"><ele>197.0</ele><time>2026-04-26T14:55:57Z</time></trkpt><trkpt lat="43.30046808109783" lon="11.358435297565189"><ele>196.0</ele><time>2026-04-26T14:55:58Z</time></trkpt><trkpt lat="43.30051956644287" lon="11.35822063217381"><ele>195.66666666666666</ele><time>2026-04-26T14:55:59Z</time></trkpt><trkpt lat="43.300568129870044" lon="11.358001030704656"><ele>195.33333333333331</ele><time>2026-04-26T14:56:00Z</time></trkpt><trkpt lat="43.30061211300094" lon="11.357775148397268"><ele>195.0</ele><time>2026-04-26T14:56:01Z</time></trkpt><trkpt lat="43.30064956688797" lon="11.35755246333291"><ele>196.66666666666669</ele><time>2026-04-26T14:56:02Z</time></trkpt><trkpt lat="43.30066849848372" lon="11.357332653054979"><ele>198.33333333333334</ele><time>2026-04-26T14:56:03Z</time></trkpt><trkpt lat="43.30069537449702" lon="11.357117944780487"><ele>200.0</ele><time>2026-04-26T14:56:04Z</time></trkpt><trkpt lat="43.30071756766916" lon="11.35689530871442"><ele>201.33333333333334</ele><time>2026-04-26T14:56:05Z</time></trkpt><trkpt lat="43.30073562164707" lon="11.356676059663076"><ele>202.66666666666669</ele><time>2026-04-26T14:56:06Z</time></trkpt><trkpt lat="43.30075286429516" lon="11.356464024918758"><ele>204.0</ele><time>2026-04-26T14:56:07Z</time></trkpt><trkpt lat="43.300764755936534" lon="11.356259675394123"><ele>204.75</ele><time>2026-04-26T14:56:08Z</time></trkpt><trkpt lat="43.30077262773548" lon="11.356060456448558"><ele>205.5</ele><time>2026-04-26T14:56:09Z</time></trkpt><trkpt lat="43.300772116619875" lon="11.355869764340525"><ele>206.25</ele><time>2026-04-26T14:56:10Z</time></trkpt><trkpt lat="43.30076474625745" lon="11.355684607941017"><ele>207.0</ele><time>2026-04-26T14:56:11Z</time></trkpt><trkpt lat="43.300753604937796" lon="11.355505677406573"><ele>207.25</ele><time>2026-04-26T14:56:12Z</time></trkpt><trkpt lat="43.30074325816804" lon="11.355326926493436"><ele>207.5</ele><time>2026-04-26T14:56:13Z</time></trkpt><trkpt lat="43.3007316626294" lon="11.35514968213357"><ele>207.75</ele><time>2026-04-26T14:56:14Z</time></trkpt><trkpt lat="43.300719501273825" lon="11.35497558143814"><ele>208.0</ele><time>2026-04-26T14:56:15Z</time></trkpt><trkpt lat="43.30070371141631" lon="11.354807405609899"><ele>207.5</ele><time>2026-04-26T14:56:16Z</time></trkpt><trkpt lat="43.30068424885936" lon="11.354644610062788"><ele>207.0</ele><time>2026-04-26T14:56:17Z</time></trkpt><trkpt lat="43.30065982102843" lon="11.354482388998894"><ele>206.5</ele><time>2026-04-26T14:56:18Z</time></trkpt><trkpt lat="43.30063352724309" lon="11.354313447249803"><ele>206.0</ele><time>2026-04-26T14:56:19Z</time></trkpt><trkpt lat="43.300604177981555" lon="11.354138636715636"><ele>204.5</ele><time>2026-04-26T14:56:20Z</time></trkpt><trkpt lat="43.30057424779354" lon="11.353955835320747"><ele>203.0</ele><time>2026-04-26T14:56:21Z</time></trkpt><trkpt lat="43.30054517438026" lon="11.353768450928298"><ele>201.5</ele><time>2026-04-26T14:56:22Z</time></trkpt><trkpt lat="43.300511448249964" lon="11.35357640225344"><ele>200.0</ele><time>2026-04-26T14:56:22.999Z</time></trkpt><trkpt lat="43.300495282957826" lon="11.35337718187236"><ele>199.5</ele><time>2026-04-26T14:56:23.999Z</time></trkpt><trkpt lat="43.30046502437506" lon="11.353179944520624"><ele>199.0</ele><time>2026-04-26T14:56:24.999Z</time></trkpt><trkpt lat="43.30043571900813" lon="11.35299297453653"><ele>198.5</ele><time>2026-04-26T14:56:25.999Z</time></trkpt><trkpt lat="43.30039258425609" lon="11.35282590046586"><ele>198.0</ele><time>2026-04-26T14:56:26.999Z</time></trkpt><trkpt lat="43.300372439179355" lon="11.352663986302627"><ele>198.0</ele><time>2026-04-26T14:56:27.999Z</time></trkpt><trkpt lat="43.300346470774805" lon="11.35250129756269"><ele>198.0</ele><time>2026-04-26T14:56:28.999Z</time></trkpt><trkpt lat="43.300319157790575" lon="11.352333080926398"><ele>198.0</ele><time>2026-04-26T14:56:29.999Z</time></trkpt><trkpt lat="43.30029433864929" lon="11.352174007795155"><ele>198.0</ele><time>2026-04-26T14:56:30.999Z</time></trkpt><trkpt lat="43.300268970743105" lon="11.352014068361115"><ele>198.5</ele><time>2026-04-26T14:56:31.999Z</time></trkpt><trkpt lat="43.3002419672027" lon="11.351851963623822"><ele>199.0</ele><time>2026-04-26T14:56:32.999Z</time></trkpt><trkpt lat="43.300216022073116" lon="11.351685247944552"><ele>199.5</ele><time>2026-04-26T14:56:33.999Z</time></trkpt><trkpt lat="43.30018772513069" lon="11.351512725923635"><ele>200.0</ele><time>2026-04-26T14:56:34.999Z</time></trkpt><trkpt lat="43.30015907266765" lon="11.351333617046025"><ele>200.5</ele><time>2026-04-26T14:56:35.999Z</time></trkpt><trkpt lat="43.30014391446481" lon="11.351139606376991"><ele>201.0</ele><time>2026-04-26T14:56:36.999Z</time></trkpt><trkpt lat="43.30011272572543" lon="11.350940289039563"><ele>201.5</ele><time>2026-04-26T14:56:37.999Z</time></trkpt><trkpt lat="43.300080485086184" lon="11.350734249211746"><ele>202.0</ele><time>2026-04-26T14:56:38.999Z</time></trkpt><trkpt lat="43.30003107914197" lon="11.350525705867538"><ele>204.0</ele><time>2026-04-26T14:56:39.999Z</time></trkpt><trkpt lat="43.2999992422967" lon="11.350303798638398"><ele>206.0</ele><time>2026-04-26T14:56:40.999Z</time></trkpt><trkpt lat="43.29996548029211" lon="11.350072821952974"><ele>208.0</ele><time>2026-04-26T14:56:41.999Z</time></trkpt><trkpt lat="43.29993072627859" lon="11.34983661047356"><ele>209.0</ele><time>2026-04-26T14:56:42.999Z</time></trkpt><trkpt lat="43.299893471745314" lon="11.34959764770808"><ele>210.0</ele><time>2026-04-26T14:56:43.999Z</time></trkpt><trkpt lat="43.29985334969819" lon="11.349356498052293"><ele>211.0</ele><time>2026-04-26T14:56:44.999Z</time></trkpt><trkpt lat="43.29981375267181" lon="11.349110588445042"><ele>212.0</ele><time>2026-04-26T14:56:45.999Z</time></trkpt><trkpt lat="43.299774114661936" lon="11.34886773123623"><ele>213.0</ele><time>2026-04-26T14:56:46.999Z</time></trkpt><trkpt lat="43.29975049719223" lon="11.348619157930727"><ele>214.0</ele><time>2026-04-26T14:56:47.999Z</time></trkpt><trkpt lat="43.299712645450505" lon="11.348376028897864"><ele>211.0</ele><time>2026-04-26T14:56:48.999Z</time></trkpt><trkpt lat="43.29965956803405" lon="11.348139931550907"><ele>208.0</ele><time>2026-04-26T14:56:49.999Z</time></trkpt><trkpt lat="43.29962350026227" lon="11.347899752791996"><ele>205.0</ele><time>2026-04-26T14:56:50.999Z</time></trkpt><trkpt lat="43.29958447670379" lon="11.34766076526404"><ele>205.0</ele><time>2026-04-26T14:56:51.999Z</time></trkpt><trkpt lat="43.29956263350473" lon="11.347414244856106"><ele>205.0</ele><time>2026-04-26T14:56:52.999Z</time></trkpt><trkpt lat="43.29952481684133" lon="11.347174247306986"><ele>205.0</ele><time>2026-04-26T14:56:53.999Z</time></trkpt><trkpt lat="43.299486730815616" lon="11.346932962657386"><ele>205.0</ele><time>2026-04-26T14:56:54.999Z</time></trkpt><trkpt lat="43.29944855758328" lon="11.346692356570506"><ele>205.0</ele><time>2026-04-26T14:56:55.999Z</time></trkpt><trkpt lat="43.299394785415956" lon="11.346456264557103"><ele>205.0</ele><time>2026-04-26T14:56:56.999Z</time></trkpt><trkpt lat="43.29935783997244" lon="11.346214935885774"><ele>206.66666666666666</ele><time>2026-04-26T14:56:57.999Z</time></trkpt><trkpt lat="43.299333944353755" lon="11.345969948285003"><ele>208.33333333333331</ele><time>2026-04-26T14:56:58.999Z</time></trkpt><trkpt lat="43.29929575739933" lon="11.345729255688857"><ele>210.0</ele><time>2026-04-26T14:56:59.999Z</time></trkpt><trkpt lat="43.29925799686135" lon="11.345491250476272"><ele>210.33333333333331</ele><time>2026-04-26T14:57:00.999Z</time></trkpt><trkpt lat="43.29922010048196" lon="11.345252389473647"><ele>210.66666666666666</ele><time>2026-04-26T14:57:01.999Z</time></trkpt><trkpt lat="43.29918323099115" lon="11.34501558986252"><ele>211.0</ele><time>2026-04-26T14:57:02.999Z</time></trkpt><trkpt lat="43.299145699564725" lon="11.344777818563099"><ele>211.0</ele><time>2026-04-26T14:57:03.999Z</time></trkpt><trkpt lat="43.29909292090494" lon="11.34454604484106"><ele>211.0</ele><time>2026-04-26T14:57:04.999Z</time></trkpt><trkpt lat="43.29905374960854" lon="11.344304827611028"><ele>211.0</ele><time>2026-04-26T14:57:05.999Z</time></trkpt><trkpt lat="43.29901328253506" lon="11.344064439375234"><ele>212.0</ele><time>2026-04-26T14:57:06.999Z</time></trkpt><trkpt lat="43.298972018181864" lon="11.343825511229284"><ele>213.0</ele><time>2026-04-26T14:57:07.999Z</time></trkpt><trkpt lat="43.29892963345617" lon="11.343591898651205"><ele>214.0</ele><time>2026-04-26T14:57:08.999Z</time></trkpt><trkpt lat="43.29888459672662" lon="11.343358076195122"><ele>214.0</ele><time>2026-04-26T14:57:09.999Z</time></trkpt><trkpt lat="43.298836140638386" lon="11.343127703256735"><ele>214.0</ele><time>2026-04-26T14:57:10.999Z</time></trkpt><trkpt lat="43.29878356185816" lon="11.342900871608427"><ele>214.0</ele><time>2026-04-26T14:57:11.999Z</time></trkpt><trkpt lat="43.298729989539446" lon="11.342675479138302"><ele>215.0</ele><time>2026-04-26T14:57:12.999Z</time></trkpt><trkpt lat="43.298671855184516" lon="11.342455938854878"><ele>216.0</ele><time>2026-04-26T14:57:13.999Z</time></trkpt><trkpt lat="43.29861155338829" lon="11.34224058809554"><ele>217.0</ele><time>2026-04-26T14:57:14.999Z</time></trkpt><trkpt lat="43.298549346260614" lon="11.34203703031507"><ele>219.33333333333331</ele><time>2026-04-26T14:57:15.999Z</time></trkpt><trkpt lat="43.29848890368168" lon="11.34183768546049"><ele>221.66666666666669</ele><time>2026-04-26T14:57:16.999Z</time></trkpt><trkpt lat="43.29842831514145" lon="11.3416460225677"><ele>224.0</ele><time>2026-04-26T14:57:17.998Z</time></trkpt><trkpt lat="43.29836726071747" lon="11.341459477661079"><ele>224.66666666666669</ele><time>2026-04-26T14:57:18.998Z</time></trkpt><trkpt lat="43.29830355371969" lon="11.341274710855"><ele>225.33333333333331</ele><time>2026-04-26T14:57:19.998Z</time></trkpt><trkpt lat="43.29825369292561" lon="11.341078388588432"><ele>226.0</ele><time>2026-04-26T14:57:20.998Z</time></trkpt><trkpt lat="43.29818865541899" lon="11.340893249527195"><ele>226.0</ele><time>2026-04-26T14:57:21.998Z</time></trkpt><trkpt lat="43.29810914870282" lon="11.340716997163053"><ele>226.0</ele><time>2026-04-26T14:57:22.998Z</time></trkpt><trkpt lat="43.29804259308942" lon="11.340535011647493"><ele>226.0</ele><time>2026-04-26T14:57:23.998Z</time></trkpt><trkpt lat="43.29799188123116" lon="11.340344916140733"><ele>226.0</ele><time>2026-04-26T14:57:24.998Z</time></trkpt><trkpt lat="43.29792733209079" lon="11.34016565910537"><ele>227.66666666666666</ele><time>2026-04-26T14:57:25.998Z</time></trkpt><trkpt lat="43.29786195642718" lon="11.339984287782553"><ele>229.33333333333331</ele><time>2026-04-26T14:57:26.998Z</time></trkpt><trkpt lat="43.297794106524044" lon="11.339798713610067"><ele>231.0</ele><time>2026-04-26T14:57:27.998Z</time></trkpt><trkpt lat="43.29771101987663" lon="11.339618416154641"><ele>233.0</ele><time>2026-04-26T14:57:28.998Z</time></trkpt><trkpt lat="43.29763981810503" lon="11.33942716794147"><ele>235.0</ele><time>2026-04-26T14:57:29.998Z</time></trkpt><trkpt lat="43.29756768918696" lon="11.339234552948746"><ele>237.0</ele><time>2026-04-26T14:57:30.998Z</time></trkpt><trkpt lat="43.297490333636404" lon="11.339043663336232"><ele>238.33333333333331</ele><time>2026-04-26T14:57:31.998Z</time></trkpt><trkpt lat="43.297409895618586" lon="11.338852221862416"><ele>239.66666666666666</ele><time>2026-04-26T14:57:32.998Z</time></trkpt><trkpt lat="43.297327898712815" lon="11.338661945542452"><ele>241.0</ele><time>2026-04-26T14:57:33.998Z</time></trkpt><trkpt lat="43.29724479270325" lon="11.338481306029177"><ele>238.5</ele><time>2026-04-26T14:57:34.998Z</time></trkpt><trkpt lat="43.297161361476455" lon="11.338315437964049"><ele>236.0</ele><time>2026-04-26T14:57:35.998Z</time></trkpt><trkpt lat="43.297087153504926" lon="11.338136398425243"><ele>233.5</ele><time>2026-04-26T14:57:36.998Z</time></trkpt><trkpt lat="43.29700150655223" lon="11.33797393834763"><ele>231.0</ele><time>2026-04-26T14:57:37.998Z</time></trkpt><trkpt lat="43.296897558993884" lon="11.337833227155926"><ele>229.75</ele><time>2026-04-26T14:57:39Z</time></trkpt><trkpt lat="43.2968101352101" lon="11.33768482020879"><ele>228.5</ele><time>2026-04-26T14:57:40Z</time></trkpt><trkpt lat="43.296744614897705" lon="11.337518299514374"><ele>227.25</ele><time>2026-04-26T14:57:41Z</time></trkpt><trkpt lat="43.296670237496976" lon="11.33736538504105"><ele>226.0</ele><time>2026-04-26T14:57:42Z</time></trkpt><trkpt lat="43.296590493088594" lon="11.337234508668436"><ele>225.75</ele><time>2026-04-26T14:57:43Z</time></trkpt><trkpt lat="43.29651534482905" lon="11.337085607656865"><ele>225.5</ele><time>2026-04-26T14:57:44Z</time></trkpt><trkpt lat="43.29644558778515" lon="11.336932352287372"><ele>225.25</ele><time>2026-04-26T14:57:45Z</time></trkpt><trkpt lat="43.29637730091939" lon="11.336770223938075"><ele>225.0</ele><time>2026-04-26T14:57:46Z</time></trkpt><trkpt lat="43.29631069299006" lon="11.336596901544885"><ele>222.33333333333331</ele><time>2026-04-26T14:57:47Z</time></trkpt><trkpt lat="43.296252687034496" lon="11.336403072372374"><ele>219.66666666666666</ele><time>2026-04-26T14:57:48Z</time></trkpt><trkpt lat="43.29620138716062" lon="11.336203009475303"><ele>217.0</ele><time>2026-04-26T14:57:49Z</time></trkpt><trkpt lat="43.29615609811809" lon="11.336000155390877"><ele>216.0</ele><time>2026-04-26T14:57:50Z</time></trkpt><trkpt lat="43.29611461089608" lon="11.335795346927425"><ele>215.0</ele><time>2026-04-26T14:57:51Z</time></trkpt><trkpt lat="43.29608276127764" lon="11.33557897328363"><ele>214.0</ele><time>2026-04-26T14:57:52Z</time></trkpt><trkpt lat="43.29606205562022" lon="11.33535602908634"><ele>213.66666666666666</ele><time>2026-04-26T14:57:53Z</time></trkpt><trkpt lat="43.2960497717152" lon="11.335124983665661"><ele>213.33333333333331</ele><time>2026-04-26T14:57:54Z</time></trkpt><trkpt lat="43.296045141394295" lon="11.334894984437087"><ele>213.0</ele><time>2026-04-26T14:57:55Z</time></trkpt><trkpt lat="43.296045734564" lon="11.334660008381945"><ele>213.0</ele><time>2026-04-26T14:57:56Z</time></trkpt><trkpt lat="43.296056190733125" lon="11.334426394798008"><ele>213.0</ele><time>2026-04-26T14:57:57Z</time></trkpt><trkpt lat="43.29607661583225" lon="11.334197586461883"><ele>213.0</ele><time>2026-04-26T14:57:58Z</time></trkpt><trkpt lat="43.29610371836568" lon="11.333967160222528"><ele>212.66666666666669</ele><time>2026-04-26T14:57:59Z</time></trkpt><trkpt lat="43.2961398165607" lon="11.33373684946275"><ele>212.33333333333334</ele><time>2026-04-26T14:58:00Z</time></trkpt><trkpt lat="43.296183318373025" lon="11.333508516974927"><ele>212.0</ele><time>2026-04-26T14:58:01Z</time></trkpt><trkpt lat="43.29623745456723" lon="11.33328100663511"><ele>212.0</ele><time>2026-04-26T14:58:02Z</time></trkpt><trkpt lat="43.296297098872515" lon="11.33306434351629"><ele>212.0</ele><time>2026-04-26T14:58:03Z</time></trkpt><trkpt lat="43.296363263381494" lon="11.33285011692289"><ele>212.0</ele><time>2026-04-26T14:58:04Z</time></trkpt><trkpt lat="43.29644366150123" lon="11.332645915003644"><ele>213.33333333333334</ele><time>2026-04-26T14:58:05Z</time></trkpt><trkpt lat="43.296533397417456" lon="11.332441500436293"><ele>214.66666666666669</ele><time>2026-04-26T14:58:06Z</time></trkpt><trkpt lat="43.296622335910705" lon="11.332236868667582"><ele>216.0</ele><time>2026-04-26T14:58:07Z</time></trkpt><trkpt lat="43.29671095283737" lon="11.332029105524906"><ele>216.0</ele><time>2026-04-26T14:58:08Z</time></trkpt><trkpt lat="43.29680765104273" lon="11.331818397277388"><ele>216.0</ele><time>2026-04-26T14:58:09Z</time></trkpt><trkpt lat="43.29690924606299" lon="11.331606732039479"><ele>216.0</ele><time>2026-04-26T14:58:10Z</time></trkpt><trkpt lat="43.297016330481696" lon="11.33139417454708"><ele>216.33333333333331</ele><time>2026-04-26T14:58:11Z</time></trkpt><trkpt lat="43.29712719258086" lon="11.331183715050186"><ele>216.66666666666666</ele><time>2026-04-26T14:58:12Z</time></trkpt><trkpt lat="43.29724313054571" lon="11.330973150286841"><ele>217.0</ele><time>2026-04-26T14:58:13Z</time></trkpt><trkpt lat="43.29736303116209" lon="11.330762879984173"><ele>216.33333333333331</ele><time>2026-04-26T14:58:14Z</time></trkpt><trkpt lat="43.29748644525768" lon="11.33055293471154"><ele>215.66666666666669</ele><time>2026-04-26T14:58:15Z</time></trkpt><trkpt lat="43.297609189349515" lon="11.330337662877936"><ele>215.0</ele><time>2026-04-26T14:58:16Z</time></trkpt><trkpt lat="43.297730417708834" lon="11.330121160829206"><ele>215.0</ele><time>2026-04-26T14:58:17Z</time></trkpt><trkpt lat="43.29785391238827" lon="11.329904364442042"><ele>215.0</ele><time>2026-04-26T14:58:18Z</time></trkpt><trkpt lat="43.29797700344105" lon="11.329686591651479"><ele>215.0</ele><time>2026-04-26T14:58:19Z</time></trkpt><trkpt lat="43.29809764683652" lon="11.329462966606025"><ele>216.0</ele><time>2026-04-26T14:58:20Z</time></trkpt><trkpt lat="43.29821687258616" lon="11.329235530091548"><ele>217.0</ele><time>2026-04-26T14:58:21Z</time></trkpt><trkpt lat="43.29833489487612" lon="11.329008616314932"><ele>218.0</ele><time>2026-04-26T14:58:22Z</time></trkpt><trkpt lat="43.298457369362715" lon="11.328784571967715"><ele>218.0</ele><time>2026-04-26T14:58:23Z</time></trkpt><trkpt lat="43.29858347792169" lon="11.328564883233422"><ele>218.0</ele><time>2026-04-26T14:58:24Z</time></trkpt><trkpt lat="43.29870992002944" lon="11.328344138260983"><ele>218.0</ele><time>2026-04-26T14:58:25Z</time></trkpt><trkpt lat="43.29883608529365" lon="11.328123099541836"><ele>217.33333333333334</ele><time>2026-04-26T14:58:26Z</time></trkpt><trkpt lat="43.29895836723204" lon="11.327900941887412"><ele>216.66666666666669</ele><time>2026-04-26T14:58:27Z</time></trkpt><trkpt lat="43.29907836720054" lon="11.3276761089437"><ele>216.0</ele><time>2026-04-26T14:58:28Z</time></trkpt><trkpt lat="43.29920188673172" lon="11.327452468944305"><ele>216.0</ele><time>2026-04-26T14:58:29Z</time></trkpt><trkpt lat="43.29932789295928" lon="11.327234583094528"><ele>216.0</ele><time>2026-04-26T14:58:29.999Z</time></trkpt><trkpt lat="43.299456767103905" lon="11.327015573651115"><ele>216.0</ele><time>2026-04-26T14:58:30.999Z</time></trkpt><trkpt lat="43.299582313448056" lon="11.326792010121201"><ele>217.0</ele><time>2026-04-26T14:58:31.999Z</time></trkpt><trkpt lat="43.299706036722746" lon="11.32656452001696"><ele>218.0</ele><time>2026-04-26T14:58:32.999Z</time></trkpt><trkpt lat="43.29983455689664" lon="11.326322004630855"><ele>219.0</ele><time>2026-04-26T14:58:33.999Z</time></trkpt><trkpt lat="43.2999635867348" lon="11.326085556924486"><ele>219.66666666666669</ele><time>2026-04-26T14:58:34.999Z</time></trkpt><trkpt lat="43.30009313694583" lon="11.32584891566747"><ele>220.33333333333334</ele><time>2026-04-26T14:58:35.999Z</time></trkpt><trkpt lat="43.30022420268204" lon="11.325611206404544"><ele>221.0</ele><time>2026-04-26T14:58:36.999Z</time></trkpt><trkpt lat="43.30035541578875" lon="11.325371165152216"><ele>221.33333333333334</ele><time>2026-04-26T14:58:37.999Z</time></trkpt><trkpt lat="43.30049010373114" lon="11.3251349519387"><ele>221.66666666666669</ele><time>2026-04-26T14:58:38.999Z</time></trkpt><trkpt lat="43.3006260171732" lon="11.324894970795127"><ele>222.0</ele><time>2026-04-26T14:58:39.999Z</time></trkpt><trkpt lat="43.30076508097184" lon="11.32465556295349"><ele>222.66666666666669</ele><time>2026-04-26T14:58:40.999Z</time></trkpt><trkpt lat="43.300907609957264" lon="11.324416724646678"><ele>223.33333333333334</ele><time>2026-04-26T14:58:41.999Z</time></trkpt><trkpt lat="43.30104980828857" lon="11.324177631927009"><ele>224.0</ele><time>2026-04-26T14:58:42.999Z</time></trkpt><trkpt lat="43.301194373444226" lon="11.323934967802394"><ele>223.0</ele><time>2026-04-26T14:58:43.999Z</time></trkpt><trkpt lat="43.30134102674117" lon="11.323693421241302"><ele>222.0</ele><time>2026-04-26T14:58:44.999Z</time></trkpt><trkpt lat="43.30149092992483" lon="11.323453259742159"><ele>222.0</ele><time>2026-04-26T14:58:45.999Z</time></trkpt><trkpt lat="43.301643567694825" lon="11.323215811817384"><ele>222.0</ele><time>2026-04-26T14:58:46.999Z</time></trkpt><trkpt lat="43.30179901989117" lon="11.322977925583261"><ele>224.5</ele><time>2026-04-26T14:58:47.999Z</time></trkpt><trkpt lat="43.30195521185683" lon="11.32274202556081"><ele>227.0</ele><time>2026-04-26T14:58:48.999Z</time></trkpt><trkpt lat="43.30211372471734" lon="11.322506068879331"><ele>227.5</ele><time>2026-04-26T14:58:49.999Z</time></trkpt><trkpt lat="43.30227321023374" lon="11.322267282995375"><ele>228.0</ele><time>2026-04-26T14:58:50.999Z</time></trkpt><trkpt lat="43.3024313171082" lon="11.322026522129446"><ele>228.0</ele><time>2026-04-26T14:58:51.999Z</time></trkpt><trkpt lat="43.30258861847738" lon="11.321786086948258"><ele>228.0</ele><time>2026-04-26T14:58:52.999Z</time></trkpt><trkpt lat="43.30274709412558" lon="11.321544896402294"><ele>235.5</ele><time>2026-04-26T14:58:53.999Z</time></trkpt><trkpt lat="43.3029060810569" lon="11.321303508838545"><ele>243.0</ele><time>2026-04-26T14:58:54.999Z</time></trkpt><trkpt lat="43.30306605464903" lon="11.321061387057396"><ele>234.5</ele><time>2026-04-26T14:58:55.999Z</time></trkpt><trkpt lat="43.303226699302876" lon="11.320822693883136"><ele>226.0</ele><time>2026-04-26T14:58:56.999Z</time></trkpt><trkpt lat="43.303386298318635" lon="11.320583664934391"><ele>229.5</ele><time>2026-04-26T14:58:57.999Z</time></trkpt><trkpt lat="43.303545190559866" lon="11.320342132942939"><ele>233.0</ele><time>2026-04-26T14:58:58.999Z</time></trkpt><trkpt lat="43.30370605905374" lon="11.320101984480957"><ele>233.0</ele><time>2026-04-26T14:58:59.999Z</time></trkpt><trkpt lat="43.30386535934269" lon="11.319860186862593"><ele>233.0</ele><time>2026-04-26T14:59:00.999Z</time></trkpt><trkpt lat="43.30402202558423" lon="11.319614541183876"><ele>230.0</ele><time>2026-04-26T14:59:01.999Z</time></trkpt><trkpt lat="43.304179335914746" lon="11.319368713454944"><ele>227.0</ele><time>2026-04-26T14:59:02.999Z</time></trkpt><trkpt lat="43.30433699145504" lon="11.319124844828508"><ele>229.0</ele><time>2026-04-26T14:59:03.999Z</time></trkpt><trkpt lat="43.304498023927756" lon="11.318880438357143"><ele>231.0</ele><time>2026-04-26T14:59:04.999Z</time></trkpt><trkpt lat="43.304660791476536" lon="11.318637871533442"><ele>228.0</ele><time>2026-04-26T14:59:05.999Z</time></trkpt><trkpt lat="43.30482522099899" lon="11.318395691896875"><ele>225.0</ele><time>2026-04-26T14:59:06.999Z</time></trkpt><trkpt lat="43.30499026646954" lon="11.31815244958051"><ele>226.0</ele><time>2026-04-26T14:59:07.999Z</time></trkpt><trkpt lat="43.30515078641163" lon="11.317909216031035"><ele>227.0</ele><time>2026-04-26T14:59:08.999Z</time></trkpt><trkpt lat="43.3053163277075" lon="11.317663373431422"><ele>227.0</ele><time>2026-04-26T14:59:09.999Z</time></trkpt><trkpt lat="43.30547713124345" lon="11.31741673436967"><ele>227.0</ele><time>2026-04-26T14:59:10.999Z</time></trkpt><trkpt lat="43.30564236956267" lon="11.317169520816135"><ele>230.5</ele><time>2026-04-26T14:59:11.999Z</time></trkpt><trkpt lat="43.30580554033262" lon="11.316922903874005"><ele>234.0</ele><time>2026-04-26T14:59:12.999Z</time></trkpt><trkpt lat="43.3059746519247" lon="11.316681590183812"><ele>234.0</ele><time>2026-04-26T14:59:13.999Z</time></trkpt><trkpt lat="43.30614528828918" lon="11.316442201827876"><ele>234.0</ele><time>2026-04-26T14:59:14.999Z</time></trkpt><trkpt lat="43.30631945021951" lon="11.316207024099976"><ele>233.5</ele><time>2026-04-26T14:59:15.999Z</time></trkpt><trkpt lat="43.30649657059385" lon="11.315975284249344"><ele>233.0</ele><time>2026-04-26T14:59:16.999Z</time></trkpt><trkpt lat="43.30667706049171" lon="11.315753082293515"><ele>234.0</ele><time>2026-04-26T14:59:17.999Z</time></trkpt><trkpt lat="43.30685995314535" lon="11.315538148338735"><ele>235.0</ele><time>2026-04-26T14:59:18.999Z</time></trkpt><trkpt lat="43.30704500612082" lon="11.3153297650955"><ele>235.0</ele><time>2026-04-26T14:59:19.999Z</time></trkpt><trkpt lat="43.307231102618815" lon="11.315127458155285"><ele>235.0</ele><time>2026-04-26T14:59:20.999Z</time></trkpt><trkpt lat="43.30741729844913" lon="11.31493254810399"><ele>233.5</ele><time>2026-04-26T14:59:21.999Z</time></trkpt><trkpt lat="43.30760712539658" lon="11.314748529123946"><ele>232.0</ele><time>2026-04-26T14:59:22.999Z</time></trkpt><trkpt lat="43.30779803910175" lon="11.31457299571292"><ele>232.0</ele><time>2026-04-26T14:59:23.998Z</time></trkpt><trkpt lat="43.307986981561974" lon="11.314405350501408"><ele>232.0</ele><time>2026-04-26T14:59:24.998Z</time></trkpt><trkpt lat="43.3081700030041" lon="11.314247663215319"><ele>232.0</ele><time>2026-04-26T14:59:25.998Z</time></trkpt><trkpt lat="43.30834589139286" lon="11.314100677994396"><ele>232.66666666666666</ele><time>2026-04-26T14:59:26.998Z</time></trkpt><trkpt lat="43.30851485451417" lon="11.313961525805578"><ele>233.33333333333331</ele><time>2026-04-26T14:59:27.998Z</time></trkpt><trkpt lat="43.30867181279439" lon="11.313829709092166"><ele>234.0</ele><time>2026-04-26T14:59:28.998Z</time></trkpt><trkpt lat="43.308826752043586" lon="11.313701167138042"><ele>234.33333333333331</ele><time>2026-04-26T14:59:29.998Z</time></trkpt><trkpt lat="43.30897153122993" lon="11.31357498382726"><ele>234.66666666666666</ele><time>2026-04-26T14:59:30.998Z</time></trkpt><trkpt lat="43.30910513326228" lon="11.313459306817025"><ele>235.0</ele><time>2026-04-26T14:59:31.998Z</time></trkpt><trkpt lat="43.30922507921578" lon="11.31336336594668"><ele>235.0</ele><time>2026-04-26T14:59:32.998Z</time></trkpt><trkpt lat="43.309333012410775" lon="11.313308024657138"><ele>235.0</ele><time>2026-04-26T14:59:33.998Z</time></trkpt><trkpt lat="43.309435233991316" lon="11.313303496868567"><ele>235.0</ele><time>2026-04-26T14:59:34.998Z</time></trkpt><trkpt lat="43.30952772490518" lon="11.313354219801985"><ele>235.0</ele><time>2026-04-26T14:59:35.998Z</time></trkpt><trkpt lat="43.30959337312137" lon="11.313448480736403"><ele>235.0</ele><time>2026-04-26T14:59:36.998Z</time></trkpt><trkpt lat="43.30962868702171" lon="11.313573228827547"><ele>235.0</ele><time>2026-04-26T14:59:37.998Z</time></trkpt><trkpt lat="43.30963258853161" lon="11.313712754326342"><ele>235.0</ele><time>2026-04-26T14:59:38.998Z</time></trkpt><trkpt lat="43.309600110484176" lon="11.313847744539563"><ele>235.0</ele><time>2026-04-26T14:59:39.998Z</time></trkpt><trkpt lat="43.30953160648143" lon="11.313988049394847"><ele>235.0</ele><time>2026-04-26T14:59:40.998Z</time></trkpt><trkpt lat="43.30945240040152" lon="11.314116547397203"><ele>235.2</ele><time>2026-04-26T14:59:41.998Z</time></trkpt><trkpt lat="43.30938459516175" lon="11.314247704110802"><ele>235.4</ele><time>2026-04-26T14:59:42.998Z</time></trkpt><trkpt lat="43.30932859459552" lon="11.31436332966357"><ele>235.60000000000002</ele><time>2026-04-26T14:59:43.998Z</time></trkpt><trkpt lat="43.309277746111675" lon="11.314459406419429"><ele>235.8</ele><time>2026-04-26T14:59:45Z</time></trkpt><trkpt lat="43.30923877974584" lon="11.314541487819895"><ele>236.0</ele><time>2026-04-26T14:59:46Z</time></trkpt><trkpt lat="43.30915552014743" lon="11.314636724509006"><ele>236.00000000000003</ele><time>2026-04-26T14:59:48Z</time></trkpt><trkpt lat="43.30909485193127" lon="11.314691401932432"><ele>236.0</ele><time>2026-04-26T14:59:50Z</time></trkpt><trkpt lat="43.3090004793468" lon="11.314674942485128"><ele>236.0</ele><time>2026-04-26T14:59:52Z</time></trkpt><trkpt lat="43.308918157033816" lon="11.314610403091274"><ele>236.0</ele><time>2026-04-26T14:59:53Z</time></trkpt><trkpt lat="43.30885349075858" lon="11.314528984743482"><ele>236.00000000000003</ele><time>2026-04-26T14:59:54Z</time></trkpt><trkpt lat="43.30879599944944" lon="11.31444835498707"><ele>236.0</ele><time>2026-04-26T14:59:55Z</time></trkpt><trkpt lat="43.30872867057296" lon="11.314364307702988"><ele>235.5</ele><time>2026-04-26T14:59:56Z</time></trkpt><trkpt lat="43.30864861203694" lon="11.314274189047172"><ele>235.0</ele><time>2026-04-26T14:59:57Z</time></trkpt><trkpt lat="43.30855969023519" lon="11.314181842942448"><ele>234.5</ele><time>2026-04-26T14:59:58Z</time></trkpt><trkpt lat="43.30846174537551" lon="11.314085756285449"><ele>234.0</ele><time>2026-04-26T14:59:59Z</time></trkpt><trkpt lat="43.308362453625556" lon="11.313981950712643"><ele>236.0</ele><time>2026-04-26T15:00:00Z</time></trkpt><trkpt lat="43.30826863781426" lon="11.313878108710567"><ele>238.0</ele><time>2026-04-26T15:00:01Z</time></trkpt><trkpt lat="43.30817279573848" lon="11.313775134982556"><ele>240.0</ele><time>2026-04-26T15:00:02Z</time></trkpt><trkpt lat="43.30807449438418" lon="11.31367165027869"><ele>242.0</ele><time>2026-04-26T15:00:03Z</time></trkpt><trkpt lat="43.30797699317324" lon="11.313572792676359"><ele>243.0</ele><time>2026-04-26T15:00:04Z</time></trkpt><trkpt lat="43.307873939784294" lon="11.31349362441719"><ele>244.0</ele><time>2026-04-26T15:00:05Z</time></trkpt><trkpt lat="43.30776729504305" lon="11.31344382671742"><ele>245.0</ele><time>2026-04-26T15:00:06Z</time></trkpt><trkpt lat="43.30765349313262" lon="11.313430631481243"><ele>246.0</ele><time>2026-04-26T15:00:07Z</time></trkpt><trkpt lat="43.307533259118216" lon="11.313454737682834"><ele>246.0</ele><time>2026-04-26T15:00:08Z</time></trkpt><trkpt lat="43.3074158279941" lon="11.313514294068307"><ele>246.0</ele><time>2026-04-26T15:00:09Z</time></trkpt><trkpt lat="43.307311893708295" lon="11.313601935279985"><ele>246.0</ele><time>2026-04-26T15:00:10Z</time></trkpt><trkpt lat="43.30721688046544" lon="11.313723506565266"><ele>246.0</ele><time>2026-04-26T15:00:11Z</time></trkpt><trkpt lat="43.30712907948216" lon="11.313874533108963"><ele>245.75</ele><time>2026-04-26T15:00:12Z</time></trkpt><trkpt lat="43.30704100167244" lon="11.314035641697279"><ele>245.5</ele><time>2026-04-26T15:00:13Z</time></trkpt><trkpt lat="43.30695620261693" lon="11.314193495568373"><ele>245.25</ele><time>2026-04-26T15:00:14Z</time></trkpt><trkpt lat="43.30687706530145" lon="11.31434586709314"><ele>245.0</ele><time>2026-04-26T15:00:15Z</time></trkpt><trkpt lat="43.30679811311321" lon="11.314500632101378"><ele>245.0</ele><time>2026-04-26T15:00:16Z</time></trkpt><trkpt lat="43.30670940328985" lon="11.314643137260553"><ele>245.0</ele><time>2026-04-26T15:00:17Z</time></trkpt><trkpt lat="43.30662653327182" lon="11.314791976128687"><ele>245.0</ele><time>2026-04-26T15:00:18Z</time></trkpt><trkpt lat="43.306539962261255" lon="11.31495279795997"><ele>245.0</ele><time>2026-04-26T15:00:19Z</time></trkpt><trkpt lat="43.30645959123671" lon="11.315119147424596"><ele>245.5</ele><time>2026-04-26T15:00:20Z</time></trkpt><trkpt lat="43.30638022468109" lon="11.315291231842533"><ele>246.0</ele><time>2026-04-26T15:00:21Z</time></trkpt><trkpt lat="43.306295887177065" lon="11.315453004415376"><ele>246.5</ele><time>2026-04-26T15:00:22Z</time></trkpt><trkpt lat="43.306204362991544" lon="11.315603085628652"><ele>247.0</ele><time>2026-04-26T15:00:23Z</time></trkpt><trkpt lat="43.30609770881592" lon="11.315738862365867"><ele>247.0</ele><time>2026-04-26T15:00:24Z</time></trkpt><trkpt lat="43.30597339718991" lon="11.315853963153568"><ele>247.0</ele><time>2026-04-26T15:00:25Z</time></trkpt><trkpt lat="43.3058478010944" lon="11.315966431395905"><ele>247.0</ele><time>2026-04-26T15:00:26Z</time></trkpt><trkpt lat="43.305719756911905" lon="11.316079617283897"><ele>247.0</ele><time>2026-04-26T15:00:27Z</time></trkpt><trkpt lat="43.30559281542838" lon="11.316186720649329"><ele>247.0</ele><time>2026-04-26T15:00:28Z</time></trkpt><trkpt lat="43.30547561018142" lon="11.316291242758012"><ele>247.0</ele><time>2026-04-26T15:00:29Z</time></trkpt><trkpt lat="43.30536392866825" lon="11.316387935155744"><ele>247.0</ele><time>2026-04-26T15:00:30Z</time></trkpt><trkpt lat="43.305263476256236" lon="11.31647117301165"><ele>245.39999999999998</ele><time>2026-04-26T15:00:31Z</time></trkpt><trkpt lat="43.30516964559212" lon="11.316536138436549"><ele>243.79999999999998</ele><time>2026-04-26T15:00:32Z</time></trkpt><trkpt lat="43.305070114197726" lon="11.316572030145924"><ele>242.2</ele><time>2026-04-26T15:00:33Z</time></trkpt><trkpt lat="43.30497206271068" lon="11.316584863331997"><ele>240.6</ele><time>2026-04-26T15:00:34Z</time></trkpt><trkpt lat="43.30487077175366" lon="11.316580600133552"><ele>239.0</ele><time>2026-04-26T15:00:35Z</time></trkpt><trkpt lat="43.304773714016996" lon="11.316517622087595"><ele>238.39999999999998</ele><time>2026-04-26T15:00:36Z</time></trkpt><trkpt lat="43.30469353105206" lon="11.316430549092262"><ele>237.79999999999998</ele><time>2026-04-26T15:00:36.999Z</time></trkpt><trkpt lat="43.304616889828566" lon="11.316327479004814"><ele>237.20000000000002</ele><time>2026-04-26T15:00:37.999Z</time></trkpt><trkpt lat="43.30455946659641" lon="11.316219444610237"><ele>236.60000000000002</ele><time>2026-04-26T15:00:38.999Z</time></trkpt><trkpt lat="43.304508511876215" lon="11.316087054171128"><ele>236.0</ele><time>2026-04-26T15:00:39.999Z</time></trkpt><trkpt lat="43.3044613716417" lon="11.315930098772066"><ele>237.5</ele><time>2026-04-26T15:00:40.999Z</time></trkpt><trkpt lat="43.30440435363835" lon="11.315773277757067"><ele>239.0</ele><time>2026-04-26T15:00:41.999Z</time></trkpt><trkpt lat="43.30436153478943" lon="11.31559888341362"><ele>240.5</ele><time>2026-04-26T15:00:42.999Z</time></trkpt><trkpt lat="43.30431657102847" lon="11.315431022745733"><ele>242.0</ele><time>2026-04-26T15:00:43.999Z</time></trkpt><trkpt lat="43.30427348536445" lon="11.31526672014929"><ele>243.39999999999998</ele><time>2026-04-26T15:00:44.999Z</time></trkpt><trkpt lat="43.304238250362886" lon="11.315126306025483"><ele>244.79999999999998</ele><time>2026-04-26T15:00:45.999Z</time></trkpt><trkpt lat="43.30420166029209" lon="11.314987642896073"><ele>246.2</ele><time>2026-04-26T15:00:46.999Z</time></trkpt><trkpt lat="43.304158704778914" lon="11.314839904404664"><ele>247.6</ele><time>2026-04-26T15:00:47.999Z</time></trkpt><trkpt lat="43.304114797966" lon="11.314693385827452"><ele>249.0</ele><time>2026-04-26T15:00:48.999Z</time></trkpt><trkpt lat="43.30408027622391" lon="11.314530337998391"><ele>250.0</ele><time>2026-04-26T15:00:49.999Z</time></trkpt><trkpt lat="43.30402300318386" lon="11.314359387432557"><ele>251.0</ele><time>2026-04-26T15:00:50.999Z</time></trkpt><trkpt lat="43.30398582344174" lon="11.314178433573975"><ele>252.0</ele><time>2026-04-26T15:00:51.999Z</time></trkpt><trkpt lat="43.3039391130594" lon="11.314001762622853"><ele>253.0</ele><time>2026-04-26T15:00:52.999Z</time></trkpt><trkpt lat="43.30389326707268" lon="11.313827863721668"><ele>253.0</ele><time>2026-04-26T15:00:53.999Z</time></trkpt><trkpt lat="43.30384202011954" lon="11.313655599365175"><ele>253.0</ele><time>2026-04-26T15:00:54.999Z</time></trkpt><trkpt lat="43.303796638307595" lon="11.313482070890212"><ele>253.0</ele><time>2026-04-26T15:00:55.999Z</time></trkpt><trkpt lat="43.3037501829922" lon="11.313305153427546"><ele>253.0</ele><time>2026-04-26T15:00:56.999Z</time></trkpt><trkpt lat="43.30370031936292" lon="11.313129452665672"><ele>254.0</ele><time>2026-04-26T15:00:57.999Z</time></trkpt><trkpt lat="43.30364925125803" lon="11.312949847864612"><ele>255.0</ele><time>2026-04-26T15:00:58.999Z</time></trkpt><trkpt lat="43.30359857664866" lon="11.312768675489883"><ele>256.0</ele><time>2026-04-26T15:00:59.999Z</time></trkpt><trkpt lat="43.303548030818256" lon="11.312585331238948"><ele>257.0</ele><time>2026-04-26T15:01:00.999Z</time></trkpt><trkpt lat="43.3034982391048" lon="11.312400456469009"><ele>259.25</ele><time>2026-04-26T15:01:01.999Z</time></trkpt><trkpt lat="43.303448067483124" lon="11.312216108400225"><ele>261.5</ele><time>2026-04-26T15:01:02.999Z</time></trkpt><trkpt lat="43.30339346489225" lon="11.312034173914116"><ele>263.75</ele><time>2026-04-26T15:01:03.999Z</time></trkpt><trkpt lat="43.303334573437965" lon="11.31185780725276"><ele>266.0</ele><time>2026-04-26T15:01:04.999Z</time></trkpt><trkpt lat="43.3032650294275" lon="11.311695642536373"><ele>266.0</ele><time>2026-04-26T15:01:05.999Z</time></trkpt><trkpt lat="43.303176491711774" lon="11.311559909948896"><ele>266.0</ele><time>2026-04-26T15:01:06.999Z</time></trkpt><trkpt lat="43.30307769302593" lon="11.311443187022872"><ele>266.0</ele><time>2026-04-26T15:01:07.999Z</time></trkpt><trkpt lat="43.30297323134679" lon="11.311355578904275"><ele>266.0</ele><time>2026-04-26T15:01:08.999Z</time></trkpt><trkpt lat="43.30286461207737" lon="11.31128625732194"><ele>266.25</ele><time>2026-04-26T15:01:09.999Z</time></trkpt><trkpt lat="43.30274805268279" lon="11.311236264956241"><ele>266.5</ele><time>2026-04-26T15:01:10.999Z</time></trkpt><trkpt lat="43.302626664617094" lon="11.311213636989207"><ele>266.75</ele><time>2026-04-26T15:01:11.999Z</time></trkpt><trkpt lat="43.30250274543921" lon="11.311222350782266"><ele>267.0</ele><time>2026-04-26T15:01:12.999Z</time></trkpt><trkpt lat="43.30237817996487" lon="11.31124945988474"><ele>267.0</ele><time>2026-04-26T15:01:13.999Z</time></trkpt><trkpt lat="43.3022536812472" lon="11.311291035797868"><ele>267.0</ele><time>2026-04-26T15:01:14.999Z</time></trkpt><trkpt lat="43.30213433305614" lon="11.311344334901591"><ele>267.0</ele><time>2026-04-26T15:01:15.999Z</time></trkpt><trkpt lat="43.302023584874995" lon="11.31139664144197"><ele>267.0</ele><time>2026-04-26T15:01:16.999Z</time></trkpt><trkpt lat="43.301918709027355" lon="11.311456890579702"><ele>267.0</ele><time>2026-04-26T15:01:17.999Z</time></trkpt><trkpt lat="43.30182004707957" lon="11.311507001375137"><ele>267.0</ele><time>2026-04-26T15:01:18.999Z</time></trkpt><trkpt lat="43.30172502164398" lon="11.311548849936107"><ele>267.0</ele><time>2026-04-26T15:01:19.999Z</time></trkpt><trkpt lat="43.30161817869102" lon="11.311581522593473"><ele>267.0</ele><time>2026-04-26T15:01:20.999Z</time></trkpt><trkpt lat="43.30149818557605" lon="11.311594439714007"><ele>267.0</ele><time>2026-04-26T15:01:21.999Z</time></trkpt><trkpt lat="43.301377810106125" lon="11.311574765758234"><ele>267.0</ele><time>2026-04-26T15:01:22.999Z</time></trkpt><trkpt lat="43.30127713121899" lon="11.311485825768694"><ele>267.0</ele><time>2026-04-26T15:01:23.999Z</time></trkpt><trkpt lat="43.301193401331055" lon="11.311392987521868"><ele>267.0</ele><time>2026-04-26T15:01:24.999Z</time></trkpt><trkpt lat="43.30112058214935" lon="11.311283422304626"><ele>267.0</ele><time>2026-04-26T15:01:25.999Z</time></trkpt><trkpt lat="43.3010499397323" lon="11.31115006871215"><ele>267.25</ele><time>2026-04-26T15:01:26.999Z</time></trkpt><trkpt lat="43.30097428050828" lon="11.31100227545726"><ele>267.5</ele><time>2026-04-26T15:01:27.999Z</time></trkpt><trkpt lat="43.30088239730163" lon="11.310851432720629"><ele>267.75</ele><time>2026-04-26T15:01:28.999Z</time></trkpt><trkpt lat="43.30080794225208" lon="11.310698763514223"><ele>268.0</ele><time>2026-04-26T15:01:29.999Z</time></trkpt><trkpt lat="43.3007262966843" lon="11.310543817501227"><ele>268.0</ele><time>2026-04-26T15:01:30.998Z</time></trkpt><trkpt lat="43.300645656967724" lon="11.310389552003963"><ele>268.0</ele><time>2026-04-26T15:01:31.998Z</time></trkpt><trkpt lat="43.30056300795449" lon="11.310221372394599"><ele>268.0</ele><time>2026-04-26T15:01:32.998Z</time></trkpt><trkpt lat="43.300481912863404" lon="11.310058615665792"><ele>268.0</ele><time>2026-04-26T15:01:33.998Z</time></trkpt><trkpt lat="43.3003981161036" lon="11.30990002951517"><ele>265.25</ele><time>2026-04-26T15:01:34.998Z</time></trkpt><trkpt lat="43.30031990506807" lon="11.309751136946428"><ele>262.5</ele><time>2026-04-26T15:01:35.998Z</time></trkpt><trkpt lat="43.30024436499712" lon="11.309602930964639"><ele>259.75</ele><time>2026-04-26T15:01:36.998Z</time></trkpt><trkpt lat="43.30016487556103" lon="11.309451080184404"><ele>257.0</ele><time>2026-04-26T15:01:37.998Z</time></trkpt><trkpt lat="43.30007617719475" lon="11.309307588809432"><ele>257.0</ele><time>2026-04-26T15:01:38.998Z</time></trkpt><trkpt lat="43.29997699258893" lon="11.309184891797187"><ele>257.0</ele><time>2026-04-26T15:01:39.998Z</time></trkpt><trkpt lat="43.29987430378757" lon="11.309081071137271"><ele>257.0</ele><time>2026-04-26T15:01:40.998Z</time></trkpt><trkpt lat="43.29976382112366" lon="11.30898237177286"><ele>257.0</ele><time>2026-04-26T15:01:41.998Z</time></trkpt><trkpt lat="43.29964799967093" lon="11.308902247622429"><ele>254.0</ele><time>2026-04-26T15:01:42.998Z</time></trkpt><trkpt lat="43.29953185012934" lon="11.308841502363943"><ele>251.0</ele><time>2026-04-26T15:01:43.998Z</time></trkpt><trkpt lat="43.29940385623396" lon="11.308801386194325"><ele>248.0</ele><time>2026-04-26T15:01:44.998Z</time></trkpt><trkpt lat="43.29929037205811" lon="11.308779807614712"><ele>245.0</ele><time>2026-04-26T15:01:45.998Z</time></trkpt><trkpt lat="43.29919393984462" lon="11.308780589672924"><ele>245.00000000000003</ele><time>2026-04-26T15:01:46.998Z</time></trkpt><trkpt lat="43.299097702999184" lon="11.308793735780917"><ele>245.0</ele><time>2026-04-26T15:01:47.998Z</time></trkpt><trkpt lat="43.29900835440303" lon="11.308797555518735"><ele>245.0</ele><time>2026-04-26T15:01:48.998Z</time></trkpt><trkpt lat="43.2989182494538" lon="11.30880625902596"><ele>245.0</ele><time>2026-04-26T15:01:49.998Z</time></trkpt><trkpt lat="43.29883450935402" lon="11.308805673856051"><ele>245.00000000000003</ele><time>2026-04-26T15:01:51Z</time></trkpt><trkpt lat="43.29875101084583" lon="11.308813717841517"><ele>245.0</ele><time>2026-04-26T15:01:52Z</time></trkpt><trkpt lat="43.2986686600969" lon="11.30883740987851"><ele>244.2</ele><time>2026-04-26T15:01:53Z</time></trkpt><trkpt lat="43.29860433776709" lon="11.308877239575093"><ele>243.4</ele><time>2026-04-26T15:01:54Z</time></trkpt><trkpt lat="43.29851532462773" lon="11.30884740525787"><ele>242.60000000000002</ele><time>2026-04-26T15:01:56Z</time></trkpt><trkpt lat="43.298544164756855" lon="11.3091450279741"><ele>241.8</ele><time>2026-04-26T15:02:02Z</time></trkpt><trkpt lat="43.298597105787856" lon="11.309194972895773"><ele>241.0</ele><time>2026-04-26T15:02:05Z</time></trkpt><trkpt lat="43.29853028831284" lon="11.309144759113527"><ele>241.0</ele><time>2026-04-26T15:02:17Z</time></trkpt><trkpt lat="43.29852170060449" lon="11.309052963546096"><ele>241.0</ele><time>2026-04-26T15:02:20Z</time></trkpt><trkpt lat="43.2985262618386" lon="11.3089658917282"><ele>241.0</ele><time>2026-04-26T15:02:22Z</time></trkpt><trkpt lat="43.298531048105716" lon="11.308874523147459"><ele>241.0</ele><time>2026-04-26T15:02:28Z</time></trkpt><trkpt lat="43.298248409211375" lon="11.3088629637109"><ele>241.0</ele><time>2026-04-26T15:02:32Z</time></trkpt><trkpt lat="43.298161448893964" lon="11.308867431887911"><ele>241.0</ele><time>2026-04-26T15:02:33Z</time></trkpt><trkpt lat="43.29808433149199" lon="11.30886554913575"><ele>241.0</ele><time>2026-04-26T15:02:34Z</time></trkpt><trkpt lat="43.29801628130029" lon="11.308866903184466"><ele>241.0</ele><time>2026-04-26T15:02:35Z</time></trkpt><trkpt lat="43.2983854369455" lon="11.308895766831034"><ele>243.0</ele><time>2026-04-26T15:02:36Z</time></trkpt><trkpt lat="43.297780873051614" lon="11.308979144357085"><ele>243.0</ele><time>2026-04-26T15:02:37Z</time></trkpt><trkpt lat="43.29768928968841" lon="11.308973338552851"><ele>243.0</ele><time>2026-04-26T15:02:38Z</time></trkpt><trkpt lat="43.297593970191514" lon="11.308885633419512"><ele>243.0</ele><time>2026-04-26T15:02:39Z</time></trkpt><trkpt lat="43.297494401486944" lon="11.308888977334165"><ele>243.0</ele><time>2026-04-26T15:02:40Z</time></trkpt><trkpt lat="43.2973948361969" lon="11.308893765346651"><ele>243.0</ele><time>2026-04-26T15:02:41Z</time></trkpt><trkpt lat="43.29729919670511" lon="11.30890107859306"><ele>242.66666666666666</ele><time>2026-04-26T15:02:42Z</time></trkpt><trkpt lat="43.29720731965059" lon="11.308904605638155"><ele>242.33333333333331</ele><time>2026-04-26T15:02:43Z</time></trkpt><trkpt lat="43.2971194535537" lon="11.308888867353105"><ele>242.0</ele><time>2026-04-26T15:02:44Z</time></trkpt><trkpt lat="43.29703584539439" lon="11.308845196642855"><ele>241.66666666666666</ele><time>2026-04-26T15:02:45Z</time></trkpt><trkpt lat="43.29695174100276" lon="11.308795209939989"><ele>241.33333333333331</ele><time>2026-04-26T15:02:45.999Z</time></trkpt><trkpt lat="43.296866748633036" lon="11.30877885746885"><ele>241.0</ele><time>2026-04-26T15:02:46.999Z</time></trkpt><trkpt lat="43.296765975249755" lon="11.30878215915727"><ele>241.0</ele><time>2026-04-26T15:02:47.999Z</time></trkpt><trkpt lat="43.29665670708001" lon="11.308767602291441"><ele>241.0</ele><time>2026-04-26T15:02:48.999Z</time></trkpt><trkpt lat="43.296545430325686" lon="11.308724690702672"><ele>241.0</ele><time>2026-04-26T15:02:49.999Z</time></trkpt><trkpt lat="43.29642618190683" lon="11.30867303427076"><ele>241.0</ele><time>2026-04-26T15:02:50.999Z</time></trkpt><trkpt lat="43.29630879201482" lon="11.308640421601584"><ele>240.75</ele><time>2026-04-26T15:02:51.999Z</time></trkpt><trkpt lat="43.29619270535165" lon="11.308606719330653"><ele>240.5</ele><time>2026-04-26T15:02:52.999Z</time></trkpt><trkpt lat="43.29607878844251" lon="11.308570498231154"><ele>240.25</ele><time>2026-04-26T15:02:53.999Z</time></trkpt><trkpt lat="43.29596947762982" lon="11.308535317176524"><ele>240.0</ele><time>2026-04-26T15:02:54.999Z</time></trkpt><trkpt lat="43.29586049077669" lon="11.308507984700169"><ele>240.0</ele><time>2026-04-26T15:02:55.999Z</time></trkpt><trkpt lat="43.295751455338205" lon="11.30847955852834"><ele>240.0</ele><time>2026-04-26T15:02:56.999Z</time></trkpt><trkpt lat="43.29564411195561" lon="11.308452199258461"><ele>240.0</ele><time>2026-04-26T15:02:57.999Z</time></trkpt><trkpt lat="43.29553408710963" lon="11.308426479820213"><ele>240.0</ele><time>2026-04-26T15:02:58.999Z</time></trkpt><trkpt lat="43.29542522735188" lon="11.308400314272054"><ele>240.0</ele><time>2026-04-26T15:02:59.999Z</time></trkpt><trkpt lat="43.295311408252694" lon="11.308370038737653"><ele>239.75</ele><time>2026-04-26T15:03:00.999Z</time></trkpt><trkpt lat="43.29519723153636" lon="11.308331501721277"><ele>239.5</ele><time>2026-04-26T15:03:01.999Z</time></trkpt><trkpt lat="43.295082246163844" lon="11.308276727643797"><ele>239.25</ele><time>2026-04-26T15:03:02.999Z</time></trkpt><trkpt lat="43.29496964192381" lon="11.308205713696173"><ele>239.0</ele><time>2026-04-26T15:03:03.999Z</time></trkpt><trkpt lat="43.294859646284685" lon="11.308121957093467"><ele>238.5</ele><time>2026-04-26T15:03:04.999Z</time></trkpt><trkpt lat="43.29474872474568" lon="11.30802793293258"><ele>238.0</ele><time>2026-04-26T15:03:05.999Z</time></trkpt><trkpt lat="43.294638045476724" lon="11.307924301366834"><ele>237.5</ele><time>2026-04-26T15:03:06.999Z</time></trkpt><trkpt lat="43.29452597032029" lon="11.307818326526272"><ele>237.0</ele><time>2026-04-26T15:03:07.999Z</time></trkpt><trkpt lat="43.2944127474308" lon="11.307706986498989"><ele>237.0</ele><time>2026-04-26T15:03:08.999Z</time></trkpt><trkpt lat="43.29429630967293" lon="11.307593512130135"><ele>237.0</ele><time>2026-04-26T15:03:09.999Z</time></trkpt><trkpt lat="43.29417782749532" lon="11.307482232622583"><ele>237.0</ele><time>2026-04-26T15:03:10.999Z</time></trkpt><trkpt lat="43.2940615084356" lon="11.307369946859406"><ele>237.0</ele><time>2026-04-26T15:03:11.999Z</time></trkpt><trkpt lat="43.29394503172255" lon="11.307258173521076"><ele>238.0</ele><time>2026-04-26T15:03:12.999Z</time></trkpt><trkpt lat="43.293708950453855" lon="11.307044091233262"><ele>239.0</ele><time>2026-04-26T15:03:14.999Z</time></trkpt><trkpt lat="43.293592754246994" lon="11.306941660150517"><ele>240.0</ele><time>2026-04-26T15:03:15.999Z</time></trkpt><trkpt lat="43.29347272753866" lon="11.306847262338692"><ele>240.0</ele><time>2026-04-26T15:03:16.999Z</time></trkpt><trkpt lat="43.29334862668841" lon="11.30677798347412"><ele>240.0</ele><time>2026-04-26T15:03:17.999Z</time></trkpt><trkpt lat="43.29321130399975" lon="11.306740155940732"><ele>240.0</ele><time>2026-04-26T15:03:18.999Z</time></trkpt><trkpt lat="43.29307422207218" lon="11.306747528931252"><ele>240.0</ele><time>2026-04-26T15:03:19.999Z</time></trkpt><trkpt lat="43.2929485365555" lon="11.30671852090016"><ele>244.66666666666669</ele><time>2026-04-26T15:03:20.999Z</time></trkpt><trkpt lat="43.292827084351565" lon="11.306896869708705"><ele>249.33333333333334</ele><time>2026-04-26T15:03:21.999Z</time></trkpt><trkpt lat="43.29271420756342" lon="11.307004069581613"><ele>254.0</ele><time>2026-04-26T15:03:22.999Z</time></trkpt><trkpt lat="43.29260225054649" lon="11.30711455594769"><ele>254.0</ele><time>2026-04-26T15:03:23.999Z</time></trkpt><trkpt lat="43.292491635233" lon="11.307231520862155"><ele>254.0</ele><time>2026-04-26T15:03:24.999Z</time></trkpt><trkpt lat="43.29238016925767" lon="11.307345695290756"><ele>254.0</ele><time>2026-04-26T15:03:25.999Z</time></trkpt><trkpt lat="43.29227696853734" lon="11.307452313943108"><ele>254.0</ele><time>2026-04-26T15:03:26.999Z</time></trkpt><trkpt lat="43.292171390256975" lon="11.307533007854921"><ele>255.39999999999998</ele><time>2026-04-26T15:03:27.999Z</time></trkpt><trkpt lat="43.29205594739477" lon="11.307566593765845"><ele>256.79999999999995</ele><time>2026-04-26T15:03:28.999Z</time></trkpt><trkpt lat="43.29194549813028" lon="11.307532165463854"><ele>258.20000000000005</ele><time>2026-04-26T15:03:29.999Z</time></trkpt><trkpt lat="43.291872583459096" lon="11.307437851759987"><ele>259.6</ele><time>2026-04-26T15:03:30.999Z</time></trkpt><trkpt lat="43.29184914313109" lon="11.307314212331157"><ele>261.0</ele><time>2026-04-26T15:03:31.999Z</time></trkpt><trkpt lat="43.29186840219332" lon="11.307179416606955"><ele>262.0</ele><time>2026-04-26T15:03:32.999Z</time></trkpt><trkpt lat="43.29192075235223" lon="11.307049701736066"><ele>263.0</ele><time>2026-04-26T15:03:33.999Z</time></trkpt><trkpt lat="43.29200404576574" lon="11.306939028775197"><ele>264.0</ele><time>2026-04-26T15:03:34.999Z</time></trkpt><trkpt lat="43.2920918164628" lon="11.306830140320113"><ele>265.0</ele><time>2026-04-26T15:03:35.999Z</time></trkpt><trkpt lat="43.29218534104588" lon="11.306722872318007"><ele>263.8</ele><time>2026-04-26T15:03:36.999Z</time></trkpt><trkpt lat="43.29227555098577" lon="11.306619256384886"><ele>262.6</ele><time>2026-04-26T15:03:37.999Z</time></trkpt><trkpt lat="43.29234970266326" lon="11.306504237140077"><ele>261.4</ele><time>2026-04-26T15:03:38.999Z</time></trkpt><trkpt lat="43.292397087556274" lon="11.306380070739008"><ele>260.2</ele><time>2026-04-26T15:03:39.998Z</time></trkpt><trkpt lat="43.29239724189214" lon="11.30624772256067"><ele>259.0</ele><time>2026-04-26T15:03:40.998Z</time></trkpt><trkpt lat="43.292362773744905" lon="11.306120882084533"><ele>259.0</ele><time>2026-04-26T15:03:41.998Z</time></trkpt><trkpt lat="43.29230668310636" lon="11.306023936756318"><ele>259.0</ele><time>2026-04-26T15:03:42.998Z</time></trkpt><trkpt lat="43.29223247561876" lon="11.305933362285646"><ele>259.0</ele><time>2026-04-26T15:03:43.998Z</time></trkpt><trkpt lat="43.2921679318501" lon="11.30586035138125"><ele>259.0</ele><time>2026-04-26T15:03:44.998Z</time></trkpt><trkpt lat="43.29210952708549" lon="11.305781973609657"><ele>259.0</ele><time>2026-04-26T15:03:45.998Z</time></trkpt><trkpt lat="43.29204451471704" lon="11.305710320968023"><ele>259.0</ele><time>2026-04-26T15:03:46.998Z</time></trkpt><trkpt lat="43.2920162953422" lon="11.30563128758972"><ele>260.8333333333333</ele><time>2026-04-26T15:03:47.998Z</time></trkpt><trkpt lat="43.29197006765689" lon="11.305551754611086"><ele>262.66666666666663</ele><time>2026-04-26T15:03:48.998Z</time></trkpt><trkpt lat="43.29193610075757" lon="11.30546486255792"><ele>264.5</ele><time>2026-04-26T15:03:49.998Z</time></trkpt><trkpt lat="43.29189822749163" lon="11.305382475850278"><ele>266.3333333333333</ele><time>2026-04-26T15:03:50.998Z</time></trkpt><trkpt lat="43.29186696935843" lon="11.30530296141171"><ele>268.1666666666667</ele><time>2026-04-26T15:03:51.998Z</time></trkpt><trkpt lat="43.29183741555734" lon="11.30520770477974"><ele>270.0</ele><time>2026-04-26T15:03:52.998Z</time></trkpt><trkpt lat="43.291813666336196" lon="11.305040655400283"><ele>270.0</ele><time>2026-04-26T15:03:54.998Z</time></trkpt><trkpt lat="43.29181213052061" lon="11.304946587499794"><ele>270.0</ele><time>2026-04-26T15:03:56Z</time></trkpt><trkpt lat="43.29181694446016" lon="11.304841260598359"><ele>270.0</ele><time>2026-04-26T15:03:57Z</time></trkpt><trkpt lat="43.29181725995287" lon="11.304735500768464"><ele>270.0</ele><time>2026-04-26T15:03:58Z</time></trkpt><trkpt lat="43.29181563512467" lon="11.304639360819701"><ele>270.0</ele><time>2026-04-26T15:03:59Z</time></trkpt><trkpt lat="43.29180432606846" lon="11.304490688867839"><ele>270.0</ele><time>2026-04-26T15:04:01Z</time></trkpt><trkpt lat="43.29185607377495" lon="11.304334878870204"><ele>270.3333333333333</ele><time>2026-04-26T15:04:03Z</time></trkpt><trkpt lat="43.29181542817248" lon="11.30419562960168"><ele>270.6666666666667</ele><time>2026-04-26T15:04:05Z</time></trkpt><trkpt lat="43.29178056223554" lon="11.304122015249412"><ele>271.0</ele><time>2026-04-26T15:04:08Z</time></trkpt><trkpt lat="43.291801206781116" lon="11.304211874193143"><ele>271.33333333333337</ele><time>2026-04-26T15:04:46Z</time></trkpt><trkpt lat="43.29187119901625" lon="11.30419886160696"><ele>271.6666666666667</ele><time>2026-04-26T15:04:58.999Z</time></trkpt><trkpt lat="43.29195036820109" lon="11.30407240688402"><ele>272.0</ele><time>2026-04-26T15:05:00.999Z</time></trkpt><trkpt lat="43.2919725338884" lon="11.303985486729582"><ele>272.2</ele><time>2026-04-26T15:05:01.999Z</time></trkpt><trkpt lat="43.29200100435888" lon="11.303792666086526"><ele>272.4</ele><time>2026-04-26T15:05:03.999Z</time></trkpt><trkpt lat="43.29201648803934" lon="11.303659346144348"><ele>272.6</ele><time>2026-04-26T15:05:04.999Z</time></trkpt><trkpt lat="43.29202914105439" lon="11.303544073313866"><ele>272.8</ele><time>2026-04-26T15:05:05.999Z</time></trkpt><trkpt lat="43.29202829301156" lon="11.303433410528338"><ele>273.0</ele><time>2026-04-26T15:05:06.999Z</time></trkpt><trkpt lat="43.2920206613937" lon="11.30332838274613"><ele>273.0</ele><time>2026-04-26T15:05:07.999Z</time></trkpt><trkpt lat="43.292031726105776" lon="11.303242107731817"><ele>273.0</ele><time>2026-04-26T15:05:08.999Z</time></trkpt><trkpt lat="43.292018528604444" lon="11.303125818243128"><ele>273.0</ele><time>2026-04-26T15:05:10.999Z</time></trkpt><trkpt lat="43.29200935675471" lon="11.302987148685165"><ele>273.0</ele><time>2026-04-26T15:05:12.999Z</time></trkpt><trkpt lat="43.29200825808408" lon="11.302824752705567"><ele>273.0</ele><time>2026-04-26T15:05:14.999Z</time></trkpt><trkpt lat="43.29200621570196" lon="11.30271822710203"><ele>273.0</ele><time>2026-04-26T15:05:15.999Z</time></trkpt><trkpt lat="43.29200837087318" lon="11.30260090460029"><ele>271.8</ele><time>2026-04-26T15:05:16.999Z</time></trkpt><trkpt lat="43.29201102750525" lon="11.302474858682967"><ele>270.6</ele><time>2026-04-26T15:05:17.999Z</time></trkpt><trkpt lat="43.292013661692586" lon="11.302346185583454"><ele>269.4</ele><time>2026-04-26T15:05:18.999Z</time></trkpt><trkpt lat="43.292012874766286" lon="11.302209977881612"><ele>268.2</ele><time>2026-04-26T15:05:19.999Z</time></trkpt><trkpt lat="43.29202160150276" lon="11.302067371538685"><ele>267.0</ele><time>2026-04-26T15:05:20.999Z</time></trkpt><trkpt lat="43.29203422619083" lon="11.301924095536524"><ele>266.25</ele><time>2026-04-26T15:05:21.999Z</time></trkpt><trkpt lat="43.29204946979541" lon="11.301774274895868"><ele>265.5</ele><time>2026-04-26T15:05:22.999Z</time></trkpt><trkpt lat="43.292068348788355" lon="11.301613142984854"><ele>264.75</ele><time>2026-04-26T15:05:23.999Z</time></trkpt><trkpt lat="43.29208974598391" lon="11.301450666763966"><ele>264.0</ele><time>2026-04-26T15:05:24.999Z</time></trkpt><trkpt lat="43.29211388775115" lon="11.30129003206993"><ele>262.75</ele><time>2026-04-26T15:05:25.999Z</time></trkpt><trkpt lat="43.29213644865444" lon="11.301131257419701"><ele>261.5</ele><time>2026-04-26T15:05:26.999Z</time></trkpt><trkpt lat="43.29216189925491" lon="11.300962553439009"><ele>260.25</ele><time>2026-04-26T15:05:27.999Z</time></trkpt><trkpt lat="43.29218774955219" lon="11.30079165092862"><ele>259.0</ele><time>2026-04-26T15:05:28.999Z</time></trkpt><trkpt lat="43.292215228383434" lon="11.300616423826435"><ele>258.5</ele><time>2026-04-26T15:05:29.999Z</time></trkpt><trkpt lat="43.29224522801595" lon="11.3004358833339"><ele>258.0</ele><time>2026-04-26T15:05:30.999Z</time></trkpt><trkpt lat="43.292261914756516" lon="11.300256447158759"><ele>257.5</ele><time>2026-04-26T15:05:31.999Z</time></trkpt><trkpt lat="43.292286977131866" lon="11.300066383570202"><ele>257.0</ele><time>2026-04-26T15:05:32.999Z</time></trkpt><trkpt lat="43.2923099784121" lon="11.299871438788934"><ele>260.25</ele><time>2026-04-26T15:05:33.999Z</time></trkpt><trkpt lat="43.29234899313991" lon="11.299676404878936"><ele>263.5</ele><time>2026-04-26T15:05:34.999Z</time></trkpt><trkpt lat="43.292383490040244" lon="11.29947200496643"><ele>266.75</ele><time>2026-04-26T15:05:35.999Z</time></trkpt><trkpt lat="43.29241020722015" lon="11.299271794318598"><ele>270.0</ele><time>2026-04-26T15:05:36.999Z</time></trkpt><trkpt lat="43.292433577986095" lon="11.299078790025295"><ele>269.75</ele><time>2026-04-26T15:05:37.999Z</time></trkpt><trkpt lat="43.29245578523801" lon="11.298883082605318"><ele>269.5</ele><time>2026-04-26T15:05:38.999Z</time></trkpt><trkpt lat="43.29247582311606" lon="11.298685196240006"><ele>269.25</ele><time>2026-04-26T15:05:39.999Z</time></trkpt><trkpt lat="43.29248766575984" lon="11.298491797522937"><ele>269.0</ele><time>2026-04-26T15:05:40.999Z</time></trkpt><trkpt lat="43.292490248699885" lon="11.29830046185553"><ele>269.0</ele><time>2026-04-26T15:05:41.999Z</time></trkpt><trkpt lat="43.29248441481416" lon="11.298106530104407"><ele>269.0</ele><time>2026-04-26T15:05:42.999Z</time></trkpt><trkpt lat="43.29248422473356" lon="11.29791079465496"><ele>269.0</ele><time>2026-04-26T15:05:43.998Z</time></trkpt><trkpt lat="43.29248037516589" lon="11.297717589396331"><ele>269.0</ele><time>2026-04-26T15:05:44.998Z</time></trkpt><trkpt lat="43.292479582706626" lon="11.297524315747918"><ele>269.0</ele><time>2026-04-26T15:05:45.998Z</time></trkpt><trkpt lat="43.29248553561484" lon="11.297324979587792"><ele>269.0</ele><time>2026-04-26T15:05:46.998Z</time></trkpt><trkpt lat="43.29250200429401" lon="11.297118525682967"><ele>269.0</ele><time>2026-04-26T15:05:47.998Z</time></trkpt><trkpt lat="43.29253119618224" lon="11.296915860413458"><ele>269.0</ele><time>2026-04-26T15:05:48.998Z</time></trkpt><trkpt lat="43.292570345559106" lon="11.296711892333116"><ele>269.0</ele><time>2026-04-26T15:05:49.998Z</time></trkpt><trkpt lat="43.29261387822118" lon="11.296509782455624"><ele>269.0</ele><time>2026-04-26T15:05:50.998Z</time></trkpt><trkpt lat="43.29266472751838" lon="11.296306008350035"><ele>269.0</ele><time>2026-04-26T15:05:51.998Z</time></trkpt><trkpt lat="43.292719574583636" lon="11.296106629585784"><ele>269.0</ele><time>2026-04-26T15:05:52.998Z</time></trkpt><trkpt lat="43.29277824967219" lon="11.295909684242073"><ele>269.0</ele><time>2026-04-26T15:05:53.998Z</time></trkpt><trkpt lat="43.29283971187712" lon="11.295714155111234"><ele>269.0</ele><time>2026-04-26T15:05:54.998Z</time></trkpt><trkpt lat="43.292903624560616" lon="11.295518120951165"><ele>270.0</ele><time>2026-04-26T15:05:55.998Z</time></trkpt><trkpt lat="43.292968299224015" lon="11.295326116327903"><ele>271.0</ele><time>2026-04-26T15:05:56.998Z</time></trkpt><trkpt lat="43.29303210603885" lon="11.295133355785966"><ele>272.0</ele><time>2026-04-26T15:05:57.998Z</time></trkpt><trkpt lat="43.29309412764137" lon="11.29494414876111"><ele>272.0</ele><time>2026-04-26T15:05:58.998Z</time></trkpt><trkpt lat="43.29315524912902" lon="11.294760835807585"><ele>272.0</ele><time>2026-04-26T15:05:59.998Z</time></trkpt><trkpt lat="43.293212304945534" lon="11.294586273658805"><ele>272.0</ele><time>2026-04-26T15:06:00.998Z</time></trkpt><trkpt lat="43.2932530362592" lon="11.29440805887034"><ele>272.0</ele><time>2026-04-26T15:06:02Z</time></trkpt><trkpt lat="43.293272593901925" lon="11.294218093436772"><ele>272.0</ele><time>2026-04-26T15:06:03Z</time></trkpt><trkpt lat="43.29327836139137" lon="11.294015922225224"><ele>272.0</ele><time>2026-04-26T15:06:04Z</time></trkpt><trkpt lat="43.2932805819327" lon="11.293807021427266"><ele>272.0</ele><time>2026-04-26T15:06:05Z</time></trkpt><trkpt lat="43.293276060172964" lon="11.29360378648164"><ele>272.0</ele><time>2026-04-26T15:06:06Z</time></trkpt><trkpt lat="43.29325367927937" lon="11.293388281892879"><ele>272.0</ele><time>2026-04-26T15:06:07Z</time></trkpt><trkpt lat="43.293193523942826" lon="11.293180234402032"><ele>272.0</ele><time>2026-04-26T15:06:08Z</time></trkpt><trkpt lat="43.2931130382749" lon="11.292977588758927"><ele>272.0</ele><time>2026-04-26T15:06:09Z</time></trkpt><trkpt lat="43.293034672530695" lon="11.292775069617024"><ele>272.33333333333337</ele><time>2026-04-26T15:06:10Z</time></trkpt><trkpt lat="43.29296048723869" lon="11.292561428520692"><ele>272.6666666666667</ele><time>2026-04-26T15:06:11Z</time></trkpt><trkpt lat="43.292893569986" lon="11.29234751638368"><ele>273.0</ele><time>2026-04-26T15:06:12Z</time></trkpt><trkpt lat="43.292824825467704" lon="11.292140619210997"><ele>272.25</ele><time>2026-04-26T15:06:13Z</time></trkpt><trkpt lat="43.292756915840855" lon="11.291942654074848"><ele>271.5</ele><time>2026-04-26T15:06:14Z</time></trkpt><trkpt lat="43.2927015769269" lon="11.291753137803125"><ele>270.75</ele><time>2026-04-26T15:06:15Z</time></trkpt><trkpt lat="43.292660931337004" lon="11.29156693219943"><ele>270.0</ele><time>2026-04-26T15:06:16Z</time></trkpt><trkpt lat="43.29264301668933" lon="11.291388323342245"><ele>268.5</ele><time>2026-04-26T15:06:17Z</time></trkpt><trkpt lat="43.292651810057414" lon="11.291219585315307"><ele>267.0</ele><time>2026-04-26T15:06:18Z</time></trkpt><trkpt lat="43.292679648766686" lon="11.291044868407754"><ele>265.5</ele><time>2026-04-26T15:06:19Z</time></trkpt><trkpt lat="43.29270357900095" lon="11.290866421797677"><ele>264.0</ele><time>2026-04-26T15:06:20Z</time></trkpt><trkpt lat="43.29271366360637" lon="11.29067607011135"><ele>263.5</ele><time>2026-04-26T15:06:21Z</time></trkpt><trkpt lat="43.292717592745326" lon="11.290478729167196"><ele>263.0</ele><time>2026-04-26T15:06:22Z</time></trkpt><trkpt lat="43.29271517959892" lon="11.290278089432999"><ele>262.5</ele><time>2026-04-26T15:06:23Z</time></trkpt><trkpt lat="43.292698706573894" lon="11.290071047341117"><ele>262.0</ele><time>2026-04-26T15:06:24Z</time></trkpt><trkpt lat="43.29267073201873" lon="11.289876888622857"><ele>261.25</ele><time>2026-04-26T15:06:25Z</time></trkpt><trkpt lat="43.29266190207784" lon="11.28968567119528"><ele>260.5</ele><time>2026-04-26T15:06:26Z</time></trkpt><trkpt lat="43.292690743632114" lon="11.289503953923802"><ele>259.75</ele><time>2026-04-26T15:06:27Z</time></trkpt><trkpt lat="43.29275487364118" lon="11.289350001774292"><ele>259.0</ele><time>2026-04-26T15:06:28Z</time></trkpt><trkpt lat="43.29284954671399" lon="11.289238729612181"><ele>259.0</ele><time>2026-04-26T15:06:29Z</time></trkpt><trkpt lat="43.29297852752623" lon="11.289158869875775"><ele>259.0</ele><time>2026-04-26T15:06:30Z</time></trkpt><trkpt lat="43.29310558866823" lon="11.289069091894437"><ele>259.0</ele><time>2026-04-26T15:06:31Z</time></trkpt><trkpt lat="43.293215964207555" lon="11.28895388263616"><ele>259.0</ele><time>2026-04-26T15:06:32Z</time></trkpt><trkpt lat="43.2932964528757" lon="11.288815042727043"><ele>261.0</ele><time>2026-04-26T15:06:33Z</time></trkpt><trkpt lat="43.29335133208066" lon="11.288649543474198"><ele>263.0</ele><time>2026-04-26T15:06:34Z</time></trkpt><trkpt lat="43.29337185818548" lon="11.28847661579374"><ele>265.0</ele><time>2026-04-26T15:06:35Z</time></trkpt><trkpt lat="43.293364024786676" lon="11.288307978674629"><ele>267.0</ele><time>2026-04-26T15:06:36Z</time></trkpt><trkpt lat="43.293351696521796" lon="11.288146625688578"><ele>267.5</ele><time>2026-04-26T15:06:37Z</time></trkpt><trkpt lat="43.29331153912986" lon="11.287956986100092"><ele>268.0</ele><time>2026-04-26T15:06:38Z</time></trkpt><trkpt lat="43.29326588054531" lon="11.287770167146006"><ele>268.5</ele><time>2026-04-26T15:06:39Z</time></trkpt><trkpt lat="43.293213530381294" lon="11.28759944039827"><ele>269.0</ele><time>2026-04-26T15:06:40Z</time></trkpt><trkpt lat="43.29316626680921" lon="11.28743975942802"><ele>269.0</ele><time>2026-04-26T15:06:41Z</time></trkpt><trkpt lat="43.293116879258584" lon="11.287290776176706"><ele>269.0</ele><time>2026-04-26T15:06:42Z</time></trkpt><trkpt lat="43.293070060940984" lon="11.28714445658872"><ele>269.0</ele><time>2026-04-26T15:06:43Z</time></trkpt><trkpt lat="43.293025447750075" lon="11.286997087721915"><ele>269.0</ele><time>2026-04-26T15:06:44Z</time></trkpt><trkpt lat="43.29297467682017" lon="11.286853306426845"><ele>267.0</ele><time>2026-04-26T15:06:45Z</time></trkpt><trkpt lat="43.292901508300616" lon="11.286720701900018"><ele>265.0</ele><time>2026-04-26T15:06:46Z</time></trkpt><trkpt lat="43.29280951643192" lon="11.2866117779135"><ele>263.0</ele><time>2026-04-26T15:06:47Z</time></trkpt><trkpt lat="43.29270915932077" lon="11.286536687307699"><ele>261.0</ele><time>2026-04-26T15:06:48Z</time></trkpt><trkpt lat="43.29256317950158" lon="11.286518096537206"><ele>261.0</ele><time>2026-04-26T15:06:49Z</time></trkpt><trkpt lat="43.292395571232696" lon="11.286533891802739"><ele>261.0</ele><time>2026-04-26T15:06:50Z</time></trkpt><trkpt lat="43.29221395833918" lon="11.28654433280206"><ele>261.0</ele><time>2026-04-26T15:06:51Z</time></trkpt><trkpt lat="43.29202489849405" lon="11.286545914263463"><ele>258.6666666666667</ele><time>2026-04-26T15:06:52Z</time></trkpt><trkpt lat="43.291840514409344" lon="11.286542434719452"><ele>256.33333333333337</ele><time>2026-04-26T15:06:53Z</time></trkpt><trkpt lat="43.29166012174144" lon="11.2865290499691"><ele>254.0</ele><time>2026-04-26T15:06:54Z</time></trkpt><trkpt lat="43.291487771610704" lon="11.286495564360617"><ele>253.66666666666669</ele><time>2026-04-26T15:06:55Z</time></trkpt><trkpt lat="43.29133233394877" lon="11.286419502365055"><ele>253.33333333333331</ele><time>2026-04-26T15:06:56Z</time></trkpt><trkpt lat="43.29119946644298" lon="11.286286342661088"><ele>253.0</ele><time>2026-04-26T15:06:57Z</time></trkpt><trkpt lat="43.291098680818074" lon="11.286103269689212"><ele>253.0</ele><time>2026-04-26T15:06:57.999Z</time></trkpt><trkpt lat="43.2910252341105" lon="11.285877341074643"><ele>253.0</ele><time>2026-04-26T15:06:58.999Z</time></trkpt><trkpt lat="43.29097928573488" lon="11.285621010310221"><ele>253.0</ele><time>2026-04-26T15:06:59.999Z</time></trkpt><trkpt lat="43.290958233499204" lon="11.285354652943337"><ele>251.33333333333331</ele><time>2026-04-26T15:07:00.999Z</time></trkpt><trkpt lat="43.29093636061561" lon="11.285091439689156"><ele>249.66666666666669</ele><time>2026-04-26T15:07:01.999Z</time></trkpt><trkpt lat="43.29091783732868" lon="11.284820784346362"><ele>248.0</ele><time>2026-04-26T15:07:02.999Z</time></trkpt><trkpt lat="43.290885036646586" lon="11.28455855471092"><ele>246.66666666666669</ele><time>2026-04-26T15:07:03.999Z</time></trkpt><trkpt lat="43.29082868898542" lon="11.284312877094889"><ele>245.33333333333331</ele><time>2026-04-26T15:07:04.999Z</time></trkpt><trkpt lat="43.29074236690906" lon="11.284062794822658"><ele>244.0</ele><time>2026-04-26T15:07:05.999Z</time></trkpt><trkpt lat="43.290634181058174" lon="11.283814579880946"><ele>241.0</ele><time>2026-04-26T15:07:06.999Z</time></trkpt><trkpt lat="43.29051238714902" lon="11.283558560961367"><ele>238.0</ele><time>2026-04-26T15:07:07.999Z</time></trkpt><trkpt lat="43.29038513454717" lon="11.28329848325314"><ele>236.66666666666666</ele><time>2026-04-26T15:07:08.999Z</time></trkpt><trkpt lat="43.290260358204925" lon="11.283045957244141"><ele>235.33333333333331</ele><time>2026-04-26T15:07:09.999Z</time></trkpt><trkpt lat="43.29014603596026" lon="11.28279766674229"><ele>234.0</ele><time>2026-04-26T15:07:10.999Z</time></trkpt><trkpt lat="43.29005021427255" lon="11.282553758499255"><ele>234.0</ele><time>2026-04-26T15:07:11.999Z</time></trkpt><trkpt lat="43.28996097907645" lon="11.282321210803847"><ele>234.0</ele><time>2026-04-26T15:07:12.999Z</time></trkpt><trkpt lat="43.28987170729442" lon="11.2821030413125"><ele>234.0</ele><time>2026-04-26T15:07:13.999Z</time></trkpt><trkpt lat="43.28979896239394" lon="11.281894361213107"><ele>233.66666666666669</ele><time>2026-04-26T15:07:14.999Z</time></trkpt><trkpt lat="43.28977049777583" lon="11.281673662136836"><ele>233.33333333333334</ele><time>2026-04-26T15:07:15.999Z</time></trkpt><trkpt lat="43.28979256575249" lon="11.281463387619898"><ele>233.0</ele><time>2026-04-26T15:07:16.999Z</time></trkpt><trkpt lat="43.28986210207251" lon="11.281289088665336"><ele>231.75</ele><time>2026-04-26T15:07:17.999Z</time></trkpt><trkpt lat="43.28997969846864" lon="11.281202076069329"><ele>230.5</ele><time>2026-04-26T15:07:18.999Z</time></trkpt><trkpt lat="43.29011133873909" lon="11.281144530178848"><ele>229.25</ele><time>2026-04-26T15:07:19.999Z</time></trkpt><trkpt lat="43.29025773104515" lon="11.28108965729071"><ele>228.0</ele><time>2026-04-26T15:07:20.999Z</time></trkpt><trkpt lat="43.290408722656274" lon="11.281035050349926"><ele>228.0</ele><time>2026-04-26T15:07:21.999Z</time></trkpt><trkpt lat="43.29054654177101" lon="11.280932258082057"><ele>228.0</ele><time>2026-04-26T15:07:22.999Z</time></trkpt><trkpt lat="43.29065091169527" lon="11.28078612140534"><ele>228.0</ele><time>2026-04-26T15:07:23.999Z</time></trkpt><trkpt lat="43.290732898282315" lon="11.280608345328572"><ele>227.2</ele><time>2026-04-26T15:07:24.999Z</time></trkpt><trkpt lat="43.290771250471536" lon="11.280445446612351"><ele>226.4</ele><time>2026-04-26T15:07:25.999Z</time></trkpt><trkpt lat="43.29079133128366" lon="11.280303620398982"><ele>225.59999999999997</ele><time>2026-04-26T15:07:26.999Z</time></trkpt><trkpt lat="43.29079975132176" lon="11.280185502419044"><ele>224.79999999999998</ele><time>2026-04-26T15:07:27.999Z</time></trkpt><trkpt lat="43.290796722067626" lon="11.280075848443479"><ele>224.0</ele><time>2026-04-26T15:07:28.999Z</time></trkpt><trkpt lat="43.29079280015063" lon="11.279981983884928"><ele>224.00000000000003</ele><time>2026-04-26T15:07:29.999Z</time></trkpt><trkpt lat="43.29078895099742" lon="11.279889860804284"><ele>224.0</ele><time>2026-04-26T15:07:30.999Z</time></trkpt><trkpt lat="43.29078447143048" lon="11.279782649825094"><ele>224.0</ele><time>2026-04-26T15:07:31.999Z</time></trkpt><trkpt lat="43.2907797102335" lon="11.279668698468814"><ele>224.0</ele><time>2026-04-26T15:07:32.999Z</time></trkpt><trkpt lat="43.29077422849557" lon="11.27954887526983"><ele>224.00000000000003</ele><time>2026-04-26T15:07:33.999Z</time></trkpt><trkpt lat="43.29076818337749" lon="11.279415666772206"><ele>224.0</ele><time>2026-04-26T15:07:34.999Z</time></trkpt><trkpt lat="43.290745149029235" lon="11.27926769741134"><ele>224.25</ele><time>2026-04-26T15:07:35.999Z</time></trkpt><trkpt lat="43.29073351897325" lon="11.279101234134195"><ele>224.5</ele><time>2026-04-26T15:07:36.999Z</time></trkpt><trkpt lat="43.29070778598996" lon="11.278938116039559"><ele>224.75</ele><time>2026-04-26T15:07:37.999Z</time></trkpt><trkpt lat="43.29065321457492" lon="11.278771761690455"><ele>225.0</ele><time>2026-04-26T15:07:38.999Z</time></trkpt><trkpt lat="43.29057905975688" lon="11.278616694813095"><ele>225.0</ele><time>2026-04-26T15:07:39.999Z</time></trkpt><trkpt lat="43.29049578655332" lon="11.278465891367864"><ele>225.0</ele><time>2026-04-26T15:07:40.999Z</time></trkpt><trkpt lat="43.29042266421367" lon="11.27831313956394"><ele>225.0</ele><time>2026-04-26T15:07:41.999Z</time></trkpt><trkpt lat="43.29037774989271" lon="11.278148796177906"><ele>225.0</ele><time>2026-04-26T15:07:42.999Z</time></trkpt><trkpt lat="43.290385267667595" lon="11.277967849797186"><ele>225.75</ele><time>2026-04-26T15:07:43.999Z</time></trkpt><trkpt lat="43.29036625065364" lon="11.277781024288794"><ele>226.5</ele><time>2026-04-26T15:07:44.999Z</time></trkpt><trkpt lat="43.290389843539785" lon="11.27758087798683"><ele>227.25</ele><time>2026-04-26T15:07:45.999Z</time></trkpt><trkpt lat="43.29042053942978" lon="11.2773811080855"><ele>228.0</ele><time>2026-04-26T15:07:46.999Z</time></trkpt><trkpt lat="43.29045089415939" lon="11.277178966569755"><ele>228.0</ele><time>2026-04-26T15:07:47.999Z</time></trkpt><trkpt lat="43.29049496464258" lon="11.27697625976414"><ele>228.0</ele><time>2026-04-26T15:07:48.999Z</time></trkpt><trkpt lat="43.29052049635517" lon="11.276774464213686"><ele>228.0</ele><time>2026-04-26T15:07:49.999Z</time></trkpt><trkpt lat="43.29054108802184" lon="11.276582419867536"><ele>228.0</ele><time>2026-04-26T15:07:50.999Z</time></trkpt><trkpt lat="43.29055276945786" lon="11.276401657413981"><ele>228.0</ele><time>2026-04-26T15:07:51.998Z</time></trkpt><trkpt lat="43.29055941923341" lon="11.27622788114458"><ele>228.0</ele><time>2026-04-26T15:07:52.998Z</time></trkpt><trkpt lat="43.29056356505002" lon="11.27604461815728"><ele>228.0</ele><time>2026-04-26T15:07:53.998Z</time></trkpt><trkpt lat="43.29055753533405" lon="11.275855147808318"><ele>228.0</ele><time>2026-04-26T15:07:54.998Z</time></trkpt><trkpt lat="43.29054873584319" lon="11.275664669533022"><ele>227.25</ele><time>2026-04-26T15:07:55.998Z</time></trkpt><trkpt lat="43.29053977493994" lon="11.27547138560744"><ele>226.5</ele><time>2026-04-26T15:07:56.998Z</time></trkpt><trkpt lat="43.29052984984159" lon="11.2752852393528"><ele>225.75</ele><time>2026-04-26T15:07:57.998Z</time></trkpt><trkpt lat="43.290518144368534" lon="11.275104412607847"><ele>225.0</ele><time>2026-04-26T15:07:58.998Z</time></trkpt><trkpt lat="43.29050615093854" lon="11.274931046428716"><ele>225.0</ele><time>2026-04-26T15:07:59.998Z</time></trkpt><trkpt lat="43.29049221333487" lon="11.274754646389047"><ele>225.0</ele><time>2026-04-26T15:08:00.998Z</time></trkpt><trkpt lat="43.290474337107945" lon="11.27457382904618"><ele>225.0</ele><time>2026-04-26T15:08:01.998Z</time></trkpt><trkpt lat="43.290452881257835" lon="11.274395564341049"><ele>225.0</ele><time>2026-04-26T15:08:02.998Z</time></trkpt><trkpt lat="43.29042422651963" lon="11.27421054949142"><ele>225.0</ele><time>2026-04-26T15:08:03.998Z</time></trkpt><trkpt lat="43.29038892299229" lon="11.274022330989844"><ele>225.0</ele><time>2026-04-26T15:08:04.998Z</time></trkpt><trkpt lat="43.29035137002201" lon="11.273834008977692"><ele>225.0</ele><time>2026-04-26T15:08:05.998Z</time></trkpt><trkpt lat="43.290314188568864" lon="11.273662395196837"><ele>225.0</ele><time>2026-04-26T15:08:06.998Z</time></trkpt><trkpt lat="43.29028237616525" lon="11.273534128982462"><ele>224.8</ele><time>2026-04-26T15:08:08Z</time></trkpt><trkpt lat="43.29025804466914" lon="11.273444453862071"><ele>224.6</ele><time>2026-04-26T15:08:09Z</time></trkpt><trkpt lat="43.29021758013721" lon="11.273298965713765"><ele>224.39999999999998</ele><time>2026-04-26T15:08:11Z</time></trkpt><trkpt lat="43.29018738547527" lon="11.273190402394908"><ele>224.2</ele><time>2026-04-26T15:08:12Z</time></trkpt><trkpt lat="43.29014535728433" lon="11.27305697605779"><ele>224.0</ele><time>2026-04-26T15:08:13Z</time></trkpt><trkpt lat="43.29009972837789" lon="11.272920143904434"><ele>224.5</ele><time>2026-04-26T15:08:14Z</time></trkpt><trkpt lat="43.290053431263274" lon="11.272783558718457"><ele>225.0</ele><time>2026-04-26T15:08:15Z</time></trkpt><trkpt lat="43.28999134437988" lon="11.272649821454078"><ele>225.5</ele><time>2026-04-26T15:08:16Z</time></trkpt><trkpt lat="43.289951441596735" lon="11.27249389802257"><ele>226.0</ele><time>2026-04-26T15:08:17Z</time></trkpt><trkpt lat="43.28989977797448" lon="11.272355568245857"><ele>225.8</ele><time>2026-04-26T15:08:18Z</time></trkpt><trkpt lat="43.28984815312639" lon="11.272230522991057"><ele>225.60000000000002</ele><time>2026-04-26T15:08:19Z</time></trkpt><trkpt lat="43.28978060597061" lon="11.272109782877127"><ele>225.4</ele><time>2026-04-26T15:08:20Z</time></trkpt><trkpt lat="43.289694613319625" lon="11.272022742163417"><ele>225.2</ele><time>2026-04-26T15:08:21Z</time></trkpt><trkpt lat="43.28961679037485" lon="11.271929071812844"><ele>225.0</ele><time>2026-04-26T15:08:22Z</time></trkpt><trkpt lat="43.28952934555025" lon="11.27184154167689"><ele>225.0</ele><time>2026-04-26T15:08:23Z</time></trkpt><trkpt lat="43.28944648913031" lon="11.271738329343847"><ele>225.0</ele><time>2026-04-26T15:08:24Z</time></trkpt><trkpt lat="43.28935491069546" lon="11.27163951225582"><ele>225.0</ele><time>2026-04-26T15:08:25Z</time></trkpt><trkpt lat="43.28930697340508" lon="11.271477697000293"><ele>225.0</ele><time>2026-04-26T15:08:26Z</time></trkpt><trkpt lat="43.289247849213396" lon="11.271326918389402"><ele>224.5</ele><time>2026-04-26T15:08:27Z</time></trkpt><trkpt lat="43.28916795624736" lon="11.271205861317334"><ele>224.0</ele><time>2026-04-26T15:08:28Z</time></trkpt><trkpt lat="43.28908970083354" lon="11.271079605540953"><ele>223.5</ele><time>2026-04-26T15:08:29Z</time></trkpt><trkpt lat="43.289002451636925" lon="11.270960850296253"><ele>223.0</ele><time>2026-04-26T15:08:30Z</time></trkpt><trkpt lat="43.28890444082724" lon="11.270821880917714"><ele>221.5</ele><time>2026-04-26T15:08:31Z</time></trkpt><trkpt lat="43.2888003077161" lon="11.270685068368351"><ele>220.0</ele><time>2026-04-26T15:08:32Z</time></trkpt><trkpt lat="43.288699702068676" lon="11.270557850585222"><ele>218.5</ele><time>2026-04-26T15:08:33Z</time></trkpt><trkpt lat="43.28860833271629" lon="11.270448175171458"><ele>217.0</ele><time>2026-04-26T15:08:34Z</time></trkpt><trkpt lat="43.2885284124215" lon="11.270349911635552"><ele>216.8</ele><time>2026-04-26T15:08:35Z</time></trkpt><trkpt lat="43.28844998635328" lon="11.270252777241774"><ele>216.6</ele><time>2026-04-26T15:08:36Z</time></trkpt><trkpt lat="43.28837406602138" lon="11.270158145435035"><ele>216.40000000000003</ele><time>2026-04-26T15:08:37Z</time></trkpt><trkpt lat="43.28828999988997" lon="11.270055966926702"><ele>216.20000000000002</ele><time>2026-04-26T15:08:38Z</time></trkpt><trkpt lat="43.288200407006954" lon="11.269944003911785"><ele>216.0</ele><time>2026-04-26T15:08:39Z</time></trkpt><trkpt lat="43.288106635512804" lon="11.26983091725779"><ele>214.5</ele><time>2026-04-26T15:08:40Z</time></trkpt><trkpt lat="43.28801189117166" lon="11.269716017319372"><ele>213.0</ele><time>2026-04-26T15:08:41Z</time></trkpt><trkpt lat="43.287916513060544" lon="11.269599978464129"><ele>211.5</ele><time>2026-04-26T15:08:42Z</time></trkpt><trkpt lat="43.28781595706173" lon="11.269479363286381"><ele>210.0</ele><time>2026-04-26T15:08:43Z</time></trkpt><trkpt lat="43.287711626917826" lon="11.26935481882017"><ele>210.0</ele><time>2026-04-26T15:08:44Z</time></trkpt><trkpt lat="43.287603030003275" lon="11.26922892586829"><ele>210.0</ele><time>2026-04-26T15:08:45Z</time></trkpt><trkpt lat="43.28749081211037" lon="11.269099869850086"><ele>210.0</ele><time>2026-04-26T15:08:46Z</time></trkpt><trkpt lat="43.28737404647638" lon="11.268980085018299"><ele>210.0</ele><time>2026-04-26T15:08:47Z</time></trkpt><trkpt lat="43.28727729668033" lon="11.268858778104297"><ele>209.25</ele><time>2026-04-26T15:08:48Z</time></trkpt><trkpt lat="43.28717009173531" lon="11.268777024596167"><ele>208.5</ele><time>2026-04-26T15:08:49Z</time></trkpt><trkpt lat="43.2870746192469" lon="11.268683320254372"><ele>207.75</ele><time>2026-04-26T15:08:50Z</time></trkpt><trkpt lat="43.286986640190825" lon="11.268604652960843"><ele>207.0</ele><time>2026-04-26T15:08:51Z</time></trkpt><trkpt lat="43.28689467679021" lon="11.268528884047486"><ele>207.0</ele><time>2026-04-26T15:08:52Z</time></trkpt><trkpt lat="43.28679773894444" lon="11.2684424807294"><ele>207.0</ele><time>2026-04-26T15:08:53Z</time></trkpt><trkpt lat="43.28669550818308" lon="11.268343049035598"><ele>207.0</ele><time>2026-04-26T15:08:54Z</time></trkpt><trkpt lat="43.28658720776661" lon="11.268233546758754"><ele>207.0</ele><time>2026-04-26T15:08:55Z</time></trkpt><trkpt lat="43.28647564429536" lon="11.268115570570261"><ele>206.33333333333331</ele><time>2026-04-26T15:08:56Z</time></trkpt><trkpt lat="43.286359310405224" lon="11.267985848067415"><ele>205.66666666666666</ele><time>2026-04-26T15:08:57Z</time></trkpt><trkpt lat="43.28625111508953" lon="11.267827429302612"><ele>205.0</ele><time>2026-04-26T15:08:58Z</time></trkpt><trkpt lat="43.28611851480223" lon="11.267695281873923"><ele>205.0</ele><time>2026-04-26T15:08:59Z</time></trkpt><trkpt lat="43.285999840658754" lon="11.267547013472306"><ele>205.0</ele><time>2026-04-26T15:09:00Z</time></trkpt><trkpt lat="43.285883034639554" lon="11.267403241596162"><ele>205.0</ele><time>2026-04-26T15:09:01Z</time></trkpt><trkpt lat="43.285764284488636" lon="11.267257197654633"><ele>205.0</ele><time>2026-04-26T15:09:02Z</time></trkpt><trkpt lat="43.285645678349866" lon="11.267106930049032"><ele>205.0</ele><time>2026-04-26T15:09:03Z</time></trkpt><trkpt lat="43.28552436353902" lon="11.266953215360777"><ele>205.0</ele><time>2026-04-26T15:09:03.999Z</time></trkpt><trkpt lat="43.28540135339901" lon="11.266793600095172"><ele>205.0</ele><time>2026-04-26T15:09:04.999Z</time></trkpt><trkpt lat="43.28527717866052" lon="11.266630830021253"><ele>205.0</ele><time>2026-04-26T15:09:05.999Z</time></trkpt><trkpt lat="43.28514973616134" lon="11.266465750212701"><ele>205.0</ele><time>2026-04-26T15:09:06.999Z</time></trkpt><trkpt lat="43.28501892180751" lon="11.266300774987984"><ele>204.75</ele><time>2026-04-26T15:09:07.999Z</time></trkpt><trkpt lat="43.28489734019874" lon="11.266149000005598"><ele>204.5</ele><time>2026-04-26T15:09:08.999Z</time></trkpt><trkpt lat="43.284791280716696" lon="11.266009040211815"><ele>204.25</ele><time>2026-04-26T15:09:09.999Z</time></trkpt><trkpt lat="43.284693850482554" lon="11.265879272619507"><ele>204.0</ele><time>2026-04-26T15:09:10.999Z</time></trkpt><trkpt lat="43.284595079192144" lon="11.265750171392124"><ele>204.0</ele><time>2026-04-26T15:09:11.999Z</time></trkpt><trkpt lat="43.284491917327856" lon="11.265619513765788"><ele>204.0</ele><time>2026-04-26T15:09:12.999Z</time></trkpt><trkpt lat="43.284388085189164" lon="11.265484083670788"><ele>204.0</ele><time>2026-04-26T15:09:13.999Z</time></trkpt><trkpt lat="43.2842813862789" lon="11.265346988430585"><ele>204.0</ele><time>2026-04-26T15:09:14.999Z</time></trkpt><trkpt lat="43.284172655180456" lon="11.265209576460654"><ele>204.0</ele><time>2026-04-26T15:09:15.999Z</time></trkpt><trkpt lat="43.28406315823921" lon="11.26507238622529"><ele>204.0</ele><time>2026-04-26T15:09:16.999Z</time></trkpt><trkpt lat="43.28395522033765" lon="11.264936289927594"><ele>204.0</ele><time>2026-04-26T15:09:17.999Z</time></trkpt><trkpt lat="43.28384888721119" lon="11.264799187887652"><ele>204.0</ele><time>2026-04-26T15:09:18.999Z</time></trkpt><trkpt lat="43.28374015899492" lon="11.264659005845111"><ele>204.0</ele><time>2026-04-26T15:09:19.999Z</time></trkpt><trkpt lat="43.283630165427496" lon="11.264517122416951"><ele>204.0</ele><time>2026-04-26T15:09:20.999Z</time></trkpt><trkpt lat="43.283518229162816" lon="11.264371625636853"><ele>204.0</ele><time>2026-04-26T15:09:21.999Z</time></trkpt><trkpt lat="43.2834031594087" lon="11.264225261435742"><ele>204.0</ele><time>2026-04-26T15:09:22.999Z</time></trkpt><trkpt lat="43.28328591569947" lon="11.264075651325875"><ele>204.0</ele><time>2026-04-26T15:09:23.999Z</time></trkpt><trkpt lat="43.283167163700796" lon="11.263925982039865"><ele>204.0</ele><time>2026-04-26T15:09:24.999Z</time></trkpt><trkpt lat="43.28304735656687" lon="11.263776104574513"><ele>203.66666666666669</ele><time>2026-04-26T15:09:25.999Z</time></trkpt><trkpt lat="43.282929519070905" lon="11.263627863852236"><ele>203.33333333333334</ele><time>2026-04-26T15:09:26.999Z</time></trkpt><trkpt lat="43.28281857592887" lon="11.263484033811453"><ele>203.0</ele><time>2026-04-26T15:09:27.999Z</time></trkpt><trkpt lat="43.28271004799581" lon="11.263342484667435"><ele>203.0</ele><time>2026-04-26T15:09:28.999Z</time></trkpt><trkpt lat="43.28260245763448" lon="11.263205132411967"><ele>203.0</ele><time>2026-04-26T15:09:29.999Z</time></trkpt><trkpt lat="43.28251165539547" lon="11.263057652087083"><ele>203.0</ele><time>2026-04-26T15:09:30.999Z</time></trkpt><trkpt lat="43.28240134413012" lon="11.262914144225551"><ele>203.0</ele><time>2026-04-26T15:09:31.999Z</time></trkpt><trkpt lat="43.28227852220461" lon="11.262755559607127"><ele>203.0</ele><time>2026-04-26T15:09:32.999Z</time></trkpt><trkpt lat="43.28214768113875" lon="11.262586620411565"><ele>203.0</ele><time>2026-04-26T15:09:33.999Z</time></trkpt><trkpt lat="43.28200993829043" lon="11.26240892356255"><ele>203.0</ele><time>2026-04-26T15:09:34.999Z</time></trkpt><trkpt lat="43.28186772398111" lon="11.262225359522548"><ele>202.33333333333334</ele><time>2026-04-26T15:09:35.999Z</time></trkpt><trkpt lat="43.28172345353355" lon="11.262039141472506"><ele>201.66666666666669</ele><time>2026-04-26T15:09:36.999Z</time></trkpt><trkpt lat="43.281578635369314" lon="11.261852217770118"><ele>201.0</ele><time>2026-04-26T15:09:37.999Z</time></trkpt><trkpt lat="43.28142621598394" lon="11.261681150533336"><ele>201.0</ele><time>2026-04-26T15:09:38.999Z</time></trkpt><trkpt lat="43.28127811312299" lon="11.261493849023813"><ele>201.0</ele><time>2026-04-26T15:09:39.999Z</time></trkpt><trkpt lat="43.2811390135115" lon="11.261286509394598"><ele>201.0</ele><time>2026-04-26T15:09:40.999Z</time></trkpt><trkpt lat="43.28098721819726" lon="11.261091657415491"><ele>200.66666666666669</ele><time>2026-04-26T15:09:41.999Z</time></trkpt><trkpt lat="43.28082303502499" lon="11.260909879421527"><ele>200.33333333333334</ele><time>2026-04-26T15:09:42.999Z</time></trkpt><trkpt lat="43.28066891997804" lon="11.260707500612135"><ele>200.0</ele><time>2026-04-26T15:09:43.999Z</time></trkpt><trkpt lat="43.28051231740968" lon="11.260505973049238"><ele>200.0</ele><time>2026-04-26T15:09:44.999Z</time></trkpt><trkpt lat="43.280353384558396" lon="11.260302212218571"><ele>200.0</ele><time>2026-04-26T15:09:45.999Z</time></trkpt><trkpt lat="43.28019313136048" lon="11.260096772247698"><ele>200.0</ele><time>2026-04-26T15:09:46.999Z</time></trkpt><trkpt lat="43.28003099675247" lon="11.259888111666461"><ele>200.33333333333334</ele><time>2026-04-26T15:09:47.999Z</time></trkpt><trkpt lat="43.27986946155456" lon="11.25967744630013"><ele>200.66666666666669</ele><time>2026-04-26T15:09:48.999Z</time></trkpt><trkpt lat="43.279707902974295" lon="11.259466631450346"><ele>201.0</ele><time>2026-04-26T15:09:49.999Z</time></trkpt><trkpt lat="43.27954406110158" lon="11.259253724513318"><ele>201.5</ele><time>2026-04-26T15:09:50.999Z</time></trkpt><trkpt lat="43.27937937827363" lon="11.259041407411386"><ele>202.0</ele><time>2026-04-26T15:09:51.999Z</time></trkpt><trkpt lat="43.279214666527245" lon="11.258826633473294"><ele>202.5</ele><time>2026-04-26T15:09:52.999Z</time></trkpt><trkpt lat="43.27904903815652" lon="11.258609367080307"><ele>203.0</ele><time>2026-04-26T15:09:53.999Z</time></trkpt><trkpt lat="43.27888023709303" lon="11.258395668162745"><ele>202.0</ele><time>2026-04-26T15:09:54.999Z</time></trkpt><trkpt lat="43.278709600569016" lon="11.258180460332438"><ele>201.0</ele><time>2026-04-26T15:09:55.999Z</time></trkpt><trkpt lat="43.278538063065625" lon="11.257961033245957"><ele>201.0</ele><time>2026-04-26T15:09:56.999Z</time></trkpt><trkpt lat="43.278367127768135" lon="11.257742164754804"><ele>201.0</ele><time>2026-04-26T15:09:57.998Z</time></trkpt><trkpt lat="43.2782090661717" lon="11.257509915989052"><ele>200.5</ele><time>2026-04-26T15:09:58.998Z</time></trkpt><trkpt lat="43.27804189515496" lon="11.257296057456278"><ele>200.0</ele><time>2026-04-26T15:09:59.998Z</time></trkpt><trkpt lat="43.27787461357692" lon="11.257077688504081"><ele>200.0</ele><time>2026-04-26T15:10:00.998Z</time></trkpt><trkpt lat="43.27771158333007" lon="11.256848339275013"><ele>200.0</ele><time>2026-04-26T15:10:01.998Z</time></trkpt><trkpt lat="43.27756458551013" lon="11.256598848496292"><ele>200.0</ele><time>2026-04-26T15:10:02.998Z</time></trkpt><trkpt lat="43.2774201312401" lon="11.256341215028295"><ele>200.0</ele><time>2026-04-26T15:10:03.998Z</time></trkpt><trkpt lat="43.27726273309604" lon="11.256090218009199"><ele>199.5</ele><time>2026-04-26T15:10:04.998Z</time></trkpt><trkpt lat="43.27711592343177" lon="11.255825351841379"><ele>199.0</ele><time>2026-04-26T15:10:05.998Z</time></trkpt><trkpt lat="43.27696513665929" lon="11.255561587330385"><ele>199.0</ele><time>2026-04-26T15:10:06.998Z</time></trkpt><trkpt lat="43.276813745544274" lon="11.255294189687836"><ele>199.0</ele><time>2026-04-26T15:10:07.998Z</time></trkpt><trkpt lat="43.276659259004596" lon="11.255026772032444"><ele>198.0</ele><time>2026-04-26T15:10:08.998Z</time></trkpt><trkpt lat="43.27650661220075" lon="11.254755679406149"><ele>197.0</ele><time>2026-04-26T15:10:09.998Z</time></trkpt><trkpt lat="43.27634388923409" lon="11.25449382320136"><ele>196.5</ele><time>2026-04-26T15:10:10.998Z</time></trkpt><trkpt lat="43.27618414773843" lon="11.254225167141902"><ele>196.0</ele><time>2026-04-26T15:10:11.998Z</time></trkpt><trkpt lat="43.27602421007585" lon="11.253956341565369"><ele>196.5</ele><time>2026-04-26T15:10:12.998Z</time></trkpt><trkpt lat="43.27586272742908" lon="11.253689904101838"><ele>197.0</ele><time>2026-04-26T15:10:14Z</time></trkpt><trkpt lat="43.2757018838186" lon="11.253424874735602"><ele>198.5</ele><time>2026-04-26T15:10:15Z</time></trkpt><trkpt lat="43.275541601863395" lon="11.253161549171804"><ele>200.0</ele><time>2026-04-26T15:10:16Z</time></trkpt><trkpt lat="43.27538443843763" lon="11.252897592572609"><ele>200.5</ele><time>2026-04-26T15:10:17Z</time></trkpt><trkpt lat="43.275231175133634" lon="11.252636722818352"><ele>201.0</ele><time>2026-04-26T15:10:18Z</time></trkpt><trkpt lat="43.2750773950826" lon="11.252378958800124"><ele>201.0</ele><time>2026-04-26T15:10:19Z</time></trkpt><trkpt lat="43.2749257014063" lon="11.252120878273802"><ele>201.0</ele><time>2026-04-26T15:10:20Z</time></trkpt><trkpt lat="43.27477643593318" lon="11.25186640449755"><ele>203.0</ele><time>2026-04-26T15:10:21Z</time></trkpt><trkpt lat="43.274635983139135" lon="11.25162755047986"><ele>205.0</ele><time>2026-04-26T15:10:22Z</time></trkpt><trkpt lat="43.2745049412634" lon="11.251405273079042"><ele>207.0</ele><time>2026-04-26T15:10:23Z</time></trkpt><trkpt lat="43.27438261656984" lon="11.251203132257645"><ele>208.33333333333331</ele><time>2026-04-26T15:10:24Z</time></trkpt><trkpt lat="43.27428487661053" lon="11.25100907972319"><ele>209.66666666666666</ele><time>2026-04-26T15:10:25Z</time></trkpt><trkpt lat="43.27416792337248" lon="11.25086319513392"><ele>211.0</ele><time>2026-04-26T15:10:26Z</time></trkpt><trkpt lat="43.27407144202407" lon="11.250719689482207"><ele>211.20000000000002</ele><time>2026-04-26T15:10:27Z</time></trkpt><trkpt lat="43.27398465425925" lon="11.250595750244031"><ele>211.4</ele><time>2026-04-26T15:10:28Z</time></trkpt><trkpt lat="43.27390717295011" lon="11.250485585774769"><ele>211.6</ele><time>2026-04-26T15:10:29Z</time></trkpt><trkpt lat="43.27383692406247" lon="11.250382084689988"><ele>211.8</ele><time>2026-04-26T15:10:30Z</time></trkpt><trkpt lat="43.27377149015968" lon="11.250286353483116"><ele>212.0</ele><time>2026-04-26T15:10:31Z</time></trkpt><trkpt lat="43.27371055671192" lon="11.25019652130719"><ele>212.2</ele><time>2026-04-26T15:10:32Z</time></trkpt><trkpt lat="43.27364804813318" lon="11.250102452725265"><ele>212.39999999999998</ele><time>2026-04-26T15:10:33Z</time></trkpt><trkpt lat="43.27358432299138" lon="11.24999967376137"><ele>212.60000000000002</ele><time>2026-04-26T15:10:34Z</time></trkpt><trkpt lat="43.27351927258861" lon="11.249894232099775"><ele>212.8</ele><time>2026-04-26T15:10:35Z</time></trkpt><trkpt lat="43.27345091831516" lon="11.24978613059126"><ele>213.0</ele><time>2026-04-26T15:10:36Z</time></trkpt><trkpt lat="43.27337974858088" lon="11.249669925979857"><ele>212.25</ele><time>2026-04-26T15:10:37Z</time></trkpt><trkpt lat="43.27330632673649" lon="11.249544243246742"><ele>211.5</ele><time>2026-04-26T15:10:38Z</time></trkpt><trkpt lat="43.27322859154622" lon="11.249414037571007"><ele>210.75</ele><time>2026-04-26T15:10:39Z</time></trkpt><trkpt lat="43.27314906916378" lon="11.249275332288434"><ele>210.0</ele><time>2026-04-26T15:10:40Z</time></trkpt><trkpt lat="43.273065255077974" lon="11.249128809709456"><ele>210.0</ele><time>2026-04-26T15:10:41Z</time></trkpt><trkpt lat="43.27297759658147" lon="11.248978135132544"><ele>210.0</ele><time>2026-04-26T15:10:42Z</time></trkpt><trkpt lat="43.272886234089206" lon="11.248822015896343"><ele>210.0</ele><time>2026-04-26T15:10:43Z</time></trkpt><trkpt lat="43.272791165350164" lon="11.248657030908602"><ele>210.0</ele><time>2026-04-26T15:10:44Z</time></trkpt><trkpt lat="43.2726962422463" lon="11.248492510899482"><ele>208.33333333333331</ele><time>2026-04-26T15:10:45Z</time></trkpt><trkpt lat="43.272597348464316" lon="11.248324288857543"><ele>206.66666666666666</ele><time>2026-04-26T15:10:46Z</time></trkpt><trkpt lat="43.27249627716734" lon="11.248149725361149"><ele>205.0</ele><time>2026-04-26T15:10:47Z</time></trkpt><trkpt lat="43.27239294620887" lon="11.247971981728123"><ele>205.0</ele><time>2026-04-26T15:10:48Z</time></trkpt><trkpt lat="43.27228833910687" lon="11.24778712020782"><ele>205.0</ele><time>2026-04-26T15:10:49Z</time></trkpt><trkpt lat="43.2721806423932" lon="11.247597750136384"><ele>205.0</ele><time>2026-04-26T15:10:50Z</time></trkpt><trkpt lat="43.27206893906006" lon="11.247404551980923"><ele>203.66666666666666</ele><time>2026-04-26T15:10:51Z</time></trkpt><trkpt lat="43.27195403353956" lon="11.247203483867168"><ele>202.33333333333331</ele><time>2026-04-26T15:10:52Z</time></trkpt><trkpt lat="43.27183877236734" lon="11.247000499563821"><ele>201.0</ele><time>2026-04-26T15:10:53Z</time></trkpt><trkpt lat="43.2717244497034" lon="11.246790167822317"><ele>201.0</ele><time>2026-04-26T15:10:54Z</time></trkpt><trkpt lat="43.27160752776103" lon="11.246577239185548"><ele>201.0</ele><time>2026-04-26T15:10:55Z</time></trkpt><trkpt lat="43.271491731110636" lon="11.246358780442517"><ele>201.0</ele><time>2026-04-26T15:10:56Z</time></trkpt><trkpt lat="43.271371067426635" lon="11.246130284224265"><ele>199.66666666666669</ele><time>2026-04-26T15:10:57Z</time></trkpt><trkpt lat="43.27123134393519" lon="11.245912685944116"><ele>198.33333333333334</ele><time>2026-04-26T15:10:58Z</time></trkpt><trkpt lat="43.271083022683236" lon="11.24569365695911"><ele>197.0</ele><time>2026-04-26T15:10:59Z</time></trkpt><trkpt lat="43.27093403302338" lon="11.245467023224677"><ele>197.0</ele><time>2026-04-26T15:11:00Z</time></trkpt><trkpt lat="43.27078435004866" lon="11.245233522942701"><ele>197.0</ele><time>2026-04-26T15:11:01Z</time></trkpt><trkpt lat="43.27063187300561" lon="11.244995898462996"><ele>196.5</ele><time>2026-04-26T15:11:02Z</time></trkpt><trkpt lat="43.27047483187289" lon="11.244758933530647"><ele>196.0</ele><time>2026-04-26T15:11:03Z</time></trkpt><trkpt lat="43.270315259796874" lon="11.244521122385404"><ele>196.0</ele><time>2026-04-26T15:11:04Z</time></trkpt><trkpt lat="43.270153360986484" lon="11.244283695454596"><ele>196.0</ele><time>2026-04-26T15:11:05Z</time></trkpt><trkpt lat="43.2699908118535" lon="11.244047737207095"><ele>197.0</ele><time>2026-04-26T15:11:06Z</time></trkpt><trkpt lat="43.26983447332531" lon="11.243805919210653"><ele>198.0</ele><time>2026-04-26T15:11:07Z</time></trkpt><trkpt lat="43.269685379155476" lon="11.243558740893127"><ele>198.5</ele><time>2026-04-26T15:11:08Z</time></trkpt><trkpt lat="43.26953796765857" lon="11.243324123335741"><ele>199.0</ele><time>2026-04-26T15:11:09Z</time></trkpt><trkpt lat="43.26938454799399" lon="11.243092749912655"><ele>201.0</ele><time>2026-04-26T15:11:10Z</time></trkpt><trkpt lat="43.269232283797464" lon="11.242857843263137"><ele>203.0</ele><time>2026-04-26T15:11:10.999Z</time></trkpt><trkpt lat="43.26908229651884" lon="11.24263063609697"><ele>203.0</ele><time>2026-04-26T15:11:11.999Z</time></trkpt><trkpt lat="43.268931911230034" lon="11.24240351044777"><ele>203.0</ele><time>2026-04-26T15:11:12.999Z</time></trkpt><trkpt lat="43.26878371035492" lon="11.24217243086502"><ele>203.0</ele><time>2026-04-26T15:11:13.999Z</time></trkpt><trkpt lat="43.26863963778875" lon="11.24194151696684"><ele>203.33333333333334</ele><time>2026-04-26T15:11:14.999Z</time></trkpt><trkpt lat="43.268497929950314" lon="11.241717502378632"><ele>203.66666666666669</ele><time>2026-04-26T15:11:15.999Z</time></trkpt><trkpt lat="43.268357127636264" lon="11.241492662479052"><ele>204.0</ele><time>2026-04-26T15:11:16.999Z</time></trkpt><trkpt lat="43.268220122459866" lon="11.241257887508759"><ele>201.0</ele><time>2026-04-26T15:11:17.999Z</time></trkpt><trkpt lat="43.268076420867494" lon="11.241008754829009"><ele>198.0</ele><time>2026-04-26T15:11:18.999Z</time></trkpt><trkpt lat="43.267931773823264" lon="11.240757250772264"><ele>198.0</ele><time>2026-04-26T15:11:19.999Z</time></trkpt><trkpt lat="43.26777809323681" lon="11.24050846967373"><ele>198.0</ele><time>2026-04-26T15:11:20.999Z</time></trkpt><trkpt lat="43.26762444451875" lon="11.24025996679371"><ele>198.0</ele><time>2026-04-26T15:11:21.999Z</time></trkpt><trkpt lat="43.2674750875133" lon="11.240012127322375"><ele>198.0</ele><time>2026-04-26T15:11:22.999Z</time></trkpt><trkpt lat="43.26732730418379" lon="11.239763420891602"><ele>199.0</ele><time>2026-04-26T15:11:23.999Z</time></trkpt><trkpt lat="43.26717944246604" lon="11.239517102860905"><ele>200.0</ele><time>2026-04-26T15:11:24.999Z</time></trkpt><trkpt lat="43.26703361752545" lon="11.239269335727354"><ele>200.0</ele><time>2026-04-26T15:11:25.999Z</time></trkpt><trkpt lat="43.2668898332387" lon="11.239022710367252"><ele>200.0</ele><time>2026-04-26T15:11:26.999Z</time></trkpt><trkpt lat="43.266744550395266" lon="11.238780083590102"><ele>200.5</ele><time>2026-04-26T15:11:27.999Z</time></trkpt><trkpt lat="43.26659802367054" lon="11.238541765087833"><ele>201.0</ele><time>2026-04-26T15:11:28.999Z</time></trkpt><trkpt lat="43.26646780578614" lon="11.238286703710392"><ele>204.5</ele><time>2026-04-26T15:11:29.999Z</time></trkpt><trkpt lat="43.2663125318696" lon="11.238060664144893"><ele>208.0</ele><time>2026-04-26T15:11:30.999Z</time></trkpt><trkpt lat="43.26617270074085" lon="11.237820008289694"><ele>208.0</ele><time>2026-04-26T15:11:31.999Z</time></trkpt><trkpt lat="43.26603303579531" lon="11.237580870994734"><ele>208.0</ele><time>2026-04-26T15:11:32.999Z</time></trkpt><trkpt lat="43.265893746220556" lon="11.237343407822161"><ele>208.0</ele><time>2026-04-26T15:11:33.999Z</time></trkpt><trkpt lat="43.26575278440641" lon="11.237110869123136"><ele>208.0</ele><time>2026-04-26T15:11:34.999Z</time></trkpt><trkpt lat="43.26561354908952" lon="11.236876964780553"><ele>208.0</ele><time>2026-04-26T15:11:35.999Z</time></trkpt><trkpt lat="43.26548279232581" lon="11.236636735986124"><ele>208.0</ele><time>2026-04-26T15:11:36.999Z</time></trkpt><trkpt lat="43.26534076747933" lon="11.236403412664245"><ele>206.0</ele><time>2026-04-26T15:11:37.999Z</time></trkpt><trkpt lat="43.26520457554778" lon="11.23616031585862"><ele>204.0</ele><time>2026-04-26T15:11:38.999Z</time></trkpt><trkpt lat="43.26506605550524" lon="11.23591227440527"><ele>204.0</ele><time>2026-04-26T15:11:39.999Z</time></trkpt><trkpt lat="43.264923267885486" lon="11.235666427464679"><ele>204.0</ele><time>2026-04-26T15:11:40.999Z</time></trkpt><trkpt lat="43.26478113522712" lon="11.235421982943276"><ele>203.66666666666669</ele><time>2026-04-26T15:11:41.999Z</time></trkpt><trkpt lat="43.26464356040766" lon="11.235178548499142"><ele>203.33333333333334</ele><time>2026-04-26T15:11:42.999Z</time></trkpt><trkpt lat="43.26450774592963" lon="11.234939144678643"><ele>203.0</ele><time>2026-04-26T15:11:43.999Z</time></trkpt><trkpt lat="43.264373135240845" lon="11.23470027570611"><ele>203.66666666666669</ele><time>2026-04-26T15:11:44.999Z</time></trkpt><trkpt lat="43.26424135850325" lon="11.234463486989153"><ele>204.33333333333331</ele><time>2026-04-26T15:11:45.999Z</time></trkpt><trkpt lat="43.26411251086654" lon="11.234228412044729"><ele>205.0</ele><time>2026-04-26T15:11:46.999Z</time></trkpt><trkpt lat="43.26398378649861" lon="11.233997844081902"><ele>207.66666666666666</ele><time>2026-04-26T15:11:47.999Z</time></trkpt><trkpt lat="43.26385972829305" lon="11.23377486488315"><ele>210.33333333333331</ele><time>2026-04-26T15:11:48.999Z</time></trkpt><trkpt lat="43.26374486126186" lon="11.233569138971484"><ele>213.0</ele><time>2026-04-26T15:11:49.999Z</time></trkpt><trkpt lat="43.2636383165092" lon="11.233373202808592"><ele>213.0</ele><time>2026-04-26T15:11:50.999Z</time></trkpt><trkpt lat="43.26353734433962" lon="11.23320422823134"><ele>213.0</ele><time>2026-04-26T15:11:51.999Z</time></trkpt><trkpt lat="43.26343543069563" lon="11.233053278381302"><ele>213.0</ele><time>2026-04-26T15:11:52.999Z</time></trkpt><trkpt lat="43.263359148082365" lon="11.232885266445509"><ele>212.66666666666669</ele><time>2026-04-26T15:11:53.999Z</time></trkpt><trkpt lat="43.26325972726297" lon="11.232740292489614"><ele>212.33333333333334</ele><time>2026-04-26T15:11:54.999Z</time></trkpt><trkpt lat="43.26316664445799" lon="11.23257700508906"><ele>212.0</ele><time>2026-04-26T15:11:55.999Z</time></trkpt><trkpt lat="43.2630708083862" lon="11.232399584279383"><ele>209.33333333333334</ele><time>2026-04-26T15:11:56.999Z</time></trkpt><trkpt lat="43.262966702268386" lon="11.232212425356026"><ele>206.66666666666669</ele><time>2026-04-26T15:11:57.999Z</time></trkpt><trkpt lat="43.262856066144124" lon="11.232022611716808"><ele>204.0</ele><time>2026-04-26T15:11:58.999Z</time></trkpt><trkpt lat="43.26276105599295" lon="11.231819137340079"><ele>204.0</ele><time>2026-04-26T15:11:59.999Z</time></trkpt><trkpt lat="43.26264535741638" lon="11.231644110220891"><ele>204.0</ele><time>2026-04-26T15:12:00.999Z</time></trkpt><trkpt lat="43.26254351304529" lon="11.231468297985332"><ele>204.0</ele><time>2026-04-26T15:12:01.999Z</time></trkpt><trkpt lat="43.26243392728099" lon="11.231299465085808"><ele>202.0</ele><time>2026-04-26T15:12:02.999Z</time></trkpt><trkpt lat="43.26231847303215" lon="11.231122067986098"><ele>200.0</ele><time>2026-04-26T15:12:03.999Z</time></trkpt><trkpt lat="43.262197114995175" lon="11.230940839995052"><ele>198.0</ele><time>2026-04-26T15:12:04.999Z</time></trkpt><trkpt lat="43.262068338061425" lon="11.230754843747436"><ele>198.33333333333331</ele><time>2026-04-26T15:12:05.998Z</time></trkpt><trkpt lat="43.26193088879616" lon="11.230568058049764"><ele>198.66666666666666</ele><time>2026-04-26T15:12:06.998Z</time></trkpt><trkpt lat="43.26178439973588" lon="11.230374800216198"><ele>199.0</ele><time>2026-04-26T15:12:07.998Z</time></trkpt><trkpt lat="43.26163419950798" lon="11.23017813196095"><ele>199.0</ele><time>2026-04-26T15:12:08.998Z</time></trkpt><trkpt lat="43.26148164884693" lon="11.229979177939699"><ele>199.0</ele><time>2026-04-26T15:12:09.998Z</time></trkpt><trkpt lat="43.261330019025586" lon="11.229775679257878"><ele>199.0</ele><time>2026-04-26T15:12:10.998Z</time></trkpt><trkpt lat="43.261176857074894" lon="11.229568297594694"><ele>199.0</ele><time>2026-04-26T15:12:11.998Z</time></trkpt><trkpt lat="43.26102498575038" lon="11.229357004062827"><ele>199.0</ele><time>2026-04-26T15:12:12.998Z</time></trkpt><trkpt lat="43.26087207113995" lon="11.22914679355505"><ele>199.0</ele><time>2026-04-26T15:12:13.998Z</time></trkpt><trkpt lat="43.2607181213644" lon="11.228938515188602"><ele>197.0</ele><time>2026-04-26T15:12:14.998Z</time></trkpt><trkpt lat="43.2605631009051" lon="11.228731522625381"><ele>195.0</ele><time>2026-04-26T15:12:15.998Z</time></trkpt><trkpt lat="43.26040959903066" lon="11.22852338419388"><ele>193.0</ele><time>2026-04-26T15:12:16.998Z</time></trkpt><trkpt lat="43.26025691863335" lon="11.228314230994286"><ele>195.33333333333331</ele><time>2026-04-26T15:12:17.998Z</time></trkpt><trkpt lat="43.26010327020217" lon="11.228104042457462"><ele>197.66666666666669</ele><time>2026-04-26T15:12:18.998Z</time></trkpt><trkpt lat="43.25995043301982" lon="11.227893164047707"><ele>200.0</ele><time>2026-04-26T15:12:20Z</time></trkpt><trkpt lat="43.25979761432337" lon="11.227682235208661"><ele>199.0</ele><time>2026-04-26T15:12:21Z</time></trkpt><trkpt lat="43.259654834853734" lon="11.227455827975662"><ele>198.0</ele><time>2026-04-26T15:12:22Z</time></trkpt><trkpt lat="43.25950152051293" lon="11.227244516179427"><ele>197.0</ele><time>2026-04-26T15:12:23Z</time></trkpt><trkpt lat="43.25933824839133" lon="11.227047524039852"><ele>197.0</ele><time>2026-04-26T15:12:24Z</time></trkpt><trkpt lat="43.25918632650004" lon="11.226832556050622"><ele>197.0</ele><time>2026-04-26T15:12:25Z</time></trkpt><trkpt lat="43.25902771650652" lon="11.22663073128885"><ele>197.0</ele><time>2026-04-26T15:12:26Z</time></trkpt><trkpt lat="43.25885700342111" lon="11.226452515958503"><ele>197.0</ele><time>2026-04-26T15:12:27Z</time></trkpt><trkpt lat="43.25866893444332" lon="11.226303583693573"><ele>197.0</ele><time>2026-04-26T15:12:28Z</time></trkpt><trkpt lat="43.25847018435528" lon="11.226182382629512"><ele>197.0</ele><time>2026-04-26T15:12:29Z</time></trkpt><trkpt lat="43.25826626367966" lon="11.226093518219729"><ele>197.33333333333334</ele><time>2026-04-26T15:12:30Z</time></trkpt><trkpt lat="43.25805736981066" lon="11.226035859173056"><ele>197.66666666666669</ele><time>2026-04-26T15:12:31Z</time></trkpt><trkpt lat="43.25783965178038" lon="11.226025487604653"><ele>198.0</ele><time>2026-04-26T15:12:32Z</time></trkpt><trkpt lat="43.25762069082659" lon="11.226031093208638"><ele>198.0</ele><time>2026-04-26T15:12:33Z</time></trkpt><trkpt lat="43.2574045539822" lon="11.226032672574325"><ele>198.0</ele><time>2026-04-26T15:12:34Z</time></trkpt><trkpt lat="43.25718618344893" lon="11.226028972581403"><ele>198.0</ele><time>2026-04-26T15:12:35Z</time></trkpt><trkpt lat="43.256972128643156" lon="11.22601569933282"><ele>197.66666666666669</ele><time>2026-04-26T15:12:36Z</time></trkpt><trkpt lat="43.25677050623106" lon="11.226003655268453"><ele>197.33333333333334</ele><time>2026-04-26T15:12:37Z</time></trkpt><trkpt lat="43.2565807115826" lon="11.2259763587524"><ele>197.0</ele><time>2026-04-26T15:12:38Z</time></trkpt><trkpt lat="43.256407681802976" lon="11.22590836748452"><ele>196.66666666666669</ele><time>2026-04-26T15:12:39Z</time></trkpt><trkpt lat="43.2562375619764" lon="11.225802002303169"><ele>196.33333333333331</ele><time>2026-04-26T15:12:40Z</time></trkpt><trkpt lat="43.256073303958004" lon="11.225675369369903"><ele>196.0</ele><time>2026-04-26T15:12:41Z</time></trkpt><trkpt lat="43.255909298412526" lon="11.225546923209036"><ele>197.0</ele><time>2026-04-26T15:12:42Z</time></trkpt><trkpt lat="43.255741872482716" lon="11.225406444030288"><ele>198.0</ele><time>2026-04-26T15:12:43Z</time></trkpt><trkpt lat="43.25557384522563" lon="11.225274358107773"><ele>199.0</ele><time>2026-04-26T15:12:44Z</time></trkpt><trkpt lat="43.255395863301864" lon="11.22515342749364"><ele>199.0</ele><time>2026-04-26T15:12:45Z</time></trkpt><trkpt lat="43.2552181119146" lon="11.225044576353168"><ele>199.0</ele><time>2026-04-26T15:12:46Z</time></trkpt><trkpt lat="43.25503469780371" lon="11.224951033214623"><ele>199.0</ele><time>2026-04-26T15:12:47Z</time></trkpt><trkpt lat="43.254846167154376" lon="11.224872416882777"><ele>199.0</ele><time>2026-04-26T15:12:48Z</time></trkpt><trkpt lat="43.254656392797145" lon="11.224798009474897"><ele>199.0</ele><time>2026-04-26T15:12:49Z</time></trkpt><trkpt lat="43.25446582960468" lon="11.224730488985896"><ele>199.0</ele><time>2026-04-26T15:12:50Z</time></trkpt><trkpt lat="43.254274845612244" lon="11.224685531166847"><ele>199.0</ele><time>2026-04-26T15:12:51Z</time></trkpt><trkpt lat="43.25408569033896" lon="11.224626560360313"><ele>199.0</ele><time>2026-04-26T15:12:52Z</time></trkpt><trkpt lat="43.25388431951084" lon="11.224674231360144"><ele>199.0</ele><time>2026-04-26T15:12:53Z</time></trkpt><trkpt lat="43.253696477898714" lon="11.224669076897476"><ele>198.33333333333331</ele><time>2026-04-26T15:12:54Z</time></trkpt><trkpt lat="43.2535166833021" lon="11.224640939516924"><ele>197.66666666666669</ele><time>2026-04-26T15:12:55Z</time></trkpt><trkpt lat="43.253345799827834" lon="11.224579728859528"><ele>197.0</ele><time>2026-04-26T15:12:56Z</time></trkpt><trkpt lat="43.25318046878664" lon="11.22450532954662"><ele>197.66666666666669</ele><time>2026-04-26T15:12:57Z</time></trkpt><trkpt lat="43.253020878540994" lon="11.224415591992278"><ele>198.33333333333331</ele><time>2026-04-26T15:12:58Z</time></trkpt><trkpt lat="43.252870176274214" lon="11.22431748376432"><ele>199.0</ele><time>2026-04-26T15:12:59Z</time></trkpt><trkpt lat="43.25273053130996" lon="11.224218122565032"><ele>199.0</ele><time>2026-04-26T15:13:00Z</time></trkpt><trkpt lat="43.2525966466096" lon="11.224138242313423"><ele>199.0</ele><time>2026-04-26T15:13:01Z</time></trkpt><trkpt lat="43.252474356386095" lon="11.224073937188075"><ele>199.0</ele><time>2026-04-26T15:13:02Z</time></trkpt><trkpt lat="43.25237063703684" lon="11.224019240269126"><ele>199.0</ele><time>2026-04-26T15:13:03Z</time></trkpt><trkpt lat="43.252275732313436" lon="11.2239662339042"><ele>198.83333333333331</ele><time>2026-04-26T15:13:04Z</time></trkpt><trkpt lat="43.25218515799876" lon="11.223915781589158"><ele>198.66666666666666</ele><time>2026-04-26T15:13:05Z</time></trkpt><trkpt lat="43.252101841046624" lon="11.223870896475388"><ele>198.5</ele><time>2026-04-26T15:13:06Z</time></trkpt><trkpt lat="43.252034807078" lon="11.223824127034657"><ele>198.33333333333331</ele><time>2026-04-26T15:13:07Z</time></trkpt><trkpt lat="43.25197961400838" lon="11.223770537830411"><ele>198.16666666666666</ele><time>2026-04-26T15:13:08Z</time></trkpt><trkpt lat="43.25192848114961" lon="11.22370565626526"><ele>198.0</ele><time>2026-04-26T15:13:09Z</time></trkpt><trkpt lat="43.25188155168978" lon="11.223642186189883"><ele>198.0</ele><time>2026-04-26T15:13:10Z</time></trkpt><trkpt lat="43.25182805341251" lon="11.22358524684296"><ele>198.0</ele><time>2026-04-26T15:13:11Z</time></trkpt><trkpt lat="43.25176257458845" lon="11.223547036735209"><ele>198.0</ele><time>2026-04-26T15:13:12Z</time></trkpt><trkpt lat="43.25168511617772" lon="11.223544205338605"><ele>198.0</ele><time>2026-04-26T15:13:13Z</time></trkpt><trkpt lat="43.25160172254082" lon="11.223576505288744"><ele>198.0</ele><time>2026-04-26T15:13:14Z</time></trkpt><trkpt lat="43.25150841644541" lon="11.223598646498928"><ele>198.0</ele><time>2026-04-26T15:13:15Z</time></trkpt><trkpt lat="43.25140531307675" lon="11.223588942411078"><ele>197.5</ele><time>2026-04-26T15:13:16Z</time></trkpt><trkpt lat="43.251300801451485" lon="11.223553296221393"><ele>197.0</ele><time>2026-04-26T15:13:17Z</time></trkpt><trkpt lat="43.251192301669626" lon="11.22351225984913"><ele>196.5</ele><time>2026-04-26T15:13:18Z</time></trkpt><trkpt lat="43.251081419144704" lon="11.223482420106565"><ele>196.0</ele><time>2026-04-26T15:13:19Z</time></trkpt><trkpt lat="43.25096299697216" lon="11.223451468265473"><ele>196.0</ele><time>2026-04-26T15:13:20Z</time></trkpt><trkpt lat="43.25083955199747" lon="11.223419352162212"><ele>196.0</ele><time>2026-04-26T15:13:21Z</time></trkpt><trkpt lat="43.25071156625899" lon="11.223376030091472"><ele>196.0</ele><time>2026-04-26T15:13:21.999Z</time></trkpt><trkpt lat="43.25058085844661" lon="11.223330325789075"><ele>196.0</ele><time>2026-04-26T15:13:22.999Z</time></trkpt><trkpt lat="43.250445782497614" lon="11.223289655326237"><ele>196.5</ele><time>2026-04-26T15:13:23.999Z</time></trkpt><trkpt lat="43.25031063609502" lon="11.223248772682409"><ele>197.0</ele><time>2026-04-26T15:13:24.999Z</time></trkpt><trkpt lat="43.2501724730248" lon="11.223205611376516"><ele>197.5</ele><time>2026-04-26T15:13:25.999Z</time></trkpt><trkpt lat="43.25003425809441" lon="11.223161571764146"><ele>198.0</ele><time>2026-04-26T15:13:26.999Z</time></trkpt><trkpt lat="43.24989321039393" lon="11.223120908731987"><ele>199.0</ele><time>2026-04-26T15:13:27.999Z</time></trkpt><trkpt lat="43.249754373604944" lon="11.223092921749489"><ele>200.0</ele><time>2026-04-26T15:13:28.999Z</time></trkpt><trkpt lat="43.249626211317484" lon="11.223073730905396"><ele>201.0</ele><time>2026-04-26T15:13:29.999Z</time></trkpt><trkpt lat="43.24951533687409" lon="11.223059232958322"><ele>202.0</ele><time>2026-04-26T15:13:30.999Z</time></trkpt><trkpt lat="43.24940446640332" lon="11.223044842530983"><ele>202.0</ele><time>2026-04-26T15:13:31.999Z</time></trkpt><trkpt lat="43.24928489917653" lon="11.22302695341062"><ele>202.0</ele><time>2026-04-26T15:13:32.999Z</time></trkpt><trkpt lat="43.249155992924415" lon="11.223006255572235"><ele>202.0</ele><time>2026-04-26T15:13:33.999Z</time></trkpt><trkpt lat="43.24902326526167" lon="11.222987014322747"><ele>202.0</ele><time>2026-04-26T15:13:34.999Z</time></trkpt><trkpt lat="43.248888507613756" lon="11.222976440829155"><ele>201.75</ele><time>2026-04-26T15:13:35.999Z</time></trkpt><trkpt lat="43.24875456139648" lon="11.222973691172593"><ele>201.5</ele><time>2026-04-26T15:13:36.999Z</time></trkpt><trkpt lat="43.24863349378443" lon="11.222976878866607"><ele>201.25</ele><time>2026-04-26T15:13:37.999Z</time></trkpt><trkpt lat="43.24852189731527" lon="11.222980976422123"><ele>201.0</ele><time>2026-04-26T15:13:38.999Z</time></trkpt><trkpt lat="43.24841639433534" lon="11.222981551494609"><ele>201.0</ele><time>2026-04-26T15:13:39.999Z</time></trkpt><trkpt lat="43.24832390387014" lon="11.222980701962333"><ele>201.0</ele><time>2026-04-26T15:13:40.999Z</time></trkpt><trkpt lat="43.24824565533983" lon="11.222978837997598"><ele>201.0</ele><time>2026-04-26T15:13:41.999Z</time></trkpt><trkpt lat="43.24814382068373" lon="11.222954339447927"><ele>201.0</ele><time>2026-04-26T15:13:43.999Z</time></trkpt><trkpt lat="43.24810813697348" lon="11.222881127568748"><ele>201.0</ele><time>2026-04-26T15:13:47.999Z</time></trkpt><trkpt lat="43.248133845514495" lon="11.222801016567926"><ele>201.0</ele><time>2026-04-26T15:13:50.999Z</time></trkpt><trkpt lat="43.24806281924339" lon="11.222804771699273"><ele>201.0</ele><time>2026-04-26T15:17:32Z</time></trkpt><trkpt lat="43.24795596166698" lon="11.222774653279162"><ele>201.0</ele><time>2026-04-26T15:19:13Z</time></trkpt><trkpt lat="43.247880890449615" lon="11.222796680721425"><ele>201.0</ele><time>2026-04-26T15:19:15Z</time></trkpt><trkpt lat="43.24780220627109" lon="11.222812810692151"><ele>201.0</ele><time>2026-04-26T15:19:18Z</time></trkpt><trkpt lat="43.24775962629504" lon="11.222887023536789"><ele>201.0</ele><time>2026-04-26T15:19:27Z</time></trkpt><trkpt lat="43.24769550512862" lon="11.222949771302396"><ele>201.0</ele><time>2026-04-26T15:19:29Z</time></trkpt><trkpt lat="43.247556784420205" lon="11.222942549009712"><ele>201.0</ele><time>2026-04-26T15:19:31Z</time></trkpt><trkpt lat="43.24748116225866" lon="11.22294042867379"><ele>201.0</ele><time>2026-04-26T15:19:32Z</time></trkpt><trkpt lat="43.24739032249562" lon="11.222930361213521"><ele>201.0</ele><time>2026-04-26T15:19:33Z</time></trkpt><trkpt lat="43.24730637491347" lon="11.222919298060622"><ele>201.0</ele><time>2026-04-26T15:19:34Z</time></trkpt><trkpt lat="43.24721650331999" lon="11.222906347934993"><ele>201.0</ele><time>2026-04-26T15:19:35Z</time></trkpt><trkpt lat="43.247118695419275" lon="11.222891153074627"><ele>201.0</ele><time>2026-04-26T15:19:36Z</time></trkpt><trkpt lat="43.24701270796707" lon="11.222873456480718"><ele>201.75</ele><time>2026-04-26T15:19:37Z</time></trkpt><trkpt lat="43.24689795255931" lon="11.222855027752468"><ele>202.5</ele><time>2026-04-26T15:19:38Z</time></trkpt><trkpt lat="43.246783286121094" lon="11.222825813944615"><ele>203.25</ele><time>2026-04-26T15:19:39Z</time></trkpt><trkpt lat="43.2466710728716" lon="11.22278695417369"><ele>204.0</ele><time>2026-04-26T15:19:40Z</time></trkpt><trkpt lat="43.24656890816584" lon="11.222753983225253"><ele>204.0</ele><time>2026-04-26T15:19:41Z</time></trkpt><trkpt lat="43.24646293950508" lon="11.222725636537659"><ele>204.0</ele><time>2026-04-26T15:19:41.999Z</time></trkpt><trkpt lat="43.24636230627573" lon="11.222695574513883"><ele>204.0</ele><time>2026-04-26T15:19:42.999Z</time></trkpt><trkpt lat="43.246261522355354" lon="11.222669827842516"><ele>204.0</ele><time>2026-04-26T15:19:43.999Z</time></trkpt><trkpt lat="43.24615936169467" lon="11.222632947785712"><ele>204.0</ele><time>2026-04-26T15:19:44.999Z</time></trkpt><trkpt lat="43.24605467116101" lon="11.22259410581888"><ele>203.5</ele><time>2026-04-26T15:19:45.999Z</time></trkpt><trkpt lat="43.245951959143035" lon="11.222552096756482"><ele>203.0</ele><time>2026-04-26T15:19:46.999Z</time></trkpt><trkpt lat="43.245831496000264" lon="11.222501309580167"><ele>202.5</ele><time>2026-04-26T15:19:47.999Z</time></trkpt><trkpt lat="43.24571373575415" lon="11.222446988769114"><ele>202.0</ele><time>2026-04-26T15:19:48.999Z</time></trkpt><trkpt lat="43.245594234799405" lon="11.222391612267131"><ele>202.0</ele><time>2026-04-26T15:19:49.999Z</time></trkpt><trkpt lat="43.24546696501837" lon="11.222332209183778"><ele>202.0</ele><time>2026-04-26T15:19:50.999Z</time></trkpt><trkpt lat="43.24534438980081" lon="11.222252503328725"><ele>202.0</ele><time>2026-04-26T15:19:51.999Z</time></trkpt><trkpt lat="43.24523038239016" lon="11.222158555360757"><ele>202.0</ele><time>2026-04-26T15:19:52.999Z</time></trkpt><trkpt lat="43.24512507914009" lon="11.222052980094249"><ele>202.0</ele><time>2026-04-26T15:19:53.999Z</time></trkpt><trkpt lat="43.24504329763745" lon="11.221951552401439"><ele>202.0</ele><time>2026-04-26T15:19:54.999Z</time></trkpt><trkpt lat="43.24497211272029" lon="11.221845729155541"><ele>202.0</ele><time>2026-04-26T15:19:55.999Z</time></trkpt><trkpt lat="43.24492363672687" lon="11.221724808659484"><ele>202.0</ele><time>2026-04-26T15:19:56.999Z</time></trkpt><trkpt lat="43.24487500359413" lon="11.221595061451463"><ele>202.0</ele><time>2026-04-26T15:19:57.999Z</time></trkpt><trkpt lat="43.24483684907601" lon="11.221459597425373"><ele>202.25</ele><time>2026-04-26T15:19:58.999Z</time></trkpt><trkpt lat="43.24479803443905" lon="11.221319432447235"><ele>202.5</ele><time>2026-04-26T15:19:59.999Z</time></trkpt><trkpt lat="43.24475842272818" lon="11.22116820790419"><ele>202.75</ele><time>2026-04-26T15:20:00.999Z</time></trkpt><trkpt lat="43.24471991104895" lon="11.221015342469123"><ele>203.0</ele><time>2026-04-26T15:20:01.999Z</time></trkpt><trkpt lat="43.24467581390993" lon="11.220863005263723"><ele>203.0</ele><time>2026-04-26T15:20:02.999Z</time></trkpt><trkpt lat="43.24463365522635" lon="11.220705321774988"><ele>203.0</ele><time>2026-04-26T15:20:03.999Z</time></trkpt><trkpt lat="43.24459456042907" lon="11.220539718200166"><ele>203.0</ele><time>2026-04-26T15:20:04.999Z</time></trkpt><trkpt lat="43.24455292509664" lon="11.220378256615291"><ele>203.0</ele><time>2026-04-26T15:20:05.999Z</time></trkpt><trkpt lat="43.2445381534825" lon="11.220218746415311"><ele>203.2</ele><time>2026-04-26T15:20:06.999Z</time></trkpt><trkpt lat="43.24450478872108" lon="11.220079540829577"><ele>203.4</ele><time>2026-04-26T15:20:07.999Z</time></trkpt><trkpt lat="43.24447541053001" lon="11.219956968150498"><ele>203.6</ele><time>2026-04-26T15:20:08.999Z</time></trkpt><trkpt lat="43.24444793936458" lon="11.219842165395207"><ele>203.79999999999998</ele><time>2026-04-26T15:20:09.999Z</time></trkpt><trkpt lat="43.24442433717135" lon="11.219736708405653"><ele>204.0</ele><time>2026-04-26T15:20:10.999Z</time></trkpt><trkpt lat="43.24439400211373" lon="11.219628321422862"><ele>204.0</ele><time>2026-04-26T15:20:11.999Z</time></trkpt><trkpt lat="43.24438278468401" lon="11.219511887111661"><ele>204.0</ele><time>2026-04-26T15:20:12.999Z</time></trkpt><trkpt lat="43.24439381663133" lon="11.219384154717632"><ele>204.0</ele><time>2026-04-26T15:20:13.999Z</time></trkpt><trkpt lat="43.2444472146309" lon="11.219272370101208"><ele>204.0</ele><time>2026-04-26T15:20:14.999Z</time></trkpt><trkpt lat="43.24447669744041" lon="11.21914642752543"><ele>204.0</ele><time>2026-04-26T15:20:15.999Z</time></trkpt><trkpt lat="43.2445450806965" lon="11.219016960895729"><ele>203.75</ele><time>2026-04-26T15:20:16.999Z</time></trkpt><trkpt lat="43.24459963605729" lon="11.21888290123621"><ele>203.5</ele><time>2026-04-26T15:20:17.999Z</time></trkpt><trkpt lat="43.244659415387105" lon="11.218736004647475"><ele>203.25</ele><time>2026-04-26T15:20:18.999Z</time></trkpt><trkpt lat="43.24471560538474" lon="11.21859792817562"><ele>203.0</ele><time>2026-04-26T15:20:19.999Z</time></trkpt><trkpt lat="43.24476887822003" lon="11.21846665633196"><ele>205.0</ele><time>2026-04-26T15:20:20.999Z</time></trkpt><trkpt lat="43.24482262077223" lon="11.218333906144473"><ele>207.0</ele><time>2026-04-26T15:20:21.999Z</time></trkpt><trkpt lat="43.24487922630048" lon="11.218194084083905"><ele>209.0</ele><time>2026-04-26T15:20:22.999Z</time></trkpt><trkpt lat="43.24493711819125" lon="11.21804848390161"><ele>211.0</ele><time>2026-04-26T15:20:23.999Z</time></trkpt><trkpt lat="43.24499003502858" lon="11.217891786181543"><ele>212.0</ele><time>2026-04-26T15:20:24.999Z</time></trkpt><trkpt lat="43.245029721355216" lon="11.217716546904894"><ele>213.0</ele><time>2026-04-26T15:20:25.999Z</time></trkpt><trkpt lat="43.24506492768265" lon="11.217545835448593"><ele>214.0</ele><time>2026-04-26T15:20:26.999Z</time></trkpt><trkpt lat="43.245097543451195" lon="11.217375192098228"><ele>215.0</ele><time>2026-04-26T15:20:27.999Z</time></trkpt><trkpt lat="43.24513057887918" lon="11.217199774841566"><ele>215.25</ele><time>2026-04-26T15:20:28.999Z</time></trkpt><trkpt lat="43.24516251665281" lon="11.217025126230839"><ele>215.5</ele><time>2026-04-26T15:20:29.999Z</time></trkpt><trkpt lat="43.245196617571025" lon="11.21685377755494"><ele>215.75</ele><time>2026-04-26T15:20:30.999Z</time></trkpt><trkpt lat="43.24522899168818" lon="11.216693280287663"><ele>216.0</ele><time>2026-04-26T15:20:31.999Z</time></trkpt><trkpt lat="43.24526083441755" lon="11.216540034697926"><ele>214.25</ele><time>2026-04-26T15:20:32.999Z</time></trkpt><trkpt lat="43.24529064561338" lon="11.216396566023091"><ele>212.5</ele><time>2026-04-26T15:20:33.999Z</time></trkpt><trkpt lat="43.245320546500835" lon="11.2162550529103"><ele>210.75</ele><time>2026-04-26T15:20:34.999Z</time></trkpt><trkpt lat="43.24534099304931" lon="11.216101232648704"><ele>209.0</ele><time>2026-04-26T15:20:35.998Z</time></trkpt><trkpt lat="43.245376785400595" lon="11.21592619039503"><ele>209.0</ele><time>2026-04-26T15:20:36.998Z</time></trkpt><trkpt lat="43.24542737298515" lon="11.215753235697276"><ele>209.0</ele><time>2026-04-26T15:20:37.998Z</time></trkpt><trkpt lat="43.24546980617636" lon="11.215557983571994"><ele>209.0</ele><time>2026-04-26T15:20:38.998Z</time></trkpt><trkpt lat="43.245516741566576" lon="11.215342523596957"><ele>209.0</ele><time>2026-04-26T15:20:39.998Z</time></trkpt><trkpt lat="43.24556649678716" lon="11.215114119010032"><ele>209.66666666666669</ele><time>2026-04-26T15:20:40.998Z</time></trkpt><trkpt lat="43.24561724871085" lon="11.214881138997482"><ele>210.33333333333331</ele><time>2026-04-26T15:20:41.998Z</time></trkpt><trkpt lat="43.245668185219074" lon="11.214646653448561"><ele>211.0</ele><time>2026-04-26T15:20:43Z</time></trkpt><trkpt lat="43.24570386973663" lon="11.214405877023658"><ele>211.33333333333331</ele><time>2026-04-26T15:20:44Z</time></trkpt><trkpt lat="43.2457629776003" lon="11.214171064767967"><ele>211.66666666666669</ele><time>2026-04-26T15:20:45Z</time></trkpt><trkpt lat="43.24581747846339" lon="11.21393456260342"><ele>212.0</ele><time>2026-04-26T15:20:46Z</time></trkpt><trkpt lat="43.24588398262302" lon="11.213698197940909"><ele>212.0</ele><time>2026-04-26T15:20:47Z</time></trkpt><trkpt lat="43.24596959786439" lon="11.213475153512803"><ele>212.0</ele><time>2026-04-26T15:20:48Z</time></trkpt><trkpt lat="43.246070942947256" lon="11.213257088431892"><ele>212.0</ele><time>2026-04-26T15:20:49Z</time></trkpt><trkpt lat="43.246171917560744" lon="11.213045564526823"><ele>213.33333333333334</ele><time>2026-04-26T15:20:50Z</time></trkpt><trkpt lat="43.24627804920105" lon="11.212813451545323"><ele>214.66666666666669</ele><time>2026-04-26T15:20:51Z</time></trkpt><trkpt lat="43.246387966149506" lon="11.212580309585352"><ele>216.0</ele><time>2026-04-26T15:20:52Z</time></trkpt><trkpt lat="43.24649742839087" lon="11.212359409857067"><ele>217.33333333333331</ele><time>2026-04-26T15:20:53Z</time></trkpt><trkpt lat="43.24659903644336" lon="11.212156694852354"><ele>218.66666666666666</ele><time>2026-04-26T15:20:54Z</time></trkpt><trkpt lat="43.24669851931303" lon="11.211950970579519"><ele>220.0</ele><time>2026-04-26T15:20:55Z</time></trkpt><trkpt lat="43.24679186885769" lon="11.211735175685323"><ele>220.0</ele><time>2026-04-26T15:20:56Z</time></trkpt><trkpt lat="43.24686643647109" lon="11.211512692685627"><ele>220.0</ele><time>2026-04-26T15:20:57Z</time></trkpt><trkpt lat="43.246920521260435" lon="11.211276427299712"><ele>220.0</ele><time>2026-04-26T15:20:58Z</time></trkpt><trkpt lat="43.24693519374028" lon="11.211039296976143"><ele>220.33333333333331</ele><time>2026-04-26T15:20:59Z</time></trkpt><trkpt lat="43.24692575537863" lon="11.210809676508553"><ele>220.66666666666669</ele><time>2026-04-26T15:21:00Z</time></trkpt><trkpt lat="43.2469076554358" lon="11.210584537627863"><ele>221.0</ele><time>2026-04-26T15:21:01Z</time></trkpt><trkpt lat="43.24686975105948" lon="11.210358883215754"><ele>222.33333333333334</ele><time>2026-04-26T15:21:02Z</time></trkpt><trkpt lat="43.24680317647744" lon="11.210136851746547"><ele>223.66666666666669</ele><time>2026-04-26T15:21:03Z</time></trkpt><trkpt lat="43.24671210755795" lon="11.209882909617235"><ele>225.0</ele><time>2026-04-26T15:21:04Z</time></trkpt><trkpt lat="43.246603163806526" lon="11.209683451194605"><ele>225.66666666666669</ele><time>2026-04-26T15:21:05Z</time></trkpt><trkpt lat="43.246479121567184" lon="11.20951380796287"><ele>226.33333333333334</ele><time>2026-04-26T15:21:06Z</time></trkpt><trkpt lat="43.24634907469002" lon="11.20935526709122"><ele>227.0</ele><time>2026-04-26T15:21:07Z</time></trkpt><trkpt lat="43.24622809568661" lon="11.209194807616228"><ele>227.0</ele><time>2026-04-26T15:21:08Z</time></trkpt><trkpt lat="43.24610879962817" lon="11.209027209035256"><ele>227.0</ele><time>2026-04-26T15:21:09Z</time></trkpt><trkpt lat="43.24599996380493" lon="11.208848341958394"><ele>227.0</ele><time>2026-04-26T15:21:10Z</time></trkpt><trkpt lat="43.245892424120726" lon="11.208669008990336"><ele>226.66666666666669</ele><time>2026-04-26T15:21:11Z</time></trkpt><trkpt lat="43.2457798747508" lon="11.20847712036503"><ele>226.33333333333331</ele><time>2026-04-26T15:21:12Z</time></trkpt><trkpt lat="43.245668608773016" lon="11.208276215444716"><ele>226.0</ele><time>2026-04-26T15:21:13Z</time></trkpt><trkpt lat="43.24557379382399" lon="11.208068572798675"><ele>228.33333333333331</ele><time>2026-04-26T15:21:14Z</time></trkpt><trkpt lat="43.24547835297682" lon="11.20785823135573"><ele>230.66666666666669</ele><time>2026-04-26T15:21:15Z</time></trkpt><trkpt lat="43.245385313905786" lon="11.207648997998408"><ele>233.0</ele><time>2026-04-26T15:21:16Z</time></trkpt><trkpt lat="43.24529652752138" lon="11.207434109046615"><ele>234.33333333333334</ele><time>2026-04-26T15:21:17Z</time></trkpt><trkpt lat="43.24520973676508" lon="11.207220453106057"><ele>235.66666666666669</ele><time>2026-04-26T15:21:18Z</time></trkpt><trkpt lat="43.24512862828971" lon="11.20700355873604"><ele>237.0</ele><time>2026-04-26T15:21:19Z</time></trkpt><trkpt lat="43.24504581419819" lon="11.206790780726969"><ele>237.0</ele><time>2026-04-26T15:21:20Z</time></trkpt><trkpt lat="43.244949037461396" lon="11.206590796773915"><ele>237.0</ele><time>2026-04-26T15:21:21Z</time></trkpt><trkpt lat="43.244839506581144" lon="11.206400447170342"><ele>237.0</ele><time>2026-04-26T15:21:22Z</time></trkpt><trkpt lat="43.244721930840164" lon="11.206225881443633"><ele>237.0</ele><time>2026-04-26T15:21:23Z</time></trkpt><trkpt lat="43.24458964318021" lon="11.206060760763128"><ele>237.0</ele><time>2026-04-26T15:21:24Z</time></trkpt><trkpt lat="43.24446142787641" lon="11.205898055570007"><ele>237.0</ele><time>2026-04-26T15:21:25Z</time></trkpt><trkpt lat="43.244340511833805" lon="11.20571771691664"><ele>241.66666666666669</ele><time>2026-04-26T15:21:26Z</time></trkpt><trkpt lat="43.24421584380456" lon="11.205553181204422"><ele>246.33333333333334</ele><time>2026-04-26T15:21:27Z</time></trkpt><trkpt lat="43.244092156631005" lon="11.205385666367837"><ele>251.0</ele><time>2026-04-26T15:21:28Z</time></trkpt><trkpt lat="43.24396676494402" lon="11.205221726759317"><ele>248.0</ele><time>2026-04-26T15:21:29Z</time></trkpt><trkpt lat="43.243843877166334" lon="11.205057122407325"><ele>245.0</ele><time>2026-04-26T15:21:30Z</time></trkpt><trkpt lat="43.24373407431662" lon="11.204880490504287"><ele>242.0</ele><time>2026-04-26T15:21:31Z</time></trkpt><trkpt lat="43.24365484725275" lon="11.204678604355411"><ele>242.0</ele><time>2026-04-26T15:21:32Z</time></trkpt><trkpt lat="43.243596180697175" lon="11.204465260130627"><ele>242.0</ele><time>2026-04-26T15:21:33Z</time></trkpt><trkpt lat="43.24352775365214" lon="11.20426684000553"><ele>242.0</ele><time>2026-04-26T15:21:34Z</time></trkpt><trkpt lat="43.243431089906096" lon="11.204087840669704"><ele>241.33333333333334</ele><time>2026-04-26T15:21:35Z</time></trkpt><trkpt lat="43.24330922072158" lon="11.203934803933784"><ele>240.66666666666669</ele><time>2026-04-26T15:21:36Z</time></trkpt><trkpt lat="43.243169742596706" lon="11.203795577764797"><ele>240.0</ele><time>2026-04-26T15:21:37Z</time></trkpt><trkpt lat="43.24301174201223" lon="11.203695061934456"><ele>240.0</ele><time>2026-04-26T15:21:38Z</time></trkpt><trkpt lat="43.24285831566428" lon="11.203595311726502"><ele>240.0</ele><time>2026-04-26T15:21:39Z</time></trkpt><trkpt lat="43.242703501074494" lon="11.203493915106693"><ele>240.0</ele><time>2026-04-26T15:21:40Z</time></trkpt><trkpt lat="43.24254439281891" lon="11.20341036459795"><ele>240.0</ele><time>2026-04-26T15:21:41Z</time></trkpt><trkpt lat="43.24239884994426" lon="11.2032960487765"><ele>240.0</ele><time>2026-04-26T15:21:42Z</time></trkpt><trkpt lat="43.24225177070123" lon="11.203190638439317"><ele>240.0</ele><time>2026-04-26T15:21:43Z</time></trkpt><trkpt lat="43.24210543002258" lon="11.203064778737355"><ele>241.0</ele><time>2026-04-26T15:21:44Z</time></trkpt><trkpt lat="43.241952034815256" lon="11.202929811946497"><ele>242.0</ele><time>2026-04-26T15:21:45Z</time></trkpt><trkpt lat="43.24179229650573" lon="11.20277600049748"><ele>243.0</ele><time>2026-04-26T15:21:46Z</time></trkpt><trkpt lat="43.24163979759856" lon="11.202623208269818"><ele>243.0</ele><time>2026-04-26T15:21:46.999Z</time></trkpt><trkpt lat="43.24149525609652" lon="11.202459181182462"><ele>243.0</ele><time>2026-04-26T15:21:47.999Z</time></trkpt><trkpt lat="43.24136131541701" lon="11.202283112909953"><ele>243.0</ele><time>2026-04-26T15:21:48.999Z</time></trkpt><trkpt lat="43.24123830687929" lon="11.202091875092785"><ele>243.0</ele><time>2026-04-26T15:21:49.999Z</time></trkpt><trkpt lat="43.2411418113013" lon="11.20187820064331"><ele>243.0</ele><time>2026-04-26T15:21:50.999Z</time></trkpt><trkpt lat="43.24105275192141" lon="11.201658524838045"><ele>243.0</ele><time>2026-04-26T15:21:51.999Z</time></trkpt><trkpt lat="43.24096531627698" lon="11.201431188818225"><ele>243.0</ele><time>2026-04-26T15:21:52.999Z</time></trkpt><trkpt lat="43.24087178693387" lon="11.201207558705244"><ele>243.0</ele><time>2026-04-26T15:21:53.999Z</time></trkpt><trkpt lat="43.240780912563736" lon="11.200982205214434"><ele>243.0</ele><time>2026-04-26T15:21:54.999Z</time></trkpt><trkpt lat="43.24070033000627" lon="11.200742186040758"><ele>242.66666666666669</ele><time>2026-04-26T15:21:55.999Z</time></trkpt><trkpt lat="43.24064170892609" lon="11.200504543136713"><ele>242.33333333333334</ele><time>2026-04-26T15:21:56.999Z</time></trkpt><trkpt lat="43.24058831217441" lon="11.200274000694879"><ele>242.0</ele><time>2026-04-26T15:21:57.999Z</time></trkpt><trkpt lat="43.24055154983635" lon="11.200013698604298"><ele>242.33333333333334</ele><time>2026-04-26T15:21:58.999Z</time></trkpt><trkpt lat="43.24051946355536" lon="11.199749066645701"><ele>242.66666666666669</ele><time>2026-04-26T15:21:59.999Z</time></trkpt><trkpt lat="43.24050218679504" lon="11.199474004346504"><ele>243.0</ele><time>2026-04-26T15:22:00.999Z</time></trkpt><trkpt lat="43.240487469199635" lon="11.19920246364552"><ele>243.66666666666669</ele><time>2026-04-26T15:22:01.999Z</time></trkpt><trkpt lat="43.240469734138166" lon="11.198920967310459"><ele>244.33333333333334</ele><time>2026-04-26T15:22:02.999Z</time></trkpt><trkpt lat="43.24044219185789" lon="11.198637169003248"><ele>245.0</ele><time>2026-04-26T15:22:03.999Z</time></trkpt><trkpt lat="43.24040478716222" lon="11.198346829899402"><ele>245.33333333333334</ele><time>2026-04-26T15:22:04.999Z</time></trkpt><trkpt lat="43.240352416106504" lon="11.198083868784067"><ele>245.66666666666669</ele><time>2026-04-26T15:22:05.999Z</time></trkpt><trkpt lat="43.24031900183438" lon="11.197795341823138"><ele>246.0</ele><time>2026-04-26T15:22:06.999Z</time></trkpt><trkpt lat="43.24028557103901" lon="11.197498826930206"><ele>246.66666666666669</ele><time>2026-04-26T15:22:07.999Z</time></trkpt><trkpt lat="43.24025352921366" lon="11.197208470866979"><ele>247.33333333333334</ele><time>2026-04-26T15:22:08.999Z</time></trkpt><trkpt lat="43.24021918191685" lon="11.196917821636324"><ele>248.0</ele><time>2026-04-26T15:22:09.999Z</time></trkpt><trkpt lat="43.24018360857073" lon="11.19664193979256"><ele>249.33333333333334</ele><time>2026-04-26T15:22:10.999Z</time></trkpt><trkpt lat="43.240145478234425" lon="11.196375440139407"><ele>250.66666666666669</ele><time>2026-04-26T15:22:11.999Z</time></trkpt><trkpt lat="43.24009805918118" lon="11.196103167543594"><ele>252.0</ele><time>2026-04-26T15:22:12.999Z</time></trkpt><trkpt lat="43.240035913812264" lon="11.195840156506174"><ele>253.0</ele><time>2026-04-26T15:22:13.999Z</time></trkpt><trkpt lat="43.23996974343841" lon="11.1955749025944"><ele>254.0</ele><time>2026-04-26T15:22:14.999Z</time></trkpt><trkpt lat="43.23990631723338" lon="11.195317054109509"><ele>255.0</ele><time>2026-04-26T15:22:15.999Z</time></trkpt><trkpt lat="43.239843000030206" lon="11.195044770061214"><ele>258.0</ele><time>2026-04-26T15:22:16.999Z</time></trkpt><trkpt lat="43.23976763217455" lon="11.194783908447874"><ele>261.0</ele><time>2026-04-26T15:22:17.999Z</time></trkpt><trkpt lat="43.23968402037686" lon="11.19452381270073"><ele>264.0</ele><time>2026-04-26T15:22:18.999Z</time></trkpt><trkpt lat="43.23960320727063" lon="11.194259982633827"><ele>263.0</ele><time>2026-04-26T15:22:19.999Z</time></trkpt><trkpt lat="43.239529686751304" lon="11.193999157048689"><ele>262.0</ele><time>2026-04-26T15:22:20.999Z</time></trkpt><trkpt lat="43.23946244878913" lon="11.193742044830827"><ele>261.0</ele><time>2026-04-26T15:22:21.999Z</time></trkpt><trkpt lat="43.239382325039855" lon="11.193492914462222"><ele>261.0</ele><time>2026-04-26T15:22:22.999Z</time></trkpt><trkpt lat="43.239304496962625" lon="11.193260294611244"><ele>261.0</ele><time>2026-04-26T15:22:23.999Z</time></trkpt><trkpt lat="43.23923371338685" lon="11.19304034645617"><ele>261.0</ele><time>2026-04-26T15:22:24.999Z</time></trkpt><trkpt lat="43.23916944683876" lon="11.192842363894306"><ele>263.0</ele><time>2026-04-26T15:22:25.999Z</time></trkpt><trkpt lat="43.23911158351049" lon="11.19265184206609"><ele>265.0</ele><time>2026-04-26T15:22:26.999Z</time></trkpt><trkpt lat="43.23905856560435" lon="11.192473022536548"><ele>267.0</ele><time>2026-04-26T15:22:27.999Z</time></trkpt><trkpt lat="43.23898923356365" lon="11.192332947366086"><ele>269.0</ele><time>2026-04-26T15:22:28.999Z</time></trkpt><trkpt lat="43.23890575345798" lon="11.192233476878673"><ele>276.25</ele><time>2026-04-26T15:22:29.999Z</time></trkpt><trkpt lat="43.23880434505043" lon="11.19217093086427"><ele>283.5</ele><time>2026-04-26T15:22:30.999Z</time></trkpt><trkpt lat="43.23867842235824" lon="11.192167711188963"><ele>290.75</ele><time>2026-04-26T15:22:31.999Z</time></trkpt><trkpt lat="43.23854252316738" lon="11.192195432401425"><ele>298.0</ele><time>2026-04-26T15:22:32.999Z</time></trkpt><trkpt lat="43.23841545365192" lon="11.192255608101746"><ele>292.0</ele><time>2026-04-26T15:22:33.999Z</time></trkpt><trkpt lat="43.23828672727028" lon="11.192341166198196"><ele>286.0</ele><time>2026-04-26T15:22:34.999Z</time></trkpt><trkpt lat="43.23818005020857" lon="11.192474944858025"><ele>280.0</ele><time>2026-04-26T15:22:35.999Z</time></trkpt><trkpt lat="43.23809539114469" lon="11.192626520084051"><ele>274.0</ele><time>2026-04-26T15:22:36.999Z</time></trkpt><trkpt lat="43.23801268138091" lon="11.192747325361152"><ele>274.0</ele><time>2026-04-26T15:22:37.999Z</time></trkpt><trkpt lat="43.23791781743562" lon="11.192845308512332"><ele>274.0</ele><time>2026-04-26T15:22:38.999Z</time></trkpt><trkpt lat="43.23780688452133" lon="11.192915538751892"><ele>274.0</ele><time>2026-04-26T15:22:39.999Z</time></trkpt><trkpt lat="43.23769399245001" lon="11.19292696350523"><ele>274.0</ele><time>2026-04-26T15:22:40.998Z</time></trkpt><trkpt lat="43.23758903822462" lon="11.192847469970111"><ele>274.0</ele><time>2026-04-26T15:22:41.998Z</time></trkpt><trkpt lat="43.23751436705649" lon="11.19277988796073"><ele>274.0</ele><time>2026-04-26T15:22:42.998Z</time></trkpt><trkpt lat="43.237472916799135" lon="11.192679373871027"><ele>274.0</ele><time>2026-04-26T15:22:43.998Z</time></trkpt><trkpt lat="43.23739515007738" lon="11.192557353961178"><ele>274.0</ele><time>2026-04-26T15:22:44.998Z</time></trkpt><trkpt lat="43.2373344943707" lon="11.192432143007817"><ele>274.0</ele><time>2026-04-26T15:22:45.998Z</time></trkpt><trkpt lat="43.23724954287768" lon="11.192285259461059"><ele>275.5</ele><time>2026-04-26T15:22:46.998Z</time></trkpt><trkpt lat="43.23712582888791" lon="11.192190949199055"><ele>277.0</ele><time>2026-04-26T15:22:47.998Z</time></trkpt><trkpt lat="43.237036923480325" lon="11.192044758399035"><ele>278.5</ele><time>2026-04-26T15:22:49Z</time></trkpt><trkpt lat="43.236969962730406" lon="11.191910155866"><ele>280.0</ele><time>2026-04-26T15:22:50Z</time></trkpt><trkpt lat="43.23687995565705" lon="11.191799984770531"><ele>280.0</ele><time>2026-04-26T15:22:51Z</time></trkpt><trkpt lat="43.23675516477542" lon="11.191778997810587"><ele>280.0</ele><time>2026-04-26T15:22:52Z</time></trkpt><trkpt lat="43.236613795679" lon="11.19172639310447"><ele>280.0</ele><time>2026-04-26T15:22:53Z</time></trkpt><trkpt lat="43.236464953571286" lon="11.191676665002623"><ele>280.0</ele><time>2026-04-26T15:22:54Z</time></trkpt><trkpt lat="43.23631013683022" lon="11.191639889247353"><ele>278.0</ele><time>2026-04-26T15:22:55Z</time></trkpt><trkpt lat="43.236153396304374" lon="11.191608258951373"><ele>276.0</ele><time>2026-04-26T15:22:56Z</time></trkpt><trkpt lat="43.235977634201554" lon="11.191582528357591"><ele>274.0</ele><time>2026-04-26T15:22:57Z</time></trkpt><trkpt lat="43.235804775857346" lon="11.19154266877703"><ele>275.66666666666663</ele><time>2026-04-26T15:22:58Z</time></trkpt><trkpt lat="43.23564413630629" lon="11.191475952805968"><ele>277.3333333333333</ele><time>2026-04-26T15:22:59Z</time></trkpt><trkpt lat="43.23549367300657" lon="11.191388718691979"><ele>279.0</ele><time>2026-04-26T15:23:00Z</time></trkpt><trkpt lat="43.23537382770317" lon="11.191241108072454"><ele>279.0</ele><time>2026-04-26T15:23:01Z</time></trkpt><trkpt lat="43.235241372752874" lon="11.19107839173369"><ele>279.0</ele><time>2026-04-26T15:23:02Z</time></trkpt><trkpt lat="43.2351217919968" lon="11.190915989838778"><ele>279.0</ele><time>2026-04-26T15:23:03Z</time></trkpt><trkpt lat="43.23499033322733" lon="11.190796239358438"><ele>279.0</ele><time>2026-04-26T15:23:04Z</time></trkpt><trkpt lat="43.23486485196139" lon="11.190701016653161"><ele>279.0</ele><time>2026-04-26T15:23:05Z</time></trkpt><trkpt lat="43.23473930012949" lon="11.19063689625413"><ele>279.0</ele><time>2026-04-26T15:23:06Z</time></trkpt><trkpt lat="43.23460236749498" lon="11.190639007487498"><ele>279.0</ele><time>2026-04-26T15:23:07Z</time></trkpt><trkpt lat="43.23447427803065" lon="11.190716941573127"><ele>278.25</ele><time>2026-04-26T15:23:08Z</time></trkpt><trkpt lat="43.234339158251764" lon="11.190793386522731"><ele>277.5</ele><time>2026-04-26T15:23:09Z</time></trkpt><trkpt lat="43.23421350221729" lon="11.190872603707632"><ele>276.75</ele><time>2026-04-26T15:23:10Z</time></trkpt><trkpt lat="43.2340732856053" lon="11.190961337984596"><ele>276.0</ele><time>2026-04-26T15:23:11Z</time></trkpt><trkpt lat="43.233939493434605" lon="11.191070490238273"><ele>279.3333333333333</ele><time>2026-04-26T15:23:12Z</time></trkpt><trkpt lat="43.233820474984654" lon="11.191209359133909"><ele>282.66666666666663</ele><time>2026-04-26T15:23:13Z</time></trkpt><trkpt lat="43.233707453059644" lon="11.191363558051494"><ele>286.0</ele><time>2026-04-26T15:23:14Z</time></trkpt><trkpt lat="43.23357960815672" lon="11.19146964688446"><ele>286.0</ele><time>2026-04-26T15:23:15Z</time></trkpt><trkpt lat="43.233463180957656" lon="11.191516426014513"><ele>286.0</ele><time>2026-04-26T15:23:16Z</time></trkpt><trkpt lat="43.23333568023228" lon="11.19153548384141"><ele>286.0</ele><time>2026-04-26T15:23:17Z</time></trkpt><trkpt lat="43.23324981648187" lon="11.191482793850234"><ele>286.0</ele><time>2026-04-26T15:23:18Z</time></trkpt><trkpt lat="43.23318717088166" lon="11.191398162855357"><ele>286.0</ele><time>2026-04-26T15:23:19Z</time></trkpt><trkpt lat="43.23305953882117" lon="11.191207450967926"><ele>285.3333333333333</ele><time>2026-04-26T15:23:20Z</time></trkpt><trkpt lat="43.23294013752534" lon="11.191025241371925"><ele>284.6666666666667</ele><time>2026-04-26T15:23:21Z</time></trkpt><trkpt lat="43.23282908072919" lon="11.190841002686865"><ele>284.0</ele><time>2026-04-26T15:23:22Z</time></trkpt><trkpt lat="43.23275965317689" lon="11.190676103661225"><ele>283.0</ele><time>2026-04-26T15:23:23Z</time></trkpt><trkpt lat="43.23261083398364" lon="11.190491254766304"><ele>282.0</ele><time>2026-04-26T15:23:24Z</time></trkpt><trkpt lat="43.23246773210789" lon="11.190314237736509"><ele>281.0</ele><time>2026-04-26T15:23:25Z</time></trkpt><trkpt lat="43.23232961424072" lon="11.190136645978184"><ele>282.0</ele><time>2026-04-26T15:23:26Z</time></trkpt><trkpt lat="43.232190022505165" lon="11.189985560180245"><ele>283.0</ele><time>2026-04-26T15:23:27Z</time></trkpt><trkpt lat="43.23213768371952" lon="11.189732687807872"><ele>284.0</ele><time>2026-04-26T15:23:28Z</time></trkpt><trkpt lat="43.23206520387329" lon="11.189490957330905"><ele>284.0</ele><time>2026-04-26T15:23:29Z</time></trkpt><trkpt lat="43.23194180383779" lon="11.189282051490244"><ele>284.0</ele><time>2026-04-26T15:23:30Z</time></trkpt><trkpt lat="43.23180171568703" lon="11.189085361614747"><ele>284.0</ele><time>2026-04-26T15:23:31Z</time></trkpt><trkpt lat="43.23165629685501" lon="11.188894792186739"><ele>283.6666666666667</ele><time>2026-04-26T15:23:32Z</time></trkpt><trkpt lat="43.231534726486544" lon="11.188688924206627"><ele>283.3333333333333</ele><time>2026-04-26T15:23:33Z</time></trkpt><trkpt lat="43.231430972659695" lon="11.188481253210638"><ele>283.0</ele><time>2026-04-26T15:23:34Z</time></trkpt><trkpt lat="43.23134370480005" lon="11.188275012896367"><ele>281.66666666666663</ele><time>2026-04-26T15:23:35Z</time></trkpt><trkpt lat="43.23126920085506" lon="11.18805466006055"><ele>280.3333333333333</ele><time>2026-04-26T15:23:36Z</time></trkpt><trkpt lat="43.23117288960258" lon="11.18784732053946"><ele>279.0</ele><time>2026-04-26T15:23:37Z</time></trkpt><trkpt lat="43.23106181731124" lon="11.187697733936062"><ele>279.0</ele><time>2026-04-26T15:23:38Z</time></trkpt><trkpt lat="43.230959372398495" lon="11.187540108498494"><ele>279.0</ele><time>2026-04-26T15:23:39Z</time></trkpt><trkpt lat="43.23090368824667" lon="11.187355605388676"><ele>279.0</ele><time>2026-04-26T15:23:40Z</time></trkpt><trkpt lat="43.23087989230925" lon="11.187168780947207"><ele>279.0</ele><time>2026-04-26T15:23:41Z</time></trkpt><trkpt lat="43.23091141352732" lon="11.186988755142496"><ele>279.25</ele><time>2026-04-26T15:23:42Z</time></trkpt><trkpt lat="43.230963047240266" lon="11.186834149547954"><ele>279.5</ele><time>2026-04-26T15:23:43Z</time></trkpt><trkpt lat="43.23099562113017" lon="11.186631368019222"><ele>279.75</ele><time>2026-04-26T15:23:44Z</time></trkpt><trkpt lat="43.230996960661805" lon="11.186433153312118"><ele>280.0</ele><time>2026-04-26T15:23:45Z</time></trkpt><trkpt lat="43.230967311217796" lon="11.18622970618676"><ele>280.0</ele><time>2026-04-26T15:23:46Z</time></trkpt><trkpt lat="43.23091145845079" lon="11.186040270910915"><ele>280.0</ele><time>2026-04-26T15:23:47Z</time></trkpt><trkpt lat="43.23085348842872" lon="11.185835130644454"><ele>280.0</ele><time>2026-04-26T15:23:48Z</time></trkpt><trkpt lat="43.230809028190315" lon="11.185611082191967"><ele>282.3333333333333</ele><time>2026-04-26T15:23:49Z</time></trkpt><trkpt lat="43.23078672125425" lon="11.185386674193138"><ele>284.6666666666667</ele><time>2026-04-26T15:23:50Z</time></trkpt><trkpt lat="43.23079926340993" lon="11.185175431539347"><ele>287.0</ele><time>2026-04-26T15:23:51Z</time></trkpt><trkpt lat="43.230837557197084" lon="11.184961014007945"><ele>288.6666666666667</ele><time>2026-04-26T15:23:52Z</time></trkpt><trkpt lat="43.23091759080897" lon="11.18475329888547"><ele>290.3333333333333</ele><time>2026-04-26T15:23:53Z</time></trkpt><trkpt lat="43.231010288236" lon="11.184544604738033"><ele>292.0</ele><time>2026-04-26T15:23:54Z</time></trkpt><trkpt lat="43.231052453343814" lon="11.184328195087176"><ele>292.0</ele><time>2026-04-26T15:23:55Z</time></trkpt><trkpt lat="43.23104687080015" lon="11.184097137873252"><ele>292.0</ele><time>2026-04-26T15:23:56Z</time></trkpt><trkpt lat="43.23103747440392" lon="11.183873452181901"><ele>292.0</ele><time>2026-04-26T15:23:56.999Z</time></trkpt><trkpt lat="43.2310046256419" lon="11.18367863910372"><ele>292.0</ele><time>2026-04-26T15:23:57.999Z</time></trkpt><trkpt lat="43.23101376761705" lon="11.183482247446753"><ele>292.0</ele><time>2026-04-26T15:23:58.999Z</time></trkpt><trkpt lat="43.231042092150794" lon="11.183313064842496"><ele>292.0</ele><time>2026-04-26T15:23:59.998Z</time></trkpt><trkpt lat="43.2310790398808" lon="11.183127923416793"><ele>292.0</ele><time>2026-04-26T15:24:00.998Z</time></trkpt><trkpt lat="43.23113354669752" lon="11.182940315110793"><ele>291.66666666666663</ele><time>2026-04-26T15:24:01.998Z</time></trkpt><trkpt lat="43.23118864569371" lon="11.182741299410283"><ele>291.3333333333333</ele><time>2026-04-26T15:24:02.998Z</time></trkpt><trkpt lat="43.23124983998725" lon="11.182532207998541"><ele>291.0</ele><time>2026-04-26T15:24:03.998Z</time></trkpt><trkpt lat="43.23131869663665" lon="11.18231434778565"><ele>293.0</ele><time>2026-04-26T15:24:04.998Z</time></trkpt><trkpt lat="43.23140237515016" lon="11.18207489040086"><ele>295.0</ele><time>2026-04-26T15:24:05.998Z</time></trkpt><trkpt lat="43.23147233431757" lon="11.181837739653924"><ele>297.0</ele><time>2026-04-26T15:24:06.998Z</time></trkpt><trkpt lat="43.231558821522704" lon="11.181615066980878"><ele>297.0</ele><time>2026-04-26T15:24:07.998Z</time></trkpt><trkpt lat="43.23163920243759" lon="11.181383405009193"><ele>297.0</ele><time>2026-04-26T15:24:08.998Z</time></trkpt><trkpt lat="43.23172046759702" lon="11.181151141589812"><ele>297.0</ele><time>2026-04-26T15:24:09.998Z</time></trkpt><trkpt lat="43.2318049510341" lon="11.180917143733069"><ele>297.0</ele><time>2026-04-26T15:24:10.998Z</time></trkpt><trkpt lat="43.231882234645624" lon="11.180683824690593"><ele>297.0</ele><time>2026-04-26T15:24:11.998Z</time></trkpt><trkpt lat="43.23196573725066" lon="11.180441058906807"><ele>297.0</ele><time>2026-04-26T15:24:12.998Z</time></trkpt><trkpt lat="43.232051467009754" lon="11.18020344417709"><ele>297.6666666666667</ele><time>2026-04-26T15:24:13.998Z</time></trkpt><trkpt lat="43.232135864890815" lon="11.179964895670162"><ele>298.33333333333337</ele><time>2026-04-26T15:24:14.998Z</time></trkpt><trkpt lat="43.23221735988578" lon="11.179726294120032"><ele>299.0</ele><time>2026-04-26T15:24:15.998Z</time></trkpt><trkpt lat="43.232298207380104" lon="11.17949214770502"><ele>300.6666666666667</ele><time>2026-04-26T15:24:16.998Z</time></trkpt><trkpt lat="43.232378140861194" lon="11.17926743311088"><ele>302.3333333333333</ele><time>2026-04-26T15:24:17.998Z</time></trkpt><trkpt lat="43.232456425104345" lon="11.17904475132223"><ele>304.0</ele><time>2026-04-26T15:24:18.998Z</time></trkpt><trkpt lat="43.232534349500646" lon="11.178823874308254"><ele>306.0</ele><time>2026-04-26T15:24:19.998Z</time></trkpt><trkpt lat="43.23261524177824" lon="11.17861169163944"><ele>308.0</ele><time>2026-04-26T15:24:20.998Z</time></trkpt><trkpt lat="43.23268547341154" lon="11.178395493470886"><ele>310.0</ele><time>2026-04-26T15:24:21.998Z</time></trkpt><trkpt lat="43.232760718864945" lon="11.178181208697112"><ele>311.0</ele><time>2026-04-26T15:24:22.998Z</time></trkpt><trkpt lat="43.23283392203357" lon="11.177969675870155"><ele>312.0</ele><time>2026-04-26T15:24:23.998Z</time></trkpt><trkpt lat="43.23290833234991" lon="11.177761506582089"><ele>313.0</ele><time>2026-04-26T15:24:24.998Z</time></trkpt><trkpt lat="43.232979755826115" lon="11.177561663475629"><ele>313.0</ele><time>2026-04-26T15:24:25.998Z</time></trkpt><trkpt lat="43.23305032064939" lon="11.177372641813063"><ele>313.0</ele><time>2026-04-26T15:24:26.998Z</time></trkpt><trkpt lat="43.23310776311777" lon="11.17719832229707"><ele>313.0</ele><time>2026-04-26T15:24:27.998Z</time></trkpt><trkpt lat="43.23312932058532" lon="11.177005306626429"><ele>313.0</ele><time>2026-04-26T15:24:28.998Z</time></trkpt><trkpt lat="43.233100571105034" lon="11.176812160489073"><ele>313.66666666666663</ele><time>2026-04-26T15:24:29.998Z</time></trkpt><trkpt lat="43.23303344911165" lon="11.176631878921864"><ele>314.3333333333333</ele><time>2026-04-26T15:24:30.998Z</time></trkpt><trkpt lat="43.232962772799986" lon="11.176442318428933"><ele>315.0</ele><time>2026-04-26T15:24:31.998Z</time></trkpt><trkpt lat="43.232898284149705" lon="11.176239050326538"><ele>315.3333333333333</ele><time>2026-04-26T15:24:32.998Z</time></trkpt><trkpt lat="43.23284484252087" lon="11.176022030253366"><ele>315.66666666666663</ele><time>2026-04-26T15:24:33.998Z</time></trkpt><trkpt lat="43.23280950854913" lon="11.17579273892235"><ele>316.0</ele><time>2026-04-26T15:24:34.998Z</time></trkpt><trkpt lat="43.23279168517789" lon="11.175559918460669"><ele>316.3333333333333</ele><time>2026-04-26T15:24:35.998Z</time></trkpt><trkpt lat="43.23275348751113" lon="11.175337343119278"><ele>316.6666666666667</ele><time>2026-04-26T15:24:36.998Z</time></trkpt><trkpt lat="43.23267410760218" lon="11.175137904414338"><ele>317.0</ele><time>2026-04-26T15:24:37.998Z</time></trkpt><trkpt lat="43.23256739544754" lon="11.174962055370626"><ele>316.33333333333337</ele><time>2026-04-26T15:24:38.998Z</time></trkpt><trkpt lat="43.23244404402307" lon="11.174819014447099"><ele>315.6666666666667</ele><time>2026-04-26T15:24:39.998Z</time></trkpt><trkpt lat="43.232303925127674" lon="11.174716337206972"><ele>315.0</ele><time>2026-04-26T15:24:40.998Z</time></trkpt><trkpt lat="43.232170978760294" lon="11.174625844625119"><ele>318.0</ele><time>2026-04-26T15:24:41.998Z</time></trkpt><trkpt lat="43.232051689735734" lon="11.174535580601734"><ele>321.0</ele><time>2026-04-26T15:24:42.998Z</time></trkpt><trkpt lat="43.231942600751154" lon="11.174447204524155"><ele>324.0</ele><time>2026-04-26T15:24:43.998Z</time></trkpt><trkpt lat="43.23184909737465" lon="11.17435320136404"><ele>327.0</ele><time>2026-04-26T15:24:44.998Z</time></trkpt><trkpt lat="43.231779896236446" lon="11.174231968043152"><ele>327.0</ele><time>2026-04-26T15:24:45.998Z</time></trkpt><trkpt lat="43.231760712830805" lon="11.174062649907286"><ele>327.0</ele><time>2026-04-26T15:24:46.998Z</time></trkpt><trkpt lat="43.23173174930366" lon="11.173889657266669"><ele>327.0</ele><time>2026-04-26T15:24:47.998Z</time></trkpt><trkpt lat="43.23168758369365" lon="11.173732504753074"><ele>327.0</ele><time>2026-04-26T15:24:48.998Z</time></trkpt><trkpt lat="43.23163308170833" lon="11.17357889387689"><ele>327.25</ele><time>2026-04-26T15:24:49.998Z</time></trkpt><trkpt lat="43.23158586974486" lon="11.173431239469014"><ele>327.5</ele><time>2026-04-26T15:24:50.998Z</time></trkpt><trkpt lat="43.231564451935995" lon="11.173288291225498"><ele>327.75</ele><time>2026-04-26T15:24:51.998Z</time></trkpt><trkpt lat="43.23159056022862" lon="11.173134046298298"><ele>328.0</ele><time>2026-04-26T15:24:52.998Z</time></trkpt><trkpt lat="43.23160303622356" lon="11.172981136738233"><ele>328.4</ele><time>2026-04-26T15:24:54Z</time></trkpt><trkpt lat="43.231602885452695" lon="11.172815429400472"><ele>328.79999999999995</ele><time>2026-04-26T15:24:55Z</time></trkpt><trkpt lat="43.23158787380631" lon="11.17266521691137"><ele>329.2</ele><time>2026-04-26T15:24:56Z</time></trkpt><trkpt lat="43.23156487542248" lon="11.172532005823546"><ele>329.6</ele><time>2026-04-26T15:24:57Z</time></trkpt><trkpt lat="43.23153978254949" lon="11.17242535627737"><ele>330.0</ele><time>2026-04-26T15:24:58Z</time></trkpt><trkpt lat="43.23149178532143" lon="11.172330056970258"><ele>331.8333333333333</ele><time>2026-04-26T15:24:59Z</time></trkpt><trkpt lat="43.231422566739326" lon="11.172261188744155"><ele>333.6666666666667</ele><time>2026-04-26T15:25:00Z</time></trkpt><trkpt lat="43.231328072368804" lon="11.172270508610017"><ele>335.5</ele><time>2026-04-26T15:25:01Z</time></trkpt><trkpt lat="43.231254661253246" lon="11.17230098341585"><ele>337.33333333333337</ele><time>2026-04-26T15:25:02Z</time></trkpt><trkpt lat="43.23121097938475" lon="11.172380012699374"><ele>339.1666666666667</ele><time>2026-04-26T15:25:03Z</time></trkpt><trkpt lat="43.231185486636264" lon="11.172499923890204"><ele>341.0</ele><time>2026-04-26T15:25:04Z</time></trkpt><trkpt lat="43.23117361763832" lon="11.172636188848887"><ele>341.6</ele><time>2026-04-26T15:25:05Z</time></trkpt><trkpt lat="43.2311571438089" lon="11.172773154307766"><ele>342.20000000000005</ele><time>2026-04-26T15:25:06Z</time></trkpt><trkpt lat="43.2311382646771" lon="11.17290060124522"><ele>342.79999999999995</ele><time>2026-04-26T15:25:07Z</time></trkpt><trkpt lat="43.23109511891138" lon="11.173054355391987"><ele>343.4</ele><time>2026-04-26T15:25:08Z</time></trkpt><trkpt lat="43.231069525538324" lon="11.173200125340918"><ele>344.0</ele><time>2026-04-26T15:25:09Z</time></trkpt><trkpt lat="43.23105959100337" lon="11.173342701466636"><ele>344.2</ele><time>2026-04-26T15:25:09.999Z</time></trkpt><trkpt lat="43.2310581724739" lon="11.173483601952714"><ele>344.4</ele><time>2026-04-26T15:25:10.999Z</time></trkpt><trkpt lat="43.231060990616264" lon="11.17361906622596"><ele>344.6</ele><time>2026-04-26T15:25:11.999Z</time></trkpt><trkpt lat="43.23104037056259" lon="11.173756486986207"><ele>344.8</ele><time>2026-04-26T15:25:12.999Z</time></trkpt><trkpt lat="43.23102667518925" lon="11.173905538935434"><ele>345.0</ele><time>2026-04-26T15:25:13.999Z</time></trkpt><trkpt lat="43.230985888991455" lon="11.174044749554154"><ele>345.4</ele><time>2026-04-26T15:25:14.999Z</time></trkpt><trkpt lat="43.23097693334141" lon="11.17420336821641"><ele>345.8</ele><time>2026-04-26T15:25:15.999Z</time></trkpt><trkpt lat="43.230948166532386" lon="11.17435107539716"><ele>346.20000000000005</ele><time>2026-04-26T15:25:16.999Z</time></trkpt><trkpt lat="43.23094488457006" lon="11.174495450075748"><ele>346.6</ele><time>2026-04-26T15:25:17.999Z</time></trkpt><trkpt lat="43.23094632134705" lon="11.17464003480248"><ele>347.0</ele><time>2026-04-26T15:25:18.999Z</time></trkpt><trkpt lat="43.230926107371666" lon="11.174777513737661"><ele>347.25</ele><time>2026-04-26T15:25:19.999Z</time></trkpt><trkpt lat="43.230847042995975" lon="11.174909496680456"><ele>347.5</ele><time>2026-04-26T15:25:20.999Z</time></trkpt><trkpt lat="43.23078742115274" lon="11.17506461044263"><ele>347.75</ele><time>2026-04-26T15:25:21.999Z</time></trkpt><trkpt lat="43.23071368661736" lon="11.175227501862114"><ele>348.0</ele><time>2026-04-26T15:25:22.999Z</time></trkpt><trkpt lat="43.230642219389736" lon="11.175380130077244"><ele>351.0</ele><time>2026-04-26T15:25:23.999Z</time></trkpt><trkpt lat="43.23056377647141" lon="11.175514833535134"><ele>354.0</ele><time>2026-04-26T15:25:24.999Z</time></trkpt><trkpt lat="43.23049194465396" lon="11.175652270337258"><ele>357.0</ele><time>2026-04-26T15:25:25.999Z</time></trkpt><trkpt lat="43.23043009132312" lon="11.175778157328738"><ele>360.0</ele><time>2026-04-26T15:25:26.999Z</time></trkpt><trkpt lat="43.23037075043092" lon="11.175902085776574"><ele>360.0</ele><time>2026-04-26T15:25:27.999Z</time></trkpt><trkpt lat="43.2303148375816" lon="11.17603261565327"><ele>360.0</ele><time>2026-04-26T15:25:28.999Z</time></trkpt><trkpt lat="43.23025138765986" lon="11.17616183171577"><ele>360.0</ele><time>2026-04-26T15:25:29.999Z</time></trkpt><trkpt lat="43.23018006856385" lon="11.176281342428991"><ele>360.0</ele><time>2026-04-26T15:25:30.999Z</time></trkpt><trkpt lat="43.23010799237246" lon="11.176384977961556"><ele>360.0</ele><time>2026-04-26T15:25:31.999Z</time></trkpt><trkpt lat="43.230020793984934" lon="11.17645000499679"><ele>360.0</ele><time>2026-04-26T15:25:32.999Z</time></trkpt><trkpt lat="43.22991244070472" lon="11.176499157613964"><ele>360.0</ele><time>2026-04-26T15:25:33.999Z</time></trkpt><trkpt lat="43.22978327466136" lon="11.176515921824915"><ele>360.0</ele><time>2026-04-26T15:25:34.999Z</time></trkpt><trkpt lat="43.22963473121246" lon="11.176548984724759"><ele>360.0</ele><time>2026-04-26T15:25:35.999Z</time></trkpt><trkpt lat="43.2294680133361" lon="11.176584921726795"><ele>359.3333333333333</ele><time>2026-04-26T15:25:36.999Z</time></trkpt><trkpt lat="43.22929274944611" lon="11.176622316530992"><ele>358.66666666666663</ele><time>2026-04-26T15:25:37.999Z</time></trkpt><trkpt lat="43.229124567342" lon="11.17665866834984"><ele>358.0</ele><time>2026-04-26T15:25:38.999Z</time></trkpt><trkpt lat="43.22895377284729" lon="11.176696281671079"><ele>360.66666666666663</ele><time>2026-04-26T15:25:39.999Z</time></trkpt><trkpt lat="43.22878156391447" lon="11.176734206571883"><ele>363.3333333333333</ele><time>2026-04-26T15:25:40.999Z</time></trkpt><trkpt lat="43.228626803801056" lon="11.17676828875846"><ele>366.0</ele><time>2026-04-26T15:25:41.999Z</time></trkpt><trkpt lat="43.228471957010235" lon="11.176795419966831"><ele>366.0</ele><time>2026-04-26T15:25:42.999Z</time></trkpt><trkpt lat="43.22832699241554" lon="11.17679539201888"><ele>366.0</ele><time>2026-04-26T15:25:43.999Z</time></trkpt><trkpt lat="43.22818923444998" lon="11.176709300778136"><ele>366.0</ele><time>2026-04-26T15:25:44.999Z</time></trkpt><trkpt lat="43.22808589498677" lon="11.176573207261296"><ele>366.0</ele><time>2026-04-26T15:25:45.999Z</time></trkpt><trkpt lat="43.2280393362165" lon="11.176418993906154"><ele>367.0</ele><time>2026-04-26T15:25:46.999Z</time></trkpt><trkpt lat="43.22801424679695" lon="11.176277610349732"><ele>368.0</ele><time>2026-04-26T15:25:47.999Z</time></trkpt><trkpt lat="43.22805223710006" lon="11.176110597334285"><ele>369.0</ele><time>2026-04-26T15:25:48.999Z</time></trkpt><trkpt lat="43.22813062387546" lon="11.175973517311444"><ele>370.0</ele><time>2026-04-26T15:25:49.999Z</time></trkpt><trkpt lat="43.228249003475675" lon="11.175850907051776"><ele>370.0</ele><time>2026-04-26T15:25:50.999Z</time></trkpt><trkpt lat="43.22838631464901" lon="11.175743432593524"><ele>370.0</ele><time>2026-04-26T15:25:51.999Z</time></trkpt><trkpt lat="43.22851931585024" lon="11.175622308774312"><ele>370.0</ele><time>2026-04-26T15:25:52.999Z</time></trkpt><trkpt lat="43.22864823218575" lon="11.17549310643195"><ele>370.25</ele><time>2026-04-26T15:25:53.999Z</time></trkpt><trkpt lat="43.228779849792495" lon="11.175367598653823"><ele>370.5</ele><time>2026-04-26T15:25:54.999Z</time></trkpt><trkpt lat="43.228895811912466" lon="11.17523854075646"><ele>370.75</ele><time>2026-04-26T15:25:55.999Z</time></trkpt><trkpt lat="43.22897555303263" lon="11.17508288693203"><ele>371.0</ele><time>2026-04-26T15:25:56.999Z</time></trkpt><trkpt lat="43.229017919038895" lon="11.174909828417592"><ele>371.5</ele><time>2026-04-26T15:25:57.999Z</time></trkpt><trkpt lat="43.22904893124879" lon="11.174741421267607"><ele>372.0</ele><time>2026-04-26T15:25:58.999Z</time></trkpt><trkpt lat="43.22902207171651" lon="11.174555536862579"><ele>372.5</ele><time>2026-04-26T15:25:59.999Z</time></trkpt><trkpt lat="43.22894148518548" lon="11.174382065437932"><ele>373.0</ele><time>2026-04-26T15:26:00.999Z</time></trkpt><trkpt lat="43.22884314180343" lon="11.17422472146795"><ele>375.66666666666663</ele><time>2026-04-26T15:26:01.998Z</time></trkpt><trkpt lat="43.228736816624874" lon="11.17406502214722"><ele>378.3333333333333</ele><time>2026-04-26T15:26:02.998Z</time></trkpt><trkpt lat="43.22862172060853" lon="11.173900686694642"><ele>381.0</ele><time>2026-04-26T15:26:03.998Z</time></trkpt><trkpt lat="43.228482485178226" lon="11.17379013229991"><ele>381.0</ele><time>2026-04-26T15:26:04.998Z</time></trkpt><trkpt lat="43.22835096779222" lon="11.173662064189058"><ele>381.0</ele><time>2026-04-26T15:26:05.998Z</time></trkpt><trkpt lat="43.228203024846465" lon="11.17351870624677"><ele>381.0</ele><time>2026-04-26T15:26:06.998Z</time></trkpt><trkpt lat="43.228049276393605" lon="11.17339184058093"><ele>382.33333333333337</ele><time>2026-04-26T15:26:07.998Z</time></trkpt><trkpt lat="43.22787707322035" lon="11.173311349238553"><ele>383.6666666666667</ele><time>2026-04-26T15:26:08.998Z</time></trkpt><trkpt lat="43.22769916929637" lon="11.173243870473659"><ele>385.0</ele><time>2026-04-26T15:26:09.998Z</time></trkpt><trkpt lat="43.227520558835465" lon="11.173170800071608"><ele>385.0</ele><time>2026-04-26T15:26:10.998Z</time></trkpt><trkpt lat="43.227343552381875" lon="11.173091366298163"><ele>385.0</ele><time>2026-04-26T15:26:11.998Z</time></trkpt><trkpt lat="43.227159713911796" lon="11.173007021285061"><ele>385.0</ele><time>2026-04-26T15:26:12.998Z</time></trkpt><trkpt lat="43.22697787051631" lon="11.17292726297235"><ele>388.0</ele><time>2026-04-26T15:26:13.998Z</time></trkpt><trkpt lat="43.22680239925983" lon="11.172861534173638"><ele>391.0</ele><time>2026-04-26T15:26:14.998Z</time></trkpt><trkpt lat="43.22662849976655" lon="11.172793880592165"><ele>394.0</ele><time>2026-04-26T15:26:15.998Z</time></trkpt><trkpt lat="43.22645691861484" lon="11.172730327327713"><ele>397.6666666666667</ele><time>2026-04-26T15:26:16.998Z</time></trkpt><trkpt lat="43.2263037388095" lon="11.172647960220958"><ele>401.33333333333337</ele><time>2026-04-26T15:26:17.998Z</time></trkpt><trkpt lat="43.22615294226206" lon="11.172596377992289"><ele>405.0</ele><time>2026-04-26T15:26:18.998Z</time></trkpt><trkpt lat="43.22600424600745" lon="11.172558581057727"><ele>405.0</ele><time>2026-04-26T15:26:19.998Z</time></trkpt><trkpt lat="43.22586129695244" lon="11.172528557273395"><ele>405.0</ele><time>2026-04-26T15:26:20.998Z</time></trkpt><trkpt lat="43.22576065247286" lon="11.172426242982631"><ele>405.0</ele><time>2026-04-26T15:26:21.998Z</time></trkpt><trkpt lat="43.22570528040949" lon="11.172259693374768"><ele>405.0</ele><time>2026-04-26T15:26:22.998Z</time></trkpt><trkpt lat="43.22565948083267" lon="11.172087270710081"><ele>409.0</ele><time>2026-04-26T15:26:23.998Z</time></trkpt><trkpt lat="43.22561014277141" lon="11.171906407126688"><ele>413.0</ele><time>2026-04-26T15:26:24.998Z</time></trkpt><trkpt lat="43.22556001689775" lon="11.171704877672042"><ele>417.0</ele><time>2026-04-26T15:26:25.998Z</time></trkpt><trkpt lat="43.22554985102079" lon="11.171491586882368"><ele>418.0</ele><time>2026-04-26T15:26:26.998Z</time></trkpt><trkpt lat="43.22556150583548" lon="11.171246552482582"><ele>419.0</ele><time>2026-04-26T15:26:27.998Z</time></trkpt><trkpt lat="43.2255549488635" lon="11.170997100268147"><ele>420.0</ele><time>2026-04-26T15:26:28.998Z</time></trkpt><trkpt lat="43.225534747562236" lon="11.170750107185151"><ele>420.66666666666663</ele><time>2026-04-26T15:26:29.998Z</time></trkpt><trkpt lat="43.225511636848424" lon="11.170502776921156"><ele>421.3333333333333</ele><time>2026-04-26T15:26:30.998Z</time></trkpt><trkpt lat="43.225486740625" lon="11.170253808014804"><ele>422.0</ele><time>2026-04-26T15:26:31.998Z</time></trkpt><trkpt lat="43.225438773062244" lon="11.170004855760954"><ele>421.66666666666663</ele><time>2026-04-26T15:26:32.998Z</time></trkpt><trkpt lat="43.22538786100821" lon="11.169752091772503"><ele>421.33333333333337</ele><time>2026-04-26T15:26:33.998Z</time></trkpt><trkpt lat="43.22532498946698" lon="11.169495381711277"><ele>421.0</ele><time>2026-04-26T15:26:34.998Z</time></trkpt><trkpt lat="43.22525207980569" lon="11.169254329114095"><ele>419.33333333333337</ele><time>2026-04-26T15:26:35.998Z</time></trkpt><trkpt lat="43.22517570950946" lon="11.169000599413938"><ele>417.66666666666663</ele><time>2026-04-26T15:26:36.998Z</time></trkpt><trkpt lat="43.22510304261081" lon="11.168754441063266"><ele>416.0</ele><time>2026-04-26T15:26:37.998Z</time></trkpt><trkpt lat="43.225042842243624" lon="11.16849006299814"><ele>416.0</ele><time>2026-04-26T15:26:38.998Z</time></trkpt><trkpt lat="43.22501561182347" lon="11.168201965448523"><ele>416.0</ele><time>2026-04-26T15:26:39.998Z</time></trkpt><trkpt lat="43.22498334089914" lon="11.167908993862293"><ele>416.0</ele><time>2026-04-26T15:26:40.998Z</time></trkpt><trkpt lat="43.22495185423331" lon="11.167623870518593"><ele>418.3333333333333</ele><time>2026-04-26T15:26:41.998Z</time></trkpt><trkpt lat="43.22491768210845" lon="11.167345884851175"><ele>420.66666666666663</ele><time>2026-04-26T15:26:42.998Z</time></trkpt><trkpt lat="43.224879347311514" lon="11.167079993655399"><ele>423.0</ele><time>2026-04-26T15:26:43.998Z</time></trkpt><trkpt lat="43.224825973160655" lon="11.166845105109086"><ele>424.25</ele><time>2026-04-26T15:26:44.998Z</time></trkpt><trkpt lat="43.224786592950146" lon="11.16663621293144"><ele>425.5</ele><time>2026-04-26T15:26:45.998Z</time></trkpt><trkpt lat="43.22473518335679" lon="11.166457330715843"><ele>426.75</ele><time>2026-04-26T15:26:46.998Z</time></trkpt><trkpt lat="43.22465756030472" lon="11.166324859781628"><ele>428.0</ele><time>2026-04-26T15:26:47.998Z</time></trkpt><trkpt lat="43.22456006454116" lon="11.166266407672866"><ele>428.0</ele><time>2026-04-26T15:26:48.998Z</time></trkpt><trkpt lat="43.22445754527058" lon="11.166283844492781"><ele>428.0</ele><time>2026-04-26T15:26:49.998Z</time></trkpt><trkpt lat="43.224372240164705" lon="11.166369457197412"><ele>428.0</ele><time>2026-04-26T15:26:50.998Z</time></trkpt><trkpt lat="43.224310914843024" lon="11.166502352911298"><ele>428.0</ele><time>2026-04-26T15:26:51.998Z</time></trkpt><trkpt lat="43.22425842098115" lon="11.166659936676767"><ele>428.0</ele><time>2026-04-26T15:26:52.998Z</time></trkpt><trkpt lat="43.22419486381183" lon="11.166820275644117"><ele>428.0</ele><time>2026-04-26T15:26:53.998Z</time></trkpt><trkpt lat="43.22411372952916" lon="11.166977172650038"><ele>428.0</ele><time>2026-04-26T15:26:54.998Z</time></trkpt><trkpt lat="43.22402229616978" lon="11.16709733439324"><ele>428.0</ele><time>2026-04-26T15:26:55.998Z</time></trkpt><trkpt lat="43.22391318760806" lon="11.167165202976083"><ele>428.5</ele><time>2026-04-26T15:26:56.997Z</time></trkpt><trkpt lat="43.22380128674357" lon="11.167142976829487"><ele>429.0</ele><time>2026-04-26T15:26:57.997Z</time></trkpt><trkpt lat="43.223698912978" lon="11.167054220463555"><ele>429.5</ele><time>2026-04-26T15:26:58.997Z</time></trkpt><trkpt lat="43.22361928906993" lon="11.166946251310202"><ele>430.0</ele><time>2026-04-26T15:27:00Z</time></trkpt><trkpt lat="43.223557819648136" lon="11.166801363589878"><ele>430.0</ele><time>2026-04-26T15:27:01Z</time></trkpt><trkpt lat="43.223485562360146" lon="11.166615685092463"><ele>430.0</ele><time>2026-04-26T15:27:02Z</time></trkpt><trkpt lat="43.223471337895035" lon="11.166439991315238"><ele>430.0</ele><time>2026-04-26T15:27:03Z</time></trkpt><trkpt lat="43.22347330577499" lon="11.16624281186141"><ele>430.0</ele><time>2026-04-26T15:27:04Z</time></trkpt><trkpt lat="43.22350497902093" lon="11.166018333797448"><ele>430.6666666666667</ele><time>2026-04-26T15:27:05Z</time></trkpt><trkpt lat="43.223528412237854" lon="11.165819461883942"><ele>431.33333333333337</ele><time>2026-04-26T15:27:06Z</time></trkpt><trkpt lat="43.22351554261832" lon="11.165558897669163"><ele>432.0</ele><time>2026-04-26T15:27:07Z</time></trkpt><trkpt lat="43.223466426113795" lon="11.165310663332274"><ele>432.33333333333337</ele><time>2026-04-26T15:27:08Z</time></trkpt><trkpt lat="43.223413959221105" lon="11.165115317836042"><ele>432.6666666666667</ele><time>2026-04-26T15:27:09Z</time></trkpt><trkpt lat="43.22333428586384" lon="11.164914844746576"><ele>433.0</ele><time>2026-04-26T15:27:10Z</time></trkpt><trkpt lat="43.2232233018356" lon="11.164750223128381"><ele>433.6666666666667</ele><time>2026-04-26T15:27:11Z</time></trkpt><trkpt lat="43.22309038203143" lon="11.164619850362442"><ele>434.33333333333337</ele><time>2026-04-26T15:27:12Z</time></trkpt><trkpt lat="43.22292509988679" lon="11.16451370528686"><ele>435.0</ele><time>2026-04-26T15:27:13Z</time></trkpt><trkpt lat="43.22275581829528" lon="11.164410465631688"><ele>435.0</ele><time>2026-04-26T15:27:14Z</time></trkpt><trkpt lat="43.22258985566976" lon="11.164301325004942"><ele>435.0</ele><time>2026-04-26T15:27:15Z</time></trkpt><trkpt lat="43.22242014706392" lon="11.1641911104236"><ele>435.0</ele><time>2026-04-26T15:27:15.999Z</time></trkpt><trkpt lat="43.22225251804965" lon="11.164079875836086"><ele>437.0</ele><time>2026-04-26T15:27:16.999Z</time></trkpt><trkpt lat="43.22208983019149" lon="11.163985300022157"><ele>439.0</ele><time>2026-04-26T15:27:17.999Z</time></trkpt><trkpt lat="43.22191909971627" lon="11.16393160049098"><ele>441.0</ele><time>2026-04-26T15:27:18.999Z</time></trkpt><trkpt lat="43.22174471646489" lon="11.163943909344306"><ele>441.0</ele><time>2026-04-26T15:27:19.999Z</time></trkpt><trkpt lat="43.22158757697998" lon="11.164005323430425"><ele>441.0</ele><time>2026-04-26T15:27:20.999Z</time></trkpt><trkpt lat="43.22143690183334" lon="11.164024990492912"><ele>441.0</ele><time>2026-04-26T15:27:21.999Z</time></trkpt><trkpt lat="43.2213060006935" lon="11.163990624254714"><ele>441.0</ele><time>2026-04-26T15:27:22.999Z</time></trkpt><trkpt lat="43.22120679154569" lon="11.163889569093879"><ele>439.25</ele><time>2026-04-26T15:27:23.999Z</time></trkpt><trkpt lat="43.22117222189298" lon="11.163711935814359"><ele>437.5</ele><time>2026-04-26T15:27:24.999Z</time></trkpt><trkpt lat="43.221116047457016" lon="11.163527560577451"><ele>435.75</ele><time>2026-04-26T15:27:25.999Z</time></trkpt><trkpt lat="43.22107694703274" lon="11.163323636567531"><ele>434.0</ele><time>2026-04-26T15:27:26.999Z</time></trkpt><trkpt lat="43.22104790958189" lon="11.163106152626236"><ele>434.0</ele><time>2026-04-26T15:27:27.999Z</time></trkpt><trkpt lat="43.22099901080382" lon="11.162866797285396"><ele>434.0</ele><time>2026-04-26T15:27:28.999Z</time></trkpt><trkpt lat="43.22095388996675" lon="11.162633688775093"><ele>434.0</ele><time>2026-04-26T15:27:29.999Z</time></trkpt><trkpt lat="43.220911417728004" lon="11.1624052075194"><ele>433.66666666666663</ele><time>2026-04-26T15:27:30.999Z</time></trkpt><trkpt lat="43.22086811301052" lon="11.162187341931403"><ele>433.33333333333337</ele><time>2026-04-26T15:27:31.999Z</time></trkpt><trkpt lat="43.220808666735" lon="11.161943849546326"><ele>433.0</ele><time>2026-04-26T15:27:32.999Z</time></trkpt><trkpt lat="43.22072272364582" lon="11.161717046072653"><ele>434.33333333333337</ele><time>2026-04-26T15:27:33.999Z</time></trkpt><trkpt lat="43.22060603839398" lon="11.161505831448226"><ele>435.66666666666663</ele><time>2026-04-26T15:27:34.999Z</time></trkpt><trkpt lat="43.22047247650879" lon="11.161304619197812"><ele>437.0</ele><time>2026-04-26T15:27:35.999Z</time></trkpt><trkpt lat="43.220331858976934" lon="11.161109093785631"><ele>437.0</ele><time>2026-04-26T15:27:36.999Z</time></trkpt><trkpt lat="43.2201892633833" lon="11.160917226738217"><ele>437.0</ele><time>2026-04-26T15:27:37.999Z</time></trkpt><trkpt lat="43.2200417915745" lon="11.160753453159172"><ele>437.0</ele><time>2026-04-26T15:27:38.999Z</time></trkpt><trkpt lat="43.21992138693286" lon="11.160569571045894"><ele>435.66666666666663</ele><time>2026-04-26T15:27:39.999Z</time></trkpt><trkpt lat="43.219821805553394" lon="11.160355227413072"><ele>434.33333333333337</ele><time>2026-04-26T15:27:40.999Z</time></trkpt><trkpt lat="43.219757559774784" lon="11.160115060032766"><ele>433.0</ele><time>2026-04-26T15:27:41.999Z</time></trkpt><trkpt lat="43.2197296776366" lon="11.159869535707218"><ele>437.6666666666667</ele><time>2026-04-26T15:27:42.999Z</time></trkpt><trkpt lat="43.2196810899448" lon="11.159636611176841"><ele>442.33333333333337</ele><time>2026-04-26T15:27:43.999Z</time></trkpt><trkpt lat="43.21965938843263" lon="11.159400925015422"><ele>447.0</ele><time>2026-04-26T15:27:44.999Z</time></trkpt><trkpt lat="43.21966494883" lon="11.159159336899785"><ele>447.33333333333337</ele><time>2026-04-26T15:27:45.999Z</time></trkpt><trkpt lat="43.21971561727385" lon="11.158924317767758"><ele>447.6666666666667</ele><time>2026-04-26T15:27:46.999Z</time></trkpt><trkpt lat="43.21980150958072" lon="11.158704634383906"><ele>448.0</ele><time>2026-04-26T15:27:47.999Z</time></trkpt><trkpt lat="43.21990566910155" lon="11.158492589351095"><ele>444.0</ele><time>2026-04-26T15:27:48.999Z</time></trkpt><trkpt lat="43.22002673878314" lon="11.158326386745014"><ele>440.0</ele><time>2026-04-26T15:27:49.999Z</time></trkpt><trkpt lat="43.220132704651554" lon="11.158163920513621"><ele>436.0</ele><time>2026-04-26T15:27:50.999Z</time></trkpt><trkpt lat="43.22020406662357" lon="11.157985413128579"><ele>435.75</ele><time>2026-04-26T15:27:51.999Z</time></trkpt><trkpt lat="43.220229488425986" lon="11.157794484700867"><ele>435.5</ele><time>2026-04-26T15:27:52.999Z</time></trkpt><trkpt lat="43.22020094732319" lon="11.157611740862809"><ele>435.25</ele><time>2026-04-26T15:27:53.999Z</time></trkpt><trkpt lat="43.22013453713867" lon="11.157427382408393"><ele>435.0</ele><time>2026-04-26T15:27:54.999Z</time></trkpt><trkpt lat="43.22004262779364" lon="11.157251517723019"><ele>434.66666666666663</ele><time>2026-04-26T15:27:55.999Z</time></trkpt><trkpt lat="43.21995392161308" lon="11.157068012457252"><ele>434.3333333333333</ele><time>2026-04-26T15:27:56.999Z</time></trkpt><trkpt lat="43.21986689184215" lon="11.156884694903557"><ele>434.0</ele><time>2026-04-26T15:27:57.999Z</time></trkpt><trkpt lat="43.219768779846916" lon="11.156721531645138"><ele>434.0</ele><time>2026-04-26T15:27:58.999Z</time></trkpt><trkpt lat="43.21964904113966" lon="11.156597912500274"><ele>434.0</ele><time>2026-04-26T15:27:59.999Z</time></trkpt><trkpt lat="43.21951247386151" lon="11.156518251214791"><ele>434.0</ele><time>2026-04-26T15:28:00.999Z</time></trkpt><trkpt lat="43.219361148761784" lon="11.15647518298963"><ele>431.0</ele><time>2026-04-26T15:28:01.999Z</time></trkpt><trkpt lat="43.21920133316582" lon="11.15642220598384"><ele>428.0</ele><time>2026-04-26T15:28:02.999Z</time></trkpt><trkpt lat="43.21905481723953" lon="11.156292283248261"><ele>425.0</ele><time>2026-04-26T15:28:03.999Z</time></trkpt><trkpt lat="43.21893194235667" lon="11.156153023775595"><ele>425.0</ele><time>2026-04-26T15:28:04.999Z</time></trkpt><trkpt lat="43.21881402364205" lon="11.156050047819635"><ele>425.0</ele><time>2026-04-26T15:28:05.999Z</time></trkpt><trkpt lat="43.218686725170585" lon="11.155969485869097"><ele>425.0</ele><time>2026-04-26T15:28:06.999Z</time></trkpt><trkpt lat="43.21857423155855" lon="11.155943135719173"><ele>425.0</ele><time>2026-04-26T15:28:07.999Z</time></trkpt><trkpt lat="43.21844202733357" lon="11.155995413297251"><ele>425.0</ele><time>2026-04-26T15:28:08.999Z</time></trkpt><trkpt lat="43.218313841994025" lon="11.156111976847289"><ele>425.0</ele><time>2026-04-26T15:28:09.999Z</time></trkpt><trkpt lat="43.21819077546892" lon="11.15622222312478"><ele>425.0</ele><time>2026-04-26T15:28:10.998Z</time></trkpt><trkpt lat="43.21807642250777" lon="11.156331988643545"><ele>425.0</ele><time>2026-04-26T15:28:11.998Z</time></trkpt><trkpt lat="43.217954212267145" lon="11.156426914121372"><ele>425.5</ele><time>2026-04-26T15:28:12.998Z</time></trkpt><trkpt lat="43.21785384177825" lon="11.15655877682382"><ele>426.0</ele><time>2026-04-26T15:28:13.998Z</time></trkpt><trkpt lat="43.21775400916782" lon="11.156649485582625"><ele>426.5</ele><time>2026-04-26T15:28:14.998Z</time></trkpt><trkpt lat="43.21765884070075" lon="11.156675094128266"><ele>427.0</ele><time>2026-04-26T15:28:15.998Z</time></trkpt><trkpt lat="43.21756153342476" lon="11.156649741384095"><ele>427.00000000000006</ele><time>2026-04-26T15:28:16.998Z</time></trkpt><trkpt lat="43.217507519021865" lon="11.156561159988884"><ele>427.0</ele><time>2026-04-26T15:28:17.998Z</time></trkpt><trkpt lat="43.21744129199592" lon="11.156474191065099"><ele>427.0</ele><time>2026-04-26T15:28:18.998Z</time></trkpt><trkpt lat="43.21740104247319" lon="11.15638778483393"><ele>427.0</ele><time>2026-04-26T15:28:19.998Z</time></trkpt><trkpt lat="43.217310165002424" lon="11.156332997938073"><ele>427.00000000000006</ele><time>2026-04-26T15:28:20.998Z</time></trkpt><trkpt lat="43.21723170227938" lon="11.156358389857596"><ele>427.0</ele><time>2026-04-26T15:28:21.998Z</time></trkpt><trkpt lat="43.21713928490508" lon="11.156383208010121"><ele>425.8</ele><time>2026-04-26T15:28:22.998Z</time></trkpt><trkpt lat="43.217047789628396" lon="11.156436010173959"><ele>424.6</ele><time>2026-04-26T15:28:23.998Z</time></trkpt><trkpt lat="43.21695397756201" lon="11.156407358049387"><ele>423.40000000000003</ele><time>2026-04-26T15:28:24.998Z</time></trkpt><trkpt lat="43.216868134408976" lon="11.156331229062909"><ele>422.20000000000005</ele><time>2026-04-26T15:28:25.998Z</time></trkpt><trkpt lat="43.21681656401169" lon="11.156248708240748"><ele>421.0</ele><time>2026-04-26T15:28:26.998Z</time></trkpt><trkpt lat="43.216838695992244" lon="11.15607940019093"><ele>421.0</ele><time>2026-04-26T15:28:28.998Z</time></trkpt><trkpt lat="43.2168512175383" lon="11.155968658314954"><ele>421.0</ele><time>2026-04-26T15:28:29.998Z</time></trkpt><trkpt lat="43.21685203066467" lon="11.155782725517785"><ele>421.0</ele><time>2026-04-26T15:28:30.998Z</time></trkpt><trkpt lat="43.21676116873754" lon="11.155605161945793"><ele>421.0</ele><time>2026-04-26T15:28:31.998Z</time></trkpt><trkpt lat="43.21662876133264" lon="11.155520425277015"><ele>420.4</ele><time>2026-04-26T15:28:32.998Z</time></trkpt><trkpt lat="43.21653563435891" lon="11.155473486454301"><ele>419.8</ele><time>2026-04-26T15:28:33.998Z</time></trkpt><trkpt lat="43.21645390781403" lon="11.155408749368139"><ele>419.2</ele><time>2026-04-26T15:28:34.998Z</time></trkpt><trkpt lat="43.21640028075938" lon="11.15532783626091"><ele>418.59999999999997</ele><time>2026-04-26T15:28:35.998Z</time></trkpt><trkpt lat="43.216363271572476" lon="11.155202041235292"><ele>418.0</ele><time>2026-04-26T15:28:36.998Z</time></trkpt><trkpt lat="43.21637240229264" lon="11.15505684149769"><ele>418.0</ele><time>2026-04-26T15:28:37.998Z</time></trkpt><trkpt lat="43.21638587959469" lon="11.154877180988265"><ele>418.0</ele><time>2026-04-26T15:28:38.998Z</time></trkpt><trkpt lat="43.21632853309935" lon="11.154683716519111"><ele>418.0</ele><time>2026-04-26T15:28:39.998Z</time></trkpt><trkpt lat="43.21623437910148" lon="11.154502115027306"><ele>418.0</ele><time>2026-04-26T15:28:40.998Z</time></trkpt><trkpt lat="43.2161331383269" lon="11.154338867651319"><ele>416.0</ele><time>2026-04-26T15:28:41.998Z</time></trkpt><trkpt lat="43.21602590607582" lon="11.154181428833786"><ele>414.0</ele><time>2026-04-26T15:28:42.998Z</time></trkpt><trkpt lat="43.21589457746496" lon="11.154015630369209"><ele>412.0</ele><time>2026-04-26T15:28:43.998Z</time></trkpt><trkpt lat="43.21574060790401" lon="11.15388384817548"><ele>409.33333333333337</ele><time>2026-04-26T15:28:44.998Z</time></trkpt><trkpt lat="43.21558637467136" lon="11.153805198896707"><ele>406.66666666666663</ele><time>2026-04-26T15:28:45.998Z</time></trkpt><trkpt lat="43.21540701679792" lon="11.153759854087145"><ele>404.0</ele><time>2026-04-26T15:28:46.998Z</time></trkpt><trkpt lat="43.21523091071018" lon="11.153749615705157"><ele>404.0</ele><time>2026-04-26T15:28:47.998Z</time></trkpt><trkpt lat="43.21504550385454" lon="11.15374147499142"><ele>404.0</ele><time>2026-04-26T15:28:48.998Z</time></trkpt><trkpt lat="43.214854826159545" lon="11.153733103166562"><ele>404.0</ele><time>2026-04-26T15:28:49.998Z</time></trkpt><trkpt lat="43.214659495538534" lon="11.153731493226289"><ele>403.0</ele><time>2026-04-26T15:28:50.998Z</time></trkpt><trkpt lat="43.21445290915538" lon="11.153890234543626"><ele>402.0</ele><time>2026-04-26T15:28:51.998Z</time></trkpt><trkpt lat="43.21425329341184" lon="11.153922933077496"><ele>401.0</ele><time>2026-04-26T15:28:52.998Z</time></trkpt><trkpt lat="43.21406831673797" lon="11.153947342571293"><ele>400.66666666666663</ele><time>2026-04-26T15:28:53.998Z</time></trkpt><trkpt lat="43.21388540753703" lon="11.153948476358135"><ele>400.33333333333337</ele><time>2026-04-26T15:28:54.998Z</time></trkpt><trkpt lat="43.21371172806898" lon="11.153901309699569"><ele>400.0</ele><time>2026-04-26T15:28:55.998Z</time></trkpt><trkpt lat="43.21355500731033" lon="11.153797452456306"><ele>400.0</ele><time>2026-04-26T15:28:56.998Z</time></trkpt><trkpt lat="43.213413278398356" lon="11.153643666602246"><ele>400.0</ele><time>2026-04-26T15:28:57.998Z</time></trkpt><trkpt lat="43.21330462259061" lon="11.153454135509143"><ele>400.0</ele><time>2026-04-26T15:28:58.998Z</time></trkpt><trkpt lat="43.213234453874364" lon="11.153233708936128"><ele>399.6666666666667</ele><time>2026-04-26T15:28:59.998Z</time></trkpt><trkpt lat="43.21315101783208" lon="11.152991355724051"><ele>399.33333333333337</ele><time>2026-04-26T15:29:00.998Z</time></trkpt><trkpt lat="43.21307423045753" lon="11.152743010460185"><ele>399.0</ele><time>2026-04-26T15:29:01.998Z</time></trkpt><trkpt lat="43.21298238789104" lon="11.15251744904451"><ele>396.66666666666663</ele><time>2026-04-26T15:29:02.998Z</time></trkpt><trkpt lat="43.21289644363877" lon="11.15229815331954"><ele>394.3333333333333</ele><time>2026-04-26T15:29:03.998Z</time></trkpt><trkpt lat="43.21283619141126" lon="11.152076696417726"><ele>392.0</ele><time>2026-04-26T15:29:04.998Z</time></trkpt><trkpt lat="43.21276306924458" lon="11.151880374549156"><ele>392.0</ele><time>2026-04-26T15:29:06Z</time></trkpt><trkpt lat="43.21267297650211" lon="11.151692812426578"><ele>392.0</ele><time>2026-04-26T15:29:07Z</time></trkpt><trkpt lat="43.21256379552367" lon="11.151520227972012"><ele>392.0</ele><time>2026-04-26T15:29:08Z</time></trkpt><trkpt lat="43.21242732112845" lon="11.151373131937916"><ele>388.0</ele><time>2026-04-26T15:29:09Z</time></trkpt><trkpt lat="43.21226022214323" lon="11.151271130904185"><ele>384.0</ele><time>2026-04-26T15:29:10Z</time></trkpt><trkpt lat="43.212077423605706" lon="11.151190916954688"><ele>380.0</ele><time>2026-04-26T15:29:11Z</time></trkpt><trkpt lat="43.21187885414559" lon="11.151149827253654"><ele>380.0</ele><time>2026-04-26T15:29:12Z</time></trkpt><trkpt lat="43.21167366192538" lon="11.151138097771371"><ele>380.0</ele><time>2026-04-26T15:29:13Z</time></trkpt><trkpt lat="43.21146515218165" lon="11.151121927587738"><ele>380.0</ele><time>2026-04-26T15:29:14Z</time></trkpt><trkpt lat="43.21126658488456" lon="11.151107563894477"><ele>378.33333333333337</ele><time>2026-04-26T15:29:15Z</time></trkpt><trkpt lat="43.211060647488274" lon="11.151094029483898"><ele>376.6666666666667</ele><time>2026-04-26T15:29:16Z</time></trkpt><trkpt lat="43.21085038986346" lon="11.15108860966286"><ele>375.0</ele><time>2026-04-26T15:29:17Z</time></trkpt><trkpt lat="43.210638167703046" lon="11.151092752249165"><ele>373.6666666666667</ele><time>2026-04-26T15:29:18Z</time></trkpt><trkpt lat="43.210424461199224" lon="11.15110267963984"><ele>372.33333333333337</ele><time>2026-04-26T15:29:19Z</time></trkpt><trkpt lat="43.21020771401146" lon="11.151127843964858"><ele>371.0</ele><time>2026-04-26T15:29:20Z</time></trkpt><trkpt lat="43.209990872556645" lon="11.15118084166313"><ele>369.33333333333337</ele><time>2026-04-26T15:29:21Z</time></trkpt><trkpt lat="43.20977296223073" lon="11.151241577909706"><ele>367.6666666666667</ele><time>2026-04-26T15:29:22Z</time></trkpt><trkpt lat="43.20956163112554" lon="11.151308585138963"><ele>366.0</ele><time>2026-04-26T15:29:22.999Z</time></trkpt><trkpt lat="43.20936037555255" lon="11.151378147449101"><ele>366.0</ele><time>2026-04-26T15:29:23.999Z</time></trkpt><trkpt lat="43.20916384825653" lon="11.151427103205789"><ele>366.0</ele><time>2026-04-26T15:29:24.999Z</time></trkpt><trkpt lat="43.20898364582396" lon="11.151435083485671"><ele>366.0</ele><time>2026-04-26T15:29:25.999Z</time></trkpt><trkpt lat="43.208815144301475" lon="11.151401408966185"><ele>366.0</ele><time>2026-04-26T15:29:26.999Z</time></trkpt><trkpt lat="43.20865866686158" lon="11.151316600107112"><ele>366.0</ele><time>2026-04-26T15:29:27.999Z</time></trkpt><trkpt lat="43.2085299200376" lon="11.151176000120905"><ele>366.0</ele><time>2026-04-26T15:29:28.999Z</time></trkpt><trkpt lat="43.20842846150096" lon="11.150989890902313"><ele>366.0</ele><time>2026-04-26T15:29:29.999Z</time></trkpt><trkpt lat="43.20834438516078" lon="11.150772971259839"><ele>366.0</ele><time>2026-04-26T15:29:30.999Z</time></trkpt><trkpt lat="43.20827391425742" lon="11.15053230019931"><ele>366.0</ele><time>2026-04-26T15:29:31.999Z</time></trkpt><trkpt lat="43.208198761518396" lon="11.150303230429754"><ele>362.3333333333333</ele><time>2026-04-26T15:29:32.999Z</time></trkpt><trkpt lat="43.20810146437182" lon="11.150092463938018"><ele>358.66666666666663</ele><time>2026-04-26T15:29:33.999Z</time></trkpt><trkpt lat="43.207997787960736" lon="11.149899475990127"><ele>355.0</ele><time>2026-04-26T15:29:34.999Z</time></trkpt><trkpt lat="43.2078700432743" lon="11.149719516768922"><ele>354.3333333333333</ele><time>2026-04-26T15:29:35.999Z</time></trkpt><trkpt lat="43.2077210427099" lon="11.149568146599973"><ele>353.6666666666667</ele><time>2026-04-26T15:29:36.999Z</time></trkpt><trkpt lat="43.2075445792318" lon="11.14942854486478"><ele>353.0</ele><time>2026-04-26T15:29:37.999Z</time></trkpt><trkpt lat="43.20737591336781" lon="11.14929439738011"><ele>351.33333333333337</ele><time>2026-04-26T15:29:38.999Z</time></trkpt><trkpt lat="43.207205856132674" lon="11.1491652432284"><ele>349.6666666666667</ele><time>2026-04-26T15:29:39.999Z</time></trkpt><trkpt lat="43.207046763615736" lon="11.14903213343831"><ele>348.0</ele><time>2026-04-26T15:29:40.999Z</time></trkpt><trkpt lat="43.20689371777337" lon="11.148903586709137"><ele>348.0</ele><time>2026-04-26T15:29:41.999Z</time></trkpt><trkpt lat="43.20674594635686" lon="11.148774866648218"><ele>348.0</ele><time>2026-04-26T15:29:42.999Z</time></trkpt><trkpt lat="43.20659433458442" lon="11.148647615817056"><ele>348.0</ele><time>2026-04-26T15:29:43.999Z</time></trkpt><trkpt lat="43.20644435609857" lon="11.148529346017964"><ele>346.0</ele><time>2026-04-26T15:29:44.999Z</time></trkpt><trkpt lat="43.20629822699783" lon="11.14840769386275"><ele>344.0</ele><time>2026-04-26T15:29:45.999Z</time></trkpt><trkpt lat="43.206158881907015" lon="11.148290809230938"><ele>342.0</ele><time>2026-04-26T15:29:46.999Z</time></trkpt><trkpt lat="43.20601994853061" lon="11.148175323130372"><ele>342.0</ele><time>2026-04-26T15:29:47.999Z</time></trkpt><trkpt lat="43.20588674102857" lon="11.14806838828678"><ele>342.0</ele><time>2026-04-26T15:29:48.999Z</time></trkpt><trkpt lat="43.20575357846166" lon="11.14797779479577"><ele>342.0</ele><time>2026-04-26T15:29:49.999Z</time></trkpt><trkpt lat="43.2056181014101" lon="11.14789827495216"><ele>341.5</ele><time>2026-04-26T15:29:50.999Z</time></trkpt><trkpt lat="43.20547314520471" lon="11.147832227192458"><ele>341.0</ele><time>2026-04-26T15:29:51.999Z</time></trkpt><trkpt lat="43.205330003000256" lon="11.147794109674381"><ele>340.5</ele><time>2026-04-26T15:29:52.999Z</time></trkpt><trkpt lat="43.20519331147617" lon="11.147759969799953"><ele>340.0</ele><time>2026-04-26T15:29:53.999Z</time></trkpt><trkpt lat="43.205065821378255" lon="11.147736300535819"><ele>340.0</ele><time>2026-04-26T15:29:54.999Z</time></trkpt><trkpt lat="43.20494805852736" lon="11.14773947035708"><ele>340.0</ele><time>2026-04-26T15:29:55.999Z</time></trkpt><trkpt lat="43.20484504009474" lon="11.14779409812061"><ele>340.0</ele><time>2026-04-26T15:29:56.999Z</time></trkpt><trkpt lat="43.20477601385675" lon="11.147891836818735"><ele>340.0</ele><time>2026-04-26T15:29:57.999Z</time></trkpt><trkpt lat="43.20475565309803" lon="11.148013032456639"><ele>340.0</ele><time>2026-04-26T15:29:58.999Z</time></trkpt><trkpt lat="43.204773856701955" lon="11.148121610732385"><ele>337.4</ele><time>2026-04-26T15:29:59.999Z</time></trkpt><trkpt lat="43.20481751801376" lon="11.148225485330242"><ele>334.8</ele><time>2026-04-26T15:30:00.999Z</time></trkpt><trkpt lat="43.204885328504034" lon="11.148279756698594"><ele>332.20000000000005</ele><time>2026-04-26T15:30:01.999Z</time></trkpt><trkpt lat="43.2049787360821" lon="11.148312606591084"><ele>329.6</ele><time>2026-04-26T15:30:02.999Z</time></trkpt><trkpt lat="43.20508534406208" lon="11.148333106939115"><ele>327.0</ele><time>2026-04-26T15:30:03.999Z</time></trkpt><trkpt lat="43.2052147958888" lon="11.14839531234697"><ele>327.0</ele><time>2026-04-26T15:30:04.999Z</time></trkpt><trkpt lat="43.20534108217277" lon="11.148481060586393"><ele>327.0</ele><time>2026-04-26T15:30:05.999Z</time></trkpt><trkpt lat="43.20542719912072" lon="11.148587701834748"><ele>327.0</ele><time>2026-04-26T15:30:06.999Z</time></trkpt><trkpt lat="43.20545476603217" lon="11.14873407485449"><ele>327.0</ele><time>2026-04-26T15:30:07.999Z</time></trkpt><trkpt lat="43.205456223054746" lon="11.148875054595008"><ele>327.0</ele><time>2026-04-26T15:30:08.999Z</time></trkpt><trkpt lat="43.20543686638068" lon="11.148997193706297"><ele>327.0</ele><time>2026-04-26T15:30:09.999Z</time></trkpt><trkpt lat="43.20537987099523" lon="11.149085768300523"><ele>327.0</ele><time>2026-04-26T15:30:10.999Z</time></trkpt><trkpt lat="43.20531495746863" lon="11.149185351154719"><ele>327.0</ele><time>2026-04-26T15:30:11.999Z</time></trkpt><trkpt lat="43.20521815999801" lon="11.149269799573126"><ele>327.0</ele><time>2026-04-26T15:30:12.999Z</time></trkpt><trkpt lat="43.20513518643586" lon="11.149373901395222"><ele>326.0</ele><time>2026-04-26T15:30:13.999Z</time></trkpt><trkpt lat="43.20505190631955" lon="11.149493234901419"><ele>325.0</ele><time>2026-04-26T15:30:14.999Z</time></trkpt><trkpt lat="43.204978145601544" lon="11.149657646873129"><ele>324.0</ele><time>2026-04-26T15:30:15.999Z</time></trkpt><trkpt lat="43.2048705045103" lon="11.14981331450534"><ele>323.0</ele><time>2026-04-26T15:30:16.998Z</time></trkpt><trkpt lat="43.20476524363211" lon="11.149932755474293"><ele>323.0</ele><time>2026-04-26T15:30:17.998Z</time></trkpt><trkpt lat="43.204661949072154" lon="11.149984198978531"><ele>323.0</ele><time>2026-04-26T15:30:18.998Z</time></trkpt><trkpt lat="43.20454121913887" lon="11.149983382956075"><ele>323.0</ele><time>2026-04-26T15:30:19.998Z</time></trkpt><trkpt lat="43.2044281637585" lon="11.149917417954738"><ele>323.0</ele><time>2026-04-26T15:30:20.998Z</time></trkpt><trkpt lat="43.20430620575223" lon="11.149828486299457"><ele>321.0</ele><time>2026-04-26T15:30:21.998Z</time></trkpt><trkpt lat="43.20418250984858" lon="11.1497036713549"><ele>319.0</ele><time>2026-04-26T15:30:22.998Z</time></trkpt><trkpt lat="43.20406124857401" lon="11.149560627125718"><ele>317.0</ele><time>2026-04-26T15:30:23.998Z</time></trkpt><trkpt lat="43.20394707251011" lon="11.149387561614127"><ele>317.0</ele><time>2026-04-26T15:30:24.998Z</time></trkpt><trkpt lat="43.20383785123378" lon="11.14919941257229"><ele>317.0</ele><time>2026-04-26T15:30:25.998Z</time></trkpt><trkpt lat="43.203717992230885" lon="11.149010728534094"><ele>317.0</ele><time>2026-04-26T15:30:26.998Z</time></trkpt><trkpt lat="43.203581555428656" lon="11.148819281427851"><ele>314.0</ele><time>2026-04-26T15:30:27.998Z</time></trkpt><trkpt lat="43.20344245569748" lon="11.148629628270909"><ele>311.0</ele><time>2026-04-26T15:30:28.998Z</time></trkpt><trkpt lat="43.203298659454575" lon="11.148449424396661"><ele>308.0</ele><time>2026-04-26T15:30:29.998Z</time></trkpt><trkpt lat="43.20316874647778" lon="11.148253616162418"><ele>304.6666666666667</ele><time>2026-04-26T15:30:30.998Z</time></trkpt><trkpt lat="43.203069664045344" lon="11.148047556046972"><ele>301.3333333333333</ele><time>2026-04-26T15:30:31.998Z</time></trkpt><trkpt lat="43.20297824915254" lon="11.147840400768228"><ele>298.0</ele><time>2026-04-26T15:30:32.998Z</time></trkpt><trkpt lat="43.20289532982652" lon="11.147620266391288"><ele>298.0</ele><time>2026-04-26T15:30:33.998Z</time></trkpt><trkpt lat="43.20281566109661" lon="11.147415962897174"><ele>298.0</ele><time>2026-04-26T15:30:34.998Z</time></trkpt><trkpt lat="43.202744627763124" lon="11.147241275198352"><ele>298.0</ele><time>2026-04-26T15:30:35.998Z</time></trkpt><trkpt lat="43.20266246816011" lon="11.147095044731875"><ele>298.0</ele><time>2026-04-26T15:30:36.998Z</time></trkpt><trkpt lat="43.20254618955453" lon="11.146988794374078"><ele>298.75</ele><time>2026-04-26T15:30:37.998Z</time></trkpt><trkpt lat="43.202408303906694" lon="11.146921548448068"><ele>299.5</ele><time>2026-04-26T15:30:38.998Z</time></trkpt><trkpt lat="43.20226043874124" lon="11.146885961014585"><ele>300.25</ele><time>2026-04-26T15:30:39.998Z</time></trkpt><trkpt lat="43.20210833223496" lon="11.14687241814425"><ele>301.0</ele><time>2026-04-26T15:30:40.998Z</time></trkpt><trkpt lat="43.201966393355534" lon="11.14684961590897"><ele>301.0</ele><time>2026-04-26T15:30:41.998Z</time></trkpt><trkpt lat="43.20180860318746" lon="11.146792401795635"><ele>301.0</ele><time>2026-04-26T15:30:42.998Z</time></trkpt><trkpt lat="43.20164299770591" lon="11.146727342264013"><ele>301.0</ele><time>2026-04-26T15:30:43.998Z</time></trkpt><trkpt lat="43.20145257819514" lon="11.146641852051006"><ele>299.3333333333333</ele><time>2026-04-26T15:30:44.998Z</time></trkpt><trkpt lat="43.20126070336949" lon="11.1465606736925"><ele>297.6666666666667</ele><time>2026-04-26T15:30:45.998Z</time></trkpt><trkpt lat="43.20110052172719" lon="11.146445615424264"><ele>296.0</ele><time>2026-04-26T15:30:46.998Z</time></trkpt><trkpt lat="43.20093151048744" lon="11.14633549351925"><ele>296.0</ele><time>2026-04-26T15:30:47.998Z</time></trkpt><trkpt lat="43.20075656039354" lon="11.146192490920974"><ele>296.0</ele><time>2026-04-26T15:30:48.998Z</time></trkpt><trkpt lat="43.20058683127007" lon="11.146040511534373"><ele>296.0</ele><time>2026-04-26T15:30:49.998Z</time></trkpt><trkpt lat="43.200417740858455" lon="11.145883128128474"><ele>296.0</ele><time>2026-04-26T15:30:50.998Z</time></trkpt><trkpt lat="43.200240036294794" lon="11.1457426200734"><ele>296.0</ele><time>2026-04-26T15:30:51.998Z</time></trkpt><trkpt lat="43.2000550485399" lon="11.145619007118478"><ele>296.0</ele><time>2026-04-26T15:30:52.998Z</time></trkpt><trkpt lat="43.19985675286717" lon="11.145524184373945"><ele>295.0</ele><time>2026-04-26T15:30:53.998Z</time></trkpt><trkpt lat="43.19965259345288" lon="11.145453538577"><ele>294.0</ele><time>2026-04-26T15:30:54.998Z</time></trkpt><trkpt lat="43.19943683880809" lon="11.145403361437065"><ele>293.0</ele><time>2026-04-26T15:30:55.998Z</time></trkpt><trkpt lat="43.19921803014344" lon="11.145371352408254"><ele>293.0</ele><time>2026-04-26T15:30:56.998Z</time></trkpt><trkpt lat="43.1990060451848" lon="11.145330365165636"><ele>293.0</ele><time>2026-04-26T15:30:57.998Z</time></trkpt><trkpt lat="43.19879980679315" lon="11.145294391378147"><ele>293.0</ele><time>2026-04-26T15:30:58.998Z</time></trkpt><trkpt lat="43.1985991492861" lon="11.145257918642113"><ele>292.0</ele><time>2026-04-26T15:30:59.998Z</time></trkpt><trkpt lat="43.198396454806115" lon="11.145255746833572"><ele>291.0</ele><time>2026-04-26T15:31:00.998Z</time></trkpt><trkpt lat="43.198193458209786" lon="11.14528327244798"><ele>290.0</ele><time>2026-04-26T15:31:01.998Z</time></trkpt><trkpt lat="43.19799431070261" lon="11.145349588992291"><ele>288.6666666666667</ele><time>2026-04-26T15:31:02.998Z</time></trkpt><trkpt lat="43.19780150617735" lon="11.145416570901716"><ele>287.3333333333333</ele><time>2026-04-26T15:31:03.998Z</time></trkpt><trkpt lat="43.19760885001769" lon="11.145458489850686"><ele>286.0</ele><time>2026-04-26T15:31:04.998Z</time></trkpt><trkpt lat="43.19740691382893" lon="11.14547378432492"><ele>284.0</ele><time>2026-04-26T15:31:05.998Z</time></trkpt><trkpt lat="43.19719570310073" lon="11.145472741691702"><ele>282.0</ele><time>2026-04-26T15:31:06.998Z</time></trkpt><trkpt lat="43.19698653670202" lon="11.14543860251338"><ele>280.0</ele><time>2026-04-26T15:31:07.998Z</time></trkpt><trkpt lat="43.19677907908847" lon="11.145385619867218"><ele>280.0</ele><time>2026-04-26T15:31:08.998Z</time></trkpt><trkpt lat="43.19656514865846" lon="11.145321055646493"><ele>280.0</ele><time>2026-04-26T15:31:09.998Z</time></trkpt><trkpt lat="43.19635490798822" lon="11.14523962594903"><ele>280.0</ele><time>2026-04-26T15:31:10.997Z</time></trkpt><trkpt lat="43.196137715763356" lon="11.145184891972772"><ele>279.0</ele><time>2026-04-26T15:31:12Z</time></trkpt><trkpt lat="43.195925989200255" lon="11.145104409937861"><ele>278.0</ele><time>2026-04-26T15:31:13Z</time></trkpt><trkpt lat="43.195718299830816" lon="11.145011246398978"><ele>277.0</ele><time>2026-04-26T15:31:14Z</time></trkpt><trkpt lat="43.19551930786985" lon="11.144889536983468"><ele>275.66666666666663</ele><time>2026-04-26T15:31:15Z</time></trkpt><trkpt lat="43.19533010429708" lon="11.144757879537565"><ele>274.3333333333333</ele><time>2026-04-26T15:31:16Z</time></trkpt><trkpt lat="43.19513751889662" lon="11.144629999849995"><ele>273.0</ele><time>2026-04-26T15:31:17Z</time></trkpt><trkpt lat="43.19493163823803" lon="11.144502911155781"><ele>273.0</ele><time>2026-04-26T15:31:18Z</time></trkpt><trkpt lat="43.194718390710854" lon="11.144375970526186"><ele>273.0</ele><time>2026-04-26T15:31:19Z</time></trkpt><trkpt lat="43.1945122898252" lon="11.144246699002146"><ele>273.0</ele><time>2026-04-26T15:31:20Z</time></trkpt><trkpt lat="43.19430587426026" lon="11.14411440223653"><ele>273.0</ele><time>2026-04-26T15:31:21Z</time></trkpt><trkpt lat="43.19409890243943" lon="11.143982813619509"><ele>274.5</ele><time>2026-04-26T15:31:22Z</time></trkpt><trkpt lat="43.19388827162783" lon="11.143850296841881"><ele>276.0</ele><time>2026-04-26T15:31:23Z</time></trkpt><trkpt lat="43.19367382750942" lon="11.143713213667091"><ele>276.0</ele><time>2026-04-26T15:31:24Z</time></trkpt><trkpt lat="43.19345611496635" lon="11.143580304566607"><ele>276.0</ele><time>2026-04-26T15:31:25Z</time></trkpt><trkpt lat="43.19324353310476" lon="11.143451362627065"><ele>275.0</ele><time>2026-04-26T15:31:26Z</time></trkpt><trkpt lat="43.193026789351656" lon="11.143325179432095"><ele>274.0</ele><time>2026-04-26T15:31:27Z</time></trkpt><trkpt lat="43.192808678073575" lon="11.14319631050888"><ele>274.0</ele><time>2026-04-26T15:31:28Z</time></trkpt><trkpt lat="43.192594977738544" lon="11.143062096027549"><ele>274.0</ele><time>2026-04-26T15:31:29Z</time></trkpt><trkpt lat="43.19238311798096" lon="11.142928960158656"><ele>274.66666666666663</ele><time>2026-04-26T15:31:29.999Z</time></trkpt><trkpt lat="43.19217648258455" lon="11.142801647506072"><ele>275.3333333333333</ele><time>2026-04-26T15:31:30.999Z</time></trkpt><trkpt lat="43.191973881191316" lon="11.142679000376802"><ele>276.0</ele><time>2026-04-26T15:31:31.999Z</time></trkpt><trkpt lat="43.19177528763888" lon="11.142553560657111"><ele>276.0</ele><time>2026-04-26T15:31:32.999Z</time></trkpt><trkpt lat="43.1915810149701" lon="11.142432011856249"><ele>276.0</ele><time>2026-04-26T15:31:33.999Z</time></trkpt><trkpt lat="43.19139007767081" lon="11.142314179314551"><ele>276.0</ele><time>2026-04-26T15:31:34.999Z</time></trkpt><trkpt lat="43.19119892488822" lon="11.142196786524798"><ele>276.3333333333333</ele><time>2026-04-26T15:31:35.999Z</time></trkpt><trkpt lat="43.19100756007225" lon="11.142074226106"><ele>276.66666666666663</ele><time>2026-04-26T15:31:36.999Z</time></trkpt><trkpt lat="43.19081363790536" lon="11.141953927045991"><ele>277.0</ele><time>2026-04-26T15:31:37.999Z</time></trkpt><trkpt lat="43.19061709121506" lon="11.14184160915544"><ele>277.66666666666663</ele><time>2026-04-26T15:31:38.999Z</time></trkpt><trkpt lat="43.19042013036324" lon="11.141730860716475"><ele>278.3333333333333</ele><time>2026-04-26T15:31:39.999Z</time></trkpt><trkpt lat="43.190219357198785" lon="11.141629830515637"><ele>279.0</ele><time>2026-04-26T15:31:40.999Z</time></trkpt><trkpt lat="43.19001300449139" lon="11.141548516441917"><ele>279.3333333333333</ele><time>2026-04-26T15:31:41.999Z</time></trkpt><trkpt lat="43.189802365307024" lon="11.141488900570117"><ele>279.66666666666663</ele><time>2026-04-26T15:31:42.999Z</time></trkpt><trkpt lat="43.18958557699325" lon="11.141447313782054"><ele>280.0</ele><time>2026-04-26T15:31:43.999Z</time></trkpt><trkpt lat="43.189365900604336" lon="11.141425294592317"><ele>280.0</ele><time>2026-04-26T15:31:44.999Z</time></trkpt><trkpt lat="43.18914503187037" lon="11.141420270189812"><ele>280.0</ele><time>2026-04-26T15:31:45.999Z</time></trkpt><trkpt lat="43.18892349250861" lon="11.141445430580118"><ele>280.0</ele><time>2026-04-26T15:31:46.999Z</time></trkpt><trkpt lat="43.18870474930506" lon="11.141495628678161"><ele>279.0</ele><time>2026-04-26T15:31:47.999Z</time></trkpt><trkpt lat="43.18848896960123" lon="11.141571245351749"><ele>278.0</ele><time>2026-04-26T15:31:48.999Z</time></trkpt><trkpt lat="43.18827110438944" lon="11.14166345413804"><ele>279.0</ele><time>2026-04-26T15:31:49.999Z</time></trkpt><trkpt lat="43.18805716106756" lon="11.141774234620165"><ele>280.0</ele><time>2026-04-26T15:31:50.999Z</time></trkpt><trkpt lat="43.18784835254822" lon="11.141907213511468"><ele>280.0</ele><time>2026-04-26T15:31:51.999Z</time></trkpt><trkpt lat="43.18764240119606" lon="11.14205620020478"><ele>280.0</ele><time>2026-04-26T15:31:52.999Z</time></trkpt><trkpt lat="43.187447684132295" lon="11.142227582647182"><ele>279.5</ele><time>2026-04-26T15:31:53.999Z</time></trkpt><trkpt lat="43.1872442243352" lon="11.142413910034918"><ele>279.0</ele><time>2026-04-26T15:31:54.999Z</time></trkpt><trkpt lat="43.18704569708653" lon="11.142589551126532"><ele>279.0</ele><time>2026-04-26T15:31:55.999Z</time></trkpt><trkpt lat="43.18684825643135" lon="11.142777452929707"><ele>279.0</ele><time>2026-04-26T15:31:56.999Z</time></trkpt><trkpt lat="43.186646358787506" lon="11.142958034766"><ele>279.0</ele><time>2026-04-26T15:31:57.999Z</time></trkpt><trkpt lat="43.18644319119989" lon="11.143139309186461"><ele>279.0</ele><time>2026-04-26T15:31:58.999Z</time></trkpt><trkpt lat="43.18623993186417" lon="11.143323380017984"><ele>279.0</ele><time>2026-04-26T15:31:59.999Z</time></trkpt><trkpt lat="43.186037039625965" lon="11.14350631336661"><ele>279.0</ele><time>2026-04-26T15:32:00.999Z</time></trkpt><trkpt lat="43.185831523931334" lon="11.143691246714836"><ele>278.5</ele><time>2026-04-26T15:32:01.999Z</time></trkpt><trkpt lat="43.1856248673074" lon="11.143879124851658"><ele>278.0</ele><time>2026-04-26T15:32:02.999Z</time></trkpt><trkpt lat="43.18541683465705" lon="11.144067807523564"><ele>278.0</ele><time>2026-04-26T15:32:03.999Z</time></trkpt><trkpt lat="43.185206460085325" lon="11.144258473017059"><ele>278.0</ele><time>2026-04-26T15:32:04.999Z</time></trkpt><trkpt lat="43.18499632346905" lon="11.144449311717212"><ele>280.0</ele><time>2026-04-26T15:32:05.999Z</time></trkpt><trkpt lat="43.18478470564255" lon="11.14464192854316"><ele>282.0</ele><time>2026-04-26T15:32:06.999Z</time></trkpt><trkpt lat="43.18457347218047" lon="11.144836736164988"><ele>278.5</ele><time>2026-04-26T15:32:07.999Z</time></trkpt><trkpt lat="43.184359786525086" lon="11.145029132443135"><ele>275.0</ele><time>2026-04-26T15:32:08.999Z</time></trkpt><trkpt lat="43.18414473612025" lon="11.145222752229026"><ele>276.5</ele><time>2026-04-26T15:32:09.999Z</time></trkpt><trkpt lat="43.18392636307445" lon="11.145418036312556"><ele>278.0</ele><time>2026-04-26T15:32:10.999Z</time></trkpt><trkpt lat="43.183705434321716" lon="11.145613185920006"><ele>275.5</ele><time>2026-04-26T15:32:11.999Z</time></trkpt><trkpt lat="43.18348347878093" lon="11.145811743465057"><ele>273.0</ele><time>2026-04-26T15:32:12.999Z</time></trkpt><trkpt lat="43.18325950985282" lon="11.146008167176486"><ele>274.5</ele><time>2026-04-26T15:32:13.999Z</time></trkpt><trkpt lat="43.18303830111403" lon="11.146206146122244"><ele>276.0</ele><time>2026-04-26T15:32:14.999Z</time></trkpt><trkpt lat="43.1828204084308" lon="11.146404426791737"><ele>274.5</ele><time>2026-04-26T15:32:15.999Z</time></trkpt><trkpt lat="43.18260646499535" lon="11.146603349609395"><ele>273.0</ele><time>2026-04-26T15:32:16.999Z</time></trkpt><trkpt lat="43.18239759555423" lon="11.146798904671778"><ele>274.0</ele><time>2026-04-26T15:32:17.999Z</time></trkpt><trkpt lat="43.182189682692005" lon="11.146989853700436"><ele>275.0</ele><time>2026-04-26T15:32:18.999Z</time></trkpt><trkpt lat="43.18198328835182" lon="11.147175410306366"><ele>275.0</ele><time>2026-04-26T15:32:19.999Z</time></trkpt><trkpt lat="43.18177967879983" lon="11.14735386253729"><ele>275.0</ele><time>2026-04-26T15:32:20.999Z</time></trkpt><trkpt lat="43.181575856265454" lon="11.147530957874947"><ele>272.5</ele><time>2026-04-26T15:32:21.999Z</time></trkpt><trkpt lat="43.18137564859353" lon="11.14771126257937"><ele>270.0</ele><time>2026-04-26T15:32:22.999Z</time></trkpt><trkpt lat="43.18117959623709" lon="11.147891063293274"><ele>270.0</ele><time>2026-04-26T15:32:23.999Z</time></trkpt><trkpt lat="43.18099013582542" lon="11.148070660909946"><ele>270.0</ele><time>2026-04-26T15:32:24.999Z</time></trkpt><trkpt lat="43.18080564660446" lon="11.148245900653773"><ele>270.0</ele><time>2026-04-26T15:32:25.999Z</time></trkpt><trkpt lat="43.180613743695204" lon="11.148411006870385"><ele>270.0</ele><time>2026-04-26T15:32:26.998Z</time></trkpt><trkpt lat="43.18041877622524" lon="11.14856071984768"><ele>270.0</ele><time>2026-04-26T15:32:27.998Z</time></trkpt><trkpt lat="43.18021540592672" lon="11.148692787096824"><ele>270.0</ele><time>2026-04-26T15:32:28.998Z</time></trkpt><trkpt lat="43.18000067494937" lon="11.148796944295658"><ele>271.5</ele><time>2026-04-26T15:32:29.998Z</time></trkpt><trkpt lat="43.179777112703675" lon="11.148870149219492"><ele>273.0</ele><time>2026-04-26T15:32:30.998Z</time></trkpt><trkpt lat="43.17954433451963" lon="11.148937894476934"><ele>273.0</ele><time>2026-04-26T15:32:31.998Z</time></trkpt><trkpt lat="43.179310382045315" lon="11.14900665449915"><ele>273.0</ele><time>2026-04-26T15:32:32.998Z</time></trkpt><trkpt lat="43.17907640147484" lon="11.149072869421737"><ele>272.5</ele><time>2026-04-26T15:32:33.998Z</time></trkpt><trkpt lat="43.178842075046965" lon="11.149137925498437"><ele>272.0</ele><time>2026-04-26T15:32:34.998Z</time></trkpt><trkpt lat="43.17860883571083" lon="11.149202166699462"><ele>272.0</ele><time>2026-04-26T15:32:35.998Z</time></trkpt><trkpt lat="43.17837247811117" lon="11.149264216071911"><ele>272.0</ele><time>2026-04-26T15:32:36.998Z</time></trkpt><trkpt lat="43.17813709613215" lon="11.1493227684"><ele>273.0</ele><time>2026-04-26T15:32:37.998Z</time></trkpt><trkpt lat="43.177901450190724" lon="11.149375461566152"><ele>274.0</ele><time>2026-04-26T15:32:38.998Z</time></trkpt><trkpt lat="43.177665109687034" lon="11.149417612532977"><ele>274.0</ele><time>2026-04-26T15:32:39.998Z</time></trkpt><trkpt lat="43.17742847088397" lon="11.149454646718421"><ele>274.0</ele><time>2026-04-26T15:32:40.998Z</time></trkpt><trkpt lat="43.17719111220892" lon="11.14949201825372"><ele>274.0</ele><time>2026-04-26T15:32:41.998Z</time></trkpt><trkpt lat="43.17695503286789" lon="11.149528468736667"><ele>274.0</ele><time>2026-04-26T15:32:42.998Z</time></trkpt><trkpt lat="43.17672048961543" lon="11.149565360854375"><ele>274.0</ele><time>2026-04-26T15:32:43.998Z</time></trkpt><trkpt lat="43.17649063453942" lon="11.149601526506162"><ele>274.0</ele><time>2026-04-26T15:32:44.998Z</time></trkpt><trkpt lat="43.17626344161187" lon="11.149644741645991"><ele>274.0</ele><time>2026-04-26T15:32:45.998Z</time></trkpt><trkpt lat="43.17604323275461" lon="11.14970941501145"><ele>274.0</ele><time>2026-04-26T15:32:46.998Z</time></trkpt><trkpt lat="43.17583393257321" lon="11.14980250844647"><ele>274.0</ele><time>2026-04-26T15:32:47.998Z</time></trkpt><trkpt lat="43.175627456235226" lon="11.149922801550515"><ele>273.0</ele><time>2026-04-26T15:32:48.998Z</time></trkpt><trkpt lat="43.175428728948475" lon="11.150068119533715"><ele>272.0</ele><time>2026-04-26T15:32:49.998Z</time></trkpt><trkpt lat="43.17523941736342" lon="11.150236694875893"><ele>272.0</ele><time>2026-04-26T15:32:50.998Z</time></trkpt><trkpt lat="43.17506825760664" lon="11.150413741520422"><ele>272.0</ele><time>2026-04-26T15:32:51.998Z</time></trkpt><trkpt lat="43.17489787369521" lon="11.150584895372614"><ele>272.0</ele><time>2026-04-26T15:32:52.998Z</time></trkpt><trkpt lat="43.17472674000071" lon="11.15074401330941"><ele>270.33333333333337</ele><time>2026-04-26T15:32:53.998Z</time></trkpt><trkpt lat="43.17456117185369" lon="11.150903895014432"><ele>268.6666666666667</ele><time>2026-04-26T15:32:54.998Z</time></trkpt><trkpt lat="43.17439331713196" lon="11.151073579655518"><ele>267.0</ele><time>2026-04-26T15:32:55.998Z</time></trkpt><trkpt lat="43.17423967327653" lon="11.151252966539998"><ele>267.0</ele><time>2026-04-26T15:32:56.998Z</time></trkpt><trkpt lat="43.174075819625465" lon="11.151444618541953"><ele>267.0</ele><time>2026-04-26T15:32:57.998Z</time></trkpt><trkpt lat="43.173911790881974" lon="11.151645919566452"><ele>267.0</ele><time>2026-04-26T15:32:58.998Z</time></trkpt><trkpt lat="43.17374112567362" lon="11.151845313506318"><ele>267.5</ele><time>2026-04-26T15:32:59.998Z</time></trkpt><trkpt lat="43.17356044533762" lon="11.152040921239315"><ele>268.0</ele><time>2026-04-26T15:33:00.998Z</time></trkpt><trkpt lat="43.17338187438814" lon="11.152244173787869"><ele>267.5</ele><time>2026-04-26T15:33:01.998Z</time></trkpt><trkpt lat="43.173208501258095" lon="11.15245235768501"><ele>267.0</ele><time>2026-04-26T15:33:02.998Z</time></trkpt><trkpt lat="43.17304179091481" lon="11.152654419542797"><ele>266.6666666666667</ele><time>2026-04-26T15:33:03.998Z</time></trkpt><trkpt lat="43.17288073019046" lon="11.152844785959992"><ele>266.33333333333337</ele><time>2026-04-26T15:33:04.998Z</time></trkpt><trkpt lat="43.172726568423954" lon="11.153031386978368"><ele>266.0</ele><time>2026-04-26T15:33:05.998Z</time></trkpt><trkpt lat="43.17257496667658" lon="11.15321831890052"><ele>266.0</ele><time>2026-04-26T15:33:06.998Z</time></trkpt><trkpt lat="43.17241376771564" lon="11.153403095057804"><ele>266.0</ele><time>2026-04-26T15:33:07.998Z</time></trkpt><trkpt lat="43.17225107165562" lon="11.153592022383137"><ele>266.0</ele><time>2026-04-26T15:33:08.998Z</time></trkpt><trkpt lat="43.17208842254333" lon="11.15378913036875"><ele>266.0</ele><time>2026-04-26T15:33:09.998Z</time></trkpt><trkpt lat="43.171923683253944" lon="11.153989102147428"><ele>266.0</ele><time>2026-04-26T15:33:10.998Z</time></trkpt><trkpt lat="43.17175983005469" lon="11.154187292941899"><ele>266.0</ele><time>2026-04-26T15:33:11.998Z</time></trkpt><trkpt lat="43.17159027979022" lon="11.154382279669933"><ele>267.0</ele><time>2026-04-26T15:33:12.998Z</time></trkpt><trkpt lat="43.17142516224974" lon="11.154574320171848"><ele>268.0</ele><time>2026-04-26T15:33:13.998Z</time></trkpt><trkpt lat="43.17126057137717" lon="11.154766129106772"><ele>269.0</ele><time>2026-04-26T15:33:14.998Z</time></trkpt><trkpt lat="43.17109406922475" lon="11.15496192605716"><ele>269.0</ele><time>2026-04-26T15:33:15.998Z</time></trkpt><trkpt lat="43.170929569407306" lon="11.155161883013198"><ele>269.0</ele><time>2026-04-26T15:33:16.998Z</time></trkpt><trkpt lat="43.17076437437344" lon="11.155360135699102"><ele>269.0</ele><time>2026-04-26T15:33:18Z</time></trkpt><trkpt lat="43.17059731765537" lon="11.155560407283193"><ele>266.5</ele><time>2026-04-26T15:33:19Z</time></trkpt><trkpt lat="43.17043699730113" lon="11.155773422182916"><ele>264.0</ele><time>2026-04-26T15:33:20Z</time></trkpt><trkpt lat="43.170281301698715" lon="11.156004842079044"><ele>264.0</ele><time>2026-04-26T15:33:21Z</time></trkpt><trkpt lat="43.170134042287046" lon="11.156253563147583"><ele>264.0</ele><time>2026-04-26T15:33:22Z</time></trkpt><trkpt lat="43.16999933906057" lon="11.156511103624844"><ele>264.0</ele><time>2026-04-26T15:33:23Z</time></trkpt><trkpt lat="43.169862340331754" lon="11.156771177949937"><ele>264.0</ele><time>2026-04-26T15:33:24Z</time></trkpt><trkpt lat="43.169720636916765" lon="11.157021289832732"><ele>264.0</ele><time>2026-04-26T15:33:25Z</time></trkpt><trkpt lat="43.16958335213195" lon="11.15726931355512"><ele>264.0</ele><time>2026-04-26T15:33:26Z</time></trkpt><trkpt lat="43.169452277593045" lon="11.157508061286256"><ele>264.0</ele><time>2026-04-26T15:33:27Z</time></trkpt><trkpt lat="43.16933438361429" lon="11.157738607169449"><ele>264.0</ele><time>2026-04-26T15:33:28Z</time></trkpt><trkpt lat="43.16921913840637" lon="11.157954729468695"><ele>264.0</ele><time>2026-04-26T15:33:29Z</time></trkpt><trkpt lat="43.16910673392896" lon="11.158154848466602"><ele>264.0</ele><time>2026-04-26T15:33:30Z</time></trkpt><trkpt lat="43.16902083964889" lon="11.158343313670219"><ele>263.5</ele><time>2026-04-26T15:33:31Z</time></trkpt><trkpt lat="43.16893880389719" lon="11.15850970004936"><ele>263.0</ele><time>2026-04-26T15:33:32Z</time></trkpt><trkpt lat="43.16886400248866" lon="11.158654410724221"><ele>262.5</ele><time>2026-04-26T15:33:33Z</time></trkpt><trkpt lat="43.168797699536626" lon="11.158781634976668"><ele>262.0</ele><time>2026-04-26T15:33:34Z</time></trkpt><trkpt lat="43.168734292251344" lon="11.158884247662254"><ele>262.0</ele><time>2026-04-26T15:33:35Z</time></trkpt><trkpt lat="43.1686682319046" lon="11.158947390440657"><ele>262.0</ele><time>2026-04-26T15:33:36Z</time></trkpt><trkpt lat="43.16859328542259" lon="11.158963996954881"><ele>262.0</ele><time>2026-04-26T15:33:37Z</time></trkpt><trkpt lat="43.168503632282615" lon="11.158930418096288"><ele>262.0</ele><time>2026-04-26T15:33:38Z</time></trkpt><trkpt lat="43.168426133752945" lon="11.158840379072632"><ele>262.0</ele><time>2026-04-26T15:33:38.999Z</time></trkpt><trkpt lat="43.16832943647935" lon="11.158732893250978"><ele>262.0</ele><time>2026-04-26T15:33:39.999Z</time></trkpt><trkpt lat="43.16823729605097" lon="11.158622845949687"><ele>262.0</ele><time>2026-04-26T15:33:40.999Z</time></trkpt><trkpt lat="43.1681257591357" lon="11.158514597001009"><ele>262.0</ele><time>2026-04-26T15:33:41.999Z</time></trkpt><trkpt lat="43.168008658616756" lon="11.158402298761025"><ele>262.0</ele><time>2026-04-26T15:33:42.999Z</time></trkpt><trkpt lat="43.16788905541877" lon="11.158283873043334"><ele>262.0</ele><time>2026-04-26T15:33:43.999Z</time></trkpt><trkpt lat="43.16776013119796" lon="11.158162625589917"><ele>262.0</ele><time>2026-04-26T15:33:44.999Z</time></trkpt><trkpt lat="43.16762640039905" lon="11.15803471608821"><ele>262.0</ele><time>2026-04-26T15:33:45.999Z</time></trkpt><trkpt lat="43.16748491579099" lon="11.157895817453646"><ele>263.3333333333333</ele><time>2026-04-26T15:33:46.999Z</time></trkpt><trkpt lat="43.167335625208366" lon="11.15775171576683"><ele>264.6666666666667</ele><time>2026-04-26T15:33:47.999Z</time></trkpt><trkpt lat="43.16717966867809" lon="11.157603303294888"><ele>266.0</ele><time>2026-04-26T15:33:48.999Z</time></trkpt><trkpt lat="43.1670258473825" lon="11.157461233920301"><ele>265.33333333333337</ele><time>2026-04-26T15:33:49.999Z</time></trkpt><trkpt lat="43.16686674030464" lon="11.157318724373914"><ele>264.6666666666667</ele><time>2026-04-26T15:33:50.999Z</time></trkpt><trkpt lat="43.16670476105284" lon="11.157171965454806"><ele>264.0</ele><time>2026-04-26T15:33:51.999Z</time></trkpt><trkpt lat="43.16654009404561" lon="11.157022993525876"><ele>266.3333333333333</ele><time>2026-04-26T15:33:52.999Z</time></trkpt><trkpt lat="43.166375220996045" lon="11.156867633119443"><ele>268.66666666666663</ele><time>2026-04-26T15:33:53.999Z</time></trkpt><trkpt lat="43.16620961627432" lon="11.156707893162014"><ele>271.0</ele><time>2026-04-26T15:33:54.999Z</time></trkpt><trkpt lat="43.16604000156744" lon="11.156544540319915"><ele>270.3333333333333</ele><time>2026-04-26T15:33:55.999Z</time></trkpt><trkpt lat="43.16586802531458" lon="11.156378279492811"><ele>269.6666666666667</ele><time>2026-04-26T15:33:56.999Z</time></trkpt><trkpt lat="43.165693471580155" lon="11.156203946056632"><ele>269.0</ele><time>2026-04-26T15:33:57.999Z</time></trkpt><trkpt lat="43.16551634036878" lon="11.156029434803555"><ele>269.0</ele><time>2026-04-26T15:33:58.999Z</time></trkpt><trkpt lat="43.165341270011375" lon="11.155855846804473"><ele>269.0</ele><time>2026-04-26T15:33:59.999Z</time></trkpt><trkpt lat="43.165165595164176" lon="11.155682099044984"><ele>269.0</ele><time>2026-04-26T15:34:00.999Z</time></trkpt><trkpt lat="43.164990850720734" lon="11.155505569540269"><ele>270.0</ele><time>2026-04-26T15:34:01.999Z</time></trkpt><trkpt lat="43.16481176952518" lon="11.155331608131476"><ele>271.0</ele><time>2026-04-26T15:34:02.999Z</time></trkpt><trkpt lat="43.164638925037934" lon="11.155154714616843"><ele>272.0</ele><time>2026-04-26T15:34:03.999Z</time></trkpt><trkpt lat="43.16446319166846" lon="11.154977442502549"><ele>273.6666666666667</ele><time>2026-04-26T15:34:04.999Z</time></trkpt><trkpt lat="43.16428579307291" lon="11.15480202677665"><ele>275.3333333333333</ele><time>2026-04-26T15:34:05.999Z</time></trkpt><trkpt lat="43.16411370578525" lon="11.154628314760533"><ele>277.0</ele><time>2026-04-26T15:34:06.999Z</time></trkpt><trkpt lat="43.16394212509773" lon="11.15445657686285"><ele>278.3333333333333</ele><time>2026-04-26T15:34:07.999Z</time></trkpt><trkpt lat="43.16377131723444" lon="11.154288822834515"><ele>279.6666666666667</ele><time>2026-04-26T15:34:08.999Z</time></trkpt><trkpt lat="43.163601003048704" lon="11.154122950791935"><ele>281.0</ele><time>2026-04-26T15:34:09.999Z</time></trkpt><trkpt lat="43.16343644898634" lon="11.153958966094072"><ele>282.0</ele><time>2026-04-26T15:34:10.999Z</time></trkpt><trkpt lat="43.16327813014174" lon="11.15380076804163"><ele>283.0</ele><time>2026-04-26T15:34:11.999Z</time></trkpt><trkpt lat="43.16312496075572" lon="11.153650330327638"><ele>284.0</ele><time>2026-04-26T15:34:12.999Z</time></trkpt><trkpt lat="43.16297773636435" lon="11.153504041278635"><ele>285.33333333333337</ele><time>2026-04-26T15:34:13.999Z</time></trkpt><trkpt lat="43.16283573815599" lon="11.153359945626228"><ele>286.6666666666667</ele><time>2026-04-26T15:34:14.999Z</time></trkpt><trkpt lat="43.16270371249719" lon="11.153232901409778"><ele>288.0</ele><time>2026-04-26T15:34:15.999Z</time></trkpt><trkpt lat="43.162573116972084" lon="11.153129952574904"><ele>289.3333333333333</ele><time>2026-04-26T15:34:16.999Z</time></trkpt><trkpt lat="43.16243078237537" lon="11.153067800860606"><ele>290.66666666666663</ele><time>2026-04-26T15:34:17.999Z</time></trkpt><trkpt lat="43.16228179865553" lon="11.15307124383935"><ele>292.0</ele><time>2026-04-26T15:34:18.999Z</time></trkpt><trkpt lat="43.16213113954303" lon="11.153126213703382"><ele>290.66666666666663</ele><time>2026-04-26T15:34:19.999Z</time></trkpt><trkpt lat="43.16198155559227" lon="11.153209419011805"><ele>289.3333333333333</ele><time>2026-04-26T15:34:20.999Z</time></trkpt><trkpt lat="43.161817287520755" lon="11.153279624540065"><ele>288.0</ele><time>2026-04-26T15:34:21.999Z</time></trkpt><trkpt lat="43.16163952693312" lon="11.153342193085848"><ele>285.6666666666667</ele><time>2026-04-26T15:34:22.999Z</time></trkpt><trkpt lat="43.16145990607143" lon="11.15339696571831"><ele>283.33333333333337</ele><time>2026-04-26T15:34:23.999Z</time></trkpt><trkpt lat="43.161274249921014" lon="11.153431636158764"><ele>281.0</ele><time>2026-04-26T15:34:24.999Z</time></trkpt><trkpt lat="43.161083723904326" lon="11.153418790110546"><ele>281.0</ele><time>2026-04-26T15:34:25.999Z</time></trkpt><trkpt lat="43.160897987683235" lon="11.153370873893715"><ele>281.0</ele><time>2026-04-26T15:34:26.999Z</time></trkpt><trkpt lat="43.16071771052885" lon="11.153317284843949"><ele>281.0</ele><time>2026-04-26T15:34:27.999Z</time></trkpt><trkpt lat="43.16054233404656" lon="11.153259340411273"><ele>279.33333333333337</ele><time>2026-04-26T15:34:28.999Z</time></trkpt><trkpt lat="43.160374996900934" lon="11.153194635482135"><ele>277.6666666666667</ele><time>2026-04-26T15:34:29.999Z</time></trkpt><trkpt lat="43.16022809536238" lon="11.153104191272492"><ele>276.0</ele><time>2026-04-26T15:34:30.999Z</time></trkpt><trkpt lat="43.160100134343814" lon="11.152943913289246"><ele>276.0</ele><time>2026-04-26T15:34:31.999Z</time></trkpt><trkpt lat="43.159981039127786" lon="11.152763406962025"><ele>276.0</ele><time>2026-04-26T15:34:32.998Z</time></trkpt><trkpt lat="43.15986448874851" lon="11.152563455441456"><ele>276.0</ele><time>2026-04-26T15:34:33.998Z</time></trkpt><trkpt lat="43.15974622960971" lon="11.152354989284252"><ele>274.3333333333333</ele><time>2026-04-26T15:34:34.998Z</time></trkpt><trkpt lat="43.15963588403974" lon="11.152140265915834"><ele>272.66666666666663</ele><time>2026-04-26T15:34:35.998Z</time></trkpt><trkpt lat="43.15950230056147" lon="11.15193466092466"><ele>271.0</ele><time>2026-04-26T15:34:36.998Z</time></trkpt><trkpt lat="43.159348369695984" lon="11.15175771104378"><ele>271.0</ele><time>2026-04-26T15:34:37.998Z</time></trkpt><trkpt lat="43.159175481418075" lon="11.151630469590382"><ele>271.0</ele><time>2026-04-26T15:34:38.998Z</time></trkpt><trkpt lat="43.15897445156652" lon="11.151561619206504"><ele>271.0</ele><time>2026-04-26T15:34:39.998Z</time></trkpt><trkpt lat="43.158760555244896" lon="11.151532740041436"><ele>271.0</ele><time>2026-04-26T15:34:40.998Z</time></trkpt><trkpt lat="43.15854670682375" lon="11.15150880481894"><ele>271.0</ele><time>2026-04-26T15:34:41.998Z</time></trkpt><trkpt lat="43.158335041832444" lon="11.151470573486138"><ele>271.0</ele><time>2026-04-26T15:34:42.998Z</time></trkpt><trkpt lat="43.1581204844415" lon="11.151438357723938"><ele>271.0</ele><time>2026-04-26T15:34:43.998Z</time></trkpt><trkpt lat="43.157900264572916" lon="11.151414206191724"><ele>271.0</ele><time>2026-04-26T15:34:44.998Z</time></trkpt><trkpt lat="43.15767614469944" lon="11.151377865936531"><ele>271.0</ele><time>2026-04-26T15:34:45.998Z</time></trkpt><trkpt lat="43.15745377333337" lon="11.151338646793242"><ele>271.66666666666663</ele><time>2026-04-26T15:34:46.998Z</time></trkpt><trkpt lat="43.15724027942569" lon="11.15129594394683"><ele>272.3333333333333</ele><time>2026-04-26T15:34:47.998Z</time></trkpt><trkpt lat="43.15703960094498" lon="11.151246936362087"><ele>273.0</ele><time>2026-04-26T15:34:48.998Z</time></trkpt><trkpt lat="43.15684685818221" lon="11.151186945250998"><ele>273.0</ele><time>2026-04-26T15:34:49.998Z</time></trkpt><trkpt lat="43.15667687894626" lon="11.151100596890393"><ele>273.0</ele><time>2026-04-26T15:34:50.998Z</time></trkpt><trkpt lat="43.15652984629004" lon="11.150987213368728"><ele>273.0</ele><time>2026-04-26T15:34:51.998Z</time></trkpt><trkpt lat="43.15640873491634" lon="11.150832170206373"><ele>276.3333333333333</ele><time>2026-04-26T15:34:52.998Z</time></trkpt><trkpt lat="43.156308823115516" lon="11.150648998317964"><ele>279.66666666666663</ele><time>2026-04-26T15:34:53.998Z</time></trkpt><trkpt lat="43.156240571772145" lon="11.150419339803888"><ele>283.0</ele><time>2026-04-26T15:34:54.998Z</time></trkpt><trkpt lat="43.15614660468173" lon="11.150177531379164"><ele>283.0</ele><time>2026-04-26T15:34:55.998Z</time></trkpt><trkpt lat="43.15605221435548" lon="11.149953142906437"><ele>283.0</ele><time>2026-04-26T15:34:56.998Z</time></trkpt><trkpt lat="43.15594525713922" lon="11.149737136489138"><ele>283.0</ele><time>2026-04-26T15:34:57.998Z</time></trkpt><trkpt lat="43.15581878115235" lon="11.149537340248518"><ele>283.0</ele><time>2026-04-26T15:34:58.998Z</time></trkpt><trkpt lat="43.155660858187694" lon="11.149385145576137"><ele>283.0</ele><time>2026-04-26T15:34:59.998Z</time></trkpt><trkpt lat="43.15548028227307" lon="11.149298922116454"><ele>283.0</ele><time>2026-04-26T15:35:00.998Z</time></trkpt><trkpt lat="43.15528600149156" lon="11.14927357685589"><ele>283.0</ele><time>2026-04-26T15:35:01.998Z</time></trkpt><trkpt lat="43.15508488251101" lon="11.149290644382644"><ele>283.0</ele><time>2026-04-26T15:35:02.998Z</time></trkpt><trkpt lat="43.1548741012489" lon="11.149297065086426"><ele>283.0</ele><time>2026-04-26T15:35:03.998Z</time></trkpt><trkpt lat="43.15467381817191" lon="11.149296849651467"><ele>283.66666666666663</ele><time>2026-04-26T15:35:04.998Z</time></trkpt><trkpt lat="43.15447440452267" lon="11.149292676604238"><ele>284.3333333333333</ele><time>2026-04-26T15:35:05.998Z</time></trkpt><trkpt lat="43.154269064456166" lon="11.14928763712446"><ele>285.0</ele><time>2026-04-26T15:35:06.998Z</time></trkpt><trkpt lat="43.15406193935994" lon="11.14929127116279"><ele>285.6666666666667</ele><time>2026-04-26T15:35:07.998Z</time></trkpt><trkpt lat="43.15385468210651" lon="11.149294759841272"><ele>286.33333333333337</ele><time>2026-04-26T15:35:08.998Z</time></trkpt><trkpt lat="43.15364789031981" lon="11.14929599787457"><ele>287.0</ele><time>2026-04-26T15:35:09.998Z</time></trkpt><trkpt lat="43.153442633249824" lon="11.149298047704242"><ele>287.0</ele><time>2026-04-26T15:35:10.998Z</time></trkpt><trkpt lat="43.15323386311951" lon="11.149304902599889"><ele>287.0</ele><time>2026-04-26T15:35:11.998Z</time></trkpt><trkpt lat="43.153029970453716" lon="11.149312197357743"><ele>287.0</ele><time>2026-04-26T15:35:12.998Z</time></trkpt><trkpt lat="43.15282820183757" lon="11.14931081248256"><ele>288.33333333333337</ele><time>2026-04-26T15:35:13.998Z</time></trkpt><trkpt lat="43.15263186772301" lon="11.14930273559206"><ele>289.6666666666667</ele><time>2026-04-26T15:35:14.998Z</time></trkpt><trkpt lat="43.15244584085273" lon="11.149277534152063"><ele>291.0</ele><time>2026-04-26T15:35:15.998Z</time></trkpt><trkpt lat="43.15226905707349" lon="11.149216639731359"><ele>290.6666666666667</ele><time>2026-04-26T15:35:16.998Z</time></trkpt><trkpt lat="43.152103320875874" lon="11.14911115896829"><ele>290.33333333333337</ele><time>2026-04-26T15:35:17.998Z</time></trkpt><trkpt lat="43.15193913084695" lon="11.148978779727308"><ele>290.0</ele><time>2026-04-26T15:35:18.998Z</time></trkpt><trkpt lat="43.15176670178933" lon="11.148891300731421"><ele>290.0</ele><time>2026-04-26T15:35:19.998Z</time></trkpt><trkpt lat="43.15158443846937" lon="11.148842839164093"><ele>290.0</ele><time>2026-04-26T15:35:20.998Z</time></trkpt><trkpt lat="43.1514016096523" lon="11.14882973394094"><ele>290.0</ele><time>2026-04-26T15:35:21.998Z</time></trkpt><trkpt lat="43.15122869901255" lon="11.148815987745122"><ele>293.0</ele><time>2026-04-26T15:35:22.998Z</time></trkpt><trkpt lat="43.151067531402944" lon="11.148750116825338"><ele>296.0</ele><time>2026-04-26T15:35:24Z</time></trkpt><trkpt lat="43.1509178249373" lon="11.148640102744427"><ele>299.0</ele><time>2026-04-26T15:35:25Z</time></trkpt><trkpt lat="43.150779685869885" lon="11.148491007121851"><ele>299.33333333333337</ele><time>2026-04-26T15:35:26Z</time></trkpt><trkpt lat="43.15066249701745" lon="11.148306724354544"><ele>299.6666666666667</ele><time>2026-04-26T15:35:27Z</time></trkpt><trkpt lat="43.150539781186225" lon="11.14811549363172"><ele>300.0</ele><time>2026-04-26T15:35:28Z</time></trkpt><trkpt lat="43.15040302444556" lon="11.14792971474184"><ele>300.3333333333333</ele><time>2026-04-26T15:35:29Z</time></trkpt><trkpt lat="43.15027293759947" lon="11.147723038456892"><ele>300.66666666666663</ele><time>2026-04-26T15:35:30Z</time></trkpt><trkpt lat="43.15013629521402" lon="11.14752310674633"><ele>301.0</ele><time>2026-04-26T15:35:31Z</time></trkpt><trkpt lat="43.14999661113205" lon="11.147320632350208"><ele>302.0</ele><time>2026-04-26T15:35:32Z</time></trkpt><trkpt lat="43.14984383030083" lon="11.147123036453273"><ele>303.0</ele><time>2026-04-26T15:35:33Z</time></trkpt><trkpt lat="43.149680478359905" lon="11.14693833930746"><ele>304.0</ele><time>2026-04-26T15:35:34Z</time></trkpt><trkpt lat="43.14951053765318" lon="11.14676730334779"><ele>304.0</ele><time>2026-04-26T15:35:35Z</time></trkpt><trkpt lat="43.14933937042351" lon="11.146589959875792"><ele>304.0</ele><time>2026-04-26T15:35:36Z</time></trkpt><trkpt lat="43.14916784156966" lon="11.146403200407557"><ele>304.0</ele><time>2026-04-26T15:35:37Z</time></trkpt><trkpt lat="43.14899389149968" lon="11.146215098930286"><ele>304.3333333333333</ele><time>2026-04-26T15:35:38Z</time></trkpt><trkpt lat="43.14881909562292" lon="11.146027124989821"><ele>304.6666666666667</ele><time>2026-04-26T15:35:39Z</time></trkpt><trkpt lat="43.14864440227055" lon="11.145841210092309"><ele>305.0</ele><time>2026-04-26T15:35:40Z</time></trkpt><trkpt lat="43.14846707217063" lon="11.14565569538208"><ele>305.5</ele><time>2026-04-26T15:35:41Z</time></trkpt><trkpt lat="43.14828478956706" lon="11.145469124924594"><ele>306.0</ele><time>2026-04-26T15:35:42Z</time></trkpt><trkpt lat="43.14810743159503" lon="11.145284431365223"><ele>305.0</ele><time>2026-04-26T15:35:43Z</time></trkpt><trkpt lat="43.1479293214444" lon="11.145097146861504"><ele>304.0</ele><time>2026-04-26T15:35:43.999Z</time></trkpt><trkpt lat="43.14775410808231" lon="11.144902169579186"><ele>304.0</ele><time>2026-04-26T15:35:44.999Z</time></trkpt><trkpt lat="43.147579434412755" lon="11.144704965122814"><ele>304.0</ele><time>2026-04-26T15:35:45.999Z</time></trkpt><trkpt lat="43.14739580131802" lon="11.14452926965183"><ele>305.5</ele><time>2026-04-26T15:35:46.999Z</time></trkpt><trkpt lat="43.1472161954159" lon="11.144342346847916"><ele>307.0</ele><time>2026-04-26T15:35:47.999Z</time></trkpt><trkpt lat="43.1470381496894" lon="11.1441480165766"><ele>306.5</ele><time>2026-04-26T15:35:48.999Z</time></trkpt><trkpt lat="43.14686278596057" lon="11.14395631191543"><ele>306.0</ele><time>2026-04-26T15:35:49.999Z</time></trkpt><trkpt lat="43.14668181704405" lon="11.143770222266863"><ele>307.3333333333333</ele><time>2026-04-26T15:35:50.999Z</time></trkpt><trkpt lat="43.14650017144564" lon="11.14359049813473"><ele>308.66666666666663</ele><time>2026-04-26T15:35:51.999Z</time></trkpt><trkpt lat="43.14632956144739" lon="11.143413357243604"><ele>310.0</ele><time>2026-04-26T15:35:52.999Z</time></trkpt><trkpt lat="43.1461692482938" lon="11.143234600538351"><ele>310.0</ele><time>2026-04-26T15:35:53.999Z</time></trkpt><trkpt lat="43.146019247297176" lon="11.14305359993154"><ele>310.0</ele><time>2026-04-26T15:35:54.999Z</time></trkpt><trkpt lat="43.14589583685261" lon="11.142849334298768"><ele>310.0</ele><time>2026-04-26T15:35:55.999Z</time></trkpt><trkpt lat="43.145792842294746" lon="11.142621360265846"><ele>310.0</ele><time>2026-04-26T15:35:56.999Z</time></trkpt><trkpt lat="43.14572724417242" lon="11.142363294419006"><ele>310.0</ele><time>2026-04-26T15:35:57.999Z</time></trkpt><trkpt lat="43.145679186628556" lon="11.142088143568484"><ele>310.0</ele><time>2026-04-26T15:35:58.999Z</time></trkpt><trkpt lat="43.145640219606115" lon="11.141806300547378"><ele>313.0</ele><time>2026-04-26T15:35:59.999Z</time></trkpt><trkpt lat="43.14560205271585" lon="11.141522826695587"><ele>316.0</ele><time>2026-04-26T15:36:00.999Z</time></trkpt><trkpt lat="43.145555023157996" lon="11.141235279825148"><ele>319.0</ele><time>2026-04-26T15:36:01.999Z</time></trkpt><trkpt lat="43.14550493061608" lon="11.1409474277529"><ele>318.66666666666663</ele><time>2026-04-26T15:36:02.999Z</time></trkpt><trkpt lat="43.14547411789087" lon="11.140653943833012"><ele>318.3333333333333</ele><time>2026-04-26T15:36:03.999Z</time></trkpt><trkpt lat="43.145435711676946" lon="11.140361554878321"><ele>318.0</ele><time>2026-04-26T15:36:04.999Z</time></trkpt><trkpt lat="43.14539899180005" lon="11.140082318036793"><ele>317.6666666666667</ele><time>2026-04-26T15:36:05.999Z</time></trkpt><trkpt lat="43.145364365297674" lon="11.139807987578825"><ele>317.33333333333337</ele><time>2026-04-26T15:36:06.999Z</time></trkpt><trkpt lat="43.14532784052198" lon="11.139543465220004"><ele>317.0</ele><time>2026-04-26T15:36:07.999Z</time></trkpt><trkpt lat="43.14528840936406" lon="11.139287240045899"><ele>316.6666666666667</ele><time>2026-04-26T15:36:08.999Z</time></trkpt><trkpt lat="43.14523798805329" lon="11.139040944353502"><ele>316.3333333333333</ele><time>2026-04-26T15:36:09.999Z</time></trkpt><trkpt lat="43.145165228305665" lon="11.138794194595077"><ele>316.0</ele><time>2026-04-26T15:36:10.999Z</time></trkpt><trkpt lat="43.145072862564085" lon="11.138551155231973"><ele>316.0</ele><time>2026-04-26T15:36:11.999Z</time></trkpt><trkpt lat="43.14497480037892" lon="11.1383106900397"><ele>316.0</ele><time>2026-04-26T15:36:12.999Z</time></trkpt><trkpt lat="43.14487029081875" lon="11.138072080464285"><ele>316.0</ele><time>2026-04-26T15:36:13.999Z</time></trkpt><trkpt lat="43.144780137945865" lon="11.137843934386341"><ele>318.0</ele><time>2026-04-26T15:36:14.999Z</time></trkpt><trkpt lat="43.144702416066686" lon="11.137622119473264"><ele>320.0</ele><time>2026-04-26T15:36:15.999Z</time></trkpt><trkpt lat="43.144641656108476" lon="11.137381352402574"><ele>322.0</ele><time>2026-04-26T15:36:16.999Z</time></trkpt><trkpt lat="43.14459811042421" lon="11.137112376797303"><ele>322.3333333333333</ele><time>2026-04-26T15:36:17.999Z</time></trkpt><trkpt lat="43.14456151429632" lon="11.136834922105276"><ele>322.6666666666667</ele><time>2026-04-26T15:36:18.999Z</time></trkpt><trkpt lat="43.1445254064667" lon="11.136547867806902"><ele>323.0</ele><time>2026-04-26T15:36:19.999Z</time></trkpt><trkpt lat="43.14448680649881" lon="11.13625702878023"><ele>323.0</ele><time>2026-04-26T15:36:20.999Z</time></trkpt><trkpt lat="43.14444346875463" lon="11.135960447640057"><ele>323.0</ele><time>2026-04-26T15:36:21.999Z</time></trkpt><trkpt lat="43.14440137550125" lon="11.135656262681229"><ele>323.0</ele><time>2026-04-26T15:36:22.999Z</time></trkpt><trkpt lat="43.144362991948654" lon="11.135352456545204"><ele>322.5</ele><time>2026-04-26T15:36:23.999Z</time></trkpt><trkpt lat="43.144323337001104" lon="11.135045400566428"><ele>322.0</ele><time>2026-04-26T15:36:24.999Z</time></trkpt><trkpt lat="43.144282742279394" lon="11.134733707017789"><ele>323.0</ele><time>2026-04-26T15:36:25.999Z</time></trkpt><trkpt lat="43.144243965671684" lon="11.134425158195423"><ele>324.0</ele><time>2026-04-26T15:36:26.999Z</time></trkpt><trkpt lat="43.14420626245859" lon="11.134115653773163"><ele>324.6666666666667</ele><time>2026-04-26T15:36:27.999Z</time></trkpt><trkpt lat="43.14416847592927" lon="11.1338109927217"><ele>325.33333333333337</ele><time>2026-04-26T15:36:28.999Z</time></trkpt><trkpt lat="43.144129483845234" lon="11.133512310279702"><ele>326.0</ele><time>2026-04-26T15:36:29.999Z</time></trkpt><trkpt lat="43.144095674928366" lon="11.133215912413199"><ele>326.0</ele><time>2026-04-26T15:36:30.999Z</time></trkpt><trkpt lat="43.144059566579884" lon="11.132920768718478"><ele>326.0</ele><time>2026-04-26T15:36:31.999Z</time></trkpt><trkpt lat="43.14402293867507" lon="11.132626981040056"><ele>326.0</ele><time>2026-04-26T15:36:32.999Z</time></trkpt><trkpt lat="43.143985296196156" lon="11.132333095086015"><ele>327.6666666666667</ele><time>2026-04-26T15:36:33.999Z</time></trkpt><trkpt lat="43.1439492014831" lon="11.132037576759384"><ele>329.3333333333333</ele><time>2026-04-26T15:36:34.999Z</time></trkpt><trkpt lat="43.143914018956664" lon="11.131741723523673"><ele>331.0</ele><time>2026-04-26T15:36:35.999Z</time></trkpt><trkpt lat="43.14387779820639" lon="11.131444775334922"><ele>331.66666666666663</ele><time>2026-04-26T15:36:36.999Z</time></trkpt><trkpt lat="43.14383783452219" lon="11.131149531169395"><ele>332.3333333333333</ele><time>2026-04-26T15:36:37.998Z</time></trkpt><trkpt lat="43.14379422852274" lon="11.130852599861047"><ele>333.0</ele><time>2026-04-26T15:36:38.998Z</time></trkpt><trkpt lat="43.143751393993085" lon="11.130552941868382"><ele>333.0</ele><time>2026-04-26T15:36:39.998Z</time></trkpt><trkpt lat="43.143707736130374" lon="11.130251479971758"><ele>333.0</ele><time>2026-04-26T15:36:40.998Z</time></trkpt><trkpt lat="43.14366185289536" lon="11.129948380887068"><ele>333.5</ele><time>2026-04-26T15:36:41.998Z</time></trkpt><trkpt lat="43.14361406813" lon="11.12964517438562"><ele>334.0</ele><time>2026-04-26T15:36:42.998Z</time></trkpt><trkpt lat="43.14356667563752" lon="11.129339399326831"><ele>334.5</ele><time>2026-04-26T15:36:43.998Z</time></trkpt><trkpt lat="43.143520101346205" lon="11.12903295271748"><ele>335.0</ele><time>2026-04-26T15:36:44.998Z</time></trkpt><trkpt lat="43.14347230224662" lon="11.128726957201522"><ele>335.0</ele><time>2026-04-26T15:36:45.998Z</time></trkpt><trkpt lat="43.143424577098855" lon="11.128421691700757"><ele>335.0</ele><time>2026-04-26T15:36:46.998Z</time></trkpt><trkpt lat="43.143375698074315" lon="11.128122390974033"><ele>335.0</ele><time>2026-04-26T15:36:47.998Z</time></trkpt><trkpt lat="43.14333072857401" lon="11.127825982634487"><ele>335.0</ele><time>2026-04-26T15:36:48.998Z</time></trkpt><trkpt lat="43.14328698586788" lon="11.1275327335425"><ele>335.0</ele><time>2026-04-26T15:36:49.998Z</time></trkpt><trkpt lat="43.143241984018616" lon="11.127245104567965"><ele>335.33333333333337</ele><time>2026-04-26T15:36:50.998Z</time></trkpt><trkpt lat="43.143199459872314" lon="11.126966608476152"><ele>335.6666666666667</ele><time>2026-04-26T15:36:51.998Z</time></trkpt><trkpt lat="43.143155942748315" lon="11.126695662086062"><ele>336.0</ele><time>2026-04-26T15:36:52.998Z</time></trkpt><trkpt lat="43.14311241292815" lon="11.126432894546411"><ele>337.3333333333333</ele><time>2026-04-26T15:36:53.998Z</time></trkpt><trkpt lat="43.14307454664432" lon="11.126177513759666"><ele>338.66666666666663</ele><time>2026-04-26T15:36:54.998Z</time></trkpt><trkpt lat="43.14303542977541" lon="11.125937523782234"><ele>340.0</ele><time>2026-04-26T15:36:55.998Z</time></trkpt><trkpt lat="43.143000506686704" lon="11.125712300474756"><ele>340.0</ele><time>2026-04-26T15:36:56.998Z</time></trkpt><trkpt lat="43.142969657442634" lon="11.125502435861808"><ele>340.0</ele><time>2026-04-26T15:36:57.998Z</time></trkpt><trkpt lat="43.142941176152554" lon="11.12530395016134"><ele>340.0</ele><time>2026-04-26T15:36:58.998Z</time></trkpt><trkpt lat="43.14291215399424" lon="11.12510839559729"><ele>340.0</ele><time>2026-04-26T15:36:59.998Z</time></trkpt><trkpt lat="43.1428788705903" lon="11.124919716126893"><ele>340.0</ele><time>2026-04-26T15:37:00.998Z</time></trkpt><trkpt lat="43.14284708764218" lon="11.124721775414384"><ele>340.0</ele><time>2026-04-26T15:37:01.998Z</time></trkpt><trkpt lat="43.14281619411804" lon="11.12452582273946"><ele>340.0</ele><time>2026-04-26T15:37:02.998Z</time></trkpt><trkpt lat="43.14278552373987" lon="11.124322422524797"><ele>340.0</ele><time>2026-04-26T15:37:03.998Z</time></trkpt><trkpt lat="43.142740389762636" lon="11.124112660652985"><ele>341.0</ele><time>2026-04-26T15:37:04.998Z</time></trkpt><trkpt lat="43.14271258635751" lon="11.123883192464527"><ele>342.0</ele><time>2026-04-26T15:37:05.998Z</time></trkpt><trkpt lat="43.14266777091467" lon="11.123651284601543"><ele>343.0</ele><time>2026-04-26T15:37:06.998Z</time></trkpt><trkpt lat="43.1426187119179" lon="11.123413182424269"><ele>343.3333333333333</ele><time>2026-04-26T15:37:07.998Z</time></trkpt><trkpt lat="43.142554939140155" lon="11.123179801637436"><ele>343.6666666666667</ele><time>2026-04-26T15:37:08.998Z</time></trkpt><trkpt lat="43.142520386414944" lon="11.122940327490895"><ele>344.0</ele><time>2026-04-26T15:37:09.998Z</time></trkpt><trkpt lat="43.14247486280302" lon="11.12271263380584"><ele>344.0</ele><time>2026-04-26T15:37:10.998Z</time></trkpt><trkpt lat="43.14242649153612" lon="11.122484801326765"><ele>344.0</ele><time>2026-04-26T15:37:11.998Z</time></trkpt><trkpt lat="43.142376951021596" lon="11.12226244678922"><ele>344.0</ele><time>2026-04-26T15:37:12.998Z</time></trkpt><trkpt lat="43.142338780983074" lon="11.122043749772152"><ele>342.5</ele><time>2026-04-26T15:37:13.998Z</time></trkpt><trkpt lat="43.14233155275982" lon="11.12183790853097"><ele>341.0</ele><time>2026-04-26T15:37:14.998Z</time></trkpt><trkpt lat="43.14235845865684" lon="11.121645076884644"><ele>339.5</ele><time>2026-04-26T15:37:15.998Z</time></trkpt><trkpt lat="43.1424172686443" lon="11.121457059707666"><ele>338.0</ele><time>2026-04-26T15:37:16.998Z</time></trkpt><trkpt lat="43.14248582690429" lon="11.121265914567406"><ele>338.0</ele><time>2026-04-26T15:37:17.998Z</time></trkpt><trkpt lat="43.14255078105" lon="11.121052760029132"><ele>338.0</ele><time>2026-04-26T15:37:18.998Z</time></trkpt><trkpt lat="43.14260776260843" lon="11.120839288291776"><ele>338.0</ele><time>2026-04-26T15:37:19.998Z</time></trkpt><trkpt lat="43.14264212546846" lon="11.120633881427006"><ele>339.0</ele><time>2026-04-26T15:37:20.998Z</time></trkpt><trkpt lat="43.142631510033894" lon="11.12042763465336"><ele>340.0</ele><time>2026-04-26T15:37:21.998Z</time></trkpt><trkpt lat="43.14258758445297" lon="11.120214353421048"><ele>341.0</ele><time>2026-04-26T15:37:22.998Z</time></trkpt><trkpt lat="43.14250258065251" lon="11.120020624478931"><ele>342.0</ele><time>2026-04-26T15:37:23.998Z</time></trkpt><trkpt lat="43.14239641550519" lon="11.11984662535001"><ele>343.0</ele><time>2026-04-26T15:37:24.998Z</time></trkpt><trkpt lat="43.14230310298534" lon="11.11965287573471"><ele>344.0</ele><time>2026-04-26T15:37:25.998Z</time></trkpt><trkpt lat="43.14223295161794" lon="11.11945845198344"><ele>341.6666666666667</ele><time>2026-04-26T15:37:26.998Z</time></trkpt><trkpt lat="43.14219926868649" lon="11.119246286418011"><ele>339.3333333333333</ele><time>2026-04-26T15:37:27.998Z</time></trkpt><trkpt lat="43.14222254992583" lon="11.119050268944749"><ele>337.0</ele><time>2026-04-26T15:37:28.998Z</time></trkpt><trkpt lat="43.14227487956676" lon="11.118842771728843"><ele>337.0</ele><time>2026-04-26T15:37:30Z</time></trkpt><trkpt lat="43.142340387100866" lon="11.118630383069751"><ele>337.0</ele><time>2026-04-26T15:37:31Z</time></trkpt><trkpt lat="43.14240486028081" lon="11.118413676220413"><ele>337.0</ele><time>2026-04-26T15:37:32Z</time></trkpt><trkpt lat="43.14249537300374" lon="11.118205640701085"><ele>339.0</ele><time>2026-04-26T15:37:33Z</time></trkpt><trkpt lat="43.14256003396466" lon="11.117960450807608"><ele>341.0</ele><time>2026-04-26T15:37:34Z</time></trkpt><trkpt lat="43.14257421618773" lon="11.11770251581293"><ele>343.0</ele><time>2026-04-26T15:37:35Z</time></trkpt><trkpt lat="43.14256636494987" lon="11.117442692492018"><ele>343.66666666666663</ele><time>2026-04-26T15:37:36Z</time></trkpt><trkpt lat="43.14253265144045" lon="11.117187482468584"><ele>344.3333333333333</ele><time>2026-04-26T15:37:37Z</time></trkpt><trkpt lat="43.14248116136514" lon="11.116924707460672"><ele>345.0</ele><time>2026-04-26T15:37:38Z</time></trkpt><trkpt lat="43.14242042550643" lon="11.116658389923279"><ele>344.0</ele><time>2026-04-26T15:37:39Z</time></trkpt><trkpt lat="43.14236374515108" lon="11.116396933627277"><ele>343.0</ele><time>2026-04-26T15:37:40Z</time></trkpt><trkpt lat="43.14230978846571" lon="11.116131810135265"><ele>342.0</ele><time>2026-04-26T15:37:41Z</time></trkpt><trkpt lat="43.142254032741" lon="11.115858998023995"><ele>342.3333333333333</ele><time>2026-04-26T15:37:42Z</time></trkpt><trkpt lat="43.14219260640492" lon="11.11558802474618"><ele>342.66666666666663</ele><time>2026-04-26T15:37:43Z</time></trkpt><trkpt lat="43.142124433054924" lon="11.11531598373513"><ele>343.0</ele><time>2026-04-26T15:37:44Z</time></trkpt><trkpt lat="43.142059590949" lon="11.115040043868984"><ele>343.0</ele><time>2026-04-26T15:37:45Z</time></trkpt><trkpt lat="43.14200173503066" lon="11.114762946434324"><ele>343.0</ele><time>2026-04-26T15:37:46Z</time></trkpt><trkpt lat="43.14195657023364" lon="11.114479282315427"><ele>343.0</ele><time>2026-04-26T15:37:47Z</time></trkpt><trkpt lat="43.14192069667184" lon="11.1141901684647"><ele>343.0</ele><time>2026-04-26T15:37:48Z</time></trkpt><trkpt lat="43.141889215637576" lon="11.113892504218631"><ele>343.0</ele><time>2026-04-26T15:37:49Z</time></trkpt><trkpt lat="43.141856098630875" lon="11.113591606159021"><ele>343.0</ele><time>2026-04-26T15:37:50Z</time></trkpt><trkpt lat="43.14182057460518" lon="11.113290319201774"><ele>342.0</ele><time>2026-04-26T15:37:51Z</time></trkpt><trkpt lat="43.141803688987174" lon="11.112992883614446"><ele>341.0</ele><time>2026-04-26T15:37:52Z</time></trkpt><trkpt lat="43.14177339120033" lon="11.112709185988017"><ele>340.0</ele><time>2026-04-26T15:37:52.999Z</time></trkpt><trkpt lat="43.14174315999528" lon="11.11243354572343"><ele>339.66666666666663</ele><time>2026-04-26T15:37:53.999Z</time></trkpt><trkpt lat="43.141714817392966" lon="11.112172175998392"><ele>339.3333333333333</ele><time>2026-04-26T15:37:54.999Z</time></trkpt><trkpt lat="43.141692766772096" lon="11.111915273940264"><ele>339.0</ele><time>2026-04-26T15:37:55.999Z</time></trkpt><trkpt lat="43.14166068478161" lon="11.11166249700661"><ele>339.0</ele><time>2026-04-26T15:37:56.999Z</time></trkpt><trkpt lat="43.14165503648684" lon="11.11140741499849"><ele>339.0</ele><time>2026-04-26T15:37:57.999Z</time></trkpt><trkpt lat="43.141674535971354" lon="11.111147576104182"><ele>339.0</ele><time>2026-04-26T15:37:58.999Z</time></trkpt><trkpt lat="43.14166849724424" lon="11.110879353380565"><ele>339.3333333333333</ele><time>2026-04-26T15:37:59.999Z</time></trkpt><trkpt lat="43.14170583679345" lon="11.110617722039011"><ele>339.66666666666663</ele><time>2026-04-26T15:38:00.999Z</time></trkpt><trkpt lat="43.14174033349147" lon="11.110365539926452"><ele>340.0</ele><time>2026-04-26T15:38:01.999Z</time></trkpt><trkpt lat="43.14178403195106" lon="11.110114885343922"><ele>340.3333333333333</ele><time>2026-04-26T15:38:02.999Z</time></trkpt><trkpt lat="43.141841813675015" lon="11.109869277773553"><ele>340.6666666666667</ele><time>2026-04-26T15:38:03.999Z</time></trkpt><trkpt lat="43.14191517446631" lon="11.10960430860501"><ele>341.0</ele><time>2026-04-26T15:38:04.999Z</time></trkpt><trkpt lat="43.1419768522422" lon="11.109342705583465"><ele>341.6666666666667</ele><time>2026-04-26T15:38:05.999Z</time></trkpt><trkpt lat="43.142021734027466" lon="11.109069055950915"><ele>342.3333333333333</ele><time>2026-04-26T15:38:06.999Z</time></trkpt><trkpt lat="43.14203781004016" lon="11.10878304882262"><ele>343.0</ele><time>2026-04-26T15:38:07.999Z</time></trkpt><trkpt lat="43.14203608467769" lon="11.108489901837483"><ele>343.3333333333333</ele><time>2026-04-26T15:38:08.999Z</time></trkpt><trkpt lat="43.14202352013007" lon="11.108191820239016"><ele>343.6666666666667</ele><time>2026-04-26T15:38:09.999Z</time></trkpt><trkpt lat="43.14200642964514" lon="11.107898086655064"><ele>344.0</ele><time>2026-04-26T15:38:10.999Z</time></trkpt><trkpt lat="43.14197352696976" lon="11.107606929585987"><ele>344.6666666666667</ele><time>2026-04-26T15:38:11.999Z</time></trkpt><trkpt lat="43.14196283346768" lon="11.10731417266818"><ele>345.3333333333333</ele><time>2026-04-26T15:38:12.999Z</time></trkpt><trkpt lat="43.14194011039382" lon="11.107031682349296"><ele>346.0</ele><time>2026-04-26T15:38:13.999Z</time></trkpt><trkpt lat="43.14191765474132" lon="11.106749360144057"><ele>346.66666666666663</ele><time>2026-04-26T15:38:14.999Z</time></trkpt><trkpt lat="43.14190327263023" lon="11.10646272666754"><ele>347.3333333333333</ele><time>2026-04-26T15:38:15.999Z</time></trkpt><trkpt lat="43.14190501847603" lon="11.106174087886146"><ele>348.0</ele><time>2026-04-26T15:38:16.999Z</time></trkpt><trkpt lat="43.14193081782516" lon="11.105876702694157"><ele>348.0</ele><time>2026-04-26T15:38:17.999Z</time></trkpt><trkpt lat="43.14197741208258" lon="11.10558448056682"><ele>348.0</ele><time>2026-04-26T15:38:18.999Z</time></trkpt><trkpt lat="43.14204157005189" lon="11.105293087043849"><ele>348.0</ele><time>2026-04-26T15:38:19.999Z</time></trkpt><trkpt lat="43.14211493878095" lon="11.104999144931204"><ele>348.5</ele><time>2026-04-26T15:38:20.999Z</time></trkpt><trkpt lat="43.14218820134529" lon="11.1047033527082"><ele>349.0</ele><time>2026-04-26T15:38:21.999Z</time></trkpt><trkpt lat="43.14225849834928" lon="11.104408642973153"><ele>349.0</ele><time>2026-04-26T15:38:22.999Z</time></trkpt><trkpt lat="43.142326825501215" lon="11.104123096590602"><ele>349.0</ele><time>2026-04-26T15:38:23.999Z</time></trkpt><trkpt lat="43.14239766628988" lon="11.10384793714352"><ele>349.0</ele><time>2026-04-26T15:38:24.999Z</time></trkpt><trkpt lat="43.14247214672769" lon="11.103581743056788"><ele>349.0</ele><time>2026-04-26T15:38:25.999Z</time></trkpt><trkpt lat="43.142551386618614" lon="11.103337524060088"><ele>349.0</ele><time>2026-04-26T15:38:26.999Z</time></trkpt><trkpt lat="43.142648186328785" lon="11.103125149148882"><ele>349.0</ele><time>2026-04-26T15:38:27.999Z</time></trkpt><trkpt lat="43.14276820747994" lon="11.102937125349492"><ele>348.0</ele><time>2026-04-26T15:38:28.999Z</time></trkpt><trkpt lat="43.142908458629115" lon="11.102791431563563"><ele>347.0</ele><time>2026-04-26T15:38:29.999Z</time></trkpt><trkpt lat="43.14306514929519" lon="11.102682447249984"><ele>346.0</ele><time>2026-04-26T15:38:30.999Z</time></trkpt><trkpt lat="43.14322939347889" lon="11.102604729256635"><ele>345.3333333333333</ele><time>2026-04-26T15:38:31.999Z</time></trkpt><trkpt lat="43.14341945215194" lon="11.102558650967916"><ele>344.6666666666667</ele><time>2026-04-26T15:38:32.999Z</time></trkpt><trkpt lat="43.14359484041273" lon="11.10251028477947"><ele>344.0</ele><time>2026-04-26T15:38:33.999Z</time></trkpt><trkpt lat="43.143741975055505" lon="11.102398914634074"><ele>341.6666666666667</ele><time>2026-04-26T15:38:34.999Z</time></trkpt><trkpt lat="43.14387111034519" lon="11.10225781863923"><ele>339.3333333333333</ele><time>2026-04-26T15:38:35.999Z</time></trkpt><trkpt lat="43.14396066753313" lon="11.102091775360789"><ele>337.0</ele><time>2026-04-26T15:38:36.999Z</time></trkpt><trkpt lat="43.14399717738256" lon="11.101894152805224"><ele>337.0</ele><time>2026-04-26T15:38:37.999Z</time></trkpt><trkpt lat="43.14399241828803" lon="11.101685829844744"><ele>337.0</ele><time>2026-04-26T15:38:38.999Z</time></trkpt><trkpt lat="43.14395585030651" lon="11.101483165373555"><ele>337.0</ele><time>2026-04-26T15:38:39.999Z</time></trkpt><trkpt lat="43.14393226238465" lon="11.10125977735318"><ele>336.3333333333333</ele><time>2026-04-26T15:38:40.999Z</time></trkpt><trkpt lat="43.14396081677543" lon="11.101066609051049"><ele>335.6666666666667</ele><time>2026-04-26T15:38:41.999Z</time></trkpt><trkpt lat="43.144027617977194" lon="11.100834078401808"><ele>335.0</ele><time>2026-04-26T15:38:42.999Z</time></trkpt><trkpt lat="43.14409992665321" lon="11.100610546962372"><ele>335.33333333333337</ele><time>2026-04-26T15:38:43.999Z</time></trkpt><trkpt lat="43.144141718124175" lon="11.100368962574235"><ele>335.6666666666667</ele><time>2026-04-26T15:38:44.999Z</time></trkpt><trkpt lat="43.14421193896179" lon="11.100115072693077"><ele>336.0</ele><time>2026-04-26T15:38:45.999Z</time></trkpt><trkpt lat="43.144282977575344" lon="11.099847120020502"><ele>336.0</ele><time>2026-04-26T15:38:46.998Z</time></trkpt><trkpt lat="43.14436713869088" lon="11.099573641872848"><ele>336.0</ele><time>2026-04-26T15:38:47.998Z</time></trkpt><trkpt lat="43.144450603459234" lon="11.099291578374366"><ele>336.0</ele><time>2026-04-26T15:38:48.998Z</time></trkpt><trkpt lat="43.14453356861169" lon="11.099003521607955"><ele>335.0</ele><time>2026-04-26T15:38:49.998Z</time></trkpt><trkpt lat="43.14462352046491" lon="11.098713447555737"><ele>334.0</ele><time>2026-04-26T15:38:50.998Z</time></trkpt><trkpt lat="43.14471389560644" lon="11.09842175751759"><ele>334.0</ele><time>2026-04-26T15:38:51.998Z</time></trkpt><trkpt lat="43.14480518747073" lon="11.098130493467703"><ele>334.0</ele><time>2026-04-26T15:38:52.998Z</time></trkpt><trkpt lat="43.14488466808681" lon="11.09783274215149"><ele>337.0</ele><time>2026-04-26T15:38:53.998Z</time></trkpt><trkpt lat="43.14493678825157" lon="11.097529461571032"><ele>340.0</ele><time>2026-04-26T15:38:54.998Z</time></trkpt><trkpt lat="43.144951851311774" lon="11.097223144597882"><ele>340.5</ele><time>2026-04-26T15:38:55.998Z</time></trkpt><trkpt lat="43.14493454952408" lon="11.096910491146021"><ele>341.0</ele><time>2026-04-26T15:38:56.998Z</time></trkpt><trkpt lat="43.14491146474218" lon="11.096595165909624"><ele>341.5</ele><time>2026-04-26T15:38:57.998Z</time></trkpt><trkpt lat="43.14489530648585" lon="11.09627955688184"><ele>342.0</ele><time>2026-04-26T15:38:58.998Z</time></trkpt><trkpt lat="43.14487729115823" lon="11.095969404211242"><ele>340.0</ele><time>2026-04-26T15:38:59.998Z</time></trkpt><trkpt lat="43.144862037950865" lon="11.095654686476722"><ele>338.0</ele><time>2026-04-26T15:39:00.998Z</time></trkpt><trkpt lat="43.144846921207886" lon="11.095342645860836"><ele>338.0</ele><time>2026-04-26T15:39:01.998Z</time></trkpt><trkpt lat="43.144830353489006" lon="11.095043085126449"><ele>338.0</ele><time>2026-04-26T15:39:02.998Z</time></trkpt><trkpt lat="43.144818911369455" lon="11.094757599040829"><ele>338.0</ele><time>2026-04-26T15:39:03.998Z</time></trkpt><trkpt lat="43.14480536726373" lon="11.094497499826362"><ele>338.0</ele><time>2026-04-26T15:39:04.998Z</time></trkpt><trkpt lat="43.14477093209561" lon="11.094265382559245"><ele>338.0</ele><time>2026-04-26T15:39:05.998Z</time></trkpt><trkpt lat="43.144686293798344" lon="11.094082206878012"><ele>338.0</ele><time>2026-04-26T15:39:06.998Z</time></trkpt><trkpt lat="43.1445565105559" lon="11.093946790233481"><ele>337.0</ele><time>2026-04-26T15:39:07.998Z</time></trkpt><trkpt lat="43.144395333874456" lon="11.093841071908873"><ele>336.0</ele><time>2026-04-26T15:39:08.998Z</time></trkpt><trkpt lat="43.14422311848096" lon="11.093729306818666"><ele>335.0</ele><time>2026-04-26T15:39:09.998Z</time></trkpt><trkpt lat="43.14404481532765" lon="11.093588592444544"><ele>335.0</ele><time>2026-04-26T15:39:10.998Z</time></trkpt><trkpt lat="43.143858649391895" lon="11.093471920669376"><ele>335.0</ele><time>2026-04-26T15:39:11.998Z</time></trkpt><trkpt lat="43.143680306807" lon="11.093329813930195"><ele>335.0</ele><time>2026-04-26T15:39:12.998Z</time></trkpt><trkpt lat="43.14349983099823" lon="11.093194677438634"><ele>335.33333333333337</ele><time>2026-04-26T15:39:13.998Z</time></trkpt><trkpt lat="43.14331404410386" lon="11.093063684204406"><ele>335.6666666666667</ele><time>2026-04-26T15:39:14.998Z</time></trkpt><trkpt lat="43.14312981192494" lon="11.092930863402895"><ele>336.0</ele><time>2026-04-26T15:39:15.998Z</time></trkpt><trkpt lat="43.14294773343843" lon="11.092794980955077"><ele>336.0</ele><time>2026-04-26T15:39:16.998Z</time></trkpt><trkpt lat="43.14276694679299" lon="11.092645811464886"><ele>336.0</ele><time>2026-04-26T15:39:17.998Z</time></trkpt><trkpt lat="43.142591676385315" lon="11.092489238825353"><ele>336.0</ele><time>2026-04-26T15:39:18.998Z</time></trkpt><trkpt lat="43.14242185210387" lon="11.09234472367113"><ele>336.3333333333333</ele><time>2026-04-26T15:39:19.998Z</time></trkpt><trkpt lat="43.14225921454566" lon="11.092227970469974"><ele>336.66666666666663</ele><time>2026-04-26T15:39:20.998Z</time></trkpt><trkpt lat="43.14210454816302" lon="11.092141743459898"><ele>337.0</ele><time>2026-04-26T15:39:21.998Z</time></trkpt><trkpt lat="43.1419567328134" lon="11.092060411365896"><ele>337.0</ele><time>2026-04-26T15:39:22.998Z</time></trkpt><trkpt lat="43.14181635220774" lon="11.091953178835094"><ele>337.0</ele><time>2026-04-26T15:39:23.998Z</time></trkpt><trkpt lat="43.141692652765165" lon="11.091814647086702"><ele>337.0</ele><time>2026-04-26T15:39:24.998Z</time></trkpt><trkpt lat="43.141586848351366" lon="11.091650134963178"><ele>335.3333333333333</ele><time>2026-04-26T15:39:25.998Z</time></trkpt><trkpt lat="43.141482970641505" lon="11.091467105689784"><ele>333.6666666666667</ele><time>2026-04-26T15:39:26.998Z</time></trkpt><trkpt lat="43.141378721491265" lon="11.09126678635274"><ele>332.0</ele><time>2026-04-26T15:39:27.998Z</time></trkpt><trkpt lat="43.14128569658842" lon="11.091056533017527"><ele>332.0</ele><time>2026-04-26T15:39:28.998Z</time></trkpt><trkpt lat="43.14119982881526" lon="11.090842604607937"><ele>332.0</ele><time>2026-04-26T15:39:29.998Z</time></trkpt><trkpt lat="43.14111704708876" lon="11.090608243180405"><ele>332.0</ele><time>2026-04-26T15:39:30.998Z</time></trkpt><trkpt lat="43.14102740766326" lon="11.090386372392462"><ele>333.33333333333337</ele><time>2026-04-26T15:39:31.998Z</time></trkpt><trkpt lat="43.140939383839445" lon="11.09016956201542"><ele>334.6666666666667</ele><time>2026-04-26T15:39:32.998Z</time></trkpt><trkpt lat="43.14085927609544" lon="11.089979976034424"><ele>336.0</ele><time>2026-04-26T15:39:33.998Z</time></trkpt><trkpt lat="43.14076168572938" lon="11.089809413843877"><ele>336.3333333333333</ele><time>2026-04-26T15:39:34.998Z</time></trkpt><trkpt lat="43.14063895980567" lon="11.089663987768017"><ele>336.66666666666663</ele><time>2026-04-26T15:39:36Z</time></trkpt><trkpt lat="43.14049664221981" lon="11.08955316778122"><ele>337.0</ele><time>2026-04-26T15:39:37Z</time></trkpt><trkpt lat="43.140346245721986" lon="11.089474701532167"><ele>337.0</ele><time>2026-04-26T15:39:38Z</time></trkpt><trkpt lat="43.14019254900998" lon="11.089419836674983"><ele>337.0</ele><time>2026-04-26T15:39:39Z</time></trkpt><trkpt lat="43.140044456629454" lon="11.08933684464945"><ele>337.0</ele><time>2026-04-26T15:39:40Z</time></trkpt><trkpt lat="43.1399076549078" lon="11.089259311026476"><ele>339.5</ele><time>2026-04-26T15:39:41Z</time></trkpt><trkpt lat="43.13977233569421" lon="11.089215868379153"><ele>342.0</ele><time>2026-04-26T15:39:42Z</time></trkpt><trkpt lat="43.13961746797596" lon="11.089231188652452"><ele>344.5</ele><time>2026-04-26T15:39:43Z</time></trkpt><trkpt lat="43.13946724604313" lon="11.089271912229657"><ele>347.0</ele><time>2026-04-26T15:39:44Z</time></trkpt><trkpt lat="43.13930901394893" lon="11.089290265178283"><ele>347.0</ele><time>2026-04-26T15:39:45Z</time></trkpt><trkpt lat="43.13913483773919" lon="11.089300882855154"><ele>347.0</ele><time>2026-04-26T15:39:46Z</time></trkpt><trkpt lat="43.13896325483419" lon="11.089315694387816"><ele>347.0</ele><time>2026-04-26T15:39:47Z</time></trkpt><trkpt lat="43.138808072110685" lon="11.089336093703627"><ele>347.0</ele><time>2026-04-26T15:39:48Z</time></trkpt><trkpt lat="43.13865155525408" lon="11.089341010089107"><ele>347.0</ele><time>2026-04-26T15:39:49Z</time></trkpt><trkpt lat="43.138500192249914" lon="11.089321253120607"><ele>347.0</ele><time>2026-04-26T15:39:50Z</time></trkpt><trkpt lat="43.1383434204278" lon="11.089300438646177"><ele>344.6666666666667</ele><time>2026-04-26T15:39:51Z</time></trkpt><trkpt lat="43.138186036217355" lon="11.089268192259798"><ele>342.3333333333333</ele><time>2026-04-26T15:39:52Z</time></trkpt><trkpt lat="43.138025008182375" lon="11.089228780176494"><ele>340.0</ele><time>2026-04-26T15:39:53Z</time></trkpt><trkpt lat="43.13787259603541" lon="11.089152496806511"><ele>343.66666666666663</ele><time>2026-04-26T15:39:54Z</time></trkpt><trkpt lat="43.1377086174347" lon="11.089084130713452"><ele>347.3333333333333</ele><time>2026-04-26T15:39:55Z</time></trkpt><trkpt lat="43.13755882361214" lon="11.088985419170578"><ele>351.0</ele><time>2026-04-26T15:39:56Z</time></trkpt><trkpt lat="43.137422075946525" lon="11.088878182496641"><ele>348.6666666666667</ele><time>2026-04-26T15:39:57Z</time></trkpt><trkpt lat="43.13728975386311" lon="11.08878120564588"><ele>346.33333333333337</ele><time>2026-04-26T15:39:58Z</time></trkpt><trkpt lat="43.13713993353545" lon="11.088685681535832"><ele>344.0</ele><time>2026-04-26T15:39:59Z</time></trkpt><trkpt lat="43.136978035972334" lon="11.088566956401483"><ele>344.0</ele><time>2026-04-26T15:39:59.999Z</time></trkpt><trkpt lat="43.13681379750994" lon="11.088446280896582"><ele>344.0</ele><time>2026-04-26T15:40:00.999Z</time></trkpt><trkpt lat="43.13666765357601" lon="11.088315561827221"><ele>344.0</ele><time>2026-04-26T15:40:01.999Z</time></trkpt><trkpt lat="43.13651044642823" lon="11.088202761534486"><ele>343.33333333333337</ele><time>2026-04-26T15:40:02.999Z</time></trkpt><trkpt lat="43.13635798449899" lon="11.088060645093133"><ele>342.6666666666667</ele><time>2026-04-26T15:40:03.999Z</time></trkpt><trkpt lat="43.13622919627073" lon="11.087931265669534"><ele>342.0</ele><time>2026-04-26T15:40:04.999Z</time></trkpt><trkpt lat="43.13612464037145" lon="11.087769522183864"><ele>342.0</ele><time>2026-04-26T15:40:05.999Z</time></trkpt><trkpt lat="43.136066615255224" lon="11.087575524039725"><ele>342.0</ele><time>2026-04-26T15:40:06.999Z</time></trkpt><trkpt lat="43.136044283459725" lon="11.087388073510784"><ele>342.0</ele><time>2026-04-26T15:40:07.999Z</time></trkpt><trkpt lat="43.13599082056689" lon="11.087162466014465"><ele>341.6666666666667</ele><time>2026-04-26T15:40:08.999Z</time></trkpt><trkpt lat="43.1359829604473" lon="11.086927868838746"><ele>341.33333333333337</ele><time>2026-04-26T15:40:09.999Z</time></trkpt><trkpt lat="43.135945341104154" lon="11.08668747587355"><ele>341.0</ele><time>2026-04-26T15:40:10.999Z</time></trkpt><trkpt lat="43.13590028683595" lon="11.08644550828317"><ele>342.0</ele><time>2026-04-26T15:40:11.999Z</time></trkpt><trkpt lat="43.135854065541665" lon="11.08620644984916"><ele>343.0</ele><time>2026-04-26T15:40:12.999Z</time></trkpt><trkpt lat="43.13580343148845" lon="11.085977069980881"><ele>344.0</ele><time>2026-04-26T15:40:13.999Z</time></trkpt><trkpt lat="43.135754830437634" lon="11.085753301212732"><ele>342.6666666666667</ele><time>2026-04-26T15:40:14.999Z</time></trkpt><trkpt lat="43.135704093283124" lon="11.085522980909698"><ele>341.3333333333333</ele><time>2026-04-26T15:40:15.999Z</time></trkpt><trkpt lat="43.13564954204164" lon="11.085298850384428"><ele>340.0</ele><time>2026-04-26T15:40:16.999Z</time></trkpt><trkpt lat="43.13557451972159" lon="11.085083984107472"><ele>341.0</ele><time>2026-04-26T15:40:17.999Z</time></trkpt><trkpt lat="43.135474724425166" lon="11.084877558216192"><ele>342.0</ele><time>2026-04-26T15:40:18.999Z</time></trkpt><trkpt lat="43.13535717090421" lon="11.084688241231147"><ele>343.0</ele><time>2026-04-26T15:40:19.999Z</time></trkpt><trkpt lat="43.13522486977812" lon="11.084516731654139"><ele>343.0</ele><time>2026-04-26T15:40:20.999Z</time></trkpt><trkpt lat="43.135081416525395" lon="11.084363478711355"><ele>343.0</ele><time>2026-04-26T15:40:21.999Z</time></trkpt><trkpt lat="43.134925169619386" lon="11.08424248230599"><ele>343.0</ele><time>2026-04-26T15:40:22.999Z</time></trkpt><trkpt lat="43.13475991251476" lon="11.084143856504566"><ele>343.66666666666663</ele><time>2026-04-26T15:40:23.999Z</time></trkpt><trkpt lat="43.134596570709554" lon="11.084035008683594"><ele>344.3333333333333</ele><time>2026-04-26T15:40:24.999Z</time></trkpt><trkpt lat="43.13444407485443" lon="11.083888451680037"><ele>345.0</ele><time>2026-04-26T15:40:25.999Z</time></trkpt><trkpt lat="43.134291637883535" lon="11.083713736780531"><ele>345.0</ele><time>2026-04-26T15:40:26.999Z</time></trkpt><trkpt lat="43.1341404159032" lon="11.083515543176807"><ele>345.0</ele><time>2026-04-26T15:40:27.999Z</time></trkpt><trkpt lat="43.1339881927106" lon="11.083317969517312"><ele>345.0</ele><time>2026-04-26T15:40:28.999Z</time></trkpt><trkpt lat="43.133837154181535" lon="11.083124035852661"><ele>345.0</ele><time>2026-04-26T15:40:29.999Z</time></trkpt><trkpt lat="43.133688156459506" lon="11.082932109979215"><ele>345.0</ele><time>2026-04-26T15:40:30.999Z</time></trkpt><trkpt lat="43.13353676127357" lon="11.082743481704455"><ele>345.0</ele><time>2026-04-26T15:40:31.999Z</time></trkpt><trkpt lat="43.133388891109924" lon="11.082554227781122"><ele>344.6666666666667</ele><time>2026-04-26T15:40:32.999Z</time></trkpt><trkpt lat="43.1332453270358" lon="11.082359259307454"><ele>344.33333333333337</ele><time>2026-04-26T15:40:33.999Z</time></trkpt><trkpt lat="43.133102041842605" lon="11.082170870588891"><ele>344.0</ele><time>2026-04-26T15:40:34.999Z</time></trkpt><trkpt lat="43.13295948739689" lon="11.08198159163683"><ele>343.33333333333337</ele><time>2026-04-26T15:40:35.999Z</time></trkpt><trkpt lat="43.13281301887361" lon="11.081791202404288"><ele>342.6666666666667</ele><time>2026-04-26T15:40:36.999Z</time></trkpt><trkpt lat="43.13265817449738" lon="11.08160027237187"><ele>342.0</ele><time>2026-04-26T15:40:37.999Z</time></trkpt><trkpt lat="43.13250682082947" lon="11.081401123254718"><ele>343.0</ele><time>2026-04-26T15:40:38.999Z</time></trkpt><trkpt lat="43.13235545830844" lon="11.081208003316958"><ele>344.0</ele><time>2026-04-26T15:40:39.999Z</time></trkpt><trkpt lat="43.13220722646954" lon="11.081015430231046"><ele>345.0</ele><time>2026-04-26T15:40:40.999Z</time></trkpt><trkpt lat="43.13206236794442" lon="11.080820854756933"><ele>346.3333333333333</ele><time>2026-04-26T15:40:41.999Z</time></trkpt><trkpt lat="43.13191362207719" lon="11.080631069490712"><ele>347.66666666666663</ele><time>2026-04-26T15:40:42.999Z</time></trkpt><trkpt lat="43.13177792988438" lon="11.080435534103225"><ele>349.0</ele><time>2026-04-26T15:40:43.999Z</time></trkpt><trkpt lat="43.1316423836305" lon="11.08024028084988"><ele>348.0</ele><time>2026-04-26T15:40:44.999Z</time></trkpt><trkpt lat="43.13150738262282" lon="11.080046151573063"><ele>347.0</ele><time>2026-04-26T15:40:45.999Z</time></trkpt><trkpt lat="43.13137003064891" lon="11.079851248803402"><ele>346.0</ele><time>2026-04-26T15:40:46.999Z</time></trkpt><trkpt lat="43.131235947271286" lon="11.079656269098319"><ele>346.0</ele><time>2026-04-26T15:40:47.999Z</time></trkpt><trkpt lat="43.13110863849497" lon="11.079468993481452"><ele>346.0</ele><time>2026-04-26T15:40:48.999Z</time></trkpt><trkpt lat="43.1309908197682" lon="11.079284328920574"><ele>346.0</ele><time>2026-04-26T15:40:49.999Z</time></trkpt><trkpt lat="43.130884381584075" lon="11.079102805626269"><ele>346.3333333333333</ele><time>2026-04-26T15:40:50.999Z</time></trkpt><trkpt lat="43.130791857661805" lon="11.078916353551483"><ele>346.6666666666667</ele><time>2026-04-26T15:40:51.999Z</time></trkpt><trkpt lat="43.13071831684992" lon="11.07871520351019"><ele>347.0</ele><time>2026-04-26T15:40:52.999Z</time></trkpt><trkpt lat="43.13066169945785" lon="11.07849900693385"><ele>346.6666666666667</ele><time>2026-04-26T15:40:53.998Z</time></trkpt><trkpt lat="43.13061595918923" lon="11.07828704723872"><ele>346.3333333333333</ele><time>2026-04-26T15:40:54.998Z</time></trkpt><trkpt lat="43.13056940981095" lon="11.078067237690744"><ele>346.0</ele><time>2026-04-26T15:40:55.998Z</time></trkpt><trkpt lat="43.13051526607157" lon="11.077848424395333"><ele>346.0</ele><time>2026-04-26T15:40:56.998Z</time></trkpt><trkpt lat="43.130443194993916" lon="11.077648118756422"><ele>346.0</ele><time>2026-04-26T15:40:57.998Z</time></trkpt><trkpt lat="43.13034434868533" lon="11.07746765548609"><ele>346.0</ele><time>2026-04-26T15:40:58.998Z</time></trkpt><trkpt lat="43.13022177629867" lon="11.077301788509667"><ele>347.3333333333333</ele><time>2026-04-26T15:40:59.998Z</time></trkpt><trkpt lat="43.130077463240106" lon="11.077178080673582"><ele>348.6666666666667</ele><time>2026-04-26T15:41:00.998Z</time></trkpt><trkpt lat="43.12991237480122" lon="11.077080621952755"><ele>350.0</ele><time>2026-04-26T15:41:01.998Z</time></trkpt><trkpt lat="43.12972366650228" lon="11.077007345586493"><ele>350.0</ele><time>2026-04-26T15:41:02.998Z</time></trkpt><trkpt lat="43.12954092188515" lon="11.076933239098237"><ele>350.0</ele><time>2026-04-26T15:41:03.998Z</time></trkpt><trkpt lat="43.12936285001004" lon="11.076853563734185"><ele>350.0</ele><time>2026-04-26T15:41:04.998Z</time></trkpt><trkpt lat="43.12919705410038" lon="11.07678562793042"><ele>348.6666666666667</ele><time>2026-04-26T15:41:05.998Z</time></trkpt><trkpt lat="43.129046874858055" lon="11.07669792169633"><ele>347.3333333333333</ele><time>2026-04-26T15:41:06.998Z</time></trkpt><trkpt lat="43.12892019905471" lon="11.076587427836381"><ele>346.0</ele><time>2026-04-26T15:41:07.998Z</time></trkpt><trkpt lat="43.128830630083655" lon="11.076433731077666"><ele>346.0</ele><time>2026-04-26T15:41:08.998Z</time></trkpt><trkpt lat="43.1287762735629" lon="11.07624674195788"><ele>346.0</ele><time>2026-04-26T15:41:09.998Z</time></trkpt><trkpt lat="43.12874751807394" lon="11.07602993886995"><ele>346.0</ele><time>2026-04-26T15:41:10.998Z</time></trkpt><trkpt lat="43.128730162654094" lon="11.075819924801605"><ele>346.66666666666663</ele><time>2026-04-26T15:41:11.998Z</time></trkpt><trkpt lat="43.12871339735101" lon="11.075599975225174"><ele>347.3333333333333</ele><time>2026-04-26T15:41:12.998Z</time></trkpt><trkpt lat="43.12867702623723" lon="11.075359331372907"><ele>348.0</ele><time>2026-04-26T15:41:13.998Z</time></trkpt><trkpt lat="43.12862939285183" lon="11.075083909484283"><ele>348.5</ele><time>2026-04-26T15:41:14.998Z</time></trkpt><trkpt lat="43.128578134326936" lon="11.074772865848857"><ele>349.0</ele><time>2026-04-26T15:41:15.998Z</time></trkpt><trkpt lat="43.12853143854474" lon="11.074429847863366"><ele>351.0</ele><time>2026-04-26T15:41:16.998Z</time></trkpt><trkpt lat="43.12849243901803" lon="11.074080247767709"><ele>353.0</ele><time>2026-04-26T15:41:17.998Z</time></trkpt><trkpt lat="43.1284461481797" lon="11.073716019799779"><ele>353.0</ele><time>2026-04-26T15:41:18.998Z</time></trkpt><trkpt lat="43.12839168726367" lon="11.07333523215569"><ele>353.0</ele><time>2026-04-26T15:41:19.998Z</time></trkpt><trkpt lat="43.12833320356829" lon="11.072967928106737"><ele>355.0</ele><time>2026-04-26T15:41:20.998Z</time></trkpt><trkpt lat="43.128266613317756" lon="11.072607617176994"><ele>357.0</ele><time>2026-04-26T15:41:21.998Z</time></trkpt><trkpt lat="43.12820200375247" lon="11.072256013978066"><ele>353.5</ele><time>2026-04-26T15:41:22.998Z</time></trkpt><trkpt lat="43.128145307157936" lon="11.07191519002425"><ele>350.0</ele><time>2026-04-26T15:41:23.998Z</time></trkpt><trkpt lat="43.12808529703767" lon="11.071591558250674"><ele>350.0</ele><time>2026-04-26T15:41:24.998Z</time></trkpt><trkpt lat="43.12803029647124" lon="11.071279943361095"><ele>350.0</ele><time>2026-04-26T15:41:25.998Z</time></trkpt><trkpt lat="43.12797401695854" lon="11.070988223076311"><ele>352.6666666666667</ele><time>2026-04-26T15:41:26.998Z</time></trkpt><trkpt lat="43.12790640284567" lon="11.070712896219336"><ele>355.3333333333333</ele><time>2026-04-26T15:41:27.998Z</time></trkpt><trkpt lat="43.12782241110703" lon="11.07045038720518"><ele>358.0</ele><time>2026-04-26T15:41:28.998Z</time></trkpt><trkpt lat="43.12771753836264" lon="11.070200048114396"><ele>358.0</ele><time>2026-04-26T15:41:29.998Z</time></trkpt><trkpt lat="43.127584212183045" lon="11.0699714350771"><ele>358.0</ele><time>2026-04-26T15:41:30.998Z</time></trkpt><trkpt lat="43.127449792625626" lon="11.069736607306483"><ele>358.0</ele><time>2026-04-26T15:41:31.998Z</time></trkpt><trkpt lat="43.1273216057271" lon="11.069507212095797"><ele>356.66666666666663</ele><time>2026-04-26T15:41:32.998Z</time></trkpt><trkpt lat="43.12719983967332" lon="11.06928468810036"><ele>355.3333333333333</ele><time>2026-04-26T15:41:33.998Z</time></trkpt><trkpt lat="43.127088576031454" lon="11.069065197471419"><ele>354.0</ele><time>2026-04-26T15:41:34.998Z</time></trkpt><trkpt lat="43.1270130039977" lon="11.068819941488112"><ele>354.0</ele><time>2026-04-26T15:41:35.998Z</time></trkpt><trkpt lat="43.12696452114418" lon="11.06856573814549"><ele>354.0</ele><time>2026-04-26T15:41:36.998Z</time></trkpt><trkpt lat="43.126917727096895" lon="11.068303134171574"><ele>354.0</ele><time>2026-04-26T15:41:37.998Z</time></trkpt><trkpt lat="43.12684074485975" lon="11.068039849502956"><ele>355.0</ele><time>2026-04-26T15:41:38.998Z</time></trkpt><trkpt lat="43.12673604213624" lon="11.067784224746573"><ele>356.0</ele><time>2026-04-26T15:41:39.998Z</time></trkpt><trkpt lat="43.126619508637816" lon="11.067537664103261"><ele>357.0</ele><time>2026-04-26T15:41:40.998Z</time></trkpt><trkpt lat="43.126505760692886" lon="11.067273814325818"><ele>357.0</ele><time>2026-04-26T15:41:42Z</time></trkpt><trkpt lat="43.12637456205456" lon="11.067050810766805"><ele>357.0</ele><time>2026-04-26T15:41:43Z</time></trkpt><trkpt lat="43.126219978312214" lon="11.066836966729936"><ele>357.0</ele><time>2026-04-26T15:41:44Z</time></trkpt><trkpt lat="43.1260499783222" lon="11.066592937593663"><ele>355.6666666666667</ele><time>2026-04-26T15:41:45Z</time></trkpt><trkpt lat="43.125882900134805" lon="11.06638417806782"><ele>354.33333333333337</ele><time>2026-04-26T15:41:46Z</time></trkpt><trkpt lat="43.125730696706356" lon="11.066179978059449"><ele>353.0</ele><time>2026-04-26T15:41:47Z</time></trkpt><trkpt lat="43.12559246162832" lon="11.065963824281038"><ele>355.0</ele><time>2026-04-26T15:41:48Z</time></trkpt><trkpt lat="43.12546258250172" lon="11.065740040834742"><ele>357.0</ele><time>2026-04-26T15:41:49Z</time></trkpt><trkpt lat="43.12534972382559" lon="11.065494432900014"><ele>359.0</ele><time>2026-04-26T15:41:50Z</time></trkpt><trkpt lat="43.12523553674157" lon="11.065214448679475"><ele>359.0</ele><time>2026-04-26T15:41:51Z</time></trkpt><trkpt lat="43.12512786362345" lon="11.064950622878856"><ele>359.0</ele><time>2026-04-26T15:41:52Z</time></trkpt><trkpt lat="43.12500817493834" lon="11.064711606975308"><ele>359.0</ele><time>2026-04-26T15:41:53Z</time></trkpt><trkpt lat="43.12488756873942" lon="11.064441061494303"><ele>358.5</ele><time>2026-04-26T15:41:54Z</time></trkpt><trkpt lat="43.12475811417113" lon="11.064158045221882"><ele>358.0</ele><time>2026-04-26T15:41:55Z</time></trkpt><trkpt lat="43.12463111462989" lon="11.063884279655623"><ele>358.0</ele><time>2026-04-26T15:41:56Z</time></trkpt><trkpt lat="43.12448524113422" lon="11.063606861449198"><ele>358.0</ele><time>2026-04-26T15:41:57Z</time></trkpt><trkpt lat="43.12432516861883" lon="11.063330381665015"><ele>358.0</ele><time>2026-04-26T15:41:58Z</time></trkpt><trkpt lat="43.12416976737455" lon="11.063046671437247"><ele>358.0</ele><time>2026-04-26T15:41:59Z</time></trkpt><trkpt lat="43.12398761022085" lon="11.062791077129404"><ele>358.0</ele><time>2026-04-26T15:42:00Z</time></trkpt><trkpt lat="43.123822748944335" lon="11.062533778127156"><ele>358.0</ele><time>2026-04-26T15:42:01Z</time></trkpt><trkpt lat="43.123654481618466" lon="11.062303088633145"><ele>359.0</ele><time>2026-04-26T15:42:02Z</time></trkpt><trkpt lat="43.12349961268886" lon="11.062081682088964"><ele>360.0</ele><time>2026-04-26T15:42:03Z</time></trkpt><trkpt lat="43.12335307680689" lon="11.061831356290469"><ele>362.0</ele><time>2026-04-26T15:42:04Z</time></trkpt><trkpt lat="43.1232096490931" lon="11.061575221234246"><ele>364.0</ele><time>2026-04-26T15:42:05Z</time></trkpt><trkpt lat="43.12306710397952" lon="11.061318972356672"><ele>364.0</ele><time>2026-04-26T15:42:06Z</time></trkpt><trkpt lat="43.12294024292294" lon="11.061024245715624"><ele>364.0</ele><time>2026-04-26T15:42:07Z</time></trkpt><trkpt lat="43.12282028474271" lon="11.060729487858781"><ele>364.0</ele><time>2026-04-26T15:42:07.999Z</time></trkpt><trkpt lat="43.122700210064444" lon="11.060441842652157"><ele>364.0</ele><time>2026-04-26T15:42:08.999Z</time></trkpt><trkpt lat="43.12257021213556" lon="11.060165849779741"><ele>365.5</ele><time>2026-04-26T15:42:09.999Z</time></trkpt><trkpt lat="43.122424235806726" lon="11.059909627245498"><ele>367.0</ele><time>2026-04-26T15:42:10.999Z</time></trkpt><trkpt lat="43.12226361974527" lon="11.059655479485752"><ele>367.0</ele><time>2026-04-26T15:42:11.999Z</time></trkpt><trkpt lat="43.12210269821651" lon="11.059403480324319"><ele>367.0</ele><time>2026-04-26T15:42:12.999Z</time></trkpt><trkpt lat="43.12194997722163" lon="11.059159819980662"><ele>368.0</ele><time>2026-04-26T15:42:13.999Z</time></trkpt><trkpt lat="43.121806739297625" lon="11.058909629734424"><ele>369.0</ele><time>2026-04-26T15:42:14.999Z</time></trkpt><trkpt lat="43.12167870081123" lon="11.058638585326792"><ele>368.3333333333333</ele><time>2026-04-26T15:42:15.999Z</time></trkpt><trkpt lat="43.12154225519286" lon="11.058394224453524"><ele>367.66666666666663</ele><time>2026-04-26T15:42:16.999Z</time></trkpt><trkpt lat="43.12138885427911" lon="11.058173829231771"><ele>367.0</ele><time>2026-04-26T15:42:17.999Z</time></trkpt><trkpt lat="43.121225397225864" lon="11.057974587646035"><ele>366.0</ele><time>2026-04-26T15:42:18.999Z</time></trkpt><trkpt lat="43.121057888974036" lon="11.057731415348067"><ele>365.0</ele><time>2026-04-26T15:42:19.999Z</time></trkpt><trkpt lat="43.12089529430749" lon="11.057493573966392"><ele>370.0</ele><time>2026-04-26T15:42:20.999Z</time></trkpt><trkpt lat="43.120723598871244" lon="11.057252595654196"><ele>375.0</ele><time>2026-04-26T15:42:21.999Z</time></trkpt><trkpt lat="43.12055465539966" lon="11.057004080876165"><ele>375.0</ele><time>2026-04-26T15:42:22.999Z</time></trkpt><trkpt lat="43.12038835476559" lon="11.056745359051924"><ele>375.0</ele><time>2026-04-26T15:42:23.999Z</time></trkpt><trkpt lat="43.120218065546055" lon="11.0564929214109"><ele>373.5</ele><time>2026-04-26T15:42:24.999Z</time></trkpt><trkpt lat="43.12005183712951" lon="11.056251468593858"><ele>372.0</ele><time>2026-04-26T15:42:25.999Z</time></trkpt><trkpt lat="43.11989697852993" lon="11.056009527079434"><ele>373.3333333333333</ele><time>2026-04-26T15:42:26.999Z</time></trkpt><trkpt lat="43.1197427919582" lon="11.055783743563703"><ele>374.66666666666663</ele><time>2026-04-26T15:42:27.999Z</time></trkpt><trkpt lat="43.119587324988935" lon="11.055576487077188"><ele>376.0</ele><time>2026-04-26T15:42:28.999Z</time></trkpt><trkpt lat="43.119421825769706" lon="11.055387832622266"><ele>376.0</ele><time>2026-04-26T15:42:29.999Z</time></trkpt><trkpt lat="43.11924913210207" lon="11.055221795683748"><ele>376.0</ele><time>2026-04-26T15:42:30.999Z</time></trkpt><trkpt lat="43.119067972556756" lon="11.055064993762663"><ele>376.0</ele><time>2026-04-26T15:42:31.999Z</time></trkpt><trkpt lat="43.11889466126303" lon="11.054920402043756"><ele>376.3333333333333</ele><time>2026-04-26T15:42:32.999Z</time></trkpt><trkpt lat="43.11872962617699" lon="11.054779007622935"><ele>376.6666666666667</ele><time>2026-04-26T15:42:33.999Z</time></trkpt><trkpt lat="43.118579120690804" lon="11.054658593607716"><ele>377.0</ele><time>2026-04-26T15:42:34.999Z</time></trkpt><trkpt lat="43.118442967911186" lon="11.054547343011581"><ele>377.0</ele><time>2026-04-26T15:42:35.999Z</time></trkpt><trkpt lat="43.11832420216842" lon="11.054422693542492"><ele>377.0</ele><time>2026-04-26T15:42:36.999Z</time></trkpt><trkpt lat="43.11822947823319" lon="11.054275040314513"><ele>377.0</ele><time>2026-04-26T15:42:37.999Z</time></trkpt><trkpt lat="43.118155053823216" lon="11.054084082319987"><ele>381.0</ele><time>2026-04-26T15:42:38.999Z</time></trkpt><trkpt lat="43.11812515723021" lon="11.05386878821047"><ele>385.0</ele><time>2026-04-26T15:42:39.999Z</time></trkpt><trkpt lat="43.11811479323445" lon="11.053636884902525"><ele>389.0</ele><time>2026-04-26T15:42:40.999Z</time></trkpt><trkpt lat="43.11809378731404" lon="11.053403686832123"><ele>384.0</ele><time>2026-04-26T15:42:41.999Z</time></trkpt><trkpt lat="43.1180374167238" lon="11.053174654695207"><ele>379.0</ele><time>2026-04-26T15:42:42.999Z</time></trkpt><trkpt lat="43.11795180418476" lon="11.052954925095696"><ele>374.0</ele><time>2026-04-26T15:42:43.999Z</time></trkpt><trkpt lat="43.11783130300731" lon="11.052750689382998"><ele>374.0</ele><time>2026-04-26T15:42:44.999Z</time></trkpt><trkpt lat="43.11768747032189" lon="11.052572742172762"><ele>374.0</ele><time>2026-04-26T15:42:45.999Z</time></trkpt><trkpt lat="43.117534261920795" lon="11.052435177883314"><ele>374.0</ele><time>2026-04-26T15:42:46.999Z</time></trkpt><trkpt lat="43.117362699046616" lon="11.05236134991427"><ele>374.33333333333337</ele><time>2026-04-26T15:42:47.999Z</time></trkpt><trkpt lat="43.11718381405058" lon="11.052368923783794"><ele>374.6666666666667</ele><time>2026-04-26T15:42:48.999Z</time></trkpt><trkpt lat="43.1170131284853" lon="11.05234456337027"><ele>375.0</ele><time>2026-04-26T15:42:49.999Z</time></trkpt><trkpt lat="43.11686935763131" lon="11.052256735523867"><ele>375.0</ele><time>2026-04-26T15:42:50.999Z</time></trkpt><trkpt lat="43.116736279807256" lon="11.052124660274282"><ele>375.0</ele><time>2026-04-26T15:42:51.999Z</time></trkpt><trkpt lat="43.11663376058999" lon="11.051940741436097"><ele>375.0</ele><time>2026-04-26T15:42:52.999Z</time></trkpt><trkpt lat="43.11653650401391" lon="11.051749275923429"><ele>375.6666666666667</ele><time>2026-04-26T15:42:53.999Z</time></trkpt><trkpt lat="43.11641616964851" lon="11.051571788555146"><ele>376.33333333333337</ele><time>2026-04-26T15:42:54.999Z</time></trkpt><trkpt lat="43.11629013182817" lon="11.051452585410399"><ele>377.0</ele><time>2026-04-26T15:42:55.999Z</time></trkpt><trkpt lat="43.1161813393354" lon="11.051279923260966"><ele>377.0</ele><time>2026-04-26T15:42:56.999Z</time></trkpt><trkpt lat="43.11604829681572" lon="11.051153653162594"><ele>377.0</ele><time>2026-04-26T15:42:57.999Z</time></trkpt><trkpt lat="43.11591814858164" lon="11.051046157495502"><ele>377.0</ele><time>2026-04-26T15:42:58.999Z</time></trkpt><trkpt lat="43.11576886201735" lon="11.050999142706736"><ele>380.33333333333337</ele><time>2026-04-26T15:42:59.999Z</time></trkpt><trkpt lat="43.115605264723264" lon="11.050987961909948"><ele>383.6666666666667</ele><time>2026-04-26T15:43:00.999Z</time></trkpt><trkpt lat="43.11545453935467" lon="11.050935108360507"><ele>387.0</ele><time>2026-04-26T15:43:01.998Z</time></trkpt><trkpt lat="43.11530655163065" lon="11.050856768301278"><ele>385.6666666666667</ele><time>2026-04-26T15:43:02.998Z</time></trkpt><trkpt lat="43.115167189832" lon="11.050755523190853"><ele>384.33333333333337</ele><time>2026-04-26T15:43:03.998Z</time></trkpt><trkpt lat="43.11502884496187" lon="11.050663737529472"><ele>383.0</ele><time>2026-04-26T15:43:04.998Z</time></trkpt><trkpt lat="43.11487026315314" lon="11.050603263490988"><ele>382.6666666666667</ele><time>2026-04-26T15:43:05.998Z</time></trkpt><trkpt lat="43.11470300247715" lon="11.050565329850805"><ele>382.3333333333333</ele><time>2026-04-26T15:43:06.998Z</time></trkpt><trkpt lat="43.11453969234789" lon="11.050528306471445"><ele>382.0</ele><time>2026-04-26T15:43:07.998Z</time></trkpt><trkpt lat="43.11436536659451" lon="11.050483783216155"><ele>382.0</ele><time>2026-04-26T15:43:08.998Z</time></trkpt><trkpt lat="43.11419502708809" lon="11.050436799636456"><ele>382.0</ele><time>2026-04-26T15:43:09.998Z</time></trkpt><trkpt lat="43.11403775889342" lon="11.050374559470125"><ele>382.0</ele><time>2026-04-26T15:43:10.998Z</time></trkpt><trkpt lat="43.11388847515619" lon="11.050285572717298"><ele>383.0</ele><time>2026-04-26T15:43:11.998Z</time></trkpt><trkpt lat="43.113755163182" lon="11.050162422460717"><ele>384.0</ele><time>2026-04-26T15:43:12.998Z</time></trkpt><trkpt lat="43.11360022310562" lon="11.05004173908376"><ele>385.0</ele><time>2026-04-26T15:43:13.998Z</time></trkpt><trkpt lat="43.11346277251364" lon="11.049907337859384"><ele>385.0</ele><time>2026-04-26T15:43:14.998Z</time></trkpt><trkpt lat="43.113304728562184" lon="11.049772241251166"><ele>385.0</ele><time>2026-04-26T15:43:15.998Z</time></trkpt><trkpt lat="43.11316699017197" lon="11.049606351136005"><ele>385.0</ele><time>2026-04-26T15:43:16.998Z</time></trkpt><trkpt lat="43.1130159121244" lon="11.049447081490158"><ele>387.0</ele><time>2026-04-26T15:43:17.998Z</time></trkpt><trkpt lat="43.112873331339216" lon="11.04929291904511"><ele>389.0</ele><time>2026-04-26T15:43:18.998Z</time></trkpt><trkpt lat="43.11273374975431" lon="11.049145133656529"><ele>391.0</ele><time>2026-04-26T15:43:19.998Z</time></trkpt><trkpt lat="43.11260160345058" lon="11.049000311169474"><ele>391.0</ele><time>2026-04-26T15:43:20.998Z</time></trkpt><trkpt lat="43.11247411987432" lon="11.048852707154753"><ele>391.0</ele><time>2026-04-26T15:43:21.998Z</time></trkpt><trkpt lat="43.11235359112466" lon="11.048705596330311"><ele>391.0</ele><time>2026-04-26T15:43:22.998Z</time></trkpt><trkpt lat="43.11223831546814" lon="11.048541252678785"><ele>400.33333333333337</ele><time>2026-04-26T15:43:23.998Z</time></trkpt><trkpt lat="43.112140531923025" lon="11.048359848249603"><ele>409.66666666666663</ele><time>2026-04-26T15:43:24.998Z</time></trkpt><trkpt lat="43.11205959990509" lon="11.048157947009335"><ele>419.0</ele><time>2026-04-26T15:43:25.998Z</time></trkpt><trkpt lat="43.11199582008689" lon="11.047944793898388"><ele>419.0</ele><time>2026-04-26T15:43:26.998Z</time></trkpt><trkpt lat="43.111946819019884" lon="11.047722797156807"><ele>419.0</ele><time>2026-04-26T15:43:27.998Z</time></trkpt><trkpt lat="43.111915823452904" lon="11.047486542658302"><ele>419.0</ele><time>2026-04-26T15:43:28.998Z</time></trkpt><trkpt lat="43.11190930038791" lon="11.047234940004838"><ele>416.0</ele><time>2026-04-26T15:43:29.998Z</time></trkpt><trkpt lat="43.111925614542955" lon="11.046992699677244"><ele>413.0</ele><time>2026-04-26T15:43:30.998Z</time></trkpt><trkpt lat="43.11192454021612" lon="11.046771235846299"><ele>410.0</ele><time>2026-04-26T15:43:31.998Z</time></trkpt><trkpt lat="43.111871994168574" lon="11.04656699516252"><ele>407.66666666666663</ele><time>2026-04-26T15:43:32.998Z</time></trkpt><trkpt lat="43.111781774533085" lon="11.046377546235187"><ele>405.33333333333337</ele><time>2026-04-26T15:43:33.998Z</time></trkpt><trkpt lat="43.11167188789564" lon="11.046217366064662"><ele>403.0</ele><time>2026-04-26T15:43:34.998Z</time></trkpt><trkpt lat="43.11154964032471" lon="11.046075997836425"><ele>403.0</ele><time>2026-04-26T15:43:35.998Z</time></trkpt><trkpt lat="43.111420814085214" lon="11.045929193345554"><ele>403.0</ele><time>2026-04-26T15:43:36.998Z</time></trkpt><trkpt lat="43.11127715573973" lon="11.045816687190445"><ele>403.0</ele><time>2026-04-26T15:43:37.998Z</time></trkpt><trkpt lat="43.111097271702334" lon="11.045791900748952"><ele>403.6666666666667</ele><time>2026-04-26T15:43:38.998Z</time></trkpt><trkpt lat="43.110922642510886" lon="11.045759685964049"><ele>404.33333333333337</ele><time>2026-04-26T15:43:39.998Z</time></trkpt><trkpt lat="43.11073040086979" lon="11.045761960072923"><ele>405.0</ele><time>2026-04-26T15:43:40.998Z</time></trkpt><trkpt lat="43.110580462258824" lon="11.045740712364173"><ele>405.0</ele><time>2026-04-26T15:43:41.998Z</time></trkpt><trkpt lat="43.110447083319016" lon="11.045676493897869"><ele>405.0</ele><time>2026-04-26T15:43:42.998Z</time></trkpt><trkpt lat="43.11035086398254" lon="11.045566353937073"><ele>405.0</ele><time>2026-04-26T15:43:43.998Z</time></trkpt><trkpt lat="43.11026920996298" lon="11.045412437096871"><ele>405.0</ele><time>2026-04-26T15:43:44.998Z</time></trkpt><trkpt lat="43.110181709612355" lon="11.045232751065418"><ele>405.0</ele><time>2026-04-26T15:43:45.998Z</time></trkpt><trkpt lat="43.11007693466581" lon="11.045055036291046"><ele>405.0</ele><time>2026-04-26T15:43:46.998Z</time></trkpt><trkpt lat="43.10996730468838" lon="11.04486921020735"><ele>405.0</ele><time>2026-04-26T15:43:48Z</time></trkpt><trkpt lat="43.109811510956774" lon="11.044726087664078"><ele>403.0</ele><time>2026-04-26T15:43:49Z</time></trkpt><trkpt lat="43.10967480557431" lon="11.044585380699177"><ele>401.0</ele><time>2026-04-26T15:43:50Z</time></trkpt><trkpt lat="43.10953512478936" lon="11.044524365308742"><ele>399.0</ele><time>2026-04-26T15:43:51Z</time></trkpt><trkpt lat="43.10939125667657" lon="11.044529136176012"><ele>399.0</ele><time>2026-04-26T15:43:52Z</time></trkpt><trkpt lat="43.10924054205138" lon="11.04457344854074"><ele>399.0</ele><time>2026-04-26T15:43:53Z</time></trkpt><trkpt lat="43.10910475266623" lon="11.044546527245439"><ele>399.0</ele><time>2026-04-26T15:43:54Z</time></trkpt><trkpt lat="43.10896058939553" lon="11.044505063097047"><ele>399.0</ele><time>2026-04-26T15:43:55Z</time></trkpt><trkpt lat="43.10882341622762" lon="11.044428934110913"><ele>400.33333333333337</ele><time>2026-04-26T15:43:56Z</time></trkpt><trkpt lat="43.10868818075639" lon="11.04430377980684"><ele>401.6666666666667</ele><time>2026-04-26T15:43:57Z</time></trkpt><trkpt lat="43.1085629441849" lon="11.044128677642343"><ele>403.0</ele><time>2026-04-26T15:43:58Z</time></trkpt><trkpt lat="43.108464517544085" lon="11.043927151925946"><ele>403.0</ele><time>2026-04-26T15:43:59Z</time></trkpt><trkpt lat="43.10839393107885" lon="11.04370727086554"><ele>403.0</ele><time>2026-04-26T15:44:00Z</time></trkpt><trkpt lat="43.108311699766794" lon="11.04347421765737"><ele>403.0</ele><time>2026-04-26T15:44:01Z</time></trkpt><trkpt lat="43.10821807619204" lon="11.043291377741728"><ele>402.33333333333337</ele><time>2026-04-26T15:44:02Z</time></trkpt><trkpt lat="43.10812175116173" lon="11.043132546601054"><ele>401.66666666666663</ele><time>2026-04-26T15:44:03Z</time></trkpt><trkpt lat="43.107994322303725" lon="11.043011037682664"><ele>401.0</ele><time>2026-04-26T15:44:04Z</time></trkpt><trkpt lat="43.10784154646861" lon="11.042929876908131"><ele>401.0</ele><time>2026-04-26T15:44:05Z</time></trkpt><trkpt lat="43.10769325167843" lon="11.042836732984773"><ele>401.0</ele><time>2026-04-26T15:44:06Z</time></trkpt><trkpt lat="43.107545597883146" lon="11.042732545006672"><ele>401.0</ele><time>2026-04-26T15:44:07Z</time></trkpt><trkpt lat="43.107389172893555" lon="11.042622629997098"><ele>404.0</ele><time>2026-04-26T15:44:08Z</time></trkpt><trkpt lat="43.107255414421125" lon="11.042460898330692"><ele>407.0</ele><time>2026-04-26T15:44:09Z</time></trkpt><trkpt lat="43.10715597927623" lon="11.042307785985292"><ele>410.0</ele><time>2026-04-26T15:44:10Z</time></trkpt><trkpt lat="43.10706669411103" lon="11.0421746709828"><ele>410.0</ele><time>2026-04-26T15:44:11Z</time></trkpt><trkpt lat="43.10696652049746" lon="11.04207867482975"><ele>410.0</ele><time>2026-04-26T15:44:12Z</time></trkpt><trkpt lat="43.10690900605943" lon="11.041918364021866"><ele>410.0</ele><time>2026-04-26T15:44:13Z</time></trkpt><trkpt lat="43.106859013278545" lon="11.041740237685165"><ele>410.0</ele><time>2026-04-26T15:44:14Z</time></trkpt><trkpt lat="43.10688073416918" lon="11.041541485703943"><ele>409.66666666666663</ele><time>2026-04-26T15:44:15Z</time></trkpt><trkpt lat="43.10698498012963" lon="11.041332189835636"><ele>409.33333333333337</ele><time>2026-04-26T15:44:15.999Z</time></trkpt><trkpt lat="43.106990034240745" lon="11.041115691928445"><ele>409.0</ele><time>2026-04-26T15:44:16.999Z</time></trkpt><trkpt lat="43.10700053778885" lon="11.04088592523643"><ele>411.6666666666667</ele><time>2026-04-26T15:44:17.999Z</time></trkpt><trkpt lat="43.10702767763913" lon="11.040628160304776"><ele>414.33333333333337</ele><time>2026-04-26T15:44:18.999Z</time></trkpt><trkpt lat="43.10705479133498" lon="11.040368947440047"><ele>417.0</ele><time>2026-04-26T15:44:19.999Z</time></trkpt><trkpt lat="43.107067717463366" lon="11.040120999268465"><ele>415.33333333333337</ele><time>2026-04-26T15:44:20.999Z</time></trkpt><trkpt lat="43.10706493905636" lon="11.039876411460307"><ele>413.6666666666667</ele><time>2026-04-26T15:44:21.999Z</time></trkpt><trkpt lat="43.107051424069" lon="11.039658411157273"><ele>412.0</ele><time>2026-04-26T15:44:22.999Z</time></trkpt><trkpt lat="43.10702557302643" lon="11.039464103677554"><ele>412.0</ele><time>2026-04-26T15:44:23.999Z</time></trkpt><trkpt lat="43.1069312882992" lon="11.039322659899653"><ele>412.0</ele><time>2026-04-26T15:44:24.999Z</time></trkpt><trkpt lat="43.106849788131356" lon="11.039205561211022"><ele>412.0</ele><time>2026-04-26T15:44:25.999Z</time></trkpt><trkpt lat="43.10673171546763" lon="11.039114023538465"><ele>412.0</ele><time>2026-04-26T15:44:26.999Z</time></trkpt><trkpt lat="43.1066103353579" lon="11.039033041379428"><ele>416.0</ele><time>2026-04-26T15:44:27.999Z</time></trkpt><trkpt lat="43.106482370104445" lon="11.038935536749781"><ele>420.0</ele><time>2026-04-26T15:44:28.999Z</time></trkpt><trkpt lat="43.10633096239234" lon="11.038822422920036"><ele>424.0</ele><time>2026-04-26T15:44:29.999Z</time></trkpt><trkpt lat="43.106203301747286" lon="11.038688541269632"><ele>424.0</ele><time>2026-04-26T15:44:30.999Z</time></trkpt><trkpt lat="43.106109515820776" lon="11.038524140117346"><ele>424.0</ele><time>2026-04-26T15:44:31.999Z</time></trkpt><trkpt lat="43.1060586672479" lon="11.038321087665958"><ele>424.0</ele><time>2026-04-26T15:44:32.999Z</time></trkpt><trkpt lat="43.10604634838176" lon="11.038089160795456"><ele>423.6666666666667</ele><time>2026-04-26T15:44:33.999Z</time></trkpt><trkpt lat="43.1060364300479" lon="11.037854312736801"><ele>423.33333333333337</ele><time>2026-04-26T15:44:34.999Z</time></trkpt><trkpt lat="43.10600441617944" lon="11.037628840640497"><ele>423.0</ele><time>2026-04-26T15:44:35.999Z</time></trkpt><trkpt lat="43.10598642773091" lon="11.03737587052418"><ele>423.0</ele><time>2026-04-26T15:44:36.999Z</time></trkpt><trkpt lat="43.10595708980637" lon="11.037125877996136"><ele>423.0</ele><time>2026-04-26T15:44:37.999Z</time></trkpt><trkpt lat="43.10592434637463" lon="11.036879148578882"><ele>423.0</ele><time>2026-04-26T15:44:38.999Z</time></trkpt><trkpt lat="43.10589315645576" lon="11.036640499429092"><ele>421.0</ele><time>2026-04-26T15:44:39.999Z</time></trkpt><trkpt lat="43.10585356666666" lon="11.036411241721453"><ele>419.0</ele><time>2026-04-26T15:44:40.999Z</time></trkpt><trkpt lat="43.10579950291632" lon="11.036195558047124"><ele>417.0</ele><time>2026-04-26T15:44:41.999Z</time></trkpt><trkpt lat="43.105720559544146" lon="11.03600751301989"><ele>416.75</ele><time>2026-04-26T15:44:42.999Z</time></trkpt><trkpt lat="43.10562199414258" lon="11.035863615245017"><ele>416.5</ele><time>2026-04-26T15:44:43.999Z</time></trkpt><trkpt lat="43.10550508648829" lon="11.035755885792325"><ele>416.25</ele><time>2026-04-26T15:44:44.999Z</time></trkpt><trkpt lat="43.10536416196228" lon="11.035713298248885"><ele>416.0</ele><time>2026-04-26T15:44:45.999Z</time></trkpt><trkpt lat="43.10521253446466" lon="11.035729686448501"><ele>416.0</ele><time>2026-04-26T15:44:46.999Z</time></trkpt><trkpt lat="43.10505760566768" lon="11.035773188887166"><ele>416.0</ele><time>2026-04-26T15:44:47.999Z</time></trkpt><trkpt lat="43.1048753875731" lon="11.03579317788404"><ele>416.0</ele><time>2026-04-26T15:44:48.999Z</time></trkpt><trkpt lat="43.1047198435226" lon="11.035729437506115"><ele>418.3333333333333</ele><time>2026-04-26T15:44:49.999Z</time></trkpt><trkpt lat="43.10461130264923" lon="11.035590875094552"><ele>420.66666666666663</ele><time>2026-04-26T15:44:50.999Z</time></trkpt><trkpt lat="43.10445432172123" lon="11.035486976830342"><ele>423.0</ele><time>2026-04-26T15:44:51.999Z</time></trkpt><trkpt lat="43.104304140035865" lon="11.035414893739777"><ele>423.0</ele><time>2026-04-26T15:44:52.999Z</time></trkpt><trkpt lat="43.104130667831114" lon="11.035367733477704"><ele>423.0</ele><time>2026-04-26T15:44:53.999Z</time></trkpt><trkpt lat="43.103942978733784" lon="11.03531546281398"><ele>423.0</ele><time>2026-04-26T15:44:54.999Z</time></trkpt><trkpt lat="43.10377589336125" lon="11.035246768194328"><ele>428.33333333333337</ele><time>2026-04-26T15:44:55.999Z</time></trkpt><trkpt lat="43.10359723317566" lon="11.035177407331966"><ele>433.6666666666667</ele><time>2026-04-26T15:44:56.999Z</time></trkpt><trkpt lat="43.10341641353707" lon="11.03513999050487"><ele>439.0</ele><time>2026-04-26T15:44:57.999Z</time></trkpt><trkpt lat="43.10324086519368" lon="11.035104806403707"><ele>435.33333333333337</ele><time>2026-04-26T15:44:58.999Z</time></trkpt><trkpt lat="43.103090890960694" lon="11.035036809300335"><ele>431.66666666666663</ele><time>2026-04-26T15:44:59.999Z</time></trkpt><trkpt lat="43.10296537285507" lon="11.034933146718442"><ele>428.0</ele><time>2026-04-26T15:45:00.999Z</time></trkpt><trkpt lat="43.10283345804703" lon="11.034820326463056"><ele>428.0</ele><time>2026-04-26T15:45:01.999Z</time></trkpt><trkpt lat="43.10273366536239" lon="11.034664969131466"><ele>428.0</ele><time>2026-04-26T15:45:02.999Z</time></trkpt><trkpt lat="43.102600376437316" lon="11.034567952232901"><ele>428.0</ele><time>2026-04-26T15:45:03.999Z</time></trkpt><trkpt lat="43.102459730617795" lon="11.034506869618449"><ele>429.75</ele><time>2026-04-26T15:45:04.999Z</time></trkpt><trkpt lat="43.10234156599816" lon="11.034529452027511"><ele>431.5</ele><time>2026-04-26T15:45:05.999Z</time></trkpt><trkpt lat="43.10219995506444" lon="11.03459244571003"><ele>433.25</ele><time>2026-04-26T15:45:06.999Z</time></trkpt><trkpt lat="43.10206132147476" lon="11.03471158660738"><ele>435.0</ele><time>2026-04-26T15:45:07.999Z</time></trkpt><trkpt lat="43.1019169878046" lon="11.034826559103182"><ele>435.0</ele><time>2026-04-26T15:45:08.999Z</time></trkpt><trkpt lat="43.10176873742185" lon="11.034916993876646"><ele>435.0</ele><time>2026-04-26T15:45:09.998Z</time></trkpt><trkpt lat="43.10159695563597" lon="11.034932650375344"><ele>435.0</ele><time>2026-04-26T15:45:10.998Z</time></trkpt><trkpt lat="43.10142221694488" lon="11.034914042727983"><ele>437.66666666666663</ele><time>2026-04-26T15:45:11.998Z</time></trkpt><trkpt lat="43.10125847539739" lon="11.03491161654092"><ele>440.3333333333333</ele><time>2026-04-26T15:45:12.998Z</time></trkpt><trkpt lat="43.101086433070414" lon="11.034935189013824"><ele>443.0</ele><time>2026-04-26T15:45:13.998Z</time></trkpt><trkpt lat="43.1009135687757" lon="11.034977977699196"><ele>443.5</ele><time>2026-04-26T15:45:14.998Z</time></trkpt><trkpt lat="43.10076937304988" lon="11.035082350460845"><ele>444.0</ele><time>2026-04-26T15:45:15.998Z</time></trkpt><trkpt lat="43.10067274914082" lon="11.03523044900052"><ele>444.5</ele><time>2026-04-26T15:45:16.998Z</time></trkpt><trkpt lat="43.10058900551101" lon="11.035375565337207"><ele>445.0</ele><time>2026-04-26T15:45:17.998Z</time></trkpt><trkpt lat="43.100467948473735" lon="11.03549071451751"><ele>445.0</ele><time>2026-04-26T15:45:18.998Z</time></trkpt><trkpt lat="43.10031743630076" lon="11.035565653883834"><ele>445.0</ele><time>2026-04-26T15:45:19.998Z</time></trkpt><trkpt lat="43.100156528747874" lon="11.035589661460573"><ele>445.0</ele><time>2026-04-26T15:45:20.998Z</time></trkpt><trkpt lat="43.09999207734731" lon="11.035599176624231"><ele>443.0</ele><time>2026-04-26T15:45:21.998Z</time></trkpt><trkpt lat="43.09983261061525" lon="11.035573207864108"><ele>441.0</ele><time>2026-04-26T15:45:22.998Z</time></trkpt><trkpt lat="43.099705895448274" lon="11.035583814435538"><ele>439.0</ele><time>2026-04-26T15:45:23.998Z</time></trkpt><trkpt lat="43.09953759676137" lon="11.03559437981397"><ele>439.0</ele><time>2026-04-26T15:45:24.998Z</time></trkpt><trkpt lat="43.09936057187142" lon="11.035585421431309"><ele>439.0</ele><time>2026-04-26T15:45:25.998Z</time></trkpt><trkpt lat="43.09918744923064" lon="11.035592526889454"><ele>439.0</ele><time>2026-04-26T15:45:26.998Z</time></trkpt><trkpt lat="43.099022978361724" lon="11.035609459486341"><ele>444.75</ele><time>2026-04-26T15:45:27.998Z</time></trkpt><trkpt lat="43.09887841323881" lon="11.03556245476507"><ele>450.5</ele><time>2026-04-26T15:45:28.998Z</time></trkpt><trkpt lat="43.09875048612998" lon="11.035470606180368"><ele>456.25</ele><time>2026-04-26T15:45:29.998Z</time></trkpt><trkpt lat="43.09865441333435" lon="11.035335274832613"><ele>462.0</ele><time>2026-04-26T15:45:30.998Z</time></trkpt><trkpt lat="43.09857342610792" lon="11.03514351172729"><ele>456.33333333333337</ele><time>2026-04-26T15:45:31.998Z</time></trkpt><trkpt lat="43.098540190310935" lon="11.034903926522412"><ele>450.6666666666667</ele><time>2026-04-26T15:45:32.998Z</time></trkpt><trkpt lat="43.098511917264084" lon="11.034654730966585"><ele>445.0</ele><time>2026-04-26T15:45:33.998Z</time></trkpt><trkpt lat="43.09847631234427" lon="11.034397888568398"><ele>445.0</ele><time>2026-04-26T15:45:34.998Z</time></trkpt><trkpt lat="43.09843185565812" lon="11.034143283623614"><ele>445.0</ele><time>2026-04-26T15:45:35.998Z</time></trkpt><trkpt lat="43.09840311993705" lon="11.033896388061995"><ele>445.0</ele><time>2026-04-26T15:45:36.998Z</time></trkpt><trkpt lat="43.09837290669254" lon="11.033654194264424"><ele>446.6666666666667</ele><time>2026-04-26T15:45:37.998Z</time></trkpt><trkpt lat="43.09834303843115" lon="11.033412989038878"><ele>448.33333333333337</ele><time>2026-04-26T15:45:38.998Z</time></trkpt><trkpt lat="43.09830790342221" lon="11.033177399781843"><ele>450.0</ele><time>2026-04-26T15:45:39.998Z</time></trkpt><trkpt lat="43.098250626540484" lon="11.03295120346891"><ele>451.33333333333337</ele><time>2026-04-26T15:45:40.998Z</time></trkpt><trkpt lat="43.09816973346162" lon="11.032747715408767"><ele>452.6666666666667</ele><time>2026-04-26T15:45:41.998Z</time></trkpt><trkpt lat="43.098067047592224" lon="11.03257409857816"><ele>454.0</ele><time>2026-04-26T15:45:42.998Z</time></trkpt><trkpt lat="43.09795150656883" lon="11.032421737000275"><ele>454.0</ele><time>2026-04-26T15:45:43.998Z</time></trkpt><trkpt lat="43.09781475634081" lon="11.032295618165644"><ele>454.0</ele><time>2026-04-26T15:45:44.998Z</time></trkpt><trkpt lat="43.09765975877652" lon="11.032189597335611"><ele>454.0</ele><time>2026-04-26T15:45:45.998Z</time></trkpt><trkpt lat="43.09747627236403" lon="11.032107694360747"><ele>454.6666666666667</ele><time>2026-04-26T15:45:46.998Z</time></trkpt><trkpt lat="43.09728950694792" lon="11.032016889005241"><ele>455.33333333333337</ele><time>2026-04-26T15:45:47.998Z</time></trkpt><trkpt lat="43.09708090428687" lon="11.0319339964682"><ele>456.0</ele><time>2026-04-26T15:45:48.998Z</time></trkpt><trkpt lat="43.09687579464815" lon="11.031835206107628"><ele>456.0</ele><time>2026-04-26T15:45:49.998Z</time></trkpt><trkpt lat="43.096670839426075" lon="11.031741546206366"><ele>456.0</ele><time>2026-04-26T15:45:50.998Z</time></trkpt><trkpt lat="43.09648053912237" lon="11.031646853148109"><ele>456.0</ele><time>2026-04-26T15:45:51.998Z</time></trkpt><trkpt lat="43.09629103074913" lon="11.031558154241008"><ele>455.0</ele><time>2026-04-26T15:45:52.998Z</time></trkpt><trkpt lat="43.09609683866285" lon="11.03147240182668"><ele>454.0</ele><time>2026-04-26T15:45:54Z</time></trkpt><trkpt lat="43.09590806020221" lon="11.031383814364089"><ele>453.0</ele><time>2026-04-26T15:45:55Z</time></trkpt><trkpt lat="43.09572101413968" lon="11.03129257776873"><ele>457.66666666666663</ele><time>2026-04-26T15:45:56Z</time></trkpt><trkpt lat="43.095544360111006" lon="11.031197792185251"><ele>462.3333333333333</ele><time>2026-04-26T15:45:57Z</time></trkpt><trkpt lat="43.0953873688812" lon="11.031070147476497"><ele>467.0</ele><time>2026-04-26T15:45:58Z</time></trkpt><trkpt lat="43.09525449250083" lon="11.030907368415942"><ele>463.0</ele><time>2026-04-26T15:45:59Z</time></trkpt><trkpt lat="43.09513464489211" lon="11.03070779062215"><ele>459.0</ele><time>2026-04-26T15:46:00Z</time></trkpt><trkpt lat="43.09502259642867" lon="11.030490852208617"><ele>455.0</ele><time>2026-04-26T15:46:01Z</time></trkpt><trkpt lat="43.09492182940057" lon="11.030270082942403"><ele>455.3333333333333</ele><time>2026-04-26T15:46:02Z</time></trkpt><trkpt lat="43.09481417140714" lon="11.030054231908801"><ele>455.66666666666663</ele><time>2026-04-26T15:46:03Z</time></trkpt><trkpt lat="43.094691903529494" lon="11.029848894979072"><ele>456.0</ele><time>2026-04-26T15:46:04Z</time></trkpt><trkpt lat="43.094565768669966" lon="11.029641747074345"><ele>456.0</ele><time>2026-04-26T15:46:05Z</time></trkpt><trkpt lat="43.09443932233349" lon="11.029438420544498"><ele>456.0</ele><time>2026-04-26T15:46:06Z</time></trkpt><trkpt lat="43.09430902845933" lon="11.02923381819418"><ele>456.0</ele><time>2026-04-26T15:46:07Z</time></trkpt><trkpt lat="43.09418083300664" lon="11.029025329039882"><ele>458.0</ele><time>2026-04-26T15:46:08Z</time></trkpt><trkpt lat="43.09405619209992" lon="11.028819354843089"><ele>460.0</ele><time>2026-04-26T15:46:09Z</time></trkpt><trkpt lat="43.09392443350866" lon="11.02863561344823"><ele>462.0</ele><time>2026-04-26T15:46:10Z</time></trkpt><trkpt lat="43.09377294519937" lon="11.028483311954538"><ele>462.0</ele><time>2026-04-26T15:46:11Z</time></trkpt><trkpt lat="43.09360902484643" lon="11.028359188798605"><ele>462.0</ele><time>2026-04-26T15:46:12Z</time></trkpt><trkpt lat="43.09345902691537" lon="11.028261378451338"><ele>462.0</ele><time>2026-04-26T15:46:13Z</time></trkpt><trkpt lat="43.093358072219736" lon="11.02813593189862"><ele>462.0</ele><time>2026-04-26T15:46:14Z</time></trkpt><trkpt lat="43.09324905182887" lon="11.027986099978833"><ele>462.0</ele><time>2026-04-26T15:46:15Z</time></trkpt><trkpt lat="43.093185849692624" lon="11.027809378311197"><ele>462.0</ele><time>2026-04-26T15:46:16Z</time></trkpt><trkpt lat="43.093139984229396" lon="11.027601558521757"><ele>466.66666666666663</ele><time>2026-04-26T15:46:17Z</time></trkpt><trkpt lat="43.093109352727694" lon="11.027351605498247"><ele>471.3333333333333</ele><time>2026-04-26T15:46:18Z</time></trkpt><trkpt lat="43.09307508080173" lon="11.027098895269344"><ele>476.0</ele><time>2026-04-26T15:46:19Z</time></trkpt><trkpt lat="43.092981861466306" lon="11.026981668204273"><ele>476.0</ele><time>2026-04-26T15:46:20Z</time></trkpt><trkpt lat="43.09286632612091" lon="11.026857801297174"><ele>476.0</ele><time>2026-04-26T15:46:21Z</time></trkpt><trkpt lat="43.092701253486226" lon="11.026732415151573"><ele>476.0</ele><time>2026-04-26T15:46:22Z</time></trkpt><trkpt lat="43.09251902965783" lon="11.026662821779023"><ele>473.3333333333333</ele><time>2026-04-26T15:46:23Z</time></trkpt><trkpt lat="43.092338097996176" lon="11.026649369944618"><ele>470.66666666666663</ele><time>2026-04-26T15:46:23.999Z</time></trkpt><trkpt lat="43.092080437317875" lon="11.026739570892595"><ele>468.0</ele><time>2026-04-26T15:46:24.999Z</time></trkpt><trkpt lat="43.09187920229727" lon="11.026619512922078"><ele>468.0</ele><time>2026-04-26T15:46:25.999Z</time></trkpt><trkpt lat="43.09169698142869" lon="11.02649696918438"><ele>468.0</ele><time>2026-04-26T15:46:26.999Z</time></trkpt><trkpt lat="43.091552648583416" lon="11.026361667142565"><ele>468.0</ele><time>2026-04-26T15:46:27.999Z</time></trkpt><trkpt lat="43.091417702948085" lon="11.026222638220169"><ele>467.0</ele><time>2026-04-26T15:46:28.999Z</time></trkpt><trkpt lat="43.09123804787223" lon="11.026117294331494"><ele>466.0</ele><time>2026-04-26T15:46:29.999Z</time></trkpt><trkpt lat="43.0910471599259" lon="11.026047101067602"><ele>465.0</ele><time>2026-04-26T15:46:30.999Z</time></trkpt><trkpt lat="43.090870773743546" lon="11.025993391790166"><ele>466.66666666666663</ele><time>2026-04-26T15:46:31.999Z</time></trkpt><trkpt lat="43.09068053432353" lon="11.025957218593875"><ele>468.3333333333333</ele><time>2026-04-26T15:46:32.999Z</time></trkpt><trkpt lat="43.09048667238021" lon="11.025919495565713"><ele>470.0</ele><time>2026-04-26T15:46:33.999Z</time></trkpt><trkpt lat="43.090284160938936" lon="11.025884536387762"><ele>470.0</ele><time>2026-04-26T15:46:34.999Z</time></trkpt><trkpt lat="43.09009875601218" lon="11.025848690987987"><ele>470.0</ele><time>2026-04-26T15:46:35.999Z</time></trkpt><trkpt lat="43.08991524997649" lon="11.025805055900124"><ele>470.0</ele><time>2026-04-26T15:46:36.999Z</time></trkpt><trkpt lat="43.089741796077085" lon="11.025715701913807"><ele>471.0</ele><time>2026-04-26T15:46:37.999Z</time></trkpt><trkpt lat="43.08958076450069" lon="11.02557477811483"><ele>472.0</ele><time>2026-04-26T15:46:38.999Z</time></trkpt><trkpt lat="43.08943781561931" lon="11.025414449646581"><ele>473.0</ele><time>2026-04-26T15:46:39.999Z</time></trkpt><trkpt lat="43.0892896800916" lon="11.025253304009949"><ele>473.0</ele><time>2026-04-26T15:46:40.999Z</time></trkpt><trkpt lat="43.08912983735488" lon="11.025107172587512"><ele>473.0</ele><time>2026-04-26T15:46:41.999Z</time></trkpt><trkpt lat="43.088971150251325" lon="11.024958683541444"><ele>473.0</ele><time>2026-04-26T15:46:42.999Z</time></trkpt><trkpt lat="43.08882025275861" lon="11.024811829523955"><ele>470.0</ele><time>2026-04-26T15:46:43.999Z</time></trkpt><trkpt lat="43.08867368104787" lon="11.024666422648261"><ele>467.0</ele><time>2026-04-26T15:46:44.999Z</time></trkpt><trkpt lat="43.08853341771867" lon="11.024537048550872"><ele>464.0</ele><time>2026-04-26T15:46:45.999Z</time></trkpt><trkpt lat="43.08838618776181" lon="11.024440184506272"><ele>468.75</ele><time>2026-04-26T15:46:46.999Z</time></trkpt><trkpt lat="43.088244567545225" lon="11.024393474617419"><ele>473.5</ele><time>2026-04-26T15:46:47.999Z</time></trkpt><trkpt lat="43.08811477110281" lon="11.024386511220047"><ele>478.25</ele><time>2026-04-26T15:46:48.999Z</time></trkpt><trkpt lat="43.087986343067804" lon="11.024440419393242"><ele>483.0</ele><time>2026-04-26T15:46:49.999Z</time></trkpt><trkpt lat="43.08786436988965" lon="11.02453584394531"><ele>483.0</ele><time>2026-04-26T15:46:50.999Z</time></trkpt><trkpt lat="43.08773469596126" lon="11.024671253420355"><ele>483.0</ele><time>2026-04-26T15:46:51.999Z</time></trkpt><trkpt lat="43.08760482926546" lon="11.024819018673512"><ele>483.0</ele><time>2026-04-26T15:46:52.999Z</time></trkpt><trkpt lat="43.08748815367013" lon="11.024983444852412"><ele>483.66666666666663</ele><time>2026-04-26T15:46:53.999Z</time></trkpt><trkpt lat="43.08736711725275" lon="11.02518239678712"><ele>484.3333333333333</ele><time>2026-04-26T15:46:54.999Z</time></trkpt><trkpt lat="43.08724429742554" lon="11.025388884801453"><ele>485.0</ele><time>2026-04-26T15:46:55.999Z</time></trkpt><trkpt lat="43.08711264725039" lon="11.0255886287395"><ele>485.0</ele><time>2026-04-26T15:46:56.999Z</time></trkpt><trkpt lat="43.08695474786991" lon="11.025756827028351"><ele>485.0</ele><time>2026-04-26T15:46:57.999Z</time></trkpt><trkpt lat="43.08677148247302" lon="11.025879834437806"><ele>485.0</ele><time>2026-04-26T15:46:58.999Z</time></trkpt><trkpt lat="43.086582598998895" lon="11.025930818567844"><ele>481.3333333333333</ele><time>2026-04-26T15:46:59.999Z</time></trkpt><trkpt lat="43.086393809980706" lon="11.02599717639968"><ele>477.66666666666663</ele><time>2026-04-26T15:47:00.999Z</time></trkpt><trkpt lat="43.08618073122107" lon="11.0260356489572"><ele>474.0</ele><time>2026-04-26T15:47:01.999Z</time></trkpt><trkpt lat="43.08598017682637" lon="11.026073215722128"><ele>474.0</ele><time>2026-04-26T15:47:02.999Z</time></trkpt><trkpt lat="43.08578180175573" lon="11.026101857540008"><ele>474.0</ele><time>2026-04-26T15:47:03.999Z</time></trkpt><trkpt lat="43.085585941286595" lon="11.026103487845198"><ele>474.0</ele><time>2026-04-26T15:47:04.999Z</time></trkpt><trkpt lat="43.08538755113899" lon="11.026072389444884"><ele>474.0</ele><time>2026-04-26T15:47:05.999Z</time></trkpt><trkpt lat="43.08519529075531" lon="11.0259988501059"><ele>474.0</ele><time>2026-04-26T15:47:06.999Z</time></trkpt><trkpt lat="43.08499735715686" lon="11.025927301648808"><ele>474.0</ele><time>2026-04-26T15:47:07.999Z</time></trkpt><trkpt lat="43.08480372997153" lon="11.02586704036551"><ele>473.33333333333337</ele><time>2026-04-26T15:47:08.999Z</time></trkpt><trkpt lat="43.08461802267707" lon="11.02581842338594"><ele>472.6666666666667</ele><time>2026-04-26T15:47:09.999Z</time></trkpt><trkpt lat="43.084448382114786" lon="11.025749931125633"><ele>472.0</ele><time>2026-04-26T15:47:10.999Z</time></trkpt><trkpt lat="43.08427497735552" lon="11.025754828231047"><ele>474.6666666666667</ele><time>2026-04-26T15:47:11.999Z</time></trkpt><trkpt lat="43.08411491701382" lon="11.025718470450077"><ele>477.33333333333337</ele><time>2026-04-26T15:47:12.999Z</time></trkpt><trkpt lat="43.08395520720343" lon="11.025672055516047"><ele>480.0</ele><time>2026-04-26T15:47:13.999Z</time></trkpt><trkpt lat="43.08380056847584" lon="11.0256487516551"><ele>480.0</ele><time>2026-04-26T15:47:14.999Z</time></trkpt><trkpt lat="43.08364209146941" lon="11.02563007137212"><ele>480.0</ele><time>2026-04-26T15:47:15.999Z</time></trkpt><trkpt lat="43.083499871604346" lon="11.025634219391076"><ele>480.0</ele><time>2026-04-26T15:47:16.999Z</time></trkpt><trkpt lat="43.083374908361115" lon="11.025615787466203"><ele>480.0</ele><time>2026-04-26T15:47:17.999Z</time></trkpt><trkpt lat="43.08327841601578" lon="11.025552183631897"><ele>480.75</ele><time>2026-04-26T15:47:18.998Z</time></trkpt><trkpt lat="43.08322095948507" lon="11.025434673957681"><ele>481.5</ele><time>2026-04-26T15:47:19.998Z</time></trkpt><trkpt lat="43.083194083989774" lon="11.025247925808756"><ele>482.25</ele><time>2026-04-26T15:47:20.998Z</time></trkpt><trkpt lat="43.083190392889534" lon="11.02504921003905"><ele>483.0</ele><time>2026-04-26T15:47:21.998Z</time></trkpt><trkpt lat="43.08316067429193" lon="11.024853661029537"><ele>483.0</ele><time>2026-04-26T15:47:22.998Z</time></trkpt><trkpt lat="43.08313923434153" lon="11.024638554052553"><ele>483.0</ele><time>2026-04-26T15:47:23.998Z</time></trkpt><trkpt lat="43.083077554584364" lon="11.02443635518566"><ele>483.0</ele><time>2026-04-26T15:47:24.998Z</time></trkpt><trkpt lat="43.08300877688964" lon="11.024230612513122"><ele>483.0</ele><time>2026-04-26T15:47:25.998Z</time></trkpt><trkpt lat="43.08293989450108" lon="11.024031391767634"><ele>483.0</ele><time>2026-04-26T15:47:26.998Z</time></trkpt><trkpt lat="43.08286892897176" lon="11.023826146117232"><ele>483.0</ele><time>2026-04-26T15:47:27.998Z</time></trkpt><trkpt lat="43.08278216692699" lon="11.023623587832533"><ele>483.0</ele><time>2026-04-26T15:47:28.998Z</time></trkpt><trkpt lat="43.08272138746735" lon="11.023400102944914"><ele>483.0</ele><time>2026-04-26T15:47:29.998Z</time></trkpt><trkpt lat="43.08264358045865" lon="11.023175511326485"><ele>483.0</ele><time>2026-04-26T15:47:30.998Z</time></trkpt><trkpt lat="43.08256302568014" lon="11.022943913392211"><ele>483.33333333333337</ele><time>2026-04-26T15:47:31.998Z</time></trkpt><trkpt lat="43.08247994951379" lon="11.022720459318071"><ele>483.6666666666667</ele><time>2026-04-26T15:47:32.998Z</time></trkpt><trkpt lat="43.08239817742355" lon="11.022509006302025"><ele>484.0</ele><time>2026-04-26T15:47:33.998Z</time></trkpt><trkpt lat="43.08231617145934" lon="11.022310351278618"><ele>484.0</ele><time>2026-04-26T15:47:34.998Z</time></trkpt><trkpt lat="43.082238400182675" lon="11.022124234645318"><ele>484.0</ele><time>2026-04-26T15:47:35.998Z</time></trkpt><trkpt lat="43.082161030577225" lon="11.021933458509906"><ele>484.0</ele><time>2026-04-26T15:47:36.998Z</time></trkpt><trkpt lat="43.082101752708574" lon="11.02174351017212"><ele>483.33333333333337</ele><time>2026-04-26T15:47:37.998Z</time></trkpt><trkpt lat="43.08206153750431" lon="11.021539788216382"><ele>482.66666666666663</ele><time>2026-04-26T15:47:38.998Z</time></trkpt><trkpt lat="43.082026878773654" lon="11.021326034814944"><ele>482.0</ele><time>2026-04-26T15:47:39.998Z</time></trkpt><trkpt lat="43.08198770211452" lon="11.021116680992101"><ele>482.0</ele><time>2026-04-26T15:47:40.998Z</time></trkpt><trkpt lat="43.08194012810996" lon="11.020914124777287"><ele>482.0</ele><time>2026-04-26T15:47:41.998Z</time></trkpt><trkpt lat="43.08186851494122" lon="11.020719758879874"><ele>482.0</ele><time>2026-04-26T15:47:42.998Z</time></trkpt><trkpt lat="43.081764001990244" lon="11.02056813699906"><ele>481.66666666666663</ele><time>2026-04-26T15:47:43.998Z</time></trkpt><trkpt lat="43.08165854949058" lon="11.020418735926745"><ele>481.33333333333337</ele><time>2026-04-26T15:47:44.998Z</time></trkpt><trkpt lat="43.0815327125235" lon="11.02028736771495"><ele>481.0</ele><time>2026-04-26T15:47:45.998Z</time></trkpt><trkpt lat="43.081387805498025" lon="11.020157390165425"><ele>481.0</ele><time>2026-04-26T15:47:46.998Z</time></trkpt><trkpt lat="43.08123813826627" lon="11.020031648090145"><ele>481.0</ele><time>2026-04-26T15:47:47.998Z</time></trkpt><trkpt lat="43.08108176304013" lon="11.019927086902143"><ele>481.0</ele><time>2026-04-26T15:47:48.998Z</time></trkpt><trkpt lat="43.080930705071104" lon="11.01980686342979"><ele>479.0</ele><time>2026-04-26T15:47:49.998Z</time></trkpt><trkpt lat="43.08077165650788" lon="11.019697873281553"><ele>477.0</ele><time>2026-04-26T15:47:50.998Z</time></trkpt><trkpt lat="43.08061109615075" lon="11.019587685013384"><ele>475.0</ele><time>2026-04-26T15:47:51.998Z</time></trkpt><trkpt lat="43.080442087113575" lon="11.019492658333391"><ele>475.0</ele><time>2026-04-26T15:47:52.998Z</time></trkpt><trkpt lat="43.0802700791535" lon="11.019412900566806"><ele>475.0</ele><time>2026-04-26T15:47:53.998Z</time></trkpt><trkpt lat="43.08010808266365" lon="11.019335732460265"><ele>475.0</ele><time>2026-04-26T15:47:54.998Z</time></trkpt><trkpt lat="43.07995748876577" lon="11.019261308478125"><ele>475.0</ele><time>2026-04-26T15:47:55.998Z</time></trkpt><trkpt lat="43.079814886201376" lon="11.019201491388179"><ele>475.0</ele><time>2026-04-26T15:47:56.998Z</time></trkpt><trkpt lat="43.07968145389941" lon="11.019138091215314"><ele>475.0</ele><time>2026-04-26T15:47:57.998Z</time></trkpt><trkpt lat="43.07955013871663" lon="11.019089630045855"><ele>475.0</ele><time>2026-04-26T15:47:58.998Z</time></trkpt><trkpt lat="43.07943199518218" lon="11.01904016180693"><ele>474.6</ele><time>2026-04-26T15:48:00Z</time></trkpt><trkpt lat="43.07932323288531" lon="11.018989428263602"><ele>474.2</ele><time>2026-04-26T15:48:01Z</time></trkpt><trkpt lat="43.079223511462786" lon="11.018932548000226"><ele>473.79999999999995</ele><time>2026-04-26T15:48:02Z</time></trkpt><trkpt lat="43.079129535348784" lon="11.018877583982832"><ele>473.4</ele><time>2026-04-26T15:48:03Z</time></trkpt><trkpt lat="43.079034846660456" lon="11.018826021494379"><ele>473.0</ele><time>2026-04-26T15:48:04Z</time></trkpt><trkpt lat="43.07894477387378" lon="11.018761945098028"><ele>473.0</ele><time>2026-04-26T15:48:05Z</time></trkpt><trkpt lat="43.07887389145836" lon="11.018666144263493"><ele>472.99999999999994</ele><time>2026-04-26T15:48:06Z</time></trkpt><trkpt lat="43.07881510051135" lon="11.018582743253475"><ele>472.99999999999994</ele><time>2026-04-26T15:48:07Z</time></trkpt><trkpt lat="43.07878528992561" lon="11.018483074612993"><ele>473.0</ele><time>2026-04-26T15:48:08Z</time></trkpt><trkpt lat="43.07872691579241" lon="11.01837313275493"><ele>473.0</ele><time>2026-04-26T15:48:10Z</time></trkpt><trkpt lat="43.078569359807794" lon="11.018510309688178"><ele>473.0</ele><time>2026-04-26T15:48:11Z</time></trkpt><trkpt lat="43.07848837507828" lon="11.018499198075274"><ele>472.99999999999994</ele><time>2026-04-26T15:48:12Z</time></trkpt><trkpt lat="43.07839513069239" lon="11.018499861274536"><ele>472.99999999999994</ele><time>2026-04-26T15:48:13Z</time></trkpt><trkpt lat="43.07829782920596" lon="11.018456799005168"><ele>473.0</ele><time>2026-04-26T15:48:14Z</time></trkpt><trkpt lat="43.078194613972826" lon="11.018384241907013"><ele>473.0</ele><time>2026-04-26T15:48:15Z</time></trkpt><trkpt lat="43.07807982951744" lon="11.018312720344532"><ele>473.25</ele><time>2026-04-26T15:48:16Z</time></trkpt><trkpt lat="43.07795908685657" lon="11.018249168404694"><ele>473.5</ele><time>2026-04-26T15:48:17Z</time></trkpt><trkpt lat="43.07783571766488" lon="11.018175338346708"><ele>473.75</ele><time>2026-04-26T15:48:18Z</time></trkpt><trkpt lat="43.077704515548646" lon="11.018099621035821"><ele>474.0</ele><time>2026-04-26T15:48:19Z</time></trkpt><trkpt lat="43.077565824169845" lon="11.01802065285972"><ele>474.66666666666663</ele><time>2026-04-26T15:48:20Z</time></trkpt><trkpt lat="43.07742309488575" lon="11.017921332355419"><ele>475.3333333333333</ele><time>2026-04-26T15:48:21Z</time></trkpt><trkpt lat="43.077275362095556" lon="11.017809876190906"><ele>476.0</ele><time>2026-04-26T15:48:22Z</time></trkpt><trkpt lat="43.077130097755116" lon="11.017695792956259"><ele>476.0</ele><time>2026-04-26T15:48:23Z</time></trkpt><trkpt lat="43.07698877581209" lon="11.01760308932392"><ele>476.0</ele><time>2026-04-26T15:48:24Z</time></trkpt><trkpt lat="43.07682998460886" lon="11.017531485748687"><ele>476.0</ele><time>2026-04-26T15:48:25Z</time></trkpt><trkpt lat="43.07665864848872" lon="11.017490568765952"><ele>476.0</ele><time>2026-04-26T15:48:26Z</time></trkpt><trkpt lat="43.07647529188391" lon="11.017471956322805"><ele>476.0</ele><time>2026-04-26T15:48:27Z</time></trkpt><trkpt lat="43.07627866833476" lon="11.017468530642441"><ele>476.0</ele><time>2026-04-26T15:48:28Z</time></trkpt><trkpt lat="43.07607268948867" lon="11.017467904171914"><ele>476.0</ele><time>2026-04-26T15:48:28.999Z</time></trkpt><trkpt lat="43.075868780428685" lon="11.017460007417068"><ele>476.0</ele><time>2026-04-26T15:48:29.999Z</time></trkpt><trkpt lat="43.07567007697333" lon="11.017444362711892"><ele>476.0</ele><time>2026-04-26T15:48:30.999Z</time></trkpt><trkpt lat="43.07546986691308" lon="11.017428207486057"><ele>476.0</ele><time>2026-04-26T15:48:31.999Z</time></trkpt><trkpt lat="43.075265376171444" lon="11.017403280031946"><ele>476.0</ele><time>2026-04-26T15:48:32.999Z</time></trkpt><trkpt lat="43.0750620457456" lon="11.01736325096485"><ele>476.0</ele><time>2026-04-26T15:48:33.999Z</time></trkpt><trkpt lat="43.07486136483072" lon="11.017317511609408"><ele>476.0</ele><time>2026-04-26T15:48:34.999Z</time></trkpt><trkpt lat="43.07466405425238" lon="11.017274903223347"><ele>476.0</ele><time>2026-04-26T15:48:35.999Z</time></trkpt><trkpt lat="43.0744630889661" lon="11.01723986912753"><ele>476.0</ele><time>2026-04-26T15:48:36.999Z</time></trkpt><trkpt lat="43.07426299401544" lon="11.017205114324502"><ele>476.0</ele><time>2026-04-26T15:48:37.999Z</time></trkpt><trkpt lat="43.07406172001264" lon="11.017163870308734"><ele>476.0</ele><time>2026-04-26T15:48:38.999Z</time></trkpt><trkpt lat="43.073859046212455" lon="11.017117164848493"><ele>476.0</ele><time>2026-04-26T15:48:39.999Z</time></trkpt><trkpt lat="43.07365575735815" lon="11.017069850127934"><ele>476.0</ele><time>2026-04-26T15:48:40.999Z</time></trkpt><trkpt lat="43.07344873905946" lon="11.017020001604207"><ele>476.0</ele><time>2026-04-26T15:48:41.999Z</time></trkpt><trkpt lat="43.073241125568046" lon="11.016961797465418"><ele>476.0</ele><time>2026-04-26T15:48:42.999Z</time></trkpt><trkpt lat="43.073024009869826" lon="11.016880568181799"><ele>477.0</ele><time>2026-04-26T15:48:43.999Z</time></trkpt><trkpt lat="43.072786973203435" lon="11.016853080427659"><ele>478.0</ele><time>2026-04-26T15:48:44.999Z</time></trkpt><trkpt lat="43.07255025125129" lon="11.016872084693823"><ele>479.0</ele><time>2026-04-26T15:48:45.999Z</time></trkpt><trkpt lat="43.07232963171768" lon="11.016865681369575"><ele>480.0</ele><time>2026-04-26T15:48:46.999Z</time></trkpt><trkpt lat="43.072126501377085" lon="11.016870508332968"><ele>481.0</ele><time>2026-04-26T15:48:47.999Z</time></trkpt><trkpt lat="43.07193605928756" lon="11.016913929600546"><ele>481.0</ele><time>2026-04-26T15:48:48.999Z</time></trkpt><trkpt lat="43.071743529066666" lon="11.017015891651848"><ele>481.0</ele><time>2026-04-26T15:48:49.999Z</time></trkpt><trkpt lat="43.071550458528165" lon="11.017141884574944"><ele>481.0</ele><time>2026-04-26T15:48:50.999Z</time></trkpt><trkpt lat="43.07135330986945" lon="11.017267145328402"><ele>481.0</ele><time>2026-04-26T15:48:51.999Z</time></trkpt><trkpt lat="43.07114797697053" lon="11.017385610943995"><ele>481.0</ele><time>2026-04-26T15:48:52.999Z</time></trkpt><trkpt lat="43.07093874351489" lon="11.017498831407929"><ele>481.0</ele><time>2026-04-26T15:48:53.999Z</time></trkpt><trkpt lat="43.07073740568731" lon="11.017608979947022"><ele>481.6666666666667</ele><time>2026-04-26T15:48:54.999Z</time></trkpt><trkpt lat="43.07053484639427" lon="11.017717645701236"><ele>482.33333333333337</ele><time>2026-04-26T15:48:55.999Z</time></trkpt><trkpt lat="43.07034026671997" lon="11.017816261219263"><ele>483.0</ele><time>2026-04-26T15:48:56.999Z</time></trkpt><trkpt lat="43.07015479483949" lon="11.017907231121024"><ele>483.0</ele><time>2026-04-26T15:48:57.999Z</time></trkpt><trkpt lat="43.06997930680121" lon="11.01799732571689"><ele>483.0</ele><time>2026-04-26T15:48:58.999Z</time></trkpt><trkpt lat="43.06981509152474" lon="11.018086363498089"><ele>483.0</ele><time>2026-04-26T15:48:59.999Z</time></trkpt><trkpt lat="43.0696706159495" lon="11.01820699869692"><ele>489.0</ele><time>2026-04-26T15:49:00.999Z</time></trkpt><trkpt lat="43.06955059830734" lon="11.018374725416125"><ele>495.0</ele><time>2026-04-26T15:49:01.999Z</time></trkpt><trkpt lat="43.069461267996275" lon="11.0185807335069"><ele>501.0</ele><time>2026-04-26T15:49:02.999Z</time></trkpt><trkpt lat="43.06939873138543" lon="11.01880893670066"><ele>501.0</ele><time>2026-04-26T15:49:03.999Z</time></trkpt><trkpt lat="43.06933114204941" lon="11.019022856705693"><ele>501.0</ele><time>2026-04-26T15:49:04.999Z</time></trkpt><trkpt lat="43.069252865915885" lon="11.019220582690078"><ele>501.0</ele><time>2026-04-26T15:49:05.999Z</time></trkpt><trkpt lat="43.06911643791572" lon="11.019370775842194"><ele>498.66666666666663</ele><time>2026-04-26T15:49:06.999Z</time></trkpt><trkpt lat="43.06896793416029" lon="11.01944686869751"><ele>496.3333333333333</ele><time>2026-04-26T15:49:07.999Z</time></trkpt><trkpt lat="43.06880850380221" lon="11.019523082942248"><ele>494.0</ele><time>2026-04-26T15:49:08.999Z</time></trkpt><trkpt lat="43.06863520025329" lon="11.019538466404892"><ele>494.0</ele><time>2026-04-26T15:49:09.999Z</time></trkpt><trkpt lat="43.06844392731686" lon="11.019467258865003"><ele>494.0</ele><time>2026-04-26T15:49:10.999Z</time></trkpt><trkpt lat="43.06825405046602" lon="11.019426536014176"><ele>494.0</ele><time>2026-04-26T15:49:11.999Z</time></trkpt><trkpt lat="43.06805742799939" lon="11.019370580635751"><ele>489.5</ele><time>2026-04-26T15:49:12.999Z</time></trkpt><trkpt lat="43.06783635231282" lon="11.019316399374903"><ele>485.0</ele><time>2026-04-26T15:49:13.999Z</time></trkpt><trkpt lat="43.06761384390027" lon="11.019261617298444"><ele>486.5</ele><time>2026-04-26T15:49:14.999Z</time></trkpt><trkpt lat="43.06738017002498" lon="11.01921128541251"><ele>488.0</ele><time>2026-04-26T15:49:15.999Z</time></trkpt><trkpt lat="43.06714854263679" lon="11.01915395499865"><ele>486.5</ele><time>2026-04-26T15:49:16.999Z</time></trkpt><trkpt lat="43.066910757223965" lon="11.019079853255692"><ele>485.0</ele><time>2026-04-26T15:49:17.999Z</time></trkpt><trkpt lat="43.06667836613321" lon="11.018974550156218"><ele>486.0</ele><time>2026-04-26T15:49:18.999Z</time></trkpt><trkpt lat="43.06645107225409" lon="11.018851255749833"><ele>487.0</ele><time>2026-04-26T15:49:19.999Z</time></trkpt><trkpt lat="43.06621505030536" lon="11.018736011517866"><ele>487.0</ele><time>2026-04-26T15:49:20.999Z</time></trkpt><trkpt lat="43.065976452521" lon="11.018618506843453"><ele>487.0</ele><time>2026-04-26T15:49:21.999Z</time></trkpt><trkpt lat="43.06573097752705" lon="11.018563256305598"><ele>488.5</ele><time>2026-04-26T15:49:22.999Z</time></trkpt><trkpt lat="43.065495621050545" lon="11.018504567686538"><ele>490.0</ele><time>2026-04-26T15:49:23.999Z</time></trkpt><trkpt lat="43.06526919321313" lon="11.018464328657943"><ele>490.0</ele><time>2026-04-26T15:49:24.998Z</time></trkpt><trkpt lat="43.06504925365447" lon="11.018400346035124"><ele>490.0</ele><time>2026-04-26T15:49:25.998Z</time></trkpt><trkpt lat="43.06483421006353" lon="11.01835800666636"><ele>490.0</ele><time>2026-04-26T15:49:26.998Z</time></trkpt><trkpt lat="43.06461481251024" lon="11.018314810057737"><ele>486.0</ele><time>2026-04-26T15:49:27.998Z</time></trkpt><trkpt lat="43.064387737070234" lon="11.018266898002205"><ele>482.0</ele><time>2026-04-26T15:49:28.998Z</time></trkpt><trkpt lat="43.06415665213577" lon="11.018209899933389"><ele>483.3333333333333</ele><time>2026-04-26T15:49:29.998Z</time></trkpt><trkpt lat="43.06395628082198" lon="11.018133459661891"><ele>484.66666666666663</ele><time>2026-04-26T15:49:30.998Z</time></trkpt><trkpt lat="43.06375271761385" lon="11.018042391993143"><ele>486.0</ele><time>2026-04-26T15:49:31.998Z</time></trkpt><trkpt lat="43.06356514392965" lon="11.017976908791558"><ele>486.0</ele><time>2026-04-26T15:49:32.998Z</time></trkpt><trkpt lat="43.06336315208256" lon="11.017932028545632"><ele>486.0</ele><time>2026-04-26T15:49:33.998Z</time></trkpt><trkpt lat="43.06315409276771" lon="11.017910245524208"><ele>486.0</ele><time>2026-04-26T15:49:34.998Z</time></trkpt><trkpt lat="43.06292814814646" lon="11.017897721224287"><ele>488.0</ele><time>2026-04-26T15:49:35.998Z</time></trkpt><trkpt lat="43.06268685445521" lon="11.017894221782141"><ele>490.0</ele><time>2026-04-26T15:49:36.998Z</time></trkpt><trkpt lat="43.06245039733998" lon="11.017871898474464"><ele>491.6666666666667</ele><time>2026-04-26T15:49:37.998Z</time></trkpt><trkpt lat="43.06222396758933" lon="11.017863331873132"><ele>493.33333333333337</ele><time>2026-04-26T15:49:38.998Z</time></trkpt><trkpt lat="43.06200223795319" lon="11.01787813156801"><ele>495.0</ele><time>2026-04-26T15:49:39.998Z</time></trkpt><trkpt lat="43.061799172575185" lon="11.017938000651833"><ele>495.0</ele><time>2026-04-26T15:49:40.998Z</time></trkpt><trkpt lat="43.061609658409395" lon="11.018055462497442"><ele>495.0</ele><time>2026-04-26T15:49:41.998Z</time></trkpt><trkpt lat="43.061427759069794" lon="11.018203021813374"><ele>495.0</ele><time>2026-04-26T15:49:42.998Z</time></trkpt><trkpt lat="43.06124493486645" lon="11.018370684612577"><ele>495.0</ele><time>2026-04-26T15:49:43.998Z</time></trkpt><trkpt lat="43.06105487909179" lon="11.018542947085834"><ele>495.0</ele><time>2026-04-26T15:49:44.998Z</time></trkpt><trkpt lat="43.06086065309793" lon="11.018711064426896"><ele>495.0</ele><time>2026-04-26T15:49:45.998Z</time></trkpt><trkpt lat="43.06065824795005" lon="11.018884640764595"><ele>495.0</ele><time>2026-04-26T15:49:46.998Z</time></trkpt><trkpt lat="43.06045801187661" lon="11.019053361617644"><ele>495.0</ele><time>2026-04-26T15:49:47.998Z</time></trkpt><trkpt lat="43.06026381577157" lon="11.019225384899624"><ele>495.0</ele><time>2026-04-26T15:49:48.998Z</time></trkpt><trkpt lat="43.060081059594985" lon="11.019396608299116"><ele>495.33333333333337</ele><time>2026-04-26T15:49:49.998Z</time></trkpt><trkpt lat="43.05990634482663" lon="11.019566995502164"><ele>495.6666666666667</ele><time>2026-04-26T15:49:50.998Z</time></trkpt><trkpt lat="43.05974563049838" lon="11.019740632084531"><ele>496.0</ele><time>2026-04-26T15:49:51.998Z</time></trkpt><trkpt lat="43.05960018155102" lon="11.01993217050384"><ele>496.0</ele><time>2026-04-26T15:49:52.998Z</time></trkpt><trkpt lat="43.05946792712906" lon="11.020152589378291"><ele>496.0</ele><time>2026-04-26T15:49:53.998Z</time></trkpt><trkpt lat="43.05934667897807" lon="11.020403024008708"><ele>496.0</ele><time>2026-04-26T15:49:54.998Z</time></trkpt><trkpt lat="43.05923097642112" lon="11.020672950952264"><ele>493.0</ele><time>2026-04-26T15:49:55.998Z</time></trkpt><trkpt lat="43.05910455586657" lon="11.020945860760714"><ele>490.0</ele><time>2026-04-26T15:49:56.998Z</time></trkpt><trkpt lat="43.058969310069045" lon="11.021221127808994"><ele>490.0</ele><time>2026-04-26T15:49:57.998Z</time></trkpt><trkpt lat="43.05884432919749" lon="11.02149787208247"><ele>490.0</ele><time>2026-04-26T15:49:58.998Z</time></trkpt><trkpt lat="43.05872127799364" lon="11.021782339656065"><ele>488.5</ele><time>2026-04-26T15:49:59.998Z</time></trkpt><trkpt lat="43.05858953384488" lon="11.022068761495492"><ele>487.0</ele><time>2026-04-26T15:50:00.998Z</time></trkpt><trkpt lat="43.058453339123616" lon="11.022355972691313"><ele>488.0</ele><time>2026-04-26T15:50:01.998Z</time></trkpt><trkpt lat="43.05830856108583" lon="11.02264082877876"><ele>489.0</ele><time>2026-04-26T15:50:02.998Z</time></trkpt><trkpt lat="43.05816711636436" lon="11.022909246861804"><ele>489.5</ele><time>2026-04-26T15:50:03.998Z</time></trkpt><trkpt lat="43.05802673391487" lon="11.023170354509851"><ele>490.0</ele><time>2026-04-26T15:50:04.998Z</time></trkpt><trkpt lat="43.05788874078506" lon="11.023427204990206"><ele>490.0</ele><time>2026-04-26T15:50:06Z</time></trkpt><trkpt lat="43.05775820920839" lon="11.023679126340276"><ele>490.0</ele><time>2026-04-26T15:50:07Z</time></trkpt><trkpt lat="43.05765265645857" lon="11.023932101087723"><ele>490.0</ele><time>2026-04-26T15:50:08Z</time></trkpt><trkpt lat="43.05759857868388" lon="11.024187846768065"><ele>489.33333333333337</ele><time>2026-04-26T15:50:09Z</time></trkpt><trkpt lat="43.05760106489872" lon="11.02445025988146"><ele>488.66666666666663</ele><time>2026-04-26T15:50:10Z</time></trkpt><trkpt lat="43.05765146679734" lon="11.024713635367133"><ele>488.0</ele><time>2026-04-26T15:50:11Z</time></trkpt><trkpt lat="43.05772556756789" lon="11.024970903975856"><ele>489.3333333333333</ele><time>2026-04-26T15:50:12Z</time></trkpt><trkpt lat="43.05778320320013" lon="11.025216183151075"><ele>490.66666666666663</ele><time>2026-04-26T15:50:13Z</time></trkpt><trkpt lat="43.05783604867042" lon="11.025495945678742"><ele>492.0</ele><time>2026-04-26T15:50:14Z</time></trkpt><trkpt lat="43.05786533037777" lon="11.025776638601657"><ele>491.33333333333337</ele><time>2026-04-26T15:50:15Z</time></trkpt><trkpt lat="43.057890188910655" lon="11.02604594977203"><ele>490.6666666666667</ele><time>2026-04-26T15:50:16Z</time></trkpt><trkpt lat="43.05788207161498" lon="11.026321106985362"><ele>490.0</ele><time>2026-04-26T15:50:17Z</time></trkpt><trkpt lat="43.05785724168445" lon="11.026578207079424"><ele>489.6666666666667</ele><time>2026-04-26T15:50:18Z</time></trkpt><trkpt lat="43.057796078805204" lon="11.026829951857904"><ele>489.33333333333337</ele><time>2026-04-26T15:50:19Z</time></trkpt><trkpt lat="43.05774675219099" lon="11.0270950854326"><ele>489.0</ele><time>2026-04-26T15:50:20Z</time></trkpt><trkpt lat="43.05768545546587" lon="11.027346860123679"><ele>487.66666666666663</ele><time>2026-04-26T15:50:21Z</time></trkpt><trkpt lat="43.057598936113095" lon="11.027567951155348"><ele>486.3333333333333</ele><time>2026-04-26T15:50:22Z</time></trkpt><trkpt lat="43.05744345127571" lon="11.027771904372688"><ele>485.0</ele><time>2026-04-26T15:50:23Z</time></trkpt><trkpt lat="43.05728042163055" lon="11.027950551710848"><ele>482.66666666666663</ele><time>2026-04-26T15:50:24Z</time></trkpt><trkpt lat="43.0571361456043" lon="11.028160806277262"><ele>480.33333333333337</ele><time>2026-04-26T15:50:25Z</time></trkpt><trkpt lat="43.05699021568604" lon="11.028370420878217"><ele>478.0</ele><time>2026-04-26T15:50:26Z</time></trkpt><trkpt lat="43.05681522414468" lon="11.028574243786872"><ele>476.6666666666667</ele><time>2026-04-26T15:50:27Z</time></trkpt><trkpt lat="43.0566683182413" lon="11.028762371648474"><ele>475.33333333333337</ele><time>2026-04-26T15:50:28Z</time></trkpt><trkpt lat="43.05650074880771" lon="11.028909603480907"><ele>474.0</ele><time>2026-04-26T15:50:29Z</time></trkpt><trkpt lat="43.056434855124245" lon="11.029088316248908"><ele>472.0</ele><time>2026-04-26T15:50:30Z</time></trkpt><trkpt lat="43.05627281651397" lon="11.029248452984461"><ele>470.0</ele><time>2026-04-26T15:50:31Z</time></trkpt><trkpt lat="43.05613647655565" lon="11.029441218198968"><ele>468.0</ele><time>2026-04-26T15:50:32Z</time></trkpt><trkpt lat="43.056025360818154" lon="11.02969010933368"><ele>468.0</ele><time>2026-04-26T15:50:33Z</time></trkpt><trkpt lat="43.055925665836114" lon="11.029928754472673"><ele>468.0</ele><time>2026-04-26T15:50:34Z</time></trkpt><trkpt lat="43.05579070552323" lon="11.030154356690996"><ele>468.0</ele><time>2026-04-26T15:50:35Z</time></trkpt><trkpt lat="43.05566538019195" lon="11.03036486050198"><ele>467.66666666666663</ele><time>2026-04-26T15:50:35.999Z</time></trkpt><trkpt lat="43.05553394451659" lon="11.030578798937132"><ele>467.3333333333333</ele><time>2026-04-26T15:50:36.999Z</time></trkpt><trkpt lat="43.055413704629" lon="11.030802148447611"><ele>467.0</ele><time>2026-04-26T15:50:37.999Z</time></trkpt><trkpt lat="43.05530682348313" lon="11.031047958801006"><ele>467.0</ele><time>2026-04-26T15:50:38.999Z</time></trkpt><trkpt lat="43.05519733255335" lon="11.031288760660745"><ele>467.0</ele><time>2026-04-26T15:50:39.999Z</time></trkpt><trkpt lat="43.05508769683839" lon="11.031539188324988"><ele>467.0</ele><time>2026-04-26T15:50:40.999Z</time></trkpt><trkpt lat="43.05497773430208" lon="11.031772964936385"><ele>465.0</ele><time>2026-04-26T15:50:41.999Z</time></trkpt><trkpt lat="43.05484298814065" lon="11.031989981205834"><ele>463.0</ele><time>2026-04-26T15:50:42.999Z</time></trkpt><trkpt lat="43.05468717026622" lon="11.032175742446718"><ele>461.0</ele><time>2026-04-26T15:50:43.999Z</time></trkpt><trkpt lat="43.05452917217546" lon="11.03232824475583"><ele>461.0</ele><time>2026-04-26T15:50:44.999Z</time></trkpt><trkpt lat="43.05435528982847" lon="11.0324472036501"><ele>461.0</ele><time>2026-04-26T15:50:45.999Z</time></trkpt><trkpt lat="43.054174057520676" lon="11.032525724550752"><ele>461.0</ele><time>2026-04-26T15:50:46.999Z</time></trkpt><trkpt lat="43.05400627730077" lon="11.032625747031664"><ele>461.3333333333333</ele><time>2026-04-26T15:50:47.999Z</time></trkpt><trkpt lat="43.053866819866535" lon="11.032787284499634"><ele>461.66666666666663</ele><time>2026-04-26T15:50:48.999Z</time></trkpt><trkpt lat="43.05374449353089" lon="11.032975714326929"><ele>462.0</ele><time>2026-04-26T15:50:49.999Z</time></trkpt><trkpt lat="43.05360724498447" lon="11.033149823697848"><ele>462.0</ele><time>2026-04-26T15:50:50.999Z</time></trkpt><trkpt lat="43.053443159073524" lon="11.033286375969613"><ele>462.0</ele><time>2026-04-26T15:50:51.999Z</time></trkpt><trkpt lat="43.053268843811175" lon="11.033366122581205"><ele>462.0</ele><time>2026-04-26T15:50:52.999Z</time></trkpt><trkpt lat="43.05308796803419" lon="11.033389801330646"><ele>464.0</ele><time>2026-04-26T15:50:53.999Z</time></trkpt><trkpt lat="43.05289254358781" lon="11.033387765877928"><ele>466.0</ele><time>2026-04-26T15:50:54.999Z</time></trkpt><trkpt lat="43.05271044658777" lon="11.03340541421079"><ele>468.0</ele><time>2026-04-26T15:50:55.999Z</time></trkpt><trkpt lat="43.05252737686075" lon="11.03346227404915"><ele>467.66666666666663</ele><time>2026-04-26T15:50:56.999Z</time></trkpt><trkpt lat="43.052362042522596" lon="11.033553846678446"><ele>467.3333333333333</ele><time>2026-04-26T15:50:57.999Z</time></trkpt><trkpt lat="43.05221591505953" lon="11.033635324349069"><ele>467.0</ele><time>2026-04-26T15:50:58.999Z</time></trkpt><trkpt lat="43.05207704453489" lon="11.033669479707902"><ele>467.0</ele><time>2026-04-26T15:50:59.999Z</time></trkpt><trkpt lat="43.051939131801824" lon="11.03365518172726"><ele>467.0</ele><time>2026-04-26T15:51:00.999Z</time></trkpt><trkpt lat="43.051812580528015" lon="11.03360384094064"><ele>467.0</ele><time>2026-04-26T15:51:01.999Z</time></trkpt><trkpt lat="43.051705786079495" lon="11.033497781726652"><ele>467.0</ele><time>2026-04-26T15:51:02.999Z</time></trkpt><trkpt lat="43.05161785413029" lon="11.033374938672413"><ele>465.25</ele><time>2026-04-26T15:51:03.999Z</time></trkpt><trkpt lat="43.05148421803745" lon="11.033324567814521"><ele>463.5</ele><time>2026-04-26T15:51:04.999Z</time></trkpt><trkpt lat="43.051359611411684" lon="11.03330250529129"><ele>461.75</ele><time>2026-04-26T15:51:05.999Z</time></trkpt><trkpt lat="43.05126355881398" lon="11.033344468227993"><ele>460.0</ele><time>2026-04-26T15:51:06.999Z</time></trkpt><trkpt lat="43.05115447194443" lon="11.033422916405648"><ele>460.0</ele><time>2026-04-26T15:51:07.999Z</time></trkpt><trkpt lat="43.05104197189374" lon="11.033498460113114"><ele>460.0</ele><time>2026-04-26T15:51:08.999Z</time></trkpt><trkpt lat="43.0509069048647" lon="11.033556941646294"><ele>460.0</ele><time>2026-04-26T15:51:09.999Z</time></trkpt><trkpt lat="43.050742319765675" lon="11.033602504930986"><ele>460.0</ele><time>2026-04-26T15:51:10.999Z</time></trkpt><trkpt lat="43.05056618302747" lon="11.033635761140257"><ele>459.6666666666667</ele><time>2026-04-26T15:51:11.999Z</time></trkpt><trkpt lat="43.0504202620126" lon="11.033730274374372"><ele>459.33333333333337</ele><time>2026-04-26T15:51:12.999Z</time></trkpt><trkpt lat="43.05025790861637" lon="11.033816551688053"><ele>459.0</ele><time>2026-04-26T15:51:13.999Z</time></trkpt><trkpt lat="43.05012167598118" lon="11.033990840435898"><ele>459.0</ele><time>2026-04-26T15:51:14.999Z</time></trkpt><trkpt lat="43.04996183558532" lon="11.034104107692304"><ele>459.0</ele><time>2026-04-26T15:51:15.999Z</time></trkpt><trkpt lat="43.04978515074565" lon="11.034208414215243"><ele>459.0</ele><time>2026-04-26T15:51:16.999Z</time></trkpt><trkpt lat="43.049631655053965" lon="11.034354237007511"><ele>458.33333333333337</ele><time>2026-04-26T15:51:17.999Z</time></trkpt><trkpt lat="43.049500014423465" lon="11.034557298710748"><ele>457.6666666666667</ele><time>2026-04-26T15:51:18.999Z</time></trkpt><trkpt lat="43.04934461737039" lon="11.034749718104463"><ele>457.0</ele><time>2026-04-26T15:51:19.999Z</time></trkpt><trkpt lat="43.04916574068454" lon="11.034918406662594"><ele>456.6666666666667</ele><time>2026-04-26T15:51:20.999Z</time></trkpt><trkpt lat="43.048986438299785" lon="11.035088147856225"><ele>456.33333333333337</ele><time>2026-04-26T15:51:21.999Z</time></trkpt><trkpt lat="43.048795305160205" lon="11.035249582658494"><ele>456.0</ele><time>2026-04-26T15:51:22.999Z</time></trkpt><trkpt lat="43.04862723930268" lon="11.035408389966964"><ele>456.0</ele><time>2026-04-26T15:51:23.999Z</time></trkpt><trkpt lat="43.048457772799836" lon="11.035589379130696"><ele>456.0</ele><time>2026-04-26T15:51:24.999Z</time></trkpt><trkpt lat="43.048297495760565" lon="11.035799133992748"><ele>456.0</ele><time>2026-04-26T15:51:25.999Z</time></trkpt><trkpt lat="43.04813790297537" lon="11.036015490973226"><ele>455.5</ele><time>2026-04-26T15:51:26.999Z</time></trkpt><trkpt lat="43.04796912675064" lon="11.036217234031362"><ele>455.0</ele><time>2026-04-26T15:51:27.999Z</time></trkpt><trkpt lat="43.04777926633166" lon="11.036410006699784"><ele>455.0</ele><time>2026-04-26T15:51:28.999Z</time></trkpt><trkpt lat="43.04759311885934" lon="11.036591702937631"><ele>455.0</ele><time>2026-04-26T15:51:29.998Z</time></trkpt><trkpt lat="43.04741276666314" lon="11.036761801405959"><ele>455.0</ele><time>2026-04-26T15:51:30.998Z</time></trkpt><trkpt lat="43.04723568339188" lon="11.036922838974268"><ele>453.0</ele><time>2026-04-26T15:51:31.998Z</time></trkpt><trkpt lat="43.047054545108686" lon="11.037058803780415"><ele>451.0</ele><time>2026-04-26T15:51:32.998Z</time></trkpt><trkpt lat="43.04685833445038" lon="11.037172026574721"><ele>449.0</ele><time>2026-04-26T15:51:33.998Z</time></trkpt><trkpt lat="43.046673462405494" lon="11.037290889884899"><ele>447.3333333333333</ele><time>2026-04-26T15:51:34.998Z</time></trkpt><trkpt lat="43.04650120500551" lon="11.037414777529403"><ele>445.66666666666663</ele><time>2026-04-26T15:51:35.998Z</time></trkpt><trkpt lat="43.04633638259299" lon="11.037538293614421"><ele>444.0</ele><time>2026-04-26T15:51:36.998Z</time></trkpt><trkpt lat="43.04617270858196" lon="11.037685020392159"><ele>445.33333333333337</ele><time>2026-04-26T15:51:37.998Z</time></trkpt><trkpt lat="43.046007219883556" lon="11.037869385933877"><ele>446.6666666666667</ele><time>2026-04-26T15:51:38.998Z</time></trkpt><trkpt lat="43.04584308756911" lon="11.038072250264351"><ele>448.0</ele><time>2026-04-26T15:51:39.998Z</time></trkpt><trkpt lat="43.04566923380526" lon="11.03829109769692"><ele>445.5</ele><time>2026-04-26T15:51:40.998Z</time></trkpt><trkpt lat="43.04549239159651" lon="11.038507451108654"><ele>443.0</ele><time>2026-04-26T15:51:41.998Z</time></trkpt><trkpt lat="43.04531916456773" lon="11.038717067190966"><ele>443.0</ele><time>2026-04-26T15:51:42.998Z</time></trkpt><trkpt lat="43.04513146292682" lon="11.038930152342818"><ele>443.0</ele><time>2026-04-26T15:51:43.998Z</time></trkpt><trkpt lat="43.044951341889266" lon="11.039143795758633"><ele>445.5</ele><time>2026-04-26T15:51:44.998Z</time></trkpt><trkpt lat="43.04477024341942" lon="11.039362393508238"><ele>448.0</ele><time>2026-04-26T15:51:45.998Z</time></trkpt><trkpt lat="43.044595715717584" lon="11.039578115215367"><ele>448.0</ele><time>2026-04-26T15:51:46.998Z</time></trkpt><trkpt lat="43.04442107741134" lon="11.039793096435677"><ele>448.0</ele><time>2026-04-26T15:51:47.998Z</time></trkpt><trkpt lat="43.04425347468921" lon="11.03999641734147"><ele>447.6666666666667</ele><time>2026-04-26T15:51:48.998Z</time></trkpt><trkpt lat="43.04408985249957" lon="11.040189810107268"><ele>447.33333333333337</ele><time>2026-04-26T15:51:49.998Z</time></trkpt><trkpt lat="43.0439289624076" lon="11.040374399835766"><ele>447.0</ele><time>2026-04-26T15:51:50.998Z</time></trkpt><trkpt lat="43.04376545524916" lon="11.040554809043968"><ele>447.0</ele><time>2026-04-26T15:51:51.998Z</time></trkpt><trkpt lat="43.04359060531443" lon="11.040724893284285"><ele>447.0</ele><time>2026-04-26T15:51:52.998Z</time></trkpt><trkpt lat="43.04340618182696" lon="11.040873127239191"><ele>447.0</ele><time>2026-04-26T15:51:53.998Z</time></trkpt><trkpt lat="43.043230111909516" lon="11.04099808215038"><ele>449.66666666666663</ele><time>2026-04-26T15:51:54.998Z</time></trkpt><trkpt lat="43.043074837667206" lon="11.041121243252553"><ele>452.3333333333333</ele><time>2026-04-26T15:51:55.998Z</time></trkpt><trkpt lat="43.04292446385153" lon="11.041261069322735"><ele>455.0</ele><time>2026-04-26T15:51:56.998Z</time></trkpt><trkpt lat="43.04279897753733" lon="11.041440708643334"><ele>450.66666666666663</ele><time>2026-04-26T15:51:57.998Z</time></trkpt><trkpt lat="43.04270268254723" lon="11.041656287547251"><ele>446.33333333333337</ele><time>2026-04-26T15:51:58.998Z</time></trkpt><trkpt lat="43.04262163461477" lon="11.041885694470839"><ele>442.0</ele><time>2026-04-26T15:51:59.998Z</time></trkpt><trkpt lat="43.042575364872185" lon="11.042132733065463"><ele>442.0</ele><time>2026-04-26T15:52:00.998Z</time></trkpt><trkpt lat="43.04254656699546" lon="11.042392270937343"><ele>442.0</ele><time>2026-04-26T15:52:01.998Z</time></trkpt><trkpt lat="43.04255721985984" lon="11.042679955991575"><ele>442.0</ele><time>2026-04-26T15:52:02.998Z</time></trkpt><trkpt lat="43.04253008739193" lon="11.04298530864786"><ele>442.0</ele><time>2026-04-26T15:52:03.998Z</time></trkpt><trkpt lat="43.04250680867208" lon="11.04329425824019"><ele>442.0</ele><time>2026-04-26T15:52:04.998Z</time></trkpt><trkpt lat="43.04249599222314" lon="11.043593510751915"><ele>442.0</ele><time>2026-04-26T15:52:05.998Z</time></trkpt><trkpt lat="43.04248157479234" lon="11.04390741695229"><ele>451.5</ele><time>2026-04-26T15:52:06.998Z</time></trkpt><trkpt lat="43.042464446697096" lon="11.044222300280051"><ele>461.0</ele><time>2026-04-26T15:52:07.998Z</time></trkpt><trkpt lat="43.04243815421934" lon="11.044527695084248"><ele>461.0</ele><time>2026-04-26T15:52:08.998Z</time></trkpt><trkpt lat="43.04242729795502" lon="11.044832329530816"><ele>461.0</ele><time>2026-04-26T15:52:09.998Z</time></trkpt><trkpt lat="43.04244749555015" lon="11.04513352285134"><ele>461.0</ele><time>2026-04-26T15:52:10.998Z</time></trkpt><trkpt lat="43.042461295959534" lon="11.045429553481625"><ele>460.3333333333333</ele><time>2026-04-26T15:52:12Z</time></trkpt><trkpt lat="43.04246586472543" lon="11.045714620044352"><ele>459.66666666666663</ele><time>2026-04-26T15:52:13Z</time></trkpt><trkpt lat="43.04246044133641" lon="11.045996194123703"><ele>459.0</ele><time>2026-04-26T15:52:14Z</time></trkpt><trkpt lat="43.042439691046816" lon="11.046283602643074"><ele>459.0</ele><time>2026-04-26T15:52:15Z</time></trkpt><trkpt lat="43.04238360571913" lon="11.046552974951906"><ele>459.0</ele><time>2026-04-26T15:52:16Z</time></trkpt><trkpt lat="43.04236631419563" lon="11.046828318917752"><ele>459.0</ele><time>2026-04-26T15:52:17Z</time></trkpt><trkpt lat="43.04237437691716" lon="11.047088182695239"><ele>457.0</ele><time>2026-04-26T15:52:18Z</time></trkpt><trkpt lat="43.04240441987737" lon="11.047335330068355"><ele>455.0</ele><time>2026-04-26T15:52:19Z</time></trkpt><trkpt lat="43.04246687890211" lon="11.047570081384931"><ele>453.0</ele><time>2026-04-26T15:52:20Z</time></trkpt><trkpt lat="43.04254854422449" lon="11.047796571882868"><ele>448.25</ele><time>2026-04-26T15:52:21Z</time></trkpt><trkpt lat="43.04261046039423" lon="11.04797363864922"><ele>443.5</ele><time>2026-04-26T15:52:22Z</time></trkpt><trkpt lat="43.042662747458536" lon="11.048198601673008"><ele>438.75</ele><time>2026-04-26T15:52:23Z</time></trkpt><trkpt lat="43.04270089451498" lon="11.048357383623088"><ele>434.0</ele><time>2026-04-26T15:52:24Z</time></trkpt><trkpt lat="43.0426914613385" lon="11.048558946127777"><ele>434.0</ele><time>2026-04-26T15:52:25Z</time></trkpt><trkpt lat="43.04264733584305" lon="11.048750678691846"><ele>434.0</ele><time>2026-04-26T15:52:26Z</time></trkpt><trkpt lat="43.042592876872966" lon="11.048962369327697"><ele>434.0</ele><time>2026-04-26T15:52:27Z</time></trkpt><trkpt lat="43.04251585030694" lon="11.049182411405795"><ele>442.3333333333333</ele><time>2026-04-26T15:52:28Z</time></trkpt><trkpt lat="43.042429408319975" lon="11.049386916453654"><ele>450.66666666666663</ele><time>2026-04-26T15:52:29Z</time></trkpt><trkpt lat="43.042289926619354" lon="11.049581538159336"><ele>459.0</ele><time>2026-04-26T15:52:30Z</time></trkpt><trkpt lat="43.04211520045452" lon="11.049804551748673"><ele>455.0</ele><time>2026-04-26T15:52:31Z</time></trkpt><trkpt lat="43.041989370801666" lon="11.050035113599005"><ele>451.0</ele><time>2026-04-26T15:52:32Z</time></trkpt><trkpt lat="43.041874204852604" lon="11.050271217243903"><ele>447.0</ele><time>2026-04-26T15:52:33Z</time></trkpt><trkpt lat="43.041756296626154" lon="11.050505984811169"><ele>449.33333333333337</ele><time>2026-04-26T15:52:34Z</time></trkpt><trkpt lat="43.041623507521535" lon="11.050716867289651"><ele>451.6666666666667</ele><time>2026-04-26T15:52:35Z</time></trkpt><trkpt lat="43.04145838056545" lon="11.050878142368765"><ele>454.0</ele><time>2026-04-26T15:52:36Z</time></trkpt><trkpt lat="43.04127087947983" lon="11.05099402805837"><ele>454.0</ele><time>2026-04-26T15:52:37Z</time></trkpt><trkpt lat="43.04109726561418" lon="11.051126619407238"><ele>454.0</ele><time>2026-04-26T15:52:38Z</time></trkpt><trkpt lat="43.04094382123671" lon="11.05128935999965"><ele>454.0</ele><time>2026-04-26T15:52:39Z</time></trkpt><trkpt lat="43.0408228628271" lon="11.051499642226597"><ele>451.33333333333337</ele><time>2026-04-26T15:52:40Z</time></trkpt><trkpt lat="43.04072323712501" lon="11.051728156633843"><ele>448.66666666666663</ele><time>2026-04-26T15:52:41Z</time></trkpt><trkpt lat="43.04062931312562" lon="11.051932376937474"><ele>446.0</ele><time>2026-04-26T15:52:42Z</time></trkpt><trkpt lat="43.040527116738275" lon="11.052086667766087"><ele>446.0</ele><time>2026-04-26T15:52:43Z</time></trkpt><trkpt lat="43.04039997578926" lon="11.05217899471026"><ele>446.0</ele><time>2026-04-26T15:52:43.999Z</time></trkpt><trkpt lat="43.040271292629015" lon="11.052205430880516"><ele>446.0</ele><time>2026-04-26T15:52:44.999Z</time></trkpt><trkpt lat="43.04014301716738" lon="11.052171122462354"><ele>446.0</ele><time>2026-04-26T15:52:45.999Z</time></trkpt><trkpt lat="43.03999514641697" lon="11.052143149754787"><ele>446.75</ele><time>2026-04-26T15:52:46.999Z</time></trkpt><trkpt lat="43.039862170561996" lon="11.052191135045152"><ele>447.5</ele><time>2026-04-26T15:52:47.999Z</time></trkpt><trkpt lat="43.0397342877836" lon="11.052286491324427"><ele>448.25</ele><time>2026-04-26T15:52:48.999Z</time></trkpt><trkpt lat="43.039616711064696" lon="11.052412172644944"><ele>449.0</ele><time>2026-04-26T15:52:49.999Z</time></trkpt><trkpt lat="43.0395104001754" lon="11.052544536799576"><ele>449.0</ele><time>2026-04-26T15:52:50.999Z</time></trkpt><trkpt lat="43.0393757128228" lon="11.052657766349398"><ele>449.0</ele><time>2026-04-26T15:52:51.999Z</time></trkpt><trkpt lat="43.039245591609294" lon="11.05280324168255"><ele>449.0</ele><time>2026-04-26T15:52:52.999Z</time></trkpt><trkpt lat="43.039156519474865" lon="11.052994421209634"><ele>450.3333333333333</ele><time>2026-04-26T15:52:53.999Z</time></trkpt><trkpt lat="43.03904001150338" lon="11.053215274709888"><ele>451.66666666666663</ele><time>2026-04-26T15:52:54.999Z</time></trkpt><trkpt lat="43.03894548885025" lon="11.053418417558413"><ele>453.0</ele><time>2026-04-26T15:52:55.999Z</time></trkpt><trkpt lat="43.038854601169525" lon="11.053621249680672"><ele>453.0</ele><time>2026-04-26T15:52:56.999Z</time></trkpt><trkpt lat="43.0387440080445" lon="11.053793872990223"><ele>453.0</ele><time>2026-04-26T15:52:57.999Z</time></trkpt><trkpt lat="43.038602988512544" lon="11.05391961485937"><ele>453.0</ele><time>2026-04-26T15:52:58.999Z</time></trkpt><trkpt lat="43.038444408226056" lon="11.05402055249613"><ele>451.66666666666663</ele><time>2026-04-26T15:52:59.999Z</time></trkpt><trkpt lat="43.03827097786223" lon="11.05410822477571"><ele>450.3333333333333</ele><time>2026-04-26T15:53:00.999Z</time></trkpt><trkpt lat="43.038099045313096" lon="11.054203051529882"><ele>449.0</ele><time>2026-04-26T15:53:01.999Z</time></trkpt><trkpt lat="43.037945899488314" lon="11.054335889343557"><ele>449.0</ele><time>2026-04-26T15:53:02.999Z</time></trkpt><trkpt lat="43.037825207564396" lon="11.054502877557777"><ele>449.0</ele><time>2026-04-26T15:53:03.999Z</time></trkpt><trkpt lat="43.0377228838166" lon="11.05467766591772"><ele>449.0</ele><time>2026-04-26T15:53:04.999Z</time></trkpt><trkpt lat="43.03761498712885" lon="11.05481743667092"><ele>449.0</ele><time>2026-04-26T15:53:05.999Z</time></trkpt><trkpt lat="43.037481635743134" lon="11.05489897399332"><ele>449.0</ele><time>2026-04-26T15:53:06.999Z</time></trkpt><trkpt lat="43.03734274448544" lon="11.054922130518918"><ele>449.0</ele><time>2026-04-26T15:53:07.999Z</time></trkpt><trkpt lat="43.037210347242016" lon="11.054896669409404"><ele>449.0</ele><time>2026-04-26T15:53:08.999Z</time></trkpt><trkpt lat="43.037077344822805" lon="11.054863205785061"><ele>449.0</ele><time>2026-04-26T15:53:09.999Z</time></trkpt><trkpt lat="43.03694037735962" lon="11.054908339663632"><ele>449.0</ele><time>2026-04-26T15:53:10.999Z</time></trkpt><trkpt lat="43.03686306761925" lon="11.054988352029362"><ele>449.0</ele><time>2026-04-26T15:53:11.999Z</time></trkpt><trkpt lat="43.03681235569482" lon="11.05511860460064"><ele>449.0</ele><time>2026-04-26T15:53:12.999Z</time></trkpt><trkpt lat="43.03678587021219" lon="11.055274969158882"><ele>449.0</ele><time>2026-04-26T15:53:13.999Z</time></trkpt><trkpt lat="43.036762845944004" lon="11.055459998214253"><ele>449.0</ele><time>2026-04-26T15:53:14.999Z</time></trkpt><trkpt lat="43.03670864230098" lon="11.055643738462315"><ele>449.0</ele><time>2026-04-26T15:53:15.999Z</time></trkpt><trkpt lat="43.03661502037897" lon="11.055818604646241"><ele>449.0</ele><time>2026-04-26T15:53:16.999Z</time></trkpt><trkpt lat="43.03653759221139" lon="11.056011060814662"><ele>453.3333333333333</ele><time>2026-04-26T15:53:17.999Z</time></trkpt><trkpt lat="43.0364554792429" lon="11.056196450560968"><ele>457.66666666666663</ele><time>2026-04-26T15:53:18.999Z</time></trkpt><trkpt lat="43.036353668017796" lon="11.056376994348527"><ele>462.0</ele><time>2026-04-26T15:53:19.999Z</time></trkpt><trkpt lat="43.03623922417462" lon="11.056541370665318"><ele>456.0</ele><time>2026-04-26T15:53:20.999Z</time></trkpt><trkpt lat="43.03611463995943" lon="11.056681768831622"><ele>450.0</ele><time>2026-04-26T15:53:21.999Z</time></trkpt><trkpt lat="43.03594510551406" lon="11.056793560241239"><ele>444.0</ele><time>2026-04-26T15:53:22.999Z</time></trkpt><trkpt lat="43.03578839992022" lon="11.056914104938766"><ele>444.0</ele><time>2026-04-26T15:53:23.999Z</time></trkpt><trkpt lat="43.035616140787845" lon="11.057016953303902"><ele>444.0</ele><time>2026-04-26T15:53:24.999Z</time></trkpt><trkpt lat="43.03542653395787" lon="11.057075461001011"><ele>444.0</ele><time>2026-04-26T15:53:25.999Z</time></trkpt><trkpt lat="43.0352339576186" lon="11.057101177118405"><ele>444.0</ele><time>2026-04-26T15:53:26.999Z</time></trkpt><trkpt lat="43.03503530062829" lon="11.057106050992383"><ele>444.0</ele><time>2026-04-26T15:53:27.999Z</time></trkpt><trkpt lat="43.034857120568915" lon="11.057064760307567"><ele>444.0</ele><time>2026-04-26T15:53:28.999Z</time></trkpt><trkpt lat="43.03471825460911" lon="11.056998233009248"><ele>445.0</ele><time>2026-04-26T15:53:29.999Z</time></trkpt><trkpt lat="43.03458126949757" lon="11.05695581401235"><ele>446.0</ele><time>2026-04-26T15:53:30.999Z</time></trkpt><trkpt lat="43.034449907685" lon="11.056964920030774"><ele>447.0</ele><time>2026-04-26T15:53:31.999Z</time></trkpt><trkpt lat="43.0343528537581" lon="11.057018563144524"><ele>448.0</ele><time>2026-04-26T15:53:32.999Z</time></trkpt><trkpt lat="43.034262524366156" lon="11.057124246282966"><ele>448.0</ele><time>2026-04-26T15:53:33.999Z</time></trkpt><trkpt lat="43.03421528255308" lon="11.057276347054266"><ele>448.0</ele><time>2026-04-26T15:53:34.999Z</time></trkpt><trkpt lat="43.03414695575407" lon="11.057431007366596"><ele>448.0</ele><time>2026-04-26T15:53:35.999Z</time></trkpt><trkpt lat="43.034046946700194" lon="11.057572494933675"><ele>448.0</ele><time>2026-04-26T15:53:36.999Z</time></trkpt><trkpt lat="43.03393777089662" lon="11.05767261962349"><ele>449.0</ele><time>2026-04-26T15:53:37.998Z</time></trkpt><trkpt lat="43.033810271813095" lon="11.057726298401343"><ele>450.0</ele><time>2026-04-26T15:53:38.998Z</time></trkpt><trkpt lat="43.033658480136324" lon="11.05773493645923"><ele>451.0</ele><time>2026-04-26T15:53:39.998Z</time></trkpt><trkpt lat="43.03352184475458" lon="11.05773566891685"><ele>452.0</ele><time>2026-04-26T15:53:40.998Z</time></trkpt><trkpt lat="43.03339178075467" lon="11.057741259403025"><ele>452.75</ele><time>2026-04-26T15:53:41.998Z</time></trkpt><trkpt lat="43.03325086884268" lon="11.057739917290146"><ele>453.5</ele><time>2026-04-26T15:53:42.998Z</time></trkpt><trkpt lat="43.03311876981822" lon="11.057752221997744"><ele>454.25</ele><time>2026-04-26T15:53:43.998Z</time></trkpt><trkpt lat="43.03301263589568" lon="11.057798061244238"><ele>455.0</ele><time>2026-04-26T15:53:44.998Z</time></trkpt><trkpt lat="43.032943852149074" lon="11.057897548573658"><ele>455.0</ele><time>2026-04-26T15:53:45.998Z</time></trkpt><trkpt lat="43.03293002755735" lon="11.05801752887204"><ele>455.0</ele><time>2026-04-26T15:53:46.998Z</time></trkpt><trkpt lat="43.03295215102145" lon="11.05813761873374"><ele>455.0</ele><time>2026-04-26T15:53:47.998Z</time></trkpt><trkpt lat="43.03300847438854" lon="11.05827121118245"><ele>455.0</ele><time>2026-04-26T15:53:48.998Z</time></trkpt><trkpt lat="43.03308805724602" lon="11.0584197139184"><ele>455.0</ele><time>2026-04-26T15:53:49.998Z</time></trkpt><trkpt lat="43.033152499908724" lon="11.058598483994686"><ele>456.75</ele><time>2026-04-26T15:53:50.998Z</time></trkpt><trkpt lat="43.03320053515334" lon="11.05875917757598"><ele>458.5</ele><time>2026-04-26T15:53:51.998Z</time></trkpt><trkpt lat="43.033220860063686" lon="11.05891595146163"><ele>460.25</ele><time>2026-04-26T15:53:52.998Z</time></trkpt><trkpt lat="43.03318882795074" lon="11.059115117755487"><ele>462.0</ele><time>2026-04-26T15:53:53.998Z</time></trkpt><trkpt lat="43.033111568174355" lon="11.059324965072788"><ele>462.0</ele><time>2026-04-26T15:53:54.998Z</time></trkpt><trkpt lat="43.0330452534273" lon="11.059543735422364"><ele>462.0</ele><time>2026-04-26T15:53:55.998Z</time></trkpt><trkpt lat="43.03298603372935" lon="11.059766139289449"><ele>462.0</ele><time>2026-04-26T15:53:56.998Z</time></trkpt><trkpt lat="43.032927746495204" lon="11.05999137394727"><ele>463.0</ele><time>2026-04-26T15:53:57.998Z</time></trkpt><trkpt lat="43.032864865750355" lon="11.060224889720189"><ele>464.0</ele><time>2026-04-26T15:53:58.998Z</time></trkpt><trkpt lat="43.03276771155506" lon="11.06043555735794"><ele>465.0</ele><time>2026-04-26T15:53:59.998Z</time></trkpt><trkpt lat="43.03265429535445" lon="11.06063638432249"><ele>461.33333333333337</ele><time>2026-04-26T15:54:00.998Z</time></trkpt><trkpt lat="43.03253979086298" lon="11.060842610007663"><ele>457.6666666666667</ele><time>2026-04-26T15:54:01.998Z</time></trkpt><trkpt lat="43.03244023522814" lon="11.06106473013055"><ele>454.0</ele><time>2026-04-26T15:54:02.998Z</time></trkpt><trkpt lat="43.032367527638456" lon="11.061298806517597"><ele>460.0</ele><time>2026-04-26T15:54:03.998Z</time></trkpt><trkpt lat="43.03232478598146" lon="11.061542257210181"><ele>466.0</ele><time>2026-04-26T15:54:04.998Z</time></trkpt><trkpt lat="43.03231137488317" lon="11.061796959702951"><ele>472.0</ele><time>2026-04-26T15:54:05.998Z</time></trkpt><trkpt lat="43.03231862926412" lon="11.062064123633979"><ele>472.0</ele><time>2026-04-26T15:54:06.998Z</time></trkpt><trkpt lat="43.03234923519024" lon="11.06232505172316"><ele>472.0</ele><time>2026-04-26T15:54:07.998Z</time></trkpt><trkpt lat="43.032394824093544" lon="11.062578583925458"><ele>472.0</ele><time>2026-04-26T15:54:08.998Z</time></trkpt><trkpt lat="43.03244816129573" lon="11.06283714908695"><ele>469.33333333333337</ele><time>2026-04-26T15:54:09.998Z</time></trkpt><trkpt lat="43.032530331596924" lon="11.06309499052071"><ele>466.66666666666663</ele><time>2026-04-26T15:54:10.998Z</time></trkpt><trkpt lat="43.03263159096468" lon="11.063336669971356"><ele>464.0</ele><time>2026-04-26T15:54:11.998Z</time></trkpt><trkpt lat="43.032748237188315" lon="11.063561844348824"><ele>464.0</ele><time>2026-04-26T15:54:12.998Z</time></trkpt><trkpt lat="43.03286046616537" lon="11.06376013302598"><ele>464.0</ele><time>2026-04-26T15:54:13.998Z</time></trkpt><trkpt lat="43.03295842261088" lon="11.063948267921997"><ele>464.0</ele><time>2026-04-26T15:54:14.998Z</time></trkpt><trkpt lat="43.033045413453735" lon="11.064138859480801"><ele>465.5</ele><time>2026-04-26T15:54:15.998Z</time></trkpt><trkpt lat="43.03312611206088" lon="11.064325512303316"><ele>467.0</ele><time>2026-04-26T15:54:16.998Z</time></trkpt><trkpt lat="43.03319641203262" lon="11.064501153364734"><ele>468.5</ele><time>2026-04-26T15:54:18Z</time></trkpt><trkpt lat="43.03325472371253" lon="11.064664346087222"><ele>470.0</ele><time>2026-04-26T15:54:19Z</time></trkpt><trkpt lat="43.03329681379845" lon="11.064811733638338"><ele>469.49999999999994</ele><time>2026-04-26T15:54:20Z</time></trkpt><trkpt lat="43.033316485822915" lon="11.064943590470767"><ele>469.0</ele><time>2026-04-26T15:54:21Z</time></trkpt><trkpt lat="43.03333758516659" lon="11.065051789236785"><ele>468.5</ele><time>2026-04-26T15:54:22Z</time></trkpt><trkpt lat="43.03335039716824" lon="11.065146479204143"><ele>468.0</ele><time>2026-04-26T15:54:23Z</time></trkpt><trkpt lat="43.03334509557294" lon="11.06525732126486"><ele>467.49999999999994</ele><time>2026-04-26T15:54:25Z</time></trkpt><trkpt lat="43.03337700601828" lon="11.06537753083645"><ele>467.0</ele><time>2026-04-26T15:54:27Z</time></trkpt><trkpt lat="43.03343368795763" lon="11.065456406501404"><ele>467.0</ele><time>2026-04-26T15:54:28Z</time></trkpt><trkpt lat="43.03349064507297" lon="11.065517191763487"><ele>467.00000000000006</ele><time>2026-04-26T15:54:29Z</time></trkpt><trkpt lat="43.033580706889104" lon="11.06560044927063"><ele>467.00000000000006</ele><time>2026-04-26T15:54:30Z</time></trkpt><trkpt lat="43.033679404329106" lon="11.065699873251653"><ele>467.0</ele><time>2026-04-26T15:54:31Z</time></trkpt><trkpt lat="43.03377203012643" lon="11.065792285773558"><ele>467.0</ele><time>2026-04-26T15:54:32Z</time></trkpt><trkpt lat="43.0338756707937" lon="11.065884710748941"><ele>465.0</ele><time>2026-04-26T15:54:33Z</time></trkpt><trkpt lat="43.03399028812788" lon="11.065988766034769"><ele>463.0</ele><time>2026-04-26T15:54:34Z</time></trkpt><trkpt lat="43.034104254740896" lon="11.066106929059492"><ele>461.0</ele><time>2026-04-26T15:54:35Z</time></trkpt><trkpt lat="43.034221126634904" lon="11.06624168168804"><ele>459.0</ele><time>2026-04-26T15:54:36Z</time></trkpt><trkpt lat="43.03433466957699" lon="11.066371358789603"><ele>460.5</ele><time>2026-04-26T15:54:37Z</time></trkpt><trkpt lat="43.03443380006389" lon="11.066481824946308"><ele>462.0</ele><time>2026-04-26T15:54:38Z</time></trkpt><trkpt lat="43.034535866237334" lon="11.066601364720889"><ele>463.5</ele><time>2026-04-26T15:54:39Z</time></trkpt><trkpt lat="43.034632275871296" lon="11.066716562383284"><ele>465.0</ele><time>2026-04-26T15:54:40Z</time></trkpt><trkpt lat="43.03471675236153" lon="11.066882806945632"><ele>465.0</ele><time>2026-04-26T15:54:41Z</time></trkpt><trkpt lat="43.03477904866258" lon="11.067048261329852"><ele>465.0</ele><time>2026-04-26T15:54:42Z</time></trkpt><trkpt lat="43.03478123778211" lon="11.067220523932084"><ele>465.0</ele><time>2026-04-26T15:54:43Z</time></trkpt><trkpt lat="43.03476841443807" lon="11.067389681069027"><ele>465.0</ele><time>2026-04-26T15:54:44Z</time></trkpt><trkpt lat="43.03469057836417" lon="11.0675400843005"><ele>464.8</ele><time>2026-04-26T15:54:45Z</time></trkpt><trkpt lat="43.034623245602106" lon="11.067681051255366"><ele>464.6</ele><time>2026-04-26T15:54:46Z</time></trkpt><trkpt lat="43.034530010835724" lon="11.067766406377691"><ele>464.4</ele><time>2026-04-26T15:54:47Z</time></trkpt><trkpt lat="43.03444375544354" lon="11.067830280506524"><ele>464.2</ele><time>2026-04-26T15:54:48Z</time></trkpt><trkpt lat="43.03436618219344" lon="11.067918882351192"><ele>464.0</ele><time>2026-04-26T15:54:49Z</time></trkpt><trkpt lat="43.03431982006596" lon="11.068054609771217"><ele>464.0</ele><time>2026-04-26T15:54:49.999Z</time></trkpt><trkpt lat="43.0343124484323" lon="11.068212472379885"><ele>464.0</ele><time>2026-04-26T15:54:50.999Z</time></trkpt><trkpt lat="43.03430428532846" lon="11.068385192634706"><ele>464.0</ele><time>2026-04-26T15:54:51.999Z</time></trkpt><trkpt lat="43.034358487023916" lon="11.068551251697084"><ele>464.0</ele><time>2026-04-26T15:54:52.999Z</time></trkpt><trkpt lat="43.03444764403126" lon="11.068690765156697"><ele>464.75</ele><time>2026-04-26T15:54:53.999Z</time></trkpt><trkpt lat="43.034561381321915" lon="11.068799142866727"><ele>465.5</ele><time>2026-04-26T15:54:54.999Z</time></trkpt><trkpt lat="43.03468803301906" lon="11.068884851082428"><ele>466.25</ele><time>2026-04-26T15:54:55.999Z</time></trkpt><trkpt lat="43.034805861351494" lon="11.068980240847681"><ele>467.0</ele><time>2026-04-26T15:54:56.999Z</time></trkpt><trkpt lat="43.03490637054603" lon="11.069087431604181"><ele>470.25</ele><time>2026-04-26T15:54:57.999Z</time></trkpt><trkpt lat="43.034977333448715" lon="11.069216607503046"><ele>473.5</ele><time>2026-04-26T15:54:58.999Z</time></trkpt><trkpt lat="43.03503364855964" lon="11.069374705463366"><ele>476.75</ele><time>2026-04-26T15:54:59.999Z</time></trkpt><trkpt lat="43.035081878813564" lon="11.069547493685588"><ele>480.0</ele><time>2026-04-26T15:55:00.999Z</time></trkpt><trkpt lat="43.0350984215239" lon="11.069752610805198"><ele>479.0</ele><time>2026-04-26T15:55:01.999Z</time></trkpt><trkpt lat="43.03510529712235" lon="11.069961691049889"><ele>478.0</ele><time>2026-04-26T15:55:02.999Z</time></trkpt><trkpt lat="43.03512168493346" lon="11.07017980785277"><ele>477.0</ele><time>2026-04-26T15:55:03.999Z</time></trkpt><trkpt lat="43.03513890854708" lon="11.070403115448828"><ele>477.0</ele><time>2026-04-26T15:55:04.999Z</time></trkpt><trkpt lat="43.03514569404254" lon="11.070636484425982"><ele>477.0</ele><time>2026-04-26T15:55:05.999Z</time></trkpt><trkpt lat="43.03514087214098" lon="11.0708815185652"><ele>477.0</ele><time>2026-04-26T15:55:06.999Z</time></trkpt><trkpt lat="43.03511823880545" lon="11.071114196532136"><ele>477.0</ele><time>2026-04-26T15:55:07.999Z</time></trkpt><trkpt lat="43.03508533118679" lon="11.071342520366086"><ele>477.0</ele><time>2026-04-26T15:55:08.999Z</time></trkpt><trkpt lat="43.03502329140761" lon="11.071554231920695"><ele>477.0</ele><time>2026-04-26T15:55:09.999Z</time></trkpt><trkpt lat="43.03493624682829" lon="11.071720154960564"><ele>475.0</ele><time>2026-04-26T15:55:10.999Z</time></trkpt><trkpt lat="43.0348185969654" lon="11.071865455607488"><ele>473.0</ele><time>2026-04-26T15:55:11.999Z</time></trkpt><trkpt lat="43.034692412515774" lon="11.071976902908654"><ele>471.0</ele><time>2026-04-26T15:55:12.999Z</time></trkpt><trkpt lat="43.034583863163384" lon="11.072100161016325"><ele>471.0</ele><time>2026-04-26T15:55:13.999Z</time></trkpt><trkpt lat="43.034457154447885" lon="11.072224527999401"><ele>471.0</ele><time>2026-04-26T15:55:14.999Z</time></trkpt><trkpt lat="43.0343641146098" lon="11.072399888287325"><ele>471.0</ele><time>2026-04-26T15:55:15.999Z</time></trkpt><trkpt lat="43.0342761282189" lon="11.072578772169212"><ele>468.33333333333337</ele><time>2026-04-26T15:55:16.999Z</time></trkpt><trkpt lat="43.034188679087976" lon="11.072760969131908"><ele>465.6666666666667</ele><time>2026-04-26T15:55:17.999Z</time></trkpt><trkpt lat="43.03409705656124" lon="11.072951861206706"><ele>463.0</ele><time>2026-04-26T15:55:18.999Z</time></trkpt><trkpt lat="43.0340001129266" lon="11.07315232401025"><ele>466.33333333333337</ele><time>2026-04-26T15:55:19.999Z</time></trkpt><trkpt lat="43.033892522175925" lon="11.073370061080437"><ele>469.66666666666663</ele><time>2026-04-26T15:55:20.999Z</time></trkpt><trkpt lat="43.033791666864005" lon="11.073574217030638"><ele>473.0</ele><time>2026-04-26T15:55:21.999Z</time></trkpt><trkpt lat="43.03369805369267" lon="11.073770962060337"><ele>473.0</ele><time>2026-04-26T15:55:22.999Z</time></trkpt><trkpt lat="43.03361583443941" lon="11.073961269521483"><ele>473.0</ele><time>2026-04-26T15:55:23.999Z</time></trkpt><trkpt lat="43.03353855097544" lon="11.074163331476058"><ele>473.0</ele><time>2026-04-26T15:55:24.999Z</time></trkpt><trkpt lat="43.03347410018178" lon="11.074366525354153"><ele>477.0</ele><time>2026-04-26T15:55:25.999Z</time></trkpt><trkpt lat="43.03341783684853" lon="11.074572180163191"><ele>481.0</ele><time>2026-04-26T15:55:26.999Z</time></trkpt><trkpt lat="43.03336874111015" lon="11.074775132428783"><ele>485.0</ele><time>2026-04-26T15:55:27.999Z</time></trkpt><trkpt lat="43.03333106834595" lon="11.074992630404568"><ele>486.0</ele><time>2026-04-26T15:55:28.999Z</time></trkpt><trkpt lat="43.03331262429255" lon="11.075201975821622"><ele>487.0</ele><time>2026-04-26T15:55:29.999Z</time></trkpt><trkpt lat="43.033319530593744" lon="11.075418587573425"><ele>488.0</ele><time>2026-04-26T15:55:30.999Z</time></trkpt><trkpt lat="43.0333489382263" lon="11.075617101792888"><ele>487.75</ele><time>2026-04-26T15:55:31.999Z</time></trkpt><trkpt lat="43.03340801679074" lon="11.075803306585494"><ele>487.5</ele><time>2026-04-26T15:55:32.999Z</time></trkpt><trkpt lat="43.03346856523329" lon="11.075968234497086"><ele>487.25</ele><time>2026-04-26T15:55:33.999Z</time></trkpt><trkpt lat="43.03349952914643" lon="11.076130161830294"><ele>487.0</ele><time>2026-04-26T15:55:34.999Z</time></trkpt><trkpt lat="43.0335074858647" lon="11.076272653603848"><ele>487.0</ele><time>2026-04-26T15:55:35.999Z</time></trkpt><trkpt lat="43.033499663645706" lon="11.076390681655534"><ele>487.00000000000006</ele><time>2026-04-26T15:55:36.999Z</time></trkpt><trkpt lat="43.0334618465999" lon="11.076524077761473"><ele>487.00000000000006</ele><time>2026-04-26T15:55:37.999Z</time></trkpt><trkpt lat="43.033379298056545" lon="11.076623316567426"><ele>487.0</ele><time>2026-04-26T15:55:38.999Z</time></trkpt><trkpt lat="43.03326368782015" lon="11.076707918114137"><ele>487.0</ele><time>2026-04-26T15:55:39.999Z</time></trkpt><trkpt lat="43.033158046205095" lon="11.076745868206245"><ele>486.20000000000005</ele><time>2026-04-26T15:55:40.999Z</time></trkpt><trkpt lat="43.03305582725614" lon="11.076831592664744"><ele>485.40000000000003</ele><time>2026-04-26T15:55:41.999Z</time></trkpt><trkpt lat="43.032954529823286" lon="11.076865220564027"><ele>484.59999999999997</ele><time>2026-04-26T15:55:42.999Z</time></trkpt><trkpt lat="43.03284819234381" lon="11.076870332745246"><ele>483.79999999999995</ele><time>2026-04-26T15:55:43.999Z</time></trkpt><trkpt lat="43.032748721769494" lon="11.076902781840529"><ele>483.0</ele><time>2026-04-26T15:55:44.998Z</time></trkpt><trkpt lat="43.03262717684032" lon="11.076957154925067"><ele>483.0</ele><time>2026-04-26T15:55:45.998Z</time></trkpt><trkpt lat="43.03252816408701" lon="11.077080565260871"><ele>483.0</ele><time>2026-04-26T15:55:46.998Z</time></trkpt><trkpt lat="43.032453437877045" lon="11.07726173366364"><ele>483.0</ele><time>2026-04-26T15:55:47.998Z</time></trkpt><trkpt lat="43.03241045641978" lon="11.077474279251113"><ele>483.0</ele><time>2026-04-26T15:55:48.998Z</time></trkpt><trkpt lat="43.0325787569707" lon="11.077666480872992"><ele>486.5</ele><time>2026-04-26T15:55:49.998Z</time></trkpt><trkpt lat="43.03258366129263" lon="11.077849409488511"><ele>490.0</ele><time>2026-04-26T15:55:50.998Z</time></trkpt><trkpt lat="43.032553713945056" lon="11.07804553097487"><ele>493.5</ele><time>2026-04-26T15:55:51.998Z</time></trkpt><trkpt lat="43.03255192090728" lon="11.07822929907256"><ele>497.0</ele><time>2026-04-26T15:55:52.998Z</time></trkpt><trkpt lat="43.032514467485385" lon="11.078427401697253"><ele>497.5</ele><time>2026-04-26T15:55:53.998Z</time></trkpt><trkpt lat="43.03247791352077" lon="11.078587002892307"><ele>498.0</ele><time>2026-04-26T15:55:54.998Z</time></trkpt><trkpt lat="43.032427426638215" lon="11.078759822522292"><ele>498.5</ele><time>2026-04-26T15:55:55.998Z</time></trkpt><trkpt lat="43.03235411814592" lon="11.078929817427545"><ele>499.0</ele><time>2026-04-26T15:55:56.998Z</time></trkpt><trkpt lat="43.03224596988343" lon="11.079085979856089"><ele>496.6666666666667</ele><time>2026-04-26T15:55:57.998Z</time></trkpt><trkpt lat="43.032084895756604" lon="11.079184643556237"><ele>494.33333333333337</ele><time>2026-04-26T15:55:58.998Z</time></trkpt><trkpt lat="43.03195871292584" lon="11.079394630106373"><ele>492.0</ele><time>2026-04-26T15:55:59.998Z</time></trkpt><trkpt lat="43.03183508187527" lon="11.07958195690059"><ele>492.0</ele><time>2026-04-26T15:56:00.998Z</time></trkpt><trkpt lat="43.03173146672977" lon="11.079765045424303"><ele>492.0</ele><time>2026-04-26T15:56:01.998Z</time></trkpt><trkpt lat="43.03165599377106" lon="11.07996188003915"><ele>492.0</ele><time>2026-04-26T15:56:02.998Z</time></trkpt><trkpt lat="43.03151901324147" lon="11.08014618345688"><ele>492.25</ele><time>2026-04-26T15:56:03.998Z</time></trkpt><trkpt lat="43.031480457372574" lon="11.080377491455199"><ele>492.5</ele><time>2026-04-26T15:56:04.998Z</time></trkpt><trkpt lat="43.03145776425973" lon="11.080569013002968"><ele>492.75</ele><time>2026-04-26T15:56:05.998Z</time></trkpt><trkpt lat="43.03141627047892" lon="11.08071194870959"><ele>493.0</ele><time>2026-04-26T15:56:06.998Z</time></trkpt><trkpt lat="43.031339165337194" lon="11.080825456913821"><ele>495.79999999999995</ele><time>2026-04-26T15:56:07.998Z</time></trkpt><trkpt lat="43.031235593980625" lon="11.08089273350726"><ele>498.59999999999997</ele><time>2026-04-26T15:56:08.998Z</time></trkpt><trkpt lat="43.03114166984643" lon="11.08094833038112"><ele>501.40000000000003</ele><time>2026-04-26T15:56:09.998Z</time></trkpt><trkpt lat="43.03104027171614" lon="11.080982690065326"><ele>504.20000000000005</ele><time>2026-04-26T15:56:10.998Z</time></trkpt><trkpt lat="43.030939531250446" lon="11.080976832847107"><ele>507.0</ele><time>2026-04-26T15:56:11.998Z</time></trkpt><trkpt lat="43.03083988931939" lon="11.080947655150487"><ele>508.25</ele><time>2026-04-26T15:56:12.998Z</time></trkpt><trkpt lat="43.0307327408724" lon="11.08089604076537"><ele>509.5</ele><time>2026-04-26T15:56:13.998Z</time></trkpt><trkpt lat="43.030616420797415" lon="11.08084526740891"><ele>510.75</ele><time>2026-04-26T15:56:14.998Z</time></trkpt><trkpt lat="43.03049786136171" lon="11.080804818339063"><ele>512.0</ele><time>2026-04-26T15:56:15.998Z</time></trkpt><trkpt lat="43.03038634880534" lon="11.080776786522332"><ele>509.40000000000003</ele><time>2026-04-26T15:56:16.998Z</time></trkpt><trkpt lat="43.03028568769688" lon="11.080761709712863"><ele>506.80000000000007</ele><time>2026-04-26T15:56:17.998Z</time></trkpt><trkpt lat="43.03018894809565" lon="11.080736072044807"><ele>504.2</ele><time>2026-04-26T15:56:18.998Z</time></trkpt><trkpt lat="43.030082184879035" lon="11.080717093649215"><ele>501.6</ele><time>2026-04-26T15:56:19.998Z</time></trkpt><trkpt lat="43.02998877600289" lon="11.080720926250331"><ele>499.0</ele><time>2026-04-26T15:56:20.998Z</time></trkpt><trkpt lat="43.02989736882312" lon="11.080741136118464"><ele>500.79999999999995</ele><time>2026-04-26T15:56:21.998Z</time></trkpt><trkpt lat="43.02980672629739" lon="11.080785202197253"><ele>502.59999999999997</ele><time>2026-04-26T15:56:22.998Z</time></trkpt><trkpt lat="43.0297237420935" lon="11.080846966302742"><ele>504.4</ele><time>2026-04-26T15:56:24Z</time></trkpt><trkpt lat="43.02964348514304" lon="11.08090893927854"><ele>506.2</ele><time>2026-04-26T15:56:25Z</time></trkpt><trkpt lat="43.02956292885187" lon="11.080963533221109"><ele>508.0</ele><time>2026-04-26T15:56:26Z</time></trkpt><trkpt lat="43.02947792294214" lon="11.0809951172945"><ele>508.0</ele><time>2026-04-26T15:56:27Z</time></trkpt><trkpt lat="43.029402621797495" lon="11.081044043744933"><ele>507.99999999999994</ele><time>2026-04-26T15:56:28Z</time></trkpt><trkpt lat="43.02929615902377" lon="11.081138748328318"><ele>507.99999999999994</ele><time>2026-04-26T15:56:30Z</time></trkpt><trkpt lat="43.029227515592474" lon="11.081191570216928"><ele>508.0</ele><time>2026-04-26T15:56:31Z</time></trkpt><trkpt lat="43.02916087650831" lon="11.081250689061408"><ele>508.0</ele><time>2026-04-26T15:56:32Z</time></trkpt><trkpt lat="43.02909109285363" lon="11.081316120420942"><ele>509.83333333333337</ele><time>2026-04-26T15:56:33Z</time></trkpt><trkpt lat="43.02901446159612" lon="11.081366862512349"><ele>511.6666666666667</ele><time>2026-04-26T15:56:34Z</time></trkpt><trkpt lat="43.02894199023731" lon="11.081413011276025"><ele>513.5</ele><time>2026-04-26T15:56:35Z</time></trkpt><trkpt lat="43.028856450456416" lon="11.08144682454689"><ele>515.3333333333334</ele><time>2026-04-26T15:56:36Z</time></trkpt><trkpt lat="43.02877877851184" lon="11.081464115312224"><ele>517.1666666666666</ele><time>2026-04-26T15:56:37Z</time></trkpt><trkpt lat="43.02870020059634" lon="11.081482351538433"><ele>519.0</ele><time>2026-04-26T15:56:38Z</time></trkpt><trkpt lat="43.02862596841929" lon="11.081520540742726"><ele>519.0</ele><time>2026-04-26T15:56:39Z</time></trkpt><trkpt lat="43.02856463760927" lon="11.08156795939389"><ele>519.0</ele><time>2026-04-26T15:56:40Z</time></trkpt><trkpt lat="43.028505193337864" lon="11.08161128536406"><ele>519.0</ele><time>2026-04-26T15:56:41Z</time></trkpt><trkpt lat="43.02844485600557" lon="11.081651526275147"><ele>519.0</ele><time>2026-04-26T15:56:42Z</time></trkpt><trkpt lat="43.02838078184827" lon="11.081681295348215"><ele>519.0</ele><time>2026-04-26T15:56:43Z</time></trkpt><trkpt lat="43.02827733160103" lon="11.081737550591665"><ele>519.0</ele><time>2026-04-26T15:56:45Z</time></trkpt><trkpt lat="43.02819383497421" lon="11.081778936071"><ele>516.8</ele><time>2026-04-26T15:56:47Z</time></trkpt><trkpt lat="43.02810685752716" lon="11.081822163437346"><ele>514.5999999999999</ele><time>2026-04-26T15:56:50Z</time></trkpt><trkpt lat="43.028071064385436" lon="11.081911292311633"><ele>512.4</ele><time>2026-04-26T15:56:57Z</time></trkpt><trkpt lat="43.028078478684044" lon="11.082102366931856"><ele>510.2</ele><time>2026-04-26T15:57:00.999Z</time></trkpt><trkpt lat="43.0281287383943" lon="11.08224212698718"><ele>508.0</ele><time>2026-04-26T15:57:01.999Z</time></trkpt><trkpt lat="43.02828555301703" lon="11.08240106280935"><ele>509.0</ele><time>2026-04-26T15:57:02.999Z</time></trkpt><trkpt lat="43.02836222815005" lon="11.08253822582203"><ele>510.0</ele><time>2026-04-26T15:57:03.999Z</time></trkpt><trkpt lat="43.02842740324264" lon="11.082671413053156"><ele>511.0</ele><time>2026-04-26T15:57:04.999Z</time></trkpt><trkpt lat="43.02849665183119" lon="11.082792220425818"><ele>512.0</ele><time>2026-04-26T15:57:05.999Z</time></trkpt><trkpt lat="43.028556062273026" lon="11.08290819985533"><ele>512.0</ele><time>2026-04-26T15:57:06.999Z</time></trkpt><trkpt lat="43.02860333056422" lon="11.083039213880156"><ele>512.0</ele><time>2026-04-26T15:57:07.999Z</time></trkpt><trkpt lat="43.02865302087302" lon="11.08317234839874"><ele>512.0</ele><time>2026-04-26T15:57:08.999Z</time></trkpt><trkpt lat="43.02871332782792" lon="11.083291171372833"><ele>512.0</ele><time>2026-04-26T15:57:09.999Z</time></trkpt><trkpt lat="43.02878087153886" lon="11.083401982239158"><ele>512.0</ele><time>2026-04-26T15:57:10.999Z</time></trkpt><trkpt lat="43.028881366590596" lon="11.083474654873369"><ele>512.0</ele><time>2026-04-26T15:57:11.999Z</time></trkpt><trkpt lat="43.028968701845734" lon="11.083591856980968"><ele>512.0</ele><time>2026-04-26T15:57:12.999Z</time></trkpt><trkpt lat="43.0290565975631" lon="11.083724559424242"><ele>512.0</ele><time>2026-04-26T15:57:13.999Z</time></trkpt><trkpt lat="43.029112608472666" lon="11.083885856392026"><ele>512.0</ele><time>2026-04-26T15:57:14.999Z</time></trkpt><trkpt lat="43.029194044580905" lon="11.08403483544854"><ele>511.0</ele><time>2026-04-26T15:57:15.999Z</time></trkpt><trkpt lat="43.029273889050785" lon="11.08418537847657"><ele>510.0</ele><time>2026-04-26T15:57:16.999Z</time></trkpt><trkpt lat="43.029349497915554" lon="11.084328026254841"><ele>509.0</ele><time>2026-04-26T15:57:17.999Z</time></trkpt><trkpt lat="43.02941284273859" lon="11.084486057629897"><ele>508.0</ele><time>2026-04-26T15:57:18.999Z</time></trkpt><trkpt lat="43.02946855405607" lon="11.08463595873949"><ele>508.0</ele><time>2026-04-26T15:57:19.999Z</time></trkpt><trkpt lat="43.02951064640042" lon="11.084777746920565"><ele>507.99999999999994</ele><time>2026-04-26T15:57:20.999Z</time></trkpt><trkpt lat="43.02951726309755" lon="11.084904464421014"><ele>507.99999999999994</ele><time>2026-04-26T15:57:21.999Z</time></trkpt><trkpt lat="43.029511677890554" lon="11.085016250936334"><ele>508.0</ele><time>2026-04-26T15:57:22.999Z</time></trkpt><trkpt lat="43.02948087919394" lon="11.085103484832107"><ele>508.0</ele><time>2026-04-26T15:57:23.999Z</time></trkpt><trkpt lat="43.029339609880026" lon="11.085204058127529"><ele>509.0</ele><time>2026-04-26T15:57:25.999Z</time></trkpt><trkpt lat="43.02924369972987" lon="11.085148423031681"><ele>509.99999999999994</ele><time>2026-04-26T15:57:26.999Z</time></trkpt><trkpt lat="43.02915127537328" lon="11.0851158823068"><ele>510.99999999999994</ele><time>2026-04-26T15:57:27.999Z</time></trkpt><trkpt lat="43.0290426355202" lon="11.085094019672518"><ele>512.0</ele><time>2026-04-26T15:57:28.999Z</time></trkpt><trkpt lat="43.02892393383614" lon="11.085061650596854"><ele>513.0</ele><time>2026-04-26T15:57:29.999Z</time></trkpt><trkpt lat="43.02881585515313" lon="11.085094860633363"><ele>510.25</ele><time>2026-04-26T15:57:30.999Z</time></trkpt><trkpt lat="43.02870746214918" lon="11.085171572743873"><ele>507.5</ele><time>2026-04-26T15:57:31.999Z</time></trkpt><trkpt lat="43.02860497202735" lon="11.085348402534956"><ele>504.75</ele><time>2026-04-26T15:57:32.999Z</time></trkpt><trkpt lat="43.02854030512765" lon="11.085510534017297"><ele>502.0</ele><time>2026-04-26T15:57:33.999Z</time></trkpt><trkpt lat="43.028487875805666" lon="11.085665597896087"><ele>500.6</ele><time>2026-04-26T15:57:34.999Z</time></trkpt><trkpt lat="43.028427328952375" lon="11.085784459579173"><ele>499.20000000000005</ele><time>2026-04-26T15:57:35.999Z</time></trkpt><trkpt lat="43.028330036672955" lon="11.085825804235153"><ele>497.8</ele><time>2026-04-26T15:57:36.999Z</time></trkpt><trkpt lat="43.02824056650087" lon="11.085752074924597"><ele>496.4</ele><time>2026-04-26T15:57:37.999Z</time></trkpt><trkpt lat="43.02814279823308" lon="11.08568918090966"><ele>495.0</ele><time>2026-04-26T15:57:38.999Z</time></trkpt><trkpt lat="43.028036591292896" lon="11.085655989648547"><ele>495.0</ele><time>2026-04-26T15:57:39.999Z</time></trkpt><trkpt lat="43.027924723739154" lon="11.085652085417797"><ele>495.0</ele><time>2026-04-26T15:57:40.999Z</time></trkpt><trkpt lat="43.0278272147309" lon="11.085703416631478"><ele>495.0</ele><time>2026-04-26T15:57:41.999Z</time></trkpt><trkpt lat="43.02774143967042" lon="11.085808079496879"><ele>495.0</ele><time>2026-04-26T15:57:42.999Z</time></trkpt><trkpt lat="43.02764174488669" lon="11.085879702371654"><ele>495.0</ele><time>2026-04-26T15:57:43.999Z</time></trkpt><trkpt lat="43.02753971131386" lon="11.085995381750529"><ele>498.25</ele><time>2026-04-26T15:57:44.999Z</time></trkpt><trkpt lat="43.027432804799055" lon="11.086096031316439"><ele>501.5</ele><time>2026-04-26T15:57:45.999Z</time></trkpt><trkpt lat="43.02733399802742" lon="11.086202234714131"><ele>504.75</ele><time>2026-04-26T15:57:46.999Z</time></trkpt><trkpt lat="43.027283602299164" lon="11.08633440286526"><ele>508.0</ele><time>2026-04-26T15:57:47.999Z</time></trkpt><trkpt lat="43.027262775961375" lon="11.08645211178943"><ele>508.0</ele><time>2026-04-26T15:57:48.999Z</time></trkpt><trkpt lat="43.02725668307763" lon="11.086550361262816"><ele>507.99999999999994</ele><time>2026-04-26T15:57:49.999Z</time></trkpt><trkpt lat="43.02725858998463" lon="11.086650696391994"><ele>507.99999999999994</ele><time>2026-04-26T15:57:50.999Z</time></trkpt><trkpt lat="43.027273849908354" lon="11.086789784300725"><ele>508.0</ele><time>2026-04-26T15:57:51.999Z</time></trkpt><trkpt lat="43.02730235672029" lon="11.086914518515517"><ele>508.0</ele><time>2026-04-26T15:57:52.999Z</time></trkpt><trkpt lat="43.02734898004927" lon="11.08705028022611"><ele>508.0</ele><time>2026-04-26T15:57:53.998Z</time></trkpt><trkpt lat="43.0274016852693" lon="11.08718225343849"><ele>508.0</ele><time>2026-04-26T15:57:54.998Z</time></trkpt><trkpt lat="43.02746749680342" lon="11.087338479547599"><ele>508.0</ele><time>2026-04-26T15:57:55.998Z</time></trkpt><trkpt lat="43.027530153576855" lon="11.087491768574989"><ele>508.0</ele><time>2026-04-26T15:57:56.998Z</time></trkpt><trkpt lat="43.02759697976323" lon="11.087864342620165"><ele>507.25</ele><time>2026-04-26T15:57:57.998Z</time></trkpt><trkpt lat="43.02750322667315" lon="11.088097319582957"><ele>506.5</ele><time>2026-04-26T15:57:58.998Z</time></trkpt><trkpt lat="43.02738498787158" lon="11.088109724326179"><ele>505.75</ele><time>2026-04-26T15:57:59.998Z</time></trkpt><trkpt lat="43.02729845065332" lon="11.088126063540276"><ele>505.0</ele><time>2026-04-26T15:58:00.998Z</time></trkpt><trkpt lat="43.0271896259191" lon="11.088125242037469"><ele>505.0</ele><time>2026-04-26T15:58:01.998Z</time></trkpt><trkpt lat="43.027104992543954" lon="11.088152693918063"><ele>505.0</ele><time>2026-04-26T15:58:02.998Z</time></trkpt><trkpt lat="43.027034474945445" lon="11.088197324215045"><ele>505.0</ele><time>2026-04-26T15:58:03.998Z</time></trkpt><trkpt lat="43.026974227964786" lon="11.088266501773258"><ele>505.0</ele><time>2026-04-26T15:58:04.998Z</time></trkpt><trkpt lat="43.02688772282831" lon="11.088372791474812"><ele>505.0</ele><time>2026-04-26T15:58:05.998Z</time></trkpt><trkpt lat="43.026840955292016" lon="11.088518102210179"><ele>507.0</ele><time>2026-04-26T15:58:06.998Z</time></trkpt><trkpt lat="43.026797283755755" lon="11.088684266032452"><ele>509.0</ele><time>2026-04-26T15:58:07.998Z</time></trkpt><trkpt lat="43.02674134749499" lon="11.088864766924084"><ele>511.0</ele><time>2026-04-26T15:58:08.998Z</time></trkpt><trkpt lat="43.026674574151635" lon="11.08901896236991"><ele>513.0</ele><time>2026-04-26T15:58:09.998Z</time></trkpt><trkpt lat="43.02658935322347" lon="11.089154765924052"><ele>513.0</ele><time>2026-04-26T15:58:10.998Z</time></trkpt><trkpt lat="43.026461566166745" lon="11.089234797776115"><ele>513.0</ele><time>2026-04-26T15:58:11.998Z</time></trkpt><trkpt lat="43.02635255490272" lon="11.089347860743061"><ele>513.0</ele><time>2026-04-26T15:58:12.998Z</time></trkpt><trkpt lat="43.026240219053086" lon="11.089465558300365"><ele>513.0</ele><time>2026-04-26T15:58:13.998Z</time></trkpt><trkpt lat="43.02612300937866" lon="11.089588562473558"><ele>513.0</ele><time>2026-04-26T15:58:14.998Z</time></trkpt><trkpt lat="43.02600999361385" lon="11.089708761554018"><ele>513.0</ele><time>2026-04-26T15:58:15.998Z</time></trkpt><trkpt lat="43.025905995564244" lon="11.089812635216608"><ele>513.0</ele><time>2026-04-26T15:58:16.998Z</time></trkpt><trkpt lat="43.02579796904955" lon="11.089892298023504"><ele>513.0</ele><time>2026-04-26T15:58:17.998Z</time></trkpt><trkpt lat="43.02568045057451" lon="11.089929507961305"><ele>516.75</ele><time>2026-04-26T15:58:18.998Z</time></trkpt><trkpt lat="43.02555271724233" lon="11.089995369863589"><ele>520.5</ele><time>2026-04-26T15:58:19.998Z</time></trkpt><trkpt lat="43.025417046371466" lon="11.089988501140597"><ele>524.25</ele><time>2026-04-26T15:58:20.998Z</time></trkpt><trkpt lat="43.025278027247495" lon="11.08996929881007"><ele>528.0</ele><time>2026-04-26T15:58:21.998Z</time></trkpt><trkpt lat="43.025138191025256" lon="11.08994859253086"><ele>524.25</ele><time>2026-04-26T15:58:22.998Z</time></trkpt><trkpt lat="43.02500835746355" lon="11.089896904734445"><ele>520.5</ele><time>2026-04-26T15:58:23.998Z</time></trkpt><trkpt lat="43.024878383238395" lon="11.089922798409974"><ele>516.75</ele><time>2026-04-26T15:58:24.998Z</time></trkpt><trkpt lat="43.02476879451549" lon="11.090013428297294"><ele>513.0</ele><time>2026-04-26T15:58:25.998Z</time></trkpt><trkpt lat="43.024701246232006" lon="11.090148318253092"><ele>512.5</ele><time>2026-04-26T15:58:26.998Z</time></trkpt><trkpt lat="43.02465288438212" lon="11.090298702190278"><ele>512.0</ele><time>2026-04-26T15:58:27.998Z</time></trkpt><trkpt lat="43.024630810060145" lon="11.090456851275334"><ele>511.5</ele><time>2026-04-26T15:58:28.998Z</time></trkpt><trkpt lat="43.02464130386808" lon="11.090631869874768"><ele>511.0</ele><time>2026-04-26T15:58:30Z</time></trkpt><trkpt lat="43.024663724359854" lon="11.090811874460805"><ele>511.0</ele><time>2026-04-26T15:58:31Z</time></trkpt><trkpt lat="43.024667877613" lon="11.090995804656837"><ele>511.0</ele><time>2026-04-26T15:58:32Z</time></trkpt><trkpt lat="43.02462066690875" lon="11.091177804795088"><ele>511.0</ele><time>2026-04-26T15:58:33Z</time></trkpt><trkpt lat="43.02456708019948" lon="11.091364779560493"><ele>511.0</ele><time>2026-04-26T15:58:34Z</time></trkpt><trkpt lat="43.02454518594047" lon="11.091569471341426"><ele>514.0</ele><time>2026-04-26T15:58:35Z</time></trkpt><trkpt lat="43.02453328735701" lon="11.091756224232034"><ele>517.0</ele><time>2026-04-26T15:58:36Z</time></trkpt><trkpt lat="43.02453225315056" lon="11.091929593461046"><ele>520.0</ele><time>2026-04-26T15:58:37Z</time></trkpt><trkpt lat="43.024513708513844" lon="11.092088782487926"><ele>523.0</ele><time>2026-04-26T15:58:38Z</time></trkpt><trkpt lat="43.02444093286676" lon="11.092213399336979"><ele>523.0</ele><time>2026-04-26T15:58:39Z</time></trkpt><trkpt lat="43.02434921697847" lon="11.092300661181751"><ele>523.0</ele><time>2026-04-26T15:58:40Z</time></trkpt><trkpt lat="43.024250861724354" lon="11.092405569553819"><ele>523.0</ele><time>2026-04-26T15:58:41Z</time></trkpt><trkpt lat="43.0241462338659" lon="11.092510243009452"><ele>523.0</ele><time>2026-04-26T15:58:42Z</time></trkpt><trkpt lat="43.02404605478695" lon="11.092603615189702"><ele>523.75</ele><time>2026-04-26T15:58:43Z</time></trkpt><trkpt lat="43.023941087073624" lon="11.092676311842157"><ele>524.5</ele><time>2026-04-26T15:58:44Z</time></trkpt><trkpt lat="43.0238228186901" lon="11.092716572375128"><ele>525.25</ele><time>2026-04-26T15:58:45Z</time></trkpt><trkpt lat="43.02370002958495" lon="11.092746169777527"><ele>526.0</ele><time>2026-04-26T15:58:46Z</time></trkpt><trkpt lat="43.02358885467491" lon="11.092778287814"><ele>526.0</ele><time>2026-04-26T15:58:47Z</time></trkpt><trkpt lat="43.02348680560458" lon="11.092828821662927"><ele>526.0</ele><time>2026-04-26T15:58:48Z</time></trkpt><trkpt lat="43.023392301685156" lon="11.092922773953157"><ele>526.0</ele><time>2026-04-26T15:58:49Z</time></trkpt><trkpt lat="43.02332319996596" lon="11.093035919197655"><ele>526.0</ele><time>2026-04-26T15:58:50Z</time></trkpt><trkpt lat="43.02325445709111" lon="11.093152197878094"><ele>526.0</ele><time>2026-04-26T15:58:51Z</time></trkpt><trkpt lat="43.02318873211894" lon="11.09327291094502"><ele>529.0</ele><time>2026-04-26T15:58:52Z</time></trkpt><trkpt lat="43.02311837018546" lon="11.093390156784801"><ele>532.0</ele><time>2026-04-26T15:58:53Z</time></trkpt><trkpt lat="43.02302904098041" lon="11.093492154325165"><ele>535.0</ele><time>2026-04-26T15:58:54Z</time></trkpt><trkpt lat="43.022921484688915" lon="11.093560130740602"><ele>538.0</ele><time>2026-04-26T15:58:55Z</time></trkpt><trkpt lat="43.022807542305266" lon="11.093594042286618"><ele>538.0</ele><time>2026-04-26T15:58:56Z</time></trkpt><trkpt lat="43.02268972523866" lon="11.093639518842904"><ele>538.0</ele><time>2026-04-26T15:58:57Z</time></trkpt><trkpt lat="43.02257194425985" lon="11.093707318561291"><ele>538.0</ele><time>2026-04-26T15:58:58Z</time></trkpt><trkpt lat="43.02247187798146" lon="11.09380361531638"><ele>538.0</ele><time>2026-04-26T15:58:59Z</time></trkpt><trkpt lat="43.02240649615879" lon="11.09395996474732"><ele>535.5</ele><time>2026-04-26T15:59:00Z</time></trkpt><trkpt lat="43.02238614847423" lon="11.094129695652015"><ele>533.0</ele><time>2026-04-26T15:59:01Z</time></trkpt><trkpt lat="43.02239064167095" lon="11.09430951952153"><ele>530.5</ele><time>2026-04-26T15:59:02Z</time></trkpt><trkpt lat="43.02242118042209" lon="11.094476243111126"><ele>528.0</ele><time>2026-04-26T15:59:03Z</time></trkpt><trkpt lat="43.02247106297903" lon="11.094623765482629"><ele>531.0</ele><time>2026-04-26T15:59:04Z</time></trkpt><trkpt lat="43.02256479976969" lon="11.094745865910195"><ele>534.0</ele><time>2026-04-26T15:59:04.999Z</time></trkpt><trkpt lat="43.022662538724354" lon="11.094843990064511"><ele>537.0</ele><time>2026-04-26T15:59:05.999Z</time></trkpt><trkpt lat="43.02275803773093" lon="11.094955663909635"><ele>540.0</ele><time>2026-04-26T15:59:06.999Z</time></trkpt><trkpt lat="43.02283881091685" lon="11.095077472674651"><ele>540.0</ele><time>2026-04-26T15:59:07.999Z</time></trkpt><trkpt lat="43.02289592875363" lon="11.095227863767327"><ele>540.0</ele><time>2026-04-26T15:59:08.999Z</time></trkpt><trkpt lat="43.02292116806477" lon="11.095391957004075"><ele>540.0</ele><time>2026-04-26T15:59:09.999Z</time></trkpt><trkpt lat="43.02294704601729" lon="11.0955798114202"><ele>540.0</ele><time>2026-04-26T15:59:10.999Z</time></trkpt><trkpt lat="43.022977274115476" lon="11.095777051787394"><ele>539.3333333333334</ele><time>2026-04-26T15:59:11.999Z</time></trkpt><trkpt lat="43.0230128527418" lon="11.095979236415456"><ele>538.6666666666667</ele><time>2026-04-26T15:59:12.999Z</time></trkpt><trkpt lat="43.023058800594434" lon="11.096184308030951"><ele>538.0</ele><time>2026-04-26T15:59:13.999Z</time></trkpt><trkpt lat="43.02309923556241" lon="11.09639853948926"><ele>537.0</ele><time>2026-04-26T15:59:14.999Z</time></trkpt><trkpt lat="43.02312425230583" lon="11.096619942068498"><ele>536.0</ele><time>2026-04-26T15:59:15.999Z</time></trkpt><trkpt lat="43.02314508519084" lon="11.096848555778116"><ele>535.0</ele><time>2026-04-26T15:59:16.999Z</time></trkpt><trkpt lat="43.023160797744445" lon="11.097073807530885"><ele>535.0</ele><time>2026-04-26T15:59:17.999Z</time></trkpt><trkpt lat="43.02317621658254" lon="11.097300294083068"><ele>535.0</ele><time>2026-04-26T15:59:18.999Z</time></trkpt><trkpt lat="43.023192510245686" lon="11.097521845896338"><ele>535.0</ele><time>2026-04-26T15:59:19.999Z</time></trkpt><trkpt lat="43.02321067387997" lon="11.097733879804236"><ele>534.6666666666667</ele><time>2026-04-26T15:59:20.999Z</time></trkpt><trkpt lat="43.02323840907934" lon="11.097946854337962"><ele>534.3333333333334</ele><time>2026-04-26T15:59:21.999Z</time></trkpt><trkpt lat="43.02327901437437" lon="11.09815635422533"><ele>534.0</ele><time>2026-04-26T15:59:22.999Z</time></trkpt><trkpt lat="43.023307889987336" lon="11.098363906822613"><ele>531.6666666666666</ele><time>2026-04-26T15:59:23.999Z</time></trkpt><trkpt lat="43.02329935758754" lon="11.098579417584363"><ele>529.3333333333333</ele><time>2026-04-26T15:59:24.999Z</time></trkpt><trkpt lat="43.023275937274164" lon="11.0987977582353"><ele>527.0</ele><time>2026-04-26T15:59:25.999Z</time></trkpt><trkpt lat="43.02326019637177" lon="11.099021599900986"><ele>527.6666666666666</ele><time>2026-04-26T15:59:26.999Z</time></trkpt><trkpt lat="43.023274647254" lon="11.099242926782303"><ele>528.3333333333334</ele><time>2026-04-26T15:59:27.999Z</time></trkpt><trkpt lat="43.02328932637282" lon="11.09945107996576"><ele>529.0</ele><time>2026-04-26T15:59:28.999Z</time></trkpt><trkpt lat="43.023281021534785" lon="11.099665425809215"><ele>529.0</ele><time>2026-04-26T15:59:29.999Z</time></trkpt><trkpt lat="43.02325816036648" lon="11.099873732824669"><ele>529.0</ele><time>2026-04-26T15:59:30.999Z</time></trkpt><trkpt lat="43.02324559905964" lon="11.100065001253416"><ele>529.0</ele><time>2026-04-26T15:59:31.999Z</time></trkpt><trkpt lat="43.0232718692545" lon="11.100242888140333"><ele>529.0</ele><time>2026-04-26T15:59:32.999Z</time></trkpt><trkpt lat="43.02331110850132" lon="11.100415465090492"><ele>532.0</ele><time>2026-04-26T15:59:33.999Z</time></trkpt><trkpt lat="43.02337411183354" lon="11.100582140588575"><ele>535.0</ele><time>2026-04-26T15:59:34.999Z</time></trkpt><trkpt lat="43.02342679227064" lon="11.100755087591484"><ele>538.0</ele><time>2026-04-26T15:59:35.999Z</time></trkpt><trkpt lat="43.02348129709503" lon="11.100924050696383"><ele>541.0</ele><time>2026-04-26T15:59:36.999Z</time></trkpt><trkpt lat="43.02354146087794" lon="11.101105334525812"><ele>541.0</ele><time>2026-04-26T15:59:37.999Z</time></trkpt><trkpt lat="43.02358789302563" lon="11.101293286559232"><ele>541.0</ele><time>2026-04-26T15:59:38.999Z</time></trkpt><trkpt lat="43.0236426996886" lon="11.101487751750692"><ele>541.0</ele><time>2026-04-26T15:59:39.999Z</time></trkpt><trkpt lat="43.02368119741522" lon="11.101677503029274"><ele>541.0</ele><time>2026-04-26T15:59:40.999Z</time></trkpt><trkpt lat="43.02369727223386" lon="11.10186219247874"><ele>541.0</ele><time>2026-04-26T15:59:41.999Z</time></trkpt><trkpt lat="43.023692597332925" lon="11.102056947048931"><ele>541.0</ele><time>2026-04-26T15:59:42.999Z</time></trkpt><trkpt lat="43.02366124440141" lon="11.102267292043987"><ele>541.0</ele><time>2026-04-26T15:59:43.999Z</time></trkpt><trkpt lat="43.02360215467217" lon="11.102470432861319"><ele>541.0</ele><time>2026-04-26T15:59:44.999Z</time></trkpt><trkpt lat="43.02354160149493" lon="11.102667040204667"><ele>541.0</ele><time>2026-04-26T15:59:45.999Z</time></trkpt><trkpt lat="43.02348584079448" lon="11.102868883079934"><ele>541.0</ele><time>2026-04-26T15:59:46.999Z</time></trkpt><trkpt lat="43.023396764929615" lon="11.103045020105936"><ele>541.0</ele><time>2026-04-26T15:59:47.999Z</time></trkpt><trkpt lat="43.02332246634336" lon="11.103217155179387"><ele>541.0</ele><time>2026-04-26T15:59:48.999Z</time></trkpt><trkpt lat="43.02325734373675" lon="11.103381575072214"><ele>541.0</ele><time>2026-04-26T15:59:49.999Z</time></trkpt><trkpt lat="43.02321150071689" lon="11.103557960821666"><ele>541.0</ele><time>2026-04-26T15:59:50.999Z</time></trkpt><trkpt lat="43.02316785390874" lon="11.103732610831278"><ele>540.0</ele><time>2026-04-26T15:59:51.999Z</time></trkpt><trkpt lat="43.02314892341524" lon="11.103913471949113"><ele>539.0</ele><time>2026-04-26T15:59:52.999Z</time></trkpt><trkpt lat="43.02313921266156" lon="11.104097450021364"><ele>538.0</ele><time>2026-04-26T15:59:53.999Z</time></trkpt><trkpt lat="43.023142767461394" lon="11.104290383443757"><ele>537.0</ele><time>2026-04-26T15:59:54.999Z</time></trkpt><trkpt lat="43.02316097913615" lon="11.104481144595251"><ele>537.0</ele><time>2026-04-26T15:59:55.999Z</time></trkpt><trkpt lat="43.02318295932235" lon="11.104658024001406"><ele>537.0</ele><time>2026-04-26T15:59:56.999Z</time></trkpt><trkpt lat="43.023221736450886" lon="11.104826772169416"><ele>537.0</ele><time>2026-04-26T15:59:57.999Z</time></trkpt><trkpt lat="43.02327237263256" lon="11.104982150300405"><ele>537.0</ele><time>2026-04-26T15:59:58.999Z</time></trkpt><trkpt lat="43.02330746271197" lon="11.105131345650497"><ele>540.25</ele><time>2026-04-26T15:59:59.999Z</time></trkpt><trkpt lat="43.02335134257531" lon="11.105276938720847"><ele>543.5</ele><time>2026-04-26T16:00:00.998Z</time></trkpt><trkpt lat="43.02340051494987" lon="11.105433493733662"><ele>546.75</ele><time>2026-04-26T16:00:01.998Z</time></trkpt><trkpt lat="43.02346726161666" lon="11.105579142504114"><ele>550.0</ele><time>2026-04-26T16:00:02.998Z</time></trkpt><trkpt lat="43.023540404656615" lon="11.105736058597516"><ele>548.75</ele><time>2026-04-26T16:00:03.998Z</time></trkpt><trkpt lat="43.02361548100192" lon="11.10589407703495"><ele>547.5</ele><time>2026-04-26T16:00:04.998Z</time></trkpt><trkpt lat="43.023683405468546" lon="11.106065624070894"><ele>546.25</ele><time>2026-04-26T16:00:05.998Z</time></trkpt><trkpt lat="43.023756282025545" lon="11.106245560082542"><ele>545.0</ele><time>2026-04-26T16:00:06.998Z</time></trkpt><trkpt lat="43.023828198540926" lon="11.10642462988066"><ele>543.75</ele><time>2026-04-26T16:00:07.998Z</time></trkpt><trkpt lat="43.02390296014968" lon="11.106597353837229"><ele>542.5</ele><time>2026-04-26T16:00:08.998Z</time></trkpt><trkpt lat="43.02398419470226" lon="11.106760394227589"><ele>541.25</ele><time>2026-04-26T16:00:09.998Z</time></trkpt><trkpt lat="43.02406845897603" lon="11.106917771739445"><ele>540.0</ele><time>2026-04-26T16:00:10.998Z</time></trkpt><trkpt lat="43.02414973430914" lon="11.10707358859528"><ele>542.5</ele><time>2026-04-26T16:00:11.998Z</time></trkpt><trkpt lat="43.024226408636444" lon="11.107223762537647"><ele>545.0</ele><time>2026-04-26T16:00:12.998Z</time></trkpt><trkpt lat="43.02430331246486" lon="11.107369979339731"><ele>547.5</ele><time>2026-04-26T16:00:13.998Z</time></trkpt><trkpt lat="43.02437936338733" lon="11.107513027456779"><ele>550.0</ele><time>2026-04-26T16:00:14.998Z</time></trkpt><trkpt lat="43.02444711909994" lon="11.107653102449651"><ele>550.0</ele><time>2026-04-26T16:00:15.998Z</time></trkpt><trkpt lat="43.02450890543457" lon="11.107796528241435"><ele>550.0</ele><time>2026-04-26T16:00:16.998Z</time></trkpt><trkpt lat="43.02457042565316" lon="11.107932907098897"><ele>550.0</ele><time>2026-04-26T16:00:17.998Z</time></trkpt><trkpt lat="43.02463567385835" lon="11.108061059501976"><ele>550.0</ele><time>2026-04-26T16:00:18.998Z</time></trkpt><trkpt lat="43.0246983312705" lon="11.10818359221646"><ele>549.4</ele><time>2026-04-26T16:00:19.998Z</time></trkpt><trkpt lat="43.024756681127556" lon="11.108307926245141"><ele>548.8</ele><time>2026-04-26T16:00:20.998Z</time></trkpt><trkpt lat="43.02480607306869" lon="11.108423799966197"><ele>548.2</ele><time>2026-04-26T16:00:21.998Z</time></trkpt><trkpt lat="43.02486429343502" lon="11.108543803902942"><ele>547.6</ele><time>2026-04-26T16:00:22.998Z</time></trkpt><trkpt lat="43.02492252398924" lon="11.108667033266505"><ele>547.0</ele><time>2026-04-26T16:00:23.998Z</time></trkpt><trkpt lat="43.02497375273283" lon="11.10879396736481"><ele>548.75</ele><time>2026-04-26T16:00:24.998Z</time></trkpt><trkpt lat="43.0250252016716" lon="11.108930123930199"><ele>550.5</ele><time>2026-04-26T16:00:25.998Z</time></trkpt><trkpt lat="43.02506446567459" lon="11.109071292631102"><ele>552.25</ele><time>2026-04-26T16:00:26.998Z</time></trkpt><trkpt lat="43.02509519148209" lon="11.109225142829006"><ele>554.0</ele><time>2026-04-26T16:00:27.998Z</time></trkpt><trkpt lat="43.02511782826989" lon="11.109380106574415"><ele>554.0</ele><time>2026-04-26T16:00:28.998Z</time></trkpt><trkpt lat="43.025131218354815" lon="11.10953769850194"><ele>554.0</ele><time>2026-04-26T16:00:29.998Z</time></trkpt><trkpt lat="43.02514191822266" lon="11.109692323733588"><ele>554.0</ele><time>2026-04-26T16:00:30.998Z</time></trkpt><trkpt lat="43.02515358468586" lon="11.109845432039293"><ele>554.0</ele><time>2026-04-26T16:00:31.998Z</time></trkpt><trkpt lat="43.02515648294282" lon="11.109992112451494"><ele>554.0</ele><time>2026-04-26T16:00:32.998Z</time></trkpt><trkpt lat="43.02516235138809" lon="11.110130939472356"><ele>554.0</ele><time>2026-04-26T16:00:33.998Z</time></trkpt><trkpt lat="43.02515917111645" lon="11.110273378848081"><ele>554.0</ele><time>2026-04-26T16:00:35Z</time></trkpt><trkpt lat="43.02515363811657" lon="11.11041759555725"><ele>554.0</ele><time>2026-04-26T16:00:36Z</time></trkpt><trkpt lat="43.02515028861296" lon="11.110557201476174"><ele>554.0</ele><time>2026-04-26T16:00:37Z</time></trkpt><trkpt lat="43.025147004968844" lon="11.11069706160991"><ele>554.0</ele><time>2026-04-26T16:00:38Z</time></trkpt><trkpt lat="43.02514677204583" lon="11.110835410763082"><ele>555.0</ele><time>2026-04-26T16:00:39Z</time></trkpt><trkpt lat="43.025151750558145" lon="11.11097199345913"><ele>556.0</ele><time>2026-04-26T16:00:40Z</time></trkpt><trkpt lat="43.0251384767835" lon="11.111106596474698"><ele>557.0</ele><time>2026-04-26T16:00:41Z</time></trkpt><trkpt lat="43.02513637338854" lon="11.111240927007346"><ele>558.0</ele><time>2026-04-26T16:00:42Z</time></trkpt><trkpt lat="43.02513425736862" lon="11.11137038375472"><ele>559.0</ele><time>2026-04-26T16:00:43Z</time></trkpt><trkpt lat="43.02513210208536" lon="11.111501209553921"><ele>559.0</ele><time>2026-04-26T16:00:44Z</time></trkpt><trkpt lat="43.02514854216417" lon="11.111637004666866"><ele>559.0</ele><time>2026-04-26T16:00:45Z</time></trkpt><trkpt lat="43.02514009458545" lon="11.111780231318052"><ele>559.0</ele><time>2026-04-26T16:00:46Z</time></trkpt><trkpt lat="43.02515328447992" lon="11.111918145043761"><ele>559.0</ele><time>2026-04-26T16:00:47Z</time></trkpt><trkpt lat="43.0252142555052" lon="11.11204006951398"><ele>559.0</ele><time>2026-04-26T16:00:48Z</time></trkpt><trkpt lat="43.025255293850755" lon="11.112161325205285"><ele>559.0</ele><time>2026-04-26T16:00:49Z</time></trkpt><trkpt lat="43.02530183487909" lon="11.112277165557948"><ele>559.0</ele><time>2026-04-26T16:00:50Z</time></trkpt><trkpt lat="43.0253585801618" lon="11.112387985659755"><ele>559.0</ele><time>2026-04-26T16:00:51Z</time></trkpt><trkpt lat="43.02542010581034" lon="11.112496419281731"><ele>559.0</ele><time>2026-04-26T16:00:52Z</time></trkpt><trkpt lat="43.02549482941429" lon="11.112598290473594"><ele>559.0</ele><time>2026-04-26T16:00:53Z</time></trkpt><trkpt lat="43.025574559714286" lon="11.112691527833585"><ele>559.8</ele><time>2026-04-26T16:00:54Z</time></trkpt><trkpt lat="43.025653142348084" lon="11.112784576006346"><ele>560.5999999999999</ele><time>2026-04-26T16:00:55Z</time></trkpt><trkpt lat="43.025726338887694" lon="11.112880778068225"><ele>561.4</ele><time>2026-04-26T16:00:56Z</time></trkpt><trkpt lat="43.02581456521616" lon="11.112967510663582"><ele>562.1999999999999</ele><time>2026-04-26T16:00:57Z</time></trkpt><trkpt lat="43.02590547742762" lon="11.113062968488967"><ele>563.0</ele><time>2026-04-26T16:00:58Z</time></trkpt><trkpt lat="43.026002369769415" lon="11.113151449135835"><ele>561.75</ele><time>2026-04-26T16:00:59Z</time></trkpt><trkpt lat="43.0261027202372" lon="11.113245119533474"><ele>560.5</ele><time>2026-04-26T16:01:00Z</time></trkpt><trkpt lat="43.02620466193492" lon="11.113345646169384"><ele>559.25</ele><time>2026-04-26T16:01:01Z</time></trkpt><trkpt lat="43.02631191596406" lon="11.113438436044166"><ele>558.0</ele><time>2026-04-26T16:01:02Z</time></trkpt><trkpt lat="43.026424564358656" lon="11.113541189123815"><ele>558.0</ele><time>2026-04-26T16:01:03Z</time></trkpt><trkpt lat="43.026541707910525" lon="11.113636643765473"><ele>558.0</ele><time>2026-04-26T16:01:04Z</time></trkpt><trkpt lat="43.02666287076738" lon="11.113739154124142"><ele>558.0</ele><time>2026-04-26T16:01:05Z</time></trkpt><trkpt lat="43.026789837164245" lon="11.113834967791101"><ele>558.0</ele><time>2026-04-26T16:01:06Z</time></trkpt><trkpt lat="43.02692460962433" lon="11.113930968017797"><ele>558.3333333333334</ele><time>2026-04-26T16:01:07Z</time></trkpt><trkpt lat="43.02706762213641" lon="11.114030587745088"><ele>558.6666666666667</ele><time>2026-04-26T16:01:08Z</time></trkpt><trkpt lat="43.02721028912813" lon="11.114132723721555"><ele>559.0</ele><time>2026-04-26T16:01:09Z</time></trkpt><trkpt lat="43.02735646431215" lon="11.11423670458869"><ele>556.6666666666667</ele><time>2026-04-26T16:01:10Z</time></trkpt><trkpt lat="43.02750843663176" lon="11.11433850054245"><ele>554.3333333333334</ele><time>2026-04-26T16:01:10.999Z</time></trkpt><trkpt lat="43.027664005964034" lon="11.11444101362707"><ele>552.0</ele><time>2026-04-26T16:01:11.999Z</time></trkpt><trkpt lat="43.02782143580271" lon="11.114533456841684"><ele>552.0</ele><time>2026-04-26T16:01:12.999Z</time></trkpt><trkpt lat="43.0279860156562" lon="11.114611301357325"><ele>552.0</ele><time>2026-04-26T16:01:13.999Z</time></trkpt><trkpt lat="43.02815862701338" lon="11.114662451989783"><ele>552.0</ele><time>2026-04-26T16:01:14.999Z</time></trkpt><trkpt lat="43.028333162300356" lon="11.114700791529213"><ele>551.6666666666666</ele><time>2026-04-26T16:01:15.999Z</time></trkpt><trkpt lat="43.02850234919169" lon="11.114703715862422"><ele>551.3333333333333</ele><time>2026-04-26T16:01:16.999Z</time></trkpt><trkpt lat="43.028655947323045" lon="11.114671705983076"><ele>551.0</ele><time>2026-04-26T16:01:17.999Z</time></trkpt><trkpt lat="43.02879668275259" lon="11.114594957528237"><ele>551.0</ele><time>2026-04-26T16:01:18.999Z</time></trkpt><trkpt lat="43.028940086291456" lon="11.114521192694076"><ele>551.0</ele><time>2026-04-26T16:01:19.999Z</time></trkpt><trkpt lat="43.02909090223761" lon="11.11446895755662"><ele>551.0</ele><time>2026-04-26T16:01:20.999Z</time></trkpt><trkpt lat="43.029248662467474" lon="11.11445552574219"><ele>548.5</ele><time>2026-04-26T16:01:21.999Z</time></trkpt><trkpt lat="43.029396563928465" lon="11.114507063615505"><ele>546.0</ele><time>2026-04-26T16:01:22.999Z</time></trkpt><trkpt lat="43.02951435206292" lon="11.114595630317016"><ele>543.5</ele><time>2026-04-26T16:01:23.999Z</time></trkpt><trkpt lat="43.0296483287873" lon="11.114701097406433"><ele>541.0</ele><time>2026-04-26T16:01:24.999Z</time></trkpt><trkpt lat="43.02979539253634" lon="11.114827814539895"><ele>538.3333333333334</ele><time>2026-04-26T16:01:25.999Z</time></trkpt><trkpt lat="43.029973742664694" lon="11.114983291056687"><ele>535.6666666666666</ele><time>2026-04-26T16:01:26.999Z</time></trkpt><trkpt lat="43.03012919564782" lon="11.115121428978142"><ele>533.0</ele><time>2026-04-26T16:01:27.999Z</time></trkpt><trkpt lat="43.030288513395874" lon="11.115265250103832"><ele>533.0</ele><time>2026-04-26T16:01:28.999Z</time></trkpt><trkpt lat="43.030455268049664" lon="11.115411032569709"><ele>533.0</ele><time>2026-04-26T16:01:29.999Z</time></trkpt><trkpt lat="43.03061546472787" lon="11.115552700394398"><ele>533.0</ele><time>2026-04-26T16:01:30.999Z</time></trkpt><trkpt lat="43.03079698486238" lon="11.115719029916578"><ele>531.0</ele><time>2026-04-26T16:01:31.999Z</time></trkpt><trkpt lat="43.03097153197406" lon="11.115874288517333"><ele>529.0</ele><time>2026-04-26T16:01:32.999Z</time></trkpt><trkpt lat="43.03115816540367" lon="11.116040439910147"><ele>527.0</ele><time>2026-04-26T16:01:33.999Z</time></trkpt><trkpt lat="43.03133784498654" lon="11.11620047767861"><ele>527.0</ele><time>2026-04-26T16:01:34.999Z</time></trkpt><trkpt lat="43.03150925748072" lon="11.116355008473333"><ele>527.0</ele><time>2026-04-26T16:01:35.999Z</time></trkpt><trkpt lat="43.03169455171074" lon="11.116496800022528"><ele>527.0</ele><time>2026-04-26T16:01:36.999Z</time></trkpt><trkpt lat="43.031867696925254" lon="11.116658290511616"><ele>524.3333333333333</ele><time>2026-04-26T16:01:37.999Z</time></trkpt><trkpt lat="43.03201805917681" lon="11.116822955853399"><ele>521.6666666666666</ele><time>2026-04-26T16:01:38.999Z</time></trkpt><trkpt lat="43.032177952736" lon="11.116959401762944"><ele>519.0</ele><time>2026-04-26T16:01:39.999Z</time></trkpt><trkpt lat="43.03233427904074" lon="11.117078515220848"><ele>520.0</ele><time>2026-04-26T16:01:40.999Z</time></trkpt><trkpt lat="43.032513568156524" lon="11.117161837978504"><ele>521.0</ele><time>2026-04-26T16:01:41.999Z</time></trkpt><trkpt lat="43.032706797676354" lon="11.117194486481063"><ele>522.0</ele><time>2026-04-26T16:01:42.999Z</time></trkpt><trkpt lat="43.03289748266126" lon="11.117205140264904"><ele>522.0</ele><time>2026-04-26T16:01:43.999Z</time></trkpt><trkpt lat="43.03308228801109" lon="11.117189137040477"><ele>522.0</ele><time>2026-04-26T16:01:44.999Z</time></trkpt><trkpt lat="43.03326246048047" lon="11.117220405183824"><ele>522.0</ele><time>2026-04-26T16:01:45.999Z</time></trkpt><trkpt lat="43.03342918766962" lon="11.1173186219073"><ele>520.3333333333334</ele><time>2026-04-26T16:01:46.999Z</time></trkpt><trkpt lat="43.03357844093164" lon="11.117413758758095"><ele>518.6666666666667</ele><time>2026-04-26T16:01:47.999Z</time></trkpt><trkpt lat="43.033720449812584" lon="11.117535330235215"><ele>517.0</ele><time>2026-04-26T16:01:48.999Z</time></trkpt><trkpt lat="43.03384338139991" lon="11.117664506900606"><ele>517.0</ele><time>2026-04-26T16:01:49.999Z</time></trkpt><trkpt lat="43.03396967476106" lon="11.117849459832321"><ele>517.0</ele><time>2026-04-26T16:01:50.999Z</time></trkpt><trkpt lat="43.03409225656068" lon="11.118008063493317"><ele>517.0</ele><time>2026-04-26T16:01:51.999Z</time></trkpt><trkpt lat="43.03423305558235" lon="11.118189433648778"><ele>517.0</ele><time>2026-04-26T16:01:52.999Z</time></trkpt><trkpt lat="43.03437242805283" lon="11.11838378331184"><ele>517.0</ele><time>2026-04-26T16:01:53.999Z</time></trkpt><trkpt lat="43.03447351708572" lon="11.118571604729523"><ele>517.0</ele><time>2026-04-26T16:01:54.999Z</time></trkpt><trkpt lat="43.03456143191328" lon="11.11877382572649"><ele>517.0</ele><time>2026-04-26T16:01:55.999Z</time></trkpt><trkpt lat="43.03463058428853" lon="11.1189895201787"><ele>517.0</ele><time>2026-04-26T16:01:56.999Z</time></trkpt><trkpt lat="43.03470792100719" lon="11.119231455876282"><ele>517.0</ele><time>2026-04-26T16:01:57.999Z</time></trkpt><trkpt lat="43.03478843576363" lon="11.119483333645334"><ele>517.0</ele><time>2026-04-26T16:01:58.999Z</time></trkpt><trkpt lat="43.03487011776728" lon="11.119733811538751"><ele>517.0</ele><time>2026-04-26T16:01:59.999Z</time></trkpt><trkpt lat="43.03495523979143" lon="11.119989572147523"><ele>517.0</ele><time>2026-04-26T16:02:00.999Z</time></trkpt><trkpt lat="43.035038165455994" lon="11.120238733475018"><ele>517.3333333333334</ele><time>2026-04-26T16:02:01.999Z</time></trkpt><trkpt lat="43.03511740317361" lon="11.120475642548032"><ele>517.6666666666666</ele><time>2026-04-26T16:02:02.999Z</time></trkpt><trkpt lat="43.0351948140269" lon="11.120705123285331"><ele>518.0</ele><time>2026-04-26T16:02:03.999Z</time></trkpt><trkpt lat="43.035268758191116" lon="11.120928178529702"><ele>517.0</ele><time>2026-04-26T16:02:04.999Z</time></trkpt><trkpt lat="43.03534155149696" lon="11.12115337282438"><ele>516.0</ele><time>2026-04-26T16:02:05.999Z</time></trkpt><trkpt lat="43.03541779401755" lon="11.121381306633344"><ele>515.0</ele><time>2026-04-26T16:02:06.998Z</time></trkpt><trkpt lat="43.03549971603719" lon="11.121597293851442"><ele>515.6666666666666</ele><time>2026-04-26T16:02:07.998Z</time></trkpt><trkpt lat="43.03561724880118" lon="11.121789337328364"><ele>516.3333333333334</ele><time>2026-04-26T16:02:08.998Z</time></trkpt><trkpt lat="43.03575984622093" lon="11.121931600283583"><ele>517.0</ele><time>2026-04-26T16:02:09.998Z</time></trkpt><trkpt lat="43.035884570532794" lon="11.122077178724622"><ele>517.0</ele><time>2026-04-26T16:02:10.998Z</time></trkpt><trkpt lat="43.0359665601784" lon="11.122254893041722"><ele>517.0</ele><time>2026-04-26T16:02:11.998Z</time></trkpt><trkpt lat="43.036045326258076" lon="11.122425295058152"><ele>517.0</ele><time>2026-04-26T16:02:12.998Z</time></trkpt><trkpt lat="43.036106566274356" lon="11.122603878133269"><ele>517.0</ele><time>2026-04-26T16:02:13.998Z</time></trkpt><trkpt lat="43.036171328748104" lon="11.122788323164675"><ele>515.75</ele><time>2026-04-26T16:02:14.998Z</time></trkpt><trkpt lat="43.03623489331293" lon="11.12296918684564"><ele>514.5</ele><time>2026-04-26T16:02:15.998Z</time></trkpt><trkpt lat="43.03629562702902" lon="11.123138002579118"><ele>513.25</ele><time>2026-04-26T16:02:16.998Z</time></trkpt><trkpt lat="43.03634745941249" lon="11.123282076156269"><ele>512.0</ele><time>2026-04-26T16:02:17.998Z</time></trkpt><trkpt lat="43.03640460790035" lon="11.123443251485343"><ele>513.0</ele><time>2026-04-26T16:02:18.998Z</time></trkpt><trkpt lat="43.036466134559646" lon="11.123617099567294"><ele>514.0</ele><time>2026-04-26T16:02:19.998Z</time></trkpt><trkpt lat="43.03654400994145" lon="11.123801794695241"><ele>515.0</ele><time>2026-04-26T16:02:20.998Z</time></trkpt><trkpt lat="43.03659879522362" lon="11.123995360440967"><ele>516.0</ele><time>2026-04-26T16:02:21.998Z</time></trkpt><trkpt lat="43.03666174820501" lon="11.124173749332796"><ele>516.0</ele><time>2026-04-26T16:02:22.998Z</time></trkpt><trkpt lat="43.03670387287822" lon="11.124370464302018"><ele>516.0</ele><time>2026-04-26T16:02:23.998Z</time></trkpt><trkpt lat="43.036746746039896" lon="11.124572826655193"><ele>516.0</ele><time>2026-04-26T16:02:24.998Z</time></trkpt><trkpt lat="43.036776848202436" lon="11.124774497490945"><ele>515.25</ele><time>2026-04-26T16:02:25.998Z</time></trkpt><trkpt lat="43.036800520932346" lon="11.12497212765027"><ele>514.5</ele><time>2026-04-26T16:02:26.998Z</time></trkpt><trkpt lat="43.036822938211515" lon="11.125161531414692"><ele>513.75</ele><time>2026-04-26T16:02:27.998Z</time></trkpt><trkpt lat="43.03684555024624" lon="11.125344777588657"><ele>513.0</ele><time>2026-04-26T16:02:28.998Z</time></trkpt><trkpt lat="43.03686040167441" lon="11.125525661392215"><ele>513.0</ele><time>2026-04-26T16:02:29.998Z</time></trkpt><trkpt lat="43.03683761077323" lon="11.125708124494482"><ele>513.0</ele><time>2026-04-26T16:02:30.998Z</time></trkpt><trkpt lat="43.03677494990758" lon="11.125859632881044"><ele>513.0</ele><time>2026-04-26T16:02:31.998Z</time></trkpt><trkpt lat="43.03668673822708" lon="11.126043243096127"><ele>513.0</ele><time>2026-04-26T16:02:32.998Z</time></trkpt><trkpt lat="43.03661889026778" lon="11.126228676155357"><ele>510.33333333333337</ele><time>2026-04-26T16:02:33.998Z</time></trkpt><trkpt lat="43.03659437117232" lon="11.126443089750207"><ele>507.6666666666667</ele><time>2026-04-26T16:02:34.998Z</time></trkpt><trkpt lat="43.03661169792851" lon="11.126651992401587"><ele>505.0</ele><time>2026-04-26T16:02:35.998Z</time></trkpt><trkpt lat="43.03662845815859" lon="11.126843943174622"><ele>505.0</ele><time>2026-04-26T16:02:36.998Z</time></trkpt><trkpt lat="43.03662782770343" lon="11.127043897028015"><ele>505.0</ele><time>2026-04-26T16:02:37.998Z</time></trkpt><trkpt lat="43.036584402362315" lon="11.127228378132255"><ele>505.0</ele><time>2026-04-26T16:02:38.998Z</time></trkpt><trkpt lat="43.03650038962098" lon="11.127393719401349"><ele>505.0</ele><time>2026-04-26T16:02:39.998Z</time></trkpt><trkpt lat="43.03640269075158" lon="11.127560348812088"><ele>505.33333333333337</ele><time>2026-04-26T16:02:41Z</time></trkpt><trkpt lat="43.036312233494165" lon="11.12772770383058"><ele>505.66666666666663</ele><time>2026-04-26T16:02:42Z</time></trkpt><trkpt lat="43.036242697218846" lon="11.127920823698592"><ele>506.0</ele><time>2026-04-26T16:02:43Z</time></trkpt><trkpt lat="43.03621262154441" lon="11.128135310105721"><ele>506.3333333333333</ele><time>2026-04-26T16:02:44Z</time></trkpt><trkpt lat="43.03620517626064" lon="11.128363019498524"><ele>506.66666666666663</ele><time>2026-04-26T16:02:45Z</time></trkpt><trkpt lat="43.03620133440099" lon="11.12858586771634"><ele>507.0</ele><time>2026-04-26T16:02:46Z</time></trkpt><trkpt lat="43.036195745412584" lon="11.128810169817099"><ele>507.0</ele><time>2026-04-26T16:02:47Z</time></trkpt><trkpt lat="43.03617586962505" lon="11.129031181349903"><ele>507.0</ele><time>2026-04-26T16:02:48Z</time></trkpt><trkpt lat="43.036124507729745" lon="11.129231844882694"><ele>507.0</ele><time>2026-04-26T16:02:49Z</time></trkpt><trkpt lat="43.03606002552013" lon="11.129422678052467"><ele>508.25</ele><time>2026-04-26T16:02:50Z</time></trkpt><trkpt lat="43.035980300759476" lon="11.129606556407362"><ele>509.5</ele><time>2026-04-26T16:02:51Z</time></trkpt><trkpt lat="43.035896479354875" lon="11.12977570473653"><ele>510.75</ele><time>2026-04-26T16:02:52Z</time></trkpt><trkpt lat="43.035808170497965" lon="11.129901593639579"><ele>512.0</ele><time>2026-04-26T16:02:53Z</time></trkpt><trkpt lat="43.03568881844139" lon="11.12999385311104"><ele>512.3333333333333</ele><time>2026-04-26T16:02:54Z</time></trkpt><trkpt lat="43.03555553066226" lon="11.130048850514122"><ele>512.6666666666666</ele><time>2026-04-26T16:02:55Z</time></trkpt><trkpt lat="43.03540178856542" lon="11.130093232629331"><ele>513.0</ele><time>2026-04-26T16:02:56Z</time></trkpt><trkpt lat="43.03524997745386" lon="11.130127760304592"><ele>513.0</ele><time>2026-04-26T16:02:57Z</time></trkpt><trkpt lat="43.03510947021555" lon="11.130131771464116"><ele>513.0</ele><time>2026-04-26T16:02:58Z</time></trkpt><trkpt lat="43.034969879205406" lon="11.130093981811331"><ele>513.0</ele><time>2026-04-26T16:02:59Z</time></trkpt><trkpt lat="43.034825872939265" lon="11.130034965763718"><ele>513.0</ele><time>2026-04-26T16:03:00Z</time></trkpt><trkpt lat="43.0346860218648" lon="11.129977687530623"><ele>512.75</ele><time>2026-04-26T16:03:01Z</time></trkpt><trkpt lat="43.0345517653337" lon="11.12993390872614"><ele>512.5</ele><time>2026-04-26T16:03:02Z</time></trkpt><trkpt lat="43.0344082033118" lon="11.12992305401815"><ele>512.25</ele><time>2026-04-26T16:03:03Z</time></trkpt><trkpt lat="43.03426160830682" lon="11.129960641829388"><ele>512.0</ele><time>2026-04-26T16:03:04Z</time></trkpt><trkpt lat="43.03413151431505" lon="11.13004516301957"><ele>508.5</ele><time>2026-04-26T16:03:05Z</time></trkpt><trkpt lat="43.03402089882663" lon="11.130194190168242"><ele>505.0</ele><time>2026-04-26T16:03:06Z</time></trkpt><trkpt lat="43.03395720001957" lon="11.130348492241449"><ele>501.5</ele><time>2026-04-26T16:03:07Z</time></trkpt><trkpt lat="43.033914457978064" lon="11.130513119665853"><ele>498.0</ele><time>2026-04-26T16:03:08Z</time></trkpt><trkpt lat="43.03386996184547" lon="11.130680970107841"><ele>500.0</ele><time>2026-04-26T16:03:09Z</time></trkpt><trkpt lat="43.033815261503776" lon="11.13084557114162"><ele>502.0</ele><time>2026-04-26T16:03:10Z</time></trkpt><trkpt lat="43.033735566178805" lon="11.131003534938674"><ele>504.0</ele><time>2026-04-26T16:03:11Z</time></trkpt><trkpt lat="43.03362964421098" lon="11.131169086066505"><ele>506.0</ele><time>2026-04-26T16:03:12Z</time></trkpt><trkpt lat="43.03350308417092" lon="11.131305334983812"><ele>506.0</ele><time>2026-04-26T16:03:13Z</time></trkpt><trkpt lat="43.033389895761815" lon="11.131502284847093"><ele>506.0</ele><time>2026-04-26T16:03:14Z</time></trkpt><trkpt lat="43.03331016155262" lon="11.131711064658264"><ele>506.0</ele><time>2026-04-26T16:03:15Z</time></trkpt><trkpt lat="43.03323143990401" lon="11.13191861690595"><ele>508.5</ele><time>2026-04-26T16:03:16Z</time></trkpt><trkpt lat="43.03315909302449" lon="11.13210280534213"><ele>511.0</ele><time>2026-04-26T16:03:17Z</time></trkpt><trkpt lat="43.03310020319964" lon="11.132291470379602"><ele>513.5</ele><time>2026-04-26T16:03:18Z</time></trkpt><trkpt lat="43.03303973397201" lon="11.13245348035849"><ele>516.0</ele><time>2026-04-26T16:03:18.999Z</time></trkpt><trkpt lat="43.03293159331307" lon="11.13248617822803"><ele>516.0</ele><time>2026-04-26T16:03:19.999Z</time></trkpt><trkpt lat="43.03281120509548" lon="11.132524413478931"><ele>516.0</ele><time>2026-04-26T16:03:20.999Z</time></trkpt><trkpt lat="43.03266293635958" lon="11.13258421910825"><ele>516.0</ele><time>2026-04-26T16:03:21.999Z</time></trkpt><trkpt lat="43.03251808753916" lon="11.132648659161298"><ele>516.0</ele><time>2026-04-26T16:03:22.999Z</time></trkpt><trkpt lat="43.032350983594654" lon="11.13271947738788"><ele>509.33333333333337</ele><time>2026-04-26T16:03:23.999Z</time></trkpt><trkpt lat="43.03219972476596" lon="11.132775165628948"><ele>502.6666666666667</ele><time>2026-04-26T16:03:24.999Z</time></trkpt><trkpt lat="43.032036563632246" lon="11.132821364285478"><ele>496.0</ele><time>2026-04-26T16:03:25.999Z</time></trkpt><trkpt lat="43.03186752843357" lon="11.132868844126724"><ele>496.0</ele><time>2026-04-26T16:03:26.999Z</time></trkpt><trkpt lat="43.0317041606291" lon="11.132912798793381"><ele>496.0</ele><time>2026-04-26T16:03:27.999Z</time></trkpt><trkpt lat="43.031536397374886" lon="11.132958079045284"><ele>496.0</ele><time>2026-04-26T16:03:28.999Z</time></trkpt><trkpt lat="43.03137509169223" lon="11.133029801569453"><ele>500.33333333333337</ele><time>2026-04-26T16:03:29.999Z</time></trkpt><trkpt lat="43.03122512793284" lon="11.13310745234179"><ele>504.66666666666663</ele><time>2026-04-26T16:03:30.999Z</time></trkpt><trkpt lat="43.03107875784242" lon="11.133197924029806"><ele>509.0</ele><time>2026-04-26T16:03:31.999Z</time></trkpt><trkpt lat="43.03093803434784" lon="11.133323980525327"><ele>509.0</ele><time>2026-04-26T16:03:32.999Z</time></trkpt><trkpt lat="43.03082348782058" lon="11.133471075170911"><ele>509.0</ele><time>2026-04-26T16:03:33.999Z</time></trkpt><trkpt lat="43.030732191287676" lon="11.133608826905986"><ele>509.0</ele><time>2026-04-26T16:03:34.999Z</time></trkpt><trkpt lat="43.03065178742353" lon="11.133795074445299"><ele>502.0</ele><time>2026-04-26T16:03:35.999Z</time></trkpt><trkpt lat="43.03060133181142" lon="11.134006386151244"><ele>495.0</ele><time>2026-04-26T16:03:36.999Z</time></trkpt><trkpt lat="43.03057077385374" lon="11.134217167691292"><ele>488.0</ele><time>2026-04-26T16:03:37.999Z</time></trkpt><trkpt lat="43.03056528215376" lon="11.134435300951651"><ele>488.0</ele><time>2026-04-26T16:03:38.999Z</time></trkpt><trkpt lat="43.03055499234094" lon="11.13468541649897"><ele>488.0</ele><time>2026-04-26T16:03:39.999Z</time></trkpt><trkpt lat="43.03045746673359" lon="11.13489212112767"><ele>488.0</ele><time>2026-04-26T16:03:40.999Z</time></trkpt><trkpt lat="43.030387240151406" lon="11.13510253974824"><ele>489.3333333333333</ele><time>2026-04-26T16:03:41.999Z</time></trkpt><trkpt lat="43.03029253869039" lon="11.135315196453156"><ele>490.66666666666663</ele><time>2026-04-26T16:03:42.999Z</time></trkpt><trkpt lat="43.03018978823227" lon="11.135502753618809"><ele>492.0</ele><time>2026-04-26T16:03:43.999Z</time></trkpt><trkpt lat="43.03009782161491" lon="11.135700682499529"><ele>494.0</ele><time>2026-04-26T16:03:44.999Z</time></trkpt><trkpt lat="43.03002130686188" lon="11.135887381423998"><ele>496.00000000000006</ele><time>2026-04-26T16:03:45.999Z</time></trkpt><trkpt lat="43.029991697600146" lon="11.136031030049265"><ele>498.00000000000006</ele><time>2026-04-26T16:03:46.999Z</time></trkpt><trkpt lat="43.02998382581542" lon="11.136144891871096"><ele>500.0</ele><time>2026-04-26T16:03:47.999Z</time></trkpt><trkpt lat="43.030008796269" lon="11.13623239445694"><ele>502.0</ele><time>2026-04-26T16:03:48.999Z</time></trkpt><trkpt lat="43.030036210876176" lon="11.136316904189323"><ele>502.0</ele><time>2026-04-26T16:03:49.999Z</time></trkpt><trkpt lat="43.030079082908514" lon="11.136400080120582"><ele>502.00000000000006</ele><time>2026-04-26T16:03:50.999Z</time></trkpt><trkpt lat="43.03014969475935" lon="11.136486316182891"><ele>502.00000000000006</ele><time>2026-04-26T16:03:51.999Z</time></trkpt><trkpt lat="43.0302249037301" lon="11.136542146118497"><ele>502.0</ele><time>2026-04-26T16:03:52.999Z</time></trkpt><trkpt lat="43.03030009242179" lon="11.136581756155156"><ele>502.0</ele><time>2026-04-26T16:03:53.999Z</time></trkpt><trkpt lat="43.0302682008167" lon="11.13680133280542"><ele>501.5</ele><time>2026-04-26T16:03:54.999Z</time></trkpt><trkpt lat="43.03021044562205" lon="11.136911170747037"><ele>501.0</ele><time>2026-04-26T16:03:55.999Z</time></trkpt><trkpt lat="43.03016501694487" lon="11.137040523409173"><ele>500.5</ele><time>2026-04-26T16:03:56.999Z</time></trkpt><trkpt lat="43.03005969144496" lon="11.137171624835533"><ele>500.0</ele><time>2026-04-26T16:03:57.999Z</time></trkpt><trkpt lat="43.029938989365846" lon="11.137267264469084"><ele>492.25</ele><time>2026-04-26T16:03:58.999Z</time></trkpt><trkpt lat="43.02978787731058" lon="11.13735342028714"><ele>484.5</ele><time>2026-04-26T16:03:59.999Z</time></trkpt><trkpt lat="43.029703342970336" lon="11.13744240509472"><ele>476.75</ele><time>2026-04-26T16:04:00.999Z</time></trkpt><trkpt lat="43.029564149440404" lon="11.137529502956946"><ele>469.0</ele><time>2026-04-26T16:04:01.999Z</time></trkpt><trkpt lat="43.029500929874054" lon="11.13764903882238"><ele>469.0</ele><time>2026-04-26T16:04:02.999Z</time></trkpt><trkpt lat="43.029426566044485" lon="11.137811249794046"><ele>469.0</ele><time>2026-04-26T16:04:03.999Z</time></trkpt><trkpt lat="43.03060640785127" lon="11.138457075099277"><ele>488.0</ele><time>2026-04-26T16:04:04.999Z</time></trkpt><trkpt lat="43.030541591125626" lon="11.138701076696364"><ele>507.0</ele><time>2026-04-26T16:04:05.999Z</time></trkpt><trkpt lat="43.030217372506655" lon="11.138806545019703"><ele>507.0</ele><time>2026-04-26T16:04:06.999Z</time></trkpt><trkpt lat="43.030239306723956" lon="11.139040039321086"><ele>507.0</ele><time>2026-04-26T16:04:07.999Z</time></trkpt><trkpt lat="43.0302436392517" lon="11.139289066648558"><ele>507.0</ele><time>2026-04-26T16:04:08.999Z</time></trkpt><trkpt lat="43.030234381413976" lon="11.139504981630491"><ele>497.5</ele><time>2026-04-26T16:04:09.999Z</time></trkpt><trkpt lat="43.030626047650095" lon="11.139679677468978"><ele>488.0</ele><time>2026-04-26T16:04:10.999Z</time></trkpt><trkpt lat="43.030673580518766" lon="11.139847454494257"><ele>483.25</ele><time>2026-04-26T16:04:12.062Z</time></trkpt><trkpt lat="43.03072120049191" lon="11.14003256395893"><ele>478.5</ele><time>2026-04-26T16:04:13.036Z</time></trkpt><trkpt lat="43.0307735306318" lon="11.140226574062863"><ele>473.75</ele><time>2026-04-26T16:04:14.032Z</time></trkpt><trkpt lat="43.03082409384025" lon="11.140418640153241"><ele>469.0</ele><time>2026-04-26T16:04:15.032Z</time></trkpt><trkpt lat="43.03087372985981" lon="11.140608974200742"><ele>474.0</ele><time>2026-04-26T16:04:16.028Z</time></trkpt><trkpt lat="43.0316426463459" lon="11.141818886979166"><ele>468.0</ele><time>2026-04-26T16:04:26.848Z</time></trkpt><trkpt lat="43.031085210764516" lon="11.14457051236193"><ele>468.0</ele><time>2026-04-26T16:05:14.997Z</time></trkpt><trkpt lat="43.031306545647794" lon="11.144598416572684"><ele>468.0</ele><time>2026-04-26T16:05:16.997Z</time></trkpt><trkpt lat="43.031445833235324" lon="11.144685638432069"><ele>468.0</ele><time>2026-04-26T16:05:17.997Z</time></trkpt><trkpt lat="43.03163719954814" lon="11.1447781365381"><ele>465.66666666666663</ele><time>2026-04-26T16:05:18.997Z</time></trkpt><trkpt lat="43.03174605730099" lon="11.144971307746692"><ele>463.3333333333333</ele><time>2026-04-26T16:05:20Z</time></trkpt><trkpt lat="43.031738947796995" lon="11.145191104360897"><ele>461.0</ele><time>2026-04-26T16:05:21Z</time></trkpt><trkpt lat="43.03172014845226" lon="11.14536616814912"><ele>461.0</ele><time>2026-04-26T16:05:22Z</time></trkpt><trkpt lat="43.031681014109196" lon="11.145537246300554"><ele>461.0</ele><time>2026-04-26T16:05:23Z</time></trkpt><trkpt lat="43.0316369250331" lon="11.145709393252963"><ele>461.0</ele><time>2026-04-26T16:05:24Z</time></trkpt><trkpt lat="43.03157982218199" lon="11.145913036535216"><ele>461.0</ele><time>2026-04-26T16:05:25Z</time></trkpt><trkpt lat="43.031521224133584" lon="11.146119039536785"><ele>457.5</ele><time>2026-04-26T16:05:26Z</time></trkpt><trkpt lat="43.031447474223306" lon="11.146316722930049"><ele>454.0</ele><time>2026-04-26T16:05:27Z</time></trkpt><trkpt lat="43.03135869449313" lon="11.146499291909596"><ele>450.5</ele><time>2026-04-26T16:05:28Z</time></trkpt><trkpt lat="43.0312738009738" lon="11.146584503488869"><ele>447.0</ele><time>2026-04-26T16:05:29Z</time></trkpt><trkpt lat="43.03116082224145" lon="11.146682146337163"><ele>447.0</ele><time>2026-04-26T16:05:30Z</time></trkpt><trkpt lat="43.03102179150376" lon="11.146783567238526"><ele>447.0</ele><time>2026-04-26T16:05:31Z</time></trkpt><trkpt lat="43.03086826832965" lon="11.14689126194136"><ele>447.0</ele><time>2026-04-26T16:05:32Z</time></trkpt><trkpt lat="43.03068347354973" lon="11.147018118020707"><ele>443.66666666666663</ele><time>2026-04-26T16:05:33Z</time></trkpt><trkpt lat="43.030503409219385" lon="11.147143382215614"><ele>440.3333333333333</ele><time>2026-04-26T16:05:34Z</time></trkpt><trkpt lat="43.03034072591743" lon="11.147246824459332"><ele>437.0</ele><time>2026-04-26T16:05:35Z</time></trkpt><trkpt lat="43.030174716288535" lon="11.147337988303898"><ele>429.66666666666663</ele><time>2026-04-26T16:05:36Z</time></trkpt><trkpt lat="43.02993867223412" lon="11.147543444102395"><ele>422.33333333333337</ele><time>2026-04-26T16:05:37Z</time></trkpt><trkpt lat="43.02981503845363" lon="11.147682486679194"><ele>415.0</ele><time>2026-04-26T16:05:38Z</time></trkpt><trkpt lat="43.029706929554955" lon="11.14790341581082"><ele>415.0</ele><time>2026-04-26T16:05:39Z</time></trkpt><trkpt lat="43.02976010517815" lon="11.148156243285163"><ele>415.0</ele><time>2026-04-26T16:05:40Z</time></trkpt><trkpt lat="43.02973551900972" lon="11.148238695581886"><ele>415.0</ele><time>2026-04-26T16:05:41Z</time></trkpt><trkpt lat="43.02845081505841" lon="11.148655879611887"><ele>407.33333333333337</ele><time>2026-04-26T16:05:50Z</time></trkpt><trkpt lat="43.02832819293641" lon="11.1487150601622"><ele>399.66666666666663</ele><time>2026-04-26T16:05:51Z</time></trkpt><trkpt lat="43.028098276963945" lon="11.148688768483751"><ele>392.0</ele><time>2026-04-26T16:05:53Z</time></trkpt><trkpt lat="43.02789196132544" lon="11.14897210958566"><ele>391.0</ele><time>2026-04-26T16:05:54Z</time></trkpt><trkpt lat="43.02757142914561" lon="11.149224042854879"><ele>390.0</ele><time>2026-04-26T16:05:55Z</time></trkpt><trkpt lat="43.02748058779325" lon="11.149403532171382"><ele>389.0</ele><time>2026-04-26T16:05:56Z</time></trkpt><trkpt lat="43.027445215729564" lon="11.149536168548268"><ele>388.0</ele><time>2026-04-26T16:05:57Z</time></trkpt><trkpt lat="43.02743509250013" lon="11.149623403810027"><ele>387.0</ele><time>2026-04-26T16:05:58Z</time></trkpt><trkpt lat="43.02754377885854" lon="11.150049469573723"><ele>387.0</ele><time>2026-04-26T16:05:59Z</time></trkpt><trkpt lat="43.02761928177957" lon="11.150333514852468"><ele>387.0</ele><time>2026-04-26T16:06:00Z</time></trkpt><trkpt lat="43.02757200597386" lon="11.150692124351021"><ele>386.33333333333337</ele><time>2026-04-26T16:06:01Z</time></trkpt><trkpt lat="43.02766122141831" lon="11.150778933264569"><ele>385.6666666666667</ele><time>2026-04-26T16:06:03.999Z</time></trkpt><trkpt lat="43.027933414313644" lon="11.15079051780413"><ele>385.0</ele><time>2026-04-26T16:06:05.999Z</time></trkpt><trkpt lat="43.027869373411015" lon="11.150910469990462"><ele>385.0</ele><time>2026-04-26T16:06:06.999Z</time></trkpt><trkpt lat="43.02786409023611" lon="11.15104228997379"><ele>385.0</ele><time>2026-04-26T16:06:07.999Z</time></trkpt><trkpt lat="43.02781670574145" lon="11.151187606165584"><ele>385.0</ele><time>2026-04-26T16:06:08.999Z</time></trkpt><trkpt lat="43.027776058808826" lon="11.151280236673694"><ele>385.0</ele><time>2026-04-26T16:06:09.999Z</time></trkpt><trkpt lat="43.02767916654813" lon="11.151358218194371"><ele>385.0</ele><time>2026-04-26T16:06:11.999Z</time></trkpt><trkpt lat="43.02765171292789" lon="11.151438368891247"><ele>400.0</ele><time>2026-04-26T16:06:14.999Z</time></trkpt><trkpt lat="43.02821992868955" lon="11.152465283302286"><ele>404.0</ele><time>2026-04-26T16:06:16.999Z</time></trkpt><trkpt lat="43.02839392085945" lon="11.152677967745046"><ele>408.0</ele><time>2026-04-26T16:06:17.999Z</time></trkpt><trkpt lat="43.028500275329726" lon="11.152844480671137"><ele>412.0</ele><time>2026-04-26T16:06:18.999Z</time></trkpt><trkpt lat="43.028619141343654" lon="11.152970345322258"><ele>412.0</ele><time>2026-04-26T16:06:19.999Z</time></trkpt><trkpt lat="43.02878137303178" lon="11.153072480961674"><ele>412.0</ele><time>2026-04-26T16:06:20.999Z</time></trkpt><trkpt lat="43.02893196772016" lon="11.153189229248245"><ele>412.0</ele><time>2026-04-26T16:06:21.999Z</time></trkpt><trkpt lat="43.02909098899814" lon="11.153273866513386"><ele>414.33333333333337</ele><time>2026-04-26T16:06:22.999Z</time></trkpt><trkpt lat="43.02915250374983" lon="11.153493837374608"><ele>416.66666666666663</ele><time>2026-04-26T16:06:23.999Z</time></trkpt><trkpt lat="43.02912657745704" lon="11.153705219932164"><ele>419.0</ele><time>2026-04-26T16:06:24.999Z</time></trkpt><trkpt lat="43.029108010519245" lon="11.153880681719059"><ele>421.75</ele><time>2026-04-26T16:06:25.999Z</time></trkpt><trkpt lat="43.029087527669894" lon="11.154081058378825"><ele>424.5</ele><time>2026-04-26T16:06:26.999Z</time></trkpt><trkpt lat="43.02906901682038" lon="11.154283360147588"><ele>427.25</ele><time>2026-04-26T16:06:27.999Z</time></trkpt><trkpt lat="43.02905431145106" lon="11.154484982235802"><ele>430.0</ele><time>2026-04-26T16:06:28.999Z</time></trkpt><trkpt lat="43.02903752771029" lon="11.154697569512507"><ele>435.33333333333337</ele><time>2026-04-26T16:06:29.999Z</time></trkpt><trkpt lat="43.029018794831316" lon="11.154898678003951"><ele>440.66666666666663</ele><time>2026-04-26T16:06:30.999Z</time></trkpt><trkpt lat="43.02898467635195" lon="11.155106421982184"><ele>446.0</ele><time>2026-04-26T16:06:31.999Z</time></trkpt><trkpt lat="43.02897235562421" lon="11.155305313648128"><ele>446.0</ele><time>2026-04-26T16:06:32.999Z</time></trkpt><trkpt lat="43.028995317124924" lon="11.155506123005168"><ele>446.0</ele><time>2026-04-26T16:06:33.999Z</time></trkpt><trkpt lat="43.02905706911514" lon="11.155700350212749"><ele>446.0</ele><time>2026-04-26T16:06:34.999Z</time></trkpt><trkpt lat="43.02914045747803" lon="11.155878885638948"><ele>444.66666666666663</ele><time>2026-04-26T16:06:35.999Z</time></trkpt><trkpt lat="43.02924041837388" lon="11.156048885421905"><ele>443.33333333333337</ele><time>2026-04-26T16:06:36.999Z</time></trkpt><trkpt lat="43.029333196135305" lon="11.156237820717044"><ele>442.0</ele><time>2026-04-26T16:06:37.999Z</time></trkpt><trkpt lat="43.029436312169366" lon="11.156420005581744"><ele>446.0</ele><time>2026-04-26T16:06:38.999Z</time></trkpt><trkpt lat="43.02953535816965" lon="11.156597485811059"><ele>450.0</ele><time>2026-04-26T16:06:39.999Z</time></trkpt><trkpt lat="43.029638089109824" lon="11.156781809894229"><ele>454.0</ele><time>2026-04-26T16:06:40.999Z</time></trkpt><trkpt lat="43.02973483320248" lon="11.156961011460591"><ele>454.0</ele><time>2026-04-26T16:06:41.999Z</time></trkpt><trkpt lat="43.02978982048146" lon="11.15714211362621"><ele>454.0</ele><time>2026-04-26T16:06:42.999Z</time></trkpt><trkpt lat="43.02980214651161" lon="11.157317645087943"><ele>454.0</ele><time>2026-04-26T16:06:43.999Z</time></trkpt><trkpt lat="43.02977664289778" lon="11.157483395943647"><ele>454.0</ele><time>2026-04-26T16:06:44.999Z</time></trkpt><trkpt lat="43.02970179300167" lon="11.157629220352552"><ele>455.5</ele><time>2026-04-26T16:06:45.999Z</time></trkpt><trkpt lat="43.029605795555824" lon="11.157782450444083"><ele>457.0</ele><time>2026-04-26T16:06:46.999Z</time></trkpt><trkpt lat="43.02951193971793" lon="11.157932912160133"><ele>458.5</ele><time>2026-04-26T16:06:47.999Z</time></trkpt><trkpt lat="43.029442458896625" lon="11.1580898753371"><ele>460.0</ele><time>2026-04-26T16:06:48.999Z</time></trkpt><trkpt lat="43.02943134117147" lon="11.158295274855625"><ele>460.0</ele><time>2026-04-26T16:06:49.999Z</time></trkpt><trkpt lat="43.029465286731345" lon="11.1584895503707"><ele>460.0</ele><time>2026-04-26T16:06:50.999Z</time></trkpt><trkpt lat="43.02953450197565" lon="11.158641135550118"><ele>460.0</ele><time>2026-04-26T16:06:51.999Z</time></trkpt><trkpt lat="43.029618590312936" lon="11.158809326005782"><ele>460.0</ele><time>2026-04-26T16:06:52.999Z</time></trkpt><trkpt lat="43.029706207783796" lon="11.159003434823926"><ele>462.0</ele><time>2026-04-26T16:06:53.999Z</time></trkpt><trkpt lat="43.02975876360351" lon="11.159181283643374"><ele>464.0</ele><time>2026-04-26T16:06:54.999Z</time></trkpt><trkpt lat="43.029808469610536" lon="11.159374369186592"><ele>466.0</ele><time>2026-04-26T16:06:55.999Z</time></trkpt><trkpt lat="43.02980482553177" lon="11.15958702412402"><ele>468.0</ele><time>2026-04-26T16:06:56.999Z</time></trkpt><trkpt lat="43.02980282869329" lon="11.159801691184512"><ele>470.66666666666663</ele><time>2026-04-26T16:06:57.999Z</time></trkpt><trkpt lat="43.029841185539496" lon="11.160013001312901"><ele>473.3333333333333</ele><time>2026-04-26T16:06:58.998Z</time></trkpt><trkpt lat="43.02988877486137" lon="11.160232716689821"><ele>476.0</ele><time>2026-04-26T16:06:59.998Z</time></trkpt><trkpt lat="43.02993950095369" lon="11.160451526075137"><ele>472.66666666666663</ele><time>2026-04-26T16:07:00.998Z</time></trkpt><trkpt lat="43.02998731241069" lon="11.1606644044306"><ele>469.33333333333337</ele><time>2026-04-26T16:07:01.998Z</time></trkpt><trkpt lat="43.03003752965154" lon="11.16087699919006"><ele>466.0</ele><time>2026-04-26T16:07:02.998Z</time></trkpt><trkpt lat="43.03007750360236" lon="11.16108281557713"><ele>466.0</ele><time>2026-04-26T16:07:03.998Z</time></trkpt><trkpt lat="43.030067846190406" lon="11.161285470867092"><ele>466.0</ele><time>2026-04-26T16:07:04.998Z</time></trkpt><trkpt lat="43.03003493258801" lon="11.161456802910545"><ele>466.0</ele><time>2026-04-26T16:07:05.998Z</time></trkpt><trkpt lat="43.029971194227876" lon="11.161567024499893"><ele>466.0</ele><time>2026-04-26T16:07:06.998Z</time></trkpt><trkpt lat="43.02988620031308" lon="11.161648254919118"><ele>466.6</ele><time>2026-04-26T16:07:07.998Z</time></trkpt><trkpt lat="43.029810683386486" lon="11.161698351374582"><ele>467.20000000000005</ele><time>2026-04-26T16:07:08.998Z</time></trkpt><trkpt lat="43.02975269258991" lon="11.161745181514659"><ele>467.79999999999995</ele><time>2026-04-26T16:07:09.998Z</time></trkpt><trkpt lat="43.02967638017396" lon="11.161776897672935"><ele>468.4</ele><time>2026-04-26T16:07:10.998Z</time></trkpt><trkpt lat="43.02947583203053" lon="11.161684714521728"><ele>469.0</ele><time>2026-04-26T16:07:12.998Z</time></trkpt><trkpt lat="43.02920378778983" lon="11.161624935825735"><ele>470.0</ele><time>2026-04-26T16:07:13.998Z</time></trkpt><trkpt lat="43.02901456262046" lon="11.161586091949015"><ele>471.0</ele><time>2026-04-26T16:07:14.998Z</time></trkpt><trkpt lat="43.02885414845745" lon="11.161553816771542"><ele>472.0</ele><time>2026-04-26T16:07:15.998Z</time></trkpt><trkpt lat="43.028673691608475" lon="11.161529995795622"><ele>472.0</ele><time>2026-04-26T16:07:16.998Z</time></trkpt><trkpt lat="43.028486550527" lon="11.161551894187507"><ele>472.0</ele><time>2026-04-26T16:07:17.998Z</time></trkpt><trkpt lat="43.02830815773794" lon="11.161628187969297"><ele>472.0</ele><time>2026-04-26T16:07:18.998Z</time></trkpt><trkpt lat="43.02815851018793" lon="11.161739302141521"><ele>472.0</ele><time>2026-04-26T16:07:19.998Z</time></trkpt><trkpt lat="43.02801525236176" lon="11.161905935896906"><ele>472.0</ele><time>2026-04-26T16:07:20.998Z</time></trkpt><trkpt lat="43.02789256397527" lon="11.162088833041022"><ele>472.0</ele><time>2026-04-26T16:07:21.998Z</time></trkpt><trkpt lat="43.027799720619555" lon="11.162296162110549"><ele>472.33333333333337</ele><time>2026-04-26T16:07:22.998Z</time></trkpt><trkpt lat="43.02773730269717" lon="11.162534613295367"><ele>472.66666666666663</ele><time>2026-04-26T16:07:23.998Z</time></trkpt><trkpt lat="43.027697014763056" lon="11.162768327764606"><ele>473.0</ele><time>2026-04-26T16:07:25Z</time></trkpt><trkpt lat="43.02766583639333" lon="11.163004170874217"><ele>476.3333333333333</ele><time>2026-04-26T16:07:26Z</time></trkpt><trkpt lat="43.02763394918193" lon="11.163235243972474"><ele>479.66666666666663</ele><time>2026-04-26T16:07:27Z</time></trkpt><trkpt lat="43.02760417047775" lon="11.163447854803236"><ele>483.0</ele><time>2026-04-26T16:07:28Z</time></trkpt><trkpt lat="43.02757038658723" lon="11.163651589258636"><ele>483.0</ele><time>2026-04-26T16:07:29Z</time></trkpt><trkpt lat="43.02751615309896" lon="11.163814453587133"><ele>483.0</ele><time>2026-04-26T16:07:30Z</time></trkpt><trkpt lat="43.02742658155067" lon="11.16391850282803"><ele>483.0</ele><time>2026-04-26T16:07:31Z</time></trkpt><trkpt lat="43.02730607072216" lon="11.16398586438325"><ele>483.0</ele><time>2026-04-26T16:07:32Z</time></trkpt><trkpt lat="43.02716887979421" lon="11.164071400163754"><ele>485.33333333333337</ele><time>2026-04-26T16:07:33Z</time></trkpt><trkpt lat="43.027022165285935" lon="11.164133715670598"><ele>487.6666666666667</ele><time>2026-04-26T16:07:34Z</time></trkpt><trkpt lat="43.02685803850823" lon="11.164175349346534"><ele>490.0</ele><time>2026-04-26T16:07:35Z</time></trkpt><trkpt lat="43.02668794973961" lon="11.164212275485978"><ele>489.6666666666667</ele><time>2026-04-26T16:07:36Z</time></trkpt><trkpt lat="43.02651328642119" lon="11.164247777453111"><ele>489.33333333333337</ele><time>2026-04-26T16:07:37Z</time></trkpt><trkpt lat="43.02634524806858" lon="11.16427167499273"><ele>489.0</ele><time>2026-04-26T16:07:38Z</time></trkpt><trkpt lat="43.02617290767423" lon="11.164265661700375"><ele>489.0</ele><time>2026-04-26T16:07:39Z</time></trkpt><trkpt lat="43.026001070529105" lon="11.164255458492942"><ele>489.0</ele><time>2026-04-26T16:07:40Z</time></trkpt><trkpt lat="43.02583314989243" lon="11.16425310132817"><ele>489.0</ele><time>2026-04-26T16:07:41Z</time></trkpt><trkpt lat="43.02565192545524" lon="11.164287860182254"><ele>487.0</ele><time>2026-04-26T16:07:42Z</time></trkpt><trkpt lat="43.02548907865135" lon="11.164380871069994"><ele>485.0</ele><time>2026-04-26T16:07:43Z</time></trkpt><trkpt lat="43.025328183693155" lon="11.164500229852491"><ele>483.0</ele><time>2026-04-26T16:07:44Z</time></trkpt><trkpt lat="43.02517911360249" lon="11.16461687202434"><ele>483.0</ele><time>2026-04-26T16:07:45Z</time></trkpt><trkpt lat="43.02505596275865" lon="11.164722275746838"><ele>483.0</ele><time>2026-04-26T16:07:46Z</time></trkpt><trkpt lat="43.02493521482217" lon="11.164846259531748"><ele>483.0</ele><time>2026-04-26T16:07:47Z</time></trkpt><trkpt lat="43.02482746727291" lon="11.165016943000099"><ele>486.0</ele><time>2026-04-26T16:07:48Z</time></trkpt><trkpt lat="43.024753424498044" lon="11.165164473916812"><ele>489.0</ele><time>2026-04-26T16:07:49Z</time></trkpt><trkpt lat="43.02471773476079" lon="11.165348948960142"><ele>492.0</ele><time>2026-04-26T16:07:50Z</time></trkpt><trkpt lat="43.02466436114481" lon="11.165567377755604"><ele>495.0</ele><time>2026-04-26T16:07:51Z</time></trkpt><trkpt lat="43.024555712007874" lon="11.165755834000713"><ele>495.0</ele><time>2026-04-26T16:07:52Z</time></trkpt><trkpt lat="43.02442989596749" lon="11.165892400929124"><ele>495.0</ele><time>2026-04-26T16:07:53Z</time></trkpt><trkpt lat="43.024325669995186" lon="11.165979134114423"><ele>495.0</ele><time>2026-04-26T16:07:54Z</time></trkpt><trkpt lat="43.02419258878452" lon="11.166054591026006"><ele>495.0</ele><time>2026-04-26T16:07:55Z</time></trkpt><trkpt lat="43.024066591679684" lon="11.166126326788389"><ele>494.33333333333337</ele><time>2026-04-26T16:07:56Z</time></trkpt><trkpt lat="43.023935139367694" lon="11.166202448777412"><ele>493.6666666666667</ele><time>2026-04-26T16:07:57Z</time></trkpt><trkpt lat="43.02369971550682" lon="11.166316654389739"><ele>493.0</ele><time>2026-04-26T16:07:58Z</time></trkpt><trkpt lat="43.023529345362206" lon="11.166359015019363"><ele>493.0</ele><time>2026-04-26T16:07:59Z</time></trkpt><trkpt lat="43.023333056434254" lon="11.166390531854642"><ele>493.0</ele><time>2026-04-26T16:08:00Z</time></trkpt><trkpt lat="43.02313994452784" lon="11.166367686450425"><ele>493.0</ele><time>2026-04-26T16:08:01Z</time></trkpt><trkpt lat="43.02294395650471" lon="11.16635368435046"><ele>492.0</ele><time>2026-04-26T16:08:02Z</time></trkpt><trkpt lat="43.022790156911896" lon="11.166339464828834"><ele>491.0</ele><time>2026-04-26T16:08:03Z</time></trkpt><trkpt lat="43.02265549776543" lon="11.166283687146846"><ele>490.0</ele><time>2026-04-26T16:08:04Z</time></trkpt><trkpt lat="43.02252797297204" lon="11.166199580335448"><ele>489.0</ele><time>2026-04-26T16:08:05Z</time></trkpt><trkpt lat="43.02241009640375" lon="11.166077440552343"><ele>487.66666666666663</ele><time>2026-04-26T16:08:06Z</time></trkpt><trkpt lat="43.02231679936828" lon="11.16592613967189"><ele>486.3333333333333</ele><time>2026-04-26T16:08:07Z</time></trkpt><trkpt lat="43.0221784215873" lon="11.165825334315896"><ele>485.0</ele><time>2026-04-26T16:08:07.999Z</time></trkpt><trkpt lat="43.02203387276782" lon="11.165772460089547"><ele>485.0</ele><time>2026-04-26T16:08:08.999Z</time></trkpt><trkpt lat="43.02188473378474" lon="11.165736132574889"><ele>485.0</ele><time>2026-04-26T16:08:09.999Z</time></trkpt><trkpt lat="43.02172455661932" lon="11.165732533791427"><ele>485.0</ele><time>2026-04-26T16:08:10.999Z</time></trkpt><trkpt lat="43.021565002863575" lon="11.165774133574836"><ele>485.66666666666663</ele><time>2026-04-26T16:08:11.999Z</time></trkpt><trkpt lat="43.0213958759698" lon="11.165827043383585"><ele>486.33333333333337</ele><time>2026-04-26T16:08:12.999Z</time></trkpt><trkpt lat="43.02124622130516" lon="11.165880114035243"><ele>487.0</ele><time>2026-04-26T16:08:13.999Z</time></trkpt><trkpt lat="43.021085012825" lon="11.165927723015889"><ele>487.0</ele><time>2026-04-26T16:08:14.999Z</time></trkpt><trkpt lat="43.0209230741174" lon="11.165951280804784"><ele>487.0</ele><time>2026-04-26T16:08:15.999Z</time></trkpt><trkpt lat="43.02076296267603" lon="11.16598145012504"><ele>487.0</ele><time>2026-04-26T16:08:16.999Z</time></trkpt><trkpt lat="43.02060422135716" lon="11.166009254562914"><ele>487.6666666666667</ele><time>2026-04-26T16:08:17.999Z</time></trkpt><trkpt lat="43.02044348702327" lon="11.166035975838097"><ele>488.33333333333337</ele><time>2026-04-26T16:08:18.999Z</time></trkpt><trkpt lat="43.02028774928909" lon="11.166066205929765"><ele>489.0</ele><time>2026-04-26T16:08:19.999Z</time></trkpt><trkpt lat="43.02013772330283" lon="11.166087283763062"><ele>487.66666666666663</ele><time>2026-04-26T16:08:20.999Z</time></trkpt><trkpt lat="43.01997306296899" lon="11.166096341480007"><ele>486.3333333333333</ele><time>2026-04-26T16:08:21.999Z</time></trkpt><trkpt lat="43.019808043818486" lon="11.16608574590866"><ele>485.0</ele><time>2026-04-26T16:08:22.999Z</time></trkpt><trkpt lat="43.01964056482634" lon="11.166049401235437"><ele>485.0</ele><time>2026-04-26T16:08:23.999Z</time></trkpt><trkpt lat="43.01947876280183" lon="11.165979007246666"><ele>485.0</ele><time>2026-04-26T16:08:24.999Z</time></trkpt><trkpt lat="43.019311724881284" lon="11.165923332366482"><ele>485.0</ele><time>2026-04-26T16:08:25.999Z</time></trkpt><trkpt lat="43.01913791717955" lon="11.165884085258703"><ele>484.66666666666663</ele><time>2026-04-26T16:08:26.999Z</time></trkpt><trkpt lat="43.018970421162166" lon="11.16582379424771"><ele>484.33333333333337</ele><time>2026-04-26T16:08:27.999Z</time></trkpt><trkpt lat="43.01880139755016" lon="11.165767669999159"><ele>484.0</ele><time>2026-04-26T16:08:28.999Z</time></trkpt><trkpt lat="43.018633152809684" lon="11.165712718758911"><ele>486.6666666666667</ele><time>2026-04-26T16:08:29.999Z</time></trkpt><trkpt lat="43.01846616455644" lon="11.165655879653608"><ele>489.33333333333337</ele><time>2026-04-26T16:08:30.999Z</time></trkpt><trkpt lat="43.01830131312037" lon="11.165605420818677"><ele>492.0</ele><time>2026-04-26T16:08:31.999Z</time></trkpt><trkpt lat="43.01813479552774" lon="11.16556816135317"><ele>492.33333333333337</ele><time>2026-04-26T16:08:32.999Z</time></trkpt><trkpt lat="43.01796554723374" lon="11.165556294580815"><ele>492.6666666666667</ele><time>2026-04-26T16:08:33.999Z</time></trkpt><trkpt lat="43.01779583645663" lon="11.165581952210609"><ele>493.0</ele><time>2026-04-26T16:08:34.999Z</time></trkpt><trkpt lat="43.0176294524605" lon="11.165617950328448"><ele>492.33333333333337</ele><time>2026-04-26T16:08:35.999Z</time></trkpt><trkpt lat="43.01746038354445" lon="11.165663405239444"><ele>491.66666666666663</ele><time>2026-04-26T16:08:36.999Z</time></trkpt><trkpt lat="43.017295021231995" lon="11.165724804741327"><ele>491.0</ele><time>2026-04-26T16:08:37.999Z</time></trkpt><trkpt lat="43.01713704483267" lon="11.165801023178043"><ele>491.0</ele><time>2026-04-26T16:08:38.999Z</time></trkpt><trkpt lat="43.01698934133526" lon="11.165903811550939"><ele>491.0</ele><time>2026-04-26T16:08:39.999Z</time></trkpt><trkpt lat="43.0168640444791" lon="11.166051595566163"><ele>491.0</ele><time>2026-04-26T16:08:40.999Z</time></trkpt><trkpt lat="43.01675926979659" lon="11.166233396394931"><ele>491.0</ele><time>2026-04-26T16:08:41.999Z</time></trkpt><trkpt lat="43.01669081741671" lon="11.166418235299727"><ele>491.0</ele><time>2026-04-26T16:08:42.999Z</time></trkpt><trkpt lat="43.01660368471356" lon="11.166587613962276"><ele>491.0</ele><time>2026-04-26T16:08:43.999Z</time></trkpt><trkpt lat="43.01648942036841" lon="11.166721488458858"><ele>489.5</ele><time>2026-04-26T16:08:44.999Z</time></trkpt><trkpt lat="43.01635526989267" lon="11.166803814477761"><ele>488.0</ele><time>2026-04-26T16:08:45.999Z</time></trkpt><trkpt lat="43.01621764938974" lon="11.166799224081526"><ele>486.5</ele><time>2026-04-26T16:08:46.999Z</time></trkpt><trkpt lat="43.016087402387924" lon="11.166807347798173"><ele>485.0</ele><time>2026-04-26T16:08:47.999Z</time></trkpt><trkpt lat="43.01596784326278" lon="11.166737505524113"><ele>485.0</ele><time>2026-04-26T16:08:48.999Z</time></trkpt><trkpt lat="43.015854541596035" lon="11.166661955760787"><ele>485.0</ele><time>2026-04-26T16:08:49.999Z</time></trkpt><trkpt lat="43.015746291592144" lon="11.166572629889963"><ele>485.0</ele><time>2026-04-26T16:08:50.999Z</time></trkpt><trkpt lat="43.0156302446522" lon="11.166485659111396"><ele>485.0</ele><time>2026-04-26T16:08:51.999Z</time></trkpt><trkpt lat="43.01551335806877" lon="11.166410984874272"><ele>486.75</ele><time>2026-04-26T16:08:52.999Z</time></trkpt><trkpt lat="43.015395787039175" lon="11.16635079415313"><ele>488.5</ele><time>2026-04-26T16:08:53.999Z</time></trkpt><trkpt lat="43.01527314132359" lon="11.16632297844158"><ele>490.25</ele><time>2026-04-26T16:08:54.999Z</time></trkpt><trkpt lat="43.015157552471145" lon="11.166319982275331"><ele>492.0</ele><time>2026-04-26T16:08:55.999Z</time></trkpt><trkpt lat="43.01504126971843" lon="11.16630646918353"><ele>490.25</ele><time>2026-04-26T16:08:56.999Z</time></trkpt><trkpt lat="43.01492533736149" lon="11.1662993776416"><ele>488.5</ele><time>2026-04-26T16:08:57.999Z</time></trkpt><trkpt lat="43.01480906165234" lon="11.166300012507694"><ele>486.75</ele><time>2026-04-26T16:08:58.999Z</time></trkpt><trkpt lat="43.014692018254415" lon="11.166298788773728"><ele>485.0</ele><time>2026-04-26T16:08:59.999Z</time></trkpt><trkpt lat="43.01457575750807" lon="11.166283918985705"><ele>485.0</ele><time>2026-04-26T16:09:00.999Z</time></trkpt><trkpt lat="43.0144622859793" lon="11.166270569104357"><ele>485.0</ele><time>2026-04-26T16:09:01.999Z</time></trkpt><trkpt lat="43.014349617639596" lon="11.166262354308936"><ele>485.0</ele><time>2026-04-26T16:09:02.998Z</time></trkpt><trkpt lat="43.014233940951684" lon="11.166258509100606"><ele>485.0</ele><time>2026-04-26T16:09:03.998Z</time></trkpt><trkpt lat="43.0141229792417" lon="11.16624789659949"><ele>485.6</ele><time>2026-04-26T16:09:04.998Z</time></trkpt><trkpt lat="43.014014321325966" lon="11.166239217662334"><ele>486.2</ele><time>2026-04-26T16:09:05.998Z</time></trkpt><trkpt lat="43.013907669002926" lon="11.166229605662028"><ele>486.79999999999995</ele><time>2026-04-26T16:09:06.998Z</time></trkpt><trkpt lat="43.01380181140042" lon="11.166225311083492"><ele>487.4</ele><time>2026-04-26T16:09:07.998Z</time></trkpt><trkpt lat="43.013697164287606" lon="11.166224580589146"><ele>488.0</ele><time>2026-04-26T16:09:08.998Z</time></trkpt><trkpt lat="43.013593646907786" lon="11.16622515551742"><ele>488.0</ele><time>2026-04-26T16:09:09.998Z</time></trkpt><trkpt lat="43.01349339457271" lon="11.166232788663963"><ele>487.99999999999994</ele><time>2026-04-26T16:09:10.998Z</time></trkpt><trkpt lat="43.013389942858346" lon="11.166241780121682"><ele>487.99999999999994</ele><time>2026-04-26T16:09:11.998Z</time></trkpt><trkpt lat="43.0132840516186" lon="11.166256494207927"><ele>488.0</ele><time>2026-04-26T16:09:12.998Z</time></trkpt><trkpt lat="43.01317537076825" lon="11.16627669701086"><ele>488.0</ele><time>2026-04-26T16:09:13.998Z</time></trkpt><trkpt lat="43.013070075282116" lon="11.166298489830982"><ele>488.0</ele><time>2026-04-26T16:09:14.998Z</time></trkpt><trkpt lat="43.0129613832835" lon="11.16632463346329"><ele>487.99999999999994</ele><time>2026-04-26T16:09:15.998Z</time></trkpt><trkpt lat="43.01285494138526" lon="11.166356635039849"><ele>487.99999999999994</ele><time>2026-04-26T16:09:16.998Z</time></trkpt><trkpt lat="43.01275049663927" lon="11.16639040760049"><ele>488.0</ele><time>2026-04-26T16:09:17.998Z</time></trkpt><trkpt lat="43.01264232628528" lon="11.16643036986254"><ele>488.0</ele><time>2026-04-26T16:09:18.998Z</time></trkpt><trkpt lat="43.01253769335089" lon="11.166477491599162"><ele>487.2</ele><time>2026-04-26T16:09:19.998Z</time></trkpt><trkpt lat="43.012435128818595" lon="11.166515846451306"><ele>486.4</ele><time>2026-04-26T16:09:20.998Z</time></trkpt><trkpt lat="43.01233588752268" lon="11.16654944072147"><ele>485.59999999999997</ele><time>2026-04-26T16:09:21.998Z</time></trkpt><trkpt lat="43.012238908584955" lon="11.16658652716602"><ele>484.79999999999995</ele><time>2026-04-26T16:09:22.998Z</time></trkpt><trkpt lat="43.012146567551824" lon="11.166627647680897"><ele>484.0</ele><time>2026-04-26T16:09:23.998Z</time></trkpt><trkpt lat="43.01205560988394" lon="11.166666885511319"><ele>484.00000000000006</ele><time>2026-04-26T16:09:24.998Z</time></trkpt><trkpt lat="43.01197410136598" lon="11.166711965059463"><ele>484.0</ele><time>2026-04-26T16:09:25.998Z</time></trkpt><trkpt lat="43.01189646367651" lon="11.166753251991768"><ele>484.0</ele><time>2026-04-26T16:09:26.998Z</time></trkpt><trkpt lat="43.01182503044629" lon="11.166788825750531"><ele>484.0</ele><time>2026-04-26T16:09:27.998Z</time></trkpt><trkpt lat="43.01176055084857" lon="11.166844355540084"><ele>484.00000000000006</ele><time>2026-04-26T16:09:28.998Z</time></trkpt><trkpt lat="43.01168835397719" lon="11.166865155921311"><ele>484.0</ele><time>2026-04-26T16:09:30Z</time></trkpt><trkpt lat="43.01162373107703" lon="11.166915803801853"><ele>482.1666666666667</ele><time>2026-04-26T16:09:31Z</time></trkpt><trkpt lat="43.01155803432611" lon="11.166956064917224"><ele>480.33333333333337</ele><time>2026-04-26T16:09:32Z</time></trkpt><trkpt lat="43.01149682913809" lon="11.166994934425075"><ele>478.5</ele><time>2026-04-26T16:09:33Z</time></trkpt><trkpt lat="43.0113916179698" lon="11.16706252298511"><ele>476.66666666666663</ele><time>2026-04-26T16:09:35Z</time></trkpt><trkpt lat="43.01130634858607" lon="11.16711351945046"><ele>474.8333333333333</ele><time>2026-04-26T16:09:37Z</time></trkpt><trkpt lat="43.01124793959983" lon="11.167156143658879"><ele>473.0</ele><time>2026-04-26T16:09:45Z</time></trkpt><trkpt lat="43.011155410584145" lon="11.16720426985572"><ele>473.0</ele><time>2026-04-26T16:09:47Z</time></trkpt><trkpt lat="43.01106647546049" lon="11.16726022574705"><ele>472.99999999999994</ele><time>2026-04-26T16:09:49Z</time></trkpt><trkpt lat="43.01099687595298" lon="11.167296874380877"><ele>472.99999999999994</ele><time>2026-04-26T16:09:51Z</time></trkpt><trkpt lat="43.01093260534377" lon="11.16733536160507"><ele>473.0</ele><time>2026-04-26T16:09:53Z</time></trkpt><trkpt lat="43.010860266341574" lon="11.167418292028495"><ele>473.0</ele><time>2026-04-26T16:09:55Z</time></trkpt><trkpt lat="43.01074040387241" lon="11.167475597869581"><ele>473.3333333333333</ele><time>2026-04-26T16:09:57Z</time></trkpt><trkpt lat="43.01067453764279" lon="11.16751895300618"><ele>473.66666666666663</ele><time>2026-04-26T16:09:58Z</time></trkpt><trkpt lat="43.010610213434475" lon="11.167563164637876"><ele>474.0</ele><time>2026-04-26T16:09:59Z</time></trkpt><trkpt lat="43.01054856143582" lon="11.167606511453894"><ele>474.33333333333337</ele><time>2026-04-26T16:10:00Z</time></trkpt><trkpt lat="43.01049196490058" lon="11.167645650521079"><ele>474.6666666666667</ele><time>2026-04-26T16:10:01Z</time></trkpt><trkpt lat="43.01039860366833" lon="11.167712302480613"><ele>475.0</ele><time>2026-04-26T16:10:03Z</time></trkpt><trkpt lat="43.010336464430935" lon="11.16779074752303"><ele>475.00000000000006</ele><time>2026-04-26T16:10:05Z</time></trkpt><trkpt lat="43.01028558526182" lon="11.167880349218072"><ele>475.0</ele><time>2026-04-26T16:10:07Z</time></trkpt><trkpt lat="43.01026289890732" lon="11.16801622467329"><ele>475.0</ele><time>2026-04-26T16:10:09Z</time></trkpt><trkpt lat="43.010279944674636" lon="11.168104430517133"><ele>475.0</ele><time>2026-04-26T16:10:10Z</time></trkpt><trkpt lat="43.01030308892955" lon="11.168234400984064"><ele>475.00000000000006</ele><time>2026-04-26T16:10:12Z</time></trkpt><trkpt lat="43.01032175754982" lon="11.16835150760675"><ele>475.0</ele><time>2026-04-26T16:10:15Z</time></trkpt><trkpt lat="43.0101951923367" lon="11.168512218260634"><ele>475.2</ele><time>2026-04-26T16:10:17.999Z</time></trkpt><trkpt lat="43.010092658362446" lon="11.168555550333013"><ele>475.4</ele><time>2026-04-26T16:10:19.999Z</time></trkpt><trkpt lat="43.01000899715742" lon="11.168537541536207"><ele>475.6</ele><time>2026-04-26T16:10:20.999Z</time></trkpt><trkpt lat="43.009917305906676" lon="11.168543263529427"><ele>475.8</ele><time>2026-04-26T16:10:21.999Z</time></trkpt><trkpt lat="43.00981961151979" lon="11.168565444900308"><ele>476.0</ele><time>2026-04-26T16:10:22.999Z</time></trkpt><trkpt lat="43.009727209771754" lon="11.168597296645041"><ele>478.5</ele><time>2026-04-26T16:10:23.999Z</time></trkpt><trkpt lat="43.00962412498918" lon="11.168643773188418"><ele>481.0</ele><time>2026-04-26T16:10:24.999Z</time></trkpt><trkpt lat="43.00954669893954" lon="11.168693315463106"><ele>483.5</ele><time>2026-04-26T16:10:25.999Z</time></trkpt><trkpt lat="43.009437765390466" lon="11.168791698864165"><ele>486.0</ele><time>2026-04-26T16:10:26.999Z</time></trkpt><trkpt lat="43.00932275158811" lon="11.16892422782247"><ele>483.66666666666663</ele><time>2026-04-26T16:10:27.999Z</time></trkpt><trkpt lat="43.00920538612147" lon="11.169061515941527"><ele>481.3333333333333</ele><time>2026-04-26T16:10:28.999Z</time></trkpt><trkpt lat="43.009064785816314" lon="11.169228443367155"><ele>479.0</ele><time>2026-04-26T16:10:29.999Z</time></trkpt><trkpt lat="43.00893202486409" lon="11.169388916273697"><ele>479.0</ele><time>2026-04-26T16:10:30.999Z</time></trkpt><trkpt lat="43.008802098692634" lon="11.169518201539107"><ele>479.0</ele><time>2026-04-26T16:10:31.999Z</time></trkpt><trkpt lat="43.00868831504527" lon="11.169653037588255"><ele>479.0</ele><time>2026-04-26T16:10:32.999Z</time></trkpt><trkpt lat="43.0085760286969" lon="11.169768549059892"><ele>475.25</ele><time>2026-04-26T16:10:33.999Z</time></trkpt><trkpt lat="43.00845834217482" lon="11.169881308928254"><ele>471.5</ele><time>2026-04-26T16:10:34.999Z</time></trkpt><trkpt lat="43.008341839685656" lon="11.169976609439457"><ele>467.75</ele><time>2026-04-26T16:10:35.999Z</time></trkpt><trkpt lat="43.008219248414406" lon="11.170060515437868"><ele>464.0</ele><time>2026-04-26T16:10:36.999Z</time></trkpt><trkpt lat="43.00809689884178" lon="11.1701344437319"><ele>462.5</ele><time>2026-04-26T16:10:37.999Z</time></trkpt><trkpt lat="43.007981964344275" lon="11.170201230745828"><ele>461.0</ele><time>2026-04-26T16:10:38.999Z</time></trkpt><trkpt lat="43.00785800456176" lon="11.170259246852398"><ele>459.5</ele><time>2026-04-26T16:10:39.999Z</time></trkpt><trkpt lat="43.00774074693181" lon="11.170290806902479"><ele>458.0</ele><time>2026-04-26T16:10:40.999Z</time></trkpt><trkpt lat="43.00760798383629" lon="11.170290080882037"><ele>458.0</ele><time>2026-04-26T16:10:41.999Z</time></trkpt><trkpt lat="43.00749472748689" lon="11.17027123923742"><ele>458.0</ele><time>2026-04-26T16:10:42.999Z</time></trkpt><trkpt lat="43.0073844699907" lon="11.1702301835105"><ele>458.0</ele><time>2026-04-26T16:10:43.999Z</time></trkpt><trkpt lat="43.007278574648275" lon="11.170152353678901"><ele>458.0</ele><time>2026-04-26T16:10:44.999Z</time></trkpt><trkpt lat="43.007213616284766" lon="11.170017166550902"><ele>455.4</ele><time>2026-04-26T16:10:45.999Z</time></trkpt><trkpt lat="43.007125720227954" lon="11.169912123811379"><ele>452.79999999999995</ele><time>2026-04-26T16:10:46.999Z</time></trkpt><trkpt lat="43.00704962527746" lon="11.169801872958352"><ele>450.2</ele><time>2026-04-26T16:10:47.999Z</time></trkpt><trkpt lat="43.006988748774134" lon="11.169686753352494"><ele>447.6</ele><time>2026-04-26T16:10:48.999Z</time></trkpt><trkpt lat="43.00692703109665" lon="11.169549468107073"><ele>445.0</ele><time>2026-04-26T16:10:49.999Z</time></trkpt><trkpt lat="43.00686756452481" lon="11.169384360559635"><ele>445.0</ele><time>2026-04-26T16:10:50.999Z</time></trkpt><trkpt lat="43.00681806511228" lon="11.169216688144898"><ele>445.0</ele><time>2026-04-26T16:10:51.999Z</time></trkpt><trkpt lat="43.006774868902355" lon="11.169048649242566"><ele>445.0</ele><time>2026-04-26T16:10:52.999Z</time></trkpt><trkpt lat="43.006742841618326" lon="11.16888636926539"><ele>445.0</ele><time>2026-04-26T16:10:53.999Z</time></trkpt><trkpt lat="43.00670822639556" lon="11.168682357739474"><ele>445.0</ele><time>2026-04-26T16:10:54.999Z</time></trkpt><trkpt lat="43.006680566968285" lon="11.168489833870277"><ele>445.0</ele><time>2026-04-26T16:10:55.999Z</time></trkpt><trkpt lat="43.006672900856216" lon="11.168307190126402"><ele>445.0</ele><time>2026-04-26T16:10:56.999Z</time></trkpt><trkpt lat="43.006678776434505" lon="11.168134138458077"><ele>445.0</ele><time>2026-04-26T16:10:57.999Z</time></trkpt><trkpt lat="43.006693019100574" lon="11.1679771122796"><ele>444.0</ele><time>2026-04-26T16:10:58.999Z</time></trkpt><trkpt lat="43.00672834650299" lon="11.167827452962213"><ele>443.0</ele><time>2026-04-26T16:10:59.999Z</time></trkpt><trkpt lat="43.00677965310855" lon="11.167711591847029"><ele>442.0</ele><time>2026-04-26T16:11:00.999Z</time></trkpt><trkpt lat="43.0068435111057" lon="11.167597328212556"><ele>441.0</ele><time>2026-04-26T16:11:01.999Z</time></trkpt><trkpt lat="43.00691071826127" lon="11.167493636478588"><ele>440.0</ele><time>2026-04-26T16:11:02.999Z</time></trkpt><trkpt lat="43.00697835634855" lon="11.167385569779455"><ele>437.8</ele><time>2026-04-26T16:11:03.999Z</time></trkpt><trkpt lat="43.00702777096592" lon="11.16727031338156"><ele>435.6</ele><time>2026-04-26T16:11:04.999Z</time></trkpt><trkpt lat="43.00700504639339" lon="11.167126294702983"><ele>433.4</ele><time>2026-04-26T16:11:05.999Z</time></trkpt><trkpt lat="43.006919581750836" lon="11.16706250908975"><ele>431.2</ele><time>2026-04-26T16:11:06.999Z</time></trkpt><trkpt lat="43.00684466717394" lon="11.16704096981742"><ele>429.0</ele><time>2026-04-26T16:11:07.999Z</time></trkpt><trkpt lat="43.00676884445401" lon="11.167071078899882"><ele>429.0</ele><time>2026-04-26T16:11:08.999Z</time></trkpt><trkpt lat="43.006678980436384" lon="11.167114999653148"><ele>429.0</ele><time>2026-04-26T16:11:09.999Z</time></trkpt><trkpt lat="43.00658050780164" lon="11.167152883391363"><ele>429.0</ele><time>2026-04-26T16:11:10.999Z</time></trkpt><trkpt lat="43.00648039925273" lon="11.167200827813872"><ele>429.0</ele><time>2026-04-26T16:11:11.998Z</time></trkpt><trkpt lat="43.00638682967781" lon="11.167243403868888"><ele>429.0</ele><time>2026-04-26T16:11:12.998Z</time></trkpt><trkpt lat="43.006280374080056" lon="11.167260396680913"><ele>428.5</ele><time>2026-04-26T16:11:13.998Z</time></trkpt><trkpt lat="43.0061604049254" lon="11.167225880455566"><ele>428.0</ele><time>2026-04-26T16:11:14.998Z</time></trkpt><trkpt lat="43.00604453488187" lon="11.167152567651616"><ele>427.5</ele><time>2026-04-26T16:11:15.998Z</time></trkpt><trkpt lat="43.00592893772033" lon="11.1671078260992"><ele>427.0</ele><time>2026-04-26T16:11:16.998Z</time></trkpt><trkpt lat="43.005814537617624" lon="11.167067104759326"><ele>425.75</ele><time>2026-04-26T16:11:17.998Z</time></trkpt><trkpt lat="43.005675254933" lon="11.167033230696413"><ele>424.5</ele><time>2026-04-26T16:11:18.998Z</time></trkpt><trkpt lat="43.0055491969158" lon="11.16703988731203"><ele>423.25</ele><time>2026-04-26T16:11:19.998Z</time></trkpt><trkpt lat="43.005442251073944" lon="11.167127235854473"><ele>422.0</ele><time>2026-04-26T16:11:20.998Z</time></trkpt><trkpt lat="43.00536237783925" lon="11.167267148153728"><ele>421.75</ele><time>2026-04-26T16:11:21.998Z</time></trkpt><trkpt lat="43.00532855792436" lon="11.167433988914715"><ele>421.5</ele><time>2026-04-26T16:11:22.998Z</time></trkpt><trkpt lat="43.00532633866801" lon="11.167620078496007"><ele>421.25</ele><time>2026-04-26T16:11:23.998Z</time></trkpt><trkpt lat="43.005357262158824" lon="11.16781503661363"><ele>421.0</ele><time>2026-04-26T16:11:24.998Z</time></trkpt><trkpt lat="43.00540773049731" lon="11.16798795865427"><ele>421.0</ele><time>2026-04-26T16:11:25.998Z</time></trkpt><trkpt lat="43.00544035929362" lon="11.16815366545409"><ele>421.0</ele><time>2026-04-26T16:11:26.998Z</time></trkpt><trkpt lat="43.00544379483436" lon="11.168328444211609"><ele>421.0</ele><time>2026-04-26T16:11:27.998Z</time></trkpt><trkpt lat="43.00539787450589" lon="11.168481528936194"><ele>421.0</ele><time>2026-04-26T16:11:28.998Z</time></trkpt><trkpt lat="43.00534444082031" lon="11.168629825994932"><ele>419.33333333333337</ele><time>2026-04-26T16:11:29.998Z</time></trkpt><trkpt lat="43.00530194259194" lon="11.16881390046077"><ele>417.66666666666663</ele><time>2026-04-26T16:11:30.998Z</time></trkpt><trkpt lat="43.00521644239102" lon="11.16899242360373"><ele>416.0</ele><time>2026-04-26T16:11:31.998Z</time></trkpt><trkpt lat="43.0051367849222" lon="11.16918581825594"><ele>416.0</ele><time>2026-04-26T16:11:32.998Z</time></trkpt><trkpt lat="43.00507909370671" lon="11.16937420876677"><ele>416.0</ele><time>2026-04-26T16:11:33.998Z</time></trkpt><trkpt lat="43.00500103842175" lon="11.169564270290689"><ele>416.0</ele><time>2026-04-26T16:11:34.998Z</time></trkpt><trkpt lat="43.00491062908407" lon="11.169747166212513"><ele>414.0</ele><time>2026-04-26T16:11:36Z</time></trkpt><trkpt lat="43.004797904769866" lon="11.169904953518133"><ele>412.0</ele><time>2026-04-26T16:11:37Z</time></trkpt><trkpt lat="43.004667336424966" lon="11.17002476054919"><ele>410.0</ele><time>2026-04-26T16:11:38Z</time></trkpt><trkpt lat="43.004525131987464" lon="11.170114673321322"><ele>410.0</ele><time>2026-04-26T16:11:39Z</time></trkpt><trkpt lat="43.00438318063707" lon="11.170211459617258"><ele>410.0</ele><time>2026-04-26T16:11:40Z</time></trkpt><trkpt lat="43.00425602140296" lon="11.170315236854027"><ele>410.0</ele><time>2026-04-26T16:11:41Z</time></trkpt><trkpt lat="43.00414269161066" lon="11.170418263058187"><ele>410.0</ele><time>2026-04-26T16:11:42Z</time></trkpt><trkpt lat="43.00405181113274" lon="11.170543112598846"><ele>406.5</ele><time>2026-04-26T16:11:43Z</time></trkpt><trkpt lat="43.0039990036519" lon="11.170682466780349"><ele>403.0</ele><time>2026-04-26T16:11:44Z</time></trkpt><trkpt lat="43.003976239580986" lon="11.17083959222511"><ele>399.5</ele><time>2026-04-26T16:11:45Z</time></trkpt><trkpt lat="43.00397718657845" lon="11.170992750331525"><ele>396.0</ele><time>2026-04-26T16:11:46Z</time></trkpt><trkpt lat="43.00395949618845" lon="11.171161077095588"><ele>396.0</ele><time>2026-04-26T16:11:47Z</time></trkpt><trkpt lat="43.00389572072036" lon="11.171317192322986"><ele>396.0</ele><time>2026-04-26T16:11:48Z</time></trkpt><trkpt lat="43.00379254721802" lon="11.171416287142627"><ele>396.0</ele><time>2026-04-26T16:11:49Z</time></trkpt><trkpt lat="43.00365929500938" lon="11.171479537695719"><ele>396.0</ele><time>2026-04-26T16:11:50Z</time></trkpt><trkpt lat="43.00352102672277" lon="11.171546673890974"><ele>397.25</ele><time>2026-04-26T16:11:51Z</time></trkpt><trkpt lat="43.0034150475749" lon="11.1716437651452"><ele>398.5</ele><time>2026-04-26T16:11:52Z</time></trkpt><trkpt lat="43.00331769932727" lon="11.17177289247853"><ele>399.75</ele><time>2026-04-26T16:11:53Z</time></trkpt><trkpt lat="43.00320376188964" lon="11.171904847471085"><ele>401.0</ele><time>2026-04-26T16:11:54Z</time></trkpt><trkpt lat="43.00307281541646" lon="11.172015331997939"><ele>397.66666666666663</ele><time>2026-04-26T16:11:55Z</time></trkpt><trkpt lat="43.00292854876932" lon="11.172098840521786"><ele>394.33333333333337</ele><time>2026-04-26T16:11:56Z</time></trkpt><trkpt lat="43.002773538208224" lon="11.17216068334496"><ele>391.0</ele><time>2026-04-26T16:11:57Z</time></trkpt><trkpt lat="43.002617010275465" lon="11.172210162612574"><ele>390.5</ele><time>2026-04-26T16:11:58Z</time></trkpt><trkpt lat="43.002469263479846" lon="11.17226515943426"><ele>390.0</ele><time>2026-04-26T16:11:59Z</time></trkpt><trkpt lat="43.00233062689927" lon="11.172348738847976"><ele>389.5</ele><time>2026-04-26T16:12:00Z</time></trkpt><trkpt lat="43.00220736783374" lon="11.172446084700605"><ele>389.0</ele><time>2026-04-26T16:12:01Z</time></trkpt><trkpt lat="43.00207653008998" lon="11.172555773830293"><ele>389.0</ele><time>2026-04-26T16:12:02Z</time></trkpt><trkpt lat="43.00194404882002" lon="11.17268223800209"><ele>389.0</ele><time>2026-04-26T16:12:03Z</time></trkpt><trkpt lat="43.00182081561454" lon="11.17282166417821"><ele>389.0</ele><time>2026-04-26T16:12:04Z</time></trkpt><trkpt lat="43.00171544650762" lon="11.172986295238019"><ele>387.0</ele><time>2026-04-26T16:12:05Z</time></trkpt><trkpt lat="43.00162568105495" lon="11.173166173065718"><ele>385.0</ele><time>2026-04-26T16:12:06Z</time></trkpt><trkpt lat="43.00156039994946" lon="11.173358153512595"><ele>383.0</ele><time>2026-04-26T16:12:07Z</time></trkpt><trkpt lat="43.001492663596615" lon="11.17354705259199"><ele>383.0</ele><time>2026-04-26T16:12:08Z</time></trkpt><trkpt lat="43.00141591249341" lon="11.173720698512174"><ele>383.0</ele><time>2026-04-26T16:12:09Z</time></trkpt><trkpt lat="43.0013229652367" lon="11.17386009509469"><ele>383.0</ele><time>2026-04-26T16:12:10Z</time></trkpt><trkpt lat="43.001220818760395" lon="11.173952773079266"><ele>383.0</ele><time>2026-04-26T16:12:11Z</time></trkpt><trkpt lat="43.001112910707725" lon="11.17398162078546"><ele>383.0</ele><time>2026-04-26T16:12:12Z</time></trkpt><trkpt lat="43.00102668257786" lon="11.173903414075056"><ele>383.0</ele><time>2026-04-26T16:12:13Z</time></trkpt><trkpt lat="43.00094755080631" lon="11.173818494207893"><ele>383.0</ele><time>2026-04-26T16:12:14Z</time></trkpt><trkpt lat="43.00086545687117" lon="11.17372844088474"><ele>383.0</ele><time>2026-04-26T16:12:15Z</time></trkpt><trkpt lat="43.00075886792097" lon="11.17361202297481"><ele>383.0</ele><time>2026-04-26T16:12:16Z</time></trkpt><trkpt lat="43.00066675814371" lon="11.173508784200331"><ele>383.25</ele><time>2026-04-26T16:12:17Z</time></trkpt><trkpt lat="43.000574955279006" lon="11.173405988871433"><ele>383.5</ele><time>2026-04-26T16:12:18Z</time></trkpt><trkpt lat="43.000480327644944" lon="11.17330003051953"><ele>383.75</ele><time>2026-04-26T16:12:19Z</time></trkpt><trkpt lat="43.00037553585909" lon="11.173209911563996"><ele>384.0</ele><time>2026-04-26T16:12:20Z</time></trkpt><trkpt lat="43.00028404557501" lon="11.17309124034704"><ele>381.5</ele><time>2026-04-26T16:12:21Z</time></trkpt><trkpt lat="43.00018957293154" lon="11.172962383279433"><ele>379.0</ele><time>2026-04-26T16:12:21.999Z</time></trkpt><trkpt lat="43.00013138576677" lon="11.17279731202128"><ele>376.5</ele><time>2026-04-26T16:12:22.999Z</time></trkpt><trkpt lat="43.00005556392315" lon="11.172633066539426"><ele>374.0</ele><time>2026-04-26T16:12:23.999Z</time></trkpt><trkpt lat="42.99996760552945" lon="11.172469280685283"><ele>371.25</ele><time>2026-04-26T16:12:24.999Z</time></trkpt><trkpt lat="42.99985061638133" lon="11.172338340493638"><ele>368.5</ele><time>2026-04-26T16:12:25.999Z</time></trkpt><trkpt lat="42.9997359615248" lon="11.172218199644444"><ele>365.75</ele><time>2026-04-26T16:12:26.999Z</time></trkpt><trkpt lat="42.999608191206605" lon="11.172141365012221"><ele>363.0</ele><time>2026-04-26T16:12:27.999Z</time></trkpt><trkpt lat="42.999479783393475" lon="11.172101012762404"><ele>363.0</ele><time>2026-04-26T16:12:28.999Z</time></trkpt><trkpt lat="42.99935888004023" lon="11.172087992425315"><ele>363.0</ele><time>2026-04-26T16:12:29.999Z</time></trkpt><trkpt lat="42.99924065438701" lon="11.172102896646097"><ele>363.0</ele><time>2026-04-26T16:12:30.999Z</time></trkpt><trkpt lat="42.99909053098743" lon="11.172081533023608"><ele>363.0</ele><time>2026-04-26T16:12:31.999Z</time></trkpt><trkpt lat="42.99893876364371" lon="11.17199661127381"><ele>362.0</ele><time>2026-04-26T16:12:32.999Z</time></trkpt><trkpt lat="42.99881127563867" lon="11.171891378120819"><ele>361.0</ele><time>2026-04-26T16:12:33.999Z</time></trkpt><trkpt lat="42.998674226952495" lon="11.171795222093039"><ele>360.0</ele><time>2026-04-26T16:12:34.999Z</time></trkpt><trkpt lat="42.99854631289833" lon="11.171738482746061"><ele>359.0</ele><time>2026-04-26T16:12:35.999Z</time></trkpt><trkpt lat="42.9984060021541" lon="11.17169872131867"><ele>359.6666666666667</ele><time>2026-04-26T16:12:36.999Z</time></trkpt><trkpt lat="42.99826063421298" lon="11.171714959048048"><ele>360.3333333333333</ele><time>2026-04-26T16:12:37.999Z</time></trkpt><trkpt lat="42.99809463107511" lon="11.171739612479971"><ele>361.0</ele><time>2026-04-26T16:12:38.999Z</time></trkpt><trkpt lat="42.99795754014393" lon="11.171783505798606"><ele>361.0</ele><time>2026-04-26T16:12:39.999Z</time></trkpt><trkpt lat="42.99781717542376" lon="11.171879099243649"><ele>361.0</ele><time>2026-04-26T16:12:40.999Z</time></trkpt><trkpt lat="42.997693248919106" lon="11.172013484811528"><ele>361.0</ele><time>2026-04-26T16:12:41.999Z</time></trkpt><trkpt lat="42.997556311239165" lon="11.172164136580454"><ele>363.66666666666663</ele><time>2026-04-26T16:12:42.999Z</time></trkpt><trkpt lat="42.997385677888346" lon="11.172281098102694"><ele>366.3333333333333</ele><time>2026-04-26T16:12:43.999Z</time></trkpt><trkpt lat="42.997250418907186" lon="11.172348755948029"><ele>369.0</ele><time>2026-04-26T16:12:44.999Z</time></trkpt><trkpt lat="42.99707822962374" lon="11.17237020187666"><ele>363.0</ele><time>2026-04-26T16:12:45.999Z</time></trkpt><trkpt lat="42.996907733742276" lon="11.172350241770129"><ele>357.0</ele><time>2026-04-26T16:12:46.999Z</time></trkpt><trkpt lat="42.9967366900084" lon="11.172210062543115"><ele>351.0</ele><time>2026-04-26T16:12:47.999Z</time></trkpt><trkpt lat="42.99661205686831" lon="11.172078469159542"><ele>350.3333333333333</ele><time>2026-04-26T16:12:48.999Z</time></trkpt><trkpt lat="42.996472488390005" lon="11.171958959502089"><ele>349.66666666666663</ele><time>2026-04-26T16:12:49.999Z</time></trkpt><trkpt lat="42.99632186952068" lon="11.171894039438273"><ele>349.0</ele><time>2026-04-26T16:12:50.999Z</time></trkpt><trkpt lat="42.99618236308705" lon="11.171898936561988"><ele>349.0</ele><time>2026-04-26T16:12:51.999Z</time></trkpt><trkpt lat="42.99604506551075" lon="11.171883116171296"><ele>349.0</ele><time>2026-04-26T16:12:52.999Z</time></trkpt><trkpt lat="42.99597106945516" lon="11.171959335108562"><ele>349.0</ele><time>2026-04-26T16:12:53.999Z</time></trkpt><trkpt lat="42.995892109065544" lon="11.172069660255302"><ele>349.0</ele><time>2026-04-26T16:12:54.999Z</time></trkpt><trkpt lat="42.99581589747168" lon="11.172202717663481"><ele>351.25</ele><time>2026-04-26T16:12:55.999Z</time></trkpt><trkpt lat="42.995734844107" lon="11.172361659028816"><ele>353.5</ele><time>2026-04-26T16:12:56.999Z</time></trkpt><trkpt lat="42.99563799241836" lon="11.172489031404227"><ele>355.75</ele><time>2026-04-26T16:12:57.999Z</time></trkpt><trkpt lat="42.99550309944683" lon="11.17260754789599"><ele>358.0</ele><time>2026-04-26T16:12:58.999Z</time></trkpt><trkpt lat="42.99541902586579" lon="11.172730694624823"><ele>358.0</ele><time>2026-04-26T16:12:59.999Z</time></trkpt><trkpt lat="42.9953199892122" lon="11.172903266243413"><ele>358.0</ele><time>2026-04-26T16:13:00.999Z</time></trkpt><trkpt lat="42.99522701023731" lon="11.173097264027255"><ele>358.0</ele><time>2026-04-26T16:13:01.999Z</time></trkpt><trkpt lat="42.99513968737686" lon="11.17326958362834"><ele>355.75</ele><time>2026-04-26T16:13:02.999Z</time></trkpt><trkpt lat="42.995037777061945" lon="11.17340837421617"><ele>353.5</ele><time>2026-04-26T16:13:03.999Z</time></trkpt><trkpt lat="42.994937959674346" lon="11.173571361002772"><ele>351.25</ele><time>2026-04-26T16:13:04.999Z</time></trkpt><trkpt lat="42.994834812382244" lon="11.173703286359613"><ele>349.0</ele><time>2026-04-26T16:13:05.999Z</time></trkpt><trkpt lat="42.994718686610426" lon="11.17377341521219"><ele>349.0</ele><time>2026-04-26T16:13:06.999Z</time></trkpt><trkpt lat="42.99458705687279" lon="11.173763815050156"><ele>349.0</ele><time>2026-04-26T16:13:07.999Z</time></trkpt><trkpt lat="42.9944600302409" lon="11.17372049816142"><ele>349.0</ele><time>2026-04-26T16:13:08.999Z</time></trkpt><trkpt lat="42.99433960800433" lon="11.173636352316302"><ele>349.0</ele><time>2026-04-26T16:13:09.999Z</time></trkpt><trkpt lat="42.99423270592558" lon="11.173510343202297"><ele>345.25</ele><time>2026-04-26T16:13:10.999Z</time></trkpt><trkpt lat="42.9941206845996" lon="11.173405660054211"><ele>341.5</ele><time>2026-04-26T16:13:11.999Z</time></trkpt><trkpt lat="42.99398107812156" lon="11.173384697346862"><ele>337.75</ele><time>2026-04-26T16:13:12.999Z</time></trkpt><trkpt lat="42.993881137790794" lon="11.173440218584927"><ele>334.0</ele><time>2026-04-26T16:13:13.999Z</time></trkpt><trkpt lat="42.99380326123709" lon="11.173527278670251"><ele>334.0</ele><time>2026-04-26T16:13:14.999Z</time></trkpt><trkpt lat="42.99371092441114" lon="11.17360699749553"><ele>334.0</ele><time>2026-04-26T16:13:15.999Z</time></trkpt><trkpt lat="42.99362895413534" lon="11.17371286695407"><ele>334.0</ele><time>2026-04-26T16:13:16.998Z</time></trkpt><trkpt lat="42.99358844744369" lon="11.173818331498234"><ele>334.0</ele><time>2026-04-26T16:13:17.998Z</time></trkpt><trkpt lat="42.99354232612006" lon="11.17392960429666"><ele>334.0</ele><time>2026-04-26T16:13:18.998Z</time></trkpt><trkpt lat="42.99352579186565" lon="11.17404677949896"><ele>335.25</ele><time>2026-04-26T16:13:19.998Z</time></trkpt><trkpt lat="42.993478422989604" lon="11.174139218214641"><ele>336.5</ele><time>2026-04-26T16:13:20.998Z</time></trkpt><trkpt lat="42.99346011388694" lon="11.174263629641349"><ele>337.75</ele><time>2026-04-26T16:13:21.998Z</time></trkpt><trkpt lat="42.99328945185983" lon="11.17439828635378"><ele>339.0</ele><time>2026-04-26T16:13:22.998Z</time></trkpt><trkpt lat="42.9931564667882" lon="11.174244656475798"><ele>339.0</ele><time>2026-04-26T16:13:23.998Z</time></trkpt><trkpt lat="42.9930996229963" lon="11.17415193277628"><ele>339.0</ele><time>2026-04-26T16:13:24.998Z</time></trkpt><trkpt lat="42.9930256158992" lon="11.174060086529877"><ele>339.0</ele><time>2026-04-26T16:13:25.998Z</time></trkpt><trkpt lat="42.9929543962422" lon="11.174017717525409"><ele>339.0</ele><time>2026-04-26T16:13:26.998Z</time></trkpt><trkpt lat="42.99286440587589" lon="11.173985194052987"><ele>339.0</ele><time>2026-04-26T16:13:27.998Z</time></trkpt><trkpt lat="42.99274228138142" lon="11.173961795097034"><ele>334.5</ele><time>2026-04-26T16:13:28.998Z</time></trkpt><trkpt lat="42.99264497823676" lon="11.173953097628855"><ele>330.0</ele><time>2026-04-26T16:13:29.998Z</time></trkpt><trkpt lat="42.99249801714213" lon="11.173923660396358"><ele>325.5</ele><time>2026-04-26T16:13:30.998Z</time></trkpt><trkpt lat="42.99237368501302" lon="11.173880807883666"><ele>321.0</ele><time>2026-04-26T16:13:31.998Z</time></trkpt><trkpt lat="42.992250793504596" lon="11.17381009536948"><ele>319.3333333333333</ele><time>2026-04-26T16:13:32.998Z</time></trkpt><trkpt lat="42.99208082926335" lon="11.173751151429496"><ele>317.66666666666663</ele><time>2026-04-26T16:13:33.998Z</time></trkpt><trkpt lat="42.991948461726444" lon="11.173581837331282"><ele>316.0</ele><time>2026-04-26T16:13:34.998Z</time></trkpt><trkpt lat="42.99186784677125" lon="11.173418509655884"><ele>316.0</ele><time>2026-04-26T16:13:35.998Z</time></trkpt><trkpt lat="42.99177172170398" lon="11.17324281162837"><ele>316.0</ele><time>2026-04-26T16:13:36.998Z</time></trkpt><trkpt lat="42.99172014719458" lon="11.173070656278998"><ele>316.0</ele><time>2026-04-26T16:13:37.998Z</time></trkpt><trkpt lat="42.99165345157537" lon="11.172871403958549"><ele>315.66666666666663</ele><time>2026-04-26T16:13:38.998Z</time></trkpt><trkpt lat="42.991585331588816" lon="11.172682338491672"><ele>315.3333333333333</ele><time>2026-04-26T16:13:39.998Z</time></trkpt><trkpt lat="42.99151282940251" lon="11.17247538657248"><ele>315.0</ele><time>2026-04-26T16:13:41Z</time></trkpt><trkpt lat="42.99144177987351" lon="11.172257556453756"><ele>312.0</ele><time>2026-04-26T16:13:42Z</time></trkpt><trkpt lat="42.99137814200985" lon="11.172037936617807"><ele>309.0</ele><time>2026-04-26T16:13:43Z</time></trkpt><trkpt lat="42.991334525137226" lon="11.171840313656054"><ele>306.0</ele><time>2026-04-26T16:13:44Z</time></trkpt><trkpt lat="42.9913141865859" lon="11.171634237260209"><ele>304.0</ele><time>2026-04-26T16:13:45Z</time></trkpt><trkpt lat="42.99129959273104" lon="11.171424373973684"><ele>302.0</ele><time>2026-04-26T16:13:46Z</time></trkpt><trkpt lat="42.991316651924066" lon="11.171235282015386"><ele>300.0</ele><time>2026-04-26T16:13:47Z</time></trkpt><trkpt lat="42.99130506808346" lon="11.171063164923561"><ele>298.0</ele><time>2026-04-26T16:13:48Z</time></trkpt><trkpt lat="42.99124547994806" lon="11.17091044883697"><ele>298.0</ele><time>2026-04-26T16:13:49Z</time></trkpt><trkpt lat="42.99112162309967" lon="11.170847386726"><ele>298.0</ele><time>2026-04-26T16:13:50Z</time></trkpt><trkpt lat="42.990985192281" lon="11.17085429209247"><ele>298.0</ele><time>2026-04-26T16:13:51Z</time></trkpt><trkpt lat="42.99088730941632" lon="11.17088125914049"><ele>298.0</ele><time>2026-04-26T16:13:52Z</time></trkpt><trkpt lat="42.990771004779" lon="11.17091478062066"><ele>300.25</ele><time>2026-04-26T16:13:53Z</time></trkpt><trkpt lat="42.990657023771014" lon="11.170953516987128"><ele>302.5</ele><time>2026-04-26T16:13:54Z</time></trkpt><trkpt lat="42.99056310219469" lon="11.171005512695528"><ele>304.75</ele><time>2026-04-26T16:13:55Z</time></trkpt><trkpt lat="42.99046254828269" lon="11.171079762177813"><ele>307.0</ele><time>2026-04-26T16:13:56Z</time></trkpt><trkpt lat="42.99035177249298" lon="11.171164732625469"><ele>307.0</ele><time>2026-04-26T16:13:57Z</time></trkpt><trkpt lat="42.990191821798305" lon="11.171300945747534"><ele>307.0</ele><time>2026-04-26T16:13:58Z</time></trkpt><trkpt lat="42.99000529163885" lon="11.171465200087212"><ele>307.0</ele><time>2026-04-26T16:13:59Z</time></trkpt><trkpt lat="42.989884481891394" lon="11.171609041962721"><ele>306.0</ele><time>2026-04-26T16:14:00Z</time></trkpt><trkpt lat="42.989812196698125" lon="11.171796607478173"><ele>305.0</ele><time>2026-04-26T16:14:01Z</time></trkpt><trkpt lat="42.98977700411825" lon="11.172000957205446"><ele>304.0</ele><time>2026-04-26T16:14:02Z</time></trkpt><trkpt lat="42.98973104459301" lon="11.172200457851423"><ele>304.0</ele><time>2026-04-26T16:14:03Z</time></trkpt><trkpt lat="42.98967485594372" lon="11.172405256252546"><ele>304.0</ele><time>2026-04-26T16:14:04Z</time></trkpt><trkpt lat="42.98961516638327" lon="11.17264840077288"><ele>304.0</ele><time>2026-04-26T16:14:05Z</time></trkpt><trkpt lat="42.989567921110165" lon="11.172862150112332"><ele>304.0</ele><time>2026-04-26T16:14:06Z</time></trkpt><trkpt lat="42.989524380906424" lon="11.173084852600773"><ele>304.0</ele><time>2026-04-26T16:14:07Z</time></trkpt><trkpt lat="42.98943162689662" lon="11.173346002405394"><ele>304.0</ele><time>2026-04-26T16:14:08Z</time></trkpt><trkpt lat="42.98930934824887" lon="11.173470337213883"><ele>298.66666666666663</ele><time>2026-04-26T16:14:09Z</time></trkpt><trkpt lat="42.98912963079124" lon="11.173558369409905"><ele>293.3333333333333</ele><time>2026-04-26T16:14:10Z</time></trkpt><trkpt lat="42.988969627454374" lon="11.173608770374532"><ele>288.0</ele><time>2026-04-26T16:14:11Z</time></trkpt><trkpt lat="42.98878668539776" lon="11.173657216924155"><ele>288.0</ele><time>2026-04-26T16:14:12Z</time></trkpt><trkpt lat="42.98861627919706" lon="11.173704012621732"><ele>288.0</ele><time>2026-04-26T16:14:13Z</time></trkpt><trkpt lat="42.988477006561645" lon="11.173801849918501"><ele>288.0</ele><time>2026-04-26T16:14:14Z</time></trkpt><trkpt lat="42.988385409644835" lon="11.173914511901367"><ele>287.5</ele><time>2026-04-26T16:14:15Z</time></trkpt><trkpt lat="42.98833068419633" lon="11.174059155913627"><ele>287.0</ele><time>2026-04-26T16:14:16Z</time></trkpt><trkpt lat="42.988309033413195" lon="11.174236748647349"><ele>286.5</ele><time>2026-04-26T16:14:17Z</time></trkpt><trkpt lat="42.9883173333338" lon="11.174425071908901"><ele>286.0</ele><time>2026-04-26T16:14:18Z</time></trkpt><trkpt lat="42.9883193431956" lon="11.174640990224384"><ele>285.0</ele><time>2026-04-26T16:14:19Z</time></trkpt><trkpt lat="42.98828838749621" lon="11.174907276759388"><ele>284.0</ele><time>2026-04-26T16:14:20Z</time></trkpt><trkpt lat="42.98822319982626" lon="11.175134339627881"><ele>283.0</ele><time>2026-04-26T16:14:21Z</time></trkpt><trkpt lat="42.98814155361554" lon="11.175308398375229"><ele>283.0</ele><time>2026-04-26T16:14:22Z</time></trkpt><trkpt lat="42.988064459230365" lon="11.175509780114583"><ele>283.0</ele><time>2026-04-26T16:14:23Z</time></trkpt><trkpt lat="42.9879906889321" lon="11.175701385289189"><ele>283.0</ele><time>2026-04-26T16:14:24Z</time></trkpt><trkpt lat="42.987878839491046" lon="11.175838300232527"><ele>282.66666666666663</ele><time>2026-04-26T16:14:25Z</time></trkpt><trkpt lat="42.98777206002479" lon="11.17597557041469"><ele>282.3333333333333</ele><time>2026-04-26T16:14:26Z</time></trkpt><trkpt lat="42.98764650592633" lon="11.176136026853829"><ele>282.0</ele><time>2026-04-26T16:14:27Z</time></trkpt><trkpt lat="42.98752912620611" lon="11.176288734758563"><ele>280.0</ele><time>2026-04-26T16:14:28Z</time></trkpt><trkpt lat="42.98739940976769" lon="11.176459381307424"><ele>278.0</ele><time>2026-04-26T16:14:29Z</time></trkpt><trkpt lat="42.987262850969735" lon="11.176631875241752"><ele>276.0</ele><time>2026-04-26T16:14:29.999Z</time></trkpt><trkpt lat="42.98715539637582" lon="11.176814216312568"><ele>276.0</ele><time>2026-04-26T16:14:30.999Z</time></trkpt><trkpt lat="42.98704528401713" lon="11.176998670937055"><ele>276.0</ele><time>2026-04-26T16:14:31.999Z</time></trkpt><trkpt lat="42.98698328585675" lon="11.177200867932113"><ele>276.0</ele><time>2026-04-26T16:14:32.999Z</time></trkpt><trkpt lat="42.98693588040224" lon="11.177404734170779"><ele>277.0</ele><time>2026-04-26T16:14:33.999Z</time></trkpt><trkpt lat="42.98691737620302" lon="11.177617973209028"><ele>278.0</ele><time>2026-04-26T16:14:34.999Z</time></trkpt><trkpt lat="42.986889726140376" lon="11.177823745772153"><ele>279.0</ele><time>2026-04-26T16:14:35.999Z</time></trkpt><trkpt lat="42.98684058846402" lon="11.178051492078927"><ele>280.3333333333333</ele><time>2026-04-26T16:14:36.999Z</time></trkpt><trkpt lat="42.986773985165286" lon="11.17826803735373"><ele>281.66666666666663</ele><time>2026-04-26T16:14:37.999Z</time></trkpt><trkpt lat="42.986699822370454" lon="11.17847544203293"><ele>283.0</ele><time>2026-04-26T16:14:38.999Z</time></trkpt><trkpt lat="42.98660747490776" lon="11.178681788756686"><ele>277.66666666666663</ele><time>2026-04-26T16:14:39.999Z</time></trkpt><trkpt lat="42.98649792634698" lon="11.178892940945907"><ele>272.3333333333333</ele><time>2026-04-26T16:14:40.999Z</time></trkpt><trkpt lat="42.986388230163556" lon="11.179099884330169"><ele>267.0</ele><time>2026-04-26T16:14:41.999Z</time></trkpt><trkpt lat="42.98628145234542" lon="11.179309399803017"><ele>267.0</ele><time>2026-04-26T16:14:42.999Z</time></trkpt><trkpt lat="42.98618850685327" lon="11.179536099541279"><ele>267.0</ele><time>2026-04-26T16:14:43.999Z</time></trkpt><trkpt lat="42.98610752631291" lon="11.179762916543755"><ele>267.0</ele><time>2026-04-26T16:14:44.999Z</time></trkpt><trkpt lat="42.98602116707103" lon="11.179982461684911"><ele>267.3333333333333</ele><time>2026-04-26T16:14:45.999Z</time></trkpt><trkpt lat="42.98592667028364" lon="11.180195791161768"><ele>267.66666666666663</ele><time>2026-04-26T16:14:46.999Z</time></trkpt><trkpt lat="42.985820633338406" lon="11.180396945179476"><ele>268.0</ele><time>2026-04-26T16:14:47.999Z</time></trkpt><trkpt lat="42.98570195627314" lon="11.180613321965323"><ele>265.0</ele><time>2026-04-26T16:14:48.999Z</time></trkpt><trkpt lat="42.98559000176046" lon="11.180817968887876"><ele>262.0</ele><time>2026-04-26T16:14:49.999Z</time></trkpt><trkpt lat="42.98548355830932" lon="11.18102633341435"><ele>259.0</ele><time>2026-04-26T16:14:50.999Z</time></trkpt><trkpt lat="42.98536485002478" lon="11.181197743240967"><ele>259.0</ele><time>2026-04-26T16:14:51.999Z</time></trkpt><trkpt lat="42.98525156804661" lon="11.181381276571342"><ele>259.0</ele><time>2026-04-26T16:14:52.999Z</time></trkpt><trkpt lat="42.98512311159542" lon="11.181568856468594"><ele>259.0</ele><time>2026-04-26T16:14:53.999Z</time></trkpt><trkpt lat="42.98498625788065" lon="11.181750196793773"><ele>255.0</ele><time>2026-04-26T16:14:54.999Z</time></trkpt><trkpt lat="42.984845544435515" lon="11.181923590773454"><ele>251.0</ele><time>2026-04-26T16:14:55.999Z</time></trkpt><trkpt lat="42.98471533806174" lon="11.182092330719676"><ele>247.0</ele><time>2026-04-26T16:14:56.999Z</time></trkpt><trkpt lat="42.9845832403021" lon="11.182270116735596"><ele>247.0</ele><time>2026-04-26T16:14:57.999Z</time></trkpt><trkpt lat="42.98444657415598" lon="11.182454128650342"><ele>247.0</ele><time>2026-04-26T16:14:58.999Z</time></trkpt><trkpt lat="42.984328037475954" lon="11.182648556428889"><ele>247.0</ele><time>2026-04-26T16:14:59.999Z</time></trkpt><trkpt lat="42.98421365702947" lon="11.182856248105399"><ele>245.0</ele><time>2026-04-26T16:15:00.999Z</time></trkpt><trkpt lat="42.98409800249789" lon="11.183031740097842"><ele>243.0</ele><time>2026-04-26T16:15:01.999Z</time></trkpt><trkpt lat="42.983975630629594" lon="11.183171454722684"><ele>241.0</ele><time>2026-04-26T16:15:02.999Z</time></trkpt><trkpt lat="42.98384293121571" lon="11.183251023552565"><ele>241.0</ele><time>2026-04-26T16:15:03.999Z</time></trkpt><trkpt lat="42.98369206208622" lon="11.183267137910462"><ele>241.0</ele><time>2026-04-26T16:15:04.999Z</time></trkpt><trkpt lat="42.983536899582525" lon="11.183215076853946"><ele>241.0</ele><time>2026-04-26T16:15:05.999Z</time></trkpt><trkpt lat="42.98339465857416" lon="11.183122686124493"><ele>238.33333333333331</ele><time>2026-04-26T16:15:06.999Z</time></trkpt><trkpt lat="42.98328225818278" lon="11.182967007291499"><ele>235.66666666666669</ele><time>2026-04-26T16:15:07.999Z</time></trkpt><trkpt lat="42.983172192826636" lon="11.182801677257267"><ele>233.0</ele><time>2026-04-26T16:15:08.999Z</time></trkpt><trkpt lat="42.98300778567054" lon="11.182685719805109"><ele>233.0</ele><time>2026-04-26T16:15:09.999Z</time></trkpt><trkpt lat="42.982824167915936" lon="11.182599715114907"><ele>233.0</ele><time>2026-04-26T16:15:10.999Z</time></trkpt><trkpt lat="42.9826146484408" lon="11.182618460955265"><ele>233.0</ele><time>2026-04-26T16:15:11.999Z</time></trkpt><trkpt lat="42.982456741508805" lon="11.182666143655078"><ele>230.33333333333334</ele><time>2026-04-26T16:15:12.999Z</time></trkpt><trkpt lat="42.98228726452017" lon="11.182743795124345"><ele>227.66666666666669</ele><time>2026-04-26T16:15:13.999Z</time></trkpt><trkpt lat="42.9821509323891" lon="11.182838026241017"><ele>225.0</ele><time>2026-04-26T16:15:14.999Z</time></trkpt><trkpt lat="42.98200852448728" lon="11.182916373957053"><ele>225.0</ele><time>2026-04-26T16:15:15.999Z</time></trkpt><trkpt lat="42.98182921397608" lon="11.18297952561818"><ele>225.0</ele><time>2026-04-26T16:15:16.999Z</time></trkpt><trkpt lat="42.981627536868864" lon="11.183042240058228"><ele>225.0</ele><time>2026-04-26T16:15:17.999Z</time></trkpt><trkpt lat="42.98143047233655" lon="11.183097637671047"><ele>222.33333333333331</ele><time>2026-04-26T16:15:18.999Z</time></trkpt><trkpt lat="42.981245355844685" lon="11.183113972449462"><ele>219.66666666666666</ele><time>2026-04-26T16:15:19.999Z</time></trkpt><trkpt lat="42.981092829364556" lon="11.1831554667285"><ele>217.0</ele><time>2026-04-26T16:15:20.999Z</time></trkpt><trkpt lat="42.98087440605827" lon="11.183118323610744"><ele>213.0</ele><time>2026-04-26T16:15:21.999Z</time></trkpt><trkpt lat="42.98063144828282" lon="11.183091567106272"><ele>209.0</ele><time>2026-04-26T16:15:22.999Z</time></trkpt><trkpt lat="42.980414449541954" lon="11.183068274962174"><ele>209.0</ele><time>2026-04-26T16:15:23.999Z</time></trkpt><trkpt lat="42.98024248404109" lon="11.183050154101778"><ele>209.0</ele><time>2026-04-26T16:15:24.999Z</time></trkpt><trkpt lat="42.9800603582622" lon="11.183030962614527"><ele>209.0</ele><time>2026-04-26T16:15:25.998Z</time></trkpt><trkpt lat="42.979862992015505" lon="11.183010165192545"><ele>208.0</ele><time>2026-04-26T16:15:26.998Z</time></trkpt><trkpt lat="42.97965240975509" lon="11.18298797509666"><ele>207.0</ele><time>2026-04-26T16:15:27.998Z</time></trkpt><trkpt lat="42.97942845636257" lon="11.182964376045812"><ele>206.0</ele><time>2026-04-26T16:15:28.998Z</time></trkpt><trkpt lat="42.979210274621664" lon="11.182943488518333"><ele>204.33333333333334</ele><time>2026-04-26T16:15:29.998Z</time></trkpt><trkpt lat="42.97901780960935" lon="11.182934186303786"><ele>202.66666666666669</ele><time>2026-04-26T16:15:30.998Z</time></trkpt><trkpt lat="42.97879415634137" lon="11.182948456679492"><ele>201.0</ele><time>2026-04-26T16:15:31.998Z</time></trkpt><trkpt lat="42.978601032740144" lon="11.182988000146613"><ele>201.0</ele><time>2026-04-26T16:15:32.998Z</time></trkpt><trkpt lat="42.978414340459345" lon="11.183011653533757"><ele>201.0</ele><time>2026-04-26T16:15:33.998Z</time></trkpt><trkpt lat="42.97823397597689" lon="11.183029473474889"><ele>201.0</ele><time>2026-04-26T16:15:34.998Z</time></trkpt><trkpt lat="42.97805697143956" lon="11.183035265250767"><ele>199.33333333333331</ele><time>2026-04-26T16:15:35.998Z</time></trkpt><trkpt lat="42.97787079101258" lon="11.183050389904823"><ele>197.66666666666666</ele><time>2026-04-26T16:15:36.998Z</time></trkpt><trkpt lat="42.977688570944316" lon="11.183071671899887"><ele>196.0</ele><time>2026-04-26T16:15:37.998Z</time></trkpt><trkpt lat="42.97751756096739" lon="11.1830927966656"><ele>195.0</ele><time>2026-04-26T16:15:38.998Z</time></trkpt><trkpt lat="42.97733857944874" lon="11.183112470419397"><ele>194.0</ele><time>2026-04-26T16:15:39.998Z</time></trkpt><trkpt lat="42.97715771048642" lon="11.183113364350822"><ele>193.0</ele><time>2026-04-26T16:15:40.998Z</time></trkpt><trkpt lat="42.97695814031992" lon="11.183110019543253"><ele>193.0</ele><time>2026-04-26T16:15:41.998Z</time></trkpt><trkpt lat="42.97676084138581" lon="11.183090207445707"><ele>193.0</ele><time>2026-04-26T16:15:42.998Z</time></trkpt><trkpt lat="42.97656695577308" lon="11.183070879503337"><ele>193.0</ele><time>2026-04-26T16:15:43.998Z</time></trkpt><trkpt lat="42.976366439458026" lon="11.183062758721139"><ele>195.33333333333331</ele><time>2026-04-26T16:15:44.998Z</time></trkpt><trkpt lat="42.97615396074569" lon="11.1830555440365"><ele>197.66666666666669</ele><time>2026-04-26T16:15:46Z</time></trkpt><trkpt lat="42.97594783956238" lon="11.183046256455416"><ele>200.0</ele><time>2026-04-26T16:15:47Z</time></trkpt><trkpt lat="42.97573862087076" lon="11.1830345080603"><ele>202.66666666666669</ele><time>2026-04-26T16:15:48Z</time></trkpt><trkpt lat="42.97553210507077" lon="11.18301964320059"><ele>205.33333333333331</ele><time>2026-04-26T16:15:49Z</time></trkpt><trkpt lat="42.97532629669987" lon="11.183001623062262"><ele>208.0</ele><time>2026-04-26T16:15:50Z</time></trkpt><trkpt lat="42.975120829953326" lon="11.182984017105062"><ele>211.0</ele><time>2026-04-26T16:15:51Z</time></trkpt><trkpt lat="42.97492114088825" lon="11.18297616717784"><ele>214.0</ele><time>2026-04-26T16:15:52Z</time></trkpt><trkpt lat="42.97472126521751" lon="11.182969701622032"><ele>217.0</ele><time>2026-04-26T16:15:53Z</time></trkpt><trkpt lat="42.974525633881015" lon="11.182957706630521"><ele>217.0</ele><time>2026-04-26T16:15:54Z</time></trkpt><trkpt lat="42.97433177947773" lon="11.18293796952608"><ele>217.0</ele><time>2026-04-26T16:15:55Z</time></trkpt><trkpt lat="42.97413072276047" lon="11.182930122318787"><ele>217.0</ele><time>2026-04-26T16:15:56Z</time></trkpt><trkpt lat="42.97394199499782" lon="11.182920709600577"><ele>215.66666666666666</ele><time>2026-04-26T16:15:57Z</time></trkpt><trkpt lat="42.973759802152124" lon="11.182934977670149"><ele>214.33333333333331</ele><time>2026-04-26T16:15:58Z</time></trkpt><trkpt lat="42.9735947897112" lon="11.18297831198712"><ele>213.0</ele><time>2026-04-26T16:15:59Z</time></trkpt><trkpt lat="42.97344015083402" lon="11.183064091277204"><ele>212.0</ele><time>2026-04-26T16:16:00Z</time></trkpt><trkpt lat="42.97329929623087" lon="11.183193278297361"><ele>211.0</ele><time>2026-04-26T16:16:01Z</time></trkpt><trkpt lat="42.97316425484198" lon="11.183353230257099"><ele>210.0</ele><time>2026-04-26T16:16:02Z</time></trkpt><trkpt lat="42.973064643879425" lon="11.183546071971104"><ele>210.0</ele><time>2026-04-26T16:16:03Z</time></trkpt><trkpt lat="42.97298036565648" lon="11.183751188403996"><ele>210.0</ele><time>2026-04-26T16:16:04Z</time></trkpt><trkpt lat="42.97291769884903" lon="11.183987033881763"><ele>210.0</ele><time>2026-04-26T16:16:05Z</time></trkpt><trkpt lat="42.97284347715163" lon="11.184244561462428"><ele>211.0</ele><time>2026-04-26T16:16:06Z</time></trkpt><trkpt lat="42.972799091856594" lon="11.184499810041704"><ele>212.0</ele><time>2026-04-26T16:16:07Z</time></trkpt><trkpt lat="42.97273375366279" lon="11.18476023103226"><ele>213.0</ele><time>2026-04-26T16:16:08Z</time></trkpt><trkpt lat="42.97267236276695" lon="11.185020210169522"><ele>214.0</ele><time>2026-04-26T16:16:09Z</time></trkpt><trkpt lat="42.97261673602865" lon="11.185270104730552"><ele>215.0</ele><time>2026-04-26T16:16:10Z</time></trkpt><trkpt lat="42.97255811225187" lon="11.185513568405277"><ele>216.0</ele><time>2026-04-26T16:16:11Z</time></trkpt><trkpt lat="42.97249024522912" lon="11.185757995698449"><ele>210.33333333333331</ele><time>2026-04-26T16:16:12Z</time></trkpt><trkpt lat="42.97240757373295" lon="11.18599755332281"><ele>204.66666666666666</ele><time>2026-04-26T16:16:13Z</time></trkpt><trkpt lat="42.97230875525581" lon="11.186206765564567"><ele>199.0</ele><time>2026-04-26T16:16:14Z</time></trkpt><trkpt lat="42.972176904808805" lon="11.18640588129383"><ele>200.66666666666666</ele><time>2026-04-26T16:16:15Z</time></trkpt><trkpt lat="42.97202178295453" lon="11.186569870446698"><ele>202.33333333333331</ele><time>2026-04-26T16:16:16Z</time></trkpt><trkpt lat="42.97185102186566" lon="11.186707663455568"><ele>204.0</ele><time>2026-04-26T16:16:17Z</time></trkpt><trkpt lat="42.97166992044977" lon="11.186815833798585"><ele>199.66666666666666</ele><time>2026-04-26T16:16:18Z</time></trkpt><trkpt lat="42.97149153593089" lon="11.186926860448905"><ele>195.33333333333331</ele><time>2026-04-26T16:16:19Z</time></trkpt><trkpt lat="42.97131866897395" lon="11.187035822103654"><ele>191.0</ele><time>2026-04-26T16:16:20Z</time></trkpt><trkpt lat="42.97113705698062" lon="11.187123688899373"><ele>191.0</ele><time>2026-04-26T16:16:21Z</time></trkpt><trkpt lat="42.970947670490816" lon="11.187172252059575"><ele>191.0</ele><time>2026-04-26T16:16:22Z</time></trkpt><trkpt lat="42.97075779626195" lon="11.187184140823716"><ele>191.0</ele><time>2026-04-26T16:16:23Z</time></trkpt><trkpt lat="42.97057157833901" lon="11.187155383439963"><ele>188.0</ele><time>2026-04-26T16:16:24Z</time></trkpt><trkpt lat="42.97038913404406" lon="11.187081780239636"><ele>185.0</ele><time>2026-04-26T16:16:25Z</time></trkpt><trkpt lat="42.97020825007633" lon="11.186980332651135"><ele>182.0</ele><time>2026-04-26T16:16:26Z</time></trkpt><trkpt lat="42.970032339080916" lon="11.186859624447521"><ele>183.33333333333331</ele><time>2026-04-26T16:16:27Z</time></trkpt><trkpt lat="42.96985504506068" lon="11.18673522953527"><ele>184.66666666666666</ele><time>2026-04-26T16:16:28Z</time></trkpt><trkpt lat="42.96967260212844" lon="11.186612396835741"><ele>186.0</ele><time>2026-04-26T16:16:29Z</time></trkpt><trkpt lat="42.96948425078867" lon="11.18648700418765"><ele>182.0</ele><time>2026-04-26T16:16:30Z</time></trkpt><trkpt lat="42.969303444595774" lon="11.186343086498967"><ele>178.0</ele><time>2026-04-26T16:16:31Z</time></trkpt><trkpt lat="42.96910959255395" lon="11.186211562305454"><ele>174.0</ele><time>2026-04-26T16:16:32Z</time></trkpt><trkpt lat="42.96891918698331" lon="11.18609681002746"><ele>173.66666666666666</ele><time>2026-04-26T16:16:33Z</time></trkpt><trkpt lat="42.96872867209452" lon="11.185962690657131"><ele>173.33333333333331</ele><time>2026-04-26T16:16:34Z</time></trkpt><trkpt lat="42.96853858977151" lon="11.185835013654424"><ele>173.0</ele><time>2026-04-26T16:16:35Z</time></trkpt><trkpt lat="42.968347124503836" lon="11.185709542608015"><ele>170.66666666666666</ele><time>2026-04-26T16:16:35.999Z</time></trkpt><trkpt lat="42.96816973736259" lon="11.18557909426563"><ele>168.33333333333334</ele><time>2026-04-26T16:16:36.999Z</time></trkpt><trkpt lat="42.96799106524812" lon="11.18545812988634"><ele>166.0</ele><time>2026-04-26T16:16:37.999Z</time></trkpt><trkpt lat="42.967808870999924" lon="11.185365019835317"><ele>166.0</ele><time>2026-04-26T16:16:38.999Z</time></trkpt><trkpt lat="42.9676295322681" lon="11.18530612236617"><ele>166.0</ele><time>2026-04-26T16:16:39.999Z</time></trkpt><trkpt lat="42.96744924607626" lon="11.185282943716489"><ele>166.0</ele><time>2026-04-26T16:16:40.999Z</time></trkpt><trkpt lat="42.96726169283983" lon="11.185304823551796"><ele>165.66666666666669</ele><time>2026-04-26T16:16:41.999Z</time></trkpt><trkpt lat="42.96707118458022" lon="11.185365285116784"><ele>165.33333333333334</ele><time>2026-04-26T16:16:42.999Z</time></trkpt><trkpt lat="42.966897494035884" lon="11.185448391640254"><ele>165.0</ele><time>2026-04-26T16:16:43.999Z</time></trkpt><trkpt lat="42.96673651004816" lon="11.185569174956838"><ele>166.0</ele><time>2026-04-26T16:16:44.999Z</time></trkpt><trkpt lat="42.96658337273565" lon="11.185723617089607"><ele>167.0</ele><time>2026-04-26T16:16:45.999Z</time></trkpt><trkpt lat="42.96644307373938" lon="11.185895290673738"><ele>168.0</ele><time>2026-04-26T16:16:46.999Z</time></trkpt><trkpt lat="42.96627904606478" lon="11.186037917574735"><ele>168.0</ele><time>2026-04-26T16:16:47.999Z</time></trkpt><trkpt lat="42.96612830092654" lon="11.18617551983618"><ele>168.0</ele><time>2026-04-26T16:16:48.999Z</time></trkpt><trkpt lat="42.96598303472826" lon="11.186323241926697"><ele>168.0</ele><time>2026-04-26T16:16:49.999Z</time></trkpt><trkpt lat="42.96585995952458" lon="11.186485946180557"><ele>165.0</ele><time>2026-04-26T16:16:50.999Z</time></trkpt><trkpt lat="42.96573710795084" lon="11.186637610502036"><ele>162.0</ele><time>2026-04-26T16:16:51.999Z</time></trkpt><trkpt lat="42.965601345748446" lon="11.186789898351169"><ele>159.0</ele><time>2026-04-26T16:16:52.999Z</time></trkpt><trkpt lat="42.965536768052424" lon="11.187082270623328"><ele>159.0</ele><time>2026-04-26T16:16:53.999Z</time></trkpt><trkpt lat="42.965426765517684" lon="11.187268784002583"><ele>159.0</ele><time>2026-04-26T16:16:54.999Z</time></trkpt><trkpt lat="42.965276468116436" lon="11.187409740397246"><ele>159.0</ele><time>2026-04-26T16:16:55.999Z</time></trkpt><trkpt lat="42.965119939086044" lon="11.187520308174783"><ele>156.33333333333334</ele><time>2026-04-26T16:16:56.999Z</time></trkpt><trkpt lat="42.964945890331485" lon="11.187618900234076"><ele>153.66666666666669</ele><time>2026-04-26T16:16:57.999Z</time></trkpt><trkpt lat="42.96476918831232" lon="11.187723125642218"><ele>151.0</ele><time>2026-04-26T16:16:58.999Z</time></trkpt><trkpt lat="42.964595713875916" lon="11.187850486545582"><ele>151.0</ele><time>2026-04-26T16:16:59.999Z</time></trkpt><trkpt lat="42.96443246750021" lon="11.187977870924641"><ele>151.0</ele><time>2026-04-26T16:17:00.999Z</time></trkpt><trkpt lat="42.964292507124114" lon="11.188112487011693"><ele>151.0</ele><time>2026-04-26T16:17:01.999Z</time></trkpt><trkpt lat="42.96412361256709" lon="11.188270762476924"><ele>149.0</ele><time>2026-04-26T16:17:02.999Z</time></trkpt><trkpt lat="42.96394995999708" lon="11.188414564867342"><ele>147.0</ele><time>2026-04-26T16:17:03.999Z</time></trkpt><trkpt lat="42.96376984700466" lon="11.188551876751578"><ele>145.0</ele><time>2026-04-26T16:17:04.999Z</time></trkpt><trkpt lat="42.96359655104969" lon="11.188695837312881"><ele>145.0</ele><time>2026-04-26T16:17:05.999Z</time></trkpt><trkpt lat="42.96341888515978" lon="11.18883773688412"><ele>145.0</ele><time>2026-04-26T16:17:06.999Z</time></trkpt><trkpt lat="42.963240012357915" lon="11.18898611374504"><ele>145.0</ele><time>2026-04-26T16:17:07.999Z</time></trkpt><trkpt lat="42.96306495448547" lon="11.189134318672341"><ele>143.33333333333334</ele><time>2026-04-26T16:17:08.999Z</time></trkpt><trkpt lat="42.96288889462306" lon="11.189272539133203"><ele>141.66666666666666</ele><time>2026-04-26T16:17:09.999Z</time></trkpt><trkpt lat="42.96271222698596" lon="11.189408965397625"><ele>140.0</ele><time>2026-04-26T16:17:10.999Z</time></trkpt><trkpt lat="42.96253990878344" lon="11.189557666250986"><ele>139.66666666666666</ele><time>2026-04-26T16:17:11.999Z</time></trkpt><trkpt lat="42.962366557669334" lon="11.189694730666174"><ele>139.33333333333334</ele><time>2026-04-26T16:17:12.999Z</time></trkpt><trkpt lat="42.962196232267125" lon="11.1898309431712"><ele>139.0</ele><time>2026-04-26T16:17:13.999Z</time></trkpt><trkpt lat="42.96202981654402" lon="11.189964650308939"><ele>138.33333333333334</ele><time>2026-04-26T16:17:14.999Z</time></trkpt><trkpt lat="42.96185847815356" lon="11.19009887438648"><ele>137.66666666666666</ele><time>2026-04-26T16:17:15.999Z</time></trkpt><trkpt lat="42.96168899339699" lon="11.190229517634755"><ele>137.0</ele><time>2026-04-26T16:17:16.999Z</time></trkpt><trkpt lat="42.96152286654095" lon="11.190361248331476"><ele>137.0</ele><time>2026-04-26T16:17:17.999Z</time></trkpt><trkpt lat="42.96135505401631" lon="11.190489856361582"><ele>137.0</ele><time>2026-04-26T16:17:18.999Z</time></trkpt><trkpt lat="42.961183541607596" lon="11.190618705384257"><ele>137.0</ele><time>2026-04-26T16:17:19.999Z</time></trkpt><trkpt lat="42.96100625276391" lon="11.190751551653376"><ele>135.33333333333331</ele><time>2026-04-26T16:17:20.999Z</time></trkpt><trkpt lat="42.960828931286265" lon="11.190889724266563"><ele>133.66666666666666</ele><time>2026-04-26T16:17:21.999Z</time></trkpt><trkpt lat="42.960647405309416" lon="11.191036129690266"><ele>132.0</ele><time>2026-04-26T16:17:22.999Z</time></trkpt><trkpt lat="42.96046522918944" lon="11.191175938555853"><ele>132.0</ele><time>2026-04-26T16:17:23.999Z</time></trkpt><trkpt lat="42.96028137430065" lon="11.191317254678651"><ele>132.0</ele><time>2026-04-26T16:17:24.999Z</time></trkpt><trkpt lat="42.96009537983383" lon="11.191456941964878"><ele>132.0</ele><time>2026-04-26T16:17:25.999Z</time></trkpt><trkpt lat="42.95991039507915" lon="11.19159857392552"><ele>130.0</ele><time>2026-04-26T16:17:26.999Z</time></trkpt><trkpt lat="42.95973029434813" lon="11.191736183738008"><ele>128.0</ele><time>2026-04-26T16:17:27.999Z</time></trkpt><trkpt lat="42.95955062143778" lon="11.191871221320323"><ele>126.0</ele><time>2026-04-26T16:17:28.999Z</time></trkpt><trkpt lat="42.95937417505732" lon="11.191997557597961"><ele>126.0</ele><time>2026-04-26T16:17:29.999Z</time></trkpt><trkpt lat="42.95920428827143" lon="11.192120134292802"><ele>126.0</ele><time>2026-04-26T16:17:30.998Z</time></trkpt><trkpt lat="42.95905332594595" lon="11.192229753800786"><ele>126.0</ele><time>2026-04-26T16:17:31.998Z</time></trkpt><trkpt lat="42.958933445596585" lon="11.192367539333405"><ele>124.66666666666666</ele><time>2026-04-26T16:17:32.998Z</time></trkpt><trkpt lat="42.9588499215011" lon="11.192545944627934"><ele>123.33333333333333</ele><time>2026-04-26T16:17:33.998Z</time></trkpt><trkpt lat="42.95881073302591" lon="11.192760277549166"><ele>122.0</ele><time>2026-04-26T16:17:34.998Z</time></trkpt><trkpt lat="42.9587795569184" lon="11.192982317694762"><ele>123.0</ele><time>2026-04-26T16:17:35.998Z</time></trkpt><trkpt lat="42.95875479708278" lon="11.193201168752704"><ele>124.0</ele><time>2026-04-26T16:17:36.998Z</time></trkpt><trkpt lat="42.958746659214164" lon="11.19343490593238"><ele>125.0</ele><time>2026-04-26T16:17:37.998Z</time></trkpt><trkpt lat="42.95873970834574" lon="11.19364811623947"><ele>125.0</ele><time>2026-04-26T16:17:38.998Z</time></trkpt><trkpt lat="42.95875978889234" lon="11.193884708853286"><ele>125.0</ele><time>2026-04-26T16:17:39.998Z</time></trkpt><trkpt lat="42.958780609080826" lon="11.1941459426082"><ele>125.0</ele><time>2026-04-26T16:17:40.998Z</time></trkpt><trkpt lat="42.95876211781063" lon="11.194388198052955"><ele>124.66666666666666</ele><time>2026-04-26T16:17:41.998Z</time></trkpt><trkpt lat="42.95877952847252" lon="11.194632122093871"><ele>124.33333333333334</ele><time>2026-04-26T16:17:42.998Z</time></trkpt><trkpt lat="42.95883190423027" lon="11.194888668053627"><ele>124.0</ele><time>2026-04-26T16:17:43.998Z</time></trkpt><trkpt lat="42.9588910603697" lon="11.195158277838349"><ele>124.0</ele><time>2026-04-26T16:17:44.998Z</time></trkpt><trkpt lat="42.958922692693086" lon="11.195432899277206"><ele>124.0</ele><time>2026-04-26T16:17:45.998Z</time></trkpt><trkpt lat="42.95896352543534" lon="11.195708578918675"><ele>124.0</ele><time>2026-04-26T16:17:46.998Z</time></trkpt><trkpt lat="42.95901663710635" lon="11.195986450119818"><ele>123.33333333333334</ele><time>2026-04-26T16:17:47.998Z</time></trkpt><trkpt lat="42.959072756722215" lon="11.19626616087777"><ele>122.66666666666666</ele><time>2026-04-26T16:17:48.998Z</time></trkpt><trkpt lat="42.95912291937268" lon="11.196540087755107"><ele>122.0</ele><time>2026-04-26T16:17:49.998Z</time></trkpt><trkpt lat="42.95917633036257" lon="11.196807679243708"><ele>124.33333333333333</ele><time>2026-04-26T16:17:50.998Z</time></trkpt><trkpt lat="42.959260655671045" lon="11.197063082321042"><ele>126.66666666666666</ele><time>2026-04-26T16:17:52Z</time></trkpt><trkpt lat="42.95936595699914" lon="11.197308599040216"><ele>129.0</ele><time>2026-04-26T16:17:53Z</time></trkpt><trkpt lat="42.95946391478347" lon="11.197555761731019"><ele>129.0</ele><time>2026-04-26T16:17:54Z</time></trkpt><trkpt lat="42.95954667296481" lon="11.197812579352096"><ele>129.0</ele><time>2026-04-26T16:17:55Z</time></trkpt><trkpt lat="42.95960710091886" lon="11.198089435421089"><ele>129.0</ele><time>2026-04-26T16:17:56Z</time></trkpt><trkpt lat="42.959647813586365" lon="11.198378582390333"><ele>130.0</ele><time>2026-04-26T16:17:57Z</time></trkpt><trkpt lat="42.95971492275281" lon="11.198690984157668"><ele>131.0</ele><time>2026-04-26T16:17:58Z</time></trkpt><trkpt lat="42.95975950945178" lon="11.198995352754494"><ele>130.0</ele><time>2026-04-26T16:17:59Z</time></trkpt><trkpt lat="42.9597962890155" lon="11.19931118502469"><ele>129.0</ele><time>2026-04-26T16:18:00Z</time></trkpt><trkpt lat="42.9598296929497" lon="11.199622575715361"><ele>127.0</ele><time>2026-04-26T16:18:01Z</time></trkpt><trkpt lat="42.95986610912043" lon="11.19993253618525"><ele>125.0</ele><time>2026-04-26T16:18:02Z</time></trkpt><trkpt lat="42.95989947579033" lon="11.200230070963446"><ele>125.0</ele><time>2026-04-26T16:18:03Z</time></trkpt><trkpt lat="42.95992738630357" lon="11.200521495924363"><ele>125.0</ele><time>2026-04-26T16:18:04Z</time></trkpt><trkpt lat="42.95997965235445" lon="11.200792944267981"><ele>125.0</ele><time>2026-04-26T16:18:05Z</time></trkpt><trkpt lat="42.96003957517025" lon="11.201049784671822"><ele>126.33333333333333</ele><time>2026-04-26T16:18:06Z</time></trkpt><trkpt lat="42.96013385830022" lon="11.201292251210164"><ele>127.66666666666666</ele><time>2026-04-26T16:18:07Z</time></trkpt><trkpt lat="42.960203723222314" lon="11.20155510469584"><ele>129.0</ele><time>2026-04-26T16:18:08Z</time></trkpt><trkpt lat="42.960240016121" lon="11.201824986092149"><ele>126.66666666666666</ele><time>2026-04-26T16:18:09Z</time></trkpt><trkpt lat="42.96026041812451" lon="11.20209061391514"><ele>124.33333333333333</ele><time>2026-04-26T16:18:10Z</time></trkpt><trkpt lat="42.9602502421412" lon="11.202331205720887"><ele>122.0</ele><time>2026-04-26T16:18:11Z</time></trkpt><trkpt lat="42.96021047986295" lon="11.202573673282087"><ele>122.0</ele><time>2026-04-26T16:18:12Z</time></trkpt><trkpt lat="42.960158397197695" lon="11.202812267808607"><ele>122.0</ele><time>2026-04-26T16:18:13Z</time></trkpt><trkpt lat="42.9601249255316" lon="11.20305557173152"><ele>122.0</ele><time>2026-04-26T16:18:14Z</time></trkpt><trkpt lat="42.96010327753189" lon="11.203330335401402"><ele>124.33333333333333</ele><time>2026-04-26T16:18:15Z</time></trkpt><trkpt lat="42.96006696599359" lon="11.203636136006775"><ele>126.66666666666666</ele><time>2026-04-26T16:18:16Z</time></trkpt><trkpt lat="42.960050151688634" lon="11.203930754679465"><ele>129.0</ele><time>2026-04-26T16:18:17Z</time></trkpt><trkpt lat="42.96003655187506" lon="11.204221870977506"><ele>132.0</ele><time>2026-04-26T16:18:18Z</time></trkpt><trkpt lat="42.96003909158564" lon="11.204498870975991"><ele>135.0</ele><time>2026-04-26T16:18:19Z</time></trkpt><trkpt lat="42.96007122977301" lon="11.204777754426994"><ele>138.0</ele><time>2026-04-26T16:18:20Z</time></trkpt><trkpt lat="42.960109007670766" lon="11.205064232236042"><ele>138.0</ele><time>2026-04-26T16:18:21Z</time></trkpt><trkpt lat="42.96014144188347" lon="11.205359196387894"><ele>138.0</ele><time>2026-04-26T16:18:22Z</time></trkpt><trkpt lat="42.96016776321589" lon="11.205662064947054"><ele>138.0</ele><time>2026-04-26T16:18:23Z</time></trkpt><trkpt lat="42.96020415236522" lon="11.205968587087154"><ele>137.0</ele><time>2026-04-26T16:18:24Z</time></trkpt><trkpt lat="42.960247558747014" lon="11.206283046640479"><ele>136.0</ele><time>2026-04-26T16:18:25Z</time></trkpt><trkpt lat="42.960277848378766" lon="11.206597941147205"><ele>133.33333333333334</ele><time>2026-04-26T16:18:26Z</time></trkpt><trkpt lat="42.96030311542317" lon="11.206902961555633"><ele>130.66666666666666</ele><time>2026-04-26T16:18:27Z</time></trkpt><trkpt lat="42.96032979707864" lon="11.20719029221882"><ele>128.0</ele><time>2026-04-26T16:18:28Z</time></trkpt><trkpt lat="42.96036320165285" lon="11.207457281152047"><ele>125.66666666666666</ele><time>2026-04-26T16:18:29Z</time></trkpt><trkpt lat="42.960414980107444" lon="11.20770656931197"><ele>123.33333333333334</ele><time>2026-04-26T16:18:30Z</time></trkpt><trkpt lat="42.960509160472284" lon="11.207930118338613"><ele>121.0</ele><time>2026-04-26T16:18:31Z</time></trkpt><trkpt lat="42.96062842948995" lon="11.208140033694676"><ele>120.0</ele><time>2026-04-26T16:18:32Z</time></trkpt><trkpt lat="42.960746248646466" lon="11.208347040142659"><ele>119.0</ele><time>2026-04-26T16:18:33Z</time></trkpt><trkpt lat="42.960838706413575" lon="11.20858069184931"><ele>118.0</ele><time>2026-04-26T16:18:34Z</time></trkpt><trkpt lat="42.960911808748904" lon="11.208827616042981"><ele>120.33333333333334</ele><time>2026-04-26T16:18:35Z</time></trkpt><trkpt lat="42.96097590289817" lon="11.209084638213346"><ele>122.66666666666666</ele><time>2026-04-26T16:18:36Z</time></trkpt><trkpt lat="42.9610357484899" lon="11.209349530997484"><ele>125.0</ele><time>2026-04-26T16:18:37Z</time></trkpt><trkpt lat="42.961099211224905" lon="11.209612867928664"><ele>123.0</ele><time>2026-04-26T16:18:38Z</time></trkpt><trkpt lat="42.96116613250932" lon="11.209885481565962"><ele>121.0</ele><time>2026-04-26T16:18:39Z</time></trkpt><trkpt lat="42.961233872541655" lon="11.210148402786405"><ele>119.0</ele><time>2026-04-26T16:18:40Z</time></trkpt><trkpt lat="42.96129657626707" lon="11.210400867683934"><ele>119.0</ele><time>2026-04-26T16:18:41Z</time></trkpt><trkpt lat="42.961355164141224" lon="11.210647308895727"><ele>119.0</ele><time>2026-04-26T16:18:41.999Z</time></trkpt><trkpt lat="42.96141219963456" lon="11.2108930761802"><ele>119.0</ele><time>2026-04-26T16:18:42.999Z</time></trkpt><trkpt lat="42.96147503710185" lon="11.211137101633877"><ele>117.33333333333333</ele><time>2026-04-26T16:18:43.999Z</time></trkpt><trkpt lat="42.96153675388364" lon="11.21138074350614"><ele>115.66666666666666</ele><time>2026-04-26T16:18:44.999Z</time></trkpt><trkpt lat="42.96159568515147" lon="11.21161651619762"><ele>114.0</ele><time>2026-04-26T16:18:45.999Z</time></trkpt><trkpt lat="42.96165353226126" lon="11.211841085719765"><ele>116.66666666666666</ele><time>2026-04-26T16:18:46.999Z</time></trkpt><trkpt lat="42.961700995691984" lon="11.212077087148726"><ele>119.33333333333333</ele><time>2026-04-26T16:18:47.999Z</time></trkpt><trkpt lat="42.961730261592535" lon="11.21232434309209"><ele>122.0</ele><time>2026-04-26T16:18:48.999Z</time></trkpt><trkpt lat="42.96173990203104" lon="11.212580470674848"><ele>122.0</ele><time>2026-04-26T16:18:49.999Z</time></trkpt><trkpt lat="42.961744331660256" lon="11.212837689320608"><ele>122.0</ele><time>2026-04-26T16:18:50.999Z</time></trkpt><trkpt lat="42.96172805533425" lon="11.213100997721472"><ele>122.0</ele><time>2026-04-26T16:18:51.999Z</time></trkpt><trkpt lat="42.96171354376798" lon="11.213359607838164"><ele>118.33333333333333</ele><time>2026-04-26T16:18:52.999Z</time></trkpt><trkpt lat="42.961686615450496" lon="11.213621655890275"><ele>114.66666666666666</ele><time>2026-04-26T16:18:53.999Z</time></trkpt><trkpt lat="42.96165952031115" lon="11.21388424096156"><ele>111.0</ele><time>2026-04-26T16:18:54.999Z</time></trkpt><trkpt lat="42.96163108934759" lon="11.214152304593622"><ele>111.0</ele><time>2026-04-26T16:18:55.999Z</time></trkpt><trkpt lat="42.961600755189735" lon="11.214406423032377"><ele>111.0</ele><time>2026-04-26T16:18:56.999Z</time></trkpt><trkpt lat="42.961563528534484" lon="11.214669676513655"><ele>111.0</ele><time>2026-04-26T16:18:57.999Z</time></trkpt><trkpt lat="42.96152223109127" lon="11.214937980201995"><ele>111.66666666666666</ele><time>2026-04-26T16:18:58.999Z</time></trkpt><trkpt lat="42.9614798607306" lon="11.215203654620014"><ele>112.33333333333333</ele><time>2026-04-26T16:18:59.999Z</time></trkpt><trkpt lat="42.96143692448917" lon="11.215472877909999"><ele>113.0</ele><time>2026-04-26T16:19:00.999Z</time></trkpt><trkpt lat="42.96139410994378" lon="11.215741338020838"><ele>113.0</ele><time>2026-04-26T16:19:01.999Z</time></trkpt><trkpt lat="42.961351149883725" lon="11.21601071017367"><ele>113.0</ele><time>2026-04-26T16:19:02.999Z</time></trkpt><trkpt lat="42.96130835364408" lon="11.216283528945317"><ele>113.0</ele><time>2026-04-26T16:19:03.999Z</time></trkpt><trkpt lat="42.961264609263715" lon="11.21656257424239"><ele>113.0</ele><time>2026-04-26T16:19:04.999Z</time></trkpt><trkpt lat="42.96122009764282" lon="11.216843656470093"><ele>113.0</ele><time>2026-04-26T16:19:05.999Z</time></trkpt><trkpt lat="42.96117664612315" lon="11.217117832074681"><ele>113.0</ele><time>2026-04-26T16:19:06.999Z</time></trkpt><trkpt lat="42.96113254902107" lon="11.21739734385533"><ele>112.66666666666666</ele><time>2026-04-26T16:19:07.999Z</time></trkpt><trkpt lat="42.96108738083303" lon="11.217683645736068"><ele>112.33333333333334</ele><time>2026-04-26T16:19:08.999Z</time></trkpt><trkpt lat="42.96104263590074" lon="11.217970782253852"><ele>112.0</ele><time>2026-04-26T16:19:09.999Z</time></trkpt><trkpt lat="42.96099992937761" lon="11.21826440169911"><ele>113.0</ele><time>2026-04-26T16:19:10.999Z</time></trkpt><trkpt lat="42.96095767946503" lon="11.218557303305337"><ele>114.0</ele><time>2026-04-26T16:19:11.999Z</time></trkpt><trkpt lat="42.96091844525385" lon="11.218850444752576"><ele>115.0</ele><time>2026-04-26T16:19:12.999Z</time></trkpt><trkpt lat="42.96087956212075" lon="11.219140963090641"><ele>113.33333333333334</ele><time>2026-04-26T16:19:13.999Z</time></trkpt><trkpt lat="42.96085560765102" lon="11.219438234343043"><ele>111.66666666666666</ele><time>2026-04-26T16:19:14.999Z</time></trkpt><trkpt lat="42.96081196375693" lon="11.219735084927107"><ele>110.0</ele><time>2026-04-26T16:19:15.999Z</time></trkpt><trkpt lat="42.960772038704576" lon="11.220026228339478"><ele>110.0</ele><time>2026-04-26T16:19:16.999Z</time></trkpt><trkpt lat="42.96072909746896" lon="11.22031939995055"><ele>110.0</ele><time>2026-04-26T16:19:17.999Z</time></trkpt><trkpt lat="42.960685867275004" lon="11.220614519250997"><ele>110.0</ele><time>2026-04-26T16:19:18.999Z</time></trkpt><trkpt lat="42.96063593776317" lon="11.22090897023538"><ele>110.33333333333333</ele><time>2026-04-26T16:19:19.999Z</time></trkpt><trkpt lat="42.96058216098741" lon="11.221200143818217"><ele>110.66666666666666</ele><time>2026-04-26T16:19:20.999Z</time></trkpt><trkpt lat="42.96052906502201" lon="11.221493574532941"><ele>111.0</ele><time>2026-04-26T16:19:21.999Z</time></trkpt><trkpt lat="42.960465342230265" lon="11.221781402050931"><ele>111.66666666666666</ele><time>2026-04-26T16:19:22.999Z</time></trkpt><trkpt lat="42.960403111807516" lon="11.222073149398595"><ele>112.33333333333333</ele><time>2026-04-26T16:19:23.999Z</time></trkpt><trkpt lat="42.96033494630456" lon="11.222358969295819"><ele>113.0</ele><time>2026-04-26T16:19:24.999Z</time></trkpt><trkpt lat="42.960267974581974" lon="11.222639416808317"><ele>113.66666666666666</ele><time>2026-04-26T16:19:25.999Z</time></trkpt><trkpt lat="42.96020016929823" lon="11.222923787015898"><ele>114.33333333333334</ele><time>2026-04-26T16:19:26.999Z</time></trkpt><trkpt lat="42.96013415382842" lon="11.223208487137374"><ele>115.0</ele><time>2026-04-26T16:19:27.999Z</time></trkpt><trkpt lat="42.96006858622173" lon="11.22349419813597"><ele>113.33333333333334</ele><time>2026-04-26T16:19:28.999Z</time></trkpt><trkpt lat="42.96000221380109" lon="11.223784377288704"><ele>111.66666666666666</ele><time>2026-04-26T16:19:29.999Z</time></trkpt><trkpt lat="42.95993830853904" lon="11.224076816723553"><ele>110.0</ele><time>2026-04-26T16:19:30.999Z</time></trkpt><trkpt lat="42.959874368430285" lon="11.224361837259627"><ele>110.0</ele><time>2026-04-26T16:19:31.999Z</time></trkpt><trkpt lat="42.95981696644272" lon="11.224652780417713"><ele>110.0</ele><time>2026-04-26T16:19:32.999Z</time></trkpt><trkpt lat="42.95975662565185" lon="11.22494400765356"><ele>110.0</ele><time>2026-04-26T16:19:33.999Z</time></trkpt><trkpt lat="42.95969596502789" lon="11.225234700604043"><ele>110.33333333333333</ele><time>2026-04-26T16:19:34.999Z</time></trkpt><trkpt lat="42.95963746930749" lon="11.225525318432494"><ele>110.66666666666666</ele><time>2026-04-26T16:19:35.998Z</time></trkpt><trkpt lat="42.9595756986797" lon="11.225816000915877"><ele>111.0</ele><time>2026-04-26T16:19:36.998Z</time></trkpt><trkpt lat="42.95951725661647" lon="11.226104869737535"><ele>112.33333333333334</ele><time>2026-04-26T16:19:37.998Z</time></trkpt><trkpt lat="42.959459593221595" lon="11.22639210798482"><ele>113.66666666666667</ele><time>2026-04-26T16:19:38.998Z</time></trkpt><trkpt lat="42.95940220602209" lon="11.226680052917123"><ele>115.0</ele><time>2026-04-26T16:19:39.998Z</time></trkpt><trkpt lat="42.959348607499436" lon="11.226967740853055"><ele>117.33333333333334</ele><time>2026-04-26T16:19:40.998Z</time></trkpt><trkpt lat="42.9593002760314" lon="11.227258741821014"><ele>119.66666666666666</ele><time>2026-04-26T16:19:41.998Z</time></trkpt><trkpt lat="42.95925306042894" lon="11.22755169000627"><ele>122.0</ele><time>2026-04-26T16:19:42.998Z</time></trkpt><trkpt lat="42.95920514862541" lon="11.227845221423928"><ele>118.33333333333333</ele><time>2026-04-26T16:19:43.998Z</time></trkpt><trkpt lat="42.95915777414546" lon="11.228145625027247"><ele>114.66666666666666</ele><time>2026-04-26T16:19:44.998Z</time></trkpt><trkpt lat="42.9591062911154" lon="11.228442212991517"><ele>111.0</ele><time>2026-04-26T16:19:45.998Z</time></trkpt><trkpt lat="42.95904761486444" lon="11.228727479676868"><ele>111.66666666666666</ele><time>2026-04-26T16:19:46.998Z</time></trkpt><trkpt lat="42.9589771656874" lon="11.229008563500585"><ele>112.33333333333333</ele><time>2026-04-26T16:19:47.998Z</time></trkpt><trkpt lat="42.95890933880361" lon="11.22929853996526"><ele>113.0</ele><time>2026-04-26T16:19:48.998Z</time></trkpt><trkpt lat="42.95883924691496" lon="11.229597251265012"><ele>113.33333333333333</ele><time>2026-04-26T16:19:49.998Z</time></trkpt><trkpt lat="42.95876960785079" lon="11.22988243450512"><ele>113.66666666666666</ele><time>2026-04-26T16:19:50.998Z</time></trkpt><trkpt lat="42.95870561450952" lon="11.23016752083478"><ele>114.0</ele><time>2026-04-26T16:19:51.998Z</time></trkpt><trkpt lat="42.95863943852908" lon="11.230437964034921"><ele>114.66666666666666</ele><time>2026-04-26T16:19:52.998Z</time></trkpt><trkpt lat="42.95857116939861" lon="11.230708449629384"><ele>115.33333333333333</ele><time>2026-04-26T16:19:53.998Z</time></trkpt><trkpt lat="42.9584983890322" lon="11.230971724271871"><ele>116.0</ele><time>2026-04-26T16:19:54.998Z</time></trkpt><trkpt lat="42.95842583065125" lon="11.23120832142424"><ele>116.0</ele><time>2026-04-26T16:19:55.998Z</time></trkpt><trkpt lat="42.95837274840965" lon="11.231437391484468"><ele>116.0</ele><time>2026-04-26T16:19:57Z</time></trkpt><trkpt lat="42.958319573328694" lon="11.231680269245546"><ele>116.0</ele><time>2026-04-26T16:19:58Z</time></trkpt><trkpt lat="42.9583492189038" lon="11.23194357000354"><ele>112.0</ele><time>2026-04-26T16:19:59Z</time></trkpt><trkpt lat="42.958391254192925" lon="11.232195553946422"><ele>108.0</ele><time>2026-04-26T16:20:00Z</time></trkpt><trkpt lat="42.95844306341976" lon="11.232433069471384"><ele>104.0</ele><time>2026-04-26T16:20:01Z</time></trkpt><trkpt lat="42.95849250326772" lon="11.232681496187984"><ele>100.33333333333333</ele><time>2026-04-26T16:20:02Z</time></trkpt><trkpt lat="42.958525904657485" lon="11.232921479928857"><ele>96.66666666666666</ele><time>2026-04-26T16:20:03Z</time></trkpt><trkpt lat="42.95851202447674" lon="11.233150838751921"><ele>93.0</ele><time>2026-04-26T16:20:04Z</time></trkpt><trkpt lat="42.95853079971339" lon="11.23335936956681"><ele>92.33333333333333</ele><time>2026-04-26T16:20:05Z</time></trkpt><trkpt lat="42.958488053153076" lon="11.233577692156876"><ele>91.66666666666666</ele><time>2026-04-26T16:20:06Z</time></trkpt><trkpt lat="42.958387114975416" lon="11.233791795133833"><ele>91.0</ele><time>2026-04-26T16:20:07Z</time></trkpt><trkpt lat="42.958293038021324" lon="11.234027964135224"><ele>91.0</ele><time>2026-04-26T16:20:08Z</time></trkpt><trkpt lat="42.95819925529334" lon="11.234253591033413"><ele>91.0</ele><time>2026-04-26T16:20:09Z</time></trkpt><trkpt lat="42.95811012286191" lon="11.23446919795857"><ele>91.0</ele><time>2026-04-26T16:20:10Z</time></trkpt><trkpt lat="42.95801578351799" lon="11.234657702746718"><ele>91.0</ele><time>2026-04-26T16:20:11Z</time></trkpt><trkpt lat="42.957904626211004" lon="11.234794062626799"><ele>91.0</ele><time>2026-04-26T16:20:12Z</time></trkpt><trkpt lat="42.957779844893324" lon="11.234886494005169"><ele>91.0</ele><time>2026-04-26T16:20:13Z</time></trkpt><trkpt lat="42.95765926261785" lon="11.234945608332826"><ele>91.0</ele><time>2026-04-26T16:20:14Z</time></trkpt><trkpt lat="42.95755408082123" lon="11.234975081701062"><ele>90.75</ele><time>2026-04-26T16:20:15Z</time></trkpt><trkpt lat="42.957438920362684" lon="11.235020639014056"><ele>90.5</ele><time>2026-04-26T16:20:16Z</time></trkpt><trkpt lat="42.95733404832125" lon="11.23507346557846"><ele>90.25</ele><time>2026-04-26T16:20:17Z</time></trkpt><trkpt lat="42.95722495123943" lon="11.235157786240743"><ele>90.0</ele><time>2026-04-26T16:20:18Z</time></trkpt><trkpt lat="42.957128466202406" lon="11.235273488471243"><ele>90.0</ele><time>2026-04-26T16:20:19Z</time></trkpt><trkpt lat="42.957039405494335" lon="11.235414153185042"><ele>90.0</ele><time>2026-04-26T16:20:20Z</time></trkpt><trkpt lat="42.956979737761785" lon="11.23554026974103"><ele>90.0</ele><time>2026-04-26T16:20:21Z</time></trkpt><trkpt lat="42.95689525800263" lon="11.235706193286143"><ele>90.0</ele><time>2026-04-26T16:20:22Z</time></trkpt><trkpt lat="42.95679872485458" lon="11.23590109405148"><ele>89.33333333333333</ele><time>2026-04-26T16:20:23Z</time></trkpt><trkpt lat="42.95669974086645" lon="11.236100626585406"><ele>88.66666666666666</ele><time>2026-04-26T16:20:24Z</time></trkpt><trkpt lat="42.95660096958746" lon="11.236299730923498"><ele>88.0</ele><time>2026-04-26T16:20:25Z</time></trkpt><trkpt lat="42.95649710366194" lon="11.236509105045657"><ele>87.66666666666666</ele><time>2026-04-26T16:20:26Z</time></trkpt><trkpt lat="42.95639670544503" lon="11.236749571773599"><ele>87.33333333333333</ele><time>2026-04-26T16:20:27Z</time></trkpt><trkpt lat="42.95627322567945" lon="11.236977552044324"><ele>87.0</ele><time>2026-04-26T16:20:28Z</time></trkpt><trkpt lat="42.95615843732571" lon="11.237204461645542"><ele>86.33333333333333</ele><time>2026-04-26T16:20:29Z</time></trkpt><trkpt lat="42.95604467319656" lon="11.237423544340725"><ele>85.66666666666666</ele><time>2026-04-26T16:20:30Z</time></trkpt><trkpt lat="42.95591370832689" lon="11.237630480598781"><ele>85.0</ele><time>2026-04-26T16:20:31Z</time></trkpt><trkpt lat="42.95575705576868" lon="11.23779705553489"><ele>84.66666666666666</ele><time>2026-04-26T16:20:32Z</time></trkpt><trkpt lat="42.95558764540186" lon="11.23790800071521"><ele>84.33333333333333</ele><time>2026-04-26T16:20:33Z</time></trkpt><trkpt lat="42.95543439265465" lon="11.238000381930672"><ele>84.0</ele><time>2026-04-26T16:20:34Z</time></trkpt><trkpt lat="42.955266491193925" lon="11.238147776342151"><ele>84.33333333333333</ele><time>2026-04-26T16:20:35Z</time></trkpt><trkpt lat="42.955129177784684" lon="11.238304097887859"><ele>84.66666666666666</ele><time>2026-04-26T16:20:36Z</time></trkpt><trkpt lat="42.955015156161416" lon="11.238493673412338"><ele>85.0</ele><time>2026-04-26T16:20:37Z</time></trkpt><trkpt lat="42.95489011425147" lon="11.238702957333325"><ele>85.0</ele><time>2026-04-26T16:20:38Z</time></trkpt><trkpt lat="42.95476095942102" lon="11.238916695415675"><ele>85.0</ele><time>2026-04-26T16:20:39Z</time></trkpt><trkpt lat="42.954636583129655" lon="11.239115925556813"><ele>85.0</ele><time>2026-04-26T16:20:40Z</time></trkpt><trkpt lat="42.9545233994875" lon="11.239315521606425"><ele>84.66666666666666</ele><time>2026-04-26T16:20:41Z</time></trkpt><trkpt lat="42.954407021483064" lon="11.239518308288757"><ele>84.33333333333333</ele><time>2026-04-26T16:20:42Z</time></trkpt><trkpt lat="42.95428545756777" lon="11.239723626580135"><ele>84.0</ele><time>2026-04-26T16:20:43Z</time></trkpt><trkpt lat="42.95415557636934" lon="11.239934922130912"><ele>85.0</ele><time>2026-04-26T16:20:44Z</time></trkpt><trkpt lat="42.95401933539119" lon="11.240145132019547"><ele>86.0</ele><time>2026-04-26T16:20:45Z</time></trkpt><trkpt lat="42.9538861933174" lon="11.240361037804222"><ele>87.0</ele><time>2026-04-26T16:20:46Z</time></trkpt><trkpt lat="42.95375267114458" lon="11.240584447102835"><ele>86.33333333333333</ele><time>2026-04-26T16:20:47Z</time></trkpt><trkpt lat="42.95361343572649" lon="11.240810107149834"><ele>85.66666666666666</ele><time>2026-04-26T16:20:48Z</time></trkpt><trkpt lat="42.953469816560464" lon="11.241034486889703"><ele>85.0</ele><time>2026-04-26T16:20:49Z</time></trkpt><trkpt lat="42.95333042685047" lon="11.241258455943763"><ele>84.66666666666666</ele><time>2026-04-26T16:20:50Z</time></trkpt><trkpt lat="42.95319183866208" lon="11.241482834017612"><ele>84.33333333333333</ele><time>2026-04-26T16:20:50.999Z</time></trkpt><trkpt lat="42.95305604265471" lon="11.241709015848382"><ele>84.0</ele><time>2026-04-26T16:20:51.999Z</time></trkpt><trkpt lat="42.95292304371124" lon="11.241934808693596"><ele>84.0</ele><time>2026-04-26T16:20:52.999Z</time></trkpt><trkpt lat="42.95278853674167" lon="11.242155943160627"><ele>84.0</ele><time>2026-04-26T16:20:53.999Z</time></trkpt><trkpt lat="42.95265502602157" lon="11.242360040599456"><ele>84.0</ele><time>2026-04-26T16:20:54.999Z</time></trkpt><trkpt lat="42.95251225377296" lon="11.242541988606018"><ele>85.33333333333333</ele><time>2026-04-26T16:20:55.999Z</time></trkpt><trkpt lat="42.952351967826246" lon="11.242695603773024"><ele>86.66666666666666</ele><time>2026-04-26T16:20:56.999Z</time></trkpt><trkpt lat="42.95218226703348" lon="11.242837821503423"><ele>88.0</ele><time>2026-04-26T16:20:57.999Z</time></trkpt><trkpt lat="42.952008877337896" lon="11.242978562593088"><ele>88.0</ele><time>2026-04-26T16:20:58.999Z</time></trkpt><trkpt lat="42.95183654954666" lon="11.2431247139596"><ele>88.0</ele><time>2026-04-26T16:20:59.999Z</time></trkpt><trkpt lat="42.95166241442752" lon="11.243271005851136"><ele>88.0</ele><time>2026-04-26T16:21:00.999Z</time></trkpt><trkpt lat="42.95148887493938" lon="11.243421104399912"><ele>87.66666666666666</ele><time>2026-04-26T16:21:01.999Z</time></trkpt><trkpt lat="42.951313830683986" lon="11.243570174823612"><ele>87.33333333333333</ele><time>2026-04-26T16:21:02.999Z</time></trkpt><trkpt lat="42.95113663953131" lon="11.243718577612432"><ele>87.0</ele><time>2026-04-26T16:21:03.999Z</time></trkpt><trkpt lat="42.95096294682566" lon="11.243866658398625"><ele>86.66666666666667</ele><time>2026-04-26T16:21:04.999Z</time></trkpt><trkpt lat="42.95079127076509" lon="11.244009702515605"><ele>86.33333333333334</ele><time>2026-04-26T16:21:05.999Z</time></trkpt><trkpt lat="42.95061985793349" lon="11.244158865218688"><ele>86.0</ele><time>2026-04-26T16:21:06.999Z</time></trkpt><trkpt lat="42.950459605749906" lon="11.24430372474249"><ele>86.0</ele><time>2026-04-26T16:21:07.999Z</time></trkpt><trkpt lat="42.95030390281991" lon="11.244448937994648"><ele>86.0</ele><time>2026-04-26T16:21:08.999Z</time></trkpt><trkpt lat="42.95015348498793" lon="11.24459347678792"><ele>86.0</ele><time>2026-04-26T16:21:09.999Z</time></trkpt><trkpt lat="42.950058521272474" lon="11.244826088551322"><ele>85.66666666666667</ele><time>2026-04-26T16:21:10.999Z</time></trkpt><trkpt lat="42.94997207513497" lon="11.245066919139735"><ele>85.33333333333333</ele><time>2026-04-26T16:21:11.999Z</time></trkpt><trkpt lat="42.94989005660713" lon="11.245306029849045"><ele>85.0</ele><time>2026-04-26T16:21:12.999Z</time></trkpt><trkpt lat="42.94981007934675" lon="11.24555475029272"><ele>82.66666666666666</ele><time>2026-04-26T16:21:13.999Z</time></trkpt><trkpt lat="42.94971372263344" lon="11.245795254902681"><ele>80.33333333333333</ele><time>2026-04-26T16:21:14.999Z</time></trkpt><trkpt lat="42.94962721198034" lon="11.24605697764984"><ele>78.0</ele><time>2026-04-26T16:21:15.999Z</time></trkpt><trkpt lat="42.94953447296162" lon="11.246337081991145"><ele>76.5</ele><time>2026-04-26T16:21:16.999Z</time></trkpt><trkpt lat="42.949449027049454" lon="11.246625941042474"><ele>75.0</ele><time>2026-04-26T16:21:17.999Z</time></trkpt><trkpt lat="42.94935078078784" lon="11.246906562897287"><ele>75.0</ele><time>2026-04-26T16:21:18.999Z</time></trkpt><trkpt lat="42.94925133347763" lon="11.247189547182035"><ele>75.0</ele><time>2026-04-26T16:21:19.999Z</time></trkpt><trkpt lat="42.94914912658378" lon="11.247468825247523"><ele>77.33333333333333</ele><time>2026-04-26T16:21:20.999Z</time></trkpt><trkpt lat="42.949056526572356" lon="11.247744694659639"><ele>79.66666666666666</ele><time>2026-04-26T16:21:21.999Z</time></trkpt><trkpt lat="42.94896125629182" lon="11.248001646567694"><ele>82.0</ele><time>2026-04-26T16:21:22.999Z</time></trkpt><trkpt lat="42.94886148937623" lon="11.248254297873071"><ele>82.0</ele><time>2026-04-26T16:21:23.999Z</time></trkpt><trkpt lat="42.948764647787975" lon="11.248506059785276"><ele>82.0</ele><time>2026-04-26T16:21:24.999Z</time></trkpt><trkpt lat="42.94868367147609" lon="11.248778269529684"><ele>82.0</ele><time>2026-04-26T16:21:25.999Z</time></trkpt><trkpt lat="42.94858576991979" lon="11.249027533183423"><ele>81.66666666666666</ele><time>2026-04-26T16:21:26.999Z</time></trkpt><trkpt lat="42.94850825814461" lon="11.249287781479923"><ele>81.33333333333333</ele><time>2026-04-26T16:21:27.999Z</time></trkpt><trkpt lat="42.94836650164432" lon="11.24951961293015"><ele>81.0</ele><time>2026-04-26T16:21:28.999Z</time></trkpt><trkpt lat="42.94824964970794" lon="11.24977465403081"><ele>81.0</ele><time>2026-04-26T16:21:29.999Z</time></trkpt><trkpt lat="42.94809777343194" lon="11.250019484335715"><ele>81.0</ele><time>2026-04-26T16:21:30.999Z</time></trkpt><trkpt lat="42.94795360433245" lon="11.25026241472449"><ele>81.0</ele><time>2026-04-26T16:21:31.999Z</time></trkpt><trkpt lat="42.94781694691909" lon="11.25051736215776"><ele>81.0</ele><time>2026-04-26T16:21:32.999Z</time></trkpt><trkpt lat="42.94767296593135" lon="11.250768058206798"><ele>80.0</ele><time>2026-04-26T16:21:33.999Z</time></trkpt><trkpt lat="42.947537791229074" lon="11.251031854517748"><ele>79.0</ele><time>2026-04-26T16:21:34.999Z</time></trkpt><trkpt lat="42.947399695245586" lon="11.251283224240137"><ele>77.0</ele><time>2026-04-26T16:21:35.999Z</time></trkpt><trkpt lat="42.94726010337245" lon="11.251527059370188"><ele>75.0</ele><time>2026-04-26T16:21:36.999Z</time></trkpt><trkpt lat="42.94711859428127" lon="11.251762718475131"><ele>75.0</ele><time>2026-04-26T16:21:37.999Z</time></trkpt><trkpt lat="42.94697523554542" lon="11.252000527123753"><ele>75.0</ele><time>2026-04-26T16:21:38.999Z</time></trkpt><trkpt lat="42.94683242173864" lon="11.252238016903123"><ele>78.5</ele><time>2026-04-26T16:21:39.999Z</time></trkpt><trkpt lat="42.94669156743208" lon="11.252480355578319"><ele>82.0</ele><time>2026-04-26T16:21:40.999Z</time></trkpt><trkpt lat="42.94655782510508" lon="11.25273139287958"><ele>82.0</ele><time>2026-04-26T16:21:41.999Z</time></trkpt><trkpt lat="42.94643860088496" lon="11.252997806417904"><ele>82.0</ele><time>2026-04-26T16:21:42.999Z</time></trkpt><trkpt lat="42.94632855924521" lon="11.253277374318857"><ele>78.0</ele><time>2026-04-26T16:21:43.999Z</time></trkpt><trkpt lat="42.94623795104736" lon="11.253561172217147"><ele>74.0</ele><time>2026-04-26T16:21:44.999Z</time></trkpt><trkpt lat="42.946121911869184" lon="11.253835301270092"><ele>73.5</ele><time>2026-04-26T16:21:45.998Z</time></trkpt><trkpt lat="42.94599265213603" lon="11.254102235840747"><ele>73.0</ele><time>2026-04-26T16:21:46.998Z</time></trkpt><trkpt lat="42.945849848592" lon="11.25435733337772"><ele>74.0</ele><time>2026-04-26T16:21:47.998Z</time></trkpt><trkpt lat="42.94569870198184" lon="11.254592404821311"><ele>75.0</ele><time>2026-04-26T16:21:48.998Z</time></trkpt><trkpt lat="42.94555551339347" lon="11.254837575357913"><ele>75.0</ele><time>2026-04-26T16:21:49.998Z</time></trkpt><trkpt lat="42.94542379650118" lon="11.255085532371782"><ele>75.0</ele><time>2026-04-26T16:21:50.998Z</time></trkpt><trkpt lat="42.945307645436635" lon="11.255353895127623"><ele>75.0</ele><time>2026-04-26T16:21:51.998Z</time></trkpt><trkpt lat="42.945205842087994" lon="11.255635156818371"><ele>75.0</ele><time>2026-04-26T16:21:52.998Z</time></trkpt><trkpt lat="42.94511282237275" lon="11.255923175251024"><ele>75.0</ele><time>2026-04-26T16:21:53.998Z</time></trkpt><trkpt lat="42.94501318589861" lon="11.256209896904355"><ele>75.0</ele><time>2026-04-26T16:21:54.998Z</time></trkpt><trkpt lat="42.94490742307714" lon="11.256483971213356"><ele>75.0</ele><time>2026-04-26T16:21:55.998Z</time></trkpt><trkpt lat="42.94478447994901" lon="11.256743277165372"><ele>75.0</ele><time>2026-04-26T16:21:56.998Z</time></trkpt><trkpt lat="42.944643474912105" lon="11.256983636273425"><ele>75.0</ele><time>2026-04-26T16:21:57.998Z</time></trkpt><trkpt lat="42.9444889103126" lon="11.257203806510585"><ele>75.0</ele><time>2026-04-26T16:21:58.998Z</time></trkpt><trkpt lat="42.944314952017116" lon="11.257392725134006"><ele>75.0</ele><time>2026-04-26T16:21:59.998Z</time></trkpt><trkpt lat="42.944123917522155" lon="11.257563203933211"><ele>79.5</ele><time>2026-04-26T16:22:00.998Z</time></trkpt><trkpt lat="42.943930836639126" lon="11.257714545567552"><ele>84.0</ele><time>2026-04-26T16:22:01.998Z</time></trkpt><trkpt lat="42.94373036434677" lon="11.257873821457247"><ele>84.0</ele><time>2026-04-26T16:22:03Z</time></trkpt><trkpt lat="42.94353412725966" lon="11.25804658301264"><ele>84.0</ele><time>2026-04-26T16:22:04Z</time></trkpt><trkpt lat="42.943341772378034" lon="11.258215772616904"><ele>85.0</ele><time>2026-04-26T16:22:05Z</time></trkpt><trkpt lat="42.943145734731885" lon="11.258373715152917"><ele>86.0</ele><time>2026-04-26T16:22:06Z</time></trkpt><trkpt lat="42.94295543538215" lon="11.258509295756495"><ele>87.0</ele><time>2026-04-26T16:22:07Z</time></trkpt><trkpt lat="42.942767597078856" lon="11.258649647490062"><ele>87.0</ele><time>2026-04-26T16:22:08Z</time></trkpt><trkpt lat="42.94257912157071" lon="11.258801035335484"><ele>87.0</ele><time>2026-04-26T16:22:09Z</time></trkpt><trkpt lat="42.94238956311761" lon="11.258953413861537"><ele>87.0</ele><time>2026-04-26T16:22:10Z</time></trkpt><trkpt lat="42.94220266438146" lon="11.25910628317882"><ele>88.66666666666667</ele><time>2026-04-26T16:22:11Z</time></trkpt><trkpt lat="42.942014050576255" lon="11.259261437596658"><ele>90.33333333333334</ele><time>2026-04-26T16:22:12Z</time></trkpt><trkpt lat="42.94182176860443" lon="11.25941275565142"><ele>92.0</ele><time>2026-04-26T16:22:13Z</time></trkpt><trkpt lat="42.941627840922315" lon="11.259557351581103"><ele>93.0</ele><time>2026-04-26T16:22:14Z</time></trkpt><trkpt lat="42.94143695221753" lon="11.259709980649557"><ele>94.0</ele><time>2026-04-26T16:22:15Z</time></trkpt><trkpt lat="42.94124818740564" lon="11.259864107616464"><ele>95.0</ele><time>2026-04-26T16:22:16Z</time></trkpt><trkpt lat="42.941071086803255" lon="11.260012340931498"><ele>95.0</ele><time>2026-04-26T16:22:17Z</time></trkpt><trkpt lat="42.940889882385534" lon="11.26016680874766"><ele>95.0</ele><time>2026-04-26T16:22:18Z</time></trkpt><trkpt lat="42.94070768825768" lon="11.260318011428216"><ele>95.0</ele><time>2026-04-26T16:22:19Z</time></trkpt><trkpt lat="42.9405241907489" lon="11.260462547968835"><ele>94.0</ele><time>2026-04-26T16:22:20Z</time></trkpt><trkpt lat="42.940346998668296" lon="11.260614184770933"><ele>93.0</ele><time>2026-04-26T16:22:21Z</time></trkpt><trkpt lat="42.94019452035273" lon="11.260804724243679"><ele>92.0</ele><time>2026-04-26T16:22:22Z</time></trkpt><trkpt lat="42.94006140646853" lon="11.261035851947733"><ele>89.33333333333334</ele><time>2026-04-26T16:22:23Z</time></trkpt><trkpt lat="42.93994524528882" lon="11.261282351005475"><ele>86.66666666666667</ele><time>2026-04-26T16:22:24Z</time></trkpt><trkpt lat="42.939846154003554" lon="11.261530186440472"><ele>84.0</ele><time>2026-04-26T16:22:25Z</time></trkpt><trkpt lat="42.9397425369978" lon="11.261794165358681"><ele>82.33333333333333</ele><time>2026-04-26T16:22:26Z</time></trkpt><trkpt lat="42.93964205141015" lon="11.26204545380506"><ele>80.66666666666666</ele><time>2026-04-26T16:22:27Z</time></trkpt><trkpt lat="42.93952778675735" lon="11.262283678220072"><ele>79.0</ele><time>2026-04-26T16:22:28Z</time></trkpt><trkpt lat="42.93941066178058" lon="11.262510490015854"><ele>78.33333333333333</ele><time>2026-04-26T16:22:29Z</time></trkpt><trkpt lat="42.93927744443443" lon="11.262714994680788"><ele>77.66666666666667</ele><time>2026-04-26T16:22:30Z</time></trkpt><trkpt lat="42.93910798413425" lon="11.262877132627505"><ele>77.0</ele><time>2026-04-26T16:22:31Z</time></trkpt><trkpt lat="42.938924100963256" lon="11.263008623563932"><ele>77.33333333333334</ele><time>2026-04-26T16:22:32Z</time></trkpt><trkpt lat="42.93873735440726" lon="11.263141513710494"><ele>77.66666666666667</ele><time>2026-04-26T16:22:33Z</time></trkpt><trkpt lat="42.93853042227718" lon="11.263230276488567"><ele>78.0</ele><time>2026-04-26T16:22:34Z</time></trkpt><trkpt lat="42.938346422351906" lon="11.26336727633131"><ele>78.0</ele><time>2026-04-26T16:22:35Z</time></trkpt><trkpt lat="42.93817147779758" lon="11.26349816131316"><ele>78.0</ele><time>2026-04-26T16:22:36Z</time></trkpt><trkpt lat="42.93800291319782" lon="11.263624273103105"><ele>78.0</ele><time>2026-04-26T16:22:37Z</time></trkpt><trkpt lat="42.9378401374004" lon="11.263743768320394"><ele>78.0</ele><time>2026-04-26T16:22:38Z</time></trkpt><trkpt lat="42.93768409487345" lon="11.263858568996904"><ele>78.0</ele><time>2026-04-26T16:22:39Z</time></trkpt><trkpt lat="42.937534396495266" lon="11.263974186812579"><ele>78.0</ele><time>2026-04-26T16:22:40Z</time></trkpt><trkpt lat="42.937406848667955" lon="11.264112984793144"><ele>78.0</ele><time>2026-04-26T16:22:41Z</time></trkpt><trkpt lat="42.937305605625475" lon="11.26428576385752"><ele>78.0</ele><time>2026-04-26T16:22:42Z</time></trkpt><trkpt lat="42.937243664615984" lon="11.264497274150614"><ele>78.0</ele><time>2026-04-26T16:22:43Z</time></trkpt><trkpt lat="42.937187139954275" lon="11.264718899056597"><ele>77.33333333333333</ele><time>2026-04-26T16:22:44Z</time></trkpt><trkpt lat="42.93713161986479" lon="11.264938900555896"><ele>76.66666666666666</ele><time>2026-04-26T16:22:45Z</time></trkpt><trkpt lat="42.937087190825096" lon="11.265166096683199"><ele>76.0</ele><time>2026-04-26T16:22:46Z</time></trkpt><trkpt lat="42.93701613202703" lon="11.26538679277446"><ele>76.0</ele><time>2026-04-26T16:22:47Z</time></trkpt><trkpt lat="42.93695722402774" lon="11.265607492672173"><ele>76.0</ele><time>2026-04-26T16:22:48Z</time></trkpt><trkpt lat="42.93690959205385" lon="11.26583023689312"><ele>76.0</ele><time>2026-04-26T16:22:49Z</time></trkpt><trkpt lat="42.9368713068477" lon="11.266014243469371"><ele>75.0</ele><time>2026-04-26T16:22:50Z</time></trkpt><trkpt lat="42.936818709863815" lon="11.26621558547173"><ele>74.0</ele><time>2026-04-26T16:22:51Z</time></trkpt><trkpt lat="42.93676378135416" lon="11.266417031601732"><ele>73.0</ele><time>2026-04-26T16:22:52Z</time></trkpt><trkpt lat="42.936694737341355" lon="11.26660355428887"><ele>72.25</ele><time>2026-04-26T16:22:53Z</time></trkpt><trkpt lat="42.936598266615604" lon="11.26676784486535"><ele>71.5</ele><time>2026-04-26T16:22:54Z</time></trkpt><trkpt lat="42.936456306257305" lon="11.266857445741781"><ele>70.75</ele><time>2026-04-26T16:22:55Z</time></trkpt><trkpt lat="42.9363397287664" lon="11.266941499964593"><ele>70.0</ele><time>2026-04-26T16:22:56Z</time></trkpt><trkpt lat="42.93624103023105" lon="11.266973640866386"><ele>70.0</ele><time>2026-04-26T16:22:56.999Z</time></trkpt><trkpt lat="42.93616476132385" lon="11.266973934697926"><ele>70.0</ele><time>2026-04-26T16:22:57.999Z</time></trkpt><trkpt lat="42.936063351931395" lon="11.266905253091403"><ele>70.0</ele><time>2026-04-26T16:22:59.999Z</time></trkpt><trkpt lat="42.9360007163892" lon="11.266847547509487"><ele>70.0</ele><time>2026-04-26T16:23:00.999Z</time></trkpt><trkpt lat="42.93597300408341" lon="11.26675256967584"><ele>70.0</ele><time>2026-04-26T16:23:01.999Z</time></trkpt><trkpt lat="42.93588168295373" lon="11.266664225220861"><ele>69.0</ele><time>2026-04-26T16:23:02.999Z</time></trkpt><trkpt lat="42.9357833127393" lon="11.266625719853012"><ele>68.0</ele><time>2026-04-26T16:23:03.999Z</time></trkpt><trkpt lat="42.93568181498513" lon="11.266619853109667"><ele>67.0</ele><time>2026-04-26T16:23:04.999Z</time></trkpt><trkpt lat="42.93563069963327" lon="11.266325931920157"><ele>66.0</ele><time>2026-04-26T16:23:06.999Z</time></trkpt><trkpt lat="42.935567633315245" lon="11.26615876097213"><ele>65.75</ele><time>2026-04-26T16:23:07.999Z</time></trkpt><trkpt lat="42.93548182862904" lon="11.266013417594795"><ele>65.5</ele><time>2026-04-26T16:23:08.999Z</time></trkpt><trkpt lat="42.93536753081534" lon="11.265904267605135"><ele>65.25</ele><time>2026-04-26T16:23:09.999Z</time></trkpt><trkpt lat="42.93524492836093" lon="11.265852630124726"><ele>65.0</ele><time>2026-04-26T16:23:10.999Z</time></trkpt><trkpt lat="42.935103786537326" lon="11.265874169120949"><ele>64.33333333333334</ele><time>2026-04-26T16:23:11.999Z</time></trkpt><trkpt lat="42.93497298664927" lon="11.265938196713206"><ele>63.66666666666667</ele><time>2026-04-26T16:23:12.999Z</time></trkpt><trkpt lat="42.934843853668866" lon="11.266039151121047"><ele>63.0</ele><time>2026-04-26T16:23:13.999Z</time></trkpt><trkpt lat="42.93471224316859" lon="11.266184825977227"><ele>63.0</ele><time>2026-04-26T16:23:14.999Z</time></trkpt><trkpt lat="42.9346593473023" lon="11.266243648582483"><ele>63.0</ele><time>2026-04-26T16:23:15.999Z</time></trkpt><trkpt lat="42.93451377600034" lon="11.26637634046788"><ele>63.0</ele><time>2026-04-26T16:23:16.999Z</time></trkpt><trkpt lat="42.934392906138065" lon="11.266539333496832"><ele>63.0</ele><time>2026-04-26T16:23:17.999Z</time></trkpt><trkpt lat="42.93425981569318" lon="11.266706163119947"><ele>62.66666666666667</ele><time>2026-04-26T16:23:18.999Z</time></trkpt><trkpt lat="42.93413919128275" lon="11.26685372164749"><ele>62.333333333333336</ele><time>2026-04-26T16:23:19.999Z</time></trkpt><trkpt lat="42.93399753101049" lon="11.26697059682923"><ele>62.0</ele><time>2026-04-26T16:23:20.999Z</time></trkpt><trkpt lat="42.933848197779774" lon="11.267053031840284"><ele>62.0</ele><time>2026-04-26T16:23:21.999Z</time></trkpt><trkpt lat="42.933688214936375" lon="11.267061689296025"><ele>62.0</ele><time>2026-04-26T16:23:22.999Z</time></trkpt><trkpt lat="42.933548168704704" lon="11.267041069840156"><ele>62.0</ele><time>2026-04-26T16:23:23.999Z</time></trkpt><trkpt lat="42.93341085351091" lon="11.266986347917872"><ele>62.0</ele><time>2026-04-26T16:23:24.999Z</time></trkpt><trkpt lat="42.93328669353421" lon="11.266885739834265"><ele>61.66666666666667</ele><time>2026-04-26T16:23:25.999Z</time></trkpt><trkpt lat="42.93313915409308" lon="11.266734490434011"><ele>61.33333333333333</ele><time>2026-04-26T16:23:26.999Z</time></trkpt><trkpt lat="42.93298349959489" lon="11.266571329945503"><ele>61.0</ele><time>2026-04-26T16:23:27.999Z</time></trkpt><trkpt lat="42.93282045359003" lon="11.266409615315546"><ele>61.0</ele><time>2026-04-26T16:23:28.999Z</time></trkpt><trkpt lat="42.93265340073243" lon="11.266290451970363"><ele>61.0</ele><time>2026-04-26T16:23:29.999Z</time></trkpt><trkpt lat="42.932478213285954" lon="11.26616572828747"><ele>61.0</ele><time>2026-04-26T16:23:30.999Z</time></trkpt><trkpt lat="42.9322995674235" lon="11.266060420598935"><ele>60.0</ele><time>2026-04-26T16:23:31.999Z</time></trkpt><trkpt lat="42.932112740561166" lon="11.265968310997176"><ele>59.0</ele><time>2026-04-26T16:23:32.999Z</time></trkpt><trkpt lat="42.931930065787135" lon="11.265869264133459"><ele>58.0</ele><time>2026-04-26T16:23:33.999Z</time></trkpt><trkpt lat="42.931759269624976" lon="11.26574423324928"><ele>58.666666666666664</ele><time>2026-04-26T16:23:34.999Z</time></trkpt><trkpt lat="42.93162421907053" lon="11.265580919331368"><ele>59.33333333333333</ele><time>2026-04-26T16:23:35.999Z</time></trkpt><trkpt lat="42.931500771340765" lon="11.265410274327522"><ele>60.0</ele><time>2026-04-26T16:23:36.999Z</time></trkpt><trkpt lat="42.93138642182558" lon="11.265215475953898"><ele>60.0</ele><time>2026-04-26T16:23:37.999Z</time></trkpt><trkpt lat="42.931276987096155" lon="11.265011266090031"><ele>60.0</ele><time>2026-04-26T16:23:38.999Z</time></trkpt><trkpt lat="42.931172556564064" lon="11.264807158832696"><ele>60.0</ele><time>2026-04-26T16:23:39.999Z</time></trkpt><trkpt lat="42.93106825202339" lon="11.26460597614849"><ele>61.0</ele><time>2026-04-26T16:23:40.999Z</time></trkpt><trkpt lat="42.93095893591166" lon="11.264415792180204"><ele>62.0</ele><time>2026-04-26T16:23:41.999Z</time></trkpt><trkpt lat="42.93083378660073" lon="11.26426952170306"><ele>63.0</ele><time>2026-04-26T16:23:42.999Z</time></trkpt><trkpt lat="42.93071579180276" lon="11.264171242081089"><ele>64.33333333333333</ele><time>2026-04-26T16:23:43.999Z</time></trkpt><trkpt lat="42.930574524556754" lon="11.264114022045115"><ele>65.66666666666666</ele><time>2026-04-26T16:23:44.999Z</time></trkpt><trkpt lat="42.93041852136345" lon="11.264099623127402"><ele>67.0</ele><time>2026-04-26T16:23:45.999Z</time></trkpt><trkpt lat="42.930254257050585" lon="11.264061990807448"><ele>67.0</ele><time>2026-04-26T16:23:46.999Z</time></trkpt><trkpt lat="42.93008790677306" lon="11.264042038999804"><ele>67.0</ele><time>2026-04-26T16:23:47.999Z</time></trkpt><trkpt lat="42.92991677180663" lon="11.264021132642577"><ele>67.0</ele><time>2026-04-26T16:23:48.999Z</time></trkpt><trkpt lat="42.92975102499798" lon="11.263988999932138"><ele>67.33333333333333</ele><time>2026-04-26T16:23:49.999Z</time></trkpt><trkpt lat="42.929581624196985" lon="11.263958686263186"><ele>67.66666666666667</ele><time>2026-04-26T16:23:50.998Z</time></trkpt><trkpt lat="42.92941398032798" lon="11.26393115613176"><ele>68.0</ele><time>2026-04-26T16:23:51.998Z</time></trkpt><trkpt lat="42.92923863406964" lon="11.26390905322961"><ele>69.33333333333334</ele><time>2026-04-26T16:23:52.998Z</time></trkpt><trkpt lat="42.9290659907193" lon="11.263926566907818"><ele>70.66666666666667</ele><time>2026-04-26T16:23:53.998Z</time></trkpt><trkpt lat="42.92889372858782" lon="11.263963238244923"><ele>72.0</ele><time>2026-04-26T16:23:54.998Z</time></trkpt><trkpt lat="42.9287257426268" lon="11.264026097551861"><ele>72.0</ele><time>2026-04-26T16:23:55.998Z</time></trkpt><trkpt lat="42.92855376928118" lon="11.264114935163839"><ele>72.0</ele><time>2026-04-26T16:23:56.998Z</time></trkpt><trkpt lat="42.92838108306136" lon="11.264205961107132"><ele>72.0</ele><time>2026-04-26T16:23:57.998Z</time></trkpt><trkpt lat="42.928189988504556" lon="11.26426494942589"><ele>71.0</ele><time>2026-04-26T16:23:58.998Z</time></trkpt><trkpt lat="42.92798908062603" lon="11.264330932937195"><ele>70.0</ele><time>2026-04-26T16:23:59.998Z</time></trkpt><trkpt lat="42.927799157268886" lon="11.264353712651209"><ele>69.0</ele><time>2026-04-26T16:24:00.998Z</time></trkpt><trkpt lat="42.927585110916546" lon="11.264352366772643"><ele>67.66666666666667</ele><time>2026-04-26T16:24:01.998Z</time></trkpt><trkpt lat="42.92736914225182" lon="11.26432290606089"><ele>66.33333333333334</ele><time>2026-04-26T16:24:02.998Z</time></trkpt><trkpt lat="42.927149339601144" lon="11.264288815674728"><ele>65.0</ele><time>2026-04-26T16:24:03.998Z</time></trkpt><trkpt lat="42.926940666148646" lon="11.264232316767988"><ele>65.0</ele><time>2026-04-26T16:24:04.998Z</time></trkpt><trkpt lat="42.926745235688614" lon="11.264201363096026"><ele>65.0</ele><time>2026-04-26T16:24:05.998Z</time></trkpt><trkpt lat="42.92656840889902" lon="11.26414717079975"><ele>65.0</ele><time>2026-04-26T16:24:06.998Z</time></trkpt><trkpt lat="42.92640192267664" lon="11.264111575719372"><ele>64.25</ele><time>2026-04-26T16:24:07.998Z</time></trkpt><trkpt lat="42.92626824164852" lon="11.26410329079758"><ele>63.5</ele><time>2026-04-26T16:24:09Z</time></trkpt><trkpt lat="42.92614179379566" lon="11.264158840641965"><ele>62.75</ele><time>2026-04-26T16:24:10Z</time></trkpt><trkpt lat="42.92606088784271" lon="11.26429628499573"><ele>62.0</ele><time>2026-04-26T16:24:11Z</time></trkpt><trkpt lat="42.92596523602118" lon="11.264415177736904"><ele>62.25</ele><time>2026-04-26T16:24:12Z</time></trkpt><trkpt lat="42.92585311477183" lon="11.264505510063712"><ele>62.5</ele><time>2026-04-26T16:24:13Z</time></trkpt><trkpt lat="42.92570370843291" lon="11.264491238276065"><ele>62.75</ele><time>2026-04-26T16:24:14Z</time></trkpt><trkpt lat="42.92555394761158" lon="11.264439651048372"><ele>63.0</ele><time>2026-04-26T16:24:15Z</time></trkpt><trkpt lat="42.925394693250944" lon="11.264367195102443"><ele>63.0</ele><time>2026-04-26T16:24:16Z</time></trkpt><trkpt lat="42.925226795506944" lon="11.264325634943662"><ele>63.0</ele><time>2026-04-26T16:24:17Z</time></trkpt><trkpt lat="42.92505466412872" lon="11.26423454306856"><ele>63.0</ele><time>2026-04-26T16:24:18Z</time></trkpt><trkpt lat="42.924875027900356" lon="11.264155857081018"><ele>62.66666666666667</ele><time>2026-04-26T16:24:19Z</time></trkpt><trkpt lat="42.924683918062634" lon="11.264064770925849"><ele>62.333333333333336</ele><time>2026-04-26T16:24:20Z</time></trkpt><trkpt lat="42.924500445806565" lon="11.263956200187135"><ele>62.0</ele><time>2026-04-26T16:24:21Z</time></trkpt><trkpt lat="42.92432138037606" lon="11.263836259314443"><ele>61.333333333333336</ele><time>2026-04-26T16:24:22Z</time></trkpt><trkpt lat="42.92414553155359" lon="11.263702332809617"><ele>60.66666666666667</ele><time>2026-04-26T16:24:23Z</time></trkpt><trkpt lat="42.92396715481505" lon="11.263551482129213"><ele>60.0</ele><time>2026-04-26T16:24:24Z</time></trkpt><trkpt lat="42.92378689450356" lon="11.263381890442256"><ele>60.0</ele><time>2026-04-26T16:24:25Z</time></trkpt><trkpt lat="42.923600732384216" lon="11.263226843679076"><ele>60.0</ele><time>2026-04-26T16:24:26Z</time></trkpt><trkpt lat="42.9234225676622" lon="11.263039815949032"><ele>60.0</ele><time>2026-04-26T16:24:27Z</time></trkpt><trkpt lat="42.923242031879205" lon="11.262847933630386"><ele>58.0</ele><time>2026-04-26T16:24:28Z</time></trkpt><trkpt lat="42.92306103085342" lon="11.262655135591743"><ele>56.0</ele><time>2026-04-26T16:24:29Z</time></trkpt><trkpt lat="42.92287714127005" lon="11.262460841074383"><ele>56.0</ele><time>2026-04-26T16:24:30Z</time></trkpt><trkpt lat="42.92268917300188" lon="11.262267111059549"><ele>56.0</ele><time>2026-04-26T16:24:31Z</time></trkpt><trkpt lat="42.922500142688534" lon="11.262070069205624"><ele>56.0</ele><time>2026-04-26T16:24:32Z</time></trkpt><trkpt lat="42.92230872695088" lon="11.261867619644514"><ele>56.0</ele><time>2026-04-26T16:24:33Z</time></trkpt><trkpt lat="42.922116870937494" lon="11.261663536845935"><ele>56.0</ele><time>2026-04-26T16:24:34Z</time></trkpt><trkpt lat="42.92192341686353" lon="11.261457079879827"><ele>56.0</ele><time>2026-04-26T16:24:35Z</time></trkpt><trkpt lat="42.921729053380226" lon="11.261253004949415"><ele>56.0</ele><time>2026-04-26T16:24:36Z</time></trkpt><trkpt lat="42.92153147778342" lon="11.261047791151404"><ele>56.0</ele><time>2026-04-26T16:24:37Z</time></trkpt><trkpt lat="42.921338222004216" lon="11.260845097632863"><ele>56.0</ele><time>2026-04-26T16:24:38Z</time></trkpt><trkpt lat="42.921142470314976" lon="11.260638752257758"><ele>56.0</ele><time>2026-04-26T16:24:39Z</time></trkpt><trkpt lat="42.9209452743426" lon="11.260430368881918"><ele>56.5</ele><time>2026-04-26T16:24:40Z</time></trkpt><trkpt lat="42.920749977440636" lon="11.260228880445899"><ele>57.0</ele><time>2026-04-26T16:24:41Z</time></trkpt><trkpt lat="42.920555029013585" lon="11.260028543825703"><ele>57.0</ele><time>2026-04-26T16:24:42Z</time></trkpt><trkpt lat="42.92037036549705" lon="11.259838160540925"><ele>57.0</ele><time>2026-04-26T16:24:43Z</time></trkpt><trkpt lat="42.92019485576714" lon="11.259658089381483"><ele>57.33333333333333</ele><time>2026-04-26T16:24:44Z</time></trkpt><trkpt lat="42.92003957366881" lon="11.25947860827337"><ele>57.666666666666664</ele><time>2026-04-26T16:24:45Z</time></trkpt><trkpt lat="42.919898308590454" lon="11.259293308949056"><ele>58.0</ele><time>2026-04-26T16:24:46Z</time></trkpt><trkpt lat="42.91978380990396" lon="11.25907853560502"><ele>58.666666666666664</ele><time>2026-04-26T16:24:47Z</time></trkpt><trkpt lat="42.91969257920941" lon="11.258846193097964"><ele>59.33333333333333</ele><time>2026-04-26T16:24:48Z</time></trkpt><trkpt lat="42.91961223737881" lon="11.258610837998503"><ele>60.0</ele><time>2026-04-26T16:24:49Z</time></trkpt><trkpt lat="42.919524359155" lon="11.258392513947399"><ele>60.0</ele><time>2026-04-26T16:24:50Z</time></trkpt><trkpt lat="42.919425932862694" lon="11.258196976722791"><ele>60.0</ele><time>2026-04-26T16:24:51Z</time></trkpt><trkpt lat="42.919309365289074" lon="11.258011302361458"><ele>60.0</ele><time>2026-04-26T16:24:52Z</time></trkpt><trkpt lat="42.91916696631255" lon="11.257843302919884"><ele>59.66666666666667</ele><time>2026-04-26T16:24:53Z</time></trkpt><trkpt lat="42.91901423759822" lon="11.25768561576383"><ele>59.333333333333336</ele><time>2026-04-26T16:24:54Z</time></trkpt><trkpt lat="42.918859711614786" lon="11.257526146002382"><ele>59.0</ele><time>2026-04-26T16:24:55Z</time></trkpt><trkpt lat="42.918707598094116" lon="11.257363164708005"><ele>59.66666666666667</ele><time>2026-04-26T16:24:56Z</time></trkpt><trkpt lat="42.918552645241846" lon="11.257209487551666"><ele>60.33333333333333</ele><time>2026-04-26T16:24:57Z</time></trkpt><trkpt lat="42.9183871087693" lon="11.257074037804253"><ele>61.0</ele><time>2026-04-26T16:24:58Z</time></trkpt><trkpt lat="42.91821651550461" lon="11.256955618304247"><ele>61.33333333333333</ele><time>2026-04-26T16:24:59Z</time></trkpt><trkpt lat="42.91804567679639" lon="11.256839602414718"><ele>61.66666666666667</ele><time>2026-04-26T16:25:00Z</time></trkpt><trkpt lat="42.91787864284489" lon="11.256718104647078"><ele>62.0</ele><time>2026-04-26T16:25:01Z</time></trkpt><trkpt lat="42.917712130588946" lon="11.256595255701203"><ele>63.333333333333336</ele><time>2026-04-26T16:25:02Z</time></trkpt><trkpt lat="42.917550577888285" lon="11.256469432987135"><ele>64.66666666666667</ele><time>2026-04-26T16:25:03Z</time></trkpt><trkpt lat="42.91739506675776" lon="11.256326996025125"><ele>66.0</ele><time>2026-04-26T16:25:04Z</time></trkpt><trkpt lat="42.91724987222824" lon="11.256161324829634"><ele>67.33333333333333</ele><time>2026-04-26T16:25:04.999Z</time></trkpt><trkpt lat="42.917111742618594" lon="11.25597895484053"><ele>68.66666666666666</ele><time>2026-04-26T16:25:05.999Z</time></trkpt><trkpt lat="42.916979882175646" lon="11.255793836429449"><ele>70.0</ele><time>2026-04-26T16:25:06.999Z</time></trkpt><trkpt lat="42.91685485212461" lon="11.255614416957997"><ele>70.0</ele><time>2026-04-26T16:25:07.999Z</time></trkpt><trkpt lat="42.91673324550354" lon="11.255448364464238"><ele>70.0</ele><time>2026-04-26T16:25:08.999Z</time></trkpt><trkpt lat="42.916590202426086" lon="11.25530580084686"><ele>70.0</ele><time>2026-04-26T16:25:09.999Z</time></trkpt><trkpt lat="42.916418933443424" lon="11.255191043526017"><ele>70.0</ele><time>2026-04-26T16:25:10.999Z</time></trkpt><trkpt lat="42.91623197392001" lon="11.255118478222176"><ele>70.0</ele><time>2026-04-26T16:25:11.999Z</time></trkpt><trkpt lat="42.916036929997134" lon="11.25507799169866"><ele>70.0</ele><time>2026-04-26T16:25:12.999Z</time></trkpt><trkpt lat="42.91583351582234" lon="11.255027540106497"><ele>70.0</ele><time>2026-04-26T16:25:13.999Z</time></trkpt><trkpt lat="42.9156279439447" lon="11.25495680610774"><ele>70.0</ele><time>2026-04-26T16:25:14.999Z</time></trkpt><trkpt lat="42.91541996375838" lon="11.254869494136804"><ele>70.0</ele><time>2026-04-26T16:25:15.999Z</time></trkpt><trkpt lat="42.91520925815838" lon="11.254768568566911"><ele>69.0</ele><time>2026-04-26T16:25:16.999Z</time></trkpt><trkpt lat="42.9149971898786" lon="11.25465803669552"><ele>68.0</ele><time>2026-04-26T16:25:17.999Z</time></trkpt><trkpt lat="42.914782899357924" lon="11.254544823225576"><ele>68.0</ele><time>2026-04-26T16:25:18.999Z</time></trkpt><trkpt lat="42.91456614436286" lon="11.254433071640822"><ele>68.0</ele><time>2026-04-26T16:25:19.999Z</time></trkpt><trkpt lat="42.914355800675395" lon="11.254323185619924"><ele>68.66666666666667</ele><time>2026-04-26T16:25:20.999Z</time></trkpt><trkpt lat="42.91415109217118" lon="11.25421001470083"><ele>69.33333333333333</ele><time>2026-04-26T16:25:21.999Z</time></trkpt><trkpt lat="42.913948641008155" lon="11.254102810678992"><ele>70.0</ele><time>2026-04-26T16:25:22.999Z</time></trkpt><trkpt lat="42.913743378781476" lon="11.253998484343576"><ele>71.0</ele><time>2026-04-26T16:25:23.999Z</time></trkpt><trkpt lat="42.913537930905036" lon="11.253895021209491"><ele>72.0</ele><time>2026-04-26T16:25:24.999Z</time></trkpt><trkpt lat="42.913335540296416" lon="11.25376721093535"><ele>73.0</ele><time>2026-04-26T16:25:25.999Z</time></trkpt><trkpt lat="42.91313477094813" lon="11.253620445186924"><ele>73.0</ele><time>2026-04-26T16:25:26.999Z</time></trkpt><trkpt lat="42.91294790285376" lon="11.253443288654713"><ele>73.0</ele><time>2026-04-26T16:25:27.999Z</time></trkpt><trkpt lat="42.912760758448414" lon="11.253246690865938"><ele>74.0</ele><time>2026-04-26T16:25:28.999Z</time></trkpt><trkpt lat="42.91259101277198" lon="11.253033652769906"><ele>75.0</ele><time>2026-04-26T16:25:29.999Z</time></trkpt><trkpt lat="42.912429979309444" lon="11.252804435572607"><ele>71.5</ele><time>2026-04-26T16:25:30.999Z</time></trkpt><trkpt lat="42.91228150611875" lon="11.252557186037313"><ele>68.0</ele><time>2026-04-26T16:25:31.999Z</time></trkpt><trkpt lat="42.91213493723947" lon="11.252303890594078"><ele>70.5</ele><time>2026-04-26T16:25:32.999Z</time></trkpt><trkpt lat="42.911988462145565" lon="11.252054188156094"><ele>73.0</ele><time>2026-04-26T16:25:33.999Z</time></trkpt><trkpt lat="42.911822977714884" lon="11.25182133634937"><ele>69.5</ele><time>2026-04-26T16:25:34.999Z</time></trkpt><trkpt lat="42.91164726381628" lon="11.251599897288925"><ele>66.0</ele><time>2026-04-26T16:25:35.999Z</time></trkpt><trkpt lat="42.911464510490084" lon="11.251390050391798"><ele>66.0</ele><time>2026-04-26T16:25:36.999Z</time></trkpt><trkpt lat="42.911285853480415" lon="11.251174725359483"><ele>66.0</ele><time>2026-04-26T16:25:37.999Z</time></trkpt><trkpt lat="42.91110623753898" lon="11.250957914023779"><ele>66.0</ele><time>2026-04-26T16:25:38.999Z</time></trkpt><trkpt lat="42.910930053105716" lon="11.250735566452265"><ele>66.0</ele><time>2026-04-26T16:25:39.999Z</time></trkpt><trkpt lat="42.91075063322571" lon="11.250520003853682"><ele>70.5</ele><time>2026-04-26T16:25:40.999Z</time></trkpt><trkpt lat="42.910573049298804" lon="11.250303494617432"><ele>75.0</ele><time>2026-04-26T16:25:41.999Z</time></trkpt><trkpt lat="42.91039432865637" lon="11.250090421013917"><ele>75.0</ele><time>2026-04-26T16:25:42.999Z</time></trkpt><trkpt lat="42.910218150042056" lon="11.249879531145162"><ele>75.0</ele><time>2026-04-26T16:25:43.999Z</time></trkpt><trkpt lat="42.910041176749736" lon="11.24967451662967"><ele>75.5</ele><time>2026-04-26T16:25:44.999Z</time></trkpt><trkpt lat="42.90986721308121" lon="11.24946566250873"><ele>76.0</ele><time>2026-04-26T16:25:45.999Z</time></trkpt><trkpt lat="42.90969637692252" lon="11.249257647687715"><ele>76.0</ele><time>2026-04-26T16:25:46.999Z</time></trkpt><trkpt lat="42.90952599274943" lon="11.24904838861295"><ele>76.0</ele><time>2026-04-26T16:25:47.999Z</time></trkpt><trkpt lat="42.90935435657595" lon="11.248841604732926"><ele>73.0</ele><time>2026-04-26T16:25:48.999Z</time></trkpt><trkpt lat="42.909182233400436" lon="11.248633535958389"><ele>70.0</ele><time>2026-04-26T16:25:49.999Z</time></trkpt><trkpt lat="42.90900989315151" lon="11.248424969509983"><ele>70.0</ele><time>2026-04-26T16:25:50.999Z</time></trkpt><trkpt lat="42.90883715483388" lon="11.248215636239005"><ele>70.0</ele><time>2026-04-26T16:25:51.999Z</time></trkpt><trkpt lat="42.908668442933866" lon="11.248003961726454"><ele>70.0</ele><time>2026-04-26T16:25:52.999Z</time></trkpt><trkpt lat="42.908492530812666" lon="11.247796786021707"><ele>70.0</ele><time>2026-04-26T16:25:53.999Z</time></trkpt><trkpt lat="42.90831999106348" lon="11.247584955413945"><ele>70.0</ele><time>2026-04-26T16:25:54.999Z</time></trkpt><trkpt lat="42.908143189040565" lon="11.24737191296279"><ele>70.0</ele><time>2026-04-26T16:25:55.999Z</time></trkpt><trkpt lat="42.90796551691111" lon="11.247158246898213"><ele>70.0</ele><time>2026-04-26T16:25:56.999Z</time></trkpt><trkpt lat="42.9077849584213" lon="11.246942616890927"><ele>70.0</ele><time>2026-04-26T16:25:57.999Z</time></trkpt><trkpt lat="42.90760794449004" lon="11.246727312354695"><ele>70.0</ele><time>2026-04-26T16:25:58.999Z</time></trkpt><trkpt lat="42.90742606258281" lon="11.246514355155774"><ele>70.0</ele><time>2026-04-26T16:25:59.998Z</time></trkpt><trkpt lat="42.907249259011195" lon="11.246297174433497"><ele>72.0</ele><time>2026-04-26T16:26:00.998Z</time></trkpt><trkpt lat="42.907072616723426" lon="11.246080965062479"><ele>74.0</ele><time>2026-04-26T16:26:01.998Z</time></trkpt><trkpt lat="42.90689511957513" lon="11.245863830170173"><ele>73.5</ele><time>2026-04-26T16:26:02.998Z</time></trkpt><trkpt lat="42.90671767221201" lon="11.245648345302085"><ele>73.0</ele><time>2026-04-26T16:26:03.998Z</time></trkpt><trkpt lat="42.90654067462737" lon="11.245429746154018"><ele>73.0</ele><time>2026-04-26T16:26:04.998Z</time></trkpt><trkpt lat="42.906367647295625" lon="11.24521404756372"><ele>73.0</ele><time>2026-04-26T16:26:05.998Z</time></trkpt><trkpt lat="42.90619325493065" lon="11.244993248703471"><ele>73.0</ele><time>2026-04-26T16:26:06.998Z</time></trkpt><trkpt lat="42.90602225792984" lon="11.244771528357498"><ele>73.0</ele><time>2026-04-26T16:26:07.998Z</time></trkpt><trkpt lat="42.90585183719416" lon="11.244551178605036"><ele>73.0</ele><time>2026-04-26T16:26:08.998Z</time></trkpt><trkpt lat="42.90568226197729" lon="11.244330163064701"><ele>73.0</ele><time>2026-04-26T16:26:09.998Z</time></trkpt><trkpt lat="42.90551408193206" lon="11.24411371015928"><ele>75.5</ele><time>2026-04-26T16:26:10.998Z</time></trkpt><trkpt lat="42.90534888521718" lon="11.243899637293325"><ele>78.0</ele><time>2026-04-26T16:26:11.998Z</time></trkpt><trkpt lat="42.90518312756418" lon="11.243688799888417"><ele>79.0</ele><time>2026-04-26T16:26:12.998Z</time></trkpt><trkpt lat="42.905015714899086" lon="11.243482741605163"><ele>80.0</ele><time>2026-04-26T16:26:13.998Z</time></trkpt><trkpt lat="42.904845452664006" lon="11.24327084277135"><ele>83.5</ele><time>2026-04-26T16:26:15Z</time></trkpt><trkpt lat="42.90467653798971" lon="11.243060404342373"><ele>87.0</ele><time>2026-04-26T16:26:16Z</time></trkpt><trkpt lat="42.90450530352082" lon="11.242850713989052"><ele>87.0</ele><time>2026-04-26T16:26:17Z</time></trkpt><trkpt lat="42.9043322538439" lon="11.242641644999994"><ele>87.0</ele><time>2026-04-26T16:26:18Z</time></trkpt><trkpt lat="42.90415637411949" lon="11.242436238663862"><ele>85.0</ele><time>2026-04-26T16:26:19Z</time></trkpt><trkpt lat="42.90397336846011" lon="11.242236539546312"><ele>83.0</ele><time>2026-04-26T16:26:20Z</time></trkpt><trkpt lat="42.903787679379036" lon="11.242045089005568"><ele>83.0</ele><time>2026-04-26T16:26:21Z</time></trkpt><trkpt lat="42.90360053347848" lon="11.241862701717103"><ele>83.0</ele><time>2026-04-26T16:26:22Z</time></trkpt><trkpt lat="42.90343106057009" lon="11.241655819744752"><ele>82.0</ele><time>2026-04-26T16:26:23Z</time></trkpt><trkpt lat="42.90325102699316" lon="11.241470029488061"><ele>81.0</ele><time>2026-04-26T16:26:24Z</time></trkpt><trkpt lat="42.90299709311471" lon="11.241398076838102"><ele>80.5</ele><time>2026-04-26T16:26:25Z</time></trkpt><trkpt lat="42.90277849584415" lon="11.241260326119464"><ele>80.0</ele><time>2026-04-26T16:26:26Z</time></trkpt><trkpt lat="42.902551584324904" lon="11.241137889788416"><ele>80.0</ele><time>2026-04-26T16:26:27Z</time></trkpt><trkpt lat="42.90232181202764" lon="11.241022796734267"><ele>80.0</ele><time>2026-04-26T16:26:28Z</time></trkpt><trkpt lat="42.9020883641018" lon="11.240916397869967"><ele>80.0</ele><time>2026-04-26T16:26:29Z</time></trkpt><trkpt lat="42.90182466071072" lon="11.240951473769359"><ele>80.0</ele><time>2026-04-26T16:26:30Z</time></trkpt><trkpt lat="42.901586407163556" lon="11.240859545766936"><ele>80.0</ele><time>2026-04-26T16:26:31Z</time></trkpt><trkpt lat="42.90134887721562" lon="11.240768050963123"><ele>80.0</ele><time>2026-04-26T16:26:32Z</time></trkpt><trkpt lat="42.901112033294886" lon="11.240677820112987"><ele>83.0</ele><time>2026-04-26T16:26:33Z</time></trkpt><trkpt lat="42.900874006183315" lon="11.240587138620848"><ele>86.0</ele><time>2026-04-26T16:26:34Z</time></trkpt><trkpt lat="42.90063626204118" lon="11.240496564886302"><ele>86.0</ele><time>2026-04-26T16:26:35Z</time></trkpt><trkpt lat="42.90040253632309" lon="11.24040752207703"><ele>86.0</ele><time>2026-04-26T16:26:36Z</time></trkpt><trkpt lat="42.90017226413438" lon="11.240319794962288"><ele>86.0</ele><time>2026-04-26T16:26:37Z</time></trkpt><trkpt lat="42.89994138432615" lon="11.240231833053567"><ele>86.0</ele><time>2026-04-26T16:26:38Z</time></trkpt><trkpt lat="42.89970935952728" lon="11.240143434191541"><ele>86.0</ele><time>2026-04-26T16:26:39Z</time></trkpt><trkpt lat="42.899482092320866" lon="11.240050646114788"><ele>86.0</ele><time>2026-04-26T16:26:40Z</time></trkpt><trkpt lat="42.89927770469837" lon="11.239855258818427"><ele>89.0</ele><time>2026-04-26T16:26:41Z</time></trkpt><trkpt lat="42.89905134382161" lon="11.239771715699453"><ele>92.0</ele><time>2026-04-26T16:26:42Z</time></trkpt><trkpt lat="42.89882656437673" lon="11.23968768910568"><ele>92.0</ele><time>2026-04-26T16:26:43Z</time></trkpt><trkpt lat="42.89860173467941" lon="11.239603093823629"><ele>92.0</ele><time>2026-04-26T16:26:44Z</time></trkpt><trkpt lat="42.89838407021022" lon="11.239523324138368"><ele>92.5</ele><time>2026-04-26T16:26:45Z</time></trkpt><trkpt lat="42.89816470980511" lon="11.239442920509305"><ele>93.0</ele><time>2026-04-26T16:26:46Z</time></trkpt><trkpt lat="42.89794516747826" lon="11.239350700522138"><ele>93.0</ele><time>2026-04-26T16:26:47Z</time></trkpt><trkpt lat="42.89772875022138" lon="11.239236958754333"><ele>93.0</ele><time>2026-04-26T16:26:48Z</time></trkpt><trkpt lat="42.89751387052358" lon="11.23910131701652"><ele>92.0</ele><time>2026-04-26T16:26:49Z</time></trkpt><trkpt lat="42.897307627716266" lon="11.238955461527024"><ele>91.0</ele><time>2026-04-26T16:26:50Z</time></trkpt><trkpt lat="42.89710539989104" lon="11.238796789768056"><ele>91.0</ele><time>2026-04-26T16:26:51Z</time></trkpt><trkpt lat="42.8969098005892" lon="11.238638333981077"><ele>91.0</ele><time>2026-04-26T16:26:52Z</time></trkpt><trkpt lat="42.89671736003417" lon="11.238482780374547"><ele>90.0</ele><time>2026-04-26T16:26:53Z</time></trkpt><trkpt lat="42.89651054866409" lon="11.238355256965074"><ele>89.0</ele><time>2026-04-26T16:26:54Z</time></trkpt><trkpt lat="42.89628805168218" lon="11.238250444133447"><ele>89.0</ele><time>2026-04-26T16:26:55Z</time></trkpt><trkpt lat="42.89606481365226" lon="11.238172574669171"><ele>89.0</ele><time>2026-04-26T16:26:56Z</time></trkpt><trkpt lat="42.89583949868617" lon="11.238111605676174"><ele>89.66666666666667</ele><time>2026-04-26T16:26:57Z</time></trkpt><trkpt lat="42.89562668797267" lon="11.2380536830515"><ele>90.33333333333333</ele><time>2026-04-26T16:26:58Z</time></trkpt><trkpt lat="42.895414103441176" lon="11.23799634021839"><ele>91.0</ele><time>2026-04-26T16:26:59Z</time></trkpt><trkpt lat="42.89520387444405" lon="11.237954739699369"><ele>91.66666666666666</ele><time>2026-04-26T16:27:00Z</time></trkpt><trkpt lat="42.89499763080541" lon="11.237930823508984"><ele>92.33333333333333</ele><time>2026-04-26T16:27:01Z</time></trkpt><trkpt lat="42.89479133449408" lon="11.237913985200748"><ele>93.0</ele><time>2026-04-26T16:27:02Z</time></trkpt><trkpt lat="42.89460462366563" lon="11.237904724059957"><ele>93.0</ele><time>2026-04-26T16:27:03Z</time></trkpt><trkpt lat="42.8943969108735" lon="11.23784880806581"><ele>93.0</ele><time>2026-04-26T16:27:04Z</time></trkpt><trkpt lat="42.89419228909998" lon="11.237760144219049"><ele>93.0</ele><time>2026-04-26T16:27:05Z</time></trkpt><trkpt lat="42.89402017735762" lon="11.237634062467988"><ele>93.0</ele><time>2026-04-26T16:27:06Z</time></trkpt><trkpt lat="42.8938243594564" lon="11.237511580876358"><ele>93.0</ele><time>2026-04-26T16:27:07Z</time></trkpt><trkpt lat="42.89362329724958" lon="11.237394417377512"><ele>93.0</ele><time>2026-04-26T16:27:08Z</time></trkpt><trkpt lat="42.89342629634465" lon="11.23728619138963"><ele>92.66666666666667</ele><time>2026-04-26T16:27:09Z</time></trkpt><trkpt lat="42.893235650336855" lon="11.237175375396466"><ele>92.33333333333334</ele><time>2026-04-26T16:27:10Z</time></trkpt><trkpt lat="42.89304792505892" lon="11.237061567619103"><ele>92.0</ele><time>2026-04-26T16:27:10.999Z</time></trkpt><trkpt lat="42.8928638048094" lon="11.236952102671594"><ele>92.0</ele><time>2026-04-26T16:27:11.999Z</time></trkpt><trkpt lat="42.892689859608694" lon="11.23683929175191"><ele>92.0</ele><time>2026-04-26T16:27:12.999Z</time></trkpt><trkpt lat="42.89252796963093" lon="11.23672927223055"><ele>92.0</ele><time>2026-04-26T16:27:13.999Z</time></trkpt><trkpt lat="42.89237787850159" lon="11.236616364163421"><ele>92.66666666666667</ele><time>2026-04-26T16:27:14.999Z</time></trkpt><trkpt lat="42.892250775874416" lon="11.236495274626238"><ele>93.33333333333333</ele><time>2026-04-26T16:27:15.999Z</time></trkpt><trkpt lat="42.89214363297457" lon="11.236345498302802"><ele>94.0</ele><time>2026-04-26T16:27:16.999Z</time></trkpt><trkpt lat="42.89205634360018" lon="11.236163670026654"><ele>94.66666666666666</ele><time>2026-04-26T16:27:17.999Z</time></trkpt><trkpt lat="42.89198476398247" lon="11.235963701199717"><ele>95.33333333333333</ele><time>2026-04-26T16:27:18.999Z</time></trkpt><trkpt lat="42.891914681158006" lon="11.235761073548263"><ele>96.0</ele><time>2026-04-26T16:27:19.999Z</time></trkpt><trkpt lat="42.89182103807967" lon="11.23557424636631"><ele>97.33333333333334</ele><time>2026-04-26T16:27:20.999Z</time></trkpt><trkpt lat="42.89169912425135" lon="11.235407267083453"><ele>98.66666666666667</ele><time>2026-04-26T16:27:21.999Z</time></trkpt><trkpt lat="42.891557742572026" lon="11.23525164028592"><ele>100.0</ele><time>2026-04-26T16:27:22.999Z</time></trkpt><trkpt lat="42.89141295428419" lon="11.235098797377404"><ele>100.0</ele><time>2026-04-26T16:27:23.999Z</time></trkpt><trkpt lat="42.89127110255386" lon="11.234949567611693"><ele>100.0</ele><time>2026-04-26T16:27:24.999Z</time></trkpt><trkpt lat="42.89113659003756" lon="11.234802297921785"><ele>100.0</ele><time>2026-04-26T16:27:25.999Z</time></trkpt><trkpt lat="42.89101032545891" lon="11.234665383272393"><ele>100.66666666666667</ele><time>2026-04-26T16:27:26.999Z</time></trkpt><trkpt lat="42.89087895840729" lon="11.234558683526565"><ele>101.33333333333334</ele><time>2026-04-26T16:27:27.999Z</time></trkpt><trkpt lat="42.890737152129745" lon="11.234499279020621"><ele>102.0</ele><time>2026-04-26T16:27:28.999Z</time></trkpt><trkpt lat="42.89058657819928" lon="11.234507595387264"><ele>102.0</ele><time>2026-04-26T16:27:29.999Z</time></trkpt><trkpt lat="42.89043686687472" lon="11.234565216935566"><ele>102.0</ele><time>2026-04-26T16:27:30.999Z</time></trkpt><trkpt lat="42.89029336860557" lon="11.234669282972856"><ele>102.0</ele><time>2026-04-26T16:27:31.999Z</time></trkpt><trkpt lat="42.89015456765599" lon="11.234795000268406"><ele>99.66666666666667</ele><time>2026-04-26T16:27:32.999Z</time></trkpt><trkpt lat="42.890003697939925" lon="11.234911193264042"><ele>97.33333333333334</ele><time>2026-04-26T16:27:33.999Z</time></trkpt><trkpt lat="42.88984540023389" lon="11.235008835438121"><ele>95.0</ele><time>2026-04-26T16:27:34.999Z</time></trkpt><trkpt lat="42.88968876246144" lon="11.235065548347409"><ele>95.0</ele><time>2026-04-26T16:27:35.999Z</time></trkpt><trkpt lat="42.88953626708018" lon="11.235074035308015"><ele>95.0</ele><time>2026-04-26T16:27:36.999Z</time></trkpt><trkpt lat="42.88939146203693" lon="11.235027100324986"><ele>95.0</ele><time>2026-04-26T16:27:37.999Z</time></trkpt><trkpt lat="42.88925767191724" lon="11.234931125991181"><ele>96.0</ele><time>2026-04-26T16:27:38.999Z</time></trkpt><trkpt lat="42.88913053391726" lon="11.23478939356169"><ele>97.0</ele><time>2026-04-26T16:27:39.999Z</time></trkpt><trkpt lat="42.889008632984655" lon="11.23462333029135"><ele>98.0</ele><time>2026-04-26T16:27:40.999Z</time></trkpt><trkpt lat="42.888885801128666" lon="11.234446724534687"><ele>98.0</ele><time>2026-04-26T16:27:41.999Z</time></trkpt><trkpt lat="42.8887507375295" lon="11.234273932951123"><ele>98.0</ele><time>2026-04-26T16:27:42.999Z</time></trkpt><trkpt lat="42.888602343565175" lon="11.23410464488485"><ele>98.0</ele><time>2026-04-26T16:27:43.999Z</time></trkpt><trkpt lat="42.88845505548093" lon="11.233941353995494"><ele>98.33333333333333</ele><time>2026-04-26T16:27:44.999Z</time></trkpt><trkpt lat="42.88830737844974" lon="11.233770415370303"><ele>98.66666666666666</ele><time>2026-04-26T16:27:45.999Z</time></trkpt><trkpt lat="42.88815919904205" lon="11.233597051966436"><ele>99.0</ele><time>2026-04-26T16:27:46.999Z</time></trkpt><trkpt lat="42.88801659331329" lon="11.233414679400441"><ele>99.0</ele><time>2026-04-26T16:27:47.999Z</time></trkpt><trkpt lat="42.88789054011663" lon="11.233213755639232"><ele>99.0</ele><time>2026-04-26T16:27:48.999Z</time></trkpt><trkpt lat="42.88778321320052" lon="11.23298825163202"><ele>99.0</ele><time>2026-04-26T16:27:49.999Z</time></trkpt><trkpt lat="42.88769326832183" lon="11.23273970186749"><ele>100.0</ele><time>2026-04-26T16:27:50.999Z</time></trkpt><trkpt lat="42.88761866375219" lon="11.232477502337778"><ele>101.0</ele><time>2026-04-26T16:27:51.999Z</time></trkpt><trkpt lat="42.887571384433976" lon="11.232200395567896"><ele>102.0</ele><time>2026-04-26T16:27:52.999Z</time></trkpt><trkpt lat="42.88755881554752" lon="11.231907555278443"><ele>102.0</ele><time>2026-04-26T16:27:53.999Z</time></trkpt><trkpt lat="42.88757315069025" lon="11.231610116066925"><ele>102.0</ele><time>2026-04-26T16:27:54.999Z</time></trkpt><trkpt lat="42.887595126800555" lon="11.231318461774313"><ele>102.0</ele><time>2026-04-26T16:27:55.999Z</time></trkpt><trkpt lat="42.88762645010134" lon="11.231011315071402"><ele>108.0</ele><time>2026-04-26T16:27:56.999Z</time></trkpt><trkpt lat="42.88765911548939" lon="11.230697942823271"><ele>114.0</ele><time>2026-04-26T16:27:57.999Z</time></trkpt><trkpt lat="42.887689370501626" lon="11.23037634127345"><ele>114.5</ele><time>2026-04-26T16:27:58.999Z</time></trkpt><trkpt lat="42.887719124583185" lon="11.230059622845483"><ele>115.0</ele><time>2026-04-26T16:27:59.999Z</time></trkpt><trkpt lat="42.88774705055227" lon="11.22974268315438"><ele>113.0</ele><time>2026-04-26T16:28:00.999Z</time></trkpt><trkpt lat="42.887774890605584" lon="11.229424587962416"><ele>111.0</ele><time>2026-04-26T16:28:01.999Z</time></trkpt><trkpt lat="42.88780359777819" lon="11.229107013938503"><ele>109.0</ele><time>2026-04-26T16:28:02.999Z</time></trkpt><trkpt lat="42.8878381992699" lon="11.228789276504196"><ele>107.0</ele><time>2026-04-26T16:28:03.999Z</time></trkpt><trkpt lat="42.88787806824115" lon="11.228475007701059"><ele>107.0</ele><time>2026-04-26T16:28:04.999Z</time></trkpt><trkpt lat="42.88791610305025" lon="11.22815748523982"><ele>107.0</ele><time>2026-04-26T16:28:05.998Z</time></trkpt><trkpt lat="42.887945589334336" lon="11.227848534372098"><ele>105.5</ele><time>2026-04-26T16:28:06.998Z</time></trkpt><trkpt lat="42.88797804305765" lon="11.227536003685978"><ele>104.0</ele><time>2026-04-26T16:28:07.998Z</time></trkpt><trkpt lat="42.888013204237005" lon="11.227222866458337"><ele>103.5</ele><time>2026-04-26T16:28:08.998Z</time></trkpt><trkpt lat="42.88804871262259" lon="11.226914063485367"><ele>103.0</ele><time>2026-04-26T16:28:09.998Z</time></trkpt><trkpt lat="42.888076939403895" lon="11.226613142514752"><ele>102.33333333333334</ele><time>2026-04-26T16:28:10.998Z</time></trkpt><trkpt lat="42.888088976974146" lon="11.226312772255957"><ele>101.66666666666666</ele><time>2026-04-26T16:28:11.998Z</time></trkpt><trkpt lat="42.888072267837245" lon="11.226016780474499"><ele>101.0</ele><time>2026-04-26T16:28:12.998Z</time></trkpt><trkpt lat="42.888030195210945" lon="11.225734704829861"><ele>101.33333333333333</ele><time>2026-04-26T16:28:13.998Z</time></trkpt><trkpt lat="42.88796745864605" lon="11.225454533502402"><ele>101.66666666666666</ele><time>2026-04-26T16:28:14.998Z</time></trkpt><trkpt lat="42.88788220034224" lon="11.225190400362669"><ele>102.0</ele><time>2026-04-26T16:28:15.998Z</time></trkpt><trkpt lat="42.887777908206346" lon="11.224935161502076"><ele>102.66666666666666</ele><time>2026-04-26T16:28:16.998Z</time></trkpt><trkpt lat="42.88766692395243" lon="11.224681473919635"><ele>103.33333333333333</ele><time>2026-04-26T16:28:17.998Z</time></trkpt><trkpt lat="42.887556065620466" lon="11.224425939935001"><ele>104.0</ele><time>2026-04-26T16:28:18.998Z</time></trkpt><trkpt lat="42.887439833935154" lon="11.224177557711396"><ele>106.66666666666666</ele><time>2026-04-26T16:28:19.998Z</time></trkpt><trkpt lat="42.88731575820293" lon="11.223936071334244"><ele>109.33333333333334</ele><time>2026-04-26T16:28:21Z</time></trkpt><trkpt lat="42.88718286593036" lon="11.223699929918185"><ele>112.0</ele><time>2026-04-26T16:28:22Z</time></trkpt><trkpt lat="42.88704195391832" lon="11.22346989548344"><ele>112.0</ele><time>2026-04-26T16:28:23Z</time></trkpt><trkpt lat="42.88689070061608" lon="11.223247066886042"><ele>112.0</ele><time>2026-04-26T16:28:24Z</time></trkpt><trkpt lat="42.88672452797096" lon="11.223036615857247"><ele>112.0</ele><time>2026-04-26T16:28:25Z</time></trkpt><trkpt lat="42.88654868037488" lon="11.222835693245505"><ele>113.0</ele><time>2026-04-26T16:28:26Z</time></trkpt><trkpt lat="42.88637309595272" lon="11.222637082523756"><ele>114.0</ele><time>2026-04-26T16:28:27Z</time></trkpt><trkpt lat="42.886200073017044" lon="11.222445831342652"><ele>115.66666666666666</ele><time>2026-04-26T16:28:28Z</time></trkpt><trkpt lat="42.88603208665236" lon="11.222258950739636"><ele>117.33333333333333</ele><time>2026-04-26T16:28:29Z</time></trkpt><trkpt lat="42.88586893670646" lon="11.222074884686403"><ele>119.0</ele><time>2026-04-26T16:28:30Z</time></trkpt><trkpt lat="42.88570806853716" lon="11.221887525839264"><ele>119.0</ele><time>2026-04-26T16:28:31Z</time></trkpt><trkpt lat="42.88554395168605" lon="11.221700947297638"><ele>119.0</ele><time>2026-04-26T16:28:32Z</time></trkpt><trkpt lat="42.88537535285655" lon="11.221514247769187"><ele>119.0</ele><time>2026-04-26T16:28:33Z</time></trkpt><trkpt lat="42.885200888487326" lon="11.221330725855857"><ele>119.66666666666666</ele><time>2026-04-26T16:28:34Z</time></trkpt><trkpt lat="42.88502318164708" lon="11.22115517973359"><ele>120.33333333333334</ele><time>2026-04-26T16:28:35Z</time></trkpt><trkpt lat="42.884840652837056" lon="11.220991433121679"><ele>121.0</ele><time>2026-04-26T16:28:36Z</time></trkpt><trkpt lat="42.88466293903457" lon="11.22081427337444"><ele>121.0</ele><time>2026-04-26T16:28:37Z</time></trkpt><trkpt lat="42.88447439543283" lon="11.220651861257595"><ele>121.0</ele><time>2026-04-26T16:28:38Z</time></trkpt><trkpt lat="42.88427408697052" lon="11.22050898578233"><ele>121.0</ele><time>2026-04-26T16:28:39Z</time></trkpt><trkpt lat="42.884085600416235" lon="11.220339412850329"><ele>125.0</ele><time>2026-04-26T16:28:40Z</time></trkpt><trkpt lat="42.88389337596685" lon="11.220175116853566"><ele>129.0</ele><time>2026-04-26T16:28:41Z</time></trkpt><trkpt lat="42.8836966461483" lon="11.220013225259855"><ele>129.0</ele><time>2026-04-26T16:28:42Z</time></trkpt><trkpt lat="42.88349804426138" lon="11.219851543991213"><ele>129.0</ele><time>2026-04-26T16:28:43Z</time></trkpt><trkpt lat="42.883298264212435" lon="11.219684234261793"><ele>127.5</ele><time>2026-04-26T16:28:44Z</time></trkpt><trkpt lat="42.88309474385806" lon="11.219513258353071"><ele>126.0</ele><time>2026-04-26T16:28:45Z</time></trkpt><trkpt lat="42.88289136221685" lon="11.219342612279954"><ele>126.0</ele><time>2026-04-26T16:28:46Z</time></trkpt><trkpt lat="42.882687150792066" lon="11.21917663287406"><ele>126.0</ele><time>2026-04-26T16:28:47Z</time></trkpt><trkpt lat="42.88248687723678" lon="11.219012452091423"><ele>128.5</ele><time>2026-04-26T16:28:48Z</time></trkpt><trkpt lat="42.88229084632022" lon="11.218845201205871"><ele>131.0</ele><time>2026-04-26T16:28:49Z</time></trkpt><trkpt lat="42.88210199049337" lon="11.218670673067464"><ele>131.0</ele><time>2026-04-26T16:28:50Z</time></trkpt><trkpt lat="42.88191798748676" lon="11.21848780998671"><ele>131.0</ele><time>2026-04-26T16:28:51Z</time></trkpt><trkpt lat="42.88173359302844" lon="11.218308220935263"><ele>133.0</ele><time>2026-04-26T16:28:52Z</time></trkpt><trkpt lat="42.881548119812585" lon="11.218131405578317"><ele>135.0</ele><time>2026-04-26T16:28:53Z</time></trkpt><trkpt lat="42.881363121052125" lon="11.217952545313123"><ele>135.0</ele><time>2026-04-26T16:28:54Z</time></trkpt><trkpt lat="42.88118190421417" lon="11.217766980813023"><ele>135.0</ele><time>2026-04-26T16:28:55Z</time></trkpt><trkpt lat="42.88100487630284" lon="11.21757758174004"><ele>133.66666666666666</ele><time>2026-04-26T16:28:56Z</time></trkpt><trkpt lat="42.88083353365457" lon="11.217376216594833"><ele>132.33333333333331</ele><time>2026-04-26T16:28:57Z</time></trkpt><trkpt lat="42.880668298819174" lon="11.217171172311277"><ele>131.0</ele><time>2026-04-26T16:28:58Z</time></trkpt><trkpt lat="42.88050124681881" lon="11.216962606114647"><ele>131.0</ele><time>2026-04-26T16:28:59Z</time></trkpt><trkpt lat="42.88032964632349" lon="11.21675854710143"><ele>131.0</ele><time>2026-04-26T16:29:00Z</time></trkpt><trkpt lat="42.88016070468594" lon="11.216547381231171"><ele>130.5</ele><time>2026-04-26T16:29:01Z</time></trkpt><trkpt lat="42.87999440917042" lon="11.216332260249525"><ele>130.0</ele><time>2026-04-26T16:29:02Z</time></trkpt><trkpt lat="42.87983021782517" lon="11.216109364280765"><ele>130.0</ele><time>2026-04-26T16:29:03Z</time></trkpt><trkpt lat="42.879669045754454" lon="11.215886165684239"><ele>130.0</ele><time>2026-04-26T16:29:04Z</time></trkpt><trkpt lat="42.879505772250056" lon="11.2156612241594"><ele>130.5</ele><time>2026-04-26T16:29:05Z</time></trkpt><trkpt lat="42.8793429497866" lon="11.215436200464373"><ele>131.0</ele><time>2026-04-26T16:29:06Z</time></trkpt><trkpt lat="42.879180357668936" lon="11.215208643233895"><ele>131.0</ele><time>2026-04-26T16:29:07Z</time></trkpt><trkpt lat="42.879019200466765" lon="11.214982596753691"><ele>131.0</ele><time>2026-04-26T16:29:08Z</time></trkpt><trkpt lat="42.87885935322783" lon="11.214758857158253"><ele>131.0</ele><time>2026-04-26T16:29:09Z</time></trkpt><trkpt lat="42.87870023929073" lon="11.214541984179517"><ele>131.0</ele><time>2026-04-26T16:29:10Z</time></trkpt><trkpt lat="42.87854236101898" lon="11.214325632838312"><ele>131.0</ele><time>2026-04-26T16:29:11Z</time></trkpt><trkpt lat="42.87838315601596" lon="11.214110990879322"><ele>131.66666666666666</ele><time>2026-04-26T16:29:12Z</time></trkpt><trkpt lat="42.878230373475255" lon="11.213889061954855"><ele>132.33333333333334</ele><time>2026-04-26T16:29:13Z</time></trkpt><trkpt lat="42.8780820747293" lon="11.213655977093202"><ele>133.0</ele><time>2026-04-26T16:29:14Z</time></trkpt><trkpt lat="42.87794093711867" lon="11.213409206665785"><ele>133.0</ele><time>2026-04-26T16:29:15Z</time></trkpt><trkpt lat="42.87780328600975" lon="11.213159236016045"><ele>133.0</ele><time>2026-04-26T16:29:15.999Z</time></trkpt><trkpt lat="42.8776581042475" lon="11.212917624641129"><ele>133.0</ele><time>2026-04-26T16:29:16.999Z</time></trkpt><trkpt lat="42.87750962785415" lon="11.212676291756518"><ele>133.0</ele><time>2026-04-26T16:29:17.999Z</time></trkpt><trkpt lat="42.877364778619764" lon="11.212435610529113"><ele>133.0</ele><time>2026-04-26T16:29:18.999Z</time></trkpt><trkpt lat="42.877220820662814" lon="11.212199502790167"><ele>133.0</ele><time>2026-04-26T16:29:19.999Z</time></trkpt><trkpt lat="42.87708486392973" lon="11.21197314083731"><ele>133.0</ele><time>2026-04-26T16:29:20.999Z</time></trkpt><trkpt lat="42.87693942233781" lon="11.211749022842666"><ele>133.0</ele><time>2026-04-26T16:29:21.999Z</time></trkpt><trkpt lat="42.87678695642641" lon="11.211530585166857"><ele>133.0</ele><time>2026-04-26T16:29:22.999Z</time></trkpt><trkpt lat="42.876640567844305" lon="11.211304752724352"><ele>133.0</ele><time>2026-04-26T16:29:23.999Z</time></trkpt><trkpt lat="42.876495881987154" lon="11.211071157787888"><ele>133.33333333333334</ele><time>2026-04-26T16:29:24.999Z</time></trkpt><trkpt lat="42.876350204677145" lon="11.210841453451645"><ele>133.66666666666666</ele><time>2026-04-26T16:29:25.999Z</time></trkpt><trkpt lat="42.87620530198044" lon="11.210607008154511"><ele>134.0</ele><time>2026-04-26T16:29:26.999Z</time></trkpt><trkpt lat="42.87607354993354" lon="11.210354174392153"><ele>135.0</ele><time>2026-04-26T16:29:27.999Z</time></trkpt><trkpt lat="42.875957048552095" lon="11.210087146646718"><ele>136.0</ele><time>2026-04-26T16:29:28.999Z</time></trkpt><trkpt lat="42.8758535648609" lon="11.209807038774075"><ele>136.5</ele><time>2026-04-26T16:29:29.999Z</time></trkpt><trkpt lat="42.87576499814281" lon="11.209514982475326"><ele>137.0</ele><time>2026-04-26T16:29:30.999Z</time></trkpt><trkpt lat="42.87569664429617" lon="11.20921052253958"><ele>138.0</ele><time>2026-04-26T16:29:31.999Z</time></trkpt><trkpt lat="42.87564568637373" lon="11.20889930931895"><ele>139.0</ele><time>2026-04-26T16:29:32.999Z</time></trkpt><trkpt lat="42.87560729004555" lon="11.208585067822188"><ele>139.0</ele><time>2026-04-26T16:29:33.999Z</time></trkpt><trkpt lat="42.875570338344204" lon="11.20827211631174"><ele>139.0</ele><time>2026-04-26T16:29:34.999Z</time></trkpt><trkpt lat="42.87553797728591" lon="11.20796341150603"><ele>139.66666666666669</ele><time>2026-04-26T16:29:35.999Z</time></trkpt><trkpt lat="42.87550976496828" lon="11.207669311073312"><ele>140.33333333333334</ele><time>2026-04-26T16:29:36.999Z</time></trkpt><trkpt lat="42.87548128124529" lon="11.207389421074096"><ele>141.0</ele><time>2026-04-26T16:29:37.999Z</time></trkpt><trkpt lat="42.87544337986687" lon="11.20712618077457"><ele>142.0</ele><time>2026-04-26T16:29:38.999Z</time></trkpt><trkpt lat="42.875380368197995" lon="11.206870970051046"><ele>143.0</ele><time>2026-04-26T16:29:39.999Z</time></trkpt><trkpt lat="42.87528717100235" lon="11.206642759840935"><ele>144.0</ele><time>2026-04-26T16:29:40.999Z</time></trkpt><trkpt lat="42.87517689252153" lon="11.206439563708312"><ele>144.5</ele><time>2026-04-26T16:29:41.999Z</time></trkpt><trkpt lat="42.87507189310156" lon="11.206288061583738"><ele>145.0</ele><time>2026-04-26T16:29:42.999Z</time></trkpt><trkpt lat="42.874976143586665" lon="11.206171433938819"><ele>145.5</ele><time>2026-04-26T16:29:43.999Z</time></trkpt><trkpt lat="42.87492564206328" lon="11.206037555993175"><ele>146.0</ele><time>2026-04-26T16:29:44.999Z</time></trkpt><trkpt lat="42.87491183445988" lon="11.205867227654174"><ele>146.0</ele><time>2026-04-26T16:29:45.999Z</time></trkpt><trkpt lat="42.874891673385896" lon="11.205692670134965"><ele>146.0</ele><time>2026-04-26T16:29:46.999Z</time></trkpt><trkpt lat="42.87486276258069" lon="11.205513137233043"><ele>146.0</ele><time>2026-04-26T16:29:47.999Z</time></trkpt><trkpt lat="42.874883477083166" lon="11.205335464778322"><ele>146.0</ele><time>2026-04-26T16:29:48.999Z</time></trkpt><trkpt lat="42.87495177603014" lon="11.20518072556889"><ele>147.0</ele><time>2026-04-26T16:29:49.999Z</time></trkpt><trkpt lat="42.87502019435743" lon="11.205027447950693"><ele>148.0</ele><time>2026-04-26T16:29:50.999Z</time></trkpt><trkpt lat="42.8750879908524" lon="11.204853161094912"><ele>149.0</ele><time>2026-04-26T16:29:51.999Z</time></trkpt><trkpt lat="42.875161235020265" lon="11.204683258803978"><ele>150.0</ele><time>2026-04-26T16:29:52.999Z</time></trkpt><trkpt lat="42.87522007131654" lon="11.204501402031397"><ele>151.33333333333334</ele><time>2026-04-26T16:29:53.999Z</time></trkpt><trkpt lat="42.87526157611136" lon="11.204297003083894"><ele>152.66666666666669</ele><time>2026-04-26T16:29:54.999Z</time></trkpt><trkpt lat="42.875295679973135" lon="11.204081142397795"><ele>154.0</ele><time>2026-04-26T16:29:55.999Z</time></trkpt><trkpt lat="42.875336532093286" lon="11.203865254865299"><ele>154.33333333333334</ele><time>2026-04-26T16:29:56.999Z</time></trkpt><trkpt lat="42.87537249379388" lon="11.20364574363269"><ele>154.66666666666666</ele><time>2026-04-26T16:29:57.999Z</time></trkpt><trkpt lat="42.875404494351734" lon="11.203429295162625"><ele>155.0</ele><time>2026-04-26T16:29:58.999Z</time></trkpt><trkpt lat="42.87541073855971" lon="11.20322845969902"><ele>157.33333333333331</ele><time>2026-04-26T16:29:59.999Z</time></trkpt><trkpt lat="42.87538456071808" lon="11.203027386294846"><ele>159.66666666666666</ele><time>2026-04-26T16:30:00.999Z</time></trkpt><trkpt lat="42.875354592661544" lon="11.202823169880398"><ele>162.0</ele><time>2026-04-26T16:30:01.999Z</time></trkpt><trkpt lat="42.8753484212273" lon="11.202617647460047"><ele>162.0</ele><time>2026-04-26T16:30:02.999Z</time></trkpt><trkpt lat="42.87536565962438" lon="11.202396739744605"><ele>162.0</ele><time>2026-04-26T16:30:03.999Z</time></trkpt><trkpt lat="42.87540571130562" lon="11.20218655895746"><ele>162.0</ele><time>2026-04-26T16:30:04.999Z</time></trkpt><trkpt lat="42.87545247053259" lon="11.201976160524268"><ele>164.0</ele><time>2026-04-26T16:30:05.999Z</time></trkpt><trkpt lat="42.87549724940077" lon="11.201761806651955"><ele>166.0</ele><time>2026-04-26T16:30:06.999Z</time></trkpt><trkpt lat="42.87553989715042" lon="11.201546737641088"><ele>168.0</ele><time>2026-04-26T16:30:07.999Z</time></trkpt><trkpt lat="42.87558495462907" lon="11.2013360297311"><ele>169.0</ele><time>2026-04-26T16:30:08.999Z</time></trkpt><trkpt lat="42.87562658748064" lon="11.201130276588264"><ele>170.0</ele><time>2026-04-26T16:30:09.999Z</time></trkpt><trkpt lat="42.87568259139216" lon="11.200939867528794"><ele>171.0</ele><time>2026-04-26T16:30:10.998Z</time></trkpt><trkpt lat="42.87572252960576" lon="11.200748120030202"><ele>174.5</ele><time>2026-04-26T16:30:11.998Z</time></trkpt><trkpt lat="42.875746883022494" lon="11.200586882866773"><ele>178.0</ele><time>2026-04-26T16:30:12.998Z</time></trkpt><trkpt lat="42.87575465264555" lon="11.200427928652461"><ele>181.5</ele><time>2026-04-26T16:30:13.998Z</time></trkpt><trkpt lat="42.87573676725933" lon="11.200275100203914"><ele>185.0</ele><time>2026-04-26T16:30:14.998Z</time></trkpt><trkpt lat="42.875676041086884" lon="11.200138129088387"><ele>185.0</ele><time>2026-04-26T16:30:15.998Z</time></trkpt><trkpt lat="42.875620874779486" lon="11.200002234437516"><ele>185.0</ele><time>2026-04-26T16:30:16.998Z</time></trkpt><trkpt lat="42.87554536421184" lon="11.19987667569991"><ele>185.0</ele><time>2026-04-26T16:30:17.998Z</time></trkpt><trkpt lat="42.87546473450957" lon="11.199746218016676"><ele>185.0</ele><time>2026-04-26T16:30:18.998Z</time></trkpt><trkpt lat="42.87538021981506" lon="11.199610203549925"><ele>188.0</ele><time>2026-04-26T16:30:19.998Z</time></trkpt><trkpt lat="42.87529578884443" lon="11.199463206326175"><ele>191.0</ele><time>2026-04-26T16:30:20.998Z</time></trkpt><trkpt lat="42.87521863204459" lon="11.199294034538712"><ele>194.0</ele><time>2026-04-26T16:30:21.998Z</time></trkpt><trkpt lat="42.87516926533063" lon="11.19910611936677"><ele>197.0</ele><time>2026-04-26T16:30:22.998Z</time></trkpt><trkpt lat="42.87512987090998" lon="11.198911781225068"><ele>194.66666666666669</ele><time>2026-04-26T16:30:23.998Z</time></trkpt><trkpt lat="42.87509669556904" lon="11.198708806436503"><ele>192.33333333333334</ele><time>2026-04-26T16:30:24.998Z</time></trkpt><trkpt lat="42.87506893747273" lon="11.198503635925782"><ele>190.0</ele><time>2026-04-26T16:30:25.998Z</time></trkpt><trkpt lat="42.875050458508134" lon="11.198297362747487"><ele>192.25</ele><time>2026-04-26T16:30:27Z</time></trkpt><trkpt lat="42.87504080365669" lon="11.198097230180306"><ele>194.5</ele><time>2026-04-26T16:30:28Z</time></trkpt><trkpt lat="42.87502675024402" lon="11.19790590937995"><ele>196.75</ele><time>2026-04-26T16:30:29Z</time></trkpt><trkpt lat="42.87501424090677" lon="11.19771702883862"><ele>199.0</ele><time>2026-04-26T16:30:30Z</time></trkpt><trkpt lat="42.87498482110367" lon="11.197527388082213"><ele>199.0</ele><time>2026-04-26T16:30:31Z</time></trkpt><trkpt lat="42.874934616581655" lon="11.197339000687807"><ele>199.0</ele><time>2026-04-26T16:30:32Z</time></trkpt><trkpt lat="42.874872431216396" lon="11.197152017825244"><ele>199.0</ele><time>2026-04-26T16:30:33Z</time></trkpt><trkpt lat="42.87482179028566" lon="11.19695590863865"><ele>201.25</ele><time>2026-04-26T16:30:34Z</time></trkpt><trkpt lat="42.87478352403932" lon="11.196756995507014"><ele>203.5</ele><time>2026-04-26T16:30:35Z</time></trkpt><trkpt lat="42.87475786656664" lon="11.196556252377066"><ele>205.75</ele><time>2026-04-26T16:30:36Z</time></trkpt><trkpt lat="42.87472846936321" lon="11.196361375972037"><ele>208.0</ele><time>2026-04-26T16:30:37Z</time></trkpt><trkpt lat="42.87469987600891" lon="11.196172269648422"><ele>208.0</ele><time>2026-04-26T16:30:38Z</time></trkpt><trkpt lat="42.87468050495456" lon="11.195980501935344"><ele>208.0</ele><time>2026-04-26T16:30:39Z</time></trkpt><trkpt lat="42.874674700958" lon="11.195772653757654"><ele>208.0</ele><time>2026-04-26T16:30:40Z</time></trkpt><trkpt lat="42.87467364343884" lon="11.195557678865445"><ele>208.0</ele><time>2026-04-26T16:30:41Z</time></trkpt><trkpt lat="42.874676396393" lon="11.19533326713361"><ele>208.0</ele><time>2026-04-26T16:30:42Z</time></trkpt><trkpt lat="42.874678830058905" lon="11.195103619274413"><ele>208.0</ele><time>2026-04-26T16:30:43Z</time></trkpt><trkpt lat="42.87467781708125" lon="11.194874678690045"><ele>207.66666666666666</ele><time>2026-04-26T16:30:44Z</time></trkpt><trkpt lat="42.87467132378174" lon="11.194646634159348"><ele>207.33333333333331</ele><time>2026-04-26T16:30:45Z</time></trkpt><trkpt lat="42.87467688004337" lon="11.194411863005556"><ele>207.0</ele><time>2026-04-26T16:30:46Z</time></trkpt><trkpt lat="42.874682999110746" lon="11.194168685514205"><ele>207.0</ele><time>2026-04-26T16:30:47Z</time></trkpt><trkpt lat="42.87468761156826" lon="11.193919476384698"><ele>207.0</ele><time>2026-04-26T16:30:48Z</time></trkpt><trkpt lat="42.874691369142894" lon="11.19366597633086"><ele>207.0</ele><time>2026-04-26T16:30:49Z</time></trkpt><trkpt lat="42.874690724159905" lon="11.193403474201538"><ele>207.33333333333331</ele><time>2026-04-26T16:30:50Z</time></trkpt><trkpt lat="42.874688419238545" lon="11.19313930877656"><ele>207.66666666666666</ele><time>2026-04-26T16:30:51Z</time></trkpt><trkpt lat="42.87468231896797" lon="11.192870263393237"><ele>208.0</ele><time>2026-04-26T16:30:52Z</time></trkpt><trkpt lat="42.874677318600405" lon="11.192599920418077"><ele>208.0</ele><time>2026-04-26T16:30:53Z</time></trkpt><trkpt lat="42.8746759994029" lon="11.19234149652455"><ele>208.0</ele><time>2026-04-26T16:30:54Z</time></trkpt><trkpt lat="42.87467757312254" lon="11.192086501578633"><ele>208.0</ele><time>2026-04-26T16:30:55Z</time></trkpt><trkpt lat="42.874676445533716" lon="11.191844994268664"><ele>207.66666666666666</ele><time>2026-04-26T16:30:56Z</time></trkpt><trkpt lat="42.87466977199813" lon="11.191595503857288"><ele>207.33333333333331</ele><time>2026-04-26T16:30:57Z</time></trkpt><trkpt lat="42.87464497003513" lon="11.191350306227996"><ele>207.0</ele><time>2026-04-26T16:30:58Z</time></trkpt><trkpt lat="42.87459785842638" lon="11.191099695562983"><ele>205.33333333333331</ele><time>2026-04-26T16:30:59Z</time></trkpt><trkpt lat="42.874535834391374" lon="11.190860768477044"><ele>203.66666666666666</ele><time>2026-04-26T16:31:00Z</time></trkpt><trkpt lat="42.874478019634644" lon="11.190600721484655"><ele>202.0</ele><time>2026-04-26T16:31:01Z</time></trkpt><trkpt lat="42.87441480130389" lon="11.190333822122819"><ele>200.66666666666666</ele><time>2026-04-26T16:31:02Z</time></trkpt><trkpt lat="42.87435364534612" lon="11.190060897417593"><ele>199.33333333333331</ele><time>2026-04-26T16:31:03Z</time></trkpt><trkpt lat="42.874285038007976" lon="11.189784103073059"><ele>198.0</ele><time>2026-04-26T16:31:04Z</time></trkpt><trkpt lat="42.87420549506866" lon="11.18950661092016"><ele>197.33333333333331</ele><time>2026-04-26T16:31:05Z</time></trkpt><trkpt lat="42.8741270150053" lon="11.189243842235584"><ele>196.66666666666666</ele><time>2026-04-26T16:31:06Z</time></trkpt><trkpt lat="42.87404833326457" lon="11.188982759777453"><ele>196.0</ele><time>2026-04-26T16:31:07Z</time></trkpt><trkpt lat="42.873980372884155" lon="11.188735815528986"><ele>196.0</ele><time>2026-04-26T16:31:08Z</time></trkpt><trkpt lat="42.87391593312795" lon="11.188501166048313"><ele>196.0</ele><time>2026-04-26T16:31:09Z</time></trkpt><trkpt lat="42.87386171967817" lon="11.188272838145933"><ele>196.0</ele><time>2026-04-26T16:31:10Z</time></trkpt><trkpt lat="42.87383259518484" lon="11.18804741940589"><ele>195.33333333333331</ele><time>2026-04-26T16:31:11Z</time></trkpt><trkpt lat="42.87383292613299" lon="11.187823543362253"><ele>194.66666666666669</ele><time>2026-04-26T16:31:12Z</time></trkpt><trkpt lat="42.87386578137977" lon="11.187595191260657"><ele>194.0</ele><time>2026-04-26T16:31:13Z</time></trkpt><trkpt lat="42.873906534573855" lon="11.187368177445034"><ele>192.66666666666669</ele><time>2026-04-26T16:31:14Z</time></trkpt><trkpt lat="42.873928249961374" lon="11.187139553394116"><ele>191.33333333333334</ele><time>2026-04-26T16:31:15Z</time></trkpt><trkpt lat="42.87392514826938" lon="11.186905533729904"><ele>190.0</ele><time>2026-04-26T16:31:16Z</time></trkpt><trkpt lat="42.873897873911694" lon="11.18666564117409"><ele>190.66666666666669</ele><time>2026-04-26T16:31:17Z</time></trkpt><trkpt lat="42.87385109869261" lon="11.186437465473198"><ele>191.33333333333334</ele><time>2026-04-26T16:31:18Z</time></trkpt><trkpt lat="42.8737907274932" lon="11.186220153177544"><ele>192.0</ele><time>2026-04-26T16:31:19Z</time></trkpt><trkpt lat="42.87372958340761" lon="11.18600546911183"><ele>192.0</ele><time>2026-04-26T16:31:20Z</time></trkpt><trkpt lat="42.87367296432429" lon="11.18578899016947"><ele>192.0</ele><time>2026-04-26T16:31:21Z</time></trkpt><trkpt lat="42.8736150071664" lon="11.185576574500564"><ele>192.0</ele><time>2026-04-26T16:31:21.999Z</time></trkpt><trkpt lat="42.873552859010786" lon="11.185362674643102"><ele>192.33333333333331</ele><time>2026-04-26T16:31:22.999Z</time></trkpt><trkpt lat="42.87348612399425" lon="11.18514836298081"><ele>192.66666666666666</ele><time>2026-04-26T16:31:23.999Z</time></trkpt><trkpt lat="42.87341905711012" lon="11.184937616170421"><ele>193.0</ele><time>2026-04-26T16:31:24.999Z</time></trkpt><trkpt lat="42.87336555200299" lon="11.184721898382213"><ele>193.0</ele><time>2026-04-26T16:31:25.999Z</time></trkpt><trkpt lat="42.87330331027846" lon="11.184503101504026"><ele>193.0</ele><time>2026-04-26T16:31:26.999Z</time></trkpt><trkpt lat="42.87324369162029" lon="11.184280657064683"><ele>193.0</ele><time>2026-04-26T16:31:27.999Z</time></trkpt><trkpt lat="42.87318983224216" lon="11.18404677396544"><ele>195.33333333333331</ele><time>2026-04-26T16:31:28.999Z</time></trkpt><trkpt lat="42.87314724287426" lon="11.183809493268644"><ele>197.66666666666669</ele><time>2026-04-26T16:31:29.999Z</time></trkpt><trkpt lat="42.87311079780569" lon="11.18356583787833"><ele>200.0</ele><time>2026-04-26T16:31:30.999Z</time></trkpt><trkpt lat="42.87307308045586" lon="11.183332777296007"><ele>201.33333333333334</ele><time>2026-04-26T16:31:31.999Z</time></trkpt><trkpt lat="42.87303671273279" lon="11.183092873271422"><ele>202.66666666666669</ele><time>2026-04-26T16:31:32.999Z</time></trkpt><trkpt lat="42.87299853007028" lon="11.182849890025343"><ele>204.0</ele><time>2026-04-26T16:31:33.999Z</time></trkpt><trkpt lat="42.872952256516335" lon="11.18261567716851"><ele>204.0</ele><time>2026-04-26T16:31:34.999Z</time></trkpt><trkpt lat="42.872902956092275" lon="11.182401566256502"><ele>204.0</ele><time>2026-04-26T16:31:35.999Z</time></trkpt><trkpt lat="42.872849031112445" lon="11.182192588393907"><ele>204.0</ele><time>2026-04-26T16:31:36.999Z</time></trkpt><trkpt lat="42.872778215582386" lon="11.181979129349305"><ele>203.33333333333331</ele><time>2026-04-26T16:31:37.999Z</time></trkpt><trkpt lat="42.87269701143003" lon="11.181766977076688"><ele>202.66666666666666</ele><time>2026-04-26T16:31:38.999Z</time></trkpt><trkpt lat="42.87261050786143" lon="11.181548590419595"><ele>202.0</ele><time>2026-04-26T16:31:39.999Z</time></trkpt><trkpt lat="42.87252515043" lon="11.1813311568963"><ele>200.66666666666666</ele><time>2026-04-26T16:31:40.999Z</time></trkpt><trkpt lat="42.87243791925477" lon="11.181109028266645"><ele>199.33333333333331</ele><time>2026-04-26T16:31:41.999Z</time></trkpt><trkpt lat="42.87235223496992" lon="11.180886080514773"><ele>198.0</ele><time>2026-04-26T16:31:42.999Z</time></trkpt><trkpt lat="42.87226446793481" lon="11.180663682942976"><ele>198.0</ele><time>2026-04-26T16:31:43.999Z</time></trkpt><trkpt lat="42.87218178426707" lon="11.18044792292949"><ele>198.0</ele><time>2026-04-26T16:31:44.999Z</time></trkpt><trkpt lat="42.87210893917818" lon="11.180249391970971"><ele>198.0</ele><time>2026-04-26T16:31:45.999Z</time></trkpt><trkpt lat="42.872057088996044" lon="11.180069477443412"><ele>198.0</ele><time>2026-04-26T16:31:46.999Z</time></trkpt><trkpt lat="42.87203566254621" lon="11.17988395911505"><ele>198.0</ele><time>2026-04-26T16:31:47.999Z</time></trkpt><trkpt lat="42.87205256978837" lon="11.17969935798554"><ele>198.0</ele><time>2026-04-26T16:31:48.999Z</time></trkpt><trkpt lat="42.87210521066817" lon="11.179535631571175"><ele>198.0</ele><time>2026-04-26T16:31:49.999Z</time></trkpt><trkpt lat="42.87218606063515" lon="11.179390735232392"><ele>195.66666666666666</ele><time>2026-04-26T16:31:50.999Z</time></trkpt><trkpt lat="42.87229055447505" lon="11.179250939096981"><ele>193.33333333333331</ele><time>2026-04-26T16:31:51.999Z</time></trkpt><trkpt lat="42.872406803105875" lon="11.17912041745266"><ele>191.0</ele><time>2026-04-26T16:31:52.999Z</time></trkpt><trkpt lat="42.87253669729095" lon="11.178989774494006"><ele>187.33333333333331</ele><time>2026-04-26T16:31:53.999Z</time></trkpt><trkpt lat="42.872667231929704" lon="11.178866501703812"><ele>183.66666666666666</ele><time>2026-04-26T16:31:54.999Z</time></trkpt><trkpt lat="42.87279895979613" lon="11.178750911316788"><ele>180.0</ele><time>2026-04-26T16:31:55.999Z</time></trkpt><trkpt lat="42.87292795568767" lon="11.17864975338309"><ele>180.0</ele><time>2026-04-26T16:31:56.999Z</time></trkpt><trkpt lat="42.873057375054614" lon="11.17854036606209"><ele>180.0</ele><time>2026-04-26T16:31:57.999Z</time></trkpt><trkpt lat="42.87315654814353" lon="11.178392012086649"><ele>180.0</ele><time>2026-04-26T16:31:58.999Z</time></trkpt><trkpt lat="42.87322789081248" lon="11.178208449883126"><ele>179.25</ele><time>2026-04-26T16:31:59.999Z</time></trkpt><trkpt lat="42.87325285961991" lon="11.178006609316046"><ele>178.5</ele><time>2026-04-26T16:32:00.999Z</time></trkpt><trkpt lat="42.873223877157145" lon="11.177810034934817"><ele>177.75</ele><time>2026-04-26T16:32:01.999Z</time></trkpt><trkpt lat="42.87316950729454" lon="11.177625762103029"><ele>177.0</ele><time>2026-04-26T16:32:02.999Z</time></trkpt><trkpt lat="42.87307867803323" lon="11.1774381408158"><ele>178.66666666666666</ele><time>2026-04-26T16:32:03.999Z</time></trkpt><trkpt lat="42.872961014589016" lon="11.177254753404172"><ele>180.33333333333331</ele><time>2026-04-26T16:32:04.999Z</time></trkpt><trkpt lat="42.872840453714275" lon="11.177057790298608"><ele>182.0</ele><time>2026-04-26T16:32:05.999Z</time></trkpt><trkpt lat="42.87272724702836" lon="11.176841098494592"><ele>182.0</ele><time>2026-04-26T16:32:06.999Z</time></trkpt><trkpt lat="42.87261323422043" lon="11.17661843095624"><ele>182.0</ele><time>2026-04-26T16:32:07.999Z</time></trkpt><trkpt lat="42.87248937259549" lon="11.176397753335438"><ele>182.0</ele><time>2026-04-26T16:32:08.999Z</time></trkpt><trkpt lat="42.87236293742339" lon="11.176170733577939"><ele>181.33333333333331</ele><time>2026-04-26T16:32:09.999Z</time></trkpt><trkpt lat="42.872235188640595" lon="11.175953591207739"><ele>180.66666666666666</ele><time>2026-04-26T16:32:10.999Z</time></trkpt><trkpt lat="42.87211564549451" lon="11.175745171260711"><ele>180.0</ele><time>2026-04-26T16:32:11.999Z</time></trkpt><trkpt lat="42.87200414663623" lon="11.175540072960189"><ele>180.0</ele><time>2026-04-26T16:32:12.999Z</time></trkpt><trkpt lat="42.871899658229566" lon="11.175333327758699"><ele>180.0</ele><time>2026-04-26T16:32:13.999Z</time></trkpt><trkpt lat="42.871795362878586" lon="11.175137041025815"><ele>180.0</ele><time>2026-04-26T16:32:14.999Z</time></trkpt><trkpt lat="42.87170109169063" lon="11.174945801005936"><ele>177.66666666666666</ele><time>2026-04-26T16:32:15.999Z</time></trkpt><trkpt lat="42.87160407019781" lon="11.174779938290554"><ele>175.33333333333331</ele><time>2026-04-26T16:32:16.998Z</time></trkpt><trkpt lat="42.87150582012629" lon="11.17462761296338"><ele>173.0</ele><time>2026-04-26T16:32:17.998Z</time></trkpt><trkpt lat="42.87140548150692" lon="11.174466915085446"><ele>173.0</ele><time>2026-04-26T16:32:18.998Z</time></trkpt><trkpt lat="42.87133776604394" lon="11.174274473937514"><ele>173.0</ele><time>2026-04-26T16:32:19.998Z</time></trkpt><trkpt lat="42.871290591093306" lon="11.174065778788066"><ele>173.0</ele><time>2026-04-26T16:32:20.998Z</time></trkpt><trkpt lat="42.871271357438374" lon="11.173841168180278"><ele>172.66666666666666</ele><time>2026-04-26T16:32:21.998Z</time></trkpt><trkpt lat="42.87127492697951" lon="11.173603370928612"><ele>172.33333333333334</ele><time>2026-04-26T16:32:22.998Z</time></trkpt><trkpt lat="42.871276096702424" lon="11.173348731229577"><ele>172.0</ele><time>2026-04-26T16:32:23.998Z</time></trkpt><trkpt lat="42.87126927982679" lon="11.173090838841558"><ele>169.66666666666669</ele><time>2026-04-26T16:32:24.998Z</time></trkpt><trkpt lat="42.87127932763695" lon="11.172834664778115"><ele>167.33333333333334</ele><time>2026-04-26T16:32:25.998Z</time></trkpt><trkpt lat="42.871322547185635" lon="11.172594606378816"><ele>165.0</ele><time>2026-04-26T16:32:26.998Z</time></trkpt><trkpt lat="42.87137005247169" lon="11.172380356807702"><ele>162.66666666666666</ele><time>2026-04-26T16:32:27.998Z</time></trkpt><trkpt lat="42.87139771593941" lon="11.172159741744501"><ele>160.33333333333331</ele><time>2026-04-26T16:32:28.998Z</time></trkpt><trkpt lat="42.87139635173427" lon="11.171948486603055"><ele>158.0</ele><time>2026-04-26T16:32:29.998Z</time></trkpt><trkpt lat="42.871378987356465" lon="11.171747473824666"><ele>158.0</ele><time>2026-04-26T16:32:30.998Z</time></trkpt><trkpt lat="42.87133846566152" lon="11.17154497077608"><ele>158.0</ele><time>2026-04-26T16:32:31.998Z</time></trkpt><trkpt lat="42.87127559993217" lon="11.171344115164063"><ele>158.0</ele><time>2026-04-26T16:32:33Z</time></trkpt><trkpt lat="42.871193229128494" lon="11.171148561467275"><ele>155.0</ele><time>2026-04-26T16:32:34Z</time></trkpt><trkpt lat="42.87109214503074" lon="11.170961436173718"><ele>152.0</ele><time>2026-04-26T16:32:35Z</time></trkpt><trkpt lat="42.87096601215437" lon="11.170791237010986"><ele>149.0</ele><time>2026-04-26T16:32:36Z</time></trkpt><trkpt lat="42.87083293879884" lon="11.170637047882046"><ele>148.33333333333331</ele><time>2026-04-26T16:32:37Z</time></trkpt><trkpt lat="42.87070291078427" lon="11.170491162096377"><ele>147.66666666666666</ele><time>2026-04-26T16:32:38Z</time></trkpt><trkpt lat="42.87057977169163" lon="11.170342963031528"><ele>147.0</ele><time>2026-04-26T16:32:39Z</time></trkpt><trkpt lat="42.87046069937247" lon="11.170197182212624"><ele>147.0</ele><time>2026-04-26T16:32:40Z</time></trkpt><trkpt lat="42.87034436698284" lon="11.170053329087493"><ele>147.0</ele><time>2026-04-26T16:32:41Z</time></trkpt><trkpt lat="42.870229107128935" lon="11.169916277714398"><ele>147.0</ele><time>2026-04-26T16:32:42Z</time></trkpt><trkpt lat="42.87011836063219" lon="11.16977818725543"><ele>146.0</ele><time>2026-04-26T16:32:43Z</time></trkpt><trkpt lat="42.87000473803961" lon="11.16964059052054"><ele>145.0</ele><time>2026-04-26T16:32:44Z</time></trkpt><trkpt lat="42.86989526720392" lon="11.169503141235074"><ele>144.0</ele><time>2026-04-26T16:32:45Z</time></trkpt><trkpt lat="42.86978834014568" lon="11.16936988561169"><ele>143.0</ele><time>2026-04-26T16:32:46Z</time></trkpt><trkpt lat="42.86968674769264" lon="11.169238164075564"><ele>143.0</ele><time>2026-04-26T16:32:47Z</time></trkpt><trkpt lat="42.86959139282712" lon="11.169106963191664"><ele>143.0</ele><time>2026-04-26T16:32:48Z</time></trkpt><trkpt lat="42.86951484267608" lon="11.168973017390027"><ele>143.0</ele><time>2026-04-26T16:32:49Z</time></trkpt><trkpt lat="42.86945768488578" lon="11.16884839889258"><ele>143.0</ele><time>2026-04-26T16:32:50Z</time></trkpt><trkpt lat="42.86942032276502" lon="11.16871312290307"><ele>141.20000000000002</ele><time>2026-04-26T16:32:51Z</time></trkpt><trkpt lat="42.86939326980425" lon="11.168580016168082"><ele>139.4</ele><time>2026-04-26T16:32:52Z</time></trkpt><trkpt lat="42.86936947622072" lon="11.168448563988287"><ele>137.60000000000002</ele><time>2026-04-26T16:32:53Z</time></trkpt><trkpt lat="42.86934478520402" lon="11.16831550244408"><ele>135.8</ele><time>2026-04-26T16:32:54Z</time></trkpt><trkpt lat="42.86932134420127" lon="11.168190335137702"><ele>134.0</ele><time>2026-04-26T16:32:55Z</time></trkpt><trkpt lat="42.86930306733655" lon="11.168072956487464"><ele>133.5</ele><time>2026-04-26T16:32:56Z</time></trkpt><trkpt lat="42.8692873585343" lon="11.16796231776275"><ele>133.0</ele><time>2026-04-26T16:32:57Z</time></trkpt><trkpt lat="42.86927690466524" lon="11.167856033060255"><ele>132.5</ele><time>2026-04-26T16:32:58Z</time></trkpt><trkpt lat="42.869269568270234" lon="11.167748591045651"><ele>132.0</ele><time>2026-04-26T16:32:59Z</time></trkpt><trkpt lat="42.86926368226308" lon="11.167635738074015"><ele>131.5</ele><time>2026-04-26T16:33:00Z</time></trkpt><trkpt lat="42.86924807092274" lon="11.167512021748818"><ele>131.0</ele><time>2026-04-26T16:33:01Z</time></trkpt><trkpt lat="42.86921936712989" lon="11.16737900730829"><ele>132.0</ele><time>2026-04-26T16:33:02Z</time></trkpt><trkpt lat="42.86917760063926" lon="11.16723860661987"><ele>133.0</ele><time>2026-04-26T16:33:03Z</time></trkpt><trkpt lat="42.86912718693807" lon="11.167095274559802"><ele>134.0</ele><time>2026-04-26T16:33:04Z</time></trkpt><trkpt lat="42.86907200698224" lon="11.166958225607237"><ele>135.0</ele><time>2026-04-26T16:33:05Z</time></trkpt><trkpt lat="42.869016070079105" lon="11.166820473376161"><ele>135.0</ele><time>2026-04-26T16:33:06Z</time></trkpt><trkpt lat="42.868957829653056" lon="11.166683969001374"><ele>135.0</ele><time>2026-04-26T16:33:07Z</time></trkpt><trkpt lat="42.86888149398937" lon="11.166559164813355"><ele>135.0</ele><time>2026-04-26T16:33:08Z</time></trkpt><trkpt lat="42.868793672530266" lon="11.16644086396318"><ele>135.0</ele><time>2026-04-26T16:33:09Z</time></trkpt><trkpt lat="42.868698287708916" lon="11.166323597602458"><ele>136.25</ele><time>2026-04-26T16:33:10Z</time></trkpt><trkpt lat="42.86860213895911" lon="11.166200986505082"><ele>137.5</ele><time>2026-04-26T16:33:11Z</time></trkpt><trkpt lat="42.868504163057224" lon="11.166070474842073"><ele>138.75</ele><time>2026-04-26T16:33:12Z</time></trkpt><trkpt lat="42.86840331740086" lon="11.165937055573767"><ele>140.0</ele><time>2026-04-26T16:33:13Z</time></trkpt><trkpt lat="42.86830464372762" lon="11.165806544485603"><ele>135.75</ele><time>2026-04-26T16:33:14Z</time></trkpt><trkpt lat="42.868202107067226" lon="11.165678377816228"><ele>131.5</ele><time>2026-04-26T16:33:15Z</time></trkpt><trkpt lat="42.86810164835101" lon="11.165548686205806"><ele>127.25</ele><time>2026-04-26T16:33:16Z</time></trkpt><trkpt lat="42.86800207248565" lon="11.16541758013038"><ele>123.0</ele><time>2026-04-26T16:33:17Z</time></trkpt><trkpt lat="42.86790475785267" lon="11.165287473679395"><ele>123.0</ele><time>2026-04-26T16:33:18Z</time></trkpt><trkpt lat="42.86781002430243" lon="11.165156652543832"><ele>123.0</ele><time>2026-04-26T16:33:19Z</time></trkpt><trkpt lat="42.86771765150628" lon="11.165024969817809"><ele>123.0</ele><time>2026-04-26T16:33:20Z</time></trkpt><trkpt lat="42.867622496721864" lon="11.164900827824457"><ele>123.0</ele><time>2026-04-26T16:33:21Z</time></trkpt><trkpt lat="42.86751911525614" lon="11.164790167454234"><ele>123.0</ele><time>2026-04-26T16:33:22Z</time></trkpt><trkpt lat="42.867403789031556" lon="11.164706616550278"><ele>123.0</ele><time>2026-04-26T16:33:23Z</time></trkpt><trkpt lat="42.867280446395995" lon="11.164637419957792"><ele>123.0</ele><time>2026-04-26T16:33:24Z</time></trkpt><trkpt lat="42.867153644235614" lon="11.164575469212199"><ele>123.0</ele><time>2026-04-26T16:33:25Z</time></trkpt><trkpt lat="42.867018201836906" lon="11.164526711193602"><ele>123.0</ele><time>2026-04-26T16:33:26Z</time></trkpt><trkpt lat="42.866876757500386" lon="11.164493086237831"><ele>123.0</ele><time>2026-04-26T16:33:27Z</time></trkpt><trkpt lat="42.866731564527626" lon="11.164488564994228"><ele>123.0</ele><time>2026-04-26T16:33:28Z</time></trkpt><trkpt lat="42.86658628112776" lon="11.164502422376016"><ele>123.0</ele><time>2026-04-26T16:33:29Z</time></trkpt><trkpt lat="42.86644091528372" lon="11.164546212791576"><ele>122.0</ele><time>2026-04-26T16:33:30Z</time></trkpt><trkpt lat="42.86630089359553" lon="11.164605820498611"><ele>121.0</ele><time>2026-04-26T16:33:31Z</time></trkpt><trkpt lat="42.86616650810249" lon="11.164675572488163"><ele>120.0</ele><time>2026-04-26T16:33:31.999Z</time></trkpt><trkpt lat="42.86603792195962" lon="11.164759852995108"><ele>119.0</ele><time>2026-04-26T16:33:32.999Z</time></trkpt><trkpt lat="42.86590809740129" lon="11.16485475103993"><ele>121.0</ele><time>2026-04-26T16:33:33.999Z</time></trkpt><trkpt lat="42.86577904288691" lon="11.164966170890564"><ele>123.0</ele><time>2026-04-26T16:33:34.999Z</time></trkpt><trkpt lat="42.86563869449573" lon="11.165058340212223"><ele>125.0</ele><time>2026-04-26T16:33:35.999Z</time></trkpt><trkpt lat="42.865483817496084" lon="11.165126773685863"><ele>125.0</ele><time>2026-04-26T16:33:36.999Z</time></trkpt><trkpt lat="42.86530557395881" lon="11.165168306137247"><ele>125.0</ele><time>2026-04-26T16:33:37.999Z</time></trkpt><trkpt lat="42.86512901523463" lon="11.165181078826384"><ele>125.0</ele><time>2026-04-26T16:33:38.999Z</time></trkpt><trkpt lat="42.86496223973634" lon="11.165171117497328"><ele>121.33333333333333</ele><time>2026-04-26T16:33:39.999Z</time></trkpt><trkpt lat="42.86479045219352" lon="11.165144590995991"><ele>117.66666666666666</ele><time>2026-04-26T16:33:40.999Z</time></trkpt><trkpt lat="42.86461296885405" lon="11.165116837910753"><ele>114.0</ele><time>2026-04-26T16:33:41.999Z</time></trkpt><trkpt lat="42.86443112609155" lon="11.165096373985698"><ele>112.33333333333334</ele><time>2026-04-26T16:33:42.999Z</time></trkpt><trkpt lat="42.86425557006627" lon="11.16506861896201"><ele>110.66666666666667</ele><time>2026-04-26T16:33:43.999Z</time></trkpt><trkpt lat="42.864061772825366" lon="11.16504563000281"><ele>109.0</ele><time>2026-04-26T16:33:44.999Z</time></trkpt><trkpt lat="42.86386438220151" lon="11.1650206736718"><ele>109.0</ele><time>2026-04-26T16:33:45.999Z</time></trkpt><trkpt lat="42.86366527188618" lon="11.164995375918965"><ele>109.0</ele><time>2026-04-26T16:33:46.999Z</time></trkpt><trkpt lat="42.86346847955367" lon="11.164976787171634"><ele>109.0</ele><time>2026-04-26T16:33:47.999Z</time></trkpt><trkpt lat="42.863281364192936" lon="11.164954072836943"><ele>108.66666666666667</ele><time>2026-04-26T16:33:48.999Z</time></trkpt><trkpt lat="42.86309334768273" lon="11.164929907129945"><ele>108.33333333333334</ele><time>2026-04-26T16:33:49.999Z</time></trkpt><trkpt lat="42.86291069996017" lon="11.164898672609224"><ele>108.0</ele><time>2026-04-26T16:33:50.999Z</time></trkpt><trkpt lat="42.8627324186076" lon="11.164860014004454"><ele>106.0</ele><time>2026-04-26T16:33:51.999Z</time></trkpt><trkpt lat="42.86254640967673" lon="11.164803061306658"><ele>104.0</ele><time>2026-04-26T16:33:52.999Z</time></trkpt><trkpt lat="42.862359201029264" lon="11.1647353833705"><ele>102.0</ele><time>2026-04-26T16:33:53.999Z</time></trkpt><trkpt lat="42.86216867302804" lon="11.164651008676113"><ele>102.0</ele><time>2026-04-26T16:33:54.999Z</time></trkpt><trkpt lat="42.861975363695514" lon="11.164560777746129"><ele>102.0</ele><time>2026-04-26T16:33:55.999Z</time></trkpt><trkpt lat="42.86178360137716" lon="11.164468990484176"><ele>102.0</ele><time>2026-04-26T16:33:56.999Z</time></trkpt><trkpt lat="42.861580591534576" lon="11.16436980909601"><ele>102.66666666666666</ele><time>2026-04-26T16:33:57.999Z</time></trkpt><trkpt lat="42.86137596593159" lon="11.16426482268511"><ele>103.33333333333333</ele><time>2026-04-26T16:33:58.999Z</time></trkpt><trkpt lat="42.8611677642742" lon="11.164160850277847"><ele>104.0</ele><time>2026-04-26T16:33:59.999Z</time></trkpt><trkpt lat="42.86095427180226" lon="11.16405865693004"><ele>102.0</ele><time>2026-04-26T16:34:00.999Z</time></trkpt><trkpt lat="42.860734701074364" lon="11.163953936658988"><ele>100.0</ele><time>2026-04-26T16:34:01.999Z</time></trkpt><trkpt lat="42.86051310051212" lon="11.163845836480107"><ele>100.0</ele><time>2026-04-26T16:34:02.999Z</time></trkpt><trkpt lat="42.860292934460276" lon="11.163733164521492"><ele>100.0</ele><time>2026-04-26T16:34:03.999Z</time></trkpt><trkpt lat="42.86006912314071" lon="11.163619334290562"><ele>99.5</ele><time>2026-04-26T16:34:04.999Z</time></trkpt><trkpt lat="42.85984520182775" lon="11.163508667186802"><ele>99.0</ele><time>2026-04-26T16:34:05.999Z</time></trkpt><trkpt lat="42.859619568269125" lon="11.163399528932306"><ele>99.0</ele><time>2026-04-26T16:34:06.999Z</time></trkpt><trkpt lat="42.85939517259288" lon="11.163289839316505"><ele>99.0</ele><time>2026-04-26T16:34:07.999Z</time></trkpt><trkpt lat="42.859173945100274" lon="11.16317733674256"><ele>95.5</ele><time>2026-04-26T16:34:08.999Z</time></trkpt><trkpt lat="42.858957466186496" lon="11.163065565389248"><ele>92.0</ele><time>2026-04-26T16:34:09.999Z</time></trkpt><trkpt lat="42.858742014451884" lon="11.162948827045783"><ele>92.0</ele><time>2026-04-26T16:34:10.999Z</time></trkpt><trkpt lat="42.85852109966922" lon="11.162847231078047"><ele>92.0</ele><time>2026-04-26T16:34:11.999Z</time></trkpt><trkpt lat="42.85830196316342" lon="11.162746924138261"><ele>91.0</ele><time>2026-04-26T16:34:12.999Z</time></trkpt><trkpt lat="42.85808566392848" lon="11.162636869927772"><ele>90.0</ele><time>2026-04-26T16:34:13.999Z</time></trkpt><trkpt lat="42.85786961251591" lon="11.162526277337099"><ele>90.0</ele><time>2026-04-26T16:34:14.999Z</time></trkpt><trkpt lat="42.85765661812993" lon="11.162418291508633"><ele>90.0</ele><time>2026-04-26T16:34:15.999Z</time></trkpt><trkpt lat="42.85744381679129" lon="11.1623141033096"><ele>88.33333333333333</ele><time>2026-04-26T16:34:16.999Z</time></trkpt><trkpt lat="42.85723372010135" lon="11.16221425683852"><ele>86.66666666666666</ele><time>2026-04-26T16:34:17.999Z</time></trkpt><trkpt lat="42.85702571104135" lon="11.162111603364409"><ele>85.0</ele><time>2026-04-26T16:34:18.999Z</time></trkpt><trkpt lat="42.856817521804096" lon="11.16200733337377"><ele>84.0</ele><time>2026-04-26T16:34:19.999Z</time></trkpt><trkpt lat="42.85660645831435" lon="11.161908512440517"><ele>83.0</ele><time>2026-04-26T16:34:20.999Z</time></trkpt><trkpt lat="42.856387898524595" lon="11.16182746876345"><ele>83.0</ele><time>2026-04-26T16:34:21.999Z</time></trkpt><trkpt lat="42.856159928414755" lon="11.161765528738707"><ele>83.0</ele><time>2026-04-26T16:34:22.999Z</time></trkpt><trkpt lat="42.855928402628585" lon="11.161722125696507"><ele>82.5</ele><time>2026-04-26T16:34:23.999Z</time></trkpt><trkpt lat="42.85569554770149" lon="11.16168616445087"><ele>82.0</ele><time>2026-04-26T16:34:24.999Z</time></trkpt><trkpt lat="42.8554608122707" lon="11.16165336551683"><ele>82.0</ele><time>2026-04-26T16:34:25.999Z</time></trkpt><trkpt lat="42.85522382268407" lon="11.161611966528945"><ele>82.0</ele><time>2026-04-26T16:34:26.998Z</time></trkpt><trkpt lat="42.854988237197055" lon="11.161568007486714"><ele>82.0</ele><time>2026-04-26T16:34:27.998Z</time></trkpt><trkpt lat="42.85475062201467" lon="11.161523279923536"><ele>82.0</ele><time>2026-04-26T16:34:28.998Z</time></trkpt><trkpt lat="42.85451461382679" lon="11.16147905992717"><ele>81.0</ele><time>2026-04-26T16:34:29.998Z</time></trkpt><trkpt lat="42.85427731669052" lon="11.161431146508418"><ele>80.0</ele><time>2026-04-26T16:34:30.998Z</time></trkpt><trkpt lat="42.854050986901896" lon="11.161381797886811"><ele>80.0</ele><time>2026-04-26T16:34:31.998Z</time></trkpt><trkpt lat="42.8538316080959" lon="11.161306273573379"><ele>80.0</ele><time>2026-04-26T16:34:32.998Z</time></trkpt><trkpt lat="42.853612975570435" lon="11.161200813208925"><ele>79.0</ele><time>2026-04-26T16:34:33.998Z</time></trkpt><trkpt lat="42.85340108118542" lon="11.161070412830663"><ele>78.0</ele><time>2026-04-26T16:34:34.998Z</time></trkpt><trkpt lat="42.85319616106906" lon="11.160924668034085"><ele>78.0</ele><time>2026-04-26T16:34:35.998Z</time></trkpt><trkpt lat="42.85299867461237" lon="11.160755983052393"><ele>78.0</ele><time>2026-04-26T16:34:36.998Z</time></trkpt><trkpt lat="42.85281793563111" lon="11.160567934416754"><ele>78.0</ele><time>2026-04-26T16:34:37.998Z</time></trkpt><trkpt lat="42.85263256551422" lon="11.16038998393601"><ele>78.0</ele><time>2026-04-26T16:34:39Z</time></trkpt><trkpt lat="42.85244996599999" lon="11.160203579812318"><ele>77.5</ele><time>2026-04-26T16:34:40Z</time></trkpt><trkpt lat="42.852265221154056" lon="11.160012610859258"><ele>77.0</ele><time>2026-04-26T16:34:41Z</time></trkpt><trkpt lat="42.852082632866214" lon="11.159823871689525"><ele>77.0</ele><time>2026-04-26T16:34:42Z</time></trkpt><trkpt lat="42.85189886074688" lon="11.159633908663634"><ele>77.0</ele><time>2026-04-26T16:34:43Z</time></trkpt><trkpt lat="42.851713240265795" lon="11.159443925851166"><ele>75.5</ele><time>2026-04-26T16:34:44Z</time></trkpt><trkpt lat="42.85151546391435" lon="11.159271232423494"><ele>74.0</ele><time>2026-04-26T16:34:45Z</time></trkpt><trkpt lat="42.85133192237838" lon="11.159077658268993"><ele>74.0</ele><time>2026-04-26T16:34:46Z</time></trkpt><trkpt lat="42.85114818159078" lon="11.158885679714578"><ele>74.0</ele><time>2026-04-26T16:34:47Z</time></trkpt><trkpt lat="42.850962777943955" lon="11.158694081551378"><ele>72.5</ele><time>2026-04-26T16:34:48Z</time></trkpt><trkpt lat="42.85077373075407" lon="11.158504338299243"><ele>71.0</ele><time>2026-04-26T16:34:49Z</time></trkpt><trkpt lat="42.850590145820156" lon="11.158317971787602"><ele>71.0</ele><time>2026-04-26T16:34:50Z</time></trkpt><trkpt lat="42.85040990096154" lon="11.158136216086618"><ele>71.0</ele><time>2026-04-26T16:34:51Z</time></trkpt><trkpt lat="42.85022652030523" lon="11.157971930600608"><ele>71.0</ele><time>2026-04-26T16:34:52Z</time></trkpt><trkpt lat="42.85003250826055" lon="11.157826794828217"><ele>69.0</ele><time>2026-04-26T16:34:53Z</time></trkpt><trkpt lat="42.8498230842412" lon="11.157715394879592"><ele>67.0</ele><time>2026-04-26T16:34:54Z</time></trkpt><trkpt lat="42.84959954309879" lon="11.157643139861287"><ele>67.0</ele><time>2026-04-26T16:34:55Z</time></trkpt><trkpt lat="42.84937023858087" lon="11.157593445556095"><ele>67.0</ele><time>2026-04-26T16:34:56Z</time></trkpt><trkpt lat="42.84913809986922" lon="11.15754006451398"><ele>65.5</ele><time>2026-04-26T16:34:57Z</time></trkpt><trkpt lat="42.84890853278112" lon="11.157475970313572"><ele>64.0</ele><time>2026-04-26T16:34:58Z</time></trkpt><trkpt lat="42.84867941811073" lon="11.157392802401615"><ele>63.0</ele><time>2026-04-26T16:34:59Z</time></trkpt><trkpt lat="42.84845396836809" lon="11.157287888951203"><ele>62.0</ele><time>2026-04-26T16:35:00Z</time></trkpt><trkpt lat="42.84822826876938" lon="11.15716162567527"><ele>62.0</ele><time>2026-04-26T16:35:01Z</time></trkpt><trkpt lat="42.84800234527359" lon="11.157023918984224"><ele>62.0</ele><time>2026-04-26T16:35:02Z</time></trkpt><trkpt lat="42.84777562347526" lon="11.15687951355862"><ele>60.5</ele><time>2026-04-26T16:35:03Z</time></trkpt><trkpt lat="42.84754667572748" lon="11.15673493315583"><ele>59.0</ele><time>2026-04-26T16:35:04Z</time></trkpt><trkpt lat="42.847316581542735" lon="11.15659146798044"><ele>59.0</ele><time>2026-04-26T16:35:05Z</time></trkpt><trkpt lat="42.847085325645395" lon="11.156445871091154"><ele>59.0</ele><time>2026-04-26T16:35:06Z</time></trkpt><trkpt lat="42.84684522144469" lon="11.156296505186347"><ele>58.0</ele><time>2026-04-26T16:35:07Z</time></trkpt><trkpt lat="42.846596020355015" lon="11.156141538197748"><ele>57.0</ele><time>2026-04-26T16:35:08Z</time></trkpt><trkpt lat="42.84633107323508" lon="11.155975796010992"><ele>57.0</ele><time>2026-04-26T16:35:09Z</time></trkpt><trkpt lat="42.846060641720435" lon="11.155805651888857"><ele>57.0</ele><time>2026-04-26T16:35:10Z</time></trkpt><trkpt lat="42.845805443493404" lon="11.155642696537818"><ele>56.5</ele><time>2026-04-26T16:35:11Z</time></trkpt><trkpt lat="42.84556581909249" lon="11.155488019205846"><ele>56.0</ele><time>2026-04-26T16:35:12Z</time></trkpt><trkpt lat="42.84533596887719" lon="11.155342363151982"><ele>56.0</ele><time>2026-04-26T16:35:13Z</time></trkpt><trkpt lat="42.845105416905255" lon="11.155189187095653"><ele>56.0</ele><time>2026-04-26T16:35:14Z</time></trkpt><trkpt lat="42.844865273610836" lon="11.155023598657644"><ele>56.0</ele><time>2026-04-26T16:35:15Z</time></trkpt><trkpt lat="42.84461942418144" lon="11.154869685346409"><ele>56.0</ele><time>2026-04-26T16:35:16Z</time></trkpt><trkpt lat="42.844362648640534" lon="11.15471593189037"><ele>56.0</ele><time>2026-04-26T16:35:17Z</time></trkpt><trkpt lat="42.84410167722597" lon="11.154553066917883"><ele>56.0</ele><time>2026-04-26T16:35:18Z</time></trkpt><trkpt lat="42.84384016181155" lon="11.154377404937504"><ele>56.0</ele><time>2026-04-26T16:35:19Z</time></trkpt><trkpt lat="42.84358372074928" lon="11.15420183569625"><ele>56.0</ele><time>2026-04-26T16:35:20Z</time></trkpt><trkpt lat="42.84332750791618" lon="11.154035488325201"><ele>55.5</ele><time>2026-04-26T16:35:21Z</time></trkpt><trkpt lat="42.84307184804422" lon="11.153877135383874"><ele>55.0</ele><time>2026-04-26T16:35:22Z</time></trkpt><trkpt lat="42.84282174183133" lon="11.153716555969504"><ele>54.0</ele><time>2026-04-26T16:35:23Z</time></trkpt><trkpt lat="42.84257503935305" lon="11.153558468317765"><ele>53.0</ele><time>2026-04-26T16:35:24Z</time></trkpt><trkpt lat="42.84232641854611" lon="11.153399131738787"><ele>53.0</ele><time>2026-04-26T16:35:25Z</time></trkpt><trkpt lat="42.8420777999859" lon="11.153237016208724"><ele>53.0</ele><time>2026-04-26T16:35:26Z</time></trkpt><trkpt lat="42.841826775142735" lon="11.153070077727843"><ele>54.0</ele><time>2026-04-26T16:35:27Z</time></trkpt><trkpt lat="42.841574964360305" lon="11.152899925185688"><ele>55.0</ele><time>2026-04-26T16:35:28Z</time></trkpt><trkpt lat="42.841323207515906" lon="11.15272688930666"><ele>55.0</ele><time>2026-04-26T16:35:29Z</time></trkpt><trkpt lat="42.841078848680596" lon="11.152542484144828"><ele>55.0</ele><time>2026-04-26T16:35:30Z</time></trkpt><trkpt lat="42.840839489415906" lon="11.152350390506891"><ele>55.0</ele><time>2026-04-26T16:35:31Z</time></trkpt><trkpt lat="42.84060586303583" lon="11.152149803798565"><ele>55.0</ele><time>2026-04-26T16:35:32Z</time></trkpt><trkpt lat="42.84037851880015" lon="11.151947141880155"><ele>55.0</ele><time>2026-04-26T16:35:33Z</time></trkpt><trkpt lat="42.84015124403666" lon="11.15175047948349"><ele>55.0</ele><time>2026-04-26T16:35:34Z</time></trkpt><trkpt lat="42.839926049827895" lon="11.151561180383263"><ele>59.0</ele><time>2026-04-26T16:35:35Z</time></trkpt><trkpt lat="42.83970865330379" lon="11.151374277293245"><ele>63.0</ele><time>2026-04-26T16:35:36Z</time></trkpt><trkpt lat="42.839494705468375" lon="11.151187711182954"><ele>60.0</ele><time>2026-04-26T16:35:36.999Z</time></trkpt><trkpt lat="42.83928419812966" lon="11.151003090883199"><ele>57.0</ele><time>2026-04-26T16:35:37.999Z</time></trkpt><trkpt lat="42.839079200692375" lon="11.150826687480999"><ele>59.5</ele><time>2026-04-26T16:35:38.999Z</time></trkpt><trkpt lat="42.83888164106526" lon="11.150656173747914"><ele>62.0</ele><time>2026-04-26T16:35:39.999Z</time></trkpt><trkpt lat="42.838689985806" lon="11.150488239042623"><ele>62.0</ele><time>2026-04-26T16:35:40.999Z</time></trkpt><trkpt lat="42.838499264220175" lon="11.150324953346797"><ele>62.0</ele><time>2026-04-26T16:35:41.999Z</time></trkpt><trkpt lat="42.838312517184356" lon="11.150159280737409"><ele>62.0</ele><time>2026-04-26T16:35:42.999Z</time></trkpt><trkpt lat="42.838129534155016" lon="11.149982827334794"><ele>58.66666666666667</ele><time>2026-04-26T16:35:43.999Z</time></trkpt><trkpt lat="42.83795107420777" lon="11.149799736228546"><ele>55.33333333333333</ele><time>2026-04-26T16:35:44.999Z</time></trkpt><trkpt lat="42.83777242144516" lon="11.149610662937912"><ele>52.0</ele><time>2026-04-26T16:35:45.999Z</time></trkpt><trkpt lat="42.83759621141839" lon="11.149417597753263"><ele>50.666666666666664</ele><time>2026-04-26T16:35:46.999Z</time></trkpt><trkpt lat="42.837429136774055" lon="11.149223112387277"><ele>49.33333333333333</ele><time>2026-04-26T16:35:47.999Z</time></trkpt><trkpt lat="42.83727999837335" lon="11.149041238042274"><ele>48.0</ele><time>2026-04-26T16:35:48.999Z</time></trkpt><trkpt lat="42.83714352092987" lon="11.148850930549184"><ele>47.333333333333336</ele><time>2026-04-26T16:35:49.999Z</time></trkpt><trkpt lat="42.837025066875604" lon="11.148647956164035"><ele>46.66666666666667</ele><time>2026-04-26T16:35:50.999Z</time></trkpt><trkpt lat="42.836936591385296" lon="11.14844077680349"><ele>46.0</ele><time>2026-04-26T16:35:51.999Z</time></trkpt><trkpt lat="42.83691232570912" lon="11.148246623598405"><ele>46.5</ele><time>2026-04-26T16:35:52.999Z</time></trkpt><trkpt lat="42.836878419874175" lon="11.148107506764129"><ele>47.0</ele><time>2026-04-26T16:35:53.999Z</time></trkpt><trkpt lat="42.83685983311005" lon="11.148016846221104"><ele>47.5</ele><time>2026-04-26T16:35:54.999Z</time></trkpt><trkpt lat="42.836833333565046" lon="11.147888683561442"><ele>48.0</ele><time>2026-04-26T16:35:56.999Z</time></trkpt><trkpt lat="42.836810532910796" lon="11.147778274312568"><ele>48.49999999999999</ele><time>2026-04-26T16:35:59.999Z</time></trkpt><trkpt lat="42.836789755136614" lon="11.147677661319568"><ele>49.0</ele><time>2026-04-26T16:36:01.999Z</time></trkpt><trkpt lat="42.83664021842943" lon="11.147732997821693"><ele>49.0</ele><time>2026-04-26T16:36:02.999Z</time></trkpt><trkpt lat="42.836556102368846" lon="11.147776846569334"><ele>49.0</ele><time>2026-04-26T16:36:03.999Z</time></trkpt><trkpt lat="42.83645853039942" lon="11.147825430822001"><ele>49.0</ele><time>2026-04-26T16:36:04.999Z</time></trkpt><trkpt lat="42.83637094082521" lon="11.147879927415742"><ele>49.0</ele><time>2026-04-26T16:36:05.999Z</time></trkpt><trkpt lat="42.83629358571091" lon="11.147923658494769"><ele>49.0</ele><time>2026-04-26T16:36:06.999Z</time></trkpt><trkpt lat="42.836238152094126" lon="11.148021647391941"><ele>49.0</ele><time>2026-04-26T16:36:07.999Z</time></trkpt><trkpt lat="42.83617736498886" lon="11.148115406659866"><ele>49.0</ele><time>2026-04-26T16:36:08.999Z</time></trkpt><trkpt lat="42.83612169996013" lon="11.148201071979239"><ele>49.0</ele><time>2026-04-26T16:36:09.999Z</time></trkpt><trkpt lat="42.836057855703615" lon="11.148303458727916"><ele>49.0</ele><time>2026-04-26T16:36:10.999Z</time></trkpt><trkpt lat="42.836002759838166" lon="11.148390938681574"><ele>49.0</ele><time>2026-04-26T16:36:11.999Z</time></trkpt><trkpt lat="42.835981644224" lon="11.148125100718497"><ele>48.5</ele><time>2026-04-26T16:36:12.999Z</time></trkpt><trkpt lat="42.83592354632287" lon="11.148029679277055"><ele>48.0</ele><time>2026-04-26T16:36:13.999Z</time></trkpt><trkpt lat="42.83584115734751" lon="11.147931427765531"><ele>47.5</ele><time>2026-04-26T16:36:14.999Z</time></trkpt><trkpt lat="42.83573687019918" lon="11.147807732730511"><ele>47.0</ele><time>2026-04-26T16:36:15.999Z</time></trkpt><trkpt lat="42.83562946753224" lon="11.147679997051101"><ele>47.0</ele><time>2026-04-26T16:36:16.999Z</time></trkpt><trkpt lat="42.83553258045358" lon="11.147564644660207"><ele>47.0</ele><time>2026-04-26T16:36:17.999Z</time></trkpt><trkpt lat="42.835416995367495" lon="11.147427030667595"><ele>47.0</ele><time>2026-04-26T16:36:18.999Z</time></trkpt><trkpt lat="42.835291679251334" lon="11.14729664495761"><ele>47.0</ele><time>2026-04-26T16:36:19.999Z</time></trkpt><trkpt lat="42.83516924401645" lon="11.14713206139419"><ele>46.0</ele><time>2026-04-26T16:36:20.999Z</time></trkpt><trkpt lat="42.83503287054018" lon="11.146969327573515"><ele>45.0</ele><time>2026-04-26T16:36:21.999Z</time></trkpt><trkpt lat="42.834894722866714" lon="11.14680268325419"><ele>44.0</ele><time>2026-04-26T16:36:22.999Z</time></trkpt><trkpt lat="42.83475313705248" lon="11.146631891572218"><ele>44.0</ele><time>2026-04-26T16:36:23.999Z</time></trkpt><trkpt lat="42.834602772386695" lon="11.146450510145996"><ele>44.0</ele><time>2026-04-26T16:36:24.999Z</time></trkpt><trkpt lat="42.83445041214943" lon="11.146266721551493"><ele>44.0</ele><time>2026-04-26T16:36:25.999Z</time></trkpt><trkpt lat="42.83429418414898" lon="11.146078267339764"><ele>44.0</ele><time>2026-04-26T16:36:26.999Z</time></trkpt><trkpt lat="42.834132992775295" lon="11.145883825942747"><ele>44.0</ele><time>2026-04-26T16:36:27.999Z</time></trkpt><trkpt lat="42.833976300748205" lon="11.145694811948621"><ele>44.0</ele><time>2026-04-26T16:36:28.999Z</time></trkpt><trkpt lat="42.83381361368169" lon="11.145498566345768"><ele>45.0</ele><time>2026-04-26T16:36:29.999Z</time></trkpt><trkpt lat="42.83365200381937" lon="11.145303620108873"><ele>46.0</ele><time>2026-04-26T16:36:30.999Z</time></trkpt><trkpt lat="42.83348602753613" lon="11.145103609149048"><ele>47.0</ele><time>2026-04-26T16:36:31.998Z</time></trkpt><trkpt lat="42.83332079835281" lon="11.144904526067135"><ele>47.5</ele><time>2026-04-26T16:36:32.998Z</time></trkpt><trkpt lat="42.83315212652161" lon="11.144701294820218"><ele>48.0</ele><time>2026-04-26T16:36:33.998Z</time></trkpt><trkpt lat="42.83298053947558" lon="11.144494551061765"><ele>48.0</ele><time>2026-04-26T16:36:34.998Z</time></trkpt><trkpt lat="42.83280963495287" lon="11.144288629804043"><ele>48.0</ele><time>2026-04-26T16:36:35.998Z</time></trkpt><trkpt lat="42.83263761625307" lon="11.14408136597807"><ele>46.0</ele><time>2026-04-26T16:36:36.998Z</time></trkpt><trkpt lat="42.83246350395094" lon="11.143873065854637"><ele>44.0</ele><time>2026-04-26T16:36:37.998Z</time></trkpt><trkpt lat="42.83229073411273" lon="11.143667575835744"><ele>44.0</ele><time>2026-04-26T16:36:38.998Z</time></trkpt><trkpt lat="42.83211794955757" lon="11.143464570293279"><ele>44.0</ele><time>2026-04-26T16:36:39.998Z</time></trkpt><trkpt lat="42.831943313539334" lon="11.143262700849698"><ele>42.0</ele><time>2026-04-26T16:36:40.998Z</time></trkpt><trkpt lat="42.831769007777346" lon="11.143064543862245"><ele>40.0</ele><time>2026-04-26T16:36:41.998Z</time></trkpt><trkpt lat="42.83159404811444" lon="11.14286686867189"><ele>40.0</ele><time>2026-04-26T16:36:42.998Z</time></trkpt><trkpt lat="42.831420387735584" lon="11.142670598043038"><ele>40.0</ele><time>2026-04-26T16:36:43.998Z</time></trkpt><trkpt lat="42.831244879162064" lon="11.142472039820795"><ele>40.5</ele><time>2026-04-26T16:36:45Z</time></trkpt><trkpt lat="42.831070185726425" lon="11.142275764371865"><ele>41.0</ele><time>2026-04-26T16:36:46Z</time></trkpt><trkpt lat="42.83089317866124" lon="11.142082731424562"><ele>39.0</ele><time>2026-04-26T16:36:47Z</time></trkpt><trkpt lat="42.83071369427901" lon="11.141891006125467"><ele>37.0</ele><time>2026-04-26T16:36:48Z</time></trkpt><trkpt lat="42.83053320136638" lon="11.14170167935602"><ele>38.0</ele><time>2026-04-26T16:36:49Z</time></trkpt><trkpt lat="42.83035378162584" lon="11.141516711719504"><ele>39.0</ele><time>2026-04-26T16:36:50Z</time></trkpt><trkpt lat="42.830171759805985" lon="11.141335088144368"><ele>38.0</ele><time>2026-04-26T16:36:51Z</time></trkpt><trkpt lat="42.82998914753028" lon="11.141155817697385"><ele>37.0</ele><time>2026-04-26T16:36:52Z</time></trkpt><trkpt lat="42.829807806194474" lon="11.140977794926213"><ele>36.0</ele><time>2026-04-26T16:36:53Z</time></trkpt><trkpt lat="42.82962537624204" lon="11.140799708985163"><ele>36.0</ele><time>2026-04-26T16:36:54Z</time></trkpt><trkpt lat="42.82944277432967" lon="11.140622537105104"><ele>36.0</ele><time>2026-04-26T16:36:55Z</time></trkpt><trkpt lat="42.82926049964438" lon="11.140448263496783"><ele>36.0</ele><time>2026-04-26T16:36:56Z</time></trkpt><trkpt lat="42.82907600603336" lon="11.140275859999509"><ele>36.0</ele><time>2026-04-26T16:36:57Z</time></trkpt><trkpt lat="42.82888910840703" lon="11.140101790756065"><ele>36.0</ele><time>2026-04-26T16:36:58Z</time></trkpt><trkpt lat="42.82869795590741" lon="11.139929360665185"><ele>36.0</ele><time>2026-04-26T16:36:59Z</time></trkpt><trkpt lat="42.82850726470019" lon="11.139758429443747"><ele>36.0</ele><time>2026-04-26T16:37:00Z</time></trkpt><trkpt lat="42.82830796429468" lon="11.13961370730389"><ele>36.0</ele><time>2026-04-26T16:37:01Z</time></trkpt><trkpt lat="42.82812050357038" lon="11.139442657975605"><ele>36.0</ele><time>2026-04-26T16:37:02Z</time></trkpt><trkpt lat="42.82792998973327" lon="11.139274904831854"><ele>36.0</ele><time>2026-04-26T16:37:03Z</time></trkpt><trkpt lat="42.82773956008187" lon="11.13911057461724"><ele>36.0</ele><time>2026-04-26T16:37:04Z</time></trkpt><trkpt lat="42.82754781069815" lon="11.138950750431434"><ele>36.0</ele><time>2026-04-26T16:37:05Z</time></trkpt><trkpt lat="42.827358123823" lon="11.138793958487655"><ele>36.0</ele><time>2026-04-26T16:37:06Z</time></trkpt><trkpt lat="42.82717843857632" lon="11.13864440117314"><ele>36.0</ele><time>2026-04-26T16:37:07Z</time></trkpt><trkpt lat="42.82701864247943" lon="11.138511259546888"><ele>36.0</ele><time>2026-04-26T16:37:08Z</time></trkpt><trkpt lat="42.82687580091634" lon="11.138383427308344"><ele>36.0</ele><time>2026-04-26T16:37:09Z</time></trkpt><trkpt lat="42.82672685450654" lon="11.138300498414528"><ele>36.0</ele><time>2026-04-26T16:37:10Z</time></trkpt><trkpt lat="42.826567352850425" lon="11.138272348979598"><ele>37.0</ele><time>2026-04-26T16:37:11Z</time></trkpt><trkpt lat="42.826402395920674" lon="11.138302578819687"><ele>38.0</ele><time>2026-04-26T16:37:12Z</time></trkpt><trkpt lat="42.826253576214334" lon="11.138362601585756"><ele>39.0</ele><time>2026-04-26T16:37:13Z</time></trkpt><trkpt lat="42.82609374403765" lon="11.138411987960739"><ele>38.0</ele><time>2026-04-26T16:37:14Z</time></trkpt><trkpt lat="42.825930856078294" lon="11.138413860581997"><ele>37.0</ele><time>2026-04-26T16:37:15Z</time></trkpt><trkpt lat="42.82578361192676" lon="11.138365426472545"><ele>36.0</ele><time>2026-04-26T16:37:16Z</time></trkpt><trkpt lat="42.82566262635835" lon="11.138250122293504"><ele>36.0</ele><time>2026-04-26T16:37:17Z</time></trkpt><trkpt lat="42.82554194400554" lon="11.138141603965266"><ele>36.0</ele><time>2026-04-26T16:37:18Z</time></trkpt><trkpt lat="42.82541243618134" lon="11.138023276881325"><ele>36.0</ele><time>2026-04-26T16:37:19Z</time></trkpt><trkpt lat="42.82528244242842" lon="11.137905305027234"><ele>36.0</ele><time>2026-04-26T16:37:20Z</time></trkpt><trkpt lat="42.825149118445495" lon="11.137779857451077"><ele>36.0</ele><time>2026-04-26T16:37:21Z</time></trkpt><trkpt lat="42.82502619169246" lon="11.137630426780138"><ele>36.0</ele><time>2026-04-26T16:37:22Z</time></trkpt><trkpt lat="42.824925406199284" lon="11.137458168065084"><ele>36.333333333333336</ele><time>2026-04-26T16:37:23Z</time></trkpt><trkpt lat="42.824848189734645" lon="11.13727733631558"><ele>36.66666666666667</ele><time>2026-04-26T16:37:24Z</time></trkpt><trkpt lat="42.82477286633535" lon="11.137081273641693"><ele>37.0</ele><time>2026-04-26T16:37:25Z</time></trkpt><trkpt lat="42.82469713265519" lon="11.136881640716576"><ele>37.0</ele><time>2026-04-26T16:37:26Z</time></trkpt><trkpt lat="42.82461264291649" lon="11.136686418848866"><ele>37.0</ele><time>2026-04-26T16:37:27Z</time></trkpt><trkpt lat="42.824506830884374" lon="11.136508851843368"><ele>37.0</ele><time>2026-04-26T16:37:28Z</time></trkpt><trkpt lat="42.824393207813536" lon="11.136364522092734"><ele>36.66666666666667</ele><time>2026-04-26T16:37:29Z</time></trkpt><trkpt lat="42.82427372228463" lon="11.136234066609768"><ele>36.333333333333336</ele><time>2026-04-26T16:37:30Z</time></trkpt><trkpt lat="42.82414874649327" lon="11.1361092609167"><ele>36.0</ele><time>2026-04-26T16:37:31Z</time></trkpt><trkpt lat="42.82400640477608" lon="11.135984937838897"><ele>36.0</ele><time>2026-04-26T16:37:32Z</time></trkpt><trkpt lat="42.82386165130611" lon="11.135823371704591"><ele>36.0</ele><time>2026-04-26T16:37:33Z</time></trkpt><trkpt lat="42.8237055085956" lon="11.13568359124389"><ele>36.0</ele><time>2026-04-26T16:37:34Z</time></trkpt><trkpt lat="42.82353840620809" lon="11.135562515405782"><ele>35.0</ele><time>2026-04-26T16:37:35Z</time></trkpt><trkpt lat="42.82337368150687" lon="11.135451754668534"><ele>34.0</ele><time>2026-04-26T16:37:36Z</time></trkpt><trkpt lat="42.8232167117304" lon="11.135349402173446"><ele>33.0</ele><time>2026-04-26T16:37:37Z</time></trkpt><trkpt lat="42.82305784785432" lon="11.135259670627788"><ele>33.0</ele><time>2026-04-26T16:37:38Z</time></trkpt><trkpt lat="42.82288934531806" lon="11.135204212790995"><ele>33.0</ele><time>2026-04-26T16:37:39Z</time></trkpt><trkpt lat="42.82272810292542" lon="11.135118913427853"><ele>33.0</ele><time>2026-04-26T16:37:40Z</time></trkpt><trkpt lat="42.82256406614559" lon="11.135059214660725"><ele>32.666666666666664</ele><time>2026-04-26T16:37:41Z</time></trkpt><trkpt lat="42.82238884530204" lon="11.135019425846451"><ele>32.33333333333333</ele><time>2026-04-26T16:37:42Z</time></trkpt><trkpt lat="42.82221895541687" lon="11.134954097141211"><ele>32.0</ele><time>2026-04-26T16:37:43Z</time></trkpt><trkpt lat="42.82205223263305" lon="11.134894424917029"><ele>31.333333333333332</ele><time>2026-04-26T16:37:44Z</time></trkpt><trkpt lat="42.821879690243996" lon="11.134831159094366"><ele>30.666666666666664</ele><time>2026-04-26T16:37:45Z</time></trkpt><trkpt lat="42.82170699919422" lon="11.13476551061389"><ele>30.0</ele><time>2026-04-26T16:37:46Z</time></trkpt><trkpt lat="42.82153385298134" lon="11.134702145707642"><ele>30.0</ele><time>2026-04-26T16:37:47Z</time></trkpt><trkpt lat="42.82136021814223" lon="11.134635071179572"><ele>30.0</ele><time>2026-04-26T16:37:48Z</time></trkpt><trkpt lat="42.82118533562528" lon="11.134567381466553"><ele>30.0</ele><time>2026-04-26T16:37:48.999Z</time></trkpt><trkpt lat="42.82100852743388" lon="11.134505020708337"><ele>29.333333333333336</ele><time>2026-04-26T16:37:49.999Z</time></trkpt><trkpt lat="42.820832682810924" lon="11.13444415697842"><ele>28.666666666666668</ele><time>2026-04-26T16:37:50.999Z</time></trkpt><trkpt lat="42.82066565475947" lon="11.134387456163497"><ele>28.0</ele><time>2026-04-26T16:37:51.999Z</time></trkpt><trkpt lat="42.82050071776147" lon="11.134347742009892"><ele>28.0</ele><time>2026-04-26T16:37:52.999Z</time></trkpt><trkpt lat="42.820333806867986" lon="11.134332478126618"><ele>28.0</ele><time>2026-04-26T16:37:53.999Z</time></trkpt><trkpt lat="42.82016910108556" lon="11.134351211709069"><ele>28.0</ele><time>2026-04-26T16:37:54.999Z</time></trkpt><trkpt lat="42.82001387420771" lon="11.134382439998891"><ele>28.25</ele><time>2026-04-26T16:37:55.999Z</time></trkpt><trkpt lat="42.81986623500473" lon="11.134409120837178"><ele>28.5</ele><time>2026-04-26T16:37:56.999Z</time></trkpt><trkpt lat="42.819743355891035" lon="11.13443616712358"><ele>28.75</ele><time>2026-04-26T16:37:57.999Z</time></trkpt><trkpt lat="42.8196134255132" lon="11.1344638167192"><ele>29.0</ele><time>2026-04-26T16:37:58.999Z</time></trkpt><trkpt lat="42.81948960655795" lon="11.134495427297832"><ele>29.0</ele><time>2026-04-26T16:37:59.999Z</time></trkpt><trkpt lat="42.819368677195946" lon="11.134514705506852"><ele>29.0</ele><time>2026-04-26T16:38:00.999Z</time></trkpt><trkpt lat="42.819251399433504" lon="11.134531308841966"><ele>29.0</ele><time>2026-04-26T16:38:01.999Z</time></trkpt><trkpt lat="42.81913567992135" lon="11.13455180240379"><ele>29.0</ele><time>2026-04-26T16:38:02.999Z</time></trkpt><trkpt lat="42.81901732965717" lon="11.134576608280708"><ele>28.799999999999997</ele><time>2026-04-26T16:38:03.999Z</time></trkpt><trkpt lat="42.8189054660053" lon="11.13460059393145"><ele>28.599999999999998</ele><time>2026-04-26T16:38:04.999Z</time></trkpt><trkpt lat="42.81881447932207" lon="11.134615908319741"><ele>28.4</ele><time>2026-04-26T16:38:05.999Z</time></trkpt><trkpt lat="42.818747586233165" lon="11.13463054315012"><ele>28.2</ele><time>2026-04-26T16:38:06.999Z</time></trkpt><trkpt lat="42.81863925121436" lon="11.134649827362672"><ele>28.0</ele><time>2026-04-26T16:38:08.999Z</time></trkpt><trkpt lat="42.81850135686443" lon="11.134677626070035"><ele>27.666666666666668</ele><time>2026-04-26T16:38:10.999Z</time></trkpt><trkpt lat="42.818420872469325" lon="11.134692573622788"><ele>27.333333333333336</ele><time>2026-04-26T16:38:11.999Z</time></trkpt><trkpt lat="42.81833707053805" lon="11.134706476941854"><ele>27.0</ele><time>2026-04-26T16:38:12.999Z</time></trkpt><trkpt lat="42.81825256188494" lon="11.134722425397223"><ele>26.666666666666664</ele><time>2026-04-26T16:38:13.999Z</time></trkpt><trkpt lat="42.81817662659183" lon="11.134736976731839"><ele>26.333333333333332</ele><time>2026-04-26T16:38:14.999Z</time></trkpt><trkpt lat="42.8180918661809" lon="11.134753917854859"><ele>26.0</ele><time>2026-04-26T16:38:15.999Z</time></trkpt><trkpt lat="42.81799701734932" lon="11.134767990744868"><ele>26.0</ele><time>2026-04-26T16:38:16.999Z</time></trkpt><trkpt lat="42.817891280219825" lon="11.134778678609152"><ele>26.0</ele><time>2026-04-26T16:38:17.999Z</time></trkpt><trkpt lat="42.81776208481235" lon="11.134804678014348"><ele>26.0</ele><time>2026-04-26T16:38:18.999Z</time></trkpt><trkpt lat="42.8176336468468" lon="11.13483012871005"><ele>26.0</ele><time>2026-04-26T16:38:19.999Z</time></trkpt><trkpt lat="42.81750657550454" lon="11.13484782878483"><ele>25.75</ele><time>2026-04-26T16:38:20.999Z</time></trkpt><trkpt lat="42.81737182014691" lon="11.134869997137589"><ele>25.5</ele><time>2026-04-26T16:38:21.999Z</time></trkpt><trkpt lat="42.817229487641114" lon="11.134896466127293"><ele>25.25</ele><time>2026-04-26T16:38:22.999Z</time></trkpt><trkpt lat="42.8170961686916" lon="11.134932835202621"><ele>25.0</ele><time>2026-04-26T16:38:23.999Z</time></trkpt><trkpt lat="42.81696655400197" lon="11.134963141137174"><ele>25.0</ele><time>2026-04-26T16:38:24.999Z</time></trkpt><trkpt lat="42.81682945509591" lon="11.13497363654508"><ele>25.0</ele><time>2026-04-26T16:38:25.999Z</time></trkpt><trkpt lat="42.81668622123678" lon="11.134985281711796"><ele>25.0</ele><time>2026-04-26T16:38:26.999Z</time></trkpt><trkpt lat="42.81653532450802" lon="11.13501612882563"><ele>25.0</ele><time>2026-04-26T16:38:27.999Z</time></trkpt><trkpt lat="42.816379348383514" lon="11.135039381310252"><ele>24.666666666666668</ele><time>2026-04-26T16:38:28.999Z</time></trkpt><trkpt lat="42.81621706147055" lon="11.13506153513083"><ele>24.333333333333336</ele><time>2026-04-26T16:38:29.999Z</time></trkpt><trkpt lat="42.816049653591264" lon="11.135087155166357"><ele>24.0</ele><time>2026-04-26T16:38:30.999Z</time></trkpt><trkpt lat="42.81588008958436" lon="11.135114347517922"><ele>24.0</ele><time>2026-04-26T16:38:31.999Z</time></trkpt><trkpt lat="42.81570895898555" lon="11.135144946379842"><ele>24.0</ele><time>2026-04-26T16:38:32.999Z</time></trkpt><trkpt lat="42.81553923263634" lon="11.135175825782722"><ele>24.0</ele><time>2026-04-26T16:38:33.999Z</time></trkpt><trkpt lat="42.81537280048115" lon="11.135212328356277"><ele>24.0</ele><time>2026-04-26T16:38:34.999Z</time></trkpt><trkpt lat="42.81520501664155" lon="11.13524432089096"><ele>24.0</ele><time>2026-04-26T16:38:35.999Z</time></trkpt><trkpt lat="42.81503274799839" lon="11.135276501706066"><ele>24.0</ele><time>2026-04-26T16:38:36.999Z</time></trkpt><trkpt lat="42.81485838985417" lon="11.135304343721804"><ele>24.0</ele><time>2026-04-26T16:38:37.999Z</time></trkpt><trkpt lat="42.81468116994533" lon="11.135333358071714"><ele>24.0</ele><time>2026-04-26T16:38:38.999Z</time></trkpt><trkpt lat="42.814499851678896" lon="11.135355743376712"><ele>24.0</ele><time>2026-04-26T16:38:39.999Z</time></trkpt><trkpt lat="42.81431873957597" lon="11.13539125778518"><ele>23.666666666666668</ele><time>2026-04-26T16:38:40.999Z</time></trkpt><trkpt lat="42.81413602468325" lon="11.135418175094719"><ele>23.333333333333336</ele><time>2026-04-26T16:38:41.999Z</time></trkpt><trkpt lat="42.81395423238608" lon="11.135445379535183"><ele>23.0</ele><time>2026-04-26T16:38:42.999Z</time></trkpt><trkpt lat="42.81377356431471" lon="11.135476021886628"><ele>23.0</ele><time>2026-04-26T16:38:43.998Z</time></trkpt><trkpt lat="42.81359343352166" lon="11.135507872585446"><ele>23.0</ele><time>2026-04-26T16:38:44.998Z</time></trkpt><trkpt lat="42.81341454865142" lon="11.13553366050991"><ele>23.0</ele><time>2026-04-26T16:38:45.998Z</time></trkpt><trkpt lat="42.813235928806826" lon="11.135563854884719"><ele>23.333333333333336</ele><time>2026-04-26T16:38:46.998Z</time></trkpt><trkpt lat="42.813060665648415" lon="11.135603008464928"><ele>23.666666666666668</ele><time>2026-04-26T16:38:47.998Z</time></trkpt><trkpt lat="42.812899529586716" lon="11.135701600202669"><ele>24.0</ele><time>2026-04-26T16:38:48.998Z</time></trkpt><trkpt lat="42.812748073741524" lon="11.135819835763394"><ele>24.333333333333336</ele><time>2026-04-26T16:38:49.998Z</time></trkpt><trkpt lat="42.812597817369756" lon="11.135952497077115"><ele>24.666666666666668</ele><time>2026-04-26T16:38:51Z</time></trkpt><trkpt lat="42.81244534543916" lon="11.13608492862258"><ele>25.0</ele><time>2026-04-26T16:38:52Z</time></trkpt><trkpt lat="42.81229184744267" lon="11.136218557508728"><ele>25.0</ele><time>2026-04-26T16:38:53Z</time></trkpt><trkpt lat="42.812137334819845" lon="11.136353064749766"><ele>25.0</ele><time>2026-04-26T16:38:54Z</time></trkpt><trkpt lat="42.81198299947273" lon="11.13648796747991"><ele>25.0</ele><time>2026-04-26T16:38:55Z</time></trkpt><trkpt lat="42.811827267221396" lon="11.13662029716256"><ele>25.333333333333336</ele><time>2026-04-26T16:38:56Z</time></trkpt><trkpt lat="42.81167272888433" lon="11.136751142302922"><ele>25.666666666666664</ele><time>2026-04-26T16:38:57Z</time></trkpt><trkpt lat="42.81152285007703" lon="11.136886211352802"><ele>26.0</ele><time>2026-04-26T16:38:58Z</time></trkpt><trkpt lat="42.811376254291346" lon="11.137013495399222"><ele>26.0</ele><time>2026-04-26T16:38:59Z</time></trkpt><trkpt lat="42.81123546638287" lon="11.137139644325066"><ele>26.0</ele><time>2026-04-26T16:39:00Z</time></trkpt><trkpt lat="42.81110396927465" lon="11.137257531397346"><ele>26.0</ele><time>2026-04-26T16:39:01Z</time></trkpt><trkpt lat="42.8109794442669" lon="11.137367774327469"><ele>26.25</ele><time>2026-04-26T16:39:02Z</time></trkpt><trkpt lat="42.81085859731401" lon="11.137467584968782"><ele>26.5</ele><time>2026-04-26T16:39:03Z</time></trkpt><trkpt lat="42.810740075782455" lon="11.137573431210559"><ele>26.75</ele><time>2026-04-26T16:39:04Z</time></trkpt><trkpt lat="42.810622624433776" lon="11.137682398483637"><ele>27.0</ele><time>2026-04-26T16:39:05Z</time></trkpt><trkpt lat="42.810505073935026" lon="11.13778535565241"><ele>27.0</ele><time>2026-04-26T16:39:06Z</time></trkpt><trkpt lat="42.81039306954114" lon="11.137891646000543"><ele>27.0</ele><time>2026-04-26T16:39:07Z</time></trkpt><trkpt lat="42.810287390025735" lon="11.137977746013407"><ele>27.0</ele><time>2026-04-26T16:39:08Z</time></trkpt><trkpt lat="42.81018598645169" lon="11.138066743782119"><ele>27.0</ele><time>2026-04-26T16:39:09Z</time></trkpt><trkpt lat="42.810094321052254" lon="11.138148906939344"><ele>26.6</ele><time>2026-04-26T16:39:10Z</time></trkpt><trkpt lat="42.809997272404665" lon="11.138220831717996"><ele>26.200000000000003</ele><time>2026-04-26T16:39:11Z</time></trkpt><trkpt lat="42.80989690425101" lon="11.13825963233467"><ele>25.8</ele><time>2026-04-26T16:39:12Z</time></trkpt><trkpt lat="42.80979675723938" lon="11.138296071859434"><ele>25.4</ele><time>2026-04-26T16:39:13Z</time></trkpt><trkpt lat="42.809691009887665" lon="11.13832458017322"><ele>25.0</ele><time>2026-04-26T16:39:14Z</time></trkpt><trkpt lat="42.809589763355525" lon="11.138346001771474"><ele>25.0</ele><time>2026-04-26T16:39:15Z</time></trkpt><trkpt lat="42.8094794804217" lon="11.138363280233571"><ele>25.0</ele><time>2026-04-26T16:39:16Z</time></trkpt><trkpt lat="42.80936883058104" lon="11.13837631917754"><ele>25.0</ele><time>2026-04-26T16:39:17Z</time></trkpt><trkpt lat="42.80925573543639" lon="11.138388655403011"><ele>25.0</ele><time>2026-04-26T16:39:18Z</time></trkpt><trkpt lat="42.80914707385529" lon="11.138397719965965"><ele>25.0</ele><time>2026-04-26T16:39:19Z</time></trkpt><trkpt lat="42.80904172794921" lon="11.138406662222508"><ele>25.0</ele><time>2026-04-26T16:39:20Z</time></trkpt><trkpt lat="42.80894375637884" lon="11.138414803569376"><ele>25.0</ele><time>2026-04-26T16:39:21Z</time></trkpt><trkpt lat="42.8088484328656" lon="11.138422562486276"><ele>25.0</ele><time>2026-04-26T16:39:22Z</time></trkpt><trkpt lat="42.80875565006879" lon="11.138430114435264"><ele>25.0</ele><time>2026-04-26T16:39:23Z</time></trkpt><trkpt lat="42.808669081066974" lon="11.138429481312322"><ele>25.0</ele><time>2026-04-26T16:39:24Z</time></trkpt><trkpt lat="42.80857592447489" lon="11.138407062761459"><ele>24.833333333333336</ele><time>2026-04-26T16:39:25Z</time></trkpt><trkpt lat="42.80849000364913" lon="11.138373429951127"><ele>24.666666666666668</ele><time>2026-04-26T16:39:26Z</time></trkpt><trkpt lat="42.80841401728421" lon="11.13834157497659"><ele>24.5</ele><time>2026-04-26T16:39:27Z</time></trkpt><trkpt lat="42.808336646437006" lon="11.138309177038243"><ele>24.333333333333336</ele><time>2026-04-26T16:39:28Z</time></trkpt><trkpt lat="42.80825446691535" lon="11.138275129105127"><ele>24.166666666666668</ele><time>2026-04-26T16:39:29Z</time></trkpt><trkpt lat="42.80816930833094" lon="11.138240210169428"><ele>24.0</ele><time>2026-04-26T16:39:30Z</time></trkpt><trkpt lat="42.808075998168626" lon="11.138199845311448"><ele>24.0</ele><time>2026-04-26T16:39:31Z</time></trkpt><trkpt lat="42.8079678275862" lon="11.138153848513332"><ele>24.0</ele><time>2026-04-26T16:39:32Z</time></trkpt><trkpt lat="42.80786203962228" lon="11.138108718415822"><ele>24.0</ele><time>2026-04-26T16:39:33Z</time></trkpt><trkpt lat="42.8077494881088" lon="11.13806137613978"><ele>24.0</ele><time>2026-04-26T16:39:34Z</time></trkpt><trkpt lat="42.80763038940801" lon="11.138011328356063"><ele>24.0</ele><time>2026-04-26T16:39:35Z</time></trkpt><trkpt lat="42.80750618773611" lon="11.137959136192348"><ele>24.0</ele><time>2026-04-26T16:39:36Z</time></trkpt><trkpt lat="42.807378828562584" lon="11.137908114335199"><ele>24.0</ele><time>2026-04-26T16:39:37Z</time></trkpt><trkpt lat="42.80723438552998" lon="11.13785627033137"><ele>24.0</ele><time>2026-04-26T16:39:38Z</time></trkpt><trkpt lat="42.807075315860246" lon="11.137809545611864"><ele>24.0</ele><time>2026-04-26T16:39:39Z</time></trkpt><trkpt lat="42.80690344312734" lon="11.137763354062011"><ele>24.0</ele><time>2026-04-26T16:39:40Z</time></trkpt><trkpt lat="42.80672738777863" lon="11.137714634577932"><ele>24.0</ele><time>2026-04-26T16:39:41Z</time></trkpt><trkpt lat="42.80655364349739" lon="11.137665641306919"><ele>23.333333333333332</ele><time>2026-04-26T16:39:42Z</time></trkpt><trkpt lat="42.80637292473372" lon="11.13761554641958"><ele>22.666666666666664</ele><time>2026-04-26T16:39:43Z</time></trkpt><trkpt lat="42.80618963945661" lon="11.137564981942946"><ele>22.0</ele><time>2026-04-26T16:39:44Z</time></trkpt><trkpt lat="42.806007566390086" lon="11.137514751899838"><ele>22.0</ele><time>2026-04-26T16:39:45Z</time></trkpt><trkpt lat="42.805826588870026" lon="11.137463934950702"><ele>22.0</ele><time>2026-04-26T16:39:46Z</time></trkpt><trkpt lat="42.80564249986269" lon="11.137413198612894"><ele>22.0</ele><time>2026-04-26T16:39:47Z</time></trkpt><trkpt lat="42.805453159517484" lon="11.137361077132553"><ele>22.0</ele><time>2026-04-26T16:39:48Z</time></trkpt><trkpt lat="42.80525807032668" lon="11.137306010427634"><ele>22.0</ele><time>2026-04-26T16:39:49Z</time></trkpt><trkpt lat="42.80504967137159" lon="11.137247065578949"><ele>22.0</ele><time>2026-04-26T16:39:50Z</time></trkpt><trkpt lat="42.804836341777076" lon="11.137186726099065"><ele>21.666666666666664</ele><time>2026-04-26T16:39:51Z</time></trkpt><trkpt lat="42.804630009229925" lon="11.137128365663544"><ele>21.333333333333332</ele><time>2026-04-26T16:39:52Z</time></trkpt><trkpt lat="42.804420598948454" lon="11.137069134760196"><ele>21.0</ele><time>2026-04-26T16:39:53Z</time></trkpt><trkpt lat="42.804206594487475" lon="11.137008604403874"><ele>20.333333333333332</ele><time>2026-04-26T16:39:54Z</time></trkpt><trkpt lat="42.80399364061804" lon="11.136947779506853"><ele>19.666666666666664</ele><time>2026-04-26T16:39:54.999Z</time></trkpt><trkpt lat="42.80378254198476" lon="11.136887262497408"><ele>19.0</ele><time>2026-04-26T16:39:55.999Z</time></trkpt><trkpt lat="42.803570976467576" lon="11.136826611655035"><ele>19.0</ele><time>2026-04-26T16:39:56.999Z</time></trkpt><trkpt lat="42.80336322302127" lon="11.136768392928571"><ele>19.0</ele><time>2026-04-26T16:39:57.999Z</time></trkpt><trkpt lat="42.80315655257569" lon="11.136729393609777"><ele>19.0</ele><time>2026-04-26T16:39:58.999Z</time></trkpt><trkpt lat="42.802958159701916" lon="11.136662318528945"><ele>19.0</ele><time>2026-04-26T16:39:59.999Z</time></trkpt><trkpt lat="42.80276297226176" lon="11.136590534551583"><ele>19.0</ele><time>2026-04-26T16:40:00.999Z</time></trkpt><trkpt lat="42.80256879607963" lon="11.136505515501009"><ele>19.0</ele><time>2026-04-26T16:40:01.999Z</time></trkpt><trkpt lat="42.80237650326367" lon="11.136411194939615"><ele>18.333333333333332</ele><time>2026-04-26T16:40:02.999Z</time></trkpt><trkpt lat="42.80218584036122" lon="11.136310019312198"><ele>17.666666666666668</ele><time>2026-04-26T16:40:03.999Z</time></trkpt><trkpt lat="42.80199419574615" lon="11.136209878022996"><ele>17.0</ele><time>2026-04-26T16:40:04.999Z</time></trkpt><trkpt lat="42.80180326582622" lon="11.136115962163698"><ele>16.666666666666668</ele><time>2026-04-26T16:40:05.999Z</time></trkpt><trkpt lat="42.80162027304833" lon="11.136022911485327"><ele>16.333333333333332</ele><time>2026-04-26T16:40:06.999Z</time></trkpt><trkpt lat="42.80144324456523" lon="11.135932927008318"><ele>16.0</ele><time>2026-04-26T16:40:07.999Z</time></trkpt><trkpt lat="42.80127559155768" lon="11.135849228437339"><ele>16.0</ele><time>2026-04-26T16:40:08.999Z</time></trkpt><trkpt lat="42.80111714678093" lon="11.135767969022075"><ele>16.0</ele><time>2026-04-26T16:40:09.999Z</time></trkpt><trkpt lat="42.80097321819935" lon="11.135687897904136"><ele>16.0</ele><time>2026-04-26T16:40:10.999Z</time></trkpt><trkpt lat="42.80084951991053" lon="11.13559164647152"><ele>16.333333333333332</ele><time>2026-04-26T16:40:11.999Z</time></trkpt><trkpt lat="42.80073871741742" lon="11.135459987290249"><ele>16.666666666666668</ele><time>2026-04-26T16:40:12.999Z</time></trkpt><trkpt lat="42.80063980285265" lon="11.135302630446024"><ele>17.0</ele><time>2026-04-26T16:40:13.999Z</time></trkpt><trkpt lat="42.800543834103756" lon="11.135138332001114"><ele>17.0</ele><time>2026-04-26T16:40:14.999Z</time></trkpt><trkpt lat="42.80043953137088" lon="11.134993447526018"><ele>17.0</ele><time>2026-04-26T16:40:15.999Z</time></trkpt><trkpt lat="42.80031394488917" lon="11.134888176909072"><ele>17.0</ele><time>2026-04-26T16:40:16.999Z</time></trkpt><trkpt lat="42.80016879395947" lon="11.134811821588288"><ele>16.333333333333336</ele><time>2026-04-26T16:40:17.999Z</time></trkpt><trkpt lat="42.800008185747636" lon="11.134767052942191"><ele>15.666666666666668</ele><time>2026-04-26T16:40:18.999Z</time></trkpt><trkpt lat="42.79983671990574" lon="11.134765074582871"><ele>15.0</ele><time>2026-04-26T16:40:19.999Z</time></trkpt><trkpt lat="42.799668976231466" lon="11.134789521867297"><ele>15.0</ele><time>2026-04-26T16:40:20.999Z</time></trkpt><trkpt lat="42.79949734906188" lon="11.134738425362908"><ele>15.0</ele><time>2026-04-26T16:40:21.999Z</time></trkpt><trkpt lat="42.79934121703467" lon="11.134704743776274"><ele>15.0</ele><time>2026-04-26T16:40:22.999Z</time></trkpt><trkpt lat="42.79919435250156" lon="11.134661220428102"><ele>15.0</ele><time>2026-04-26T16:40:23.999Z</time></trkpt><trkpt lat="42.799040270336725" lon="11.134613055653546"><ele>15.0</ele><time>2026-04-26T16:40:24.999Z</time></trkpt><trkpt lat="42.79889029742946" lon="11.134566848565601"><ele>15.0</ele><time>2026-04-26T16:40:25.999Z</time></trkpt><trkpt lat="42.79875009363207" lon="11.13451516960121"><ele>15.0</ele><time>2026-04-26T16:40:26.999Z</time></trkpt><trkpt lat="42.79862268929055" lon="11.134465930478015"><ele>15.0</ele><time>2026-04-26T16:40:27.999Z</time></trkpt><trkpt lat="42.79849849543125" lon="11.134416956628067"><ele>15.0</ele><time>2026-04-26T16:40:28.999Z</time></trkpt><trkpt lat="42.79837877373941" lon="11.134365703056687"><ele>15.0</ele><time>2026-04-26T16:40:29.999Z</time></trkpt><trkpt lat="42.798258425045496" lon="11.134307194655147"><ele>14.75</ele><time>2026-04-26T16:40:30.999Z</time></trkpt><trkpt lat="42.7981352727119" lon="11.134247893830148"><ele>14.5</ele><time>2026-04-26T16:40:31.999Z</time></trkpt><trkpt lat="42.798011393668354" lon="11.134190977598937"><ele>14.25</ele><time>2026-04-26T16:40:32.999Z</time></trkpt><trkpt lat="42.79788927923224" lon="11.134129452100941"><ele>14.0</ele><time>2026-04-26T16:40:33.999Z</time></trkpt><trkpt lat="42.79777038641874" lon="11.13407093301836"><ele>13.75</ele><time>2026-04-26T16:40:34.999Z</time></trkpt><trkpt lat="42.797652014778784" lon="11.134008083432336"><ele>13.5</ele><time>2026-04-26T16:40:35.999Z</time></trkpt><trkpt lat="42.79752926241711" lon="11.133946258180737"><ele>13.25</ele><time>2026-04-26T16:40:36.999Z</time></trkpt><trkpt lat="42.79740443175701" lon="11.133879360065881"><ele>13.0</ele><time>2026-04-26T16:40:37.999Z</time></trkpt><trkpt lat="42.79727909070206" lon="11.133816930883205"><ele>13.0</ele><time>2026-04-26T16:40:38.999Z</time></trkpt><trkpt lat="42.797153717221875" lon="11.133755587838948"><ele>13.0</ele><time>2026-04-26T16:40:39.999Z</time></trkpt><trkpt lat="42.79703049014056" lon="11.133691010827615"><ele>13.0</ele><time>2026-04-26T16:40:40.999Z</time></trkpt><trkpt lat="42.796908462201266" lon="11.13362671233799"><ele>13.0</ele><time>2026-04-26T16:40:41.999Z</time></trkpt><trkpt lat="42.79678794093444" lon="11.133564414869522"><ele>13.0</ele><time>2026-04-26T16:40:42.999Z</time></trkpt><trkpt lat="42.79666497189699" lon="11.133501426925905"><ele>13.0</ele><time>2026-04-26T16:40:43.999Z</time></trkpt><trkpt lat="42.796542680746576" lon="11.133438302900256"><ele>13.0</ele><time>2026-04-26T16:40:44.999Z</time></trkpt><trkpt lat="42.79642351986649" lon="11.133378561825348"><ele>13.0</ele><time>2026-04-26T16:40:45.999Z</time></trkpt><trkpt lat="42.79630472806563" lon="11.133319475496563"><ele>13.0</ele><time>2026-04-26T16:40:46.999Z</time></trkpt><trkpt lat="42.79618820463495" lon="11.133261193953178"><ele>13.0</ele><time>2026-04-26T16:40:47.999Z</time></trkpt><trkpt lat="42.796073823174474" lon="11.133201057198933"><ele>13.0</ele><time>2026-04-26T16:40:48.999Z</time></trkpt><trkpt lat="42.795960427349605" lon="11.1331433395745"><ele>13.0</ele><time>2026-04-26T16:40:49.998Z</time></trkpt><trkpt lat="42.79584811489482" lon="11.133092446324964"><ele>12.999999999999998</ele><time>2026-04-26T16:40:50.998Z</time></trkpt><trkpt lat="42.79574250440031" lon="11.13304360891114"><ele>13.0</ele><time>2026-04-26T16:40:51.998Z</time></trkpt><trkpt lat="42.795648153485004" lon="11.133001724189935"><ele>13.0</ele><time>2026-04-26T16:40:52.998Z</time></trkpt><trkpt lat="42.79557564170454" lon="11.132936547979174"><ele>13.0</ele><time>2026-04-26T16:40:53.998Z</time></trkpt><trkpt lat="42.795528401516634" lon="11.132849847974867"><ele>12.999999999999998</ele><time>2026-04-26T16:40:54.998Z</time></trkpt><trkpt lat="42.79548928072298" lon="11.13278232925853"><ele>13.0</ele><time>2026-04-26T16:40:55.998Z</time></trkpt><trkpt lat="42.7954146160226" lon="11.132728812905304"><ele>13.0</ele><time>2026-04-26T16:40:58Z</time></trkpt><trkpt lat="42.79539414626935" lon="11.132646778502819"><ele>13.0</ele><time>2026-04-26T16:41:15Z</time></trkpt></trkseg></trk></gpx>